<?xml version="1.0" encoding="UTF-8"?>
<gpx version="1.1" creator="https://www.www-youtrack-es.amenigma.com" xsi:schemaLocation="http://www.topografix.com/GPX/1/1 http://www.topografix.com/GPX/1/1/gpx.xsd http://www.garmin.com/xmlschemas/GpxExtensions/v3 http://www.garmin.com/xmlschemas/GpxExtensionsv3.xsd http://www.garmin.com/xmlschemas/TrackPointExtension/v1 http://www.garmin.com/xmlschemas/TrackPointExtensionv1.xsd" xmlns:gpxtpx="http://www.garmin.com/xmlschemas/TrackPointExtension/v1" xmlns:gpxx="http://www.garmin.com/xmlschemas/GpxExtensions/v3" xmlns:xsi="http://www.w3.org/2001/XMLSchema-instance">
  <metadata>
    <link href="https://www.www-youtrack-es.amenigma.com">
      <text>YouTrack.es</text>
    </link>
    <time>2026-08-31T04:29:53Z</time>
  </metadata>
  <trk>
    <src>https://www.www-youtrack-es.amenigma.com</src>
    <link href="https://www.www-youtrack-es.amenigma.com/ruta/21253-ferrol-a-carino">
      <text>YouTrack.es</text>
    </link>
    <trkseg>
      <trkpt lat="43.741148" lon="-7.868054">
        <ele>13.933</ele>
        <time>2016-09-26T06:38:20Z</time>
      </trkpt>
      <trkpt lat="43.741145" lon="-7.868054">
        <ele>13.823</ele>
        <time>2016-09-26T06:38:21Z</time>
      </trkpt>
      <trkpt lat="43.741142" lon="-7.868051">
        <ele>13.715</ele>
        <time>2016-09-26T06:38:22Z</time>
      </trkpt>
      <trkpt lat="43.741142" lon="-7.868051">
        <ele>13.708</ele>
        <time>2016-09-26T06:38:22Z</time>
      </trkpt>
      <trkpt lat="43.741142" lon="-7.868051">
        <ele>13.794</ele>
        <time>2016-09-26T06:38:22Z</time>
      </trkpt>
      <trkpt lat="43.741090" lon="-7.868020">
        <ele>13.879</ele>
        <time>2016-09-26T06:38:41Z</time>
      </trkpt>
      <trkpt lat="43.741089" lon="-7.868025">
        <ele>13.937</ele>
        <time>2016-09-26T06:38:42Z</time>
      </trkpt>
      <trkpt lat="43.741083" lon="-7.868027">
        <ele>13.823</ele>
        <time>2016-09-26T06:38:43Z</time>
      </trkpt>
      <trkpt lat="43.741083" lon="-7.868027">
        <ele>13.897</ele>
        <time>2016-09-26T06:38:43Z</time>
      </trkpt>
      <trkpt lat="43.741083" lon="-7.868027">
        <ele>13.889</ele>
        <time>2016-09-26T06:38:43Z</time>
      </trkpt>
      <trkpt lat="43.741111" lon="-7.868012">
        <ele>13.842</ele>
        <time>2016-09-26T06:38:46Z</time>
      </trkpt>
      <trkpt lat="43.741112" lon="-7.868008">
        <ele>13.990</ele>
        <time>2016-09-26T06:38:47Z</time>
      </trkpt>
      <trkpt lat="43.741116" lon="-7.868008">
        <ele>14.013</ele>
        <time>2016-09-26T06:38:48Z</time>
      </trkpt>
      <trkpt lat="43.741118" lon="-7.868022">
        <ele>14.043</ele>
        <time>2016-09-26T06:38:49Z</time>
      </trkpt>
      <trkpt lat="43.741116" lon="-7.868032">
        <ele>14.107</ele>
        <time>2016-09-26T06:38:50Z</time>
      </trkpt>
      <trkpt lat="43.741113" lon="-7.868037">
        <ele>14.008</ele>
        <time>2016-09-26T06:38:51Z</time>
      </trkpt>
      <trkpt lat="43.741113" lon="-7.868045">
        <ele>13.762</ele>
        <time>2016-09-26T06:38:52Z</time>
      </trkpt>
      <trkpt lat="43.741110" lon="-7.868050">
        <ele>13.657</ele>
        <time>2016-09-26T06:38:53Z</time>
      </trkpt>
      <trkpt lat="43.741108" lon="-7.868057">
        <ele>13.755</ele>
        <time>2016-09-26T06:38:54Z</time>
      </trkpt>
      <trkpt lat="43.741106" lon="-7.868061">
        <ele>13.531</ele>
        <time>2016-09-26T06:38:55Z</time>
      </trkpt>
      <trkpt lat="43.741106" lon="-7.868061">
        <ele>13.515</ele>
        <time>2016-09-26T06:38:55Z</time>
      </trkpt>
      <trkpt lat="43.741106" lon="-7.868061">
        <ele>13.537</ele>
        <time>2016-09-26T06:38:55Z</time>
      </trkpt>
      <trkpt lat="43.741140" lon="-7.868031">
        <ele>14.150</ele>
        <time>2016-09-26T06:39:05Z</time>
      </trkpt>
      <trkpt lat="43.741143" lon="-7.868026">
        <ele>14.188</ele>
        <time>2016-09-26T06:39:06Z</time>
      </trkpt>
      <trkpt lat="43.741144" lon="-7.868023">
        <ele>14.257</ele>
        <time>2016-09-26T06:39:07Z</time>
      </trkpt>
      <trkpt lat="43.741144" lon="-7.868023">
        <ele>14.200</ele>
        <time>2016-09-26T06:39:07Z</time>
      </trkpt>
      <trkpt lat="43.741144" lon="-7.868023">
        <ele>14.220</ele>
        <time>2016-09-26T06:39:07Z</time>
      </trkpt>
      <trkpt lat="43.741138" lon="-7.867919">
        <ele>13.708</ele>
        <time>2016-09-26T06:39:21Z</time>
      </trkpt>
      <trkpt lat="43.741138" lon="-7.867911">
        <ele>13.926</ele>
        <time>2016-09-26T06:39:22Z</time>
      </trkpt>
      <trkpt lat="43.741140" lon="-7.867905">
        <ele>13.831</ele>
        <time>2016-09-26T06:39:23Z</time>
      </trkpt>
      <trkpt lat="43.741140" lon="-7.867905">
        <ele>13.829</ele>
        <time>2016-09-26T06:39:23Z</time>
      </trkpt>
      <trkpt lat="43.741140" lon="-7.867905">
        <ele>13.815</ele>
        <time>2016-09-26T06:39:23Z</time>
      </trkpt>
      <trkpt lat="43.741156" lon="-7.867970">
        <ele>13.869</ele>
        <time>2016-09-26T06:39:28Z</time>
      </trkpt>
      <trkpt lat="43.741160" lon="-7.867982">
        <ele>13.961</ele>
        <time>2016-09-26T06:39:29Z</time>
      </trkpt>
      <trkpt lat="43.741161" lon="-7.867985">
        <ele>14.074</ele>
        <time>2016-09-26T06:39:30Z</time>
      </trkpt>
      <trkpt lat="43.741164" lon="-7.867993">
        <ele>13.992</ele>
        <time>2016-09-26T06:39:31Z</time>
      </trkpt>
      <trkpt lat="43.741164" lon="-7.867995">
        <ele>13.927</ele>
        <time>2016-09-26T06:39:32Z</time>
      </trkpt>
      <trkpt lat="43.741165" lon="-7.868004">
        <ele>14.068</ele>
        <time>2016-09-26T06:39:33Z</time>
      </trkpt>
      <trkpt lat="43.741165" lon="-7.868004">
        <ele>14.014</ele>
        <time>2016-09-26T06:39:33Z</time>
      </trkpt>
      <trkpt lat="43.741165" lon="-7.868004">
        <ele>14.008</ele>
        <time>2016-09-26T06:39:33Z</time>
      </trkpt>
      <trkpt lat="43.741097" lon="-7.868084">
        <ele>13.943</ele>
        <time>2016-09-26T06:46:31Z</time>
      </trkpt>
      <trkpt lat="43.741110" lon="-7.868079">
        <ele>14.048</ele>
        <time>2016-09-26T06:46:32Z</time>
      </trkpt>
      <trkpt lat="43.741117" lon="-7.868072">
        <ele>14.076</ele>
        <time>2016-09-26T06:46:33Z</time>
      </trkpt>
      <trkpt lat="43.741131" lon="-7.868068">
        <ele>14.072</ele>
        <time>2016-09-26T06:46:34Z</time>
      </trkpt>
      <trkpt lat="43.741140" lon="-7.868066">
        <ele>14.156</ele>
        <time>2016-09-26T06:46:35Z</time>
      </trkpt>
      <trkpt lat="43.741151" lon="-7.868068">
        <ele>14.198</ele>
        <time>2016-09-26T06:46:36Z</time>
      </trkpt>
      <trkpt lat="43.741158" lon="-7.868076">
        <ele>14.261</ele>
        <time>2016-09-26T06:46:37Z</time>
      </trkpt>
      <trkpt lat="43.741158" lon="-7.868074">
        <ele>14.339</ele>
        <time>2016-09-26T06:46:38Z</time>
      </trkpt>
      <trkpt lat="43.741158" lon="-7.868072">
        <ele>14.462</ele>
        <time>2016-09-26T06:46:39Z</time>
      </trkpt>
      <trkpt lat="43.741165" lon="-7.868080">
        <ele>14.583</ele>
        <time>2016-09-26T06:46:40Z</time>
      </trkpt>
      <trkpt lat="43.741165" lon="-7.868080">
        <ele>14.511</ele>
        <time>2016-09-26T06:46:40Z</time>
      </trkpt>
      <trkpt lat="43.741165" lon="-7.868080">
        <ele>14.508</ele>
        <time>2016-09-26T06:46:40Z</time>
      </trkpt>
      <trkpt lat="43.741171" lon="-7.868111">
        <ele>14.627</ele>
        <time>2016-09-26T06:46:44Z</time>
      </trkpt>
      <trkpt lat="43.741172" lon="-7.868114">
        <ele>14.782</ele>
        <time>2016-09-26T06:46:45Z</time>
      </trkpt>
      <trkpt lat="43.741172" lon="-7.868114">
        <ele>14.760</ele>
        <time>2016-09-26T06:46:45Z</time>
      </trkpt>
      <trkpt lat="43.741172" lon="-7.868114">
        <ele>14.726</ele>
        <time>2016-09-26T06:46:45Z</time>
      </trkpt>
      <trkpt lat="43.741243" lon="-7.868083">
        <ele>15.250</ele>
        <time>2016-09-26T06:47:04Z</time>
      </trkpt>
      <trkpt lat="43.741254" lon="-7.868072">
        <ele>15.422</ele>
        <time>2016-09-26T06:47:05Z</time>
      </trkpt>
      <trkpt lat="43.741270" lon="-7.868077">
        <ele>15.715</ele>
        <time>2016-09-26T06:47:06Z</time>
      </trkpt>
      <trkpt lat="43.741281" lon="-7.868080">
        <ele>15.943</ele>
        <time>2016-09-26T06:47:07Z</time>
      </trkpt>
      <trkpt lat="43.741290" lon="-7.868078">
        <ele>16.177</ele>
        <time>2016-09-26T06:47:08Z</time>
      </trkpt>
      <trkpt lat="43.741304" lon="-7.868078">
        <ele>16.561</ele>
        <time>2016-09-26T06:47:09Z</time>
      </trkpt>
      <trkpt lat="43.741322" lon="-7.868074">
        <ele>16.627</ele>
        <time>2016-09-26T06:47:10Z</time>
      </trkpt>
      <trkpt lat="43.741345" lon="-7.868066">
        <ele>16.708</ele>
        <time>2016-09-26T06:47:11Z</time>
      </trkpt>
      <trkpt lat="43.741366" lon="-7.868062">
        <ele>16.698</ele>
        <time>2016-09-26T06:47:12Z</time>
      </trkpt>
      <trkpt lat="43.741378" lon="-7.868051">
        <ele>16.743</ele>
        <time>2016-09-26T06:47:13Z</time>
      </trkpt>
      <trkpt lat="43.741392" lon="-7.868040">
        <ele>16.821</ele>
        <time>2016-09-26T06:47:14Z</time>
      </trkpt>
      <trkpt lat="43.741405" lon="-7.868032">
        <ele>17.067</ele>
        <time>2016-09-26T06:47:15Z</time>
      </trkpt>
      <trkpt lat="43.741416" lon="-7.868025">
        <ele>17.231</ele>
        <time>2016-09-26T06:47:16Z</time>
      </trkpt>
      <trkpt lat="43.741427" lon="-7.868017">
        <ele>17.293</ele>
        <time>2016-09-26T06:47:17Z</time>
      </trkpt>
      <trkpt lat="43.741439" lon="-7.868009">
        <ele>17.346</ele>
        <time>2016-09-26T06:47:18Z</time>
      </trkpt>
      <trkpt lat="43.741447" lon="-7.868000">
        <ele>17.654</ele>
        <time>2016-09-26T06:47:19Z</time>
      </trkpt>
      <trkpt lat="43.741456" lon="-7.867988">
        <ele>17.772</ele>
        <time>2016-09-26T06:47:20Z</time>
      </trkpt>
      <trkpt lat="43.741461" lon="-7.867984">
        <ele>17.913</ele>
        <time>2016-09-26T06:47:21Z</time>
      </trkpt>
      <trkpt lat="43.741468" lon="-7.867978">
        <ele>18.014</ele>
        <time>2016-09-26T06:47:22Z</time>
      </trkpt>
      <trkpt lat="43.741475" lon="-7.867970">
        <ele>18.208</ele>
        <time>2016-09-26T06:47:23Z</time>
      </trkpt>
      <trkpt lat="43.741474" lon="-7.867951">
        <ele>18.368</ele>
        <time>2016-09-26T06:47:24Z</time>
      </trkpt>
      <trkpt lat="43.741481" lon="-7.867934">
        <ele>18.623</ele>
        <time>2016-09-26T06:47:25Z</time>
      </trkpt>
      <trkpt lat="43.741482" lon="-7.867911">
        <ele>18.931</ele>
        <time>2016-09-26T06:47:26Z</time>
      </trkpt>
      <trkpt lat="43.741476" lon="-7.867901">
        <ele>19.087</ele>
        <time>2016-09-26T06:47:27Z</time>
      </trkpt>
      <trkpt lat="43.741485" lon="-7.867887">
        <ele>19.121</ele>
        <time>2016-09-26T06:47:28Z</time>
      </trkpt>
      <trkpt lat="43.741486" lon="-7.867878">
        <ele>19.213</ele>
        <time>2016-09-26T06:47:29Z</time>
      </trkpt>
      <trkpt lat="43.741486" lon="-7.867869">
        <ele>19.176</ele>
        <time>2016-09-26T06:47:30Z</time>
      </trkpt>
      <trkpt lat="43.741511" lon="-7.867850">
        <ele>19.164</ele>
        <time>2016-09-26T06:47:31Z</time>
      </trkpt>
      <trkpt lat="43.741535" lon="-7.867836">
        <ele>19.318</ele>
        <time>2016-09-26T06:47:32Z</time>
      </trkpt>
      <trkpt lat="43.741546" lon="-7.867827">
        <ele>19.598</ele>
        <time>2016-09-26T06:47:33Z</time>
      </trkpt>
      <trkpt lat="43.741558" lon="-7.867817">
        <ele>19.717</ele>
        <time>2016-09-26T06:47:34Z</time>
      </trkpt>
      <trkpt lat="43.741569" lon="-7.867808">
        <ele>19.908</ele>
        <time>2016-09-26T06:47:35Z</time>
      </trkpt>
      <trkpt lat="43.741577" lon="-7.867793">
        <ele>20.022</ele>
        <time>2016-09-26T06:47:36Z</time>
      </trkpt>
      <trkpt lat="43.741580" lon="-7.867777">
        <ele>20.197</ele>
        <time>2016-09-26T06:47:37Z</time>
      </trkpt>
      <trkpt lat="43.741588" lon="-7.867764">
        <ele>20.345</ele>
        <time>2016-09-26T06:47:38Z</time>
      </trkpt>
      <trkpt lat="43.741594" lon="-7.867755">
        <ele>20.451</ele>
        <time>2016-09-26T06:47:39Z</time>
      </trkpt>
      <trkpt lat="43.741603" lon="-7.867744">
        <ele>20.575</ele>
        <time>2016-09-26T06:47:40Z</time>
      </trkpt>
      <trkpt lat="43.741609" lon="-7.867725">
        <ele>20.647</ele>
        <time>2016-09-26T06:47:41Z</time>
      </trkpt>
      <trkpt lat="43.741614" lon="-7.867704">
        <ele>20.860</ele>
        <time>2016-09-26T06:47:42Z</time>
      </trkpt>
      <trkpt lat="43.741621" lon="-7.867686">
        <ele>21.078</ele>
        <time>2016-09-26T06:47:43Z</time>
      </trkpt>
      <trkpt lat="43.741628" lon="-7.867668">
        <ele>21.046</ele>
        <time>2016-09-26T06:47:44Z</time>
      </trkpt>
      <trkpt lat="43.741632" lon="-7.867650">
        <ele>21.188</ele>
        <time>2016-09-26T06:47:45Z</time>
      </trkpt>
      <trkpt lat="43.741634" lon="-7.867632">
        <ele>21.216</ele>
        <time>2016-09-26T06:47:46Z</time>
      </trkpt>
      <trkpt lat="43.741641" lon="-7.867617">
        <ele>21.508</ele>
        <time>2016-09-26T06:47:47Z</time>
      </trkpt>
      <trkpt lat="43.741641" lon="-7.867601">
        <ele>21.635</ele>
        <time>2016-09-26T06:47:48Z</time>
      </trkpt>
      <trkpt lat="43.741648" lon="-7.867587">
        <ele>21.870</ele>
        <time>2016-09-26T06:47:49Z</time>
      </trkpt>
      <trkpt lat="43.741650" lon="-7.867577">
        <ele>22.058</ele>
        <time>2016-09-26T06:47:50Z</time>
      </trkpt>
      <trkpt lat="43.741654" lon="-7.867567">
        <ele>22.214</ele>
        <time>2016-09-26T06:47:51Z</time>
      </trkpt>
      <trkpt lat="43.741658" lon="-7.867555">
        <ele>22.358</ele>
        <time>2016-09-26T06:47:52Z</time>
      </trkpt>
      <trkpt lat="43.741660" lon="-7.867544">
        <ele>22.490</ele>
        <time>2016-09-26T06:47:53Z</time>
      </trkpt>
      <trkpt lat="43.741665" lon="-7.867533">
        <ele>22.723</ele>
        <time>2016-09-26T06:47:54Z</time>
      </trkpt>
      <trkpt lat="43.741672" lon="-7.867519">
        <ele>22.861</ele>
        <time>2016-09-26T06:47:55Z</time>
      </trkpt>
      <trkpt lat="43.741676" lon="-7.867497">
        <ele>22.944</ele>
        <time>2016-09-26T06:47:56Z</time>
      </trkpt>
      <trkpt lat="43.741685" lon="-7.867478">
        <ele>23.005</ele>
        <time>2016-09-26T06:47:57Z</time>
      </trkpt>
      <trkpt lat="43.741691" lon="-7.867463">
        <ele>23.315</ele>
        <time>2016-09-26T06:47:58Z</time>
      </trkpt>
      <trkpt lat="43.741700" lon="-7.867449">
        <ele>23.508</ele>
        <time>2016-09-26T06:47:59Z</time>
      </trkpt>
      <trkpt lat="43.741707" lon="-7.867436">
        <ele>23.715</ele>
        <time>2016-09-26T06:48:00Z</time>
      </trkpt>
      <trkpt lat="43.741712" lon="-7.867421">
        <ele>23.780</ele>
        <time>2016-09-26T06:48:01Z</time>
      </trkpt>
      <trkpt lat="43.741720" lon="-7.867408">
        <ele>24.028</ele>
        <time>2016-09-26T06:48:02Z</time>
      </trkpt>
      <trkpt lat="43.741726" lon="-7.867394">
        <ele>24.254</ele>
        <time>2016-09-26T06:48:03Z</time>
      </trkpt>
      <trkpt lat="43.741733" lon="-7.867383">
        <ele>24.448</ele>
        <time>2016-09-26T06:48:04Z</time>
      </trkpt>
      <trkpt lat="43.741740" lon="-7.867369">
        <ele>24.410</ele>
        <time>2016-09-26T06:48:05Z</time>
      </trkpt>
      <trkpt lat="43.741744" lon="-7.867355">
        <ele>24.723</ele>
        <time>2016-09-26T06:48:06Z</time>
      </trkpt>
      <trkpt lat="43.741752" lon="-7.867347">
        <ele>24.871</ele>
        <time>2016-09-26T06:48:07Z</time>
      </trkpt>
      <trkpt lat="43.741757" lon="-7.867332">
        <ele>24.962</ele>
        <time>2016-09-26T06:48:08Z</time>
      </trkpt>
      <trkpt lat="43.741764" lon="-7.867317">
        <ele>25.083</ele>
        <time>2016-09-26T06:48:09Z</time>
      </trkpt>
      <trkpt lat="43.741772" lon="-7.867302">
        <ele>25.211</ele>
        <time>2016-09-26T06:48:10Z</time>
      </trkpt>
      <trkpt lat="43.741782" lon="-7.867288">
        <ele>25.508</ele>
        <time>2016-09-26T06:48:11Z</time>
      </trkpt>
      <trkpt lat="43.741792" lon="-7.867278">
        <ele>25.617</ele>
        <time>2016-09-26T06:48:12Z</time>
      </trkpt>
      <trkpt lat="43.741792" lon="-7.867256">
        <ele>25.872</ele>
        <time>2016-09-26T06:48:13Z</time>
      </trkpt>
      <trkpt lat="43.741795" lon="-7.867241">
        <ele>25.980</ele>
        <time>2016-09-26T06:48:14Z</time>
      </trkpt>
      <trkpt lat="43.741801" lon="-7.867232">
        <ele>26.286</ele>
        <time>2016-09-26T06:48:15Z</time>
      </trkpt>
      <trkpt lat="43.741811" lon="-7.867223">
        <ele>26.310</ele>
        <time>2016-09-26T06:48:16Z</time>
      </trkpt>
      <trkpt lat="43.741818" lon="-7.867213">
        <ele>26.362</ele>
        <time>2016-09-26T06:48:17Z</time>
      </trkpt>
      <trkpt lat="43.741827" lon="-7.867202">
        <ele>26.325</ele>
        <time>2016-09-26T06:48:18Z</time>
      </trkpt>
      <trkpt lat="43.741833" lon="-7.867192">
        <ele>26.323</ele>
        <time>2016-09-26T06:48:19Z</time>
      </trkpt>
      <trkpt lat="43.741840" lon="-7.867180">
        <ele>26.438</ele>
        <time>2016-09-26T06:48:20Z</time>
      </trkpt>
      <trkpt lat="43.741849" lon="-7.867169">
        <ele>26.570</ele>
        <time>2016-09-26T06:48:21Z</time>
      </trkpt>
      <trkpt lat="43.741856" lon="-7.867160">
        <ele>26.717</ele>
        <time>2016-09-26T06:48:22Z</time>
      </trkpt>
      <trkpt lat="43.741864" lon="-7.867150">
        <ele>26.808</ele>
        <time>2016-09-26T06:48:23Z</time>
      </trkpt>
      <trkpt lat="43.741879" lon="-7.867142">
        <ele>26.844</ele>
        <time>2016-09-26T06:48:24Z</time>
      </trkpt>
      <trkpt lat="43.741893" lon="-7.867135">
        <ele>26.959</ele>
        <time>2016-09-26T06:48:25Z</time>
      </trkpt>
      <trkpt lat="43.741900" lon="-7.867124">
        <ele>27.097</ele>
        <time>2016-09-26T06:48:26Z</time>
      </trkpt>
      <trkpt lat="43.741912" lon="-7.867116">
        <ele>27.173</ele>
        <time>2016-09-26T06:48:27Z</time>
      </trkpt>
      <trkpt lat="43.741923" lon="-7.867108">
        <ele>27.277</ele>
        <time>2016-09-26T06:48:28Z</time>
      </trkpt>
      <trkpt lat="43.741940" lon="-7.867101">
        <ele>27.329</ele>
        <time>2016-09-26T06:48:29Z</time>
      </trkpt>
      <trkpt lat="43.741954" lon="-7.867097">
        <ele>27.382</ele>
        <time>2016-09-26T06:48:30Z</time>
      </trkpt>
      <trkpt lat="43.741964" lon="-7.867092">
        <ele>27.470</ele>
        <time>2016-09-26T06:48:31Z</time>
      </trkpt>
      <trkpt lat="43.741973" lon="-7.867081">
        <ele>27.553</ele>
        <time>2016-09-26T06:48:32Z</time>
      </trkpt>
      <trkpt lat="43.741983" lon="-7.867072">
        <ele>27.704</ele>
        <time>2016-09-26T06:48:33Z</time>
      </trkpt>
      <trkpt lat="43.741993" lon="-7.867064">
        <ele>27.914</ele>
        <time>2016-09-26T06:48:34Z</time>
      </trkpt>
      <trkpt lat="43.742009" lon="-7.867056">
        <ele>28.108</ele>
        <time>2016-09-26T06:48:35Z</time>
      </trkpt>
      <trkpt lat="43.742017" lon="-7.867044">
        <ele>28.046</ele>
        <time>2016-09-26T06:48:36Z</time>
      </trkpt>
      <trkpt lat="43.742025" lon="-7.867031">
        <ele>28.241</ele>
        <time>2016-09-26T06:48:37Z</time>
      </trkpt>
      <trkpt lat="43.742032" lon="-7.867015">
        <ele>28.279</ele>
        <time>2016-09-26T06:48:38Z</time>
      </trkpt>
      <trkpt lat="43.742035" lon="-7.866999">
        <ele>28.285</ele>
        <time>2016-09-26T06:48:39Z</time>
      </trkpt>
      <trkpt lat="43.742045" lon="-7.866987">
        <ele>28.429</ele>
        <time>2016-09-26T06:48:40Z</time>
      </trkpt>
      <trkpt lat="43.742047" lon="-7.866967">
        <ele>28.431</ele>
        <time>2016-09-26T06:48:41Z</time>
      </trkpt>
      <trkpt lat="43.742057" lon="-7.866955">
        <ele>28.594</ele>
        <time>2016-09-26T06:48:42Z</time>
      </trkpt>
      <trkpt lat="43.742066" lon="-7.866946">
        <ele>28.652</ele>
        <time>2016-09-26T06:48:43Z</time>
      </trkpt>
      <trkpt lat="43.742076" lon="-7.866939">
        <ele>28.651</ele>
        <time>2016-09-26T06:48:44Z</time>
      </trkpt>
      <trkpt lat="43.742087" lon="-7.866928">
        <ele>28.601</ele>
        <time>2016-09-26T06:48:45Z</time>
      </trkpt>
      <trkpt lat="43.742098" lon="-7.866923">
        <ele>28.711</ele>
        <time>2016-09-26T06:48:46Z</time>
      </trkpt>
      <trkpt lat="43.742108" lon="-7.866914">
        <ele>28.708</ele>
        <time>2016-09-26T06:48:47Z</time>
      </trkpt>
      <trkpt lat="43.742120" lon="-7.866905">
        <ele>28.586</ele>
        <time>2016-09-26T06:48:48Z</time>
      </trkpt>
      <trkpt lat="43.742132" lon="-7.866898">
        <ele>28.761</ele>
        <time>2016-09-26T06:48:49Z</time>
      </trkpt>
      <trkpt lat="43.742145" lon="-7.866893">
        <ele>28.869</ele>
        <time>2016-09-26T06:48:50Z</time>
      </trkpt>
      <trkpt lat="43.742157" lon="-7.866887">
        <ele>29.095</ele>
        <time>2016-09-26T06:48:51Z</time>
      </trkpt>
      <trkpt lat="43.742165" lon="-7.866887">
        <ele>29.049</ele>
        <time>2016-09-26T06:48:52Z</time>
      </trkpt>
      <trkpt lat="43.742177" lon="-7.866882">
        <ele>29.131</ele>
        <time>2016-09-26T06:48:53Z</time>
      </trkpt>
      <trkpt lat="43.742190" lon="-7.866876">
        <ele>29.494</ele>
        <time>2016-09-26T06:48:54Z</time>
      </trkpt>
      <trkpt lat="43.742204" lon="-7.866869">
        <ele>29.682</ele>
        <time>2016-09-26T06:48:55Z</time>
      </trkpt>
      <trkpt lat="43.742212" lon="-7.866861">
        <ele>29.694</ele>
        <time>2016-09-26T06:48:56Z</time>
      </trkpt>
      <trkpt lat="43.742215" lon="-7.866855">
        <ele>29.657</ele>
        <time>2016-09-26T06:48:57Z</time>
      </trkpt>
      <trkpt lat="43.742217" lon="-7.866849">
        <ele>29.822</ele>
        <time>2016-09-26T06:48:58Z</time>
      </trkpt>
      <trkpt lat="43.742214" lon="-7.866851">
        <ele>30.008</ele>
        <time>2016-09-26T06:48:59Z</time>
      </trkpt>
      <trkpt lat="43.742218" lon="-7.866852">
        <ele>29.820</ele>
        <time>2016-09-26T06:49:00Z</time>
      </trkpt>
      <trkpt lat="43.742218" lon="-7.866852">
        <ele>29.845</ele>
        <time>2016-09-26T06:49:00Z</time>
      </trkpt>
      <trkpt lat="43.742218" lon="-7.866852">
        <ele>29.863</ele>
        <time>2016-09-26T06:49:00Z</time>
      </trkpt>
      <trkpt lat="43.742274" lon="-7.866827">
        <ele>29.629</ele>
        <time>2016-09-26T06:49:09Z</time>
      </trkpt>
      <trkpt lat="43.742301" lon="-7.866924">
        <ele>29.653</ele>
        <time>2016-09-26T06:49:23Z</time>
      </trkpt>
      <trkpt lat="43.742317" lon="-7.866934">
        <ele>29.525</ele>
        <time>2016-09-26T06:49:24Z</time>
      </trkpt>
      <trkpt lat="43.742338" lon="-7.866941">
        <ele>29.778</ele>
        <time>2016-09-26T06:49:25Z</time>
      </trkpt>
      <trkpt lat="43.742353" lon="-7.866948">
        <ele>29.836</ele>
        <time>2016-09-26T06:49:26Z</time>
      </trkpt>
      <trkpt lat="43.742370" lon="-7.866952">
        <ele>29.764</ele>
        <time>2016-09-26T06:49:27Z</time>
      </trkpt>
      <trkpt lat="43.742389" lon="-7.866954">
        <ele>29.906</ele>
        <time>2016-09-26T06:49:28Z</time>
      </trkpt>
      <trkpt lat="43.742410" lon="-7.866956">
        <ele>29.816</ele>
        <time>2016-09-26T06:49:29Z</time>
      </trkpt>
      <trkpt lat="43.742430" lon="-7.866961">
        <ele>29.808</ele>
        <time>2016-09-26T06:49:30Z</time>
      </trkpt>
      <trkpt lat="43.742450" lon="-7.866961">
        <ele>29.817</ele>
        <time>2016-09-26T06:49:31Z</time>
      </trkpt>
      <trkpt lat="43.742464" lon="-7.866965">
        <ele>30.132</ele>
        <time>2016-09-26T06:49:32Z</time>
      </trkpt>
      <trkpt lat="43.742481" lon="-7.866977">
        <ele>30.240</ele>
        <time>2016-09-26T06:49:33Z</time>
      </trkpt>
      <trkpt lat="43.742495" lon="-7.866996">
        <ele>30.256</ele>
        <time>2016-09-26T06:49:34Z</time>
      </trkpt>
      <trkpt lat="43.742516" lon="-7.867012">
        <ele>30.220</ele>
        <time>2016-09-26T06:49:35Z</time>
      </trkpt>
      <trkpt lat="43.742535" lon="-7.867031">
        <ele>30.472</ele>
        <time>2016-09-26T06:49:36Z</time>
      </trkpt>
      <trkpt lat="43.742554" lon="-7.867044">
        <ele>30.565</ele>
        <time>2016-09-26T06:49:37Z</time>
      </trkpt>
      <trkpt lat="43.742582" lon="-7.867064">
        <ele>30.543</ele>
        <time>2016-09-26T06:49:38Z</time>
      </trkpt>
      <trkpt lat="43.742595" lon="-7.867082">
        <ele>30.546</ele>
        <time>2016-09-26T06:49:39Z</time>
      </trkpt>
      <trkpt lat="43.742608" lon="-7.867107">
        <ele>30.688</ele>
        <time>2016-09-26T06:49:40Z</time>
      </trkpt>
      <trkpt lat="43.742618" lon="-7.867121">
        <ele>30.716</ele>
        <time>2016-09-26T06:49:41Z</time>
      </trkpt>
      <trkpt lat="43.742616" lon="-7.867139">
        <ele>30.808</ele>
        <time>2016-09-26T06:49:42Z</time>
      </trkpt>
      <trkpt lat="43.742627" lon="-7.867157">
        <ele>30.955</ele>
        <time>2016-09-26T06:49:43Z</time>
      </trkpt>
      <trkpt lat="43.742644" lon="-7.867164">
        <ele>31.120</ele>
        <time>2016-09-26T06:49:44Z</time>
      </trkpt>
      <trkpt lat="43.742657" lon="-7.867171">
        <ele>31.348</ele>
        <time>2016-09-26T06:49:45Z</time>
      </trkpt>
      <trkpt lat="43.742669" lon="-7.867179">
        <ele>31.554</ele>
        <time>2016-09-26T06:49:46Z</time>
      </trkpt>
      <trkpt lat="43.742686" lon="-7.867184">
        <ele>31.468</ele>
        <time>2016-09-26T06:49:47Z</time>
      </trkpt>
      <trkpt lat="43.742708" lon="-7.867199">
        <ele>31.670</ele>
        <time>2016-09-26T06:49:48Z</time>
      </trkpt>
      <trkpt lat="43.742726" lon="-7.867203">
        <ele>31.723</ele>
        <time>2016-09-26T06:49:49Z</time>
      </trkpt>
      <trkpt lat="43.742740" lon="-7.867210">
        <ele>31.981</ele>
        <time>2016-09-26T06:49:50Z</time>
      </trkpt>
      <trkpt lat="43.742755" lon="-7.867221">
        <ele>32.099</ele>
        <time>2016-09-26T06:49:51Z</time>
      </trkpt>
      <trkpt lat="43.742783" lon="-7.867223">
        <ele>32.107</ele>
        <time>2016-09-26T06:49:52Z</time>
      </trkpt>
      <trkpt lat="43.742811" lon="-7.867231">
        <ele>32.527</ele>
        <time>2016-09-26T06:49:53Z</time>
      </trkpt>
      <trkpt lat="43.742824" lon="-7.867247">
        <ele>32.408</ele>
        <time>2016-09-26T06:49:54Z</time>
      </trkpt>
      <trkpt lat="43.742842" lon="-7.867262">
        <ele>32.620</ele>
        <time>2016-09-26T06:49:55Z</time>
      </trkpt>
      <trkpt lat="43.742862" lon="-7.867279">
        <ele>32.655</ele>
        <time>2016-09-26T06:49:56Z</time>
      </trkpt>
      <trkpt lat="43.742877" lon="-7.867298">
        <ele>32.673</ele>
        <time>2016-09-26T06:49:57Z</time>
      </trkpt>
      <trkpt lat="43.742893" lon="-7.867313">
        <ele>32.799</ele>
        <time>2016-09-26T06:49:58Z</time>
      </trkpt>
      <trkpt lat="43.742914" lon="-7.867328">
        <ele>32.973</ele>
        <time>2016-09-26T06:49:59Z</time>
      </trkpt>
      <trkpt lat="43.742939" lon="-7.867339">
        <ele>33.085</ele>
        <time>2016-09-26T06:50:00Z</time>
      </trkpt>
      <trkpt lat="43.742967" lon="-7.867344">
        <ele>33.228</ele>
        <time>2016-09-26T06:50:01Z</time>
      </trkpt>
      <trkpt lat="43.742994" lon="-7.867345">
        <ele>33.336</ele>
        <time>2016-09-26T06:50:02Z</time>
      </trkpt>
      <trkpt lat="43.743020" lon="-7.867358">
        <ele>33.472</ele>
        <time>2016-09-26T06:50:03Z</time>
      </trkpt>
      <trkpt lat="43.743043" lon="-7.867381">
        <ele>33.413</ele>
        <time>2016-09-26T06:50:04Z</time>
      </trkpt>
      <trkpt lat="43.743067" lon="-7.867402">
        <ele>33.414</ele>
        <time>2016-09-26T06:50:05Z</time>
      </trkpt>
      <trkpt lat="43.743087" lon="-7.867420">
        <ele>33.508</ele>
        <time>2016-09-26T06:50:06Z</time>
      </trkpt>
      <trkpt lat="43.743104" lon="-7.867435">
        <ele>33.528</ele>
        <time>2016-09-26T06:50:07Z</time>
      </trkpt>
      <trkpt lat="43.743126" lon="-7.867440">
        <ele>33.533</ele>
        <time>2016-09-26T06:50:08Z</time>
      </trkpt>
      <trkpt lat="43.743150" lon="-7.867443">
        <ele>33.681</ele>
        <time>2016-09-26T06:50:09Z</time>
      </trkpt>
      <trkpt lat="43.743170" lon="-7.867450">
        <ele>33.927</ele>
        <time>2016-09-26T06:50:10Z</time>
      </trkpt>
      <trkpt lat="43.743196" lon="-7.867459">
        <ele>34.041</ele>
        <time>2016-09-26T06:50:11Z</time>
      </trkpt>
      <trkpt lat="43.743221" lon="-7.867465">
        <ele>34.063</ele>
        <time>2016-09-26T06:50:12Z</time>
      </trkpt>
      <trkpt lat="43.743244" lon="-7.867469">
        <ele>34.016</ele>
        <time>2016-09-26T06:50:13Z</time>
      </trkpt>
      <trkpt lat="43.743272" lon="-7.867472">
        <ele>33.934</ele>
        <time>2016-09-26T06:50:14Z</time>
      </trkpt>
      <trkpt lat="43.743304" lon="-7.867480">
        <ele>34.111</ele>
        <time>2016-09-26T06:50:15Z</time>
      </trkpt>
      <trkpt lat="43.743331" lon="-7.867491">
        <ele>34.221</ele>
        <time>2016-09-26T06:50:16Z</time>
      </trkpt>
      <trkpt lat="43.743355" lon="-7.867498">
        <ele>34.203</ele>
        <time>2016-09-26T06:50:17Z</time>
      </trkpt>
      <trkpt lat="43.743377" lon="-7.867500">
        <ele>34.308</ele>
        <time>2016-09-26T06:50:18Z</time>
      </trkpt>
      <trkpt lat="43.743394" lon="-7.867501">
        <ele>34.332</ele>
        <time>2016-09-26T06:50:19Z</time>
      </trkpt>
      <trkpt lat="43.743412" lon="-7.867505">
        <ele>34.217</ele>
        <time>2016-09-26T06:50:20Z</time>
      </trkpt>
      <trkpt lat="43.743435" lon="-7.867512">
        <ele>34.355</ele>
        <time>2016-09-26T06:50:21Z</time>
      </trkpt>
      <trkpt lat="43.743459" lon="-7.867533">
        <ele>34.391</ele>
        <time>2016-09-26T06:50:22Z</time>
      </trkpt>
      <trkpt lat="43.743481" lon="-7.867548">
        <ele>34.345</ele>
        <time>2016-09-26T06:50:23Z</time>
      </trkpt>
      <trkpt lat="43.743506" lon="-7.867556">
        <ele>34.587</ele>
        <time>2016-09-26T06:50:24Z</time>
      </trkpt>
      <trkpt lat="43.743530" lon="-7.867559">
        <ele>34.540</ele>
        <time>2016-09-26T06:50:25Z</time>
      </trkpt>
      <trkpt lat="43.743551" lon="-7.867562">
        <ele>34.648</ele>
        <time>2016-09-26T06:50:26Z</time>
      </trkpt>
      <trkpt lat="43.743570" lon="-7.867560">
        <ele>34.711</ele>
        <time>2016-09-26T06:50:27Z</time>
      </trkpt>
      <trkpt lat="43.743588" lon="-7.867558">
        <ele>34.921</ele>
        <time>2016-09-26T06:50:28Z</time>
      </trkpt>
      <trkpt lat="43.743614" lon="-7.867566">
        <ele>35.003</ele>
        <time>2016-09-26T06:50:29Z</time>
      </trkpt>
      <trkpt lat="43.743636" lon="-7.867576">
        <ele>35.008</ele>
        <time>2016-09-26T06:50:30Z</time>
      </trkpt>
      <trkpt lat="43.743652" lon="-7.867587">
        <ele>35.162</ele>
        <time>2016-09-26T06:50:31Z</time>
      </trkpt>
      <trkpt lat="43.743672" lon="-7.867597">
        <ele>35.237</ele>
        <time>2016-09-26T06:50:32Z</time>
      </trkpt>
      <trkpt lat="43.743694" lon="-7.867606">
        <ele>35.485</ele>
        <time>2016-09-26T06:50:33Z</time>
      </trkpt>
      <trkpt lat="43.743720" lon="-7.867617">
        <ele>35.411</ele>
        <time>2016-09-26T06:50:34Z</time>
      </trkpt>
      <trkpt lat="43.743752" lon="-7.867628">
        <ele>35.695</ele>
        <time>2016-09-26T06:50:35Z</time>
      </trkpt>
      <trkpt lat="43.743779" lon="-7.867639">
        <ele>35.637</ele>
        <time>2016-09-26T06:50:36Z</time>
      </trkpt>
      <trkpt lat="43.743803" lon="-7.867646">
        <ele>35.610</ele>
        <time>2016-09-26T06:50:37Z</time>
      </trkpt>
      <trkpt lat="43.743824" lon="-7.867662">
        <ele>35.888</ele>
        <time>2016-09-26T06:50:38Z</time>
      </trkpt>
      <trkpt lat="43.743851" lon="-7.867674">
        <ele>35.724</ele>
        <time>2016-09-26T06:50:39Z</time>
      </trkpt>
      <trkpt lat="43.743876" lon="-7.867679">
        <ele>35.804</ele>
        <time>2016-09-26T06:50:40Z</time>
      </trkpt>
      <trkpt lat="43.743891" lon="-7.867677">
        <ele>35.914</ele>
        <time>2016-09-26T06:50:41Z</time>
      </trkpt>
      <trkpt lat="43.743916" lon="-7.867676">
        <ele>35.808</ele>
        <time>2016-09-26T06:50:42Z</time>
      </trkpt>
      <trkpt lat="43.743937" lon="-7.867675">
        <ele>35.793</ele>
        <time>2016-09-26T06:50:43Z</time>
      </trkpt>
      <trkpt lat="43.743959" lon="-7.867675">
        <ele>35.618</ele>
        <time>2016-09-26T06:50:44Z</time>
      </trkpt>
      <trkpt lat="43.743991" lon="-7.867690">
        <ele>35.646</ele>
        <time>2016-09-26T06:50:45Z</time>
      </trkpt>
      <trkpt lat="43.744023" lon="-7.867708">
        <ele>35.622</ele>
        <time>2016-09-26T06:50:46Z</time>
      </trkpt>
      <trkpt lat="43.744055" lon="-7.867728">
        <ele>35.666</ele>
        <time>2016-09-26T06:50:47Z</time>
      </trkpt>
      <trkpt lat="43.744081" lon="-7.867740">
        <ele>35.538</ele>
        <time>2016-09-26T06:50:48Z</time>
      </trkpt>
      <trkpt lat="43.744113" lon="-7.867749">
        <ele>35.421</ele>
        <time>2016-09-26T06:50:49Z</time>
      </trkpt>
      <trkpt lat="43.744136" lon="-7.867760">
        <ele>35.679</ele>
        <time>2016-09-26T06:50:50Z</time>
      </trkpt>
      <trkpt lat="43.744158" lon="-7.867767">
        <ele>35.675</ele>
        <time>2016-09-26T06:50:51Z</time>
      </trkpt>
      <trkpt lat="43.744181" lon="-7.867778">
        <ele>35.628</ele>
        <time>2016-09-26T06:50:52Z</time>
      </trkpt>
      <trkpt lat="43.744206" lon="-7.867790">
        <ele>35.620</ele>
        <time>2016-09-26T06:50:53Z</time>
      </trkpt>
      <trkpt lat="43.744233" lon="-7.867799">
        <ele>35.708</ele>
        <time>2016-09-26T06:50:54Z</time>
      </trkpt>
      <trkpt lat="43.744258" lon="-7.867808">
        <ele>35.678</ele>
        <time>2016-09-26T06:50:55Z</time>
      </trkpt>
      <trkpt lat="43.744290" lon="-7.867824">
        <ele>35.673</ele>
        <time>2016-09-26T06:50:56Z</time>
      </trkpt>
      <trkpt lat="43.744324" lon="-7.867843">
        <ele>35.621</ele>
        <time>2016-09-26T06:50:57Z</time>
      </trkpt>
      <trkpt lat="43.744350" lon="-7.867868">
        <ele>35.647</ele>
        <time>2016-09-26T06:50:58Z</time>
      </trkpt>
      <trkpt lat="43.744369" lon="-7.867888">
        <ele>35.861</ele>
        <time>2016-09-26T06:50:59Z</time>
      </trkpt>
      <trkpt lat="43.744395" lon="-7.867901">
        <ele>36.073</ele>
        <time>2016-09-26T06:51:00Z</time>
      </trkpt>
      <trkpt lat="43.744422" lon="-7.867910">
        <ele>36.086</ele>
        <time>2016-09-26T06:51:01Z</time>
      </trkpt>
      <trkpt lat="43.744449" lon="-7.867915">
        <ele>36.384</ele>
        <time>2016-09-26T06:51:02Z</time>
      </trkpt>
      <trkpt lat="43.744475" lon="-7.867918">
        <ele>36.388</ele>
        <time>2016-09-26T06:51:03Z</time>
      </trkpt>
      <trkpt lat="43.744501" lon="-7.867919">
        <ele>36.424</ele>
        <time>2016-09-26T06:51:04Z</time>
      </trkpt>
      <trkpt lat="43.744534" lon="-7.867918">
        <ele>36.626</ele>
        <time>2016-09-26T06:51:05Z</time>
      </trkpt>
      <trkpt lat="43.744561" lon="-7.867925">
        <ele>36.608</ele>
        <time>2016-09-26T06:51:06Z</time>
      </trkpt>
      <trkpt lat="43.744590" lon="-7.867929">
        <ele>36.999</ele>
        <time>2016-09-26T06:51:07Z</time>
      </trkpt>
      <trkpt lat="43.744619" lon="-7.867931">
        <ele>36.874</ele>
        <time>2016-09-26T06:51:08Z</time>
      </trkpt>
      <trkpt lat="43.744644" lon="-7.867937">
        <ele>36.722</ele>
        <time>2016-09-26T06:51:09Z</time>
      </trkpt>
      <trkpt lat="43.744672" lon="-7.867942">
        <ele>37.048</ele>
        <time>2016-09-26T06:51:10Z</time>
      </trkpt>
      <trkpt lat="43.744705" lon="-7.867944">
        <ele>37.112</ele>
        <time>2016-09-26T06:51:11Z</time>
      </trkpt>
      <trkpt lat="43.744736" lon="-7.867948">
        <ele>37.264</ele>
        <time>2016-09-26T06:51:12Z</time>
      </trkpt>
      <trkpt lat="43.744767" lon="-7.867953">
        <ele>37.147</ele>
        <time>2016-09-26T06:51:13Z</time>
      </trkpt>
      <trkpt lat="43.744797" lon="-7.867958">
        <ele>37.185</ele>
        <time>2016-09-26T06:51:14Z</time>
      </trkpt>
      <trkpt lat="43.744826" lon="-7.867964">
        <ele>37.383</ele>
        <time>2016-09-26T06:51:15Z</time>
      </trkpt>
      <trkpt lat="43.744853" lon="-7.867968">
        <ele>37.325</ele>
        <time>2016-09-26T06:51:16Z</time>
      </trkpt>
      <trkpt lat="43.744880" lon="-7.867976">
        <ele>37.517</ele>
        <time>2016-09-26T06:51:17Z</time>
      </trkpt>
      <trkpt lat="43.744903" lon="-7.867982">
        <ele>37.508</ele>
        <time>2016-09-26T06:51:18Z</time>
      </trkpt>
      <trkpt lat="43.744928" lon="-7.867988">
        <ele>37.579</ele>
        <time>2016-09-26T06:51:19Z</time>
      </trkpt>
      <trkpt lat="43.744951" lon="-7.867994">
        <ele>37.544</ele>
        <time>2016-09-26T06:51:20Z</time>
      </trkpt>
      <trkpt lat="43.744973" lon="-7.867998">
        <ele>37.592</ele>
        <time>2016-09-26T06:51:21Z</time>
      </trkpt>
      <trkpt lat="43.744999" lon="-7.868000">
        <ele>37.628</ele>
        <time>2016-09-26T06:51:22Z</time>
      </trkpt>
      <trkpt lat="43.745027" lon="-7.868002">
        <ele>37.622</ele>
        <time>2016-09-26T06:51:23Z</time>
      </trkpt>
      <trkpt lat="43.745060" lon="-7.868000">
        <ele>37.894</ele>
        <time>2016-09-26T06:51:24Z</time>
      </trkpt>
      <trkpt lat="43.745092" lon="-7.867998">
        <ele>37.717</ele>
        <time>2016-09-26T06:51:25Z</time>
      </trkpt>
      <trkpt lat="43.745123" lon="-7.867994">
        <ele>37.965</ele>
        <time>2016-09-26T06:51:26Z</time>
      </trkpt>
      <trkpt lat="43.745151" lon="-7.867991">
        <ele>38.015</ele>
        <time>2016-09-26T06:51:27Z</time>
      </trkpt>
      <trkpt lat="43.745182" lon="-7.867986">
        <ele>38.065</ele>
        <time>2016-09-26T06:51:28Z</time>
      </trkpt>
      <trkpt lat="43.745212" lon="-7.867984">
        <ele>38.011</ele>
        <time>2016-09-26T06:51:29Z</time>
      </trkpt>
      <trkpt lat="43.745242" lon="-7.867982">
        <ele>38.108</ele>
        <time>2016-09-26T06:51:30Z</time>
      </trkpt>
      <trkpt lat="43.745269" lon="-7.867974">
        <ele>38.262</ele>
        <time>2016-09-26T06:51:31Z</time>
      </trkpt>
      <trkpt lat="43.745299" lon="-7.867966">
        <ele>38.237</ele>
        <time>2016-09-26T06:51:32Z</time>
      </trkpt>
      <trkpt lat="43.745329" lon="-7.867962">
        <ele>38.465</ele>
        <time>2016-09-26T06:51:33Z</time>
      </trkpt>
      <trkpt lat="43.745358" lon="-7.867959">
        <ele>38.591</ele>
        <time>2016-09-26T06:51:34Z</time>
      </trkpt>
      <trkpt lat="43.745384" lon="-7.867956">
        <ele>38.685</ele>
        <time>2016-09-26T06:51:35Z</time>
      </trkpt>
      <trkpt lat="43.745406" lon="-7.867953">
        <ele>38.827</ele>
        <time>2016-09-26T06:51:36Z</time>
      </trkpt>
      <trkpt lat="43.745427" lon="-7.867947">
        <ele>38.920</ele>
        <time>2016-09-26T06:51:37Z</time>
      </trkpt>
      <trkpt lat="43.745448" lon="-7.867942">
        <ele>39.158</ele>
        <time>2016-09-26T06:51:38Z</time>
      </trkpt>
      <trkpt lat="43.745468" lon="-7.867940">
        <ele>39.152</ele>
        <time>2016-09-26T06:51:39Z</time>
      </trkpt>
      <trkpt lat="43.745488" lon="-7.867936">
        <ele>39.253</ele>
        <time>2016-09-26T06:51:40Z</time>
      </trkpt>
      <trkpt lat="43.745509" lon="-7.867934">
        <ele>39.408</ele>
        <time>2016-09-26T06:51:41Z</time>
      </trkpt>
      <trkpt lat="43.745531" lon="-7.867929">
        <ele>39.508</ele>
        <time>2016-09-26T06:51:42Z</time>
      </trkpt>
      <trkpt lat="43.745555" lon="-7.867922">
        <ele>39.666</ele>
        <time>2016-09-26T06:51:43Z</time>
      </trkpt>
      <trkpt lat="43.745578" lon="-7.867916">
        <ele>40.051</ele>
        <time>2016-09-26T06:51:44Z</time>
      </trkpt>
      <trkpt lat="43.745599" lon="-7.867912">
        <ele>40.399</ele>
        <time>2016-09-26T06:51:45Z</time>
      </trkpt>
      <trkpt lat="43.745621" lon="-7.867907">
        <ele>40.615</ele>
        <time>2016-09-26T06:51:46Z</time>
      </trkpt>
      <trkpt lat="43.745643" lon="-7.867902">
        <ele>40.749</ele>
        <time>2016-09-26T06:51:47Z</time>
      </trkpt>
      <trkpt lat="43.745667" lon="-7.867895">
        <ele>41.161</ele>
        <time>2016-09-26T06:51:48Z</time>
      </trkpt>
      <trkpt lat="43.745689" lon="-7.867890">
        <ele>41.444</ele>
        <time>2016-09-26T06:51:49Z</time>
      </trkpt>
      <trkpt lat="43.745711" lon="-7.867883">
        <ele>41.662</ele>
        <time>2016-09-26T06:51:50Z</time>
      </trkpt>
      <trkpt lat="43.745734" lon="-7.867874">
        <ele>41.771</ele>
        <time>2016-09-26T06:51:51Z</time>
      </trkpt>
      <trkpt lat="43.745755" lon="-7.867866">
        <ele>42.041</ele>
        <time>2016-09-26T06:51:52Z</time>
      </trkpt>
      <trkpt lat="43.745779" lon="-7.867857">
        <ele>42.215</ele>
        <time>2016-09-26T06:51:53Z</time>
      </trkpt>
      <trkpt lat="43.745806" lon="-7.867841">
        <ele>42.608</ele>
        <time>2016-09-26T06:51:54Z</time>
      </trkpt>
      <trkpt lat="43.745832" lon="-7.867822">
        <ele>42.998</ele>
        <time>2016-09-26T06:51:55Z</time>
      </trkpt>
      <trkpt lat="43.745859" lon="-7.867799">
        <ele>43.343</ele>
        <time>2016-09-26T06:51:56Z</time>
      </trkpt>
      <trkpt lat="43.745884" lon="-7.867777">
        <ele>43.521</ele>
        <time>2016-09-26T06:51:57Z</time>
      </trkpt>
      <trkpt lat="43.745906" lon="-7.867750">
        <ele>43.637</ele>
        <time>2016-09-26T06:51:58Z</time>
      </trkpt>
      <trkpt lat="43.745927" lon="-7.867719">
        <ele>43.861</ele>
        <time>2016-09-26T06:51:59Z</time>
      </trkpt>
      <trkpt lat="43.745940" lon="-7.867687">
        <ele>44.113</ele>
        <time>2016-09-26T06:52:00Z</time>
      </trkpt>
      <trkpt lat="43.745952" lon="-7.867651">
        <ele>44.236</ele>
        <time>2016-09-26T06:52:01Z</time>
      </trkpt>
      <trkpt lat="43.745961" lon="-7.867614">
        <ele>44.414</ele>
        <time>2016-09-26T06:52:02Z</time>
      </trkpt>
      <trkpt lat="43.745970" lon="-7.867579">
        <ele>44.682</ele>
        <time>2016-09-26T06:52:03Z</time>
      </trkpt>
      <trkpt lat="43.745972" lon="-7.867541">
        <ele>45.043</ele>
        <time>2016-09-26T06:52:04Z</time>
      </trkpt>
      <trkpt lat="43.745972" lon="-7.867503">
        <ele>45.317</ele>
        <time>2016-09-26T06:52:05Z</time>
      </trkpt>
      <trkpt lat="43.745973" lon="-7.867464">
        <ele>45.608</ele>
        <time>2016-09-26T06:52:06Z</time>
      </trkpt>
      <trkpt lat="43.745977" lon="-7.867426">
        <ele>45.749</ele>
        <time>2016-09-26T06:52:07Z</time>
      </trkpt>
      <trkpt lat="43.745983" lon="-7.867390">
        <ele>46.044</ele>
        <time>2016-09-26T06:52:08Z</time>
      </trkpt>
      <trkpt lat="43.745991" lon="-7.867355">
        <ele>45.972</ele>
        <time>2016-09-26T06:52:09Z</time>
      </trkpt>
      <trkpt lat="43.745992" lon="-7.867319">
        <ele>45.828</ele>
        <time>2016-09-26T06:52:10Z</time>
      </trkpt>
      <trkpt lat="43.745992" lon="-7.867283">
        <ele>46.082</ele>
        <time>2016-09-26T06:52:11Z</time>
      </trkpt>
      <trkpt lat="43.745994" lon="-7.867244">
        <ele>46.384</ele>
        <time>2016-09-26T06:52:12Z</time>
      </trkpt>
      <trkpt lat="43.745996" lon="-7.867206">
        <ele>46.447</ele>
        <time>2016-09-26T06:52:13Z</time>
      </trkpt>
      <trkpt lat="43.745994" lon="-7.867166">
        <ele>46.435</ele>
        <time>2016-09-26T06:52:14Z</time>
      </trkpt>
      <trkpt lat="43.745993" lon="-7.867126">
        <ele>46.575</ele>
        <time>2016-09-26T06:52:15Z</time>
      </trkpt>
      <trkpt lat="43.745996" lon="-7.867089">
        <ele>46.728</ele>
        <time>2016-09-26T06:52:16Z</time>
      </trkpt>
      <trkpt lat="43.745996" lon="-7.867048">
        <ele>46.820</ele>
        <time>2016-09-26T06:52:17Z</time>
      </trkpt>
      <trkpt lat="43.745996" lon="-7.867006">
        <ele>46.708</ele>
        <time>2016-09-26T06:52:18Z</time>
      </trkpt>
      <trkpt lat="43.745996" lon="-7.866964">
        <ele>46.838</ele>
        <time>2016-09-26T06:52:19Z</time>
      </trkpt>
      <trkpt lat="43.745999" lon="-7.866923">
        <ele>46.973</ele>
        <time>2016-09-26T06:52:20Z</time>
      </trkpt>
      <trkpt lat="43.746008" lon="-7.866886">
        <ele>47.081</ele>
        <time>2016-09-26T06:52:21Z</time>
      </trkpt>
      <trkpt lat="43.746019" lon="-7.866847">
        <ele>47.187</ele>
        <time>2016-09-26T06:52:22Z</time>
      </trkpt>
      <trkpt lat="43.746030" lon="-7.866810">
        <ele>47.231</ele>
        <time>2016-09-26T06:52:23Z</time>
      </trkpt>
      <trkpt lat="43.746038" lon="-7.866769">
        <ele>47.283</ele>
        <time>2016-09-26T06:52:24Z</time>
      </trkpt>
      <trkpt lat="43.746045" lon="-7.866727">
        <ele>47.376</ele>
        <time>2016-09-26T06:52:25Z</time>
      </trkpt>
      <trkpt lat="43.746053" lon="-7.866685">
        <ele>47.274</ele>
        <time>2016-09-26T06:52:26Z</time>
      </trkpt>
      <trkpt lat="43.746063" lon="-7.866642">
        <ele>47.291</ele>
        <time>2016-09-26T06:52:27Z</time>
      </trkpt>
      <trkpt lat="43.746071" lon="-7.866600">
        <ele>47.381</ele>
        <time>2016-09-26T06:52:28Z</time>
      </trkpt>
      <trkpt lat="43.746076" lon="-7.866558">
        <ele>47.319</ele>
        <time>2016-09-26T06:52:29Z</time>
      </trkpt>
      <trkpt lat="43.746083" lon="-7.866517">
        <ele>47.208</ele>
        <time>2016-09-26T06:52:30Z</time>
      </trkpt>
      <trkpt lat="43.746095" lon="-7.866478">
        <ele>47.390</ele>
        <time>2016-09-26T06:52:31Z</time>
      </trkpt>
      <trkpt lat="43.746107" lon="-7.866440">
        <ele>47.485</ele>
        <time>2016-09-26T06:52:32Z</time>
      </trkpt>
      <trkpt lat="43.746120" lon="-7.866402">
        <ele>47.353</ele>
        <time>2016-09-26T06:52:33Z</time>
      </trkpt>
      <trkpt lat="43.746137" lon="-7.866364">
        <ele>47.539</ele>
        <time>2016-09-26T06:52:34Z</time>
      </trkpt>
      <trkpt lat="43.746153" lon="-7.866329">
        <ele>47.553</ele>
        <time>2016-09-26T06:52:35Z</time>
      </trkpt>
      <trkpt lat="43.746173" lon="-7.866295">
        <ele>47.655</ele>
        <time>2016-09-26T06:52:36Z</time>
      </trkpt>
      <trkpt lat="43.746194" lon="-7.866263">
        <ele>47.688</ele>
        <time>2016-09-26T06:52:37Z</time>
      </trkpt>
      <trkpt lat="43.746212" lon="-7.866231">
        <ele>47.766</ele>
        <time>2016-09-26T06:52:38Z</time>
      </trkpt>
      <trkpt lat="43.746230" lon="-7.866202">
        <ele>48.088</ele>
        <time>2016-09-26T06:52:39Z</time>
      </trkpt>
      <trkpt lat="43.746250" lon="-7.866175">
        <ele>48.124</ele>
        <time>2016-09-26T06:52:40Z</time>
      </trkpt>
      <trkpt lat="43.746271" lon="-7.866151">
        <ele>48.126</ele>
        <time>2016-09-26T06:52:41Z</time>
      </trkpt>
      <trkpt lat="43.746294" lon="-7.866129">
        <ele>48.108</ele>
        <time>2016-09-26T06:52:42Z</time>
      </trkpt>
      <trkpt lat="43.746316" lon="-7.866107">
        <ele>48.329</ele>
        <time>2016-09-26T06:52:43Z</time>
      </trkpt>
      <trkpt lat="43.746341" lon="-7.866086">
        <ele>48.354</ele>
        <time>2016-09-26T06:52:44Z</time>
      </trkpt>
      <trkpt lat="43.746365" lon="-7.866065">
        <ele>48.672</ele>
        <time>2016-09-26T06:52:45Z</time>
      </trkpt>
      <trkpt lat="43.746389" lon="-7.866048">
        <ele>48.968</ele>
        <time>2016-09-26T06:52:46Z</time>
      </trkpt>
      <trkpt lat="43.746411" lon="-7.866031">
        <ele>49.242</ele>
        <time>2016-09-26T06:52:47Z</time>
      </trkpt>
      <trkpt lat="43.746433" lon="-7.866012">
        <ele>49.314</ele>
        <time>2016-09-26T06:52:48Z</time>
      </trkpt>
      <trkpt lat="43.746452" lon="-7.865996">
        <ele>49.627</ele>
        <time>2016-09-26T06:52:49Z</time>
      </trkpt>
      <trkpt lat="43.746472" lon="-7.865978">
        <ele>49.855</ele>
        <time>2016-09-26T06:52:50Z</time>
      </trkpt>
      <trkpt lat="43.746495" lon="-7.865959">
        <ele>50.072</ele>
        <time>2016-09-26T06:52:51Z</time>
      </trkpt>
      <trkpt lat="43.746518" lon="-7.865941">
        <ele>50.313</ele>
        <time>2016-09-26T06:52:52Z</time>
      </trkpt>
      <trkpt lat="43.746538" lon="-7.865922">
        <ele>50.514</ele>
        <time>2016-09-26T06:52:53Z</time>
      </trkpt>
      <trkpt lat="43.746557" lon="-7.865902">
        <ele>50.708</ele>
        <time>2016-09-26T06:52:54Z</time>
      </trkpt>
      <trkpt lat="43.746578" lon="-7.865883">
        <ele>50.988</ele>
        <time>2016-09-26T06:52:55Z</time>
      </trkpt>
      <trkpt lat="43.746598" lon="-7.865864">
        <ele>51.113</ele>
        <time>2016-09-26T06:52:56Z</time>
      </trkpt>
      <trkpt lat="43.746617" lon="-7.865844">
        <ele>51.381</ele>
        <time>2016-09-26T06:52:57Z</time>
      </trkpt>
      <trkpt lat="43.746635" lon="-7.865824">
        <ele>51.637</ele>
        <time>2016-09-26T06:52:58Z</time>
      </trkpt>
      <trkpt lat="43.746653" lon="-7.865803">
        <ele>51.841</ele>
        <time>2016-09-26T06:52:59Z</time>
      </trkpt>
      <trkpt lat="43.746670" lon="-7.865784">
        <ele>52.233</ele>
        <time>2016-09-26T06:53:00Z</time>
      </trkpt>
      <trkpt lat="43.746685" lon="-7.865764">
        <ele>52.416</ele>
        <time>2016-09-26T06:53:01Z</time>
      </trkpt>
      <trkpt lat="43.746702" lon="-7.865744">
        <ele>52.634</ele>
        <time>2016-09-26T06:53:02Z</time>
      </trkpt>
      <trkpt lat="43.746717" lon="-7.865723">
        <ele>52.997</ele>
        <time>2016-09-26T06:53:03Z</time>
      </trkpt>
      <trkpt lat="43.746731" lon="-7.865702">
        <ele>53.123</ele>
        <time>2016-09-26T06:53:04Z</time>
      </trkpt>
      <trkpt lat="43.746745" lon="-7.865681">
        <ele>53.325</ele>
        <time>2016-09-26T06:53:05Z</time>
      </trkpt>
      <trkpt lat="43.746759" lon="-7.865661">
        <ele>53.508</ele>
        <time>2016-09-26T06:53:06Z</time>
      </trkpt>
      <trkpt lat="43.746773" lon="-7.865639">
        <ele>53.760</ele>
        <time>2016-09-26T06:53:07Z</time>
      </trkpt>
      <trkpt lat="43.746786" lon="-7.865617">
        <ele>53.945</ele>
        <time>2016-09-26T06:53:08Z</time>
      </trkpt>
      <trkpt lat="43.746801" lon="-7.865595">
        <ele>54.213</ele>
        <time>2016-09-26T06:53:09Z</time>
      </trkpt>
      <trkpt lat="43.746816" lon="-7.865573">
        <ele>54.339</ele>
        <time>2016-09-26T06:53:10Z</time>
      </trkpt>
      <trkpt lat="43.746830" lon="-7.865551">
        <ele>54.623</ele>
        <time>2016-09-26T06:53:11Z</time>
      </trkpt>
      <trkpt lat="43.746843" lon="-7.865529">
        <ele>54.695</ele>
        <time>2016-09-26T06:53:12Z</time>
      </trkpt>
      <trkpt lat="43.746856" lon="-7.865506">
        <ele>54.868</ele>
        <time>2016-09-26T06:53:13Z</time>
      </trkpt>
      <trkpt lat="43.746868" lon="-7.865483">
        <ele>54.996</ele>
        <time>2016-09-26T06:53:14Z</time>
      </trkpt>
      <trkpt lat="43.746884" lon="-7.865460">
        <ele>55.279</ele>
        <time>2016-09-26T06:53:15Z</time>
      </trkpt>
      <trkpt lat="43.746899" lon="-7.865437">
        <ele>55.305</ele>
        <time>2016-09-26T06:53:16Z</time>
      </trkpt>
      <trkpt lat="43.746916" lon="-7.865415">
        <ele>55.525</ele>
        <time>2016-09-26T06:53:17Z</time>
      </trkpt>
      <trkpt lat="43.746931" lon="-7.865393">
        <ele>55.808</ele>
        <time>2016-09-26T06:53:18Z</time>
      </trkpt>
      <trkpt lat="43.746947" lon="-7.865369">
        <ele>55.968</ele>
        <time>2016-09-26T06:53:19Z</time>
      </trkpt>
      <trkpt lat="43.746961" lon="-7.865345">
        <ele>56.063</ele>
        <time>2016-09-26T06:53:20Z</time>
      </trkpt>
      <trkpt lat="43.746975" lon="-7.865320">
        <ele>56.391</ele>
        <time>2016-09-26T06:53:21Z</time>
      </trkpt>
      <trkpt lat="43.746989" lon="-7.865295">
        <ele>56.797</ele>
        <time>2016-09-26T06:53:22Z</time>
      </trkpt>
      <trkpt lat="43.747006" lon="-7.865272">
        <ele>57.041</ele>
        <time>2016-09-26T06:53:23Z</time>
      </trkpt>
      <trkpt lat="43.747022" lon="-7.865249">
        <ele>57.383</ele>
        <time>2016-09-26T06:53:24Z</time>
      </trkpt>
      <trkpt lat="43.747037" lon="-7.865225">
        <ele>57.626</ele>
        <time>2016-09-26T06:53:25Z</time>
      </trkpt>
      <trkpt lat="43.747053" lon="-7.865200">
        <ele>57.814</ele>
        <time>2016-09-26T06:53:26Z</time>
      </trkpt>
      <trkpt lat="43.747069" lon="-7.865175">
        <ele>58.098</ele>
        <time>2016-09-26T06:53:27Z</time>
      </trkpt>
      <trkpt lat="43.747084" lon="-7.865151">
        <ele>58.315</ele>
        <time>2016-09-26T06:53:28Z</time>
      </trkpt>
      <trkpt lat="43.747098" lon="-7.865127">
        <ele>58.726</ele>
        <time>2016-09-26T06:53:29Z</time>
      </trkpt>
      <trkpt lat="43.747114" lon="-7.865104">
        <ele>58.908</ele>
        <time>2016-09-26T06:53:30Z</time>
      </trkpt>
      <trkpt lat="43.747129" lon="-7.865083">
        <ele>59.230</ele>
        <time>2016-09-26T06:53:31Z</time>
      </trkpt>
      <trkpt lat="43.747146" lon="-7.865059">
        <ele>59.555</ele>
        <time>2016-09-26T06:53:32Z</time>
      </trkpt>
      <trkpt lat="43.747160" lon="-7.865034">
        <ele>59.743</ele>
        <time>2016-09-26T06:53:33Z</time>
      </trkpt>
      <trkpt lat="43.747175" lon="-7.865011">
        <ele>60.099</ele>
        <time>2016-09-26T06:53:34Z</time>
      </trkpt>
      <trkpt lat="43.747190" lon="-7.864990">
        <ele>60.353</ele>
        <time>2016-09-26T06:53:35Z</time>
      </trkpt>
      <trkpt lat="43.747206" lon="-7.864968">
        <ele>60.435</ele>
        <time>2016-09-26T06:53:36Z</time>
      </trkpt>
      <trkpt lat="43.747219" lon="-7.864946">
        <ele>60.738</ele>
        <time>2016-09-26T06:53:37Z</time>
      </trkpt>
      <trkpt lat="43.747234" lon="-7.864925">
        <ele>60.956</ele>
        <time>2016-09-26T06:53:38Z</time>
      </trkpt>
      <trkpt lat="43.747248" lon="-7.864904">
        <ele>61.075</ele>
        <time>2016-09-26T06:53:39Z</time>
      </trkpt>
      <trkpt lat="43.747261" lon="-7.864882">
        <ele>61.228</ele>
        <time>2016-09-26T06:53:40Z</time>
      </trkpt>
      <trkpt lat="43.747275" lon="-7.864859">
        <ele>61.420</ele>
        <time>2016-09-26T06:53:41Z</time>
      </trkpt>
      <trkpt lat="43.747290" lon="-7.864837">
        <ele>61.608</ele>
        <time>2016-09-26T06:53:42Z</time>
      </trkpt>
      <trkpt lat="43.747306" lon="-7.864816">
        <ele>61.948</ele>
        <time>2016-09-26T06:53:43Z</time>
      </trkpt>
      <trkpt lat="43.747321" lon="-7.864796">
        <ele>62.193</ele>
        <time>2016-09-26T06:53:44Z</time>
      </trkpt>
      <trkpt lat="43.747336" lon="-7.864774">
        <ele>62.441</ele>
        <time>2016-09-26T06:53:45Z</time>
      </trkpt>
      <trkpt lat="43.747351" lon="-7.864753">
        <ele>62.667</ele>
        <time>2016-09-26T06:53:46Z</time>
      </trkpt>
      <trkpt lat="43.747365" lon="-7.864733">
        <ele>62.751</ele>
        <time>2016-09-26T06:53:47Z</time>
      </trkpt>
      <trkpt lat="43.747381" lon="-7.864714">
        <ele>63.183</ele>
        <time>2016-09-26T06:53:48Z</time>
      </trkpt>
      <trkpt lat="43.747397" lon="-7.864693">
        <ele>63.326</ele>
        <time>2016-09-26T06:53:49Z</time>
      </trkpt>
      <trkpt lat="43.747412" lon="-7.864671">
        <ele>63.654</ele>
        <time>2016-09-26T06:53:50Z</time>
      </trkpt>
      <trkpt lat="43.747426" lon="-7.864650">
        <ele>63.798</ele>
        <time>2016-09-26T06:53:51Z</time>
      </trkpt>
      <trkpt lat="43.747439" lon="-7.864632">
        <ele>63.915</ele>
        <time>2016-09-26T06:53:52Z</time>
      </trkpt>
      <trkpt lat="43.747453" lon="-7.864613">
        <ele>64.326</ele>
        <time>2016-09-26T06:53:53Z</time>
      </trkpt>
      <trkpt lat="43.747466" lon="-7.864594">
        <ele>64.408</ele>
        <time>2016-09-26T06:53:54Z</time>
      </trkpt>
      <trkpt lat="43.747484" lon="-7.864577">
        <ele>64.540</ele>
        <time>2016-09-26T06:53:55Z</time>
      </trkpt>
      <trkpt lat="43.747504" lon="-7.864564">
        <ele>64.775</ele>
        <time>2016-09-26T06:53:56Z</time>
      </trkpt>
      <trkpt lat="43.747521" lon="-7.864549">
        <ele>65.013</ele>
        <time>2016-09-26T06:53:57Z</time>
      </trkpt>
      <trkpt lat="43.747540" lon="-7.864533">
        <ele>65.389</ele>
        <time>2016-09-26T06:53:58Z</time>
      </trkpt>
      <trkpt lat="43.747560" lon="-7.864521">
        <ele>65.673</ele>
        <time>2016-09-26T06:53:59Z</time>
      </trkpt>
      <trkpt lat="43.747581" lon="-7.864511">
        <ele>65.995</ele>
        <time>2016-09-26T06:54:00Z</time>
      </trkpt>
      <trkpt lat="43.747601" lon="-7.864500">
        <ele>66.188</ele>
        <time>2016-09-26T06:54:01Z</time>
      </trkpt>
      <trkpt lat="43.747621" lon="-7.864490">
        <ele>66.686</ele>
        <time>2016-09-26T06:54:02Z</time>
      </trkpt>
      <trkpt lat="43.747645" lon="-7.864480">
        <ele>66.914</ele>
        <time>2016-09-26T06:54:03Z</time>
      </trkpt>
      <trkpt lat="43.747666" lon="-7.864470">
        <ele>67.154</ele>
        <time>2016-09-26T06:54:04Z</time>
      </trkpt>
      <trkpt lat="43.747687" lon="-7.864459">
        <ele>67.309</ele>
        <time>2016-09-26T06:54:05Z</time>
      </trkpt>
      <trkpt lat="43.747707" lon="-7.864447">
        <ele>67.608</ele>
        <time>2016-09-26T06:54:06Z</time>
      </trkpt>
      <trkpt lat="43.747726" lon="-7.864436">
        <ele>67.862</ele>
        <time>2016-09-26T06:54:07Z</time>
      </trkpt>
      <trkpt lat="43.747746" lon="-7.864426">
        <ele>67.947</ele>
        <time>2016-09-26T06:54:08Z</time>
      </trkpt>
      <trkpt lat="43.747766" lon="-7.864417">
        <ele>68.245</ele>
        <time>2016-09-26T06:54:09Z</time>
      </trkpt>
      <trkpt lat="43.747787" lon="-7.864408">
        <ele>68.341</ele>
        <time>2016-09-26T06:54:10Z</time>
      </trkpt>
      <trkpt lat="43.747808" lon="-7.864401">
        <ele>68.635</ele>
        <time>2016-09-26T06:54:11Z</time>
      </trkpt>
      <trkpt lat="43.747829" lon="-7.864394">
        <ele>68.827</ele>
        <time>2016-09-26T06:54:12Z</time>
      </trkpt>
      <trkpt lat="43.747849" lon="-7.864387">
        <ele>68.930</ele>
        <time>2016-09-26T06:54:13Z</time>
      </trkpt>
      <trkpt lat="43.747870" lon="-7.864383">
        <ele>69.188</ele>
        <time>2016-09-26T06:54:14Z</time>
      </trkpt>
      <trkpt lat="43.747891" lon="-7.864379">
        <ele>69.296</ele>
        <time>2016-09-26T06:54:15Z</time>
      </trkpt>
      <trkpt lat="43.747912" lon="-7.864376">
        <ele>69.531</ele>
        <time>2016-09-26T06:54:16Z</time>
      </trkpt>
      <trkpt lat="43.747932" lon="-7.864374">
        <ele>69.724</ele>
        <time>2016-09-26T06:54:17Z</time>
      </trkpt>
      <trkpt lat="43.747950" lon="-7.864369">
        <ele>69.908</ele>
        <time>2016-09-26T06:54:18Z</time>
      </trkpt>
      <trkpt lat="43.747968" lon="-7.864367">
        <ele>70.110</ele>
        <time>2016-09-26T06:54:19Z</time>
      </trkpt>
      <trkpt lat="43.747988" lon="-7.864365">
        <ele>70.335</ele>
        <time>2016-09-26T06:54:20Z</time>
      </trkpt>
      <trkpt lat="43.748009" lon="-7.864366">
        <ele>70.423</ele>
        <time>2016-09-26T06:54:21Z</time>
      </trkpt>
      <trkpt lat="43.748029" lon="-7.864369">
        <ele>70.679</ele>
        <time>2016-09-26T06:54:22Z</time>
      </trkpt>
      <trkpt lat="43.748047" lon="-7.864375">
        <ele>70.863</ele>
        <time>2016-09-26T06:54:23Z</time>
      </trkpt>
      <trkpt lat="43.748066" lon="-7.864385">
        <ele>71.145</ele>
        <time>2016-09-26T06:54:24Z</time>
      </trkpt>
      <trkpt lat="43.748083" lon="-7.864393">
        <ele>71.478</ele>
        <time>2016-09-26T06:54:25Z</time>
      </trkpt>
      <trkpt lat="43.748101" lon="-7.864402">
        <ele>71.726</ele>
        <time>2016-09-26T06:54:26Z</time>
      </trkpt>
      <trkpt lat="43.748119" lon="-7.864416">
        <ele>71.979</ele>
        <time>2016-09-26T06:54:27Z</time>
      </trkpt>
      <trkpt lat="43.748135" lon="-7.864433">
        <ele>72.105</ele>
        <time>2016-09-26T06:54:28Z</time>
      </trkpt>
      <trkpt lat="43.748149" lon="-7.864452">
        <ele>72.425</ele>
        <time>2016-09-26T06:54:29Z</time>
      </trkpt>
      <trkpt lat="43.748163" lon="-7.864474">
        <ele>72.608</ele>
        <time>2016-09-26T06:54:30Z</time>
      </trkpt>
      <trkpt lat="43.748174" lon="-7.864498">
        <ele>72.788</ele>
        <time>2016-09-26T06:54:31Z</time>
      </trkpt>
      <trkpt lat="43.748186" lon="-7.864522">
        <ele>72.963</ele>
        <time>2016-09-26T06:54:32Z</time>
      </trkpt>
      <trkpt lat="43.748196" lon="-7.864547">
        <ele>73.161</ele>
        <time>2016-09-26T06:54:33Z</time>
      </trkpt>
      <trkpt lat="43.748200" lon="-7.864573">
        <ele>73.387</ele>
        <time>2016-09-26T06:54:34Z</time>
      </trkpt>
      <trkpt lat="43.748199" lon="-7.864600">
        <ele>73.531</ele>
        <time>2016-09-26T06:54:35Z</time>
      </trkpt>
      <trkpt lat="43.748196" lon="-7.864628">
        <ele>73.653</ele>
        <time>2016-09-26T06:54:36Z</time>
      </trkpt>
      <trkpt lat="43.748194" lon="-7.864655">
        <ele>73.786</ele>
        <time>2016-09-26T06:54:37Z</time>
      </trkpt>
      <trkpt lat="43.748191" lon="-7.864684">
        <ele>73.894</ele>
        <time>2016-09-26T06:54:38Z</time>
      </trkpt>
      <trkpt lat="43.748187" lon="-7.864711">
        <ele>73.931</ele>
        <time>2016-09-26T06:54:39Z</time>
      </trkpt>
      <trkpt lat="43.748178" lon="-7.864735">
        <ele>74.161</ele>
        <time>2016-09-26T06:54:40Z</time>
      </trkpt>
      <trkpt lat="43.748166" lon="-7.864759">
        <ele>74.307</ele>
        <time>2016-09-26T06:54:41Z</time>
      </trkpt>
      <trkpt lat="43.748152" lon="-7.864782">
        <ele>74.408</ele>
        <time>2016-09-26T06:54:42Z</time>
      </trkpt>
      <trkpt lat="43.748133" lon="-7.864801">
        <ele>74.724</ele>
        <time>2016-09-26T06:54:43Z</time>
      </trkpt>
      <trkpt lat="43.748112" lon="-7.864818">
        <ele>74.959</ele>
        <time>2016-09-26T06:54:44Z</time>
      </trkpt>
      <trkpt lat="43.748091" lon="-7.864830">
        <ele>75.157</ele>
        <time>2016-09-26T06:54:45Z</time>
      </trkpt>
      <trkpt lat="43.748072" lon="-7.864841">
        <ele>75.263</ele>
        <time>2016-09-26T06:54:46Z</time>
      </trkpt>
      <trkpt lat="43.748051" lon="-7.864849">
        <ele>75.477</ele>
        <time>2016-09-26T06:54:47Z</time>
      </trkpt>
      <trkpt lat="43.748032" lon="-7.864856">
        <ele>75.769</ele>
        <time>2016-09-26T06:54:48Z</time>
      </trkpt>
      <trkpt lat="43.748014" lon="-7.864863">
        <ele>75.922</ele>
        <time>2016-09-26T06:54:49Z</time>
      </trkpt>
      <trkpt lat="43.747993" lon="-7.864871">
        <ele>76.140</ele>
        <time>2016-09-26T06:54:50Z</time>
      </trkpt>
      <trkpt lat="43.747971" lon="-7.864880">
        <ele>76.267</ele>
        <time>2016-09-26T06:54:51Z</time>
      </trkpt>
      <trkpt lat="43.747951" lon="-7.864888">
        <ele>76.381</ele>
        <time>2016-09-26T06:54:52Z</time>
      </trkpt>
      <trkpt lat="43.747932" lon="-7.864898">
        <ele>76.319</ele>
        <time>2016-09-26T06:54:53Z</time>
      </trkpt>
      <trkpt lat="43.747915" lon="-7.864910">
        <ele>76.408</ele>
        <time>2016-09-26T06:54:54Z</time>
      </trkpt>
      <trkpt lat="43.747896" lon="-7.864924">
        <ele>76.547</ele>
        <time>2016-09-26T06:54:55Z</time>
      </trkpt>
      <trkpt lat="43.747878" lon="-7.864937">
        <ele>76.752</ele>
        <time>2016-09-26T06:54:56Z</time>
      </trkpt>
      <trkpt lat="43.747862" lon="-7.864954">
        <ele>76.920</ele>
        <time>2016-09-26T06:54:57Z</time>
      </trkpt>
      <trkpt lat="43.747847" lon="-7.864973">
        <ele>77.236</ele>
        <time>2016-09-26T06:54:58Z</time>
      </trkpt>
      <trkpt lat="43.747834" lon="-7.864995">
        <ele>77.320</ele>
        <time>2016-09-26T06:54:59Z</time>
      </trkpt>
      <trkpt lat="43.747823" lon="-7.865019">
        <ele>77.652</ele>
        <time>2016-09-26T06:55:00Z</time>
      </trkpt>
      <trkpt lat="43.747814" lon="-7.865042">
        <ele>77.735</ele>
        <time>2016-09-26T06:55:01Z</time>
      </trkpt>
      <trkpt lat="43.747809" lon="-7.865066">
        <ele>77.953</ele>
        <time>2016-09-26T06:55:02Z</time>
      </trkpt>
      <trkpt lat="43.747807" lon="-7.865091">
        <ele>77.988</ele>
        <time>2016-09-26T06:55:03Z</time>
      </trkpt>
      <trkpt lat="43.747807" lon="-7.865117">
        <ele>78.024</ele>
        <time>2016-09-26T06:55:04Z</time>
      </trkpt>
      <trkpt lat="43.747812" lon="-7.865145">
        <ele>78.426</ele>
        <time>2016-09-26T06:55:05Z</time>
      </trkpt>
      <trkpt lat="43.747818" lon="-7.865171">
        <ele>78.708</ele>
        <time>2016-09-26T06:55:06Z</time>
      </trkpt>
      <trkpt lat="43.747829" lon="-7.865197">
        <ele>78.969</ele>
        <time>2016-09-26T06:55:07Z</time>
      </trkpt>
      <trkpt lat="43.747842" lon="-7.865218">
        <ele>79.194</ele>
        <time>2016-09-26T06:55:08Z</time>
      </trkpt>
      <trkpt lat="43.747856" lon="-7.865236">
        <ele>79.322</ele>
        <time>2016-09-26T06:55:09Z</time>
      </trkpt>
      <trkpt lat="43.747871" lon="-7.865248">
        <ele>79.648</ele>
        <time>2016-09-26T06:55:10Z</time>
      </trkpt>
      <trkpt lat="43.747887" lon="-7.865253">
        <ele>79.752</ele>
        <time>2016-09-26T06:55:11Z</time>
      </trkpt>
      <trkpt lat="43.747904" lon="-7.865255">
        <ele>79.994</ele>
        <time>2016-09-26T06:55:12Z</time>
      </trkpt>
      <trkpt lat="43.747921" lon="-7.865254">
        <ele>80.247</ele>
        <time>2016-09-26T06:55:13Z</time>
      </trkpt>
      <trkpt lat="43.747938" lon="-7.865254">
        <ele>80.235</ele>
        <time>2016-09-26T06:55:14Z</time>
      </trkpt>
      <trkpt lat="43.747955" lon="-7.865253">
        <ele>80.474</ele>
        <time>2016-09-26T06:55:15Z</time>
      </trkpt>
      <trkpt lat="43.747971" lon="-7.865250">
        <ele>80.656</ele>
        <time>2016-09-26T06:55:16Z</time>
      </trkpt>
      <trkpt lat="43.747984" lon="-7.865241">
        <ele>80.921</ele>
        <time>2016-09-26T06:55:17Z</time>
      </trkpt>
      <trkpt lat="43.748000" lon="-7.865236">
        <ele>81.008</ele>
        <time>2016-09-26T06:55:18Z</time>
      </trkpt>
      <trkpt lat="43.748019" lon="-7.865236">
        <ele>81.248</ele>
        <time>2016-09-26T06:55:19Z</time>
      </trkpt>
      <trkpt lat="43.748036" lon="-7.865235">
        <ele>81.533</ele>
        <time>2016-09-26T06:55:20Z</time>
      </trkpt>
      <trkpt lat="43.748049" lon="-7.865233">
        <ele>81.831</ele>
        <time>2016-09-26T06:55:21Z</time>
      </trkpt>
      <trkpt lat="43.748064" lon="-7.865231">
        <ele>82.057</ele>
        <time>2016-09-26T06:55:22Z</time>
      </trkpt>
      <trkpt lat="43.748082" lon="-7.865230">
        <ele>82.051</ele>
        <time>2016-09-26T06:55:23Z</time>
      </trkpt>
      <trkpt lat="43.748100" lon="-7.865233">
        <ele>82.213</ele>
        <time>2016-09-26T06:55:24Z</time>
      </trkpt>
      <trkpt lat="43.748123" lon="-7.865234">
        <ele>82.586</ele>
        <time>2016-09-26T06:55:25Z</time>
      </trkpt>
      <trkpt lat="43.748145" lon="-7.865234">
        <ele>82.684</ele>
        <time>2016-09-26T06:55:26Z</time>
      </trkpt>
      <trkpt lat="43.748168" lon="-7.865233">
        <ele>82.779</ele>
        <time>2016-09-26T06:55:27Z</time>
      </trkpt>
      <trkpt lat="43.748190" lon="-7.865233">
        <ele>83.105</ele>
        <time>2016-09-26T06:55:28Z</time>
      </trkpt>
      <trkpt lat="43.748211" lon="-7.865232">
        <ele>83.525</ele>
        <time>2016-09-26T06:55:29Z</time>
      </trkpt>
      <trkpt lat="43.748230" lon="-7.865229">
        <ele>83.808</ele>
        <time>2016-09-26T06:55:30Z</time>
      </trkpt>
      <trkpt lat="43.748248" lon="-7.865226">
        <ele>84.158</ele>
        <time>2016-09-26T06:55:31Z</time>
      </trkpt>
      <trkpt lat="43.748265" lon="-7.865224">
        <ele>84.263</ele>
        <time>2016-09-26T06:55:32Z</time>
      </trkpt>
      <trkpt lat="43.748283" lon="-7.865224">
        <ele>84.471</ele>
        <time>2016-09-26T06:55:33Z</time>
      </trkpt>
      <trkpt lat="43.748303" lon="-7.865222">
        <ele>84.737</ele>
        <time>2016-09-26T06:55:34Z</time>
      </trkpt>
      <trkpt lat="43.748320" lon="-7.865221">
        <ele>84.881</ele>
        <time>2016-09-26T06:55:35Z</time>
      </trkpt>
      <trkpt lat="43.748335" lon="-7.865220">
        <ele>85.063</ele>
        <time>2016-09-26T06:55:36Z</time>
      </trkpt>
      <trkpt lat="43.748348" lon="-7.865218">
        <ele>85.336</ele>
        <time>2016-09-26T06:55:37Z</time>
      </trkpt>
      <trkpt lat="43.748362" lon="-7.865215">
        <ele>85.594</ele>
        <time>2016-09-26T06:55:38Z</time>
      </trkpt>
      <trkpt lat="43.748378" lon="-7.865218">
        <ele>85.756</ele>
        <time>2016-09-26T06:55:39Z</time>
      </trkpt>
      <trkpt lat="43.748397" lon="-7.865225">
        <ele>86.059</ele>
        <time>2016-09-26T06:55:40Z</time>
      </trkpt>
      <trkpt lat="43.748416" lon="-7.865233">
        <ele>86.314</ele>
        <time>2016-09-26T06:55:41Z</time>
      </trkpt>
      <trkpt lat="43.748433" lon="-7.865237">
        <ele>86.708</ele>
        <time>2016-09-26T06:55:42Z</time>
      </trkpt>
      <trkpt lat="43.748448" lon="-7.865242">
        <ele>87.016</ele>
        <time>2016-09-26T06:55:43Z</time>
      </trkpt>
      <trkpt lat="43.748466" lon="-7.865245">
        <ele>87.371</ele>
        <time>2016-09-26T06:55:44Z</time>
      </trkpt>
      <trkpt lat="43.748482" lon="-7.865249">
        <ele>87.599</ele>
        <time>2016-09-26T06:55:45Z</time>
      </trkpt>
      <trkpt lat="43.748498" lon="-7.865255">
        <ele>87.645</ele>
        <time>2016-09-26T06:55:46Z</time>
      </trkpt>
      <trkpt lat="43.748516" lon="-7.865263">
        <ele>87.719</ele>
        <time>2016-09-26T06:55:47Z</time>
      </trkpt>
      <trkpt lat="43.748532" lon="-7.865271">
        <ele>87.971</ele>
        <time>2016-09-26T06:55:48Z</time>
      </trkpt>
      <trkpt lat="43.748547" lon="-7.865281">
        <ele>88.214</ele>
        <time>2016-09-26T06:55:49Z</time>
      </trkpt>
      <trkpt lat="43.748559" lon="-7.865291">
        <ele>88.382</ele>
        <time>2016-09-26T06:55:50Z</time>
      </trkpt>
      <trkpt lat="43.748572" lon="-7.865299">
        <ele>88.515</ele>
        <time>2016-09-26T06:55:51Z</time>
      </trkpt>
      <trkpt lat="43.748586" lon="-7.865307">
        <ele>88.865</ele>
        <time>2016-09-26T06:55:52Z</time>
      </trkpt>
      <trkpt lat="43.748601" lon="-7.865317">
        <ele>89.011</ele>
        <time>2016-09-26T06:55:53Z</time>
      </trkpt>
      <trkpt lat="43.748615" lon="-7.865328">
        <ele>89.208</ele>
        <time>2016-09-26T06:55:54Z</time>
      </trkpt>
      <trkpt lat="43.748627" lon="-7.865344">
        <ele>89.462</ele>
        <time>2016-09-26T06:55:55Z</time>
      </trkpt>
      <trkpt lat="43.748639" lon="-7.865357">
        <ele>89.697</ele>
        <time>2016-09-26T06:55:56Z</time>
      </trkpt>
      <trkpt lat="43.748656" lon="-7.865369">
        <ele>89.755</ele>
        <time>2016-09-26T06:55:57Z</time>
      </trkpt>
      <trkpt lat="43.748673" lon="-7.865382">
        <ele>89.941</ele>
        <time>2016-09-26T06:55:58Z</time>
      </trkpt>
      <trkpt lat="43.748684" lon="-7.865397">
        <ele>90.135</ele>
        <time>2016-09-26T06:55:59Z</time>
      </trkpt>
      <trkpt lat="43.748696" lon="-7.865409">
        <ele>90.167</ele>
        <time>2016-09-26T06:56:00Z</time>
      </trkpt>
      <trkpt lat="43.748709" lon="-7.865417">
        <ele>90.330</ele>
        <time>2016-09-26T06:56:01Z</time>
      </trkpt>
      <trkpt lat="43.748724" lon="-7.865428">
        <ele>90.658</ele>
        <time>2016-09-26T06:56:02Z</time>
      </trkpt>
      <trkpt lat="43.748740" lon="-7.865440">
        <ele>90.886</ele>
        <time>2016-09-26T06:56:03Z</time>
      </trkpt>
      <trkpt lat="43.748752" lon="-7.865449">
        <ele>90.960</ele>
        <time>2016-09-26T06:56:04Z</time>
      </trkpt>
      <trkpt lat="43.748764" lon="-7.865458">
        <ele>91.226</ele>
        <time>2016-09-26T06:56:05Z</time>
      </trkpt>
      <trkpt lat="43.748780" lon="-7.865467">
        <ele>91.308</ele>
        <time>2016-09-26T06:56:06Z</time>
      </trkpt>
      <trkpt lat="43.748797" lon="-7.865479">
        <ele>91.529</ele>
        <time>2016-09-26T06:56:07Z</time>
      </trkpt>
      <trkpt lat="43.748813" lon="-7.865489">
        <ele>91.644</ele>
        <time>2016-09-26T06:56:08Z</time>
      </trkpt>
      <trkpt lat="43.748830" lon="-7.865500">
        <ele>91.962</ele>
        <time>2016-09-26T06:56:09Z</time>
      </trkpt>
      <trkpt lat="43.748843" lon="-7.865511">
        <ele>92.058</ele>
        <time>2016-09-26T06:56:10Z</time>
      </trkpt>
      <trkpt lat="43.748861" lon="-7.865521">
        <ele>92.252</ele>
        <time>2016-09-26T06:56:11Z</time>
      </trkpt>
      <trkpt lat="43.748877" lon="-7.865529">
        <ele>92.414</ele>
        <time>2016-09-26T06:56:12Z</time>
      </trkpt>
      <trkpt lat="43.748893" lon="-7.865538">
        <ele>92.667</ele>
        <time>2016-09-26T06:56:13Z</time>
      </trkpt>
      <trkpt lat="43.748911" lon="-7.865548">
        <ele>93.095</ele>
        <time>2016-09-26T06:56:14Z</time>
      </trkpt>
      <trkpt lat="43.748924" lon="-7.865560">
        <ele>93.286</ele>
        <time>2016-09-26T06:56:15Z</time>
      </trkpt>
      <trkpt lat="43.748936" lon="-7.865571">
        <ele>93.460</ele>
        <time>2016-09-26T06:56:16Z</time>
      </trkpt>
      <trkpt lat="43.748951" lon="-7.865580">
        <ele>93.826</ele>
        <time>2016-09-26T06:56:17Z</time>
      </trkpt>
      <trkpt lat="43.748965" lon="-7.865590">
        <ele>94.108</ele>
        <time>2016-09-26T06:56:18Z</time>
      </trkpt>
      <trkpt lat="43.748980" lon="-7.865600">
        <ele>94.279</ele>
        <time>2016-09-26T06:56:19Z</time>
      </trkpt>
      <trkpt lat="43.748997" lon="-7.865609">
        <ele>94.364</ele>
        <time>2016-09-26T06:56:20Z</time>
      </trkpt>
      <trkpt lat="43.749008" lon="-7.865619">
        <ele>94.532</ele>
        <time>2016-09-26T06:56:21Z</time>
      </trkpt>
      <trkpt lat="43.749017" lon="-7.865629">
        <ele>94.798</ele>
        <time>2016-09-26T06:56:22Z</time>
      </trkpt>
      <trkpt lat="43.749028" lon="-7.865638">
        <ele>94.922</ele>
        <time>2016-09-26T06:56:23Z</time>
      </trkpt>
      <trkpt lat="43.749042" lon="-7.865649">
        <ele>94.974</ele>
        <time>2016-09-26T06:56:24Z</time>
      </trkpt>
      <trkpt lat="43.749055" lon="-7.865658">
        <ele>95.187</ele>
        <time>2016-09-26T06:56:25Z</time>
      </trkpt>
      <trkpt lat="43.749065" lon="-7.865664">
        <ele>95.585</ele>
        <time>2016-09-26T06:56:26Z</time>
      </trkpt>
      <trkpt lat="43.749076" lon="-7.865668">
        <ele>95.678</ele>
        <time>2016-09-26T06:56:27Z</time>
      </trkpt>
      <trkpt lat="43.749091" lon="-7.865676">
        <ele>95.833</ele>
        <time>2016-09-26T06:56:28Z</time>
      </trkpt>
      <trkpt lat="43.749103" lon="-7.865685">
        <ele>96.126</ele>
        <time>2016-09-26T06:56:29Z</time>
      </trkpt>
      <trkpt lat="43.749113" lon="-7.865693">
        <ele>96.208</ele>
        <time>2016-09-26T06:56:30Z</time>
      </trkpt>
      <trkpt lat="43.749128" lon="-7.865701">
        <ele>96.478</ele>
        <time>2016-09-26T06:56:31Z</time>
      </trkpt>
      <trkpt lat="43.749144" lon="-7.865712">
        <ele>96.633</ele>
        <time>2016-09-26T06:56:32Z</time>
      </trkpt>
      <trkpt lat="43.749155" lon="-7.865725">
        <ele>96.731</ele>
        <time>2016-09-26T06:56:33Z</time>
      </trkpt>
      <trkpt lat="43.749168" lon="-7.865736">
        <ele>96.817</ele>
        <time>2016-09-26T06:56:34Z</time>
      </trkpt>
      <trkpt lat="43.749186" lon="-7.865747">
        <ele>96.931</ele>
        <time>2016-09-26T06:56:35Z</time>
      </trkpt>
      <trkpt lat="43.749206" lon="-7.865757">
        <ele>97.193</ele>
        <time>2016-09-26T06:56:36Z</time>
      </trkpt>
      <trkpt lat="43.749222" lon="-7.865771">
        <ele>97.496</ele>
        <time>2016-09-26T06:56:37Z</time>
      </trkpt>
      <trkpt lat="43.749234" lon="-7.865790">
        <ele>97.584</ele>
        <time>2016-09-26T06:56:38Z</time>
      </trkpt>
      <trkpt lat="43.749247" lon="-7.865806">
        <ele>97.893</ele>
        <time>2016-09-26T06:56:39Z</time>
      </trkpt>
      <trkpt lat="43.749261" lon="-7.865819">
        <ele>98.065</ele>
        <time>2016-09-26T06:56:40Z</time>
      </trkpt>
      <trkpt lat="43.749278" lon="-7.865829">
        <ele>98.021</ele>
        <time>2016-09-26T06:56:41Z</time>
      </trkpt>
      <trkpt lat="43.749291" lon="-7.865838">
        <ele>98.108</ele>
        <time>2016-09-26T06:56:42Z</time>
      </trkpt>
      <trkpt lat="43.749307" lon="-7.865847">
        <ele>98.340</ele>
        <time>2016-09-26T06:56:43Z</time>
      </trkpt>
      <trkpt lat="43.749322" lon="-7.865858">
        <ele>98.655</ele>
        <time>2016-09-26T06:56:44Z</time>
      </trkpt>
      <trkpt lat="43.749339" lon="-7.865869">
        <ele>98.733</ele>
        <time>2016-09-26T06:56:45Z</time>
      </trkpt>
      <trkpt lat="43.749353" lon="-7.865881">
        <ele>98.979</ele>
        <time>2016-09-26T06:56:46Z</time>
      </trkpt>
      <trkpt lat="43.749366" lon="-7.865893">
        <ele>99.193</ele>
        <time>2016-09-26T06:56:47Z</time>
      </trkpt>
      <trkpt lat="43.749385" lon="-7.865902">
        <ele>99.345</ele>
        <time>2016-09-26T06:56:48Z</time>
      </trkpt>
      <trkpt lat="43.749401" lon="-7.865913">
        <ele>99.598</ele>
        <time>2016-09-26T06:56:49Z</time>
      </trkpt>
      <trkpt lat="43.749414" lon="-7.865925">
        <ele>99.686</ele>
        <time>2016-09-26T06:56:50Z</time>
      </trkpt>
      <trkpt lat="43.749425" lon="-7.865937">
        <ele>99.897</ele>
        <time>2016-09-26T06:56:51Z</time>
      </trkpt>
      <trkpt lat="43.749440" lon="-7.865947">
        <ele>100.123</ele>
        <time>2016-09-26T06:56:52Z</time>
      </trkpt>
      <trkpt lat="43.749457" lon="-7.865959">
        <ele>100.225</ele>
        <time>2016-09-26T06:56:53Z</time>
      </trkpt>
      <trkpt lat="43.749475" lon="-7.865968">
        <ele>100.408</ele>
        <time>2016-09-26T06:56:54Z</time>
      </trkpt>
      <trkpt lat="43.749491" lon="-7.865977">
        <ele>100.620</ele>
        <time>2016-09-26T06:56:55Z</time>
      </trkpt>
      <trkpt lat="43.749505" lon="-7.865988">
        <ele>100.715</ele>
        <time>2016-09-26T06:56:56Z</time>
      </trkpt>
      <trkpt lat="43.749517" lon="-7.866003">
        <ele>101.153</ele>
        <time>2016-09-26T06:56:57Z</time>
      </trkpt>
      <trkpt lat="43.749532" lon="-7.866014">
        <ele>101.389</ele>
        <time>2016-09-26T06:56:58Z</time>
      </trkpt>
      <trkpt lat="43.749542" lon="-7.866027">
        <ele>101.593</ele>
        <time>2016-09-26T06:56:59Z</time>
      </trkpt>
      <trkpt lat="43.749555" lon="-7.866039">
        <ele>101.655</ele>
        <time>2016-09-26T06:57:00Z</time>
      </trkpt>
      <trkpt lat="43.749571" lon="-7.866052">
        <ele>101.898</ele>
        <time>2016-09-26T06:57:01Z</time>
      </trkpt>
      <trkpt lat="43.749587" lon="-7.866062">
        <ele>102.166</ele>
        <time>2016-09-26T06:57:02Z</time>
      </trkpt>
      <trkpt lat="43.749599" lon="-7.866073">
        <ele>102.343</ele>
        <time>2016-09-26T06:57:03Z</time>
      </trkpt>
      <trkpt lat="43.749610" lon="-7.866086">
        <ele>102.464</ele>
        <time>2016-09-26T06:57:04Z</time>
      </trkpt>
      <trkpt lat="43.749623" lon="-7.866094">
        <ele>102.710</ele>
        <time>2016-09-26T06:57:05Z</time>
      </trkpt>
      <trkpt lat="43.749633" lon="-7.866101">
        <ele>102.908</ele>
        <time>2016-09-26T06:57:06Z</time>
      </trkpt>
      <trkpt lat="43.749640" lon="-7.866116">
        <ele>103.135</ele>
        <time>2016-09-26T06:57:07Z</time>
      </trkpt>
      <trkpt lat="43.749652" lon="-7.866132">
        <ele>103.470</ele>
        <time>2016-09-26T06:57:08Z</time>
      </trkpt>
      <trkpt lat="43.749663" lon="-7.866145">
        <ele>103.678</ele>
        <time>2016-09-26T06:57:09Z</time>
      </trkpt>
      <trkpt lat="43.749672" lon="-7.866159">
        <ele>103.844</ele>
        <time>2016-09-26T06:57:10Z</time>
      </trkpt>
      <trkpt lat="43.749687" lon="-7.866170">
        <ele>104.078</ele>
        <time>2016-09-26T06:57:11Z</time>
      </trkpt>
      <trkpt lat="43.749704" lon="-7.866183">
        <ele>103.940</ele>
        <time>2016-09-26T06:57:12Z</time>
      </trkpt>
      <trkpt lat="43.749721" lon="-7.866197">
        <ele>104.283</ele>
        <time>2016-09-26T06:57:13Z</time>
      </trkpt>
      <trkpt lat="43.749739" lon="-7.866211">
        <ele>104.531</ele>
        <time>2016-09-26T06:57:14Z</time>
      </trkpt>
      <trkpt lat="43.749756" lon="-7.866225">
        <ele>104.885</ele>
        <time>2016-09-26T06:57:15Z</time>
      </trkpt>
      <trkpt lat="43.749769" lon="-7.866241">
        <ele>105.189</ele>
        <time>2016-09-26T06:57:16Z</time>
      </trkpt>
      <trkpt lat="43.749783" lon="-7.866256">
        <ele>105.317</ele>
        <time>2016-09-26T06:57:17Z</time>
      </trkpt>
      <trkpt lat="43.749799" lon="-7.866266">
        <ele>105.508</ele>
        <time>2016-09-26T06:57:18Z</time>
      </trkpt>
      <trkpt lat="43.749813" lon="-7.866278">
        <ele>105.779</ele>
        <time>2016-09-26T06:57:19Z</time>
      </trkpt>
      <trkpt lat="43.749826" lon="-7.866292">
        <ele>105.984</ele>
        <time>2016-09-26T06:57:20Z</time>
      </trkpt>
      <trkpt lat="43.749838" lon="-7.866308">
        <ele>106.112</ele>
        <time>2016-09-26T06:57:21Z</time>
      </trkpt>
      <trkpt lat="43.749847" lon="-7.866324">
        <ele>106.438</ele>
        <time>2016-09-26T06:57:22Z</time>
      </trkpt>
      <trkpt lat="43.749859" lon="-7.866342">
        <ele>106.552</ele>
        <time>2016-09-26T06:57:23Z</time>
      </trkpt>
      <trkpt lat="43.749872" lon="-7.866356">
        <ele>106.854</ele>
        <time>2016-09-26T06:57:24Z</time>
      </trkpt>
      <trkpt lat="43.749880" lon="-7.866378">
        <ele>106.967</ele>
        <time>2016-09-26T06:57:25Z</time>
      </trkpt>
      <trkpt lat="43.749890" lon="-7.866397">
        <ele>107.015</ele>
        <time>2016-09-26T06:57:26Z</time>
      </trkpt>
      <trkpt lat="43.749901" lon="-7.866416">
        <ele>107.261</ele>
        <time>2016-09-26T06:57:27Z</time>
      </trkpt>
      <trkpt lat="43.749912" lon="-7.866435">
        <ele>107.421</ele>
        <time>2016-09-26T06:57:28Z</time>
      </trkpt>
      <trkpt lat="43.749932" lon="-7.866459">
        <ele>107.613</ele>
        <time>2016-09-26T06:57:29Z</time>
      </trkpt>
      <trkpt lat="43.749949" lon="-7.866482">
        <ele>107.608</ele>
        <time>2016-09-26T06:57:30Z</time>
      </trkpt>
      <trkpt lat="43.749969" lon="-7.866496">
        <ele>107.737</ele>
        <time>2016-09-26T06:57:31Z</time>
      </trkpt>
      <trkpt lat="43.749984" lon="-7.866512">
        <ele>107.812</ele>
        <time>2016-09-26T06:57:32Z</time>
      </trkpt>
      <trkpt lat="43.750000" lon="-7.866528">
        <ele>107.920</ele>
        <time>2016-09-26T06:57:33Z</time>
      </trkpt>
      <trkpt lat="43.750011" lon="-7.866546">
        <ele>108.246</ele>
        <time>2016-09-26T06:57:34Z</time>
      </trkpt>
      <trkpt lat="43.750018" lon="-7.866562">
        <ele>108.520</ele>
        <time>2016-09-26T06:57:35Z</time>
      </trkpt>
      <trkpt lat="43.750029" lon="-7.866579">
        <ele>108.672</ele>
        <time>2016-09-26T06:57:36Z</time>
      </trkpt>
      <trkpt lat="43.750043" lon="-7.866596">
        <ele>108.735</ele>
        <time>2016-09-26T06:57:37Z</time>
      </trkpt>
      <trkpt lat="43.750053" lon="-7.866613">
        <ele>108.923</ele>
        <time>2016-09-26T06:57:38Z</time>
      </trkpt>
      <trkpt lat="43.750060" lon="-7.866631">
        <ele>109.156</ele>
        <time>2016-09-26T06:57:39Z</time>
      </trkpt>
      <trkpt lat="43.750075" lon="-7.866643">
        <ele>109.359</ele>
        <time>2016-09-26T06:57:40Z</time>
      </trkpt>
      <trkpt lat="43.750088" lon="-7.866662">
        <ele>109.514</ele>
        <time>2016-09-26T06:57:41Z</time>
      </trkpt>
      <trkpt lat="43.750100" lon="-7.866681">
        <ele>109.608</ele>
        <time>2016-09-26T06:57:42Z</time>
      </trkpt>
      <trkpt lat="43.750110" lon="-7.866700">
        <ele>109.786</ele>
        <time>2016-09-26T06:57:43Z</time>
      </trkpt>
      <trkpt lat="43.750118" lon="-7.866721">
        <ele>109.871</ele>
        <time>2016-09-26T06:57:44Z</time>
      </trkpt>
      <trkpt lat="43.750129" lon="-7.866742">
        <ele>110.199</ele>
        <time>2016-09-26T06:57:45Z</time>
      </trkpt>
      <trkpt lat="43.750136" lon="-7.866765">
        <ele>109.955</ele>
        <time>2016-09-26T06:57:46Z</time>
      </trkpt>
      <trkpt lat="43.750143" lon="-7.866786">
        <ele>110.239</ele>
        <time>2016-09-26T06:57:47Z</time>
      </trkpt>
      <trkpt lat="43.750153" lon="-7.866809">
        <ele>110.351</ele>
        <time>2016-09-26T06:57:48Z</time>
      </trkpt>
      <trkpt lat="43.750161" lon="-7.866828">
        <ele>110.424</ele>
        <time>2016-09-26T06:57:49Z</time>
      </trkpt>
      <trkpt lat="43.750173" lon="-7.866846">
        <ele>110.572</ele>
        <time>2016-09-26T06:57:50Z</time>
      </trkpt>
      <trkpt lat="43.750181" lon="-7.866865">
        <ele>110.696</ele>
        <time>2016-09-26T06:57:51Z</time>
      </trkpt>
      <trkpt lat="43.750188" lon="-7.866885">
        <ele>110.731</ele>
        <time>2016-09-26T06:57:52Z</time>
      </trkpt>
      <trkpt lat="43.750196" lon="-7.866904">
        <ele>110.824</ele>
        <time>2016-09-26T06:57:53Z</time>
      </trkpt>
      <trkpt lat="43.750205" lon="-7.866923">
        <ele>110.808</ele>
        <time>2016-09-26T06:57:54Z</time>
      </trkpt>
      <trkpt lat="43.750219" lon="-7.866945">
        <ele>111.010</ele>
        <time>2016-09-26T06:57:55Z</time>
      </trkpt>
      <trkpt lat="43.750234" lon="-7.866963">
        <ele>111.185</ele>
        <time>2016-09-26T06:57:56Z</time>
      </trkpt>
      <trkpt lat="43.750244" lon="-7.866983">
        <ele>111.353</ele>
        <time>2016-09-26T06:57:57Z</time>
      </trkpt>
      <trkpt lat="43.750248" lon="-7.867005">
        <ele>111.539</ele>
        <time>2016-09-26T06:57:58Z</time>
      </trkpt>
      <trkpt lat="43.750256" lon="-7.867031">
        <ele>111.543</ele>
        <time>2016-09-26T06:57:59Z</time>
      </trkpt>
      <trkpt lat="43.750265" lon="-7.867061">
        <ele>111.915</ele>
        <time>2016-09-26T06:58:00Z</time>
      </trkpt>
      <trkpt lat="43.750274" lon="-7.867083">
        <ele>111.938</ele>
        <time>2016-09-26T06:58:01Z</time>
      </trkpt>
      <trkpt lat="43.750289" lon="-7.867109">
        <ele>112.056</ele>
        <time>2016-09-26T06:58:02Z</time>
      </trkpt>
      <trkpt lat="43.750299" lon="-7.867131">
        <ele>112.118</ele>
        <time>2016-09-26T06:58:03Z</time>
      </trkpt>
      <trkpt lat="43.750307" lon="-7.867150">
        <ele>112.298</ele>
        <time>2016-09-26T06:58:04Z</time>
      </trkpt>
      <trkpt lat="43.750316" lon="-7.867169">
        <ele>112.417</ele>
        <time>2016-09-26T06:58:05Z</time>
      </trkpt>
      <trkpt lat="43.750325" lon="-7.867189">
        <ele>112.508</ele>
        <time>2016-09-26T06:58:06Z</time>
      </trkpt>
      <trkpt lat="43.750331" lon="-7.867210">
        <ele>112.792</ele>
        <time>2016-09-26T06:58:07Z</time>
      </trkpt>
      <trkpt lat="43.750334" lon="-7.867230">
        <ele>112.787</ele>
        <time>2016-09-26T06:58:08Z</time>
      </trkpt>
      <trkpt lat="43.750343" lon="-7.867246">
        <ele>112.725</ele>
        <time>2016-09-26T06:58:09Z</time>
      </trkpt>
      <trkpt lat="43.750353" lon="-7.867268">
        <ele>112.911</ele>
        <time>2016-09-26T06:58:10Z</time>
      </trkpt>
      <trkpt lat="43.750360" lon="-7.867292">
        <ele>113.095</ele>
        <time>2016-09-26T06:58:11Z</time>
      </trkpt>
      <trkpt lat="43.750372" lon="-7.867313">
        <ele>113.267</ele>
        <time>2016-09-26T06:58:12Z</time>
      </trkpt>
      <trkpt lat="43.750385" lon="-7.867335">
        <ele>113.410</ele>
        <time>2016-09-26T06:58:13Z</time>
      </trkpt>
      <trkpt lat="43.750399" lon="-7.867355">
        <ele>113.568</ele>
        <time>2016-09-26T06:58:14Z</time>
      </trkpt>
      <trkpt lat="43.750416" lon="-7.867369">
        <ele>113.643</ele>
        <time>2016-09-26T06:58:15Z</time>
      </trkpt>
      <trkpt lat="43.750434" lon="-7.867380">
        <ele>113.764</ele>
        <time>2016-09-26T06:58:16Z</time>
      </trkpt>
      <trkpt lat="43.750447" lon="-7.867392">
        <ele>114.010</ele>
        <time>2016-09-26T06:58:17Z</time>
      </trkpt>
      <trkpt lat="43.750458" lon="-7.867409">
        <ele>114.008</ele>
        <time>2016-09-26T06:58:18Z</time>
      </trkpt>
      <trkpt lat="43.750470" lon="-7.867426">
        <ele>114.275</ele>
        <time>2016-09-26T06:58:19Z</time>
      </trkpt>
      <trkpt lat="43.750479" lon="-7.867440">
        <ele>114.330</ele>
        <time>2016-09-26T06:58:20Z</time>
      </trkpt>
      <trkpt lat="43.750492" lon="-7.867452">
        <ele>114.598</ele>
        <time>2016-09-26T06:58:21Z</time>
      </trkpt>
      <trkpt lat="43.750506" lon="-7.867466">
        <ele>114.734</ele>
        <time>2016-09-26T06:58:22Z</time>
      </trkpt>
      <trkpt lat="43.750516" lon="-7.867479">
        <ele>114.628</ele>
        <time>2016-09-26T06:58:23Z</time>
      </trkpt>
      <trkpt lat="43.750520" lon="-7.867497">
        <ele>114.860</ele>
        <time>2016-09-26T06:58:24Z</time>
      </trkpt>
      <trkpt lat="43.750531" lon="-7.867514">
        <ele>115.133</ele>
        <time>2016-09-26T06:58:25Z</time>
      </trkpt>
      <trkpt lat="43.750542" lon="-7.867530">
        <ele>115.371</ele>
        <time>2016-09-26T06:58:26Z</time>
      </trkpt>
      <trkpt lat="43.750551" lon="-7.867541">
        <ele>115.534</ele>
        <time>2016-09-26T06:58:27Z</time>
      </trkpt>
      <trkpt lat="43.750566" lon="-7.867555">
        <ele>115.655</ele>
        <time>2016-09-26T06:58:28Z</time>
      </trkpt>
      <trkpt lat="43.750578" lon="-7.867573">
        <ele>115.710</ele>
        <time>2016-09-26T06:58:29Z</time>
      </trkpt>
      <trkpt lat="43.750587" lon="-7.867591">
        <ele>115.908</ele>
        <time>2016-09-26T06:58:30Z</time>
      </trkpt>
      <trkpt lat="43.750592" lon="-7.867608">
        <ele>115.864</ele>
        <time>2016-09-26T06:58:31Z</time>
      </trkpt>
      <trkpt lat="43.750600" lon="-7.867628">
        <ele>116.179</ele>
        <time>2016-09-26T06:58:32Z</time>
      </trkpt>
      <trkpt lat="43.750607" lon="-7.867651">
        <ele>116.457</ele>
        <time>2016-09-26T06:58:33Z</time>
      </trkpt>
      <trkpt lat="43.750618" lon="-7.867676">
        <ele>116.483</ele>
        <time>2016-09-26T06:58:34Z</time>
      </trkpt>
      <trkpt lat="43.750630" lon="-7.867699">
        <ele>116.597</ele>
        <time>2016-09-26T06:58:35Z</time>
      </trkpt>
      <trkpt lat="43.750643" lon="-7.867715">
        <ele>116.779</ele>
        <time>2016-09-26T06:58:36Z</time>
      </trkpt>
      <trkpt lat="43.750655" lon="-7.867728">
        <ele>116.922</ele>
        <time>2016-09-26T06:58:37Z</time>
      </trkpt>
      <trkpt lat="43.750666" lon="-7.867743">
        <ele>117.190</ele>
        <time>2016-09-26T06:58:38Z</time>
      </trkpt>
      <trkpt lat="43.750674" lon="-7.867761">
        <ele>117.492</ele>
        <time>2016-09-26T06:58:39Z</time>
      </trkpt>
      <trkpt lat="43.750683" lon="-7.867785">
        <ele>117.773</ele>
        <time>2016-09-26T06:58:40Z</time>
      </trkpt>
      <trkpt lat="43.750693" lon="-7.867803">
        <ele>117.820</ele>
        <time>2016-09-26T06:58:41Z</time>
      </trkpt>
      <trkpt lat="43.750702" lon="-7.867820">
        <ele>117.808</ele>
        <time>2016-09-26T06:58:42Z</time>
      </trkpt>
      <trkpt lat="43.750715" lon="-7.867839">
        <ele>118.060</ele>
        <time>2016-09-26T06:58:43Z</time>
      </trkpt>
      <trkpt lat="43.750727" lon="-7.867857">
        <ele>118.065</ele>
        <time>2016-09-26T06:58:44Z</time>
      </trkpt>
      <trkpt lat="43.750737" lon="-7.867876">
        <ele>118.273</ele>
        <time>2016-09-26T06:58:45Z</time>
      </trkpt>
      <trkpt lat="43.750750" lon="-7.867892">
        <ele>118.429</ele>
        <time>2016-09-26T06:58:46Z</time>
      </trkpt>
      <trkpt lat="43.750761" lon="-7.867906">
        <ele>118.793</ele>
        <time>2016-09-26T06:58:47Z</time>
      </trkpt>
      <trkpt lat="43.750772" lon="-7.867922">
        <ele>119.035</ele>
        <time>2016-09-26T06:58:48Z</time>
      </trkpt>
      <trkpt lat="43.750785" lon="-7.867939">
        <ele>119.178</ele>
        <time>2016-09-26T06:58:49Z</time>
      </trkpt>
      <trkpt lat="43.750800" lon="-7.867954">
        <ele>119.376</ele>
        <time>2016-09-26T06:58:50Z</time>
      </trkpt>
      <trkpt lat="43.750812" lon="-7.867971">
        <ele>119.393</ele>
        <time>2016-09-26T06:58:51Z</time>
      </trkpt>
      <trkpt lat="43.750828" lon="-7.867984">
        <ele>119.765</ele>
        <time>2016-09-26T06:58:52Z</time>
      </trkpt>
      <trkpt lat="43.750848" lon="-7.867996">
        <ele>120.121</ele>
        <time>2016-09-26T06:58:53Z</time>
      </trkpt>
      <trkpt lat="43.750865" lon="-7.868009">
        <ele>120.308</ele>
        <time>2016-09-26T06:58:54Z</time>
      </trkpt>
      <trkpt lat="43.750880" lon="-7.868021">
        <ele>120.510</ele>
        <time>2016-09-26T06:58:55Z</time>
      </trkpt>
      <trkpt lat="43.750898" lon="-7.868032">
        <ele>120.875</ele>
        <time>2016-09-26T06:58:56Z</time>
      </trkpt>
      <trkpt lat="43.750914" lon="-7.868046">
        <ele>121.123</ele>
        <time>2016-09-26T06:58:57Z</time>
      </trkpt>
      <trkpt lat="43.750926" lon="-7.868061">
        <ele>121.499</ele>
        <time>2016-09-26T06:58:58Z</time>
      </trkpt>
      <trkpt lat="43.750936" lon="-7.868077">
        <ele>121.683</ele>
        <time>2016-09-26T06:58:59Z</time>
      </trkpt>
      <trkpt lat="43.750949" lon="-7.868091">
        <ele>121.685</ele>
        <time>2016-09-26T06:59:00Z</time>
      </trkpt>
      <trkpt lat="43.750966" lon="-7.868103">
        <ele>121.728</ele>
        <time>2016-09-26T06:59:01Z</time>
      </trkpt>
      <trkpt lat="43.750982" lon="-7.868115">
        <ele>121.826</ele>
        <time>2016-09-26T06:59:02Z</time>
      </trkpt>
      <trkpt lat="43.750996" lon="-7.868128">
        <ele>121.932</ele>
        <time>2016-09-26T06:59:03Z</time>
      </trkpt>
      <trkpt lat="43.751009" lon="-7.868142">
        <ele>122.292</ele>
        <time>2016-09-26T06:59:04Z</time>
      </trkpt>
      <trkpt lat="43.751023" lon="-7.868157">
        <ele>122.411</ele>
        <time>2016-09-26T06:59:05Z</time>
      </trkpt>
      <trkpt lat="43.751035" lon="-7.868172">
        <ele>122.708</ele>
        <time>2016-09-26T06:59:06Z</time>
      </trkpt>
      <trkpt lat="43.751049" lon="-7.868186">
        <ele>122.934</ele>
        <time>2016-09-26T06:59:07Z</time>
      </trkpt>
      <trkpt lat="43.751061" lon="-7.868202">
        <ele>123.339</ele>
        <time>2016-09-26T06:59:08Z</time>
      </trkpt>
      <trkpt lat="43.751074" lon="-7.868218">
        <ele>123.457</ele>
        <time>2016-09-26T06:59:09Z</time>
      </trkpt>
      <trkpt lat="43.751085" lon="-7.868235">
        <ele>123.863</ele>
        <time>2016-09-26T06:59:10Z</time>
      </trkpt>
      <trkpt lat="43.751094" lon="-7.868257">
        <ele>123.987</ele>
        <time>2016-09-26T06:59:11Z</time>
      </trkpt>
      <trkpt lat="43.751103" lon="-7.868273">
        <ele>124.069</ele>
        <time>2016-09-26T06:59:12Z</time>
      </trkpt>
      <trkpt lat="43.751109" lon="-7.868289">
        <ele>124.152</ele>
        <time>2016-09-26T06:59:13Z</time>
      </trkpt>
      <trkpt lat="43.751116" lon="-7.868305">
        <ele>124.370</ele>
        <time>2016-09-26T06:59:14Z</time>
      </trkpt>
      <trkpt lat="43.751122" lon="-7.868319">
        <ele>124.254</ele>
        <time>2016-09-26T06:59:15Z</time>
      </trkpt>
      <trkpt lat="43.751131" lon="-7.868336">
        <ele>124.556</ele>
        <time>2016-09-26T06:59:16Z</time>
      </trkpt>
      <trkpt lat="43.751143" lon="-7.868354">
        <ele>124.611</ele>
        <time>2016-09-26T06:59:17Z</time>
      </trkpt>
      <trkpt lat="43.751156" lon="-7.868374">
        <ele>124.708</ele>
        <time>2016-09-26T06:59:18Z</time>
      </trkpt>
      <trkpt lat="43.751171" lon="-7.868393">
        <ele>125.026</ele>
        <time>2016-09-26T06:59:19Z</time>
      </trkpt>
      <trkpt lat="43.751186" lon="-7.868413">
        <ele>125.021</ele>
        <time>2016-09-26T06:59:20Z</time>
      </trkpt>
      <trkpt lat="43.751198" lon="-7.868431">
        <ele>125.239</ele>
        <time>2016-09-26T06:59:21Z</time>
      </trkpt>
      <trkpt lat="43.751207" lon="-7.868449">
        <ele>125.455</ele>
        <time>2016-09-26T06:59:22Z</time>
      </trkpt>
      <trkpt lat="43.751214" lon="-7.868468">
        <ele>125.719</ele>
        <time>2016-09-26T06:59:23Z</time>
      </trkpt>
      <trkpt lat="43.751221" lon="-7.868488">
        <ele>125.821</ele>
        <time>2016-09-26T06:59:24Z</time>
      </trkpt>
      <trkpt lat="43.751228" lon="-7.868507">
        <ele>126.064</ele>
        <time>2016-09-26T06:59:25Z</time>
      </trkpt>
      <trkpt lat="43.751244" lon="-7.868523">
        <ele>126.442</ele>
        <time>2016-09-26T06:59:26Z</time>
      </trkpt>
      <trkpt lat="43.751257" lon="-7.868540">
        <ele>126.657</ele>
        <time>2016-09-26T06:59:27Z</time>
      </trkpt>
      <trkpt lat="43.751268" lon="-7.868555">
        <ele>126.800</ele>
        <time>2016-09-26T06:59:28Z</time>
      </trkpt>
      <trkpt lat="43.751278" lon="-7.868572">
        <ele>126.920</ele>
        <time>2016-09-26T06:59:29Z</time>
      </trkpt>
      <trkpt lat="43.751292" lon="-7.868590">
        <ele>126.908</ele>
        <time>2016-09-26T06:59:30Z</time>
      </trkpt>
      <trkpt lat="43.751302" lon="-7.868607">
        <ele>127.066</ele>
        <time>2016-09-26T06:59:31Z</time>
      </trkpt>
      <trkpt lat="43.751311" lon="-7.868625">
        <ele>127.151</ele>
        <time>2016-09-26T06:59:32Z</time>
      </trkpt>
      <trkpt lat="43.751322" lon="-7.868645">
        <ele>127.289</ele>
        <time>2016-09-26T06:59:33Z</time>
      </trkpt>
      <trkpt lat="43.751331" lon="-7.868664">
        <ele>127.325</ele>
        <time>2016-09-26T06:59:34Z</time>
      </trkpt>
      <trkpt lat="43.751339" lon="-7.868680">
        <ele>127.459</ele>
        <time>2016-09-26T06:59:35Z</time>
      </trkpt>
      <trkpt lat="43.751352" lon="-7.868697">
        <ele>127.531</ele>
        <time>2016-09-26T06:59:36Z</time>
      </trkpt>
      <trkpt lat="43.751367" lon="-7.868714">
        <ele>127.424</ele>
        <time>2016-09-26T06:59:37Z</time>
      </trkpt>
      <trkpt lat="43.751383" lon="-7.868730">
        <ele>127.572</ele>
        <time>2016-09-26T06:59:38Z</time>
      </trkpt>
      <trkpt lat="43.751400" lon="-7.868744">
        <ele>127.684</ele>
        <time>2016-09-26T06:59:39Z</time>
      </trkpt>
      <trkpt lat="43.751415" lon="-7.868758">
        <ele>127.507</ele>
        <time>2016-09-26T06:59:40Z</time>
      </trkpt>
      <trkpt lat="43.751430" lon="-7.868771">
        <ele>127.717</ele>
        <time>2016-09-26T06:59:41Z</time>
      </trkpt>
      <trkpt lat="43.751447" lon="-7.868784">
        <ele>127.808</ele>
        <time>2016-09-26T06:59:42Z</time>
      </trkpt>
      <trkpt lat="43.751466" lon="-7.868796">
        <ele>128.039</ele>
        <time>2016-09-26T06:59:43Z</time>
      </trkpt>
      <trkpt lat="43.751482" lon="-7.868806">
        <ele>128.264</ele>
        <time>2016-09-26T06:59:44Z</time>
      </trkpt>
      <trkpt lat="43.751490" lon="-7.868816">
        <ele>128.452</ele>
        <time>2016-09-26T06:59:45Z</time>
      </trkpt>
      <trkpt lat="43.751501" lon="-7.868828">
        <ele>128.658</ele>
        <time>2016-09-26T06:59:46Z</time>
      </trkpt>
      <trkpt lat="43.751516" lon="-7.868840">
        <ele>128.752</ele>
        <time>2016-09-26T06:59:47Z</time>
      </trkpt>
      <trkpt lat="43.751535" lon="-7.868853">
        <ele>128.754</ele>
        <time>2016-09-26T06:59:48Z</time>
      </trkpt>
      <trkpt lat="43.751555" lon="-7.868863">
        <ele>129.027</ele>
        <time>2016-09-26T06:59:49Z</time>
      </trkpt>
      <trkpt lat="43.751569" lon="-7.868874">
        <ele>129.125</ele>
        <time>2016-09-26T06:59:50Z</time>
      </trkpt>
      <trkpt lat="43.751583" lon="-7.868884">
        <ele>129.458</ele>
        <time>2016-09-26T06:59:51Z</time>
      </trkpt>
      <trkpt lat="43.751596" lon="-7.868896">
        <ele>129.552</ele>
        <time>2016-09-26T06:59:52Z</time>
      </trkpt>
      <trkpt lat="43.751608" lon="-7.868909">
        <ele>129.717</ele>
        <time>2016-09-26T06:59:53Z</time>
      </trkpt>
      <trkpt lat="43.751614" lon="-7.868920">
        <ele>130.008</ele>
        <time>2016-09-26T06:59:54Z</time>
      </trkpt>
      <trkpt lat="43.751620" lon="-7.868930">
        <ele>130.376</ele>
        <time>2016-09-26T06:59:55Z</time>
      </trkpt>
      <trkpt lat="43.751632" lon="-7.868935">
        <ele>130.581</ele>
        <time>2016-09-26T06:59:56Z</time>
      </trkpt>
      <trkpt lat="43.751648" lon="-7.868940">
        <ele>130.549</ele>
        <time>2016-09-26T06:59:57Z</time>
      </trkpt>
      <trkpt lat="43.751659" lon="-7.868949">
        <ele>130.895</ele>
        <time>2016-09-26T06:59:58Z</time>
      </trkpt>
      <trkpt lat="43.751668" lon="-7.868960">
        <ele>131.159</ele>
        <time>2016-09-26T06:59:59Z</time>
      </trkpt>
      <trkpt lat="43.751682" lon="-7.868969">
        <ele>131.351</ele>
        <time>2016-09-26T07:00:00Z</time>
      </trkpt>
      <trkpt lat="43.751700" lon="-7.868977">
        <ele>131.484</ele>
        <time>2016-09-26T07:00:01Z</time>
      </trkpt>
      <trkpt lat="43.751715" lon="-7.868981">
        <ele>131.752</ele>
        <time>2016-09-26T07:00:02Z</time>
      </trkpt>
      <trkpt lat="43.751728" lon="-7.868987">
        <ele>131.781</ele>
        <time>2016-09-26T07:00:03Z</time>
      </trkpt>
      <trkpt lat="43.751740" lon="-7.868993">
        <ele>131.961</ele>
        <time>2016-09-26T07:00:04Z</time>
      </trkpt>
      <trkpt lat="43.751758" lon="-7.868998">
        <ele>132.117</ele>
        <time>2016-09-26T07:00:05Z</time>
      </trkpt>
      <trkpt lat="43.751774" lon="-7.869001">
        <ele>132.408</ele>
        <time>2016-09-26T07:00:06Z</time>
      </trkpt>
      <trkpt lat="43.751790" lon="-7.869006">
        <ele>132.699</ele>
        <time>2016-09-26T07:00:07Z</time>
      </trkpt>
      <trkpt lat="43.751804" lon="-7.869010">
        <ele>132.734</ele>
        <time>2016-09-26T07:00:08Z</time>
      </trkpt>
      <trkpt lat="43.751823" lon="-7.869021">
        <ele>132.972</ele>
        <time>2016-09-26T07:00:09Z</time>
      </trkpt>
      <trkpt lat="43.751844" lon="-7.869031">
        <ele>133.258</ele>
        <time>2016-09-26T07:00:10Z</time>
      </trkpt>
      <trkpt lat="43.751859" lon="-7.869040">
        <ele>133.342</ele>
        <time>2016-09-26T07:00:11Z</time>
      </trkpt>
      <trkpt lat="43.751867" lon="-7.869050">
        <ele>133.454</ele>
        <time>2016-09-26T07:00:12Z</time>
      </trkpt>
      <trkpt lat="43.751882" lon="-7.869055">
        <ele>133.697</ele>
        <time>2016-09-26T07:00:13Z</time>
      </trkpt>
      <trkpt lat="43.751893" lon="-7.869066">
        <ele>133.795</ele>
        <time>2016-09-26T07:00:14Z</time>
      </trkpt>
      <trkpt lat="43.751910" lon="-7.869078">
        <ele>133.939</ele>
        <time>2016-09-26T07:00:15Z</time>
      </trkpt>
      <trkpt lat="43.751931" lon="-7.869089">
        <ele>134.101</ele>
        <time>2016-09-26T07:00:16Z</time>
      </trkpt>
      <trkpt lat="43.751950" lon="-7.869090">
        <ele>134.321</ele>
        <time>2016-09-26T07:00:17Z</time>
      </trkpt>
      <trkpt lat="43.751973" lon="-7.869097">
        <ele>134.408</ele>
        <time>2016-09-26T07:00:18Z</time>
      </trkpt>
      <trkpt lat="43.751993" lon="-7.869101">
        <ele>134.674</ele>
        <time>2016-09-26T07:00:19Z</time>
      </trkpt>
      <trkpt lat="43.752013" lon="-7.869105">
        <ele>134.939</ele>
        <time>2016-09-26T07:00:20Z</time>
      </trkpt>
      <trkpt lat="43.752027" lon="-7.869121">
        <ele>135.037</ele>
        <time>2016-09-26T07:00:21Z</time>
      </trkpt>
      <trkpt lat="43.752041" lon="-7.869129">
        <ele>135.213</ele>
        <time>2016-09-26T07:00:22Z</time>
      </trkpt>
      <trkpt lat="43.752056" lon="-7.869136">
        <ele>135.637</ele>
        <time>2016-09-26T07:00:23Z</time>
      </trkpt>
      <trkpt lat="43.752070" lon="-7.869142">
        <ele>135.819</ele>
        <time>2016-09-26T07:00:24Z</time>
      </trkpt>
      <trkpt lat="43.752088" lon="-7.869148">
        <ele>136.052</ele>
        <time>2016-09-26T07:00:25Z</time>
      </trkpt>
      <trkpt lat="43.752104" lon="-7.869157">
        <ele>136.040</ele>
        <time>2016-09-26T07:00:26Z</time>
      </trkpt>
      <trkpt lat="43.752118" lon="-7.869162">
        <ele>136.255</ele>
        <time>2016-09-26T07:00:27Z</time>
      </trkpt>
      <trkpt lat="43.752131" lon="-7.869166">
        <ele>136.507</ele>
        <time>2016-09-26T07:00:28Z</time>
      </trkpt>
      <trkpt lat="43.752152" lon="-7.869165">
        <ele>136.717</ele>
        <time>2016-09-26T07:00:29Z</time>
      </trkpt>
      <trkpt lat="43.752169" lon="-7.869166">
        <ele>136.808</ele>
        <time>2016-09-26T07:00:30Z</time>
      </trkpt>
      <trkpt lat="43.752188" lon="-7.869166">
        <ele>136.956</ele>
        <time>2016-09-26T07:00:31Z</time>
      </trkpt>
      <trkpt lat="43.752207" lon="-7.869163">
        <ele>137.191</ele>
        <time>2016-09-26T07:00:32Z</time>
      </trkpt>
      <trkpt lat="43.752226" lon="-7.869162">
        <ele>137.159</ele>
        <time>2016-09-26T07:00:33Z</time>
      </trkpt>
      <trkpt lat="43.752243" lon="-7.869163">
        <ele>137.385</ele>
        <time>2016-09-26T07:00:34Z</time>
      </trkpt>
      <trkpt lat="43.752263" lon="-7.869163">
        <ele>137.599</ele>
        <time>2016-09-26T07:00:35Z</time>
      </trkpt>
      <trkpt lat="43.752281" lon="-7.869158">
        <ele>137.731</ele>
        <time>2016-09-26T07:00:36Z</time>
      </trkpt>
      <trkpt lat="43.752296" lon="-7.869154">
        <ele>137.864</ele>
        <time>2016-09-26T07:00:37Z</time>
      </trkpt>
      <trkpt lat="43.752315" lon="-7.869150">
        <ele>138.032</ele>
        <time>2016-09-26T07:00:38Z</time>
      </trkpt>
      <trkpt lat="43.752329" lon="-7.869151">
        <ele>138.019</ele>
        <time>2016-09-26T07:00:39Z</time>
      </trkpt>
      <trkpt lat="43.752341" lon="-7.869150">
        <ele>138.209</ele>
        <time>2016-09-26T07:00:40Z</time>
      </trkpt>
      <trkpt lat="43.752358" lon="-7.869141">
        <ele>138.419</ele>
        <time>2016-09-26T07:00:41Z</time>
      </trkpt>
      <trkpt lat="43.752376" lon="-7.869130">
        <ele>138.508</ele>
        <time>2016-09-26T07:00:42Z</time>
      </trkpt>
      <trkpt lat="43.752394" lon="-7.869119">
        <ele>138.632</ele>
        <time>2016-09-26T07:00:43Z</time>
      </trkpt>
      <trkpt lat="43.752413" lon="-7.869109">
        <ele>138.737</ele>
        <time>2016-09-26T07:00:44Z</time>
      </trkpt>
      <trkpt lat="43.752431" lon="-7.869099">
        <ele>139.015</ele>
        <time>2016-09-26T07:00:45Z</time>
      </trkpt>
      <trkpt lat="43.752450" lon="-7.869089">
        <ele>139.031</ele>
        <time>2016-09-26T07:00:46Z</time>
      </trkpt>
      <trkpt lat="43.752468" lon="-7.869079">
        <ele>139.035</ele>
        <time>2016-09-26T07:00:47Z</time>
      </trkpt>
      <trkpt lat="43.752486" lon="-7.869068">
        <ele>139.127</ele>
        <time>2016-09-26T07:00:48Z</time>
      </trkpt>
      <trkpt lat="43.752505" lon="-7.869059">
        <ele>139.410</ele>
        <time>2016-09-26T07:00:49Z</time>
      </trkpt>
      <trkpt lat="43.752521" lon="-7.869046">
        <ele>139.778</ele>
        <time>2016-09-26T07:00:50Z</time>
      </trkpt>
      <trkpt lat="43.752537" lon="-7.869034">
        <ele>139.886</ele>
        <time>2016-09-26T07:00:51Z</time>
      </trkpt>
      <trkpt lat="43.752553" lon="-7.869021">
        <ele>139.860</ele>
        <time>2016-09-26T07:00:52Z</time>
      </trkpt>
      <trkpt lat="43.752568" lon="-7.869009">
        <ele>140.126</ele>
        <time>2016-09-26T07:00:53Z</time>
      </trkpt>
      <trkpt lat="43.752584" lon="-7.868998">
        <ele>140.108</ele>
        <time>2016-09-26T07:00:54Z</time>
      </trkpt>
      <trkpt lat="43.752600" lon="-7.868985">
        <ele>140.249</ele>
        <time>2016-09-26T07:00:55Z</time>
      </trkpt>
      <trkpt lat="43.752617" lon="-7.868973">
        <ele>140.494</ele>
        <time>2016-09-26T07:00:56Z</time>
      </trkpt>
      <trkpt lat="43.752632" lon="-7.868964">
        <ele>140.532</ele>
        <time>2016-09-26T07:00:57Z</time>
      </trkpt>
      <trkpt lat="43.752644" lon="-7.868954">
        <ele>140.888</ele>
        <time>2016-09-26T07:00:58Z</time>
      </trkpt>
      <trkpt lat="43.752657" lon="-7.868941">
        <ele>140.832</ele>
        <time>2016-09-26T07:00:59Z</time>
      </trkpt>
      <trkpt lat="43.752668" lon="-7.868926">
        <ele>141.074</ele>
        <time>2016-09-26T07:01:00Z</time>
      </trkpt>
      <trkpt lat="43.752683" lon="-7.868912">
        <ele>141.377</ele>
        <time>2016-09-26T07:01:01Z</time>
      </trkpt>
      <trkpt lat="43.752700" lon="-7.868902">
        <ele>141.575</ele>
        <time>2016-09-26T07:01:02Z</time>
      </trkpt>
      <trkpt lat="43.752713" lon="-7.868894">
        <ele>141.755</ele>
        <time>2016-09-26T07:01:03Z</time>
      </trkpt>
      <trkpt lat="43.752729" lon="-7.868885">
        <ele>142.107</ele>
        <time>2016-09-26T07:01:04Z</time>
      </trkpt>
      <trkpt lat="43.752746" lon="-7.868877">
        <ele>142.217</ele>
        <time>2016-09-26T07:01:05Z</time>
      </trkpt>
      <trkpt lat="43.752759" lon="-7.868870">
        <ele>142.308</ele>
        <time>2016-09-26T07:01:06Z</time>
      </trkpt>
      <trkpt lat="43.752770" lon="-7.868865">
        <ele>142.616</ele>
        <time>2016-09-26T07:01:07Z</time>
      </trkpt>
      <trkpt lat="43.752787" lon="-7.868859">
        <ele>142.931</ele>
        <time>2016-09-26T07:01:08Z</time>
      </trkpt>
      <trkpt lat="43.752803" lon="-7.868853">
        <ele>143.399</ele>
        <time>2016-09-26T07:01:09Z</time>
      </trkpt>
      <trkpt lat="43.752815" lon="-7.868847">
        <ele>143.325</ele>
        <time>2016-09-26T07:01:10Z</time>
      </trkpt>
      <trkpt lat="43.752828" lon="-7.868839">
        <ele>143.629</ele>
        <time>2016-09-26T07:01:11Z</time>
      </trkpt>
      <trkpt lat="43.752841" lon="-7.868829">
        <ele>143.881</ele>
        <time>2016-09-26T07:01:12Z</time>
      </trkpt>
      <trkpt lat="43.752857" lon="-7.868823">
        <ele>144.024</ele>
        <time>2016-09-26T07:01:13Z</time>
      </trkpt>
      <trkpt lat="43.752873" lon="-7.868820">
        <ele>144.392</ele>
        <time>2016-09-26T07:01:14Z</time>
      </trkpt>
      <trkpt lat="43.752887" lon="-7.868814">
        <ele>144.564</ele>
        <time>2016-09-26T07:01:15Z</time>
      </trkpt>
      <trkpt lat="43.752901" lon="-7.868808">
        <ele>144.806</ele>
        <time>2016-09-26T07:01:16Z</time>
      </trkpt>
      <trkpt lat="43.752917" lon="-7.868801">
        <ele>144.916</ele>
        <time>2016-09-26T07:01:17Z</time>
      </trkpt>
      <trkpt lat="43.752931" lon="-7.868796">
        <ele>145.108</ele>
        <time>2016-09-26T07:01:18Z</time>
      </trkpt>
      <trkpt lat="43.752947" lon="-7.868789">
        <ele>145.477</ele>
        <time>2016-09-26T07:01:19Z</time>
      </trkpt>
      <trkpt lat="43.752965" lon="-7.868783">
        <ele>145.572</ele>
        <time>2016-09-26T07:01:20Z</time>
      </trkpt>
      <trkpt lat="43.752981" lon="-7.868780">
        <ele>145.610</ele>
        <time>2016-09-26T07:01:21Z</time>
      </trkpt>
      <trkpt lat="43.753000" lon="-7.868778">
        <ele>145.916</ele>
        <time>2016-09-26T07:01:22Z</time>
      </trkpt>
      <trkpt lat="43.753018" lon="-7.868773">
        <ele>146.050</ele>
        <time>2016-09-26T07:01:23Z</time>
      </trkpt>
      <trkpt lat="43.753033" lon="-7.868766">
        <ele>146.242</ele>
        <time>2016-09-26T07:01:24Z</time>
      </trkpt>
      <trkpt lat="43.753048" lon="-7.868759">
        <ele>146.415</ele>
        <time>2016-09-26T07:01:25Z</time>
      </trkpt>
      <trkpt lat="43.753064" lon="-7.868752">
        <ele>146.753</ele>
        <time>2016-09-26T07:01:26Z</time>
      </trkpt>
      <trkpt lat="43.753083" lon="-7.868747">
        <ele>146.941</ele>
        <time>2016-09-26T07:01:27Z</time>
      </trkpt>
      <trkpt lat="43.753102" lon="-7.868744">
        <ele>147.181</ele>
        <time>2016-09-26T07:01:28Z</time>
      </trkpt>
      <trkpt lat="43.753113" lon="-7.868737">
        <ele>147.409</ele>
        <time>2016-09-26T07:01:29Z</time>
      </trkpt>
      <trkpt lat="43.753124" lon="-7.868728">
        <ele>147.508</ele>
        <time>2016-09-26T07:01:30Z</time>
      </trkpt>
      <trkpt lat="43.753136" lon="-7.868720">
        <ele>147.635</ele>
        <time>2016-09-26T07:01:31Z</time>
      </trkpt>
      <trkpt lat="43.753151" lon="-7.868718">
        <ele>148.010</ele>
        <time>2016-09-26T07:01:32Z</time>
      </trkpt>
      <trkpt lat="43.753165" lon="-7.868716">
        <ele>148.288</ele>
        <time>2016-09-26T07:01:33Z</time>
      </trkpt>
      <trkpt lat="43.753178" lon="-7.868713">
        <ele>148.384</ele>
        <time>2016-09-26T07:01:34Z</time>
      </trkpt>
      <trkpt lat="43.753194" lon="-7.868709">
        <ele>148.418</ele>
        <time>2016-09-26T07:01:35Z</time>
      </trkpt>
      <trkpt lat="43.753212" lon="-7.868704">
        <ele>148.740</ele>
        <time>2016-09-26T07:01:36Z</time>
      </trkpt>
      <trkpt lat="43.753231" lon="-7.868699">
        <ele>149.193</ele>
        <time>2016-09-26T07:01:37Z</time>
      </trkpt>
      <trkpt lat="43.753247" lon="-7.868695">
        <ele>149.471</ele>
        <time>2016-09-26T07:01:38Z</time>
      </trkpt>
      <trkpt lat="43.753262" lon="-7.868695">
        <ele>149.787</ele>
        <time>2016-09-26T07:01:39Z</time>
      </trkpt>
      <trkpt lat="43.753277" lon="-7.868697">
        <ele>149.942</ele>
        <time>2016-09-26T07:01:40Z</time>
      </trkpt>
      <trkpt lat="43.753295" lon="-7.868697">
        <ele>150.426</ele>
        <time>2016-09-26T07:01:41Z</time>
      </trkpt>
      <trkpt lat="43.753312" lon="-7.868696">
        <ele>150.608</ele>
        <time>2016-09-26T07:01:42Z</time>
      </trkpt>
      <trkpt lat="43.753328" lon="-7.868698">
        <ele>150.839</ele>
        <time>2016-09-26T07:01:43Z</time>
      </trkpt>
      <trkpt lat="43.753341" lon="-7.868694">
        <ele>151.034</ele>
        <time>2016-09-26T07:01:44Z</time>
      </trkpt>
      <trkpt lat="43.753358" lon="-7.868698">
        <ele>151.162</ele>
        <time>2016-09-26T07:01:45Z</time>
      </trkpt>
      <trkpt lat="43.753373" lon="-7.868702">
        <ele>151.298</ele>
        <time>2016-09-26T07:01:46Z</time>
      </trkpt>
      <trkpt lat="43.753387" lon="-7.868704">
        <ele>151.662</ele>
        <time>2016-09-26T07:01:47Z</time>
      </trkpt>
      <trkpt lat="43.753401" lon="-7.868703">
        <ele>151.944</ele>
        <time>2016-09-26T07:01:48Z</time>
      </trkpt>
      <trkpt lat="43.753416" lon="-7.868701">
        <ele>152.267</ele>
        <time>2016-09-26T07:01:49Z</time>
      </trkpt>
      <trkpt lat="43.753431" lon="-7.868699">
        <ele>152.555</ele>
        <time>2016-09-26T07:01:50Z</time>
      </trkpt>
      <trkpt lat="43.753447" lon="-7.868700">
        <ele>152.811</ele>
        <time>2016-09-26T07:01:51Z</time>
      </trkpt>
      <trkpt lat="43.753462" lon="-7.868704">
        <ele>152.921</ele>
        <time>2016-09-26T07:01:52Z</time>
      </trkpt>
      <trkpt lat="43.753478" lon="-7.868710">
        <ele>153.003</ele>
        <time>2016-09-26T07:01:53Z</time>
      </trkpt>
      <trkpt lat="43.753491" lon="-7.868711">
        <ele>153.308</ele>
        <time>2016-09-26T07:01:54Z</time>
      </trkpt>
      <trkpt lat="43.753510" lon="-7.868715">
        <ele>153.592</ele>
        <time>2016-09-26T07:01:55Z</time>
      </trkpt>
      <trkpt lat="43.753527" lon="-7.868718">
        <ele>153.747</ele>
        <time>2016-09-26T07:01:56Z</time>
      </trkpt>
      <trkpt lat="43.753547" lon="-7.868719">
        <ele>153.895</ele>
        <time>2016-09-26T07:01:57Z</time>
      </trkpt>
      <trkpt lat="43.753567" lon="-7.868720">
        <ele>153.941</ele>
        <time>2016-09-26T07:01:58Z</time>
      </trkpt>
      <trkpt lat="43.753585" lon="-7.868720">
        <ele>154.165</ele>
        <time>2016-09-26T07:01:59Z</time>
      </trkpt>
      <trkpt lat="43.753601" lon="-7.868721">
        <ele>154.267</ele>
        <time>2016-09-26T07:02:00Z</time>
      </trkpt>
      <trkpt lat="43.753622" lon="-7.868720">
        <ele>154.620</ele>
        <time>2016-09-26T07:02:01Z</time>
      </trkpt>
      <trkpt lat="43.753638" lon="-7.868721">
        <ele>154.788</ele>
        <time>2016-09-26T07:02:02Z</time>
      </trkpt>
      <trkpt lat="43.753655" lon="-7.868716">
        <ele>155.043</ele>
        <time>2016-09-26T07:02:03Z</time>
      </trkpt>
      <trkpt lat="43.753671" lon="-7.868711">
        <ele>155.264</ele>
        <time>2016-09-26T07:02:04Z</time>
      </trkpt>
      <trkpt lat="43.753688" lon="-7.868710">
        <ele>155.010</ele>
        <time>2016-09-26T07:02:05Z</time>
      </trkpt>
      <trkpt lat="43.753708" lon="-7.868704">
        <ele>155.108</ele>
        <time>2016-09-26T07:02:06Z</time>
      </trkpt>
      <trkpt lat="43.753726" lon="-7.868704">
        <ele>155.285</ele>
        <time>2016-09-26T07:02:07Z</time>
      </trkpt>
      <trkpt lat="43.753747" lon="-7.868707">
        <ele>155.350</ele>
        <time>2016-09-26T07:02:08Z</time>
      </trkpt>
      <trkpt lat="43.753767" lon="-7.868709">
        <ele>155.488</ele>
        <time>2016-09-26T07:02:09Z</time>
      </trkpt>
      <trkpt lat="43.753786" lon="-7.868707">
        <ele>155.524</ele>
        <time>2016-09-26T07:02:10Z</time>
      </trkpt>
      <trkpt lat="43.753800" lon="-7.868709">
        <ele>155.658</ele>
        <time>2016-09-26T07:02:11Z</time>
      </trkpt>
      <trkpt lat="43.753812" lon="-7.868710">
        <ele>155.740</ele>
        <time>2016-09-26T07:02:12Z</time>
      </trkpt>
      <trkpt lat="43.753828" lon="-7.868710">
        <ele>155.883</ele>
        <time>2016-09-26T07:02:13Z</time>
      </trkpt>
      <trkpt lat="43.753844" lon="-7.868711">
        <ele>156.081</ele>
        <time>2016-09-26T07:02:14Z</time>
      </trkpt>
      <trkpt lat="43.753861" lon="-7.868716">
        <ele>156.146</ele>
        <time>2016-09-26T07:02:15Z</time>
      </trkpt>
      <trkpt lat="43.753877" lon="-7.868722">
        <ele>156.188</ele>
        <time>2016-09-26T07:02:16Z</time>
      </trkpt>
      <trkpt lat="43.753889" lon="-7.868729">
        <ele>155.916</ele>
        <time>2016-09-26T07:02:17Z</time>
      </trkpt>
      <trkpt lat="43.753905" lon="-7.868735">
        <ele>156.008</ele>
        <time>2016-09-26T07:02:18Z</time>
      </trkpt>
      <trkpt lat="43.753925" lon="-7.868740">
        <ele>155.995</ele>
        <time>2016-09-26T07:02:19Z</time>
      </trkpt>
      <trkpt lat="43.753948" lon="-7.868737">
        <ele>155.830</ele>
        <time>2016-09-26T07:02:20Z</time>
      </trkpt>
      <trkpt lat="43.753970" lon="-7.868737">
        <ele>155.968</ele>
        <time>2016-09-26T07:02:21Z</time>
      </trkpt>
      <trkpt lat="43.754000" lon="-7.868735">
        <ele>155.824</ele>
        <time>2016-09-26T07:02:22Z</time>
      </trkpt>
      <trkpt lat="43.754032" lon="-7.868736">
        <ele>156.038</ele>
        <time>2016-09-26T07:02:23Z</time>
      </trkpt>
      <trkpt lat="43.754065" lon="-7.868737">
        <ele>156.070</ele>
        <time>2016-09-26T07:02:24Z</time>
      </trkpt>
      <trkpt lat="43.754106" lon="-7.868735">
        <ele>155.923</ele>
        <time>2016-09-26T07:02:25Z</time>
      </trkpt>
      <trkpt lat="43.754135" lon="-7.868735">
        <ele>155.991</ele>
        <time>2016-09-26T07:02:26Z</time>
      </trkpt>
      <trkpt lat="43.754172" lon="-7.868733">
        <ele>155.849</ele>
        <time>2016-09-26T07:02:27Z</time>
      </trkpt>
      <trkpt lat="43.754213" lon="-7.868726">
        <ele>155.802</ele>
        <time>2016-09-26T07:02:28Z</time>
      </trkpt>
      <trkpt lat="43.754255" lon="-7.868720">
        <ele>155.722</ele>
        <time>2016-09-26T07:02:29Z</time>
      </trkpt>
      <trkpt lat="43.754296" lon="-7.868712">
        <ele>155.508</ele>
        <time>2016-09-26T07:02:30Z</time>
      </trkpt>
      <trkpt lat="43.754332" lon="-7.868705">
        <ele>155.225</ele>
        <time>2016-09-26T07:02:31Z</time>
      </trkpt>
      <trkpt lat="43.754366" lon="-7.868698">
        <ele>155.370</ele>
        <time>2016-09-26T07:02:32Z</time>
      </trkpt>
      <trkpt lat="43.754393" lon="-7.868687">
        <ele>155.288</ele>
        <time>2016-09-26T07:02:33Z</time>
      </trkpt>
      <trkpt lat="43.754414" lon="-7.868678">
        <ele>155.154</ele>
        <time>2016-09-26T07:02:34Z</time>
      </trkpt>
      <trkpt lat="43.754435" lon="-7.868669">
        <ele>155.238</ele>
        <time>2016-09-26T07:02:35Z</time>
      </trkpt>
      <trkpt lat="43.754460" lon="-7.868657">
        <ele>155.380</ele>
        <time>2016-09-26T07:02:36Z</time>
      </trkpt>
      <trkpt lat="43.754482" lon="-7.868647">
        <ele>155.473</ele>
        <time>2016-09-26T07:02:37Z</time>
      </trkpt>
      <trkpt lat="43.754507" lon="-7.868637">
        <ele>155.621</ele>
        <time>2016-09-26T07:02:38Z</time>
      </trkpt>
      <trkpt lat="43.754533" lon="-7.868628">
        <ele>155.882</ele>
        <time>2016-09-26T07:02:39Z</time>
      </trkpt>
      <trkpt lat="43.754556" lon="-7.868619">
        <ele>155.743</ele>
        <time>2016-09-26T07:02:40Z</time>
      </trkpt>
      <trkpt lat="43.754578" lon="-7.868610">
        <ele>155.617</ele>
        <time>2016-09-26T07:02:41Z</time>
      </trkpt>
      <trkpt lat="43.754596" lon="-7.868599">
        <ele>155.708</ele>
        <time>2016-09-26T07:02:42Z</time>
      </trkpt>
      <trkpt lat="43.754611" lon="-7.868587">
        <ele>156.199</ele>
        <time>2016-09-26T07:02:43Z</time>
      </trkpt>
      <trkpt lat="43.754629" lon="-7.868579">
        <ele>156.394</ele>
        <time>2016-09-26T07:02:44Z</time>
      </trkpt>
      <trkpt lat="43.754648" lon="-7.868571">
        <ele>156.592</ele>
        <time>2016-09-26T07:02:45Z</time>
      </trkpt>
      <trkpt lat="43.754668" lon="-7.868562">
        <ele>156.888</ele>
        <time>2016-09-26T07:02:46Z</time>
      </trkpt>
      <trkpt lat="43.754689" lon="-7.868554">
        <ele>157.072</ele>
        <time>2016-09-26T07:02:47Z</time>
      </trkpt>
      <trkpt lat="43.754710" lon="-7.868541">
        <ele>157.124</ele>
        <time>2016-09-26T07:02:48Z</time>
      </trkpt>
      <trkpt lat="43.754731" lon="-7.868528">
        <ele>157.217</ele>
        <time>2016-09-26T07:02:49Z</time>
      </trkpt>
      <trkpt lat="43.754749" lon="-7.868517">
        <ele>157.425</ele>
        <time>2016-09-26T07:02:50Z</time>
      </trkpt>
      <trkpt lat="43.754765" lon="-7.868508">
        <ele>157.562</ele>
        <time>2016-09-26T07:02:51Z</time>
      </trkpt>
      <trkpt lat="43.754780" lon="-7.868498">
        <ele>157.783</ele>
        <time>2016-09-26T07:02:52Z</time>
      </trkpt>
      <trkpt lat="43.754798" lon="-7.868486">
        <ele>157.911</ele>
        <time>2016-09-26T07:02:53Z</time>
      </trkpt>
      <trkpt lat="43.754815" lon="-7.868476">
        <ele>158.008</ele>
        <time>2016-09-26T07:02:54Z</time>
      </trkpt>
      <trkpt lat="43.754833" lon="-7.868467">
        <ele>158.477</ele>
        <time>2016-09-26T07:02:55Z</time>
      </trkpt>
      <trkpt lat="43.754848" lon="-7.868456">
        <ele>158.672</ele>
        <time>2016-09-26T07:02:56Z</time>
      </trkpt>
      <trkpt lat="43.754860" lon="-7.868447">
        <ele>158.860</ele>
        <time>2016-09-26T07:02:57Z</time>
      </trkpt>
      <trkpt lat="43.754874" lon="-7.868438">
        <ele>159.176</ele>
        <time>2016-09-26T07:02:58Z</time>
      </trkpt>
      <trkpt lat="43.754893" lon="-7.868425">
        <ele>159.440</ele>
        <time>2016-09-26T07:02:59Z</time>
      </trkpt>
      <trkpt lat="43.754910" lon="-7.868416">
        <ele>159.792</ele>
        <time>2016-09-26T07:03:00Z</time>
      </trkpt>
      <trkpt lat="43.754929" lon="-7.868406">
        <ele>160.065</ele>
        <time>2016-09-26T07:03:01Z</time>
      </trkpt>
      <trkpt lat="43.754947" lon="-7.868395">
        <ele>160.193</ele>
        <time>2016-09-26T07:03:02Z</time>
      </trkpt>
      <trkpt lat="43.754965" lon="-7.868385">
        <ele>160.426</ele>
        <time>2016-09-26T07:03:03Z</time>
      </trkpt>
      <trkpt lat="43.754982" lon="-7.868375">
        <ele>160.647</ele>
        <time>2016-09-26T07:03:04Z</time>
      </trkpt>
      <trkpt lat="43.755000" lon="-7.868364">
        <ele>160.711</ele>
        <time>2016-09-26T07:03:05Z</time>
      </trkpt>
      <trkpt lat="43.755017" lon="-7.868352">
        <ele>160.908</ele>
        <time>2016-09-26T07:03:06Z</time>
      </trkpt>
      <trkpt lat="43.755035" lon="-7.868339">
        <ele>161.093</ele>
        <time>2016-09-26T07:03:07Z</time>
      </trkpt>
      <trkpt lat="43.755052" lon="-7.868325">
        <ele>161.258</ele>
        <time>2016-09-26T07:03:08Z</time>
      </trkpt>
      <trkpt lat="43.755068" lon="-7.868313">
        <ele>161.396</ele>
        <time>2016-09-26T07:03:09Z</time>
      </trkpt>
      <trkpt lat="43.755086" lon="-7.868300">
        <ele>161.452</ele>
        <time>2016-09-26T07:03:10Z</time>
      </trkpt>
      <trkpt lat="43.755099" lon="-7.868286">
        <ele>161.416</ele>
        <time>2016-09-26T07:03:11Z</time>
      </trkpt>
      <trkpt lat="43.755113" lon="-7.868273">
        <ele>161.598</ele>
        <time>2016-09-26T07:03:12Z</time>
      </trkpt>
      <trkpt lat="43.755129" lon="-7.868262">
        <ele>161.971</ele>
        <time>2016-09-26T07:03:13Z</time>
      </trkpt>
      <trkpt lat="43.755144" lon="-7.868251">
        <ele>161.979</ele>
        <time>2016-09-26T07:03:14Z</time>
      </trkpt>
      <trkpt lat="43.755160" lon="-7.868240">
        <ele>161.869</ele>
        <time>2016-09-26T07:03:15Z</time>
      </trkpt>
      <trkpt lat="43.755181" lon="-7.868230">
        <ele>161.904</ele>
        <time>2016-09-26T07:03:16Z</time>
      </trkpt>
      <trkpt lat="43.755203" lon="-7.868219">
        <ele>162.124</ele>
        <time>2016-09-26T07:03:17Z</time>
      </trkpt>
      <trkpt lat="43.755223" lon="-7.868207">
        <ele>162.108</ele>
        <time>2016-09-26T07:03:18Z</time>
      </trkpt>
      <trkpt lat="43.755247" lon="-7.868193">
        <ele>162.137</ele>
        <time>2016-09-26T07:03:19Z</time>
      </trkpt>
      <trkpt lat="43.755266" lon="-7.868180">
        <ele>162.332</ele>
        <time>2016-09-26T07:03:20Z</time>
      </trkpt>
      <trkpt lat="43.755289" lon="-7.868160">
        <ele>162.350</ele>
        <time>2016-09-26T07:03:21Z</time>
      </trkpt>
      <trkpt lat="43.755316" lon="-7.868143">
        <ele>162.376</ele>
        <time>2016-09-26T07:03:22Z</time>
      </trkpt>
      <trkpt lat="43.755340" lon="-7.868127">
        <ele>162.290</ele>
        <time>2016-09-26T07:03:23Z</time>
      </trkpt>
      <trkpt lat="43.755365" lon="-7.868110">
        <ele>162.182</ele>
        <time>2016-09-26T07:03:24Z</time>
      </trkpt>
      <trkpt lat="43.755391" lon="-7.868090">
        <ele>162.135</ele>
        <time>2016-09-26T07:03:25Z</time>
      </trkpt>
      <trkpt lat="43.755419" lon="-7.868073">
        <ele>162.013</ele>
        <time>2016-09-26T07:03:26Z</time>
      </trkpt>
      <trkpt lat="43.755453" lon="-7.868045">
        <ele>161.974</ele>
        <time>2016-09-26T07:03:27Z</time>
      </trkpt>
      <trkpt lat="43.755493" lon="-7.868015">
        <ele>162.056</ele>
        <time>2016-09-26T07:03:28Z</time>
      </trkpt>
      <trkpt lat="43.755537" lon="-7.867987">
        <ele>161.921</ele>
        <time>2016-09-26T07:03:29Z</time>
      </trkpt>
      <trkpt lat="43.755579" lon="-7.867956">
        <ele>161.808</ele>
        <time>2016-09-26T07:03:30Z</time>
      </trkpt>
      <trkpt lat="43.755633" lon="-7.867913">
        <ele>161.898</ele>
        <time>2016-09-26T07:03:31Z</time>
      </trkpt>
      <trkpt lat="43.755692" lon="-7.867866">
        <ele>161.673</ele>
        <time>2016-09-26T07:03:32Z</time>
      </trkpt>
      <trkpt lat="43.755758" lon="-7.867816">
        <ele>161.241</ele>
        <time>2016-09-26T07:03:33Z</time>
      </trkpt>
      <trkpt lat="43.755831" lon="-7.867762">
        <ele>160.877</ele>
        <time>2016-09-26T07:03:34Z</time>
      </trkpt>
      <trkpt lat="43.755916" lon="-7.867714">
        <ele>160.481</ele>
        <time>2016-09-26T07:03:35Z</time>
      </trkpt>
      <trkpt lat="43.756005" lon="-7.867661">
        <ele>159.783</ele>
        <time>2016-09-26T07:03:36Z</time>
      </trkpt>
      <trkpt lat="43.756100" lon="-7.867600">
        <ele>159.216</ele>
        <time>2016-09-26T07:03:37Z</time>
      </trkpt>
      <trkpt lat="43.756194" lon="-7.867536">
        <ele>158.624</ele>
        <time>2016-09-26T07:03:38Z</time>
      </trkpt>
      <trkpt lat="43.756294" lon="-7.867469">
        <ele>157.926</ele>
        <time>2016-09-26T07:03:39Z</time>
      </trkpt>
      <trkpt lat="43.756401" lon="-7.867403">
        <ele>157.347</ele>
        <time>2016-09-26T07:03:40Z</time>
      </trkpt>
      <trkpt lat="43.756505" lon="-7.867338">
        <ele>156.711</ele>
        <time>2016-09-26T07:03:41Z</time>
      </trkpt>
      <trkpt lat="43.756613" lon="-7.867271">
        <ele>155.808</ele>
        <time>2016-09-26T07:03:42Z</time>
      </trkpt>
      <trkpt lat="43.756722" lon="-7.867202">
        <ele>155.023</ele>
        <time>2016-09-26T07:03:43Z</time>
      </trkpt>
      <trkpt lat="43.756837" lon="-7.867133">
        <ele>154.018</ele>
        <time>2016-09-26T07:03:44Z</time>
      </trkpt>
      <trkpt lat="43.756958" lon="-7.867054">
        <ele>152.736</ele>
        <time>2016-09-26T07:03:45Z</time>
      </trkpt>
      <trkpt lat="43.757084" lon="-7.866967">
        <ele>151.952</ele>
        <time>2016-09-26T07:03:46Z</time>
      </trkpt>
      <trkpt lat="43.757215" lon="-7.866879">
        <ele>151.236</ele>
        <time>2016-09-26T07:03:47Z</time>
      </trkpt>
      <trkpt lat="43.757341" lon="-7.866794">
        <ele>150.448</ele>
        <time>2016-09-26T07:03:48Z</time>
      </trkpt>
      <trkpt lat="43.757461" lon="-7.866712">
        <ele>149.581</ele>
        <time>2016-09-26T07:03:49Z</time>
      </trkpt>
      <trkpt lat="43.757582" lon="-7.866630">
        <ele>148.849</ele>
        <time>2016-09-26T07:03:50Z</time>
      </trkpt>
      <trkpt lat="43.757693" lon="-7.866540">
        <ele>148.087</ele>
        <time>2016-09-26T07:03:51Z</time>
      </trkpt>
      <trkpt lat="43.757811" lon="-7.866454">
        <ele>147.242</ele>
        <time>2016-09-26T07:03:52Z</time>
      </trkpt>
      <trkpt lat="43.757920" lon="-7.866374">
        <ele>146.326</ele>
        <time>2016-09-26T07:03:53Z</time>
      </trkpt>
      <trkpt lat="43.758032" lon="-7.866292">
        <ele>145.708</ele>
        <time>2016-09-26T07:03:54Z</time>
      </trkpt>
      <trkpt lat="43.758136" lon="-7.866197">
        <ele>144.989</ele>
        <time>2016-09-26T07:03:55Z</time>
      </trkpt>
      <trkpt lat="43.758239" lon="-7.866110">
        <ele>144.254</ele>
        <time>2016-09-26T07:03:56Z</time>
      </trkpt>
      <trkpt lat="43.758344" lon="-7.866036">
        <ele>143.442</ele>
        <time>2016-09-26T07:03:57Z</time>
      </trkpt>
      <trkpt lat="43.758442" lon="-7.865958">
        <ele>142.868</ele>
        <time>2016-09-26T07:03:58Z</time>
      </trkpt>
      <trkpt lat="43.758536" lon="-7.865889">
        <ele>142.042</ele>
        <time>2016-09-26T07:03:59Z</time>
      </trkpt>
      <trkpt lat="43.758625" lon="-7.865824">
        <ele>141.124</ele>
        <time>2016-09-26T07:04:00Z</time>
      </trkpt>
      <trkpt lat="43.758719" lon="-7.865757">
        <ele>140.197</ele>
        <time>2016-09-26T07:04:01Z</time>
      </trkpt>
      <trkpt lat="43.758806" lon="-7.865694">
        <ele>139.355</ele>
        <time>2016-09-26T07:04:02Z</time>
      </trkpt>
      <trkpt lat="43.758886" lon="-7.865627">
        <ele>138.782</ele>
        <time>2016-09-26T07:04:03Z</time>
      </trkpt>
      <trkpt lat="43.758964" lon="-7.865564">
        <ele>138.043</ele>
        <time>2016-09-26T07:04:04Z</time>
      </trkpt>
      <trkpt lat="43.759048" lon="-7.865511">
        <ele>137.417</ele>
        <time>2016-09-26T07:04:05Z</time>
      </trkpt>
      <trkpt lat="43.759128" lon="-7.865465">
        <ele>136.508</ele>
        <time>2016-09-26T07:04:06Z</time>
      </trkpt>
      <trkpt lat="43.759202" lon="-7.865427">
        <ele>135.769</ele>
        <time>2016-09-26T07:04:07Z</time>
      </trkpt>
      <trkpt lat="43.759280" lon="-7.865392">
        <ele>135.214</ele>
        <time>2016-09-26T07:04:08Z</time>
      </trkpt>
      <trkpt lat="43.759368" lon="-7.865384">
        <ele>134.682</ele>
        <time>2016-09-26T07:04:09Z</time>
      </trkpt>
      <trkpt lat="43.759464" lon="-7.865382">
        <ele>133.858</ele>
        <time>2016-09-26T07:04:10Z</time>
      </trkpt>
      <trkpt lat="43.759558" lon="-7.865375">
        <ele>133.222</ele>
        <time>2016-09-26T07:04:11Z</time>
      </trkpt>
      <trkpt lat="43.759655" lon="-7.865366">
        <ele>132.584</ele>
        <time>2016-09-26T07:04:12Z</time>
      </trkpt>
      <trkpt lat="43.759748" lon="-7.865350">
        <ele>132.067</ele>
        <time>2016-09-26T07:04:13Z</time>
      </trkpt>
      <trkpt lat="43.759843" lon="-7.865335">
        <ele>131.475</ele>
        <time>2016-09-26T07:04:14Z</time>
      </trkpt>
      <trkpt lat="43.759936" lon="-7.865320">
        <ele>130.937</ele>
        <time>2016-09-26T07:04:15Z</time>
      </trkpt>
      <trkpt lat="43.760012" lon="-7.865311">
        <ele>130.749</ele>
        <time>2016-09-26T07:04:16Z</time>
      </trkpt>
      <trkpt lat="43.760090" lon="-7.865299">
        <ele>130.413</ele>
        <time>2016-09-26T07:04:17Z</time>
      </trkpt>
      <trkpt lat="43.760148" lon="-7.865298">
        <ele>130.208</ele>
        <time>2016-09-26T07:04:18Z</time>
      </trkpt>
      <trkpt lat="43.760199" lon="-7.865299">
        <ele>130.244</ele>
        <time>2016-09-26T07:04:19Z</time>
      </trkpt>
      <trkpt lat="43.760247" lon="-7.865294">
        <ele>130.119</ele>
        <time>2016-09-26T07:04:20Z</time>
      </trkpt>
      <trkpt lat="43.760288" lon="-7.865291">
        <ele>130.247</ele>
        <time>2016-09-26T07:04:21Z</time>
      </trkpt>
      <trkpt lat="43.760312" lon="-7.865285">
        <ele>130.243</ele>
        <time>2016-09-26T07:04:22Z</time>
      </trkpt>
      <trkpt lat="43.760334" lon="-7.865285">
        <ele>130.367</ele>
        <time>2016-09-26T07:04:23Z</time>
      </trkpt>
      <trkpt lat="43.760356" lon="-7.865289">
        <ele>130.319</ele>
        <time>2016-09-26T07:04:24Z</time>
      </trkpt>
      <trkpt lat="43.760381" lon="-7.865291">
        <ele>130.392</ele>
        <time>2016-09-26T07:04:25Z</time>
      </trkpt>
      <trkpt lat="43.760412" lon="-7.865295">
        <ele>130.560</ele>
        <time>2016-09-26T07:04:26Z</time>
      </trkpt>
      <trkpt lat="43.760441" lon="-7.865298">
        <ele>130.741</ele>
        <time>2016-09-26T07:04:27Z</time>
      </trkpt>
      <trkpt lat="43.760467" lon="-7.865301">
        <ele>131.081</ele>
        <time>2016-09-26T07:04:28Z</time>
      </trkpt>
      <trkpt lat="43.760493" lon="-7.865303">
        <ele>131.309</ele>
        <time>2016-09-26T07:04:29Z</time>
      </trkpt>
      <trkpt lat="43.760518" lon="-7.865310">
        <ele>131.508</ele>
        <time>2016-09-26T07:04:30Z</time>
      </trkpt>
      <trkpt lat="43.760539" lon="-7.865321">
        <ele>131.735</ele>
        <time>2016-09-26T07:04:31Z</time>
      </trkpt>
      <trkpt lat="43.760564" lon="-7.865330">
        <ele>131.990</ele>
        <time>2016-09-26T07:04:32Z</time>
      </trkpt>
      <trkpt lat="43.760585" lon="-7.865334">
        <ele>132.168</ele>
        <time>2016-09-26T07:04:33Z</time>
      </trkpt>
      <trkpt lat="43.760606" lon="-7.865344">
        <ele>132.414</ele>
        <time>2016-09-26T07:04:34Z</time>
      </trkpt>
      <trkpt lat="43.760632" lon="-7.865354">
        <ele>132.758</ele>
        <time>2016-09-26T07:04:35Z</time>
      </trkpt>
      <trkpt lat="43.760656" lon="-7.865363">
        <ele>132.920</ele>
        <time>2016-09-26T07:04:36Z</time>
      </trkpt>
      <trkpt lat="43.760675" lon="-7.865381">
        <ele>133.133</ele>
        <time>2016-09-26T07:04:37Z</time>
      </trkpt>
      <trkpt lat="43.760696" lon="-7.865389">
        <ele>133.241</ele>
        <time>2016-09-26T07:04:38Z</time>
      </trkpt>
      <trkpt lat="43.760721" lon="-7.865385">
        <ele>133.925</ele>
        <time>2016-09-26T07:04:39Z</time>
      </trkpt>
      <trkpt lat="43.760747" lon="-7.865390">
        <ele>134.126</ele>
        <time>2016-09-26T07:04:40Z</time>
      </trkpt>
      <trkpt lat="43.760768" lon="-7.865406">
        <ele>134.308</ele>
        <time>2016-09-26T07:04:41Z</time>
      </trkpt>
      <trkpt lat="43.760787" lon="-7.865424">
        <ele>134.608</ele>
        <time>2016-09-26T07:04:42Z</time>
      </trkpt>
      <trkpt lat="43.760806" lon="-7.865432">
        <ele>134.993</ele>
        <time>2016-09-26T07:04:43Z</time>
      </trkpt>
      <trkpt lat="43.760823" lon="-7.865448">
        <ele>135.238</ele>
        <time>2016-09-26T07:04:44Z</time>
      </trkpt>
      <trkpt lat="43.760835" lon="-7.865460">
        <ele>135.486</ele>
        <time>2016-09-26T07:04:45Z</time>
      </trkpt>
      <trkpt lat="43.760853" lon="-7.865467">
        <ele>135.762</ele>
        <time>2016-09-26T07:04:46Z</time>
      </trkpt>
      <trkpt lat="43.760873" lon="-7.865478">
        <ele>135.926</ele>
        <time>2016-09-26T07:04:47Z</time>
      </trkpt>
      <trkpt lat="43.760896" lon="-7.865494">
        <ele>136.198</ele>
        <time>2016-09-26T07:04:48Z</time>
      </trkpt>
      <trkpt lat="43.760914" lon="-7.865511">
        <ele>136.381</ele>
        <time>2016-09-26T07:04:49Z</time>
      </trkpt>
      <trkpt lat="43.760934" lon="-7.865526">
        <ele>136.489</ele>
        <time>2016-09-26T07:04:50Z</time>
      </trkpt>
      <trkpt lat="43.760950" lon="-7.865536">
        <ele>136.638</ele>
        <time>2016-09-26T07:04:51Z</time>
      </trkpt>
      <trkpt lat="43.760963" lon="-7.865547">
        <ele>136.970</ele>
        <time>2016-09-26T07:04:52Z</time>
      </trkpt>
      <trkpt lat="43.760975" lon="-7.865556">
        <ele>137.117</ele>
        <time>2016-09-26T07:04:53Z</time>
      </trkpt>
      <trkpt lat="43.760989" lon="-7.865561">
        <ele>137.308</ele>
        <time>2016-09-26T07:04:54Z</time>
      </trkpt>
      <trkpt lat="43.761011" lon="-7.865567">
        <ele>137.414</ele>
        <time>2016-09-26T07:04:55Z</time>
      </trkpt>
      <trkpt lat="43.761033" lon="-7.865572">
        <ele>137.649</ele>
        <time>2016-09-26T07:04:56Z</time>
      </trkpt>
      <trkpt lat="43.761054" lon="-7.865575">
        <ele>137.867</ele>
        <time>2016-09-26T07:04:57Z</time>
      </trkpt>
      <trkpt lat="43.761077" lon="-7.865577">
        <ele>137.933</ele>
        <time>2016-09-26T07:04:58Z</time>
      </trkpt>
      <trkpt lat="43.761100" lon="-7.865577">
        <ele>138.147</ele>
        <time>2016-09-26T07:04:59Z</time>
      </trkpt>
      <trkpt lat="43.761120" lon="-7.865576">
        <ele>138.459</ele>
        <time>2016-09-26T07:05:00Z</time>
      </trkpt>
      <trkpt lat="43.761142" lon="-7.865575">
        <ele>138.672</ele>
        <time>2016-09-26T07:05:01Z</time>
      </trkpt>
      <trkpt lat="43.761165" lon="-7.865568">
        <ele>138.690</ele>
        <time>2016-09-26T07:05:02Z</time>
      </trkpt>
      <trkpt lat="43.761187" lon="-7.865552">
        <ele>138.713</ele>
        <time>2016-09-26T07:05:03Z</time>
      </trkpt>
      <trkpt lat="43.761211" lon="-7.865535">
        <ele>138.743</ele>
        <time>2016-09-26T07:05:04Z</time>
      </trkpt>
      <trkpt lat="43.761232" lon="-7.865517">
        <ele>138.907</ele>
        <time>2016-09-26T07:05:05Z</time>
      </trkpt>
      <trkpt lat="43.761254" lon="-7.865497">
        <ele>139.208</ele>
        <time>2016-09-26T07:05:06Z</time>
      </trkpt>
      <trkpt lat="43.761273" lon="-7.865480">
        <ele>139.412</ele>
        <time>2016-09-26T07:05:07Z</time>
      </trkpt>
      <trkpt lat="43.761288" lon="-7.865463">
        <ele>139.517</ele>
        <time>2016-09-26T07:05:08Z</time>
      </trkpt>
      <trkpt lat="43.761302" lon="-7.865442">
        <ele>140.175</ele>
        <time>2016-09-26T07:05:09Z</time>
      </trkpt>
      <trkpt lat="43.761321" lon="-7.865422">
        <ele>140.521</ele>
        <time>2016-09-26T07:05:10Z</time>
      </trkpt>
      <trkpt lat="43.761338" lon="-7.865401">
        <ele>140.735</ele>
        <time>2016-09-26T07:05:11Z</time>
      </trkpt>
      <trkpt lat="43.761355" lon="-7.865381">
        <ele>141.127</ele>
        <time>2016-09-26T07:05:12Z</time>
      </trkpt>
      <trkpt lat="43.761373" lon="-7.865365">
        <ele>141.540</ele>
        <time>2016-09-26T07:05:13Z</time>
      </trkpt>
      <trkpt lat="43.761390" lon="-7.865345">
        <ele>141.798</ele>
        <time>2016-09-26T07:05:14Z</time>
      </trkpt>
      <trkpt lat="43.761405" lon="-7.865325">
        <ele>141.873</ele>
        <time>2016-09-26T07:05:15Z</time>
      </trkpt>
      <trkpt lat="43.761419" lon="-7.865305">
        <ele>142.285</ele>
        <time>2016-09-26T07:05:16Z</time>
      </trkpt>
      <trkpt lat="43.761437" lon="-7.865295">
        <ele>142.613</ele>
        <time>2016-09-26T07:05:17Z</time>
      </trkpt>
      <trkpt lat="43.761458" lon="-7.865279">
        <ele>142.908</ele>
        <time>2016-09-26T07:05:18Z</time>
      </trkpt>
      <trkpt lat="43.761471" lon="-7.865263">
        <ele>143.288</ele>
        <time>2016-09-26T07:05:19Z</time>
      </trkpt>
      <trkpt lat="43.761479" lon="-7.865243">
        <ele>143.313</ele>
        <time>2016-09-26T07:05:20Z</time>
      </trkpt>
      <trkpt lat="43.761488" lon="-7.865223">
        <ele>143.591</ele>
        <time>2016-09-26T07:05:21Z</time>
      </trkpt>
      <trkpt lat="43.761497" lon="-7.865203">
        <ele>143.557</ele>
        <time>2016-09-26T07:05:22Z</time>
      </trkpt>
      <trkpt lat="43.761505" lon="-7.865179">
        <ele>143.831</ele>
        <time>2016-09-26T07:05:23Z</time>
      </trkpt>
      <trkpt lat="43.761510" lon="-7.865160">
        <ele>143.933</ele>
        <time>2016-09-26T07:05:24Z</time>
      </trkpt>
      <trkpt lat="43.761516" lon="-7.865143">
        <ele>144.156</ele>
        <time>2016-09-26T07:05:25Z</time>
      </trkpt>
      <trkpt lat="43.761526" lon="-7.865120">
        <ele>144.324</ele>
        <time>2016-09-26T07:05:26Z</time>
      </trkpt>
      <trkpt lat="43.761541" lon="-7.865098">
        <ele>144.715</ele>
        <time>2016-09-26T07:05:27Z</time>
      </trkpt>
      <trkpt lat="43.761555" lon="-7.865078">
        <ele>144.965</ele>
        <time>2016-09-26T07:05:28Z</time>
      </trkpt>
      <trkpt lat="43.761571" lon="-7.865060">
        <ele>145.011</ele>
        <time>2016-09-26T07:05:29Z</time>
      </trkpt>
      <trkpt lat="43.761582" lon="-7.865045">
        <ele>145.208</ele>
        <time>2016-09-26T07:05:30Z</time>
      </trkpt>
      <trkpt lat="43.761591" lon="-7.865032">
        <ele>145.572</ele>
        <time>2016-09-26T07:05:31Z</time>
      </trkpt>
      <trkpt lat="43.761601" lon="-7.865017">
        <ele>145.677</ele>
        <time>2016-09-26T07:05:32Z</time>
      </trkpt>
      <trkpt lat="43.761612" lon="-7.865002">
        <ele>145.615</ele>
        <time>2016-09-26T07:05:33Z</time>
      </trkpt>
      <trkpt lat="43.761625" lon="-7.864988">
        <ele>145.861</ele>
        <time>2016-09-26T07:05:34Z</time>
      </trkpt>
      <trkpt lat="43.761640" lon="-7.864968">
        <ele>145.925</ele>
        <time>2016-09-26T07:05:35Z</time>
      </trkpt>
      <trkpt lat="43.761657" lon="-7.864950">
        <ele>146.087</ele>
        <time>2016-09-26T07:05:36Z</time>
      </trkpt>
      <trkpt lat="43.761672" lon="-7.864932">
        <ele>146.210</ele>
        <time>2016-09-26T07:05:37Z</time>
      </trkpt>
      <trkpt lat="43.761683" lon="-7.864912">
        <ele>146.368</ele>
        <time>2016-09-26T07:05:38Z</time>
      </trkpt>
      <trkpt lat="43.761698" lon="-7.864894">
        <ele>146.413</ele>
        <time>2016-09-26T07:05:39Z</time>
      </trkpt>
      <trkpt lat="43.761718" lon="-7.864875">
        <ele>146.643</ele>
        <time>2016-09-26T07:05:40Z</time>
      </trkpt>
      <trkpt lat="43.761736" lon="-7.864859">
        <ele>146.707</ele>
        <time>2016-09-26T07:05:41Z</time>
      </trkpt>
      <trkpt lat="43.761756" lon="-7.864842">
        <ele>147.008</ele>
        <time>2016-09-26T07:05:42Z</time>
      </trkpt>
      <trkpt lat="43.761773" lon="-7.864827">
        <ele>147.182</ele>
        <time>2016-09-26T07:05:43Z</time>
      </trkpt>
      <trkpt lat="43.761791" lon="-7.864813">
        <ele>147.187</ele>
        <time>2016-09-26T07:05:44Z</time>
      </trkpt>
      <trkpt lat="43.761810" lon="-7.864796">
        <ele>147.365</ele>
        <time>2016-09-26T07:05:45Z</time>
      </trkpt>
      <trkpt lat="43.761820" lon="-7.864779">
        <ele>147.441</ele>
        <time>2016-09-26T07:05:46Z</time>
      </trkpt>
      <trkpt lat="43.761830" lon="-7.864760">
        <ele>147.685</ele>
        <time>2016-09-26T07:05:47Z</time>
      </trkpt>
      <trkpt lat="43.761838" lon="-7.864743">
        <ele>147.787</ele>
        <time>2016-09-26T07:05:48Z</time>
      </trkpt>
      <trkpt lat="43.761850" lon="-7.864726">
        <ele>148.070</ele>
        <time>2016-09-26T07:05:49Z</time>
      </trkpt>
      <trkpt lat="43.761863" lon="-7.864709">
        <ele>148.138</ele>
        <time>2016-09-26T07:05:50Z</time>
      </trkpt>
      <trkpt lat="43.761875" lon="-7.864695">
        <ele>148.183</ele>
        <time>2016-09-26T07:05:51Z</time>
      </trkpt>
      <trkpt lat="43.761884" lon="-7.864674">
        <ele>148.225</ele>
        <time>2016-09-26T07:05:52Z</time>
      </trkpt>
      <trkpt lat="43.761892" lon="-7.864654">
        <ele>148.517</ele>
        <time>2016-09-26T07:05:53Z</time>
      </trkpt>
      <trkpt lat="43.761904" lon="-7.864633">
        <ele>148.808</ele>
        <time>2016-09-26T07:05:54Z</time>
      </trkpt>
      <trkpt lat="43.761918" lon="-7.864613">
        <ele>149.089</ele>
        <time>2016-09-26T07:05:55Z</time>
      </trkpt>
      <trkpt lat="43.761931" lon="-7.864594">
        <ele>149.184</ele>
        <time>2016-09-26T07:05:56Z</time>
      </trkpt>
      <trkpt lat="43.761941" lon="-7.864575">
        <ele>149.482</ele>
        <time>2016-09-26T07:05:57Z</time>
      </trkpt>
      <trkpt lat="43.761955" lon="-7.864555">
        <ele>149.598</ele>
        <time>2016-09-26T07:05:58Z</time>
      </trkpt>
      <trkpt lat="43.761968" lon="-7.864538">
        <ele>149.772</ele>
        <time>2016-09-26T07:05:59Z</time>
      </trkpt>
      <trkpt lat="43.761981" lon="-7.864521">
        <ele>149.984</ele>
        <time>2016-09-26T07:06:00Z</time>
      </trkpt>
      <trkpt lat="43.761994" lon="-7.864505">
        <ele>149.947</ele>
        <time>2016-09-26T07:06:01Z</time>
      </trkpt>
      <trkpt lat="43.762006" lon="-7.864490">
        <ele>150.135</ele>
        <time>2016-09-26T07:06:02Z</time>
      </trkpt>
      <trkpt lat="43.762020" lon="-7.864475">
        <ele>150.262</ele>
        <time>2016-09-26T07:06:03Z</time>
      </trkpt>
      <trkpt lat="43.762036" lon="-7.864459">
        <ele>150.383</ele>
        <time>2016-09-26T07:06:04Z</time>
      </trkpt>
      <trkpt lat="43.762051" lon="-7.864445">
        <ele>150.511</ele>
        <time>2016-09-26T07:06:05Z</time>
      </trkpt>
      <trkpt lat="43.762060" lon="-7.864429">
        <ele>150.808</ele>
        <time>2016-09-26T07:06:06Z</time>
      </trkpt>
      <trkpt lat="43.762077" lon="-7.864414">
        <ele>151.057</ele>
        <time>2016-09-26T07:06:07Z</time>
      </trkpt>
      <trkpt lat="43.762097" lon="-7.864402">
        <ele>151.112</ele>
        <time>2016-09-26T07:06:08Z</time>
      </trkpt>
      <trkpt lat="43.762115" lon="-7.864388">
        <ele>151.240</ele>
        <time>2016-09-26T07:06:09Z</time>
      </trkpt>
      <trkpt lat="43.762132" lon="-7.864372">
        <ele>151.586</ele>
        <time>2016-09-26T07:06:10Z</time>
      </trkpt>
      <trkpt lat="43.762148" lon="-7.864358">
        <ele>151.650</ele>
        <time>2016-09-26T07:06:11Z</time>
      </trkpt>
      <trkpt lat="43.762165" lon="-7.864345">
        <ele>151.962</ele>
        <time>2016-09-26T07:06:12Z</time>
      </trkpt>
      <trkpt lat="43.762187" lon="-7.864329">
        <ele>152.035</ele>
        <time>2016-09-26T07:06:13Z</time>
      </trkpt>
      <trkpt lat="43.762202" lon="-7.864309">
        <ele>152.283</ele>
        <time>2016-09-26T07:06:14Z</time>
      </trkpt>
      <trkpt lat="43.762218" lon="-7.864293">
        <ele>152.589</ele>
        <time>2016-09-26T07:06:15Z</time>
      </trkpt>
      <trkpt lat="43.762233" lon="-7.864280">
        <ele>152.706</ele>
        <time>2016-09-26T07:06:16Z</time>
      </trkpt>
      <trkpt lat="43.762249" lon="-7.864267">
        <ele>152.926</ele>
        <time>2016-09-26T07:06:17Z</time>
      </trkpt>
      <trkpt lat="43.762265" lon="-7.864252">
        <ele>153.008</ele>
        <time>2016-09-26T07:06:18Z</time>
      </trkpt>
      <trkpt lat="43.762280" lon="-7.864236">
        <ele>152.919</ele>
        <time>2016-09-26T07:06:19Z</time>
      </trkpt>
      <trkpt lat="43.762297" lon="-7.864222">
        <ele>153.074</ele>
        <time>2016-09-26T07:06:20Z</time>
      </trkpt>
      <trkpt lat="43.762314" lon="-7.864207">
        <ele>153.062</ele>
        <time>2016-09-26T07:06:21Z</time>
      </trkpt>
      <trkpt lat="43.762328" lon="-7.864194">
        <ele>153.238</ele>
        <time>2016-09-26T07:06:22Z</time>
      </trkpt>
      <trkpt lat="43.762338" lon="-7.864183">
        <ele>153.382</ele>
        <time>2016-09-26T07:06:23Z</time>
      </trkpt>
      <trkpt lat="43.762349" lon="-7.864170">
        <ele>153.534</ele>
        <time>2016-09-26T07:06:24Z</time>
      </trkpt>
      <trkpt lat="43.762361" lon="-7.864153">
        <ele>153.797</ele>
        <time>2016-09-26T07:06:25Z</time>
      </trkpt>
      <trkpt lat="43.762373" lon="-7.864140">
        <ele>153.845</ele>
        <time>2016-09-26T07:06:26Z</time>
      </trkpt>
      <trkpt lat="43.762383" lon="-7.864127">
        <ele>153.984</ele>
        <time>2016-09-26T07:06:27Z</time>
      </trkpt>
      <trkpt lat="43.762394" lon="-7.864111">
        <ele>154.007</ele>
        <time>2016-09-26T07:06:28Z</time>
      </trkpt>
      <trkpt lat="43.762404" lon="-7.864094">
        <ele>154.117</ele>
        <time>2016-09-26T07:06:29Z</time>
      </trkpt>
      <trkpt lat="43.762419" lon="-7.864076">
        <ele>154.208</ele>
        <time>2016-09-26T07:06:30Z</time>
      </trkpt>
      <trkpt lat="43.762434" lon="-7.864058">
        <ele>154.389</ele>
        <time>2016-09-26T07:06:31Z</time>
      </trkpt>
      <trkpt lat="43.762451" lon="-7.864040">
        <ele>154.424</ele>
        <time>2016-09-26T07:06:32Z</time>
      </trkpt>
      <trkpt lat="43.762466" lon="-7.864023">
        <ele>154.772</ele>
        <time>2016-09-26T07:06:33Z</time>
      </trkpt>
      <trkpt lat="43.762479" lon="-7.864009">
        <ele>154.728</ele>
        <time>2016-09-26T07:06:34Z</time>
      </trkpt>
      <trkpt lat="43.762492" lon="-7.863990">
        <ele>154.722</ele>
        <time>2016-09-26T07:06:35Z</time>
      </trkpt>
      <trkpt lat="43.762506" lon="-7.863968">
        <ele>154.834</ele>
        <time>2016-09-26T07:06:36Z</time>
      </trkpt>
      <trkpt lat="43.762522" lon="-7.863956">
        <ele>154.977</ele>
        <time>2016-09-26T07:06:37Z</time>
      </trkpt>
      <trkpt lat="43.762536" lon="-7.863947">
        <ele>155.035</ele>
        <time>2016-09-26T07:06:38Z</time>
      </trkpt>
      <trkpt lat="43.762546" lon="-7.863932">
        <ele>155.234</ele>
        <time>2016-09-26T07:06:39Z</time>
      </trkpt>
      <trkpt lat="43.762560" lon="-7.863915">
        <ele>155.555</ele>
        <time>2016-09-26T07:06:40Z</time>
      </trkpt>
      <trkpt lat="43.762571" lon="-7.863897">
        <ele>155.710</ele>
        <time>2016-09-26T07:06:41Z</time>
      </trkpt>
      <trkpt lat="43.762586" lon="-7.863882">
        <ele>155.708</ele>
        <time>2016-09-26T07:06:42Z</time>
      </trkpt>
      <trkpt lat="43.762601" lon="-7.863869">
        <ele>155.784</ele>
        <time>2016-09-26T07:06:43Z</time>
      </trkpt>
      <trkpt lat="43.762614" lon="-7.863852">
        <ele>155.739</ele>
        <time>2016-09-26T07:06:44Z</time>
      </trkpt>
      <trkpt lat="43.762627" lon="-7.863837">
        <ele>155.937</ele>
        <time>2016-09-26T07:06:45Z</time>
      </trkpt>
      <trkpt lat="43.762640" lon="-7.863822">
        <ele>155.913</ele>
        <time>2016-09-26T07:06:46Z</time>
      </trkpt>
      <trkpt lat="43.762655" lon="-7.863811">
        <ele>156.097</ele>
        <time>2016-09-26T07:06:47Z</time>
      </trkpt>
      <trkpt lat="43.762670" lon="-7.863790">
        <ele>156.359</ele>
        <time>2016-09-26T07:06:48Z</time>
      </trkpt>
      <trkpt lat="43.762685" lon="-7.863775">
        <ele>156.442</ele>
        <time>2016-09-26T07:06:49Z</time>
      </trkpt>
      <trkpt lat="43.762698" lon="-7.863763">
        <ele>156.680</ele>
        <time>2016-09-26T07:06:50Z</time>
      </trkpt>
      <trkpt lat="43.762713" lon="-7.863751">
        <ele>156.893</ele>
        <time>2016-09-26T07:06:51Z</time>
      </trkpt>
      <trkpt lat="43.762725" lon="-7.863733">
        <ele>156.965</ele>
        <time>2016-09-26T07:06:52Z</time>
      </trkpt>
      <trkpt lat="43.762734" lon="-7.863719">
        <ele>157.121</ele>
        <time>2016-09-26T07:06:53Z</time>
      </trkpt>
      <trkpt lat="43.762747" lon="-7.863702">
        <ele>157.108</ele>
        <time>2016-09-26T07:06:54Z</time>
      </trkpt>
      <trkpt lat="43.762767" lon="-7.863686">
        <ele>157.440</ele>
        <time>2016-09-26T07:06:55Z</time>
      </trkpt>
      <trkpt lat="43.762784" lon="-7.863670">
        <ele>157.775</ele>
        <time>2016-09-26T07:06:56Z</time>
      </trkpt>
      <trkpt lat="43.762800" lon="-7.863656">
        <ele>157.993</ele>
        <time>2016-09-26T07:06:57Z</time>
      </trkpt>
      <trkpt lat="43.762818" lon="-7.863641">
        <ele>158.179</ele>
        <time>2016-09-26T07:06:58Z</time>
      </trkpt>
      <trkpt lat="43.762832" lon="-7.863627">
        <ele>158.143</ele>
        <time>2016-09-26T07:06:59Z</time>
      </trkpt>
      <trkpt lat="43.762844" lon="-7.863614">
        <ele>158.395</ele>
        <time>2016-09-26T07:07:00Z</time>
      </trkpt>
      <trkpt lat="43.762859" lon="-7.863602">
        <ele>158.698</ele>
        <time>2016-09-26T07:07:01Z</time>
      </trkpt>
      <trkpt lat="43.762874" lon="-7.863586">
        <ele>158.716</ele>
        <time>2016-09-26T07:07:02Z</time>
      </trkpt>
      <trkpt lat="43.762889" lon="-7.863575">
        <ele>158.618</ele>
        <time>2016-09-26T07:07:03Z</time>
      </trkpt>
      <trkpt lat="43.762910" lon="-7.863565">
        <ele>158.798</ele>
        <time>2016-09-26T07:07:04Z</time>
      </trkpt>
      <trkpt lat="43.762933" lon="-7.863558">
        <ele>158.817</ele>
        <time>2016-09-26T07:07:05Z</time>
      </trkpt>
      <trkpt lat="43.762956" lon="-7.863548">
        <ele>159.008</ele>
        <time>2016-09-26T07:07:06Z</time>
      </trkpt>
      <trkpt lat="43.762977" lon="-7.863534">
        <ele>159.122</ele>
        <time>2016-09-26T07:07:07Z</time>
      </trkpt>
      <trkpt lat="43.762998" lon="-7.863525">
        <ele>159.147</ele>
        <time>2016-09-26T07:07:08Z</time>
      </trkpt>
      <trkpt lat="43.763016" lon="-7.863513">
        <ele>159.065</ele>
        <time>2016-09-26T07:07:09Z</time>
      </trkpt>
      <trkpt lat="43.763040" lon="-7.863508">
        <ele>159.281</ele>
        <time>2016-09-26T07:07:10Z</time>
      </trkpt>
      <trkpt lat="43.763064" lon="-7.863505">
        <ele>159.155</ele>
        <time>2016-09-26T07:07:11Z</time>
      </trkpt>
      <trkpt lat="43.763086" lon="-7.863503">
        <ele>159.137</ele>
        <time>2016-09-26T07:07:12Z</time>
      </trkpt>
      <trkpt lat="43.763103" lon="-7.863500">
        <ele>159.140</ele>
        <time>2016-09-26T07:07:13Z</time>
      </trkpt>
      <trkpt lat="43.763119" lon="-7.863497">
        <ele>159.138</ele>
        <time>2016-09-26T07:07:14Z</time>
      </trkpt>
      <trkpt lat="43.763131" lon="-7.863496">
        <ele>159.294</ele>
        <time>2016-09-26T07:07:15Z</time>
      </trkpt>
      <trkpt lat="43.763139" lon="-7.863495">
        <ele>159.357</ele>
        <time>2016-09-26T07:07:16Z</time>
      </trkpt>
      <trkpt lat="43.763154" lon="-7.863493">
        <ele>159.422</ele>
        <time>2016-09-26T07:07:17Z</time>
      </trkpt>
      <trkpt lat="43.763171" lon="-7.863492">
        <ele>159.608</ele>
        <time>2016-09-26T07:07:18Z</time>
      </trkpt>
      <trkpt lat="43.763190" lon="-7.863490">
        <ele>159.860</ele>
        <time>2016-09-26T07:07:19Z</time>
      </trkpt>
      <trkpt lat="43.763206" lon="-7.863493">
        <ele>159.955</ele>
        <time>2016-09-26T07:07:20Z</time>
      </trkpt>
      <trkpt lat="43.763222" lon="-7.863499">
        <ele>160.083</ele>
        <time>2016-09-26T07:07:21Z</time>
      </trkpt>
      <trkpt lat="43.763242" lon="-7.863510">
        <ele>160.269</ele>
        <time>2016-09-26T07:07:22Z</time>
      </trkpt>
      <trkpt lat="43.763262" lon="-7.863523">
        <ele>160.353</ele>
        <time>2016-09-26T07:07:23Z</time>
      </trkpt>
      <trkpt lat="43.763280" lon="-7.863533">
        <ele>160.595</ele>
        <time>2016-09-26T07:07:24Z</time>
      </trkpt>
      <trkpt lat="43.763298" lon="-7.863538">
        <ele>160.768</ele>
        <time>2016-09-26T07:07:25Z</time>
      </trkpt>
      <trkpt lat="43.763323" lon="-7.863542">
        <ele>160.986</ele>
        <time>2016-09-26T07:07:26Z</time>
      </trkpt>
      <trkpt lat="43.763347" lon="-7.863549">
        <ele>161.113</ele>
        <time>2016-09-26T07:07:27Z</time>
      </trkpt>
      <trkpt lat="43.763373" lon="-7.863557">
        <ele>161.143</ele>
        <time>2016-09-26T07:07:28Z</time>
      </trkpt>
      <trkpt lat="43.763396" lon="-7.863557">
        <ele>161.307</ele>
        <time>2016-09-26T07:07:29Z</time>
      </trkpt>
      <trkpt lat="43.763416" lon="-7.863558">
        <ele>161.408</ele>
        <time>2016-09-26T07:07:30Z</time>
      </trkpt>
      <trkpt lat="43.763437" lon="-7.863560">
        <ele>161.652</ele>
        <time>2016-09-26T07:07:31Z</time>
      </trkpt>
      <trkpt lat="43.763456" lon="-7.863561">
        <ele>161.857</ele>
        <time>2016-09-26T07:07:32Z</time>
      </trkpt>
      <trkpt lat="43.763474" lon="-7.863565">
        <ele>162.255</ele>
        <time>2016-09-26T07:07:33Z</time>
      </trkpt>
      <trkpt lat="43.763488" lon="-7.863575">
        <ele>162.511</ele>
        <time>2016-09-26T07:07:34Z</time>
      </trkpt>
      <trkpt lat="43.763504" lon="-7.863582">
        <ele>162.765</ele>
        <time>2016-09-26T07:07:35Z</time>
      </trkpt>
      <trkpt lat="43.763525" lon="-7.863589">
        <ele>162.987</ele>
        <time>2016-09-26T07:07:36Z</time>
      </trkpt>
      <trkpt lat="43.763547" lon="-7.863597">
        <ele>163.150</ele>
        <time>2016-09-26T07:07:37Z</time>
      </trkpt>
      <trkpt lat="43.763568" lon="-7.863609">
        <ele>163.248</ele>
        <time>2016-09-26T07:07:38Z</time>
      </trkpt>
      <trkpt lat="43.763584" lon="-7.863621">
        <ele>163.472</ele>
        <time>2016-09-26T07:07:39Z</time>
      </trkpt>
      <trkpt lat="43.763598" lon="-7.863633">
        <ele>163.613</ele>
        <time>2016-09-26T07:07:40Z</time>
      </trkpt>
      <trkpt lat="43.763616" lon="-7.863644">
        <ele>163.814</ele>
        <time>2016-09-26T07:07:41Z</time>
      </trkpt>
      <trkpt lat="43.763637" lon="-7.863659">
        <ele>164.108</ele>
        <time>2016-09-26T07:07:42Z</time>
      </trkpt>
      <trkpt lat="43.763659" lon="-7.863670">
        <ele>164.258</ele>
        <time>2016-09-26T07:07:43Z</time>
      </trkpt>
      <trkpt lat="43.763679" lon="-7.863678">
        <ele>164.453</ele>
        <time>2016-09-26T07:07:44Z</time>
      </trkpt>
      <trkpt lat="43.763694" lon="-7.863688">
        <ele>164.671</ele>
        <time>2016-09-26T07:07:45Z</time>
      </trkpt>
      <trkpt lat="43.763707" lon="-7.863702">
        <ele>164.727</ele>
        <time>2016-09-26T07:07:46Z</time>
      </trkpt>
      <trkpt lat="43.763720" lon="-7.863720">
        <ele>164.981</ele>
        <time>2016-09-26T07:07:47Z</time>
      </trkpt>
      <trkpt lat="43.763735" lon="-7.863733">
        <ele>165.073</ele>
        <time>2016-09-26T07:07:48Z</time>
      </trkpt>
      <trkpt lat="43.763750" lon="-7.863745">
        <ele>165.046</ele>
        <time>2016-09-26T07:07:49Z</time>
      </trkpt>
      <trkpt lat="43.763763" lon="-7.863755">
        <ele>165.094</ele>
        <time>2016-09-26T07:07:50Z</time>
      </trkpt>
      <trkpt lat="43.763782" lon="-7.863766">
        <ele>165.025</ele>
        <time>2016-09-26T07:07:51Z</time>
      </trkpt>
      <trkpt lat="43.763798" lon="-7.863778">
        <ele>165.226</ele>
        <time>2016-09-26T07:07:52Z</time>
      </trkpt>
      <trkpt lat="43.763813" lon="-7.863790">
        <ele>165.508</ele>
        <time>2016-09-26T07:07:53Z</time>
      </trkpt>
      <trkpt lat="43.763828" lon="-7.863802">
        <ele>165.608</ele>
        <time>2016-09-26T07:07:54Z</time>
      </trkpt>
      <trkpt lat="43.763842" lon="-7.863815">
        <ele>165.843</ele>
        <time>2016-09-26T07:07:55Z</time>
      </trkpt>
      <trkpt lat="43.763859" lon="-7.863833">
        <ele>165.918</ele>
        <time>2016-09-26T07:07:56Z</time>
      </trkpt>
      <trkpt lat="43.763874" lon="-7.863848">
        <ele>166.116</ele>
        <time>2016-09-26T07:07:57Z</time>
      </trkpt>
      <trkpt lat="43.763888" lon="-7.863860">
        <ele>166.492</ele>
        <time>2016-09-26T07:07:58Z</time>
      </trkpt>
      <trkpt lat="43.763904" lon="-7.863872">
        <ele>166.716</ele>
        <time>2016-09-26T07:07:59Z</time>
      </trkpt>
      <trkpt lat="43.763920" lon="-7.863888">
        <ele>167.098</ele>
        <time>2016-09-26T07:08:00Z</time>
      </trkpt>
      <trkpt lat="43.763935" lon="-7.863903">
        <ele>167.151</ele>
        <time>2016-09-26T07:08:01Z</time>
      </trkpt>
      <trkpt lat="43.763949" lon="-7.863916">
        <ele>167.219</ele>
        <time>2016-09-26T07:08:02Z</time>
      </trkpt>
      <trkpt lat="43.763963" lon="-7.863931">
        <ele>167.543</ele>
        <time>2016-09-26T07:08:03Z</time>
      </trkpt>
      <trkpt lat="43.763980" lon="-7.863944">
        <ele>167.664</ele>
        <time>2016-09-26T07:08:04Z</time>
      </trkpt>
      <trkpt lat="43.763996" lon="-7.863955">
        <ele>167.710</ele>
        <time>2016-09-26T07:08:05Z</time>
      </trkpt>
      <trkpt lat="43.764013" lon="-7.863970">
        <ele>167.808</ele>
        <time>2016-09-26T07:08:06Z</time>
      </trkpt>
      <trkpt lat="43.764028" lon="-7.863987">
        <ele>168.145</ele>
        <time>2016-09-26T07:08:07Z</time>
      </trkpt>
      <trkpt lat="43.764046" lon="-7.864010">
        <ele>168.280</ele>
        <time>2016-09-26T07:08:08Z</time>
      </trkpt>
      <trkpt lat="43.764060" lon="-7.864027">
        <ele>168.758</ele>
        <time>2016-09-26T07:08:09Z</time>
      </trkpt>
      <trkpt lat="43.764078" lon="-7.864049">
        <ele>168.944</ele>
        <time>2016-09-26T07:08:10Z</time>
      </trkpt>
      <trkpt lat="43.764091" lon="-7.864066">
        <ele>169.328</ele>
        <time>2016-09-26T07:08:11Z</time>
      </trkpt>
      <trkpt lat="43.764109" lon="-7.864086">
        <ele>169.730</ele>
        <time>2016-09-26T07:08:12Z</time>
      </trkpt>
      <trkpt lat="43.764126" lon="-7.864097">
        <ele>169.763</ele>
        <time>2016-09-26T07:08:13Z</time>
      </trkpt>
      <trkpt lat="43.764143" lon="-7.864107">
        <ele>170.171</ele>
        <time>2016-09-26T07:08:14Z</time>
      </trkpt>
      <trkpt lat="43.764159" lon="-7.864116">
        <ele>170.436</ele>
        <time>2016-09-26T07:08:15Z</time>
      </trkpt>
      <trkpt lat="43.764171" lon="-7.864129">
        <ele>170.517</ele>
        <time>2016-09-26T07:08:16Z</time>
      </trkpt>
      <trkpt lat="43.764186" lon="-7.864144">
        <ele>170.918</ele>
        <time>2016-09-26T07:08:17Z</time>
      </trkpt>
      <trkpt lat="43.764199" lon="-7.864158">
        <ele>171.308</ele>
        <time>2016-09-26T07:08:18Z</time>
      </trkpt>
      <trkpt lat="43.764208" lon="-7.864176">
        <ele>171.644</ele>
        <time>2016-09-26T07:08:19Z</time>
      </trkpt>
      <trkpt lat="43.764219" lon="-7.864193">
        <ele>171.969</ele>
        <time>2016-09-26T07:08:20Z</time>
      </trkpt>
      <trkpt lat="43.764230" lon="-7.864209">
        <ele>172.187</ele>
        <time>2016-09-26T07:08:21Z</time>
      </trkpt>
      <trkpt lat="43.764240" lon="-7.864222">
        <ele>172.173</ele>
        <time>2016-09-26T07:08:22Z</time>
      </trkpt>
      <trkpt lat="43.764248" lon="-7.864236">
        <ele>172.487</ele>
        <time>2016-09-26T07:08:23Z</time>
      </trkpt>
      <trkpt lat="43.764258" lon="-7.864253">
        <ele>172.629</ele>
        <time>2016-09-26T07:08:24Z</time>
      </trkpt>
      <trkpt lat="43.764269" lon="-7.864270">
        <ele>172.842</ele>
        <time>2016-09-26T07:08:25Z</time>
      </trkpt>
      <trkpt lat="43.764280" lon="-7.864287">
        <ele>173.080</ele>
        <time>2016-09-26T07:08:26Z</time>
      </trkpt>
      <trkpt lat="43.764286" lon="-7.864309">
        <ele>173.197</ele>
        <time>2016-09-26T07:08:27Z</time>
      </trkpt>
      <trkpt lat="43.764290" lon="-7.864332">
        <ele>173.423</ele>
        <time>2016-09-26T07:08:28Z</time>
      </trkpt>
      <trkpt lat="43.764297" lon="-7.864353">
        <ele>173.625</ele>
        <time>2016-09-26T07:08:29Z</time>
      </trkpt>
      <trkpt lat="43.764309" lon="-7.864373">
        <ele>173.908</ele>
        <time>2016-09-26T07:08:30Z</time>
      </trkpt>
      <trkpt lat="43.764319" lon="-7.864396">
        <ele>174.050</ele>
        <time>2016-09-26T07:08:31Z</time>
      </trkpt>
      <trkpt lat="43.764328" lon="-7.864420">
        <ele>174.255</ele>
        <time>2016-09-26T07:08:32Z</time>
      </trkpt>
      <trkpt lat="43.764336" lon="-7.864443">
        <ele>174.363</ele>
        <time>2016-09-26T07:08:33Z</time>
      </trkpt>
      <trkpt lat="43.764339" lon="-7.864468">
        <ele>174.399</ele>
        <time>2016-09-26T07:08:34Z</time>
      </trkpt>
      <trkpt lat="43.764344" lon="-7.864491">
        <ele>174.363</ele>
        <time>2016-09-26T07:08:35Z</time>
      </trkpt>
      <trkpt lat="43.764355" lon="-7.864509">
        <ele>174.235</ele>
        <time>2016-09-26T07:08:36Z</time>
      </trkpt>
      <trkpt lat="43.764365" lon="-7.864528">
        <ele>174.338</ele>
        <time>2016-09-26T07:08:37Z</time>
      </trkpt>
      <trkpt lat="43.764370" lon="-7.864553">
        <ele>174.556</ele>
        <time>2016-09-26T07:08:38Z</time>
      </trkpt>
      <trkpt lat="43.764379" lon="-7.864576">
        <ele>174.659</ele>
        <time>2016-09-26T07:08:39Z</time>
      </trkpt>
      <trkpt lat="43.764387" lon="-7.864600">
        <ele>174.703</ele>
        <time>2016-09-26T07:08:40Z</time>
      </trkpt>
      <trkpt lat="43.764394" lon="-7.864623">
        <ele>174.823</ele>
        <time>2016-09-26T07:08:41Z</time>
      </trkpt>
      <trkpt lat="43.764397" lon="-7.864647">
        <ele>174.908</ele>
        <time>2016-09-26T07:08:42Z</time>
      </trkpt>
      <trkpt lat="43.764397" lon="-7.864674">
        <ele>175.186</ele>
        <time>2016-09-26T07:08:43Z</time>
      </trkpt>
      <trkpt lat="43.764403" lon="-7.864698">
        <ele>175.221</ele>
        <time>2016-09-26T07:08:44Z</time>
      </trkpt>
      <trkpt lat="43.764405" lon="-7.864722">
        <ele>175.419</ele>
        <time>2016-09-26T07:08:45Z</time>
      </trkpt>
      <trkpt lat="43.764414" lon="-7.864743">
        <ele>175.565</ele>
        <time>2016-09-26T07:08:46Z</time>
      </trkpt>
      <trkpt lat="43.764424" lon="-7.864766">
        <ele>175.639</ele>
        <time>2016-09-26T07:08:47Z</time>
      </trkpt>
      <trkpt lat="43.764435" lon="-7.864786">
        <ele>175.811</ele>
        <time>2016-09-26T07:08:48Z</time>
      </trkpt>
      <trkpt lat="43.764444" lon="-7.864804">
        <ele>176.094</ele>
        <time>2016-09-26T07:08:49Z</time>
      </trkpt>
      <trkpt lat="43.764450" lon="-7.864827">
        <ele>176.222</ele>
        <time>2016-09-26T07:08:50Z</time>
      </trkpt>
      <trkpt lat="43.764458" lon="-7.864850">
        <ele>176.263</ele>
        <time>2016-09-26T07:08:51Z</time>
      </trkpt>
      <trkpt lat="43.764468" lon="-7.864873">
        <ele>176.344</ele>
        <time>2016-09-26T07:08:52Z</time>
      </trkpt>
      <trkpt lat="43.764479" lon="-7.864893">
        <ele>176.418</ele>
        <time>2016-09-26T07:08:53Z</time>
      </trkpt>
      <trkpt lat="43.764489" lon="-7.864914">
        <ele>176.608</ele>
        <time>2016-09-26T07:08:54Z</time>
      </trkpt>
      <trkpt lat="43.764500" lon="-7.864934">
        <ele>176.827</ele>
        <time>2016-09-26T07:08:55Z</time>
      </trkpt>
      <trkpt lat="43.764517" lon="-7.864952">
        <ele>176.942</ele>
        <time>2016-09-26T07:08:56Z</time>
      </trkpt>
      <trkpt lat="43.764533" lon="-7.864971">
        <ele>177.380</ele>
        <time>2016-09-26T07:08:57Z</time>
      </trkpt>
      <trkpt lat="43.764547" lon="-7.864989">
        <ele>177.566</ele>
        <time>2016-09-26T07:08:58Z</time>
      </trkpt>
      <trkpt lat="43.764559" lon="-7.865007">
        <ele>177.760</ele>
        <time>2016-09-26T07:08:59Z</time>
      </trkpt>
      <trkpt lat="43.764574" lon="-7.865023">
        <ele>177.892</ele>
        <time>2016-09-26T07:09:00Z</time>
      </trkpt>
      <trkpt lat="43.764590" lon="-7.865037">
        <ele>178.045</ele>
        <time>2016-09-26T07:09:01Z</time>
      </trkpt>
      <trkpt lat="43.764603" lon="-7.865054">
        <ele>178.153</ele>
        <time>2016-09-26T07:09:02Z</time>
      </trkpt>
      <trkpt lat="43.764618" lon="-7.865070">
        <ele>178.245</ele>
        <time>2016-09-26T07:09:03Z</time>
      </trkpt>
      <trkpt lat="43.764631" lon="-7.865087">
        <ele>178.447</ele>
        <time>2016-09-26T07:09:04Z</time>
      </trkpt>
      <trkpt lat="43.764645" lon="-7.865103">
        <ele>178.511</ele>
        <time>2016-09-26T07:09:05Z</time>
      </trkpt>
      <trkpt lat="43.764657" lon="-7.865119">
        <ele>178.608</ele>
        <time>2016-09-26T07:09:06Z</time>
      </trkpt>
      <trkpt lat="43.764669" lon="-7.865136">
        <ele>178.715</ele>
        <time>2016-09-26T07:09:07Z</time>
      </trkpt>
      <trkpt lat="43.764681" lon="-7.865152">
        <ele>178.920</ele>
        <time>2016-09-26T07:09:08Z</time>
      </trkpt>
      <trkpt lat="43.764694" lon="-7.865166">
        <ele>179.258</ele>
        <time>2016-09-26T07:09:09Z</time>
      </trkpt>
      <trkpt lat="43.764709" lon="-7.865181">
        <ele>179.354</ele>
        <time>2016-09-26T07:09:10Z</time>
      </trkpt>
      <trkpt lat="43.764722" lon="-7.865197">
        <ele>179.588</ele>
        <time>2016-09-26T07:09:11Z</time>
      </trkpt>
      <trkpt lat="43.764737" lon="-7.865213">
        <ele>179.670</ele>
        <time>2016-09-26T07:09:12Z</time>
      </trkpt>
      <trkpt lat="43.764751" lon="-7.865230">
        <ele>179.643</ele>
        <time>2016-09-26T07:09:13Z</time>
      </trkpt>
      <trkpt lat="43.764763" lon="-7.865248">
        <ele>179.731</ele>
        <time>2016-09-26T07:09:14Z</time>
      </trkpt>
      <trkpt lat="43.764776" lon="-7.865267">
        <ele>179.953</ele>
        <time>2016-09-26T07:09:15Z</time>
      </trkpt>
      <trkpt lat="43.764788" lon="-7.865284">
        <ele>179.804</ele>
        <time>2016-09-26T07:09:16Z</time>
      </trkpt>
      <trkpt lat="43.764799" lon="-7.865298">
        <ele>179.814</ele>
        <time>2016-09-26T07:09:17Z</time>
      </trkpt>
      <trkpt lat="43.764812" lon="-7.865313">
        <ele>180.008</ele>
        <time>2016-09-26T07:09:18Z</time>
      </trkpt>
      <trkpt lat="43.764822" lon="-7.865333">
        <ele>180.566</ele>
        <time>2016-09-26T07:09:19Z</time>
      </trkpt>
      <trkpt lat="43.764832" lon="-7.865354">
        <ele>180.621</ele>
        <time>2016-09-26T07:09:20Z</time>
      </trkpt>
      <trkpt lat="43.764842" lon="-7.865375">
        <ele>180.759</ele>
        <time>2016-09-26T07:09:21Z</time>
      </trkpt>
      <trkpt lat="43.764852" lon="-7.865397">
        <ele>180.875</ele>
        <time>2016-09-26T07:09:22Z</time>
      </trkpt>
      <trkpt lat="43.764862" lon="-7.865419">
        <ele>180.859</ele>
        <time>2016-09-26T07:09:23Z</time>
      </trkpt>
      <trkpt lat="43.764872" lon="-7.865439">
        <ele>180.911</ele>
        <time>2016-09-26T07:09:24Z</time>
      </trkpt>
      <trkpt lat="43.764883" lon="-7.865460">
        <ele>181.034</ele>
        <time>2016-09-26T07:09:25Z</time>
      </trkpt>
      <trkpt lat="43.764894" lon="-7.865479">
        <ele>181.182</ele>
        <time>2016-09-26T07:09:26Z</time>
      </trkpt>
      <trkpt lat="43.764906" lon="-7.865499">
        <ele>181.381</ele>
        <time>2016-09-26T07:09:27Z</time>
      </trkpt>
      <trkpt lat="43.764920" lon="-7.865518">
        <ele>181.661</ele>
        <time>2016-09-26T07:09:28Z</time>
      </trkpt>
      <trkpt lat="43.764933" lon="-7.865537">
        <ele>181.617</ele>
        <time>2016-09-26T07:09:29Z</time>
      </trkpt>
      <trkpt lat="43.764945" lon="-7.865560">
        <ele>181.708</ele>
        <time>2016-09-26T07:09:30Z</time>
      </trkpt>
      <trkpt lat="43.764956" lon="-7.865584">
        <ele>181.859</ele>
        <time>2016-09-26T07:09:31Z</time>
      </trkpt>
      <trkpt lat="43.764968" lon="-7.865599">
        <ele>181.924</ele>
        <time>2016-09-26T07:09:32Z</time>
      </trkpt>
      <trkpt lat="43.764980" lon="-7.865618">
        <ele>182.032</ele>
        <time>2016-09-26T07:09:33Z</time>
      </trkpt>
      <trkpt lat="43.764993" lon="-7.865638">
        <ele>182.288</ele>
        <time>2016-09-26T07:09:34Z</time>
      </trkpt>
      <trkpt lat="43.765006" lon="-7.865657">
        <ele>182.312</ele>
        <time>2016-09-26T07:09:35Z</time>
      </trkpt>
      <trkpt lat="43.765019" lon="-7.865674">
        <ele>182.434</ele>
        <time>2016-09-26T07:09:36Z</time>
      </trkpt>
      <trkpt lat="43.765032" lon="-7.865691">
        <ele>182.597</ele>
        <time>2016-09-26T07:09:37Z</time>
      </trkpt>
      <trkpt lat="43.765045" lon="-7.865706">
        <ele>182.695</ele>
        <time>2016-09-26T07:09:38Z</time>
      </trkpt>
      <trkpt lat="43.765058" lon="-7.865720">
        <ele>182.662</ele>
        <time>2016-09-26T07:09:39Z</time>
      </trkpt>
      <trkpt lat="43.765072" lon="-7.865733">
        <ele>182.883</ele>
        <time>2016-09-26T07:09:40Z</time>
      </trkpt>
      <trkpt lat="43.765088" lon="-7.865747">
        <ele>182.811</ele>
        <time>2016-09-26T07:09:41Z</time>
      </trkpt>
      <trkpt lat="43.765104" lon="-7.865756">
        <ele>182.808</ele>
        <time>2016-09-26T07:09:42Z</time>
      </trkpt>
      <trkpt lat="43.765123" lon="-7.865766">
        <ele>183.097</ele>
        <time>2016-09-26T07:09:43Z</time>
      </trkpt>
      <trkpt lat="43.765142" lon="-7.865780">
        <ele>182.942</ele>
        <time>2016-09-26T07:09:44Z</time>
      </trkpt>
      <trkpt lat="43.765161" lon="-7.865788">
        <ele>183.080</ele>
        <time>2016-09-26T07:09:45Z</time>
      </trkpt>
      <trkpt lat="43.765185" lon="-7.865787">
        <ele>183.266</ele>
        <time>2016-09-26T07:09:46Z</time>
      </trkpt>
      <trkpt lat="43.765211" lon="-7.865784">
        <ele>183.320</ele>
        <time>2016-09-26T07:09:47Z</time>
      </trkpt>
      <trkpt lat="43.765232" lon="-7.865781">
        <ele>183.392</ele>
        <time>2016-09-26T07:09:48Z</time>
      </trkpt>
      <trkpt lat="43.765248" lon="-7.865789">
        <ele>183.675</ele>
        <time>2016-09-26T07:09:49Z</time>
      </trkpt>
      <trkpt lat="43.765265" lon="-7.865802">
        <ele>183.593</ele>
        <time>2016-09-26T07:09:50Z</time>
      </trkpt>
      <trkpt lat="43.765279" lon="-7.865817">
        <ele>183.652</ele>
        <time>2016-09-26T07:09:51Z</time>
      </trkpt>
      <trkpt lat="43.765291" lon="-7.865835">
        <ele>183.653</ele>
        <time>2016-09-26T07:09:52Z</time>
      </trkpt>
      <trkpt lat="43.765302" lon="-7.865852">
        <ele>183.708</ele>
        <time>2016-09-26T07:09:53Z</time>
      </trkpt>
      <trkpt lat="43.765313" lon="-7.865865">
        <ele>183.808</ele>
        <time>2016-09-26T07:09:54Z</time>
      </trkpt>
      <trkpt lat="43.765324" lon="-7.865877">
        <ele>183.826</ele>
        <time>2016-09-26T07:09:55Z</time>
      </trkpt>
      <trkpt lat="43.765332" lon="-7.865888">
        <ele>183.871</ele>
        <time>2016-09-26T07:09:56Z</time>
      </trkpt>
      <trkpt lat="43.765338" lon="-7.865899">
        <ele>183.879</ele>
        <time>2016-09-26T07:09:57Z</time>
      </trkpt>
      <trkpt lat="43.765336" lon="-7.865902">
        <ele>183.875</ele>
        <time>2016-09-26T07:09:58Z</time>
      </trkpt>
      <trkpt lat="43.765331" lon="-7.865903">
        <ele>183.899</ele>
        <time>2016-09-26T07:09:59Z</time>
      </trkpt>
      <trkpt lat="43.765327" lon="-7.865905">
        <ele>183.781</ele>
        <time>2016-09-26T07:10:00Z</time>
      </trkpt>
      <trkpt lat="43.765322" lon="-7.865908">
        <ele>183.874</ele>
        <time>2016-09-26T07:10:01Z</time>
      </trkpt>
      <trkpt lat="43.765322" lon="-7.865908">
        <ele>183.892</ele>
        <time>2016-09-26T07:10:01Z</time>
      </trkpt>
      <trkpt lat="43.765322" lon="-7.865908">
        <ele>183.858</ele>
        <time>2016-09-26T07:10:01Z</time>
      </trkpt>
      <trkpt lat="43.765200" lon="-7.865908">
        <ele>184.252</ele>
        <time>2016-09-26T07:15:22Z</time>
      </trkpt>
      <trkpt lat="43.765199" lon="-7.865909">
        <ele>184.217</ele>
        <time>2016-09-26T07:15:23Z</time>
      </trkpt>
      <trkpt lat="43.765197" lon="-7.865911">
        <ele>184.108</ele>
        <time>2016-09-26T07:15:24Z</time>
      </trkpt>
      <trkpt lat="43.765196" lon="-7.865911">
        <ele>184.286</ele>
        <time>2016-09-26T07:15:25Z</time>
      </trkpt>
      <trkpt lat="43.765196" lon="-7.865911">
        <ele>184.251</ele>
        <time>2016-09-26T07:15:25Z</time>
      </trkpt>
      <trkpt lat="43.765196" lon="-7.865911">
        <ele>184.229</ele>
        <time>2016-09-26T07:15:25Z</time>
      </trkpt>
      <trkpt lat="43.765142" lon="-7.865902">
        <ele>184.735</ele>
        <time>2016-09-26T07:15:34Z</time>
      </trkpt>
      <trkpt lat="43.765133" lon="-7.865896">
        <ele>184.729</ele>
        <time>2016-09-26T07:15:35Z</time>
      </trkpt>
      <trkpt lat="43.765122" lon="-7.865888">
        <ele>184.891</ele>
        <time>2016-09-26T07:15:36Z</time>
      </trkpt>
      <trkpt lat="43.765113" lon="-7.865881">
        <ele>184.914</ele>
        <time>2016-09-26T07:15:37Z</time>
      </trkpt>
      <trkpt lat="43.765104" lon="-7.865873">
        <ele>185.172</ele>
        <time>2016-09-26T07:15:38Z</time>
      </trkpt>
      <trkpt lat="43.765095" lon="-7.865865">
        <ele>185.465</ele>
        <time>2016-09-26T07:15:39Z</time>
      </trkpt>
      <trkpt lat="43.765085" lon="-7.865858">
        <ele>185.768</ele>
        <time>2016-09-26T07:15:40Z</time>
      </trkpt>
      <trkpt lat="43.765076" lon="-7.865850">
        <ele>185.714</ele>
        <time>2016-09-26T07:15:41Z</time>
      </trkpt>
      <trkpt lat="43.765067" lon="-7.865843">
        <ele>186.008</ele>
        <time>2016-09-26T07:15:42Z</time>
      </trkpt>
      <trkpt lat="43.765058" lon="-7.865834">
        <ele>186.177</ele>
        <time>2016-09-26T07:15:43Z</time>
      </trkpt>
      <trkpt lat="43.765048" lon="-7.865826">
        <ele>186.332</ele>
        <time>2016-09-26T07:15:44Z</time>
      </trkpt>
      <trkpt lat="43.765039" lon="-7.865819">
        <ele>186.680</ele>
        <time>2016-09-26T07:15:45Z</time>
      </trkpt>
      <trkpt lat="43.765029" lon="-7.865813">
        <ele>186.866</ele>
        <time>2016-09-26T07:15:46Z</time>
      </trkpt>
      <trkpt lat="43.765019" lon="-7.865807">
        <ele>187.070</ele>
        <time>2016-09-26T07:15:47Z</time>
      </trkpt>
      <trkpt lat="43.765008" lon="-7.865802">
        <ele>186.962</ele>
        <time>2016-09-26T07:15:48Z</time>
      </trkpt>
      <trkpt lat="43.765001" lon="-7.865797">
        <ele>187.185</ele>
        <time>2016-09-26T07:15:49Z</time>
      </trkpt>
      <trkpt lat="43.764993" lon="-7.865792">
        <ele>187.443</ele>
        <time>2016-09-26T07:15:50Z</time>
      </trkpt>
      <trkpt lat="43.764985" lon="-7.865785">
        <ele>187.432</ele>
        <time>2016-09-26T07:15:51Z</time>
      </trkpt>
      <trkpt lat="43.764976" lon="-7.865778">
        <ele>187.792</ele>
        <time>2016-09-26T07:15:52Z</time>
      </trkpt>
      <trkpt lat="43.764967" lon="-7.865772">
        <ele>187.911</ele>
        <time>2016-09-26T07:15:53Z</time>
      </trkpt>
      <trkpt lat="43.764960" lon="-7.865766">
        <ele>188.208</ele>
        <time>2016-09-26T07:15:54Z</time>
      </trkpt>
      <trkpt lat="43.764954" lon="-7.865760">
        <ele>188.284</ele>
        <time>2016-09-26T07:15:55Z</time>
      </trkpt>
      <trkpt lat="43.764947" lon="-7.865755">
        <ele>188.349</ele>
        <time>2016-09-26T07:15:56Z</time>
      </trkpt>
      <trkpt lat="43.764941" lon="-7.865749">
        <ele>188.387</ele>
        <time>2016-09-26T07:15:57Z</time>
      </trkpt>
      <trkpt lat="43.764934" lon="-7.865742">
        <ele>188.343</ele>
        <time>2016-09-26T07:15:58Z</time>
      </trkpt>
      <trkpt lat="43.764926" lon="-7.865735">
        <ele>188.767</ele>
        <time>2016-09-26T07:15:59Z</time>
      </trkpt>
      <trkpt lat="43.764921" lon="-7.865723">
        <ele>188.919</ele>
        <time>2016-09-26T07:16:00Z</time>
      </trkpt>
      <trkpt lat="43.764915" lon="-7.865715">
        <ele>189.142</ele>
        <time>2016-09-26T07:16:01Z</time>
      </trkpt>
      <trkpt lat="43.764905" lon="-7.865710">
        <ele>189.250</ele>
        <time>2016-09-26T07:16:02Z</time>
      </trkpt>
      <trkpt lat="43.764896" lon="-7.865705">
        <ele>189.388</ele>
        <time>2016-09-26T07:16:03Z</time>
      </trkpt>
      <trkpt lat="43.764888" lon="-7.865699">
        <ele>189.624</ele>
        <time>2016-09-26T07:16:04Z</time>
      </trkpt>
      <trkpt lat="43.764879" lon="-7.865692">
        <ele>189.726</ele>
        <time>2016-09-26T07:16:05Z</time>
      </trkpt>
      <trkpt lat="43.764871" lon="-7.865687">
        <ele>190.008</ele>
        <time>2016-09-26T07:16:06Z</time>
      </trkpt>
      <trkpt lat="43.764862" lon="-7.865683">
        <ele>190.149</ele>
        <time>2016-09-26T07:16:07Z</time>
      </trkpt>
      <trkpt lat="43.764854" lon="-7.865678">
        <ele>190.474</ele>
        <time>2016-09-26T07:16:08Z</time>
      </trkpt>
      <trkpt lat="43.764845" lon="-7.865674">
        <ele>190.552</ele>
        <time>2016-09-26T07:16:09Z</time>
      </trkpt>
      <trkpt lat="43.764835" lon="-7.865670">
        <ele>190.898</ele>
        <time>2016-09-26T07:16:10Z</time>
      </trkpt>
      <trkpt lat="43.764825" lon="-7.865666">
        <ele>191.132</ele>
        <time>2016-09-26T07:16:11Z</time>
      </trkpt>
      <trkpt lat="43.764815" lon="-7.865662">
        <ele>191.244</ele>
        <time>2016-09-26T07:16:12Z</time>
      </trkpt>
      <trkpt lat="43.764805" lon="-7.865658">
        <ele>191.447</ele>
        <time>2016-09-26T07:16:13Z</time>
      </trkpt>
      <trkpt lat="43.764794" lon="-7.865654">
        <ele>191.695</ele>
        <time>2016-09-26T07:16:14Z</time>
      </trkpt>
      <trkpt lat="43.764782" lon="-7.865648">
        <ele>191.693</ele>
        <time>2016-09-26T07:16:15Z</time>
      </trkpt>
      <trkpt lat="43.764772" lon="-7.865642">
        <ele>191.965</ele>
        <time>2016-09-26T07:16:16Z</time>
      </trkpt>
      <trkpt lat="43.764762" lon="-7.865637">
        <ele>192.121</ele>
        <time>2016-09-26T07:16:17Z</time>
      </trkpt>
      <trkpt lat="43.764753" lon="-7.865633">
        <ele>192.408</ele>
        <time>2016-09-26T07:16:18Z</time>
      </trkpt>
      <trkpt lat="43.764744" lon="-7.865629">
        <ele>192.520</ele>
        <time>2016-09-26T07:16:19Z</time>
      </trkpt>
      <trkpt lat="43.764733" lon="-7.865625">
        <ele>192.785</ele>
        <time>2016-09-26T07:16:20Z</time>
      </trkpt>
      <trkpt lat="43.764724" lon="-7.865619">
        <ele>192.933</ele>
        <time>2016-09-26T07:16:21Z</time>
      </trkpt>
      <trkpt lat="43.764715" lon="-7.865612">
        <ele>193.039</ele>
        <time>2016-09-26T07:16:22Z</time>
      </trkpt>
      <trkpt lat="43.764707" lon="-7.865604">
        <ele>193.093</ele>
        <time>2016-09-26T07:16:23Z</time>
      </trkpt>
      <trkpt lat="43.764699" lon="-7.865596">
        <ele>193.165</ele>
        <time>2016-09-26T07:16:24Z</time>
      </trkpt>
      <trkpt lat="43.764692" lon="-7.865590">
        <ele>193.048</ele>
        <time>2016-09-26T07:16:25Z</time>
      </trkpt>
      <trkpt lat="43.764684" lon="-7.865582">
        <ele>193.066</ele>
        <time>2016-09-26T07:16:26Z</time>
      </trkpt>
      <trkpt lat="43.764675" lon="-7.865581">
        <ele>193.273</ele>
        <time>2016-09-26T07:16:27Z</time>
      </trkpt>
      <trkpt lat="43.764666" lon="-7.865578">
        <ele>193.185</ele>
        <time>2016-09-26T07:16:28Z</time>
      </trkpt>
      <trkpt lat="43.764659" lon="-7.865575">
        <ele>193.313</ele>
        <time>2016-09-26T07:16:29Z</time>
      </trkpt>
      <trkpt lat="43.764649" lon="-7.865573">
        <ele>193.408</ele>
        <time>2016-09-26T07:16:30Z</time>
      </trkpt>
      <trkpt lat="43.764644" lon="-7.865573">
        <ele>193.468</ele>
        <time>2016-09-26T07:16:31Z</time>
      </trkpt>
      <trkpt lat="43.764643" lon="-7.865575">
        <ele>193.783</ele>
        <time>2016-09-26T07:16:32Z</time>
      </trkpt>
      <trkpt lat="43.764645" lon="-7.865576">
        <ele>193.841</ele>
        <time>2016-09-26T07:16:33Z</time>
      </trkpt>
      <trkpt lat="43.764645" lon="-7.865573">
        <ele>193.947</ele>
        <time>2016-09-26T07:16:34Z</time>
      </trkpt>
      <trkpt lat="43.764645" lon="-7.865574">
        <ele>193.721</ele>
        <time>2016-09-26T07:16:35Z</time>
      </trkpt>
      <trkpt lat="43.764645" lon="-7.865574">
        <ele>193.783</ele>
        <time>2016-09-26T07:16:35Z</time>
      </trkpt>
      <trkpt lat="43.764645" lon="-7.865574">
        <ele>193.796</ele>
        <time>2016-09-26T07:16:35Z</time>
      </trkpt>
      <trkpt lat="43.764577" lon="-7.865558">
        <ele>194.034</ele>
        <time>2016-09-26T07:16:48Z</time>
      </trkpt>
      <trkpt lat="43.764566" lon="-7.865554">
        <ele>194.444</ele>
        <time>2016-09-26T07:16:49Z</time>
      </trkpt>
      <trkpt lat="43.764553" lon="-7.865550">
        <ele>194.305</ele>
        <time>2016-09-26T07:16:50Z</time>
      </trkpt>
      <trkpt lat="43.764541" lon="-7.865545">
        <ele>194.415</ele>
        <time>2016-09-26T07:16:51Z</time>
      </trkpt>
      <trkpt lat="43.764532" lon="-7.865540">
        <ele>194.608</ele>
        <time>2016-09-26T07:16:52Z</time>
      </trkpt>
      <trkpt lat="43.764522" lon="-7.865535">
        <ele>194.895</ele>
        <time>2016-09-26T07:16:53Z</time>
      </trkpt>
      <trkpt lat="43.764511" lon="-7.865528">
        <ele>195.090</ele>
        <time>2016-09-26T07:16:54Z</time>
      </trkpt>
      <trkpt lat="43.764498" lon="-7.865527">
        <ele>195.138</ele>
        <time>2016-09-26T07:16:55Z</time>
      </trkpt>
      <trkpt lat="43.764487" lon="-7.865524">
        <ele>195.164</ele>
        <time>2016-09-26T07:16:56Z</time>
      </trkpt>
      <trkpt lat="43.764475" lon="-7.865521">
        <ele>195.198</ele>
        <time>2016-09-26T07:16:57Z</time>
      </trkpt>
      <trkpt lat="43.764462" lon="-7.865517">
        <ele>195.160</ele>
        <time>2016-09-26T07:16:58Z</time>
      </trkpt>
      <trkpt lat="43.764450" lon="-7.865514">
        <ele>195.193</ele>
        <time>2016-09-26T07:16:59Z</time>
      </trkpt>
      <trkpt lat="43.764441" lon="-7.865510">
        <ele>195.281</ele>
        <time>2016-09-26T07:17:00Z</time>
      </trkpt>
      <trkpt lat="43.764428" lon="-7.865507">
        <ele>195.264</ele>
        <time>2016-09-26T07:17:01Z</time>
      </trkpt>
      <trkpt lat="43.764421" lon="-7.865506">
        <ele>195.306</ele>
        <time>2016-09-26T07:17:02Z</time>
      </trkpt>
      <trkpt lat="43.764420" lon="-7.865506">
        <ele>195.516</ele>
        <time>2016-09-26T07:17:03Z</time>
      </trkpt>
      <trkpt lat="43.764412" lon="-7.865509">
        <ele>195.708</ele>
        <time>2016-09-26T07:17:04Z</time>
      </trkpt>
      <trkpt lat="43.764406" lon="-7.865505">
        <ele>195.777</ele>
        <time>2016-09-26T07:17:05Z</time>
      </trkpt>
      <trkpt lat="43.764397" lon="-7.865501">
        <ele>195.752</ele>
        <time>2016-09-26T07:17:06Z</time>
      </trkpt>
      <trkpt lat="43.764389" lon="-7.865499">
        <ele>195.620</ele>
        <time>2016-09-26T07:17:07Z</time>
      </trkpt>
      <trkpt lat="43.764377" lon="-7.865501">
        <ele>195.776</ele>
        <time>2016-09-26T07:17:08Z</time>
      </trkpt>
      <trkpt lat="43.764368" lon="-7.865500">
        <ele>195.890</ele>
        <time>2016-09-26T07:17:09Z</time>
      </trkpt>
      <trkpt lat="43.764359" lon="-7.865500">
        <ele>195.952</ele>
        <time>2016-09-26T07:17:10Z</time>
      </trkpt>
      <trkpt lat="43.764348" lon="-7.865500">
        <ele>196.085</ele>
        <time>2016-09-26T07:17:11Z</time>
      </trkpt>
      <trkpt lat="43.764337" lon="-7.865499">
        <ele>196.333</ele>
        <time>2016-09-26T07:17:12Z</time>
      </trkpt>
      <trkpt lat="43.764325" lon="-7.865497">
        <ele>196.343</ele>
        <time>2016-09-26T07:17:13Z</time>
      </trkpt>
      <trkpt lat="43.764315" lon="-7.865497">
        <ele>196.464</ele>
        <time>2016-09-26T07:17:14Z</time>
      </trkpt>
      <trkpt lat="43.764303" lon="-7.865497">
        <ele>196.510</ele>
        <time>2016-09-26T07:17:15Z</time>
      </trkpt>
      <trkpt lat="43.764291" lon="-7.865498">
        <ele>196.708</ele>
        <time>2016-09-26T07:17:16Z</time>
      </trkpt>
      <trkpt lat="43.764276" lon="-7.865502">
        <ele>196.965</ele>
        <time>2016-09-26T07:17:17Z</time>
      </trkpt>
      <trkpt lat="43.764259" lon="-7.865507">
        <ele>197.020</ele>
        <time>2016-09-26T07:17:18Z</time>
      </trkpt>
      <trkpt lat="43.764246" lon="-7.865508">
        <ele>197.228</ele>
        <time>2016-09-26T07:17:19Z</time>
      </trkpt>
      <trkpt lat="43.764232" lon="-7.865511">
        <ele>197.524</ele>
        <time>2016-09-26T07:17:20Z</time>
      </trkpt>
      <trkpt lat="43.764222" lon="-7.865511">
        <ele>197.738</ele>
        <time>2016-09-26T07:17:21Z</time>
      </trkpt>
      <trkpt lat="43.764210" lon="-7.865511">
        <ele>197.850</ele>
        <time>2016-09-26T07:17:22Z</time>
      </trkpt>
      <trkpt lat="43.764197" lon="-7.865514">
        <ele>197.773</ele>
        <time>2016-09-26T07:17:23Z</time>
      </trkpt>
      <trkpt lat="43.764184" lon="-7.865518">
        <ele>197.961</ele>
        <time>2016-09-26T07:17:24Z</time>
      </trkpt>
      <trkpt lat="43.764172" lon="-7.865520">
        <ele>197.869</ele>
        <time>2016-09-26T07:17:25Z</time>
      </trkpt>
      <trkpt lat="43.764161" lon="-7.865521">
        <ele>197.904</ele>
        <time>2016-09-26T07:17:26Z</time>
      </trkpt>
      <trkpt lat="43.764145" lon="-7.865522">
        <ele>198.024</ele>
        <time>2016-09-26T07:17:27Z</time>
      </trkpt>
      <trkpt lat="43.764136" lon="-7.865523">
        <ele>198.108</ele>
        <time>2016-09-26T07:17:28Z</time>
      </trkpt>
      <trkpt lat="43.764126" lon="-7.865527">
        <ele>198.227</ele>
        <time>2016-09-26T07:17:29Z</time>
      </trkpt>
      <trkpt lat="43.764114" lon="-7.865527">
        <ele>198.482</ele>
        <time>2016-09-26T07:17:30Z</time>
      </trkpt>
      <trkpt lat="43.764102" lon="-7.865529">
        <ele>198.670</ele>
        <time>2016-09-26T07:17:31Z</time>
      </trkpt>
      <trkpt lat="43.764090" lon="-7.865529">
        <ele>198.666</ele>
        <time>2016-09-26T07:17:32Z</time>
      </trkpt>
      <trkpt lat="43.764081" lon="-7.865528">
        <ele>198.790</ele>
        <time>2016-09-26T07:17:33Z</time>
      </trkpt>
      <trkpt lat="43.764072" lon="-7.865530">
        <ele>198.962</ele>
        <time>2016-09-26T07:17:34Z</time>
      </trkpt>
      <trkpt lat="43.764063" lon="-7.865532">
        <ele>199.015</ele>
        <time>2016-09-26T07:17:35Z</time>
      </trkpt>
      <trkpt lat="43.764054" lon="-7.865531">
        <ele>199.173</ele>
        <time>2016-09-26T07:17:36Z</time>
      </trkpt>
      <trkpt lat="43.764045" lon="-7.865531">
        <ele>199.456</ele>
        <time>2016-09-26T07:17:37Z</time>
      </trkpt>
      <trkpt lat="43.764035" lon="-7.865531">
        <ele>199.559</ele>
        <time>2016-09-26T07:17:38Z</time>
      </trkpt>
      <trkpt lat="43.764026" lon="-7.865531">
        <ele>199.714</ele>
        <time>2016-09-26T07:17:39Z</time>
      </trkpt>
      <trkpt lat="43.764015" lon="-7.865533">
        <ele>199.708</ele>
        <time>2016-09-26T07:17:40Z</time>
      </trkpt>
      <trkpt lat="43.764000" lon="-7.865537">
        <ele>199.876</ele>
        <time>2016-09-26T07:17:41Z</time>
      </trkpt>
      <trkpt lat="43.763989" lon="-7.865540">
        <ele>200.081</ele>
        <time>2016-09-26T07:17:42Z</time>
      </trkpt>
      <trkpt lat="43.763979" lon="-7.865543">
        <ele>200.029</ele>
        <time>2016-09-26T07:17:43Z</time>
      </trkpt>
      <trkpt lat="43.763967" lon="-7.865544">
        <ele>200.115</ele>
        <time>2016-09-26T07:17:44Z</time>
      </trkpt>
      <trkpt lat="43.763954" lon="-7.865547">
        <ele>200.319</ele>
        <time>2016-09-26T07:17:45Z</time>
      </trkpt>
      <trkpt lat="43.763943" lon="-7.865552">
        <ele>200.411</ele>
        <time>2016-09-26T07:17:46Z</time>
      </trkpt>
      <trkpt lat="43.763933" lon="-7.865555">
        <ele>200.494</ele>
        <time>2016-09-26T07:17:47Z</time>
      </trkpt>
      <trkpt lat="43.763923" lon="-7.865558">
        <ele>200.512</ele>
        <time>2016-09-26T07:17:48Z</time>
      </trkpt>
      <trkpt lat="43.763917" lon="-7.865563">
        <ele>200.814</ele>
        <time>2016-09-26T07:17:49Z</time>
      </trkpt>
      <trkpt lat="43.763912" lon="-7.865565">
        <ele>200.854</ele>
        <time>2016-09-26T07:17:50Z</time>
      </trkpt>
      <trkpt lat="43.763908" lon="-7.865565">
        <ele>200.909</ele>
        <time>2016-09-26T07:17:51Z</time>
      </trkpt>
      <trkpt lat="43.763904" lon="-7.865566">
        <ele>201.008</ele>
        <time>2016-09-26T07:17:52Z</time>
      </trkpt>
      <trkpt lat="43.763901" lon="-7.865569">
        <ele>201.192</ele>
        <time>2016-09-26T07:17:53Z</time>
      </trkpt>
      <trkpt lat="43.763901" lon="-7.865569">
        <ele>201.197</ele>
        <time>2016-09-26T07:17:53Z</time>
      </trkpt>
      <trkpt lat="43.763901" lon="-7.865569">
        <ele>201.115</ele>
        <time>2016-09-26T07:17:53Z</time>
      </trkpt>
      <trkpt lat="43.763819" lon="-7.865613">
        <ele>201.421</ele>
        <time>2016-09-26T07:18:06Z</time>
      </trkpt>
      <trkpt lat="43.763808" lon="-7.865621">
        <ele>201.575</ele>
        <time>2016-09-26T07:18:07Z</time>
      </trkpt>
      <trkpt lat="43.763797" lon="-7.865627">
        <ele>201.857</ele>
        <time>2016-09-26T07:18:08Z</time>
      </trkpt>
      <trkpt lat="43.763788" lon="-7.865629">
        <ele>201.890</ele>
        <time>2016-09-26T07:18:09Z</time>
      </trkpt>
      <trkpt lat="43.763775" lon="-7.865635">
        <ele>201.928</ele>
        <time>2016-09-26T07:18:10Z</time>
      </trkpt>
      <trkpt lat="43.763757" lon="-7.865647">
        <ele>201.888</ele>
        <time>2016-09-26T07:18:11Z</time>
      </trkpt>
      <trkpt lat="43.763737" lon="-7.865658">
        <ele>201.824</ele>
        <time>2016-09-26T07:18:12Z</time>
      </trkpt>
      <trkpt lat="43.763720" lon="-7.865666">
        <ele>201.926</ele>
        <time>2016-09-26T07:18:13Z</time>
      </trkpt>
      <trkpt lat="43.763705" lon="-7.865673">
        <ele>201.908</ele>
        <time>2016-09-26T07:18:14Z</time>
      </trkpt>
      <trkpt lat="43.763689" lon="-7.865680">
        <ele>202.059</ele>
        <time>2016-09-26T07:18:15Z</time>
      </trkpt>
      <trkpt lat="43.763672" lon="-7.865686">
        <ele>202.014</ele>
        <time>2016-09-26T07:18:16Z</time>
      </trkpt>
      <trkpt lat="43.763655" lon="-7.865694">
        <ele>202.482</ele>
        <time>2016-09-26T07:18:17Z</time>
      </trkpt>
      <trkpt lat="43.763641" lon="-7.865701">
        <ele>202.578</ele>
        <time>2016-09-26T07:18:18Z</time>
      </trkpt>
      <trkpt lat="43.763625" lon="-7.865710">
        <ele>202.572</ele>
        <time>2016-09-26T07:18:19Z</time>
      </trkpt>
      <trkpt lat="43.763613" lon="-7.865720">
        <ele>202.694</ele>
        <time>2016-09-26T07:18:20Z</time>
      </trkpt>
      <trkpt lat="43.763600" lon="-7.865734">
        <ele>202.947</ele>
        <time>2016-09-26T07:18:21Z</time>
      </trkpt>
      <trkpt lat="43.763585" lon="-7.865747">
        <ele>203.015</ele>
        <time>2016-09-26T07:18:22Z</time>
      </trkpt>
      <trkpt lat="43.763573" lon="-7.865757">
        <ele>203.179</ele>
        <time>2016-09-26T07:18:23Z</time>
      </trkpt>
      <trkpt lat="43.763558" lon="-7.865770">
        <ele>203.205</ele>
        <time>2016-09-26T07:18:24Z</time>
      </trkpt>
      <trkpt lat="43.763543" lon="-7.865782">
        <ele>203.325</ele>
        <time>2016-09-26T07:18:25Z</time>
      </trkpt>
      <trkpt lat="43.763529" lon="-7.865793">
        <ele>203.608</ele>
        <time>2016-09-26T07:18:26Z</time>
      </trkpt>
      <trkpt lat="43.763516" lon="-7.865800">
        <ele>203.888</ele>
        <time>2016-09-26T07:18:27Z</time>
      </trkpt>
      <trkpt lat="43.763504" lon="-7.865809">
        <ele>203.983</ele>
        <time>2016-09-26T07:18:28Z</time>
      </trkpt>
      <trkpt lat="43.763495" lon="-7.865820">
        <ele>204.191</ele>
        <time>2016-09-26T07:18:29Z</time>
      </trkpt>
      <trkpt lat="43.763484" lon="-7.865827">
        <ele>204.177</ele>
        <time>2016-09-26T07:18:30Z</time>
      </trkpt>
      <trkpt lat="43.763470" lon="-7.865832">
        <ele>204.351</ele>
        <time>2016-09-26T07:18:31Z</time>
      </trkpt>
      <trkpt lat="43.763458" lon="-7.865838">
        <ele>204.513</ele>
        <time>2016-09-26T07:18:32Z</time>
      </trkpt>
      <trkpt lat="43.763447" lon="-7.865847">
        <ele>204.726</ele>
        <time>2016-09-26T07:18:33Z</time>
      </trkpt>
      <trkpt lat="43.763435" lon="-7.865856">
        <ele>204.974</ele>
        <time>2016-09-26T07:18:34Z</time>
      </trkpt>
      <trkpt lat="43.763424" lon="-7.865867">
        <ele>205.133</ele>
        <time>2016-09-26T07:18:35Z</time>
      </trkpt>
      <trkpt lat="43.763413" lon="-7.865882">
        <ele>205.323</ele>
        <time>2016-09-26T07:18:36Z</time>
      </trkpt>
      <trkpt lat="43.763399" lon="-7.865893">
        <ele>205.415</ele>
        <time>2016-09-26T07:18:37Z</time>
      </trkpt>
      <trkpt lat="43.763384" lon="-7.865906">
        <ele>205.608</ele>
        <time>2016-09-26T07:18:38Z</time>
      </trkpt>
      <trkpt lat="43.763367" lon="-7.865919">
        <ele>205.844</ele>
        <time>2016-09-26T07:18:39Z</time>
      </trkpt>
      <trkpt lat="43.763347" lon="-7.865932">
        <ele>206.189</ele>
        <time>2016-09-26T07:18:40Z</time>
      </trkpt>
      <trkpt lat="43.763326" lon="-7.865943">
        <ele>206.317</ele>
        <time>2016-09-26T07:18:41Z</time>
      </trkpt>
      <trkpt lat="43.763306" lon="-7.865958">
        <ele>206.593</ele>
        <time>2016-09-26T07:18:42Z</time>
      </trkpt>
      <trkpt lat="43.763288" lon="-7.865972">
        <ele>206.677</ele>
        <time>2016-09-26T07:18:43Z</time>
      </trkpt>
      <trkpt lat="43.763271" lon="-7.865987">
        <ele>206.769</ele>
        <time>2016-09-26T07:18:44Z</time>
      </trkpt>
      <trkpt lat="43.763257" lon="-7.866001">
        <ele>206.822</ele>
        <time>2016-09-26T07:18:45Z</time>
      </trkpt>
      <trkpt lat="43.763244" lon="-7.866018">
        <ele>206.930</ele>
        <time>2016-09-26T07:18:46Z</time>
      </trkpt>
      <trkpt lat="43.763229" lon="-7.866040">
        <ele>206.938</ele>
        <time>2016-09-26T07:18:47Z</time>
      </trkpt>
      <trkpt lat="43.763216" lon="-7.866057">
        <ele>207.270</ele>
        <time>2016-09-26T07:18:48Z</time>
      </trkpt>
      <trkpt lat="43.763199" lon="-7.866076">
        <ele>207.217</ele>
        <time>2016-09-26T07:18:49Z</time>
      </trkpt>
      <trkpt lat="43.763185" lon="-7.866090">
        <ele>207.408</ele>
        <time>2016-09-26T07:18:50Z</time>
      </trkpt>
      <trkpt lat="43.763166" lon="-7.866111">
        <ele>207.524</ele>
        <time>2016-09-26T07:18:51Z</time>
      </trkpt>
      <trkpt lat="43.763146" lon="-7.866129">
        <ele>207.589</ele>
        <time>2016-09-26T07:18:52Z</time>
      </trkpt>
      <trkpt lat="43.763125" lon="-7.866149">
        <ele>207.587</ele>
        <time>2016-09-26T07:18:53Z</time>
      </trkpt>
      <trkpt lat="43.763106" lon="-7.866171">
        <ele>207.683</ele>
        <time>2016-09-26T07:18:54Z</time>
      </trkpt>
      <trkpt lat="43.763092" lon="-7.866189">
        <ele>207.727</ele>
        <time>2016-09-26T07:18:55Z</time>
      </trkpt>
      <trkpt lat="43.763078" lon="-7.866208">
        <ele>207.999</ele>
        <time>2016-09-26T07:18:56Z</time>
      </trkpt>
      <trkpt lat="43.763060" lon="-7.866228">
        <ele>208.162</ele>
        <time>2016-09-26T07:18:57Z</time>
      </trkpt>
      <trkpt lat="43.763042" lon="-7.866247">
        <ele>208.470</ele>
        <time>2016-09-26T07:18:58Z</time>
      </trkpt>
      <trkpt lat="43.763025" lon="-7.866267">
        <ele>208.521</ele>
        <time>2016-09-26T07:18:59Z</time>
      </trkpt>
      <trkpt lat="43.763009" lon="-7.866286">
        <ele>208.741</ele>
        <time>2016-09-26T07:19:00Z</time>
      </trkpt>
      <trkpt lat="43.762996" lon="-7.866300">
        <ele>209.005</ele>
        <time>2016-09-26T07:19:01Z</time>
      </trkpt>
      <trkpt lat="43.762982" lon="-7.866316">
        <ele>209.208</ele>
        <time>2016-09-26T07:19:02Z</time>
      </trkpt>
      <trkpt lat="43.762970" lon="-7.866332">
        <ele>209.443</ele>
        <time>2016-09-26T07:19:03Z</time>
      </trkpt>
      <trkpt lat="43.762960" lon="-7.866343">
        <ele>209.478</ele>
        <time>2016-09-26T07:19:04Z</time>
      </trkpt>
      <trkpt lat="43.762950" lon="-7.866353">
        <ele>209.636</ele>
        <time>2016-09-26T07:19:05Z</time>
      </trkpt>
      <trkpt lat="43.762938" lon="-7.866367">
        <ele>209.712</ele>
        <time>2016-09-26T07:19:06Z</time>
      </trkpt>
      <trkpt lat="43.762927" lon="-7.866381">
        <ele>210.016</ele>
        <time>2016-09-26T07:19:07Z</time>
      </trkpt>
      <trkpt lat="43.762917" lon="-7.866392">
        <ele>210.168</ele>
        <time>2016-09-26T07:19:08Z</time>
      </trkpt>
      <trkpt lat="43.762905" lon="-7.866403">
        <ele>210.291</ele>
        <time>2016-09-26T07:19:09Z</time>
      </trkpt>
      <trkpt lat="43.762893" lon="-7.866416">
        <ele>210.469</ele>
        <time>2016-09-26T07:19:10Z</time>
      </trkpt>
      <trkpt lat="43.762883" lon="-7.866431">
        <ele>210.618</ele>
        <time>2016-09-26T07:19:11Z</time>
      </trkpt>
      <trkpt lat="43.762871" lon="-7.866444">
        <ele>210.898</ele>
        <time>2016-09-26T07:19:12Z</time>
      </trkpt>
      <trkpt lat="43.762860" lon="-7.866458">
        <ele>210.817</ele>
        <time>2016-09-26T07:19:13Z</time>
      </trkpt>
      <trkpt lat="43.762850" lon="-7.866469">
        <ele>211.008</ele>
        <time>2016-09-26T07:19:14Z</time>
      </trkpt>
      <trkpt lat="43.762839" lon="-7.866480">
        <ele>211.092</ele>
        <time>2016-09-26T07:19:15Z</time>
      </trkpt>
      <trkpt lat="43.762826" lon="-7.866491">
        <ele>211.067</ele>
        <time>2016-09-26T07:19:16Z</time>
      </trkpt>
      <trkpt lat="43.762816" lon="-7.866502">
        <ele>211.135</ele>
        <time>2016-09-26T07:19:17Z</time>
      </trkpt>
      <trkpt lat="43.762804" lon="-7.866512">
        <ele>211.231</ele>
        <time>2016-09-26T07:19:18Z</time>
      </trkpt>
      <trkpt lat="43.762798" lon="-7.866521">
        <ele>211.115</ele>
        <time>2016-09-26T07:19:19Z</time>
      </trkpt>
      <trkpt lat="43.762796" lon="-7.866534">
        <ele>211.277</ele>
        <time>2016-09-26T07:19:20Z</time>
      </trkpt>
      <trkpt lat="43.762784" lon="-7.866557">
        <ele>211.310</ele>
        <time>2016-09-26T07:19:21Z</time>
      </trkpt>
      <trkpt lat="43.762769" lon="-7.866572">
        <ele>211.298</ele>
        <time>2016-09-26T07:19:22Z</time>
      </trkpt>
      <trkpt lat="43.762752" lon="-7.866590">
        <ele>211.046</ele>
        <time>2016-09-26T07:19:23Z</time>
      </trkpt>
      <trkpt lat="43.762737" lon="-7.866609">
        <ele>211.188</ele>
        <time>2016-09-26T07:19:24Z</time>
      </trkpt>
      <trkpt lat="43.762713" lon="-7.866636">
        <ele>211.016</ele>
        <time>2016-09-26T07:19:25Z</time>
      </trkpt>
      <trkpt lat="43.762686" lon="-7.866658">
        <ele>210.908</ele>
        <time>2016-09-26T07:19:26Z</time>
      </trkpt>
      <trkpt lat="43.762659" lon="-7.866682">
        <ele>210.775</ele>
        <time>2016-09-26T07:19:27Z</time>
      </trkpt>
      <trkpt lat="43.762632" lon="-7.866705">
        <ele>210.670</ele>
        <time>2016-09-26T07:19:28Z</time>
      </trkpt>
      <trkpt lat="43.762600" lon="-7.866731">
        <ele>210.618</ele>
        <time>2016-09-26T07:19:29Z</time>
      </trkpt>
      <trkpt lat="43.762577" lon="-7.866758">
        <ele>210.564</ele>
        <time>2016-09-26T07:19:30Z</time>
      </trkpt>
      <trkpt lat="43.762554" lon="-7.866792">
        <ele>210.558</ele>
        <time>2016-09-26T07:19:31Z</time>
      </trkpt>
      <trkpt lat="43.762524" lon="-7.866833">
        <ele>210.360</ele>
        <time>2016-09-26T07:19:32Z</time>
      </trkpt>
      <trkpt lat="43.762492" lon="-7.866871">
        <ele>210.343</ele>
        <time>2016-09-26T07:19:33Z</time>
      </trkpt>
      <trkpt lat="43.762455" lon="-7.866908">
        <ele>210.311</ele>
        <time>2016-09-26T07:19:34Z</time>
      </trkpt>
      <trkpt lat="43.762421" lon="-7.866950">
        <ele>210.287</ele>
        <time>2016-09-26T07:19:35Z</time>
      </trkpt>
      <trkpt lat="43.762393" lon="-7.866994">
        <ele>210.042</ele>
        <time>2016-09-26T07:19:36Z</time>
      </trkpt>
      <trkpt lat="43.762363" lon="-7.867038">
        <ele>209.826</ele>
        <time>2016-09-26T07:19:37Z</time>
      </trkpt>
      <trkpt lat="43.762331" lon="-7.867079">
        <ele>209.708</ele>
        <time>2016-09-26T07:19:38Z</time>
      </trkpt>
      <trkpt lat="43.762301" lon="-7.867113">
        <ele>209.759</ele>
        <time>2016-09-26T07:19:39Z</time>
      </trkpt>
      <trkpt lat="43.762274" lon="-7.867141">
        <ele>209.634</ele>
        <time>2016-09-26T07:19:40Z</time>
      </trkpt>
      <trkpt lat="43.762250" lon="-7.867162">
        <ele>209.652</ele>
        <time>2016-09-26T07:19:41Z</time>
      </trkpt>
      <trkpt lat="43.762229" lon="-7.867187">
        <ele>209.598</ele>
        <time>2016-09-26T07:19:42Z</time>
      </trkpt>
      <trkpt lat="43.762215" lon="-7.867217">
        <ele>209.562</ele>
        <time>2016-09-26T07:19:43Z</time>
      </trkpt>
      <trkpt lat="43.762198" lon="-7.867244">
        <ele>209.534</ele>
        <time>2016-09-26T07:19:44Z</time>
      </trkpt>
      <trkpt lat="43.762185" lon="-7.867277">
        <ele>209.477</ele>
        <time>2016-09-26T07:19:45Z</time>
      </trkpt>
      <trkpt lat="43.762171" lon="-7.867313">
        <ele>209.365</ele>
        <time>2016-09-26T07:19:46Z</time>
      </trkpt>
      <trkpt lat="43.762162" lon="-7.867344">
        <ele>209.418</ele>
        <time>2016-09-26T07:19:47Z</time>
      </trkpt>
      <trkpt lat="43.762150" lon="-7.867377">
        <ele>209.398</ele>
        <time>2016-09-26T07:19:48Z</time>
      </trkpt>
      <trkpt lat="43.762137" lon="-7.867411">
        <ele>209.417</ele>
        <time>2016-09-26T07:19:49Z</time>
      </trkpt>
      <trkpt lat="43.762117" lon="-7.867447">
        <ele>209.508</ele>
        <time>2016-09-26T07:19:50Z</time>
      </trkpt>
      <trkpt lat="43.762099" lon="-7.867479">
        <ele>209.662</ele>
        <time>2016-09-26T07:19:51Z</time>
      </trkpt>
      <trkpt lat="43.762080" lon="-7.867507">
        <ele>209.687</ele>
        <time>2016-09-26T07:19:52Z</time>
      </trkpt>
      <trkpt lat="43.762060" lon="-7.867537">
        <ele>209.835</ele>
        <time>2016-09-26T07:19:53Z</time>
      </trkpt>
      <trkpt lat="43.762041" lon="-7.867564">
        <ele>209.841</ele>
        <time>2016-09-26T07:19:54Z</time>
      </trkpt>
      <trkpt lat="43.762014" lon="-7.867586">
        <ele>210.115</ele>
        <time>2016-09-26T07:19:55Z</time>
      </trkpt>
      <trkpt lat="43.761986" lon="-7.867609">
        <ele>210.447</ele>
        <time>2016-09-26T07:19:56Z</time>
      </trkpt>
      <trkpt lat="43.761965" lon="-7.867631">
        <ele>210.810</ele>
        <time>2016-09-26T07:19:57Z</time>
      </trkpt>
      <trkpt lat="43.761945" lon="-7.867655">
        <ele>210.828</ele>
        <time>2016-09-26T07:19:58Z</time>
      </trkpt>
      <trkpt lat="43.761918" lon="-7.867683">
        <ele>210.877</ele>
        <time>2016-09-26T07:19:59Z</time>
      </trkpt>
      <trkpt lat="43.761897" lon="-7.867708">
        <ele>211.061</ele>
        <time>2016-09-26T07:20:00Z</time>
      </trkpt>
      <trkpt lat="43.761879" lon="-7.867732">
        <ele>211.327</ele>
        <time>2016-09-26T07:20:01Z</time>
      </trkpt>
      <trkpt lat="43.761858" lon="-7.867758">
        <ele>211.608</ele>
        <time>2016-09-26T07:20:02Z</time>
      </trkpt>
      <trkpt lat="43.761836" lon="-7.867784">
        <ele>211.898</ele>
        <time>2016-09-26T07:20:03Z</time>
      </trkpt>
      <trkpt lat="43.761816" lon="-7.867811">
        <ele>212.143</ele>
        <time>2016-09-26T07:20:04Z</time>
      </trkpt>
      <trkpt lat="43.761797" lon="-7.867832">
        <ele>212.591</ele>
        <time>2016-09-26T07:20:05Z</time>
      </trkpt>
      <trkpt lat="43.761779" lon="-7.867849">
        <ele>212.987</ele>
        <time>2016-09-26T07:20:06Z</time>
      </trkpt>
      <trkpt lat="43.761761" lon="-7.867871">
        <ele>213.461</ele>
        <time>2016-09-26T07:20:07Z</time>
      </trkpt>
      <trkpt lat="43.761749" lon="-7.867893">
        <ele>213.763</ele>
        <time>2016-09-26T07:20:08Z</time>
      </trkpt>
      <trkpt lat="43.761734" lon="-7.867916">
        <ele>214.016</ele>
        <time>2016-09-26T07:20:09Z</time>
      </trkpt>
      <trkpt lat="43.761713" lon="-7.867944">
        <ele>214.544</ele>
        <time>2016-09-26T07:20:10Z</time>
      </trkpt>
      <trkpt lat="43.761694" lon="-7.867974">
        <ele>214.984</ele>
        <time>2016-09-26T07:20:11Z</time>
      </trkpt>
      <trkpt lat="43.761677" lon="-7.868002">
        <ele>215.407</ele>
        <time>2016-09-26T07:20:12Z</time>
      </trkpt>
      <trkpt lat="43.761658" lon="-7.868028">
        <ele>215.917</ele>
        <time>2016-09-26T07:20:13Z</time>
      </trkpt>
      <trkpt lat="43.761642" lon="-7.868053">
        <ele>216.308</ele>
        <time>2016-09-26T07:20:14Z</time>
      </trkpt>
      <trkpt lat="43.761623" lon="-7.868087">
        <ele>216.729</ele>
        <time>2016-09-26T07:20:15Z</time>
      </trkpt>
      <trkpt lat="43.761608" lon="-7.868117">
        <ele>216.974</ele>
        <time>2016-09-26T07:20:16Z</time>
      </trkpt>
      <trkpt lat="43.761592" lon="-7.868141">
        <ele>217.222</ele>
        <time>2016-09-26T07:20:17Z</time>
      </trkpt>
      <trkpt lat="43.761568" lon="-7.868169">
        <ele>217.528</ele>
        <time>2016-09-26T07:20:18Z</time>
      </trkpt>
      <trkpt lat="43.761546" lon="-7.868200">
        <ele>217.832</ele>
        <time>2016-09-26T07:20:19Z</time>
      </trkpt>
      <trkpt lat="43.761527" lon="-7.868222">
        <ele>218.124</ele>
        <time>2016-09-26T07:20:20Z</time>
      </trkpt>
      <trkpt lat="43.761510" lon="-7.868245">
        <ele>218.477</ele>
        <time>2016-09-26T07:20:21Z</time>
      </trkpt>
      <trkpt lat="43.761495" lon="-7.868266">
        <ele>218.875</ele>
        <time>2016-09-26T07:20:22Z</time>
      </trkpt>
      <trkpt lat="43.761483" lon="-7.868289">
        <ele>219.126</ele>
        <time>2016-09-26T07:20:23Z</time>
      </trkpt>
      <trkpt lat="43.761471" lon="-7.868311">
        <ele>219.447</ele>
        <time>2016-09-26T07:20:24Z</time>
      </trkpt>
      <trkpt lat="43.761458" lon="-7.868336">
        <ele>219.811</ele>
        <time>2016-09-26T07:20:25Z</time>
      </trkpt>
      <trkpt lat="43.761451" lon="-7.868362">
        <ele>220.008</ele>
        <time>2016-09-26T07:20:26Z</time>
      </trkpt>
      <trkpt lat="43.761440" lon="-7.868386">
        <ele>220.323</ele>
        <time>2016-09-26T07:20:27Z</time>
      </trkpt>
      <trkpt lat="43.761429" lon="-7.868406">
        <ele>220.598</ele>
        <time>2016-09-26T07:20:28Z</time>
      </trkpt>
      <trkpt lat="43.761418" lon="-7.868426">
        <ele>220.856</ele>
        <time>2016-09-26T07:20:29Z</time>
      </trkpt>
      <trkpt lat="43.761406" lon="-7.868444">
        <ele>221.282</ele>
        <time>2016-09-26T07:20:30Z</time>
      </trkpt>
      <trkpt lat="43.761393" lon="-7.868460">
        <ele>221.356</ele>
        <time>2016-09-26T07:20:31Z</time>
      </trkpt>
      <trkpt lat="43.761382" lon="-7.868476">
        <ele>221.688</ele>
        <time>2016-09-26T07:20:32Z</time>
      </trkpt>
      <trkpt lat="43.761372" lon="-7.868494">
        <ele>221.921</ele>
        <time>2016-09-26T07:20:33Z</time>
      </trkpt>
      <trkpt lat="43.761364" lon="-7.868513">
        <ele>222.149</ele>
        <time>2016-09-26T07:20:34Z</time>
      </trkpt>
      <trkpt lat="43.761354" lon="-7.868530">
        <ele>222.374</ele>
        <time>2016-09-26T07:20:35Z</time>
      </trkpt>
      <trkpt lat="43.761344" lon="-7.868544">
        <ele>222.456</ele>
        <time>2016-09-26T07:20:36Z</time>
      </trkpt>
      <trkpt lat="43.761335" lon="-7.868560">
        <ele>222.721</ele>
        <time>2016-09-26T07:20:37Z</time>
      </trkpt>
      <trkpt lat="43.761327" lon="-7.868575">
        <ele>222.908</ele>
        <time>2016-09-26T07:20:38Z</time>
      </trkpt>
      <trkpt lat="43.761322" lon="-7.868588">
        <ele>223.138</ele>
        <time>2016-09-26T07:20:39Z</time>
      </trkpt>
      <trkpt lat="43.761313" lon="-7.868600">
        <ele>223.343</ele>
        <time>2016-09-26T07:20:40Z</time>
      </trkpt>
      <trkpt lat="43.761304" lon="-7.868611">
        <ele>223.311</ele>
        <time>2016-09-26T07:20:41Z</time>
      </trkpt>
      <trkpt lat="43.761294" lon="-7.868623">
        <ele>223.427</ele>
        <time>2016-09-26T07:20:42Z</time>
      </trkpt>
      <trkpt lat="43.761284" lon="-7.868637">
        <ele>223.661</ele>
        <time>2016-09-26T07:20:43Z</time>
      </trkpt>
      <trkpt lat="43.761275" lon="-7.868650">
        <ele>223.713</ele>
        <time>2016-09-26T07:20:44Z</time>
      </trkpt>
      <trkpt lat="43.761261" lon="-7.868663">
        <ele>223.826</ele>
        <time>2016-09-26T07:20:45Z</time>
      </trkpt>
      <trkpt lat="43.761245" lon="-7.868677">
        <ele>223.944</ele>
        <time>2016-09-26T07:20:46Z</time>
      </trkpt>
      <trkpt lat="43.761229" lon="-7.868691">
        <ele>224.171</ele>
        <time>2016-09-26T07:20:47Z</time>
      </trkpt>
      <trkpt lat="43.761213" lon="-7.868705">
        <ele>224.241</ele>
        <time>2016-09-26T07:20:48Z</time>
      </trkpt>
      <trkpt lat="43.761201" lon="-7.868706">
        <ele>224.315</ele>
        <time>2016-09-26T07:20:49Z</time>
      </trkpt>
      <trkpt lat="43.761195" lon="-7.868706">
        <ele>224.408</ele>
        <time>2016-09-26T07:20:50Z</time>
      </trkpt>
      <trkpt lat="43.761183" lon="-7.868710">
        <ele>224.558</ele>
        <time>2016-09-26T07:20:51Z</time>
      </trkpt>
      <trkpt lat="43.761177" lon="-7.868719">
        <ele>224.653</ele>
        <time>2016-09-26T07:20:52Z</time>
      </trkpt>
      <trkpt lat="43.761173" lon="-7.868716">
        <ele>224.551</ele>
        <time>2016-09-26T07:20:53Z</time>
      </trkpt>
      <trkpt lat="43.761173" lon="-7.868715">
        <ele>224.767</ele>
        <time>2016-09-26T07:20:54Z</time>
      </trkpt>
      <trkpt lat="43.761173" lon="-7.868713">
        <ele>224.931</ele>
        <time>2016-09-26T07:20:55Z</time>
      </trkpt>
      <trkpt lat="43.761173" lon="-7.868713">
        <ele>224.953</ele>
        <time>2016-09-26T07:20:55Z</time>
      </trkpt>
      <trkpt lat="43.761173" lon="-7.868713">
        <ele>224.956</ele>
        <time>2016-09-26T07:20:55Z</time>
      </trkpt>
      <trkpt lat="43.761132" lon="-7.868746">
        <ele>225.744</ele>
        <time>2016-09-26T07:21:06Z</time>
      </trkpt>
      <trkpt lat="43.761127" lon="-7.868752">
        <ele>225.967</ele>
        <time>2016-09-26T07:21:07Z</time>
      </trkpt>
      <trkpt lat="43.761123" lon="-7.868763">
        <ele>225.981</ele>
        <time>2016-09-26T07:21:08Z</time>
      </trkpt>
      <trkpt lat="43.761121" lon="-7.868775">
        <ele>226.019</ele>
        <time>2016-09-26T07:21:09Z</time>
      </trkpt>
      <trkpt lat="43.761122" lon="-7.868785">
        <ele>226.208</ele>
        <time>2016-09-26T07:21:10Z</time>
      </trkpt>
      <trkpt lat="43.761125" lon="-7.868797">
        <ele>226.387</ele>
        <time>2016-09-26T07:21:11Z</time>
      </trkpt>
      <trkpt lat="43.761124" lon="-7.868809">
        <ele>226.512</ele>
        <time>2016-09-26T07:21:12Z</time>
      </trkpt>
      <trkpt lat="43.761127" lon="-7.868825">
        <ele>226.770</ele>
        <time>2016-09-26T07:21:13Z</time>
      </trkpt>
      <trkpt lat="43.761130" lon="-7.868843">
        <ele>226.966</ele>
        <time>2016-09-26T07:21:14Z</time>
      </trkpt>
      <trkpt lat="43.761133" lon="-7.868857">
        <ele>226.910</ele>
        <time>2016-09-26T07:21:15Z</time>
      </trkpt>
      <trkpt lat="43.761138" lon="-7.868872">
        <ele>227.282</ele>
        <time>2016-09-26T07:21:16Z</time>
      </trkpt>
      <trkpt lat="43.761145" lon="-7.868883">
        <ele>227.375</ele>
        <time>2016-09-26T07:21:17Z</time>
      </trkpt>
      <trkpt lat="43.761152" lon="-7.868896">
        <ele>227.643</ele>
        <time>2016-09-26T07:21:18Z</time>
      </trkpt>
      <trkpt lat="43.761158" lon="-7.868904">
        <ele>227.878</ele>
        <time>2016-09-26T07:21:19Z</time>
      </trkpt>
      <trkpt lat="43.761161" lon="-7.868909">
        <ele>228.033</ele>
        <time>2016-09-26T07:21:20Z</time>
      </trkpt>
      <trkpt lat="43.761167" lon="-7.868914">
        <ele>228.126</ele>
        <time>2016-09-26T07:21:21Z</time>
      </trkpt>
      <trkpt lat="43.761175" lon="-7.868920">
        <ele>228.308</ele>
        <time>2016-09-26T07:21:22Z</time>
      </trkpt>
      <trkpt lat="43.761184" lon="-7.868929">
        <ele>228.468</ele>
        <time>2016-09-26T07:21:23Z</time>
      </trkpt>
      <trkpt lat="43.761189" lon="-7.868934">
        <ele>228.683</ele>
        <time>2016-09-26T07:21:24Z</time>
      </trkpt>
      <trkpt lat="43.761196" lon="-7.868937">
        <ele>228.611</ele>
        <time>2016-09-26T07:21:25Z</time>
      </trkpt>
      <trkpt lat="43.761202" lon="-7.868939">
        <ele>228.777</ele>
        <time>2016-09-26T07:21:26Z</time>
      </trkpt>
      <trkpt lat="43.761213" lon="-7.868941">
        <ele>228.791</ele>
        <time>2016-09-26T07:21:27Z</time>
      </trkpt>
      <trkpt lat="43.761224" lon="-7.868941">
        <ele>228.963</ele>
        <time>2016-09-26T07:21:28Z</time>
      </trkpt>
      <trkpt lat="43.761235" lon="-7.868942">
        <ele>229.226</ele>
        <time>2016-09-26T07:21:29Z</time>
      </trkpt>
      <trkpt lat="43.761240" lon="-7.868942">
        <ele>229.434</ele>
        <time>2016-09-26T07:21:30Z</time>
      </trkpt>
      <trkpt lat="43.761250" lon="-7.868941">
        <ele>229.489</ele>
        <time>2016-09-26T07:21:31Z</time>
      </trkpt>
      <trkpt lat="43.761260" lon="-7.868940">
        <ele>229.506</ele>
        <time>2016-09-26T07:21:32Z</time>
      </trkpt>
      <trkpt lat="43.761272" lon="-7.868942">
        <ele>229.626</ele>
        <time>2016-09-26T07:21:33Z</time>
      </trkpt>
      <trkpt lat="43.761282" lon="-7.868939">
        <ele>229.908</ele>
        <time>2016-09-26T07:21:34Z</time>
      </trkpt>
      <trkpt lat="43.761292" lon="-7.868939">
        <ele>230.119</ele>
        <time>2016-09-26T07:21:35Z</time>
      </trkpt>
      <trkpt lat="43.761302" lon="-7.868938">
        <ele>230.124</ele>
        <time>2016-09-26T07:21:36Z</time>
      </trkpt>
      <trkpt lat="43.761314" lon="-7.868937">
        <ele>230.352</ele>
        <time>2016-09-26T07:21:37Z</time>
      </trkpt>
      <trkpt lat="43.761323" lon="-7.868933">
        <ele>230.448</ele>
        <time>2016-09-26T07:21:38Z</time>
      </trkpt>
      <trkpt lat="43.761333" lon="-7.868935">
        <ele>230.772</ele>
        <time>2016-09-26T07:21:39Z</time>
      </trkpt>
      <trkpt lat="43.761344" lon="-7.868936">
        <ele>230.954</ele>
        <time>2016-09-26T07:21:40Z</time>
      </trkpt>
      <trkpt lat="43.761354" lon="-7.868938">
        <ele>231.247</ele>
        <time>2016-09-26T07:21:41Z</time>
      </trkpt>
      <trkpt lat="43.761365" lon="-7.868937">
        <ele>231.435</ele>
        <time>2016-09-26T07:21:42Z</time>
      </trkpt>
      <trkpt lat="43.761375" lon="-7.868938">
        <ele>231.569</ele>
        <time>2016-09-26T07:21:43Z</time>
      </trkpt>
      <trkpt lat="43.761387" lon="-7.868937">
        <ele>231.604</ele>
        <time>2016-09-26T07:21:44Z</time>
      </trkpt>
      <trkpt lat="43.761398" lon="-7.868934">
        <ele>231.824</ele>
        <time>2016-09-26T07:21:45Z</time>
      </trkpt>
      <trkpt lat="43.761407" lon="-7.868934">
        <ele>232.108</ele>
        <time>2016-09-26T07:21:46Z</time>
      </trkpt>
      <trkpt lat="43.761418" lon="-7.868930">
        <ele>232.487</ele>
        <time>2016-09-26T07:21:47Z</time>
      </trkpt>
      <trkpt lat="43.761428" lon="-7.868929">
        <ele>232.652</ele>
        <time>2016-09-26T07:21:48Z</time>
      </trkpt>
      <trkpt lat="43.761438" lon="-7.868929">
        <ele>232.850</ele>
        <time>2016-09-26T07:21:49Z</time>
      </trkpt>
      <trkpt lat="43.761449" lon="-7.868930">
        <ele>232.816</ele>
        <time>2016-09-26T07:21:50Z</time>
      </trkpt>
      <trkpt lat="43.761458" lon="-7.868930">
        <ele>233.040</ele>
        <time>2016-09-26T07:21:51Z</time>
      </trkpt>
      <trkpt lat="43.761468" lon="-7.868931">
        <ele>233.222</ele>
        <time>2016-09-26T07:21:52Z</time>
      </trkpt>
      <trkpt lat="43.761478" lon="-7.868929">
        <ele>233.535</ele>
        <time>2016-09-26T07:21:53Z</time>
      </trkpt>
      <trkpt lat="43.761487" lon="-7.868931">
        <ele>233.893</ele>
        <time>2016-09-26T07:21:54Z</time>
      </trkpt>
      <trkpt lat="43.761492" lon="-7.868932">
        <ele>234.057</ele>
        <time>2016-09-26T07:21:55Z</time>
      </trkpt>
      <trkpt lat="43.761500" lon="-7.868932">
        <ele>234.200</ele>
        <time>2016-09-26T07:21:56Z</time>
      </trkpt>
      <trkpt lat="43.761508" lon="-7.868928">
        <ele>234.420</ele>
        <time>2016-09-26T07:21:57Z</time>
      </trkpt>
      <trkpt lat="43.761520" lon="-7.868919">
        <ele>234.508</ele>
        <time>2016-09-26T07:21:58Z</time>
      </trkpt>
      <trkpt lat="43.761531" lon="-7.868918">
        <ele>234.726</ele>
        <time>2016-09-26T07:21:59Z</time>
      </trkpt>
      <trkpt lat="43.761539" lon="-7.868923">
        <ele>234.821</ele>
        <time>2016-09-26T07:22:00Z</time>
      </trkpt>
      <trkpt lat="43.761550" lon="-7.868922">
        <ele>235.059</ele>
        <time>2016-09-26T07:22:01Z</time>
      </trkpt>
      <trkpt lat="43.761563" lon="-7.868918">
        <ele>235.225</ele>
        <time>2016-09-26T07:22:02Z</time>
      </trkpt>
      <trkpt lat="43.761573" lon="-7.868919">
        <ele>235.369</ele>
        <time>2016-09-26T07:22:03Z</time>
      </trkpt>
      <trkpt lat="43.761584" lon="-7.868920">
        <ele>235.651</ele>
        <time>2016-09-26T07:22:04Z</time>
      </trkpt>
      <trkpt lat="43.761596" lon="-7.868920">
        <ele>235.874</ele>
        <time>2016-09-26T07:22:05Z</time>
      </trkpt>
      <trkpt lat="43.761608" lon="-7.868920">
        <ele>235.852</ele>
        <time>2016-09-26T07:22:06Z</time>
      </trkpt>
      <trkpt lat="43.761620" lon="-7.868922">
        <ele>235.981</ele>
        <time>2016-09-26T07:22:07Z</time>
      </trkpt>
      <trkpt lat="43.761632" lon="-7.868920">
        <ele>236.061</ele>
        <time>2016-09-26T07:22:08Z</time>
      </trkpt>
      <trkpt lat="43.761642" lon="-7.868919">
        <ele>236.117</ele>
        <time>2016-09-26T07:22:09Z</time>
      </trkpt>
      <trkpt lat="43.761652" lon="-7.868918">
        <ele>236.008</ele>
        <time>2016-09-26T07:22:10Z</time>
      </trkpt>
      <trkpt lat="43.761662" lon="-7.868918">
        <ele>236.239</ele>
        <time>2016-09-26T07:22:11Z</time>
      </trkpt>
      <trkpt lat="43.761673" lon="-7.868919">
        <ele>236.524</ele>
        <time>2016-09-26T07:22:12Z</time>
      </trkpt>
      <trkpt lat="43.761680" lon="-7.868923">
        <ele>236.672</ele>
        <time>2016-09-26T07:22:13Z</time>
      </trkpt>
      <trkpt lat="43.761687" lon="-7.868926">
        <ele>236.758</ele>
        <time>2016-09-26T07:22:14Z</time>
      </trkpt>
      <trkpt lat="43.761695" lon="-7.868929">
        <ele>236.852</ele>
        <time>2016-09-26T07:22:15Z</time>
      </trkpt>
      <trkpt lat="43.761703" lon="-7.868929">
        <ele>237.144</ele>
        <time>2016-09-26T07:22:16Z</time>
      </trkpt>
      <trkpt lat="43.761712" lon="-7.868933">
        <ele>237.447</ele>
        <time>2016-09-26T07:22:17Z</time>
      </trkpt>
      <trkpt lat="43.761718" lon="-7.868937">
        <ele>237.665</ele>
        <time>2016-09-26T07:22:18Z</time>
      </trkpt>
      <trkpt lat="43.761728" lon="-7.868937">
        <ele>237.745</ele>
        <time>2016-09-26T07:22:19Z</time>
      </trkpt>
      <trkpt lat="43.761734" lon="-7.868939">
        <ele>238.147</ele>
        <time>2016-09-26T07:22:20Z</time>
      </trkpt>
      <trkpt lat="43.761749" lon="-7.868935">
        <ele>238.311</ele>
        <time>2016-09-26T07:22:21Z</time>
      </trkpt>
      <trkpt lat="43.761760" lon="-7.868936">
        <ele>238.408</ele>
        <time>2016-09-26T07:22:22Z</time>
      </trkpt>
      <trkpt lat="43.761767" lon="-7.868935">
        <ele>238.565</ele>
        <time>2016-09-26T07:22:23Z</time>
      </trkpt>
      <trkpt lat="43.761775" lon="-7.868935">
        <ele>238.640</ele>
        <time>2016-09-26T07:22:24Z</time>
      </trkpt>
      <trkpt lat="43.761784" lon="-7.868940">
        <ele>238.818</ele>
        <time>2016-09-26T07:22:25Z</time>
      </trkpt>
      <trkpt lat="43.761794" lon="-7.868943">
        <ele>238.854</ele>
        <time>2016-09-26T07:22:26Z</time>
      </trkpt>
      <trkpt lat="43.761793" lon="-7.868952">
        <ele>239.088</ele>
        <time>2016-09-26T07:22:27Z</time>
      </trkpt>
      <trkpt lat="43.761802" lon="-7.868955">
        <ele>239.290</ele>
        <time>2016-09-26T07:22:28Z</time>
      </trkpt>
      <trkpt lat="43.761810" lon="-7.868958">
        <ele>239.353</ele>
        <time>2016-09-26T07:22:29Z</time>
      </trkpt>
      <trkpt lat="43.761818" lon="-7.868960">
        <ele>239.581</ele>
        <time>2016-09-26T07:22:30Z</time>
      </trkpt>
      <trkpt lat="43.761829" lon="-7.868959">
        <ele>239.773</ele>
        <time>2016-09-26T07:22:31Z</time>
      </trkpt>
      <trkpt lat="43.761839" lon="-7.868960">
        <ele>239.985</ele>
        <time>2016-09-26T07:22:32Z</time>
      </trkpt>
      <trkpt lat="43.761847" lon="-7.868962">
        <ele>239.913</ele>
        <time>2016-09-26T07:22:33Z</time>
      </trkpt>
      <trkpt lat="43.761853" lon="-7.868965">
        <ele>240.108</ele>
        <time>2016-09-26T07:22:34Z</time>
      </trkpt>
      <trkpt lat="43.761859" lon="-7.868967">
        <ele>240.238</ele>
        <time>2016-09-26T07:22:35Z</time>
      </trkpt>
      <trkpt lat="43.761867" lon="-7.868969">
        <ele>240.573</ele>
        <time>2016-09-26T07:22:36Z</time>
      </trkpt>
      <trkpt lat="43.761873" lon="-7.868969">
        <ele>240.621</ele>
        <time>2016-09-26T07:22:37Z</time>
      </trkpt>
      <trkpt lat="43.761881" lon="-7.868967">
        <ele>240.937</ele>
        <time>2016-09-26T07:22:38Z</time>
      </trkpt>
      <trkpt lat="43.761891" lon="-7.868966">
        <ele>241.111</ele>
        <time>2016-09-26T07:22:39Z</time>
      </trkpt>
      <trkpt lat="43.761896" lon="-7.868970">
        <ele>241.263</ele>
        <time>2016-09-26T07:22:40Z</time>
      </trkpt>
      <trkpt lat="43.761906" lon="-7.868968">
        <ele>241.476</ele>
        <time>2016-09-26T07:22:41Z</time>
      </trkpt>
      <trkpt lat="43.761915" lon="-7.868968">
        <ele>241.574</ele>
        <time>2016-09-26T07:22:42Z</time>
      </trkpt>
      <trkpt lat="43.761924" lon="-7.868967">
        <ele>241.512</ele>
        <time>2016-09-26T07:22:43Z</time>
      </trkpt>
      <trkpt lat="43.761932" lon="-7.868967">
        <ele>241.632</ele>
        <time>2016-09-26T07:22:44Z</time>
      </trkpt>
      <trkpt lat="43.761938" lon="-7.868968">
        <ele>241.805</ele>
        <time>2016-09-26T07:22:45Z</time>
      </trkpt>
      <trkpt lat="43.761944" lon="-7.868964">
        <ele>242.008</ele>
        <time>2016-09-26T07:22:46Z</time>
      </trkpt>
      <trkpt lat="43.761956" lon="-7.868959">
        <ele>242.272</ele>
        <time>2016-09-26T07:22:47Z</time>
      </trkpt>
      <trkpt lat="43.761966" lon="-7.868956">
        <ele>242.587</ele>
        <time>2016-09-26T07:22:48Z</time>
      </trkpt>
      <trkpt lat="43.761981" lon="-7.868951">
        <ele>242.785</ele>
        <time>2016-09-26T07:22:49Z</time>
      </trkpt>
      <trkpt lat="43.761994" lon="-7.868948">
        <ele>242.861</ele>
        <time>2016-09-26T07:22:50Z</time>
      </trkpt>
      <trkpt lat="43.762004" lon="-7.868946">
        <ele>242.995</ele>
        <time>2016-09-26T07:22:51Z</time>
      </trkpt>
      <trkpt lat="43.762012" lon="-7.868944">
        <ele>243.077</ele>
        <time>2016-09-26T07:22:52Z</time>
      </trkpt>
      <trkpt lat="43.762018" lon="-7.868944">
        <ele>243.420</ele>
        <time>2016-09-26T07:22:53Z</time>
      </trkpt>
      <trkpt lat="43.762025" lon="-7.868940">
        <ele>243.678</ele>
        <time>2016-09-26T07:22:54Z</time>
      </trkpt>
      <trkpt lat="43.762033" lon="-7.868938">
        <ele>243.851</ele>
        <time>2016-09-26T07:22:55Z</time>
      </trkpt>
      <trkpt lat="43.762045" lon="-7.868933">
        <ele>244.001</ele>
        <time>2016-09-26T07:22:56Z</time>
      </trkpt>
      <trkpt lat="43.762053" lon="-7.868929">
        <ele>244.211</ele>
        <time>2016-09-26T07:22:57Z</time>
      </trkpt>
      <trkpt lat="43.762060" lon="-7.868928">
        <ele>244.308</ele>
        <time>2016-09-26T07:22:58Z</time>
      </trkpt>
      <trkpt lat="43.762069" lon="-7.868929">
        <ele>244.466</ele>
        <time>2016-09-26T07:22:59Z</time>
      </trkpt>
      <trkpt lat="43.762077" lon="-7.868927">
        <ele>244.531</ele>
        <time>2016-09-26T07:23:00Z</time>
      </trkpt>
      <trkpt lat="43.762086" lon="-7.868926">
        <ele>244.759</ele>
        <time>2016-09-26T07:23:01Z</time>
      </trkpt>
      <trkpt lat="43.762093" lon="-7.868927">
        <ele>245.065</ele>
        <time>2016-09-26T07:23:02Z</time>
      </trkpt>
      <trkpt lat="43.762102" lon="-7.868926">
        <ele>245.289</ele>
        <time>2016-09-26T07:23:03Z</time>
      </trkpt>
      <trkpt lat="43.762109" lon="-7.868923">
        <ele>245.261</ele>
        <time>2016-09-26T07:23:04Z</time>
      </trkpt>
      <trkpt lat="43.762121" lon="-7.868917">
        <ele>245.414</ele>
        <time>2016-09-26T07:23:05Z</time>
      </trkpt>
      <trkpt lat="43.762134" lon="-7.868912">
        <ele>245.732</ele>
        <time>2016-09-26T07:23:06Z</time>
      </trkpt>
      <trkpt lat="43.762142" lon="-7.868906">
        <ele>245.973</ele>
        <time>2016-09-26T07:23:07Z</time>
      </trkpt>
      <trkpt lat="43.762153" lon="-7.868902">
        <ele>245.985</ele>
        <time>2016-09-26T07:23:08Z</time>
      </trkpt>
      <trkpt lat="43.762164" lon="-7.868899">
        <ele>246.113</ele>
        <time>2016-09-26T07:23:09Z</time>
      </trkpt>
      <trkpt lat="43.762174" lon="-7.868898">
        <ele>246.208</ele>
        <time>2016-09-26T07:23:10Z</time>
      </trkpt>
      <trkpt lat="43.762184" lon="-7.868895">
        <ele>246.348</ele>
        <time>2016-09-26T07:23:11Z</time>
      </trkpt>
      <trkpt lat="43.762191" lon="-7.868890">
        <ele>246.413</ele>
        <time>2016-09-26T07:23:12Z</time>
      </trkpt>
      <trkpt lat="43.762201" lon="-7.868886">
        <ele>246.611</ele>
        <time>2016-09-26T07:23:13Z</time>
      </trkpt>
      <trkpt lat="43.762216" lon="-7.868878">
        <ele>246.757</ele>
        <time>2016-09-26T07:23:14Z</time>
      </trkpt>
      <trkpt lat="43.762226" lon="-7.868871">
        <ele>246.971</ele>
        <time>2016-09-26T07:23:15Z</time>
      </trkpt>
      <trkpt lat="43.762238" lon="-7.868864">
        <ele>247.033</ele>
        <time>2016-09-26T07:23:16Z</time>
      </trkpt>
      <trkpt lat="43.762246" lon="-7.868860">
        <ele>247.276</ele>
        <time>2016-09-26T07:23:17Z</time>
      </trkpt>
      <trkpt lat="43.762257" lon="-7.868854">
        <ele>247.264</ele>
        <time>2016-09-26T07:23:18Z</time>
      </trkpt>
      <trkpt lat="43.762268" lon="-7.868850">
        <ele>247.477</ele>
        <time>2016-09-26T07:23:19Z</time>
      </trkpt>
      <trkpt lat="43.762280" lon="-7.868845">
        <ele>247.661</ele>
        <time>2016-09-26T07:23:20Z</time>
      </trkpt>
      <trkpt lat="43.762291" lon="-7.868838">
        <ele>247.827</ele>
        <time>2016-09-26T07:23:21Z</time>
      </trkpt>
      <trkpt lat="43.762300" lon="-7.868831">
        <ele>247.908</ele>
        <time>2016-09-26T07:23:22Z</time>
      </trkpt>
      <trkpt lat="43.762308" lon="-7.868825">
        <ele>248.078</ele>
        <time>2016-09-26T07:23:23Z</time>
      </trkpt>
      <trkpt lat="43.762319" lon="-7.868816">
        <ele>248.163</ele>
        <time>2016-09-26T07:23:24Z</time>
      </trkpt>
      <trkpt lat="43.762325" lon="-7.868811">
        <ele>248.321</ele>
        <time>2016-09-26T07:23:25Z</time>
      </trkpt>
      <trkpt lat="43.762334" lon="-7.868807">
        <ele>248.627</ele>
        <time>2016-09-26T07:23:26Z</time>
      </trkpt>
      <trkpt lat="43.762344" lon="-7.868801">
        <ele>248.831</ele>
        <time>2016-09-26T07:23:27Z</time>
      </trkpt>
      <trkpt lat="43.762353" lon="-7.868796">
        <ele>249.083</ele>
        <time>2016-09-26T07:23:28Z</time>
      </trkpt>
      <trkpt lat="43.762360" lon="-7.868791">
        <ele>249.136</ele>
        <time>2016-09-26T07:23:29Z</time>
      </trkpt>
      <trkpt lat="43.762368" lon="-7.868787">
        <ele>249.214</ele>
        <time>2016-09-26T07:23:30Z</time>
      </trkpt>
      <trkpt lat="43.762373" lon="-7.868780">
        <ele>249.556</ele>
        <time>2016-09-26T07:23:31Z</time>
      </trkpt>
      <trkpt lat="43.762382" lon="-7.868777">
        <ele>249.759</ele>
        <time>2016-09-26T07:23:32Z</time>
      </trkpt>
      <trkpt lat="43.762387" lon="-7.868774">
        <ele>250.014</ele>
        <time>2016-09-26T07:23:33Z</time>
      </trkpt>
      <trkpt lat="43.762395" lon="-7.868772">
        <ele>250.008</ele>
        <time>2016-09-26T07:23:34Z</time>
      </trkpt>
      <trkpt lat="43.762401" lon="-7.868771">
        <ele>250.396</ele>
        <time>2016-09-26T07:23:35Z</time>
      </trkpt>
      <trkpt lat="43.762406" lon="-7.868768">
        <ele>250.481</ele>
        <time>2016-09-26T07:23:36Z</time>
      </trkpt>
      <trkpt lat="43.762415" lon="-7.868767">
        <ele>250.549</ele>
        <time>2016-09-26T07:23:37Z</time>
      </trkpt>
      <trkpt lat="43.762423" lon="-7.868764">
        <ele>250.775</ele>
        <time>2016-09-26T07:23:38Z</time>
      </trkpt>
      <trkpt lat="43.762431" lon="-7.868760">
        <ele>251.089</ele>
        <time>2016-09-26T07:23:39Z</time>
      </trkpt>
      <trkpt lat="43.762438" lon="-7.868758">
        <ele>251.191</ele>
        <time>2016-09-26T07:23:40Z</time>
      </trkpt>
      <trkpt lat="43.762447" lon="-7.868755">
        <ele>251.354</ele>
        <time>2016-09-26T07:23:41Z</time>
      </trkpt>
      <trkpt lat="43.762454" lon="-7.868753">
        <ele>251.452</ele>
        <time>2016-09-26T07:23:42Z</time>
      </trkpt>
      <trkpt lat="43.762462" lon="-7.868756">
        <ele>251.661</ele>
        <time>2016-09-26T07:23:43Z</time>
      </trkpt>
      <trkpt lat="43.762473" lon="-7.868755">
        <ele>251.821</ele>
        <time>2016-09-26T07:23:44Z</time>
      </trkpt>
      <trkpt lat="43.762479" lon="-7.868760">
        <ele>252.013</ele>
        <time>2016-09-26T07:23:45Z</time>
      </trkpt>
      <trkpt lat="43.762483" lon="-7.868767">
        <ele>252.108</ele>
        <time>2016-09-26T07:23:46Z</time>
      </trkpt>
      <trkpt lat="43.762485" lon="-7.868772">
        <ele>252.187</ele>
        <time>2016-09-26T07:23:47Z</time>
      </trkpt>
      <trkpt lat="43.762486" lon="-7.868774">
        <ele>252.392</ele>
        <time>2016-09-26T07:23:48Z</time>
      </trkpt>
      <trkpt lat="43.762483" lon="-7.868776">
        <ele>252.410</ele>
        <time>2016-09-26T07:23:49Z</time>
      </trkpt>
      <trkpt lat="43.762483" lon="-7.868776">
        <ele>252.466</ele>
        <time>2016-09-26T07:23:49Z</time>
      </trkpt>
      <trkpt lat="43.762483" lon="-7.868776">
        <ele>252.450</ele>
        <time>2016-09-26T07:23:49Z</time>
      </trkpt>
      <trkpt lat="43.762480" lon="-7.868867">
        <ele>252.742</ele>
        <time>2016-09-26T07:24:56Z</time>
      </trkpt>
      <trkpt lat="43.762477" lon="-7.868877">
        <ele>252.645</ele>
        <time>2016-09-26T07:24:57Z</time>
      </trkpt>
      <trkpt lat="43.762475" lon="-7.868887">
        <ele>252.863</ele>
        <time>2016-09-26T07:24:58Z</time>
      </trkpt>
      <trkpt lat="43.762474" lon="-7.868896">
        <ele>253.035</ele>
        <time>2016-09-26T07:24:59Z</time>
      </trkpt>
      <trkpt lat="43.762472" lon="-7.868908">
        <ele>253.186</ele>
        <time>2016-09-26T07:25:00Z</time>
      </trkpt>
      <trkpt lat="43.762469" lon="-7.868921">
        <ele>253.214</ele>
        <time>2016-09-26T07:25:01Z</time>
      </trkpt>
      <trkpt lat="43.762465" lon="-7.868932">
        <ele>253.508</ele>
        <time>2016-09-26T07:25:02Z</time>
      </trkpt>
      <trkpt lat="43.762462" lon="-7.868943">
        <ele>253.654</ele>
        <time>2016-09-26T07:25:03Z</time>
      </trkpt>
      <trkpt lat="43.762460" lon="-7.868953">
        <ele>253.739</ele>
        <time>2016-09-26T07:25:04Z</time>
      </trkpt>
      <trkpt lat="43.762457" lon="-7.868962">
        <ele>253.847</ele>
        <time>2016-09-26T07:25:05Z</time>
      </trkpt>
      <trkpt lat="43.762453" lon="-7.868972">
        <ele>253.843</ele>
        <time>2016-09-26T07:25:06Z</time>
      </trkpt>
      <trkpt lat="43.762451" lon="-7.868981">
        <ele>253.657</ele>
        <time>2016-09-26T07:25:07Z</time>
      </trkpt>
      <trkpt lat="43.762449" lon="-7.868990">
        <ele>253.749</ele>
        <time>2016-09-26T07:25:08Z</time>
      </trkpt>
      <trkpt lat="43.762449" lon="-7.868997">
        <ele>254.072</ele>
        <time>2016-09-26T07:25:09Z</time>
      </trkpt>
      <trkpt lat="43.762446" lon="-7.869004">
        <ele>254.460</ele>
        <time>2016-09-26T07:25:10Z</time>
      </trkpt>
      <trkpt lat="43.762443" lon="-7.869012">
        <ele>254.586</ele>
        <time>2016-09-26T07:25:11Z</time>
      </trkpt>
      <trkpt lat="43.762441" lon="-7.869022">
        <ele>254.560</ele>
        <time>2016-09-26T07:25:12Z</time>
      </trkpt>
      <trkpt lat="43.762436" lon="-7.869032">
        <ele>254.526</ele>
        <time>2016-09-26T07:25:13Z</time>
      </trkpt>
      <trkpt lat="43.762433" lon="-7.869042">
        <ele>254.708</ele>
        <time>2016-09-26T07:25:14Z</time>
      </trkpt>
      <trkpt lat="43.762430" lon="-7.869051">
        <ele>254.769</ele>
        <time>2016-09-26T07:25:15Z</time>
      </trkpt>
      <trkpt lat="43.762428" lon="-7.869060">
        <ele>254.624</ele>
        <time>2016-09-26T07:25:16Z</time>
      </trkpt>
      <trkpt lat="43.762424" lon="-7.869069">
        <ele>254.952</ele>
        <time>2016-09-26T07:25:17Z</time>
      </trkpt>
      <trkpt lat="43.762422" lon="-7.869078">
        <ele>254.938</ele>
        <time>2016-09-26T07:25:18Z</time>
      </trkpt>
      <trkpt lat="43.762419" lon="-7.869088">
        <ele>255.132</ele>
        <time>2016-09-26T07:25:19Z</time>
      </trkpt>
      <trkpt lat="43.762416" lon="-7.869098">
        <ele>255.374</ele>
        <time>2016-09-26T07:25:20Z</time>
      </trkpt>
      <trkpt lat="43.762412" lon="-7.869110">
        <ele>255.567</ele>
        <time>2016-09-26T07:25:21Z</time>
      </trkpt>
      <trkpt lat="43.762408" lon="-7.869122">
        <ele>255.785</ele>
        <time>2016-09-26T07:25:22Z</time>
      </trkpt>
      <trkpt lat="43.762404" lon="-7.869134">
        <ele>255.714</ele>
        <time>2016-09-26T07:25:23Z</time>
      </trkpt>
      <trkpt lat="43.762401" lon="-7.869146">
        <ele>255.954</ele>
        <time>2016-09-26T07:25:24Z</time>
      </trkpt>
      <trkpt lat="43.762398" lon="-7.869160">
        <ele>256.109</ele>
        <time>2016-09-26T07:25:25Z</time>
      </trkpt>
      <trkpt lat="43.762394" lon="-7.869173">
        <ele>256.408</ele>
        <time>2016-09-26T07:25:26Z</time>
      </trkpt>
      <trkpt lat="43.762392" lon="-7.869187">
        <ele>256.722</ele>
        <time>2016-09-26T07:25:27Z</time>
      </trkpt>
      <trkpt lat="43.762389" lon="-7.869201">
        <ele>256.937</ele>
        <time>2016-09-26T07:25:28Z</time>
      </trkpt>
      <trkpt lat="43.762386" lon="-7.869215">
        <ele>257.085</ele>
        <time>2016-09-26T07:25:29Z</time>
      </trkpt>
      <trkpt lat="43.762382" lon="-7.869227">
        <ele>257.021</ele>
        <time>2016-09-26T07:25:30Z</time>
      </trkpt>
      <trkpt lat="43.762380" lon="-7.869238">
        <ele>257.115</ele>
        <time>2016-09-26T07:25:31Z</time>
      </trkpt>
      <trkpt lat="43.762379" lon="-7.869251">
        <ele>257.157</ele>
        <time>2016-09-26T07:25:32Z</time>
      </trkpt>
      <trkpt lat="43.762377" lon="-7.869264">
        <ele>257.250</ele>
        <time>2016-09-26T07:25:33Z</time>
      </trkpt>
      <trkpt lat="43.762375" lon="-7.869277">
        <ele>257.448</ele>
        <time>2016-09-26T07:25:34Z</time>
      </trkpt>
      <trkpt lat="43.762371" lon="-7.869289">
        <ele>257.764</ele>
        <time>2016-09-26T07:25:35Z</time>
      </trkpt>
      <trkpt lat="43.762368" lon="-7.869301">
        <ele>257.706</ele>
        <time>2016-09-26T07:25:36Z</time>
      </trkpt>
      <trkpt lat="43.762364" lon="-7.869313">
        <ele>257.816</ele>
        <time>2016-09-26T07:25:37Z</time>
      </trkpt>
      <trkpt lat="43.762362" lon="-7.869325">
        <ele>258.008</ele>
        <time>2016-09-26T07:25:38Z</time>
      </trkpt>
      <trkpt lat="43.762362" lon="-7.869336">
        <ele>258.227</ele>
        <time>2016-09-26T07:25:39Z</time>
      </trkpt>
      <trkpt lat="43.762360" lon="-7.869348">
        <ele>258.222</ele>
        <time>2016-09-26T07:25:40Z</time>
      </trkpt>
      <trkpt lat="43.762358" lon="-7.869359">
        <ele>258.470</ele>
        <time>2016-09-26T07:25:41Z</time>
      </trkpt>
      <trkpt lat="43.762353" lon="-7.869369">
        <ele>258.696</ele>
        <time>2016-09-26T07:25:42Z</time>
      </trkpt>
      <trkpt lat="43.762350" lon="-7.869380">
        <ele>258.760</ele>
        <time>2016-09-26T07:25:43Z</time>
      </trkpt>
      <trkpt lat="43.762350" lon="-7.869392">
        <ele>259.012</ele>
        <time>2016-09-26T07:25:44Z</time>
      </trkpt>
      <trkpt lat="43.762349" lon="-7.869403">
        <ele>259.225</ele>
        <time>2016-09-26T07:25:45Z</time>
      </trkpt>
      <trkpt lat="43.762349" lon="-7.869414">
        <ele>259.443</ele>
        <time>2016-09-26T07:25:46Z</time>
      </trkpt>
      <trkpt lat="43.762347" lon="-7.869426">
        <ele>259.491</ele>
        <time>2016-09-26T07:25:47Z</time>
      </trkpt>
      <trkpt lat="43.762345" lon="-7.869438">
        <ele>259.681</ele>
        <time>2016-09-26T07:25:48Z</time>
      </trkpt>
      <trkpt lat="43.762343" lon="-7.869451">
        <ele>259.819</ele>
        <time>2016-09-26T07:25:49Z</time>
      </trkpt>
      <trkpt lat="43.762340" lon="-7.869462">
        <ele>259.708</ele>
        <time>2016-09-26T07:25:50Z</time>
      </trkpt>
      <trkpt lat="43.762337" lon="-7.869473">
        <ele>259.910</ele>
        <time>2016-09-26T07:25:51Z</time>
      </trkpt>
      <trkpt lat="43.762336" lon="-7.869485">
        <ele>260.165</ele>
        <time>2016-09-26T07:25:52Z</time>
      </trkpt>
      <trkpt lat="43.762334" lon="-7.869498">
        <ele>260.523</ele>
        <time>2016-09-26T07:25:53Z</time>
      </trkpt>
      <trkpt lat="43.762331" lon="-7.869509">
        <ele>260.669</ele>
        <time>2016-09-26T07:25:54Z</time>
      </trkpt>
      <trkpt lat="43.762329" lon="-7.869521">
        <ele>260.963</ele>
        <time>2016-09-26T07:25:55Z</time>
      </trkpt>
      <trkpt lat="43.762326" lon="-7.869534">
        <ele>261.135</ele>
        <time>2016-09-26T07:25:56Z</time>
      </trkpt>
      <trkpt lat="43.762324" lon="-7.869544">
        <ele>261.268</ele>
        <time>2016-09-26T07:25:57Z</time>
      </trkpt>
      <trkpt lat="43.762324" lon="-7.869555">
        <ele>261.416</ele>
        <time>2016-09-26T07:25:58Z</time>
      </trkpt>
      <trkpt lat="43.762325" lon="-7.869570">
        <ele>261.622</ele>
        <time>2016-09-26T07:25:59Z</time>
      </trkpt>
      <trkpt lat="43.762324" lon="-7.869583">
        <ele>261.962</ele>
        <time>2016-09-26T07:26:00Z</time>
      </trkpt>
      <trkpt lat="43.762323" lon="-7.869597">
        <ele>261.908</ele>
        <time>2016-09-26T07:26:01Z</time>
      </trkpt>
      <trkpt lat="43.762322" lon="-7.869609">
        <ele>262.308</ele>
        <time>2016-09-26T07:26:02Z</time>
      </trkpt>
      <trkpt lat="43.762320" lon="-7.869620">
        <ele>262.443</ele>
        <time>2016-09-26T07:26:03Z</time>
      </trkpt>
      <trkpt lat="43.762319" lon="-7.869632">
        <ele>262.568</ele>
        <time>2016-09-26T07:26:04Z</time>
      </trkpt>
      <trkpt lat="43.762318" lon="-7.869643">
        <ele>262.826</ele>
        <time>2016-09-26T07:26:05Z</time>
      </trkpt>
      <trkpt lat="43.762316" lon="-7.869655">
        <ele>263.142</ele>
        <time>2016-09-26T07:26:06Z</time>
      </trkpt>
      <trkpt lat="43.762316" lon="-7.869668">
        <ele>263.146</ele>
        <time>2016-09-26T07:26:07Z</time>
      </trkpt>
      <trkpt lat="43.762317" lon="-7.869681">
        <ele>263.288</ele>
        <time>2016-09-26T07:26:08Z</time>
      </trkpt>
      <trkpt lat="43.762316" lon="-7.869694">
        <ele>263.311</ele>
        <time>2016-09-26T07:26:09Z</time>
      </trkpt>
      <trkpt lat="43.762315" lon="-7.869707">
        <ele>263.479</ele>
        <time>2016-09-26T07:26:10Z</time>
      </trkpt>
      <trkpt lat="43.762316" lon="-7.869719">
        <ele>263.638</ele>
        <time>2016-09-26T07:26:11Z</time>
      </trkpt>
      <trkpt lat="43.762318" lon="-7.869734">
        <ele>263.670</ele>
        <time>2016-09-26T07:26:12Z</time>
      </trkpt>
      <trkpt lat="43.762317" lon="-7.869749">
        <ele>263.817</ele>
        <time>2016-09-26T07:26:13Z</time>
      </trkpt>
      <trkpt lat="43.762317" lon="-7.869764">
        <ele>263.808</ele>
        <time>2016-09-26T07:26:14Z</time>
      </trkpt>
      <trkpt lat="43.762317" lon="-7.869779">
        <ele>264.164</ele>
        <time>2016-09-26T07:26:15Z</time>
      </trkpt>
      <trkpt lat="43.762317" lon="-7.869794">
        <ele>264.349</ele>
        <time>2016-09-26T07:26:16Z</time>
      </trkpt>
      <trkpt lat="43.762316" lon="-7.869807">
        <ele>264.687</ele>
        <time>2016-09-26T07:26:17Z</time>
      </trkpt>
      <trkpt lat="43.762315" lon="-7.869820">
        <ele>264.833</ele>
        <time>2016-09-26T07:26:18Z</time>
      </trkpt>
      <trkpt lat="43.762315" lon="-7.869833">
        <ele>265.047</ele>
        <time>2016-09-26T07:26:19Z</time>
      </trkpt>
      <trkpt lat="43.762316" lon="-7.869847">
        <ele>265.189</ele>
        <time>2016-09-26T07:26:20Z</time>
      </trkpt>
      <trkpt lat="43.762315" lon="-7.869861">
        <ele>265.512</ele>
        <time>2016-09-26T07:26:21Z</time>
      </trkpt>
      <trkpt lat="43.762314" lon="-7.869873">
        <ele>265.760</ele>
        <time>2016-09-26T07:26:22Z</time>
      </trkpt>
      <trkpt lat="43.762314" lon="-7.869887">
        <ele>266.024</ele>
        <time>2016-09-26T07:26:23Z</time>
      </trkpt>
      <trkpt lat="43.762314" lon="-7.869900">
        <ele>266.104</ele>
        <time>2016-09-26T07:26:24Z</time>
      </trkpt>
      <trkpt lat="43.762314" lon="-7.869913">
        <ele>266.214</ele>
        <time>2016-09-26T07:26:25Z</time>
      </trkpt>
      <trkpt lat="43.762314" lon="-7.869926">
        <ele>266.408</ele>
        <time>2016-09-26T07:26:26Z</time>
      </trkpt>
      <trkpt lat="43.762314" lon="-7.869939">
        <ele>266.663</ele>
        <time>2016-09-26T07:26:27Z</time>
      </trkpt>
      <trkpt lat="43.762313" lon="-7.869951">
        <ele>266.888</ele>
        <time>2016-09-26T07:26:28Z</time>
      </trkpt>
      <trkpt lat="43.762312" lon="-7.869963">
        <ele>266.926</ele>
        <time>2016-09-26T07:26:29Z</time>
      </trkpt>
      <trkpt lat="43.762311" lon="-7.869976">
        <ele>267.162</ele>
        <time>2016-09-26T07:26:30Z</time>
      </trkpt>
      <trkpt lat="43.762311" lon="-7.869988">
        <ele>267.226</ele>
        <time>2016-09-26T07:26:31Z</time>
      </trkpt>
      <trkpt lat="43.762311" lon="-7.870001">
        <ele>267.238</ele>
        <time>2016-09-26T07:26:32Z</time>
      </trkpt>
      <trkpt lat="43.762310" lon="-7.870013">
        <ele>267.241</ele>
        <time>2016-09-26T07:26:33Z</time>
      </trkpt>
      <trkpt lat="43.762309" lon="-7.870026">
        <ele>267.499</ele>
        <time>2016-09-26T07:26:34Z</time>
      </trkpt>
      <trkpt lat="43.762309" lon="-7.870038">
        <ele>267.535</ele>
        <time>2016-09-26T07:26:35Z</time>
      </trkpt>
      <trkpt lat="43.762308" lon="-7.870049">
        <ele>267.786</ele>
        <time>2016-09-26T07:26:36Z</time>
      </trkpt>
      <trkpt lat="43.762308" lon="-7.870061">
        <ele>267.814</ele>
        <time>2016-09-26T07:26:37Z</time>
      </trkpt>
      <trkpt lat="43.762307" lon="-7.870073">
        <ele>268.008</ele>
        <time>2016-09-26T07:26:38Z</time>
      </trkpt>
      <trkpt lat="43.762306" lon="-7.870085">
        <ele>268.214</ele>
        <time>2016-09-26T07:26:39Z</time>
      </trkpt>
      <trkpt lat="43.762305" lon="-7.870096">
        <ele>268.599</ele>
        <time>2016-09-26T07:26:40Z</time>
      </trkpt>
      <trkpt lat="43.762304" lon="-7.870109">
        <ele>268.767</ele>
        <time>2016-09-26T07:26:41Z</time>
      </trkpt>
      <trkpt lat="43.762303" lon="-7.870120">
        <ele>269.043</ele>
        <time>2016-09-26T07:26:42Z</time>
      </trkpt>
      <trkpt lat="43.762303" lon="-7.870132">
        <ele>268.927</ele>
        <time>2016-09-26T07:26:43Z</time>
      </trkpt>
      <trkpt lat="43.762303" lon="-7.870143">
        <ele>269.089</ele>
        <time>2016-09-26T07:26:44Z</time>
      </trkpt>
      <trkpt lat="43.762302" lon="-7.870154">
        <ele>269.372</ele>
        <time>2016-09-26T07:26:45Z</time>
      </trkpt>
      <trkpt lat="43.762301" lon="-7.870166">
        <ele>269.540</ele>
        <time>2016-09-26T07:26:46Z</time>
      </trkpt>
      <trkpt lat="43.762300" lon="-7.870178">
        <ele>269.652</ele>
        <time>2016-09-26T07:26:47Z</time>
      </trkpt>
      <trkpt lat="43.762297" lon="-7.870190">
        <ele>269.853</ele>
        <time>2016-09-26T07:26:48Z</time>
      </trkpt>
      <trkpt lat="43.762296" lon="-7.870202">
        <ele>269.908</ele>
        <time>2016-09-26T07:26:49Z</time>
      </trkpt>
      <trkpt lat="43.762294" lon="-7.870213">
        <ele>270.208</ele>
        <time>2016-09-26T07:26:50Z</time>
      </trkpt>
      <trkpt lat="43.762293" lon="-7.870224">
        <ele>270.266</ele>
        <time>2016-09-26T07:26:51Z</time>
      </trkpt>
      <trkpt lat="43.762292" lon="-7.870235">
        <ele>270.471</ele>
        <time>2016-09-26T07:26:52Z</time>
      </trkpt>
      <trkpt lat="43.762291" lon="-7.870246">
        <ele>270.429</ele>
        <time>2016-09-26T07:26:53Z</time>
      </trkpt>
      <trkpt lat="43.762290" lon="-7.870257">
        <ele>270.735</ele>
        <time>2016-09-26T07:26:54Z</time>
      </trkpt>
      <trkpt lat="43.762289" lon="-7.870267">
        <ele>270.989</ele>
        <time>2016-09-26T07:26:55Z</time>
      </trkpt>
      <trkpt lat="43.762288" lon="-7.870277">
        <ele>270.971</ele>
        <time>2016-09-26T07:26:56Z</time>
      </trkpt>
      <trkpt lat="43.762287" lon="-7.870287">
        <ele>270.994</ele>
        <time>2016-09-26T07:26:57Z</time>
      </trkpt>
      <trkpt lat="43.762286" lon="-7.870297">
        <ele>270.942</ele>
        <time>2016-09-26T07:26:58Z</time>
      </trkpt>
      <trkpt lat="43.762284" lon="-7.870307">
        <ele>271.072</ele>
        <time>2016-09-26T07:26:59Z</time>
      </trkpt>
      <trkpt lat="43.762282" lon="-7.870317">
        <ele>271.313</ele>
        <time>2016-09-26T07:27:00Z</time>
      </trkpt>
      <trkpt lat="43.762280" lon="-7.870326">
        <ele>271.414</ele>
        <time>2016-09-26T07:27:01Z</time>
      </trkpt>
      <trkpt lat="43.762280" lon="-7.870336">
        <ele>271.608</ele>
        <time>2016-09-26T07:27:02Z</time>
      </trkpt>
      <trkpt lat="43.762279" lon="-7.870344">
        <ele>271.858</ele>
        <time>2016-09-26T07:27:03Z</time>
      </trkpt>
      <trkpt lat="43.762277" lon="-7.870354">
        <ele>272.083</ele>
        <time>2016-09-26T07:27:04Z</time>
      </trkpt>
      <trkpt lat="43.762276" lon="-7.870363">
        <ele>272.291</ele>
        <time>2016-09-26T07:27:05Z</time>
      </trkpt>
      <trkpt lat="43.762275" lon="-7.870374">
        <ele>272.577</ele>
        <time>2016-09-26T07:27:06Z</time>
      </trkpt>
      <trkpt lat="43.762274" lon="-7.870384">
        <ele>272.611</ele>
        <time>2016-09-26T07:27:07Z</time>
      </trkpt>
      <trkpt lat="43.762273" lon="-7.870394">
        <ele>272.843</ele>
        <time>2016-09-26T07:27:08Z</time>
      </trkpt>
      <trkpt lat="43.762272" lon="-7.870402">
        <ele>273.066</ele>
        <time>2016-09-26T07:27:09Z</time>
      </trkpt>
      <trkpt lat="43.762271" lon="-7.870412">
        <ele>273.224</ele>
        <time>2016-09-26T07:27:10Z</time>
      </trkpt>
      <trkpt lat="43.762271" lon="-7.870422">
        <ele>273.326</ele>
        <time>2016-09-26T07:27:11Z</time>
      </trkpt>
      <trkpt lat="43.762270" lon="-7.870433">
        <ele>273.647</ele>
        <time>2016-09-26T07:27:12Z</time>
      </trkpt>
      <trkpt lat="43.762270" lon="-7.870443">
        <ele>273.811</ele>
        <time>2016-09-26T07:27:13Z</time>
      </trkpt>
      <trkpt lat="43.762271" lon="-7.870454">
        <ele>273.908</ele>
        <time>2016-09-26T07:27:14Z</time>
      </trkpt>
      <trkpt lat="43.762271" lon="-7.870465">
        <ele>274.263</ele>
        <time>2016-09-26T07:27:15Z</time>
      </trkpt>
      <trkpt lat="43.762271" lon="-7.870477">
        <ele>274.258</ele>
        <time>2016-09-26T07:27:16Z</time>
      </trkpt>
      <trkpt lat="43.762271" lon="-7.870489">
        <ele>274.436</ele>
        <time>2016-09-26T07:27:17Z</time>
      </trkpt>
      <trkpt lat="43.762270" lon="-7.870501">
        <ele>274.772</ele>
        <time>2016-09-26T07:27:18Z</time>
      </trkpt>
      <trkpt lat="43.762270" lon="-7.870513">
        <ele>274.956</ele>
        <time>2016-09-26T07:27:19Z</time>
      </trkpt>
      <trkpt lat="43.762269" lon="-7.870524">
        <ele>275.278</ele>
        <time>2016-09-26T07:27:20Z</time>
      </trkpt>
      <trkpt lat="43.762269" lon="-7.870536">
        <ele>275.411</ele>
        <time>2016-09-26T07:27:21Z</time>
      </trkpt>
      <trkpt lat="43.762269" lon="-7.870547">
        <ele>275.629</ele>
        <time>2016-09-26T07:27:22Z</time>
      </trkpt>
      <trkpt lat="43.762270" lon="-7.870557">
        <ele>275.745</ele>
        <time>2016-09-26T07:27:23Z</time>
      </trkpt>
      <trkpt lat="43.762271" lon="-7.870569">
        <ele>275.947</ele>
        <time>2016-09-26T07:27:24Z</time>
      </trkpt>
      <trkpt lat="43.762272" lon="-7.870580">
        <ele>276.111</ele>
        <time>2016-09-26T07:27:25Z</time>
      </trkpt>
      <trkpt lat="43.762273" lon="-7.870593">
        <ele>276.308</ele>
        <time>2016-09-26T07:27:26Z</time>
      </trkpt>
      <trkpt lat="43.762274" lon="-7.870605">
        <ele>276.495</ele>
        <time>2016-09-26T07:27:27Z</time>
      </trkpt>
      <trkpt lat="43.762274" lon="-7.870616">
        <ele>276.790</ele>
        <time>2016-09-26T07:27:28Z</time>
      </trkpt>
      <trkpt lat="43.762275" lon="-7.870628">
        <ele>276.818</ele>
        <time>2016-09-26T07:27:29Z</time>
      </trkpt>
      <trkpt lat="43.762276" lon="-7.870639">
        <ele>276.874</ele>
        <time>2016-09-26T07:27:30Z</time>
      </trkpt>
      <trkpt lat="43.762276" lon="-7.870650">
        <ele>277.058</ele>
        <time>2016-09-26T07:27:31Z</time>
      </trkpt>
      <trkpt lat="43.762277" lon="-7.870661">
        <ele>277.080</ele>
        <time>2016-09-26T07:27:32Z</time>
      </trkpt>
      <trkpt lat="43.762279" lon="-7.870671">
        <ele>277.123</ele>
        <time>2016-09-26T07:27:33Z</time>
      </trkpt>
      <trkpt lat="43.762280" lon="-7.870681">
        <ele>277.011</ele>
        <time>2016-09-26T07:27:34Z</time>
      </trkpt>
      <trkpt lat="43.762281" lon="-7.870691">
        <ele>277.153</ele>
        <time>2016-09-26T07:27:35Z</time>
      </trkpt>
      <trkpt lat="43.762283" lon="-7.870702">
        <ele>277.204</ele>
        <time>2016-09-26T07:27:36Z</time>
      </trkpt>
      <trkpt lat="43.762285" lon="-7.870712">
        <ele>277.514</ele>
        <time>2016-09-26T07:27:37Z</time>
      </trkpt>
      <trkpt lat="43.762286" lon="-7.870722">
        <ele>277.608</ele>
        <time>2016-09-26T07:27:38Z</time>
      </trkpt>
      <trkpt lat="43.762287" lon="-7.870733">
        <ele>277.766</ele>
        <time>2016-09-26T07:27:39Z</time>
      </trkpt>
      <trkpt lat="43.762290" lon="-7.870745">
        <ele>277.891</ele>
        <time>2016-09-26T07:27:40Z</time>
      </trkpt>
      <trkpt lat="43.762291" lon="-7.870756">
        <ele>278.019</ele>
        <time>2016-09-26T07:27:41Z</time>
      </trkpt>
      <trkpt lat="43.762294" lon="-7.870769">
        <ele>278.365</ele>
        <time>2016-09-26T07:27:42Z</time>
      </trkpt>
      <trkpt lat="43.762297" lon="-7.870779">
        <ele>278.459</ele>
        <time>2016-09-26T07:27:43Z</time>
      </trkpt>
      <trkpt lat="43.762300" lon="-7.870790">
        <ele>278.551</ele>
        <time>2016-09-26T07:27:44Z</time>
      </trkpt>
      <trkpt lat="43.762305" lon="-7.870802">
        <ele>278.684</ele>
        <time>2016-09-26T07:27:45Z</time>
      </trkpt>
      <trkpt lat="43.762309" lon="-7.870812">
        <ele>278.832</ele>
        <time>2016-09-26T07:27:46Z</time>
      </trkpt>
      <trkpt lat="43.762312" lon="-7.870822">
        <ele>278.998</ele>
        <time>2016-09-26T07:27:47Z</time>
      </trkpt>
      <trkpt lat="43.762315" lon="-7.870831">
        <ele>279.215</ele>
        <time>2016-09-26T07:27:48Z</time>
      </trkpt>
      <trkpt lat="43.762319" lon="-7.870838">
        <ele>279.426</ele>
        <time>2016-09-26T07:27:49Z</time>
      </trkpt>
      <trkpt lat="43.762323" lon="-7.870847">
        <ele>279.508</ele>
        <time>2016-09-26T07:27:50Z</time>
      </trkpt>
      <trkpt lat="43.762327" lon="-7.870857">
        <ele>279.720</ele>
        <time>2016-09-26T07:27:51Z</time>
      </trkpt>
      <trkpt lat="43.762332" lon="-7.870867">
        <ele>280.055</ele>
        <time>2016-09-26T07:27:52Z</time>
      </trkpt>
      <trkpt lat="43.762336" lon="-7.870878">
        <ele>280.273</ele>
        <time>2016-09-26T07:27:53Z</time>
      </trkpt>
      <trkpt lat="43.762340" lon="-7.870888">
        <ele>280.539</ele>
        <time>2016-09-26T07:27:54Z</time>
      </trkpt>
      <trkpt lat="43.762344" lon="-7.870898">
        <ele>280.723</ele>
        <time>2016-09-26T07:27:55Z</time>
      </trkpt>
      <trkpt lat="43.762347" lon="-7.870907">
        <ele>280.935</ele>
        <time>2016-09-26T07:27:56Z</time>
      </trkpt>
      <trkpt lat="43.762350" lon="-7.870917">
        <ele>281.168</ele>
        <time>2016-09-26T07:27:57Z</time>
      </trkpt>
      <trkpt lat="43.762354" lon="-7.870927">
        <ele>281.376</ele>
        <time>2016-09-26T07:27:58Z</time>
      </trkpt>
      <trkpt lat="43.762358" lon="-7.870936">
        <ele>281.768</ele>
        <time>2016-09-26T07:27:59Z</time>
      </trkpt>
      <trkpt lat="43.762362" lon="-7.870946">
        <ele>281.842</ele>
        <time>2016-09-26T07:28:00Z</time>
      </trkpt>
      <trkpt lat="43.762367" lon="-7.870955">
        <ele>282.026</ele>
        <time>2016-09-26T07:28:01Z</time>
      </trkpt>
      <trkpt lat="43.762372" lon="-7.870965">
        <ele>282.108</ele>
        <time>2016-09-26T07:28:02Z</time>
      </trkpt>
      <trkpt lat="43.762379" lon="-7.870975">
        <ele>282.227</ele>
        <time>2016-09-26T07:28:03Z</time>
      </trkpt>
      <trkpt lat="43.762386" lon="-7.870985">
        <ele>282.252</ele>
        <time>2016-09-26T07:28:04Z</time>
      </trkpt>
      <trkpt lat="43.762393" lon="-7.870995">
        <ele>282.560</ele>
        <time>2016-09-26T07:28:05Z</time>
      </trkpt>
      <trkpt lat="43.762399" lon="-7.871006">
        <ele>282.716</ele>
        <time>2016-09-26T07:28:06Z</time>
      </trkpt>
      <trkpt lat="43.762406" lon="-7.871017">
        <ele>282.730</ele>
        <time>2016-09-26T07:28:07Z</time>
      </trkpt>
      <trkpt lat="43.762413" lon="-7.871028">
        <ele>282.822</ele>
        <time>2016-09-26T07:28:08Z</time>
      </trkpt>
      <trkpt lat="43.762417" lon="-7.871039">
        <ele>283.175</ele>
        <time>2016-09-26T07:28:09Z</time>
      </trkpt>
      <trkpt lat="43.762422" lon="-7.871049">
        <ele>283.223</ele>
        <time>2016-09-26T07:28:10Z</time>
      </trkpt>
      <trkpt lat="43.762426" lon="-7.871059">
        <ele>283.554</ele>
        <time>2016-09-26T07:28:11Z</time>
      </trkpt>
      <trkpt lat="43.762430" lon="-7.871071">
        <ele>283.756</ele>
        <time>2016-09-26T07:28:12Z</time>
      </trkpt>
      <trkpt lat="43.762435" lon="-7.871082">
        <ele>283.811</ele>
        <time>2016-09-26T07:28:13Z</time>
      </trkpt>
      <trkpt lat="43.762441" lon="-7.871094">
        <ele>283.808</ele>
        <time>2016-09-26T07:28:14Z</time>
      </trkpt>
      <trkpt lat="43.762448" lon="-7.871108">
        <ele>283.836</ele>
        <time>2016-09-26T07:28:15Z</time>
      </trkpt>
      <trkpt lat="43.762453" lon="-7.871119">
        <ele>283.991</ele>
        <time>2016-09-26T07:28:16Z</time>
      </trkpt>
      <trkpt lat="43.762459" lon="-7.871131">
        <ele>284.089</ele>
        <time>2016-09-26T07:28:17Z</time>
      </trkpt>
      <trkpt lat="43.762465" lon="-7.871144">
        <ele>284.475</ele>
        <time>2016-09-26T07:28:18Z</time>
      </trkpt>
      <trkpt lat="43.762470" lon="-7.871157">
        <ele>284.799</ele>
        <time>2016-09-26T07:28:19Z</time>
      </trkpt>
      <trkpt lat="43.762474" lon="-7.871168">
        <ele>284.981</ele>
        <time>2016-09-26T07:28:20Z</time>
      </trkpt>
      <trkpt lat="43.762479" lon="-7.871180">
        <ele>285.144</ele>
        <time>2016-09-26T07:28:21Z</time>
      </trkpt>
      <trkpt lat="43.762485" lon="-7.871195">
        <ele>285.322</ele>
        <time>2016-09-26T07:28:22Z</time>
      </trkpt>
      <trkpt lat="43.762491" lon="-7.871209">
        <ele>285.431</ele>
        <time>2016-09-26T07:28:23Z</time>
      </trkpt>
      <trkpt lat="43.762495" lon="-7.871220">
        <ele>285.661</ele>
        <time>2016-09-26T07:28:24Z</time>
      </trkpt>
      <trkpt lat="43.762499" lon="-7.871230">
        <ele>285.607</ele>
        <time>2016-09-26T07:28:25Z</time>
      </trkpt>
      <trkpt lat="43.762504" lon="-7.871238">
        <ele>285.908</ele>
        <time>2016-09-26T07:28:26Z</time>
      </trkpt>
      <trkpt lat="43.762508" lon="-7.871246">
        <ele>286.154</ele>
        <time>2016-09-26T07:28:27Z</time>
      </trkpt>
      <trkpt lat="43.762511" lon="-7.871257">
        <ele>286.199</ele>
        <time>2016-09-26T07:28:28Z</time>
      </trkpt>
      <trkpt lat="43.762516" lon="-7.871270">
        <ele>286.487</ele>
        <time>2016-09-26T07:28:29Z</time>
      </trkpt>
      <trkpt lat="43.762520" lon="-7.871283">
        <ele>286.563</ele>
        <time>2016-09-26T07:28:30Z</time>
      </trkpt>
      <trkpt lat="43.762525" lon="-7.871296">
        <ele>286.617</ele>
        <time>2016-09-26T07:28:31Z</time>
      </trkpt>
      <trkpt lat="43.762530" lon="-7.871310">
        <ele>286.739</ele>
        <time>2016-09-26T07:28:32Z</time>
      </trkpt>
      <trkpt lat="43.762536" lon="-7.871324">
        <ele>286.762</ele>
        <time>2016-09-26T07:28:33Z</time>
      </trkpt>
      <trkpt lat="43.762541" lon="-7.871338">
        <ele>286.960</ele>
        <time>2016-09-26T07:28:34Z</time>
      </trkpt>
      <trkpt lat="43.762545" lon="-7.871352">
        <ele>287.093</ele>
        <time>2016-09-26T07:28:35Z</time>
      </trkpt>
      <trkpt lat="43.762549" lon="-7.871367">
        <ele>287.165</ele>
        <time>2016-09-26T07:28:36Z</time>
      </trkpt>
      <trkpt lat="43.762553" lon="-7.871382">
        <ele>287.221</ele>
        <time>2016-09-26T07:28:37Z</time>
      </trkpt>
      <trkpt lat="43.762557" lon="-7.871395">
        <ele>287.408</ele>
        <time>2016-09-26T07:28:38Z</time>
      </trkpt>
      <trkpt lat="43.762562" lon="-7.871409">
        <ele>287.410</ele>
        <time>2016-09-26T07:28:39Z</time>
      </trkpt>
      <trkpt lat="43.762567" lon="-7.871422">
        <ele>287.555</ele>
        <time>2016-09-26T07:28:40Z</time>
      </trkpt>
      <trkpt lat="43.762573" lon="-7.871435">
        <ele>287.523</ele>
        <time>2016-09-26T07:28:41Z</time>
      </trkpt>
      <trkpt lat="43.762577" lon="-7.871447">
        <ele>287.489</ele>
        <time>2016-09-26T07:28:42Z</time>
      </trkpt>
      <trkpt lat="43.762581" lon="-7.871459">
        <ele>287.453</ele>
        <time>2016-09-26T07:28:43Z</time>
      </trkpt>
      <trkpt lat="43.762585" lon="-7.871472">
        <ele>287.625</ele>
        <time>2016-09-26T07:28:44Z</time>
      </trkpt>
      <trkpt lat="43.762590" lon="-7.871487">
        <ele>287.598</ele>
        <time>2016-09-26T07:28:45Z</time>
      </trkpt>
      <trkpt lat="43.762593" lon="-7.871500">
        <ele>287.616</ele>
        <time>2016-09-26T07:28:46Z</time>
      </trkpt>
      <trkpt lat="43.762594" lon="-7.871507">
        <ele>287.779</ele>
        <time>2016-09-26T07:28:47Z</time>
      </trkpt>
      <trkpt lat="43.762594" lon="-7.871508">
        <ele>287.805</ele>
        <time>2016-09-26T07:28:48Z</time>
      </trkpt>
      <trkpt lat="43.762594" lon="-7.871512">
        <ele>287.725</ele>
        <time>2016-09-26T07:28:49Z</time>
      </trkpt>
      <trkpt lat="43.762594" lon="-7.871512">
        <ele>287.708</ele>
        <time>2016-09-26T07:28:49Z</time>
      </trkpt>
      <trkpt lat="43.762594" lon="-7.871512">
        <ele>287.788</ele>
        <time>2016-09-26T07:28:49Z</time>
      </trkpt>
      <trkpt lat="43.762616" lon="-7.871606">
        <ele>287.923</ele>
        <time>2016-09-26T07:28:56Z</time>
      </trkpt>
      <trkpt lat="43.762615" lon="-7.871618">
        <ele>287.941</ele>
        <time>2016-09-26T07:28:57Z</time>
      </trkpt>
      <trkpt lat="43.762613" lon="-7.871625">
        <ele>287.817</ele>
        <time>2016-09-26T07:28:58Z</time>
      </trkpt>
      <trkpt lat="43.762611" lon="-7.871630">
        <ele>287.781</ele>
        <time>2016-09-26T07:28:59Z</time>
      </trkpt>
      <trkpt lat="43.762608" lon="-7.871634">
        <ele>287.573</ele>
        <time>2016-09-26T07:29:00Z</time>
      </trkpt>
      <trkpt lat="43.762607" lon="-7.871636">
        <ele>287.576</ele>
        <time>2016-09-26T07:29:01Z</time>
      </trkpt>
      <trkpt lat="43.762606" lon="-7.871638">
        <ele>287.654</ele>
        <time>2016-09-26T07:29:02Z</time>
      </trkpt>
      <trkpt lat="43.762606" lon="-7.871639">
        <ele>287.575</ele>
        <time>2016-09-26T07:29:03Z</time>
      </trkpt>
      <trkpt lat="43.762606" lon="-7.871639">
        <ele>287.528</ele>
        <time>2016-09-26T07:29:03Z</time>
      </trkpt>
      <trkpt lat="43.762606" lon="-7.871639">
        <ele>287.520</ele>
        <time>2016-09-26T07:29:03Z</time>
      </trkpt>
      <trkpt lat="43.762547" lon="-7.871695">
        <ele>288.308</ele>
        <time>2016-09-26T07:29:14Z</time>
      </trkpt>
      <trkpt lat="43.762540" lon="-7.871703">
        <ele>288.398</ele>
        <time>2016-09-26T07:29:15Z</time>
      </trkpt>
      <trkpt lat="43.762532" lon="-7.871712">
        <ele>288.283</ele>
        <time>2016-09-26T07:29:16Z</time>
      </trkpt>
      <trkpt lat="43.762524" lon="-7.871722">
        <ele>288.261</ele>
        <time>2016-09-26T07:29:17Z</time>
      </trkpt>
      <trkpt lat="43.762515" lon="-7.871732">
        <ele>288.227</ele>
        <time>2016-09-26T07:29:18Z</time>
      </trkpt>
      <trkpt lat="43.762507" lon="-7.871744">
        <ele>288.271</ele>
        <time>2016-09-26T07:29:19Z</time>
      </trkpt>
      <trkpt lat="43.762497" lon="-7.871756">
        <ele>288.173</ele>
        <time>2016-09-26T07:29:20Z</time>
      </trkpt>
      <trkpt lat="43.762489" lon="-7.871769">
        <ele>288.346</ele>
        <time>2016-09-26T07:29:21Z</time>
      </trkpt>
      <trkpt lat="43.762481" lon="-7.871783">
        <ele>288.484</ele>
        <time>2016-09-26T07:29:22Z</time>
      </trkpt>
      <trkpt lat="43.762473" lon="-7.871795">
        <ele>288.414</ele>
        <time>2016-09-26T07:29:23Z</time>
      </trkpt>
      <trkpt lat="43.762465" lon="-7.871806">
        <ele>288.454</ele>
        <time>2016-09-26T07:29:24Z</time>
      </trkpt>
      <trkpt lat="43.762457" lon="-7.871816">
        <ele>288.309</ele>
        <time>2016-09-26T07:29:25Z</time>
      </trkpt>
      <trkpt lat="43.762448" lon="-7.871825">
        <ele>288.508</ele>
        <time>2016-09-26T07:29:26Z</time>
      </trkpt>
      <trkpt lat="43.762438" lon="-7.871835">
        <ele>288.812</ele>
        <time>2016-09-26T07:29:27Z</time>
      </trkpt>
      <trkpt lat="43.762431" lon="-7.871846">
        <ele>288.817</ele>
        <time>2016-09-26T07:29:28Z</time>
      </trkpt>
      <trkpt lat="43.762424" lon="-7.871857">
        <ele>288.955</ele>
        <time>2016-09-26T07:29:29Z</time>
      </trkpt>
      <trkpt lat="43.762418" lon="-7.871867">
        <ele>289.181</ele>
        <time>2016-09-26T07:29:30Z</time>
      </trkpt>
      <trkpt lat="43.762409" lon="-7.871876">
        <ele>289.275</ele>
        <time>2016-09-26T07:29:31Z</time>
      </trkpt>
      <trkpt lat="43.762401" lon="-7.871886">
        <ele>289.347</ele>
        <time>2016-09-26T07:29:32Z</time>
      </trkpt>
      <trkpt lat="43.762395" lon="-7.871897">
        <ele>289.220</ele>
        <time>2016-09-26T07:29:33Z</time>
      </trkpt>
      <trkpt lat="43.762390" lon="-7.871909">
        <ele>289.238</ele>
        <time>2016-09-26T07:29:34Z</time>
      </trkpt>
      <trkpt lat="43.762384" lon="-7.871920">
        <ele>289.379</ele>
        <time>2016-09-26T07:29:35Z</time>
      </trkpt>
      <trkpt lat="43.762377" lon="-7.871930">
        <ele>289.405</ele>
        <time>2016-09-26T07:29:36Z</time>
      </trkpt>
      <trkpt lat="43.762370" lon="-7.871940">
        <ele>289.425</ele>
        <time>2016-09-26T07:29:37Z</time>
      </trkpt>
      <trkpt lat="43.762364" lon="-7.871951">
        <ele>289.608</ele>
        <time>2016-09-26T07:29:38Z</time>
      </trkpt>
      <trkpt lat="43.762357" lon="-7.871963">
        <ele>289.998</ele>
        <time>2016-09-26T07:29:39Z</time>
      </trkpt>
      <trkpt lat="43.762350" lon="-7.871974">
        <ele>290.143</ele>
        <time>2016-09-26T07:29:40Z</time>
      </trkpt>
      <trkpt lat="43.762342" lon="-7.871985">
        <ele>290.251</ele>
        <time>2016-09-26T07:29:41Z</time>
      </trkpt>
      <trkpt lat="43.762334" lon="-7.871996">
        <ele>290.397</ele>
        <time>2016-09-26T07:29:42Z</time>
      </trkpt>
      <trkpt lat="43.762326" lon="-7.872008">
        <ele>290.411</ele>
        <time>2016-09-26T07:29:43Z</time>
      </trkpt>
      <trkpt lat="43.762318" lon="-7.872018">
        <ele>290.513</ele>
        <time>2016-09-26T07:29:44Z</time>
      </trkpt>
      <trkpt lat="43.762310" lon="-7.872031">
        <ele>290.796</ele>
        <time>2016-09-26T07:29:45Z</time>
      </trkpt>
      <trkpt lat="43.762301" lon="-7.872043">
        <ele>290.844</ele>
        <time>2016-09-26T07:29:46Z</time>
      </trkpt>
      <trkpt lat="43.762292" lon="-7.872052">
        <ele>291.062</ele>
        <time>2016-09-26T07:29:47Z</time>
      </trkpt>
      <trkpt lat="43.762282" lon="-7.872060">
        <ele>291.183</ele>
        <time>2016-09-26T07:29:48Z</time>
      </trkpt>
      <trkpt lat="43.762272" lon="-7.872068">
        <ele>291.311</ele>
        <time>2016-09-26T07:29:49Z</time>
      </trkpt>
      <trkpt lat="43.762263" lon="-7.872075">
        <ele>291.408</ele>
        <time>2016-09-26T07:29:50Z</time>
      </trkpt>
      <trkpt lat="43.762254" lon="-7.872081">
        <ele>291.527</ele>
        <time>2016-09-26T07:29:51Z</time>
      </trkpt>
      <trkpt lat="43.762246" lon="-7.872087">
        <ele>291.672</ele>
        <time>2016-09-26T07:29:52Z</time>
      </trkpt>
      <trkpt lat="43.762239" lon="-7.872093">
        <ele>291.880</ele>
        <time>2016-09-26T07:29:53Z</time>
      </trkpt>
      <trkpt lat="43.762231" lon="-7.872099">
        <ele>291.926</ele>
        <time>2016-09-26T07:29:54Z</time>
      </trkpt>
      <trkpt lat="43.762222" lon="-7.872106">
        <ele>292.060</ele>
        <time>2016-09-26T07:29:55Z</time>
      </trkpt>
      <trkpt lat="43.762212" lon="-7.872111">
        <ele>292.052</ele>
        <time>2016-09-26T07:29:56Z</time>
      </trkpt>
      <trkpt lat="43.762202" lon="-7.872114">
        <ele>292.165</ele>
        <time>2016-09-26T07:29:57Z</time>
      </trkpt>
      <trkpt lat="43.762192" lon="-7.872118">
        <ele>292.223</ele>
        <time>2016-09-26T07:29:58Z</time>
      </trkpt>
      <trkpt lat="43.762182" lon="-7.872121">
        <ele>292.449</ele>
        <time>2016-09-26T07:29:59Z</time>
      </trkpt>
      <trkpt lat="43.762172" lon="-7.872124">
        <ele>292.502</ele>
        <time>2016-09-26T07:30:00Z</time>
      </trkpt>
      <trkpt lat="43.762163" lon="-7.872126">
        <ele>292.722</ele>
        <time>2016-09-26T07:30:01Z</time>
      </trkpt>
      <trkpt lat="43.762156" lon="-7.872128">
        <ele>292.808</ele>
        <time>2016-09-26T07:30:02Z</time>
      </trkpt>
      <trkpt lat="43.762148" lon="-7.872129">
        <ele>292.855</ele>
        <time>2016-09-26T07:30:03Z</time>
      </trkpt>
      <trkpt lat="43.762140" lon="-7.872130">
        <ele>292.990</ele>
        <time>2016-09-26T07:30:04Z</time>
      </trkpt>
      <trkpt lat="43.762132" lon="-7.872129">
        <ele>293.158</ele>
        <time>2016-09-26T07:30:05Z</time>
      </trkpt>
      <trkpt lat="43.762124" lon="-7.872128">
        <ele>293.474</ele>
        <time>2016-09-26T07:30:06Z</time>
      </trkpt>
      <trkpt lat="43.762116" lon="-7.872128">
        <ele>293.558</ele>
        <time>2016-09-26T07:30:07Z</time>
      </trkpt>
      <trkpt lat="43.762108" lon="-7.872129">
        <ele>293.870</ele>
        <time>2016-09-26T07:30:08Z</time>
      </trkpt>
      <trkpt lat="43.762102" lon="-7.872131">
        <ele>293.823</ele>
        <time>2016-09-26T07:30:09Z</time>
      </trkpt>
      <trkpt lat="43.762097" lon="-7.872133">
        <ele>293.981</ele>
        <time>2016-09-26T07:30:10Z</time>
      </trkpt>
      <trkpt lat="43.762089" lon="-7.872133">
        <ele>294.359</ele>
        <time>2016-09-26T07:30:11Z</time>
      </trkpt>
      <trkpt lat="43.762081" lon="-7.872132">
        <ele>294.403</ele>
        <time>2016-09-26T07:30:12Z</time>
      </trkpt>
      <trkpt lat="43.762073" lon="-7.872129">
        <ele>294.423</ele>
        <time>2016-09-26T07:30:13Z</time>
      </trkpt>
      <trkpt lat="43.762064" lon="-7.872127">
        <ele>294.408</ele>
        <time>2016-09-26T07:30:14Z</time>
      </trkpt>
      <trkpt lat="43.762055" lon="-7.872124">
        <ele>294.466</ele>
        <time>2016-09-26T07:30:15Z</time>
      </trkpt>
      <trkpt lat="43.762047" lon="-7.872122">
        <ele>294.571</ele>
        <time>2016-09-26T07:30:16Z</time>
      </trkpt>
      <trkpt lat="43.762039" lon="-7.872119">
        <ele>294.749</ele>
        <time>2016-09-26T07:30:17Z</time>
      </trkpt>
      <trkpt lat="43.762030" lon="-7.872117">
        <ele>294.865</ele>
        <time>2016-09-26T07:30:18Z</time>
      </trkpt>
      <trkpt lat="43.762022" lon="-7.872117">
        <ele>295.019</ele>
        <time>2016-09-26T07:30:19Z</time>
      </trkpt>
      <trkpt lat="43.762014" lon="-7.872115">
        <ele>295.121</ele>
        <time>2016-09-26T07:30:20Z</time>
      </trkpt>
      <trkpt lat="43.762007" lon="-7.872116">
        <ele>295.344</ele>
        <time>2016-09-26T07:30:21Z</time>
      </trkpt>
      <trkpt lat="43.761999" lon="-7.872115">
        <ele>295.522</ele>
        <time>2016-09-26T07:30:22Z</time>
      </trkpt>
      <trkpt lat="43.761992" lon="-7.872115">
        <ele>295.726</ele>
        <time>2016-09-26T07:30:23Z</time>
      </trkpt>
      <trkpt lat="43.761984" lon="-7.872113">
        <ele>296.047</ele>
        <time>2016-09-26T07:30:24Z</time>
      </trkpt>
      <trkpt lat="43.761975" lon="-7.872109">
        <ele>296.311</ele>
        <time>2016-09-26T07:30:25Z</time>
      </trkpt>
      <trkpt lat="43.761966" lon="-7.872106">
        <ele>296.408</ele>
        <time>2016-09-26T07:30:26Z</time>
      </trkpt>
      <trkpt lat="43.761956" lon="-7.872104">
        <ele>296.663</ele>
        <time>2016-09-26T07:30:27Z</time>
      </trkpt>
      <trkpt lat="43.761946" lon="-7.872102">
        <ele>296.668</ele>
        <time>2016-09-26T07:30:28Z</time>
      </trkpt>
      <trkpt lat="43.761937" lon="-7.872100">
        <ele>296.796</ele>
        <time>2016-09-26T07:30:29Z</time>
      </trkpt>
      <trkpt lat="43.761928" lon="-7.872099">
        <ele>296.972</ele>
        <time>2016-09-26T07:30:30Z</time>
      </trkpt>
      <trkpt lat="43.761920" lon="-7.872098">
        <ele>297.126</ele>
        <time>2016-09-26T07:30:31Z</time>
      </trkpt>
      <trkpt lat="43.761912" lon="-7.872097">
        <ele>297.358</ele>
        <time>2016-09-26T07:30:32Z</time>
      </trkpt>
      <trkpt lat="43.761904" lon="-7.872096">
        <ele>297.441</ele>
        <time>2016-09-26T07:30:33Z</time>
      </trkpt>
      <trkpt lat="43.761896" lon="-7.872095">
        <ele>297.799</ele>
        <time>2016-09-26T07:30:34Z</time>
      </trkpt>
      <trkpt lat="43.761888" lon="-7.872094">
        <ele>297.839</ele>
        <time>2016-09-26T07:30:35Z</time>
      </trkpt>
      <trkpt lat="43.761881" lon="-7.872093">
        <ele>298.001</ele>
        <time>2016-09-26T07:30:36Z</time>
      </trkpt>
      <trkpt lat="43.761872" lon="-7.872092">
        <ele>298.221</ele>
        <time>2016-09-26T07:30:37Z</time>
      </trkpt>
      <trkpt lat="43.761862" lon="-7.872090">
        <ele>298.408</ele>
        <time>2016-09-26T07:30:38Z</time>
      </trkpt>
      <trkpt lat="43.761852" lon="-7.872088">
        <ele>298.514</ele>
        <time>2016-09-26T07:30:39Z</time>
      </trkpt>
      <trkpt lat="43.761843" lon="-7.872087">
        <ele>298.649</ele>
        <time>2016-09-26T07:30:40Z</time>
      </trkpt>
      <trkpt lat="43.761833" lon="-7.872086">
        <ele>298.947</ele>
        <time>2016-09-26T07:30:41Z</time>
      </trkpt>
      <trkpt lat="43.761822" lon="-7.872085">
        <ele>298.973</ele>
        <time>2016-09-26T07:30:42Z</time>
      </trkpt>
      <trkpt lat="43.761812" lon="-7.872084">
        <ele>298.937</ele>
        <time>2016-09-26T07:30:43Z</time>
      </trkpt>
      <trkpt lat="43.761802" lon="-7.872084">
        <ele>299.119</ele>
        <time>2016-09-26T07:30:44Z</time>
      </trkpt>
      <trkpt lat="43.761792" lon="-7.872083">
        <ele>299.252</ele>
        <time>2016-09-26T07:30:45Z</time>
      </trkpt>
      <trkpt lat="43.761784" lon="-7.872084">
        <ele>299.340</ele>
        <time>2016-09-26T07:30:46Z</time>
      </trkpt>
      <trkpt lat="43.761775" lon="-7.872084">
        <ele>299.454</ele>
        <time>2016-09-26T07:30:47Z</time>
      </trkpt>
      <trkpt lat="43.761765" lon="-7.872084">
        <ele>299.456</ele>
        <time>2016-09-26T07:30:48Z</time>
      </trkpt>
      <trkpt lat="43.761756" lon="-7.872085">
        <ele>299.511</ele>
        <time>2016-09-26T07:30:49Z</time>
      </trkpt>
      <trkpt lat="43.761743" lon="-7.872088">
        <ele>299.608</ele>
        <time>2016-09-26T07:30:50Z</time>
      </trkpt>
      <trkpt lat="43.761735" lon="-7.872088">
        <ele>299.856</ele>
        <time>2016-09-26T07:30:51Z</time>
      </trkpt>
      <trkpt lat="43.761730" lon="-7.872090">
        <ele>300.111</ele>
        <time>2016-09-26T07:30:52Z</time>
      </trkpt>
      <trkpt lat="43.761721" lon="-7.872089">
        <ele>300.569</ele>
        <time>2016-09-26T07:30:53Z</time>
      </trkpt>
      <trkpt lat="43.761713" lon="-7.872088">
        <ele>300.825</ele>
        <time>2016-09-26T07:30:54Z</time>
      </trkpt>
      <trkpt lat="43.761704" lon="-7.872087">
        <ele>300.959</ele>
        <time>2016-09-26T07:30:55Z</time>
      </trkpt>
      <trkpt lat="43.761693" lon="-7.872085">
        <ele>301.091</ele>
        <time>2016-09-26T07:30:56Z</time>
      </trkpt>
      <trkpt lat="43.761684" lon="-7.872085">
        <ele>301.224</ele>
        <time>2016-09-26T07:30:57Z</time>
      </trkpt>
      <trkpt lat="43.761674" lon="-7.872083">
        <ele>301.352</ele>
        <time>2016-09-26T07:30:58Z</time>
      </trkpt>
      <trkpt lat="43.761664" lon="-7.872082">
        <ele>301.473</ele>
        <time>2016-09-26T07:30:59Z</time>
      </trkpt>
      <trkpt lat="43.761652" lon="-7.872079">
        <ele>301.585</ele>
        <time>2016-09-26T07:31:00Z</time>
      </trkpt>
      <trkpt lat="43.761640" lon="-7.872077">
        <ele>302.013</ele>
        <time>2016-09-26T07:31:01Z</time>
      </trkpt>
      <trkpt lat="43.761628" lon="-7.872075">
        <ele>302.208</ele>
        <time>2016-09-26T07:31:02Z</time>
      </trkpt>
      <trkpt lat="43.761617" lon="-7.872073">
        <ele>302.328</ele>
        <time>2016-09-26T07:31:03Z</time>
      </trkpt>
      <trkpt lat="43.761608" lon="-7.872073">
        <ele>302.413</ele>
        <time>2016-09-26T07:31:04Z</time>
      </trkpt>
      <trkpt lat="43.761599" lon="-7.872073">
        <ele>302.581</ele>
        <time>2016-09-26T07:31:05Z</time>
      </trkpt>
      <trkpt lat="43.761591" lon="-7.872073">
        <ele>302.637</ele>
        <time>2016-09-26T07:31:06Z</time>
      </trkpt>
      <trkpt lat="43.761581" lon="-7.872072">
        <ele>302.711</ele>
        <time>2016-09-26T07:31:07Z</time>
      </trkpt>
      <trkpt lat="43.761571" lon="-7.872073">
        <ele>302.873</ele>
        <time>2016-09-26T07:31:08Z</time>
      </trkpt>
      <trkpt lat="43.761562" lon="-7.872073">
        <ele>302.936</ele>
        <time>2016-09-26T07:31:09Z</time>
      </trkpt>
      <trkpt lat="43.761555" lon="-7.872074">
        <ele>303.114</ele>
        <time>2016-09-26T07:31:10Z</time>
      </trkpt>
      <trkpt lat="43.761546" lon="-7.872074">
        <ele>303.215</ele>
        <time>2016-09-26T07:31:11Z</time>
      </trkpt>
      <trkpt lat="43.761536" lon="-7.872075">
        <ele>303.165</ele>
        <time>2016-09-26T07:31:12Z</time>
      </trkpt>
      <trkpt lat="43.761527" lon="-7.872077">
        <ele>303.211</ele>
        <time>2016-09-26T07:31:13Z</time>
      </trkpt>
      <trkpt lat="43.761518" lon="-7.872080">
        <ele>303.308</ele>
        <time>2016-09-26T07:31:14Z</time>
      </trkpt>
      <trkpt lat="43.761509" lon="-7.872081">
        <ele>303.422</ele>
        <time>2016-09-26T07:31:15Z</time>
      </trkpt>
      <trkpt lat="43.761500" lon="-7.872083">
        <ele>303.677</ele>
        <time>2016-09-26T07:31:16Z</time>
      </trkpt>
      <trkpt lat="43.761490" lon="-7.872084">
        <ele>304.085</ele>
        <time>2016-09-26T07:31:17Z</time>
      </trkpt>
      <trkpt lat="43.761480" lon="-7.872087">
        <ele>304.141</ele>
        <time>2016-09-26T07:31:18Z</time>
      </trkpt>
      <trkpt lat="43.761470" lon="-7.872090">
        <ele>304.245</ele>
        <time>2016-09-26T07:31:19Z</time>
      </trkpt>
      <trkpt lat="43.761461" lon="-7.872093">
        <ele>304.337</ele>
        <time>2016-09-26T07:31:20Z</time>
      </trkpt>
      <trkpt lat="43.761452" lon="-7.872096">
        <ele>304.450</ele>
        <time>2016-09-26T07:31:21Z</time>
      </trkpt>
      <trkpt lat="43.761443" lon="-7.872097">
        <ele>304.648</ele>
        <time>2016-09-26T07:31:22Z</time>
      </trkpt>
      <trkpt lat="43.761434" lon="-7.872098">
        <ele>304.735</ele>
        <time>2016-09-26T07:31:23Z</time>
      </trkpt>
      <trkpt lat="43.761424" lon="-7.872098">
        <ele>304.986</ele>
        <time>2016-09-26T07:31:24Z</time>
      </trkpt>
      <trkpt lat="43.761415" lon="-7.872099">
        <ele>305.114</ele>
        <time>2016-09-26T07:31:25Z</time>
      </trkpt>
      <trkpt lat="43.761404" lon="-7.872101">
        <ele>305.208</ele>
        <time>2016-09-26T07:31:26Z</time>
      </trkpt>
      <trkpt lat="43.761394" lon="-7.872102">
        <ele>305.454</ele>
        <time>2016-09-26T07:31:27Z</time>
      </trkpt>
      <trkpt lat="43.761384" lon="-7.872104">
        <ele>305.619</ele>
        <time>2016-09-26T07:31:28Z</time>
      </trkpt>
      <trkpt lat="43.761374" lon="-7.872105">
        <ele>305.777</ele>
        <time>2016-09-26T07:31:29Z</time>
      </trkpt>
      <trkpt lat="43.761366" lon="-7.872105">
        <ele>305.963</ele>
        <time>2016-09-26T07:31:30Z</time>
      </trkpt>
      <trkpt lat="43.761358" lon="-7.872105">
        <ele>306.297</ele>
        <time>2016-09-26T07:31:31Z</time>
      </trkpt>
      <trkpt lat="43.761349" lon="-7.872105">
        <ele>306.499</ele>
        <time>2016-09-26T07:31:32Z</time>
      </trkpt>
      <trkpt lat="43.761339" lon="-7.872105">
        <ele>306.582</ele>
        <time>2016-09-26T07:31:33Z</time>
      </trkpt>
      <trkpt lat="43.761330" lon="-7.872107">
        <ele>306.650</ele>
        <time>2016-09-26T07:31:34Z</time>
      </trkpt>
      <trkpt lat="43.761322" lon="-7.872108">
        <ele>306.789</ele>
        <time>2016-09-26T07:31:35Z</time>
      </trkpt>
      <trkpt lat="43.761315" lon="-7.872110">
        <ele>306.806</ele>
        <time>2016-09-26T07:31:36Z</time>
      </trkpt>
      <trkpt lat="43.761307" lon="-7.872112">
        <ele>307.026</ele>
        <time>2016-09-26T07:31:37Z</time>
      </trkpt>
      <trkpt lat="43.761297" lon="-7.872113">
        <ele>307.208</ele>
        <time>2016-09-26T07:31:38Z</time>
      </trkpt>
      <trkpt lat="43.761288" lon="-7.872115">
        <ele>307.419</ele>
        <time>2016-09-26T07:31:39Z</time>
      </trkpt>
      <trkpt lat="43.761279" lon="-7.872115">
        <ele>307.674</ele>
        <time>2016-09-26T07:31:40Z</time>
      </trkpt>
      <trkpt lat="43.761268" lon="-7.872115">
        <ele>307.772</ele>
        <time>2016-09-26T07:31:41Z</time>
      </trkpt>
      <trkpt lat="43.761258" lon="-7.872117">
        <ele>307.888</ele>
        <time>2016-09-26T07:31:42Z</time>
      </trkpt>
      <trkpt lat="43.761248" lon="-7.872120">
        <ele>308.042</ele>
        <time>2016-09-26T07:31:43Z</time>
      </trkpt>
      <trkpt lat="43.761239" lon="-7.872122">
        <ele>308.144</ele>
        <time>2016-09-26T07:31:44Z</time>
      </trkpt>
      <trkpt lat="43.761230" lon="-7.872125">
        <ele>308.437</ele>
        <time>2016-09-26T07:31:45Z</time>
      </trkpt>
      <trkpt lat="43.761221" lon="-7.872127">
        <ele>308.325</ele>
        <time>2016-09-26T07:31:46Z</time>
      </trkpt>
      <trkpt lat="43.761214" lon="-7.872131">
        <ele>308.426</ele>
        <time>2016-09-26T07:31:47Z</time>
      </trkpt>
      <trkpt lat="43.761207" lon="-7.872135">
        <ele>308.647</ele>
        <time>2016-09-26T07:31:48Z</time>
      </trkpt>
      <trkpt lat="43.761198" lon="-7.872139">
        <ele>308.611</ele>
        <time>2016-09-26T07:31:49Z</time>
      </trkpt>
      <trkpt lat="43.761190" lon="-7.872142">
        <ele>308.808</ele>
        <time>2016-09-26T07:31:50Z</time>
      </trkpt>
      <trkpt lat="43.761180" lon="-7.872143">
        <ele>309.063</ele>
        <time>2016-09-26T07:31:51Z</time>
      </trkpt>
      <trkpt lat="43.761171" lon="-7.872144">
        <ele>309.238</ele>
        <time>2016-09-26T07:31:52Z</time>
      </trkpt>
      <trkpt lat="43.761162" lon="-7.872146">
        <ele>309.576</ele>
        <time>2016-09-26T07:31:53Z</time>
      </trkpt>
      <trkpt lat="43.761153" lon="-7.872148">
        <ele>309.722</ele>
        <time>2016-09-26T07:31:54Z</time>
      </trkpt>
      <trkpt lat="43.761146" lon="-7.872150">
        <ele>309.896</ele>
        <time>2016-09-26T07:31:55Z</time>
      </trkpt>
      <trkpt lat="43.761137" lon="-7.872151">
        <ele>310.068</ele>
        <time>2016-09-26T07:31:56Z</time>
      </trkpt>
      <trkpt lat="43.761129" lon="-7.872151">
        <ele>310.171</ele>
        <time>2016-09-26T07:31:57Z</time>
      </trkpt>
      <trkpt lat="43.761120" lon="-7.872150">
        <ele>310.089</ele>
        <time>2016-09-26T07:31:58Z</time>
      </trkpt>
      <trkpt lat="43.761110" lon="-7.872149">
        <ele>310.349</ele>
        <time>2016-09-26T07:31:59Z</time>
      </trkpt>
      <trkpt lat="43.761101" lon="-7.872150">
        <ele>310.402</ele>
        <time>2016-09-26T07:32:00Z</time>
      </trkpt>
      <trkpt lat="43.761092" lon="-7.872151">
        <ele>310.622</ele>
        <time>2016-09-26T07:32:01Z</time>
      </trkpt>
      <trkpt lat="43.761083" lon="-7.872150">
        <ele>310.808</ele>
        <time>2016-09-26T07:32:02Z</time>
      </trkpt>
      <trkpt lat="43.761075" lon="-7.872150">
        <ele>311.045</ele>
        <time>2016-09-26T07:32:03Z</time>
      </trkpt>
      <trkpt lat="43.761068" lon="-7.872149">
        <ele>311.140</ele>
        <time>2016-09-26T07:32:04Z</time>
      </trkpt>
      <trkpt lat="43.761060" lon="-7.872149">
        <ele>311.428</ele>
        <time>2016-09-26T07:32:05Z</time>
      </trkpt>
      <trkpt lat="43.761052" lon="-7.872147">
        <ele>311.664</ele>
        <time>2016-09-26T07:32:06Z</time>
      </trkpt>
      <trkpt lat="43.761045" lon="-7.872147">
        <ele>311.798</ele>
        <time>2016-09-26T07:32:07Z</time>
      </trkpt>
      <trkpt lat="43.761037" lon="-7.872147">
        <ele>312.120</ele>
        <time>2016-09-26T07:32:08Z</time>
      </trkpt>
      <trkpt lat="43.761028" lon="-7.872145">
        <ele>312.373</ele>
        <time>2016-09-26T07:32:09Z</time>
      </trkpt>
      <trkpt lat="43.761019" lon="-7.872143">
        <ele>312.541</ele>
        <time>2016-09-26T07:32:10Z</time>
      </trkpt>
      <trkpt lat="43.761010" lon="-7.872140">
        <ele>312.584</ele>
        <time>2016-09-26T07:32:11Z</time>
      </trkpt>
      <trkpt lat="43.761002" lon="-7.872138">
        <ele>312.707</ele>
        <time>2016-09-26T07:32:12Z</time>
      </trkpt>
      <trkpt lat="43.760994" lon="-7.872136">
        <ele>313.017</ele>
        <time>2016-09-26T07:32:13Z</time>
      </trkpt>
      <trkpt lat="43.760986" lon="-7.872135">
        <ele>313.108</ele>
        <time>2016-09-26T07:32:14Z</time>
      </trkpt>
      <trkpt lat="43.760980" lon="-7.872133">
        <ele>313.229</ele>
        <time>2016-09-26T07:32:15Z</time>
      </trkpt>
      <trkpt lat="43.760973" lon="-7.872130">
        <ele>313.224</ele>
        <time>2016-09-26T07:32:16Z</time>
      </trkpt>
      <trkpt lat="43.760966" lon="-7.872126">
        <ele>313.362</ele>
        <time>2016-09-26T07:32:17Z</time>
      </trkpt>
      <trkpt lat="43.760959" lon="-7.872122">
        <ele>313.628</ele>
        <time>2016-09-26T07:32:18Z</time>
      </trkpt>
      <trkpt lat="43.760951" lon="-7.872118">
        <ele>313.512</ele>
        <time>2016-09-26T07:32:19Z</time>
      </trkpt>
      <trkpt lat="43.760944" lon="-7.872113">
        <ele>313.694</ele>
        <time>2016-09-26T07:32:20Z</time>
      </trkpt>
      <trkpt lat="43.760936" lon="-7.872109">
        <ele>313.877</ele>
        <time>2016-09-26T07:32:21Z</time>
      </trkpt>
      <trkpt lat="43.760929" lon="-7.872105">
        <ele>314.135</ele>
        <time>2016-09-26T07:32:22Z</time>
      </trkpt>
      <trkpt lat="43.760922" lon="-7.872101">
        <ele>314.285</ele>
        <time>2016-09-26T07:32:23Z</time>
      </trkpt>
      <trkpt lat="43.760914" lon="-7.872098">
        <ele>314.489</ele>
        <time>2016-09-26T07:32:24Z</time>
      </trkpt>
      <trkpt lat="43.760906" lon="-7.872094">
        <ele>314.717</ele>
        <time>2016-09-26T07:32:25Z</time>
      </trkpt>
      <trkpt lat="43.760898" lon="-7.872091">
        <ele>314.808</ele>
        <time>2016-09-26T07:32:26Z</time>
      </trkpt>
      <trkpt lat="43.760890" lon="-7.872087">
        <ele>314.979</ele>
        <time>2016-09-26T07:32:27Z</time>
      </trkpt>
      <trkpt lat="43.760882" lon="-7.872082">
        <ele>315.354</ele>
        <time>2016-09-26T07:32:28Z</time>
      </trkpt>
      <trkpt lat="43.760874" lon="-7.872077">
        <ele>315.452</ele>
        <time>2016-09-26T07:32:29Z</time>
      </trkpt>
      <trkpt lat="43.760866" lon="-7.872073">
        <ele>315.278</ele>
        <time>2016-09-26T07:32:30Z</time>
      </trkpt>
      <trkpt lat="43.760859" lon="-7.872068">
        <ele>315.462</ele>
        <time>2016-09-26T07:32:31Z</time>
      </trkpt>
      <trkpt lat="43.760852" lon="-7.872063">
        <ele>315.614</ele>
        <time>2016-09-26T07:32:32Z</time>
      </trkpt>
      <trkpt lat="43.760846" lon="-7.872058">
        <ele>315.827</ele>
        <time>2016-09-26T07:32:33Z</time>
      </trkpt>
      <trkpt lat="43.760840" lon="-7.872053">
        <ele>316.085</ele>
        <time>2016-09-26T07:32:34Z</time>
      </trkpt>
      <trkpt lat="43.760833" lon="-7.872048">
        <ele>316.029</ele>
        <time>2016-09-26T07:32:35Z</time>
      </trkpt>
      <trkpt lat="43.760826" lon="-7.872044">
        <ele>316.200</ele>
        <time>2016-09-26T07:32:36Z</time>
      </trkpt>
      <trkpt lat="43.760821" lon="-7.872039">
        <ele>316.420</ele>
        <time>2016-09-26T07:32:37Z</time>
      </trkpt>
      <trkpt lat="43.760815" lon="-7.872036">
        <ele>316.608</ele>
        <time>2016-09-26T07:32:38Z</time>
      </trkpt>
      <trkpt lat="43.760809" lon="-7.872033">
        <ele>316.713</ele>
        <time>2016-09-26T07:32:39Z</time>
      </trkpt>
      <trkpt lat="43.760803" lon="-7.872030">
        <ele>316.858</ele>
        <time>2016-09-26T07:32:40Z</time>
      </trkpt>
      <trkpt lat="43.760796" lon="-7.872026">
        <ele>316.966</ele>
        <time>2016-09-26T07:32:41Z</time>
      </trkpt>
      <trkpt lat="43.760791" lon="-7.872023">
        <ele>317.252</ele>
        <time>2016-09-26T07:32:42Z</time>
      </trkpt>
      <trkpt lat="43.760785" lon="-7.872019">
        <ele>317.376</ele>
        <time>2016-09-26T07:32:43Z</time>
      </trkpt>
      <trkpt lat="43.760779" lon="-7.872016">
        <ele>317.568</ele>
        <time>2016-09-26T07:32:44Z</time>
      </trkpt>
      <trkpt lat="43.760773" lon="-7.872013">
        <ele>317.711</ele>
        <time>2016-09-26T07:32:45Z</time>
      </trkpt>
      <trkpt lat="43.760766" lon="-7.872010">
        <ele>318.029</ele>
        <time>2016-09-26T07:32:46Z</time>
      </trkpt>
      <trkpt lat="43.760759" lon="-7.872006">
        <ele>318.026</ele>
        <time>2016-09-26T07:32:47Z</time>
      </trkpt>
      <trkpt lat="43.760751" lon="-7.872002">
        <ele>318.247</ele>
        <time>2016-09-26T07:32:48Z</time>
      </trkpt>
      <trkpt lat="43.760744" lon="-7.871998">
        <ele>318.111</ele>
        <time>2016-09-26T07:32:49Z</time>
      </trkpt>
      <trkpt lat="43.760736" lon="-7.871996">
        <ele>318.308</ele>
        <time>2016-09-26T07:32:50Z</time>
      </trkpt>
      <trkpt lat="43.760729" lon="-7.871992">
        <ele>318.543</ele>
        <time>2016-09-26T07:32:51Z</time>
      </trkpt>
      <trkpt lat="43.760722" lon="-7.871989">
        <ele>318.728</ele>
        <time>2016-09-26T07:32:52Z</time>
      </trkpt>
      <trkpt lat="43.760714" lon="-7.871987">
        <ele>318.736</ele>
        <time>2016-09-26T07:32:53Z</time>
      </trkpt>
      <trkpt lat="43.760706" lon="-7.871983">
        <ele>318.962</ele>
        <time>2016-09-26T07:32:54Z</time>
      </trkpt>
      <trkpt lat="43.760698" lon="-7.871981">
        <ele>318.956</ele>
        <time>2016-09-26T07:32:55Z</time>
      </trkpt>
      <trkpt lat="43.760691" lon="-7.871978">
        <ele>319.138</ele>
        <time>2016-09-26T07:32:56Z</time>
      </trkpt>
      <trkpt lat="43.760684" lon="-7.871975">
        <ele>319.371</ele>
        <time>2016-09-26T07:32:57Z</time>
      </trkpt>
      <trkpt lat="43.760677" lon="-7.871972">
        <ele>319.529</ele>
        <time>2016-09-26T07:32:58Z</time>
      </trkpt>
      <trkpt lat="43.760669" lon="-7.871970">
        <ele>319.768</ele>
        <time>2016-09-26T07:32:59Z</time>
      </trkpt>
      <trkpt lat="43.760661" lon="-7.871969">
        <ele>319.842</ele>
        <time>2016-09-26T07:33:00Z</time>
      </trkpt>
      <trkpt lat="43.760653" lon="-7.871967">
        <ele>319.926</ele>
        <time>2016-09-26T07:33:01Z</time>
      </trkpt>
      <trkpt lat="43.760644" lon="-7.871965">
        <ele>320.008</ele>
        <time>2016-09-26T07:33:02Z</time>
      </trkpt>
      <trkpt lat="43.760637" lon="-7.871964">
        <ele>320.117</ele>
        <time>2016-09-26T07:33:03Z</time>
      </trkpt>
      <trkpt lat="43.760628" lon="-7.871962">
        <ele>320.372</ele>
        <time>2016-09-26T07:33:04Z</time>
      </trkpt>
      <trkpt lat="43.760620" lon="-7.871961">
        <ele>320.560</ele>
        <time>2016-09-26T07:33:05Z</time>
      </trkpt>
      <trkpt lat="43.760611" lon="-7.871960">
        <ele>320.626</ele>
        <time>2016-09-26T07:33:06Z</time>
      </trkpt>
      <trkpt lat="43.760604" lon="-7.871960">
        <ele>320.660</ele>
        <time>2016-09-26T07:33:07Z</time>
      </trkpt>
      <trkpt lat="43.760595" lon="-7.871960">
        <ele>320.942</ele>
        <time>2016-09-26T07:33:08Z</time>
      </trkpt>
      <trkpt lat="43.760586" lon="-7.871959">
        <ele>321.015</ele>
        <time>2016-09-26T07:33:09Z</time>
      </trkpt>
      <trkpt lat="43.760577" lon="-7.871958">
        <ele>321.053</ele>
        <time>2016-09-26T07:33:10Z</time>
      </trkpt>
      <trkpt lat="43.760567" lon="-7.871958">
        <ele>321.278</ele>
        <time>2016-09-26T07:33:11Z</time>
      </trkpt>
      <trkpt lat="43.760559" lon="-7.871958">
        <ele>321.333</ele>
        <time>2016-09-26T07:33:12Z</time>
      </trkpt>
      <trkpt lat="43.760551" lon="-7.871959">
        <ele>321.426</ele>
        <time>2016-09-26T07:33:13Z</time>
      </trkpt>
      <trkpt lat="43.760543" lon="-7.871962">
        <ele>321.608</ele>
        <time>2016-09-26T07:33:14Z</time>
      </trkpt>
      <trkpt lat="43.760534" lon="-7.871964">
        <ele>321.968</ele>
        <time>2016-09-26T07:33:15Z</time>
      </trkpt>
      <trkpt lat="43.760526" lon="-7.871967">
        <ele>322.033</ele>
        <time>2016-09-26T07:33:16Z</time>
      </trkpt>
      <trkpt lat="43.760518" lon="-7.871969">
        <ele>322.281</ele>
        <time>2016-09-26T07:33:17Z</time>
      </trkpt>
      <trkpt lat="43.760508" lon="-7.871971">
        <ele>322.247</ele>
        <time>2016-09-26T07:33:18Z</time>
      </trkpt>
      <trkpt lat="43.760499" lon="-7.871973">
        <ele>322.621</ele>
        <time>2016-09-26T07:33:19Z</time>
      </trkpt>
      <trkpt lat="43.760490" lon="-7.871976">
        <ele>322.863</ele>
        <time>2016-09-26T07:33:20Z</time>
      </trkpt>
      <trkpt lat="43.760482" lon="-7.871979">
        <ele>323.076</ele>
        <time>2016-09-26T07:33:21Z</time>
      </trkpt>
      <trkpt lat="43.760474" lon="-7.871982">
        <ele>323.014</ele>
        <time>2016-09-26T07:33:22Z</time>
      </trkpt>
      <trkpt lat="43.760465" lon="-7.871986">
        <ele>323.221</ele>
        <time>2016-09-26T07:33:23Z</time>
      </trkpt>
      <trkpt lat="43.760456" lon="-7.871988">
        <ele>323.441</ele>
        <time>2016-09-26T07:33:24Z</time>
      </trkpt>
      <trkpt lat="43.760448" lon="-7.871991">
        <ele>323.605</ele>
        <time>2016-09-26T07:33:25Z</time>
      </trkpt>
      <trkpt lat="43.760440" lon="-7.871994">
        <ele>323.808</ele>
        <time>2016-09-26T07:33:26Z</time>
      </trkpt>
      <trkpt lat="43.760432" lon="-7.871997">
        <ele>323.883</ele>
        <time>2016-09-26T07:33:27Z</time>
      </trkpt>
      <trkpt lat="43.760424" lon="-7.872000">
        <ele>323.978</ele>
        <time>2016-09-26T07:33:28Z</time>
      </trkpt>
      <trkpt lat="43.760416" lon="-7.872004">
        <ele>324.016</ele>
        <time>2016-09-26T07:33:29Z</time>
      </trkpt>
      <trkpt lat="43.760409" lon="-7.872008">
        <ele>324.262</ele>
        <time>2016-09-26T07:33:30Z</time>
      </trkpt>
      <trkpt lat="43.760400" lon="-7.872013">
        <ele>324.326</ele>
        <time>2016-09-26T07:33:31Z</time>
      </trkpt>
      <trkpt lat="43.760392" lon="-7.872017">
        <ele>324.418</ele>
        <time>2016-09-26T07:33:32Z</time>
      </trkpt>
      <trkpt lat="43.760384" lon="-7.872020">
        <ele>324.721</ele>
        <time>2016-09-26T07:33:33Z</time>
      </trkpt>
      <trkpt lat="43.760377" lon="-7.872024">
        <ele>324.879</ele>
        <time>2016-09-26T07:33:34Z</time>
      </trkpt>
      <trkpt lat="43.760368" lon="-7.872029">
        <ele>324.968</ele>
        <time>2016-09-26T07:33:35Z</time>
      </trkpt>
      <trkpt lat="43.760361" lon="-7.872034">
        <ele>325.142</ele>
        <time>2016-09-26T07:33:36Z</time>
      </trkpt>
      <trkpt lat="43.760353" lon="-7.872040">
        <ele>325.326</ele>
        <time>2016-09-26T07:33:37Z</time>
      </trkpt>
      <trkpt lat="43.760346" lon="-7.872044">
        <ele>325.308</ele>
        <time>2016-09-26T07:33:38Z</time>
      </trkpt>
      <trkpt lat="43.760338" lon="-7.872049">
        <ele>325.547</ele>
        <time>2016-09-26T07:33:39Z</time>
      </trkpt>
      <trkpt lat="43.760330" lon="-7.872055">
        <ele>325.662</ele>
        <time>2016-09-26T07:33:40Z</time>
      </trkpt>
      <trkpt lat="43.760322" lon="-7.872061">
        <ele>325.710</ele>
        <time>2016-09-26T07:33:41Z</time>
      </trkpt>
      <trkpt lat="43.760317" lon="-7.872066">
        <ele>325.846</ele>
        <time>2016-09-26T07:33:42Z</time>
      </trkpt>
      <trkpt lat="43.760309" lon="-7.872072">
        <ele>325.920</ele>
        <time>2016-09-26T07:33:43Z</time>
      </trkpt>
      <trkpt lat="43.760300" lon="-7.872078">
        <ele>326.262</ele>
        <time>2016-09-26T07:33:44Z</time>
      </trkpt>
      <trkpt lat="43.760292" lon="-7.872084">
        <ele>326.585</ele>
        <time>2016-09-26T07:33:45Z</time>
      </trkpt>
      <trkpt lat="43.760285" lon="-7.872091">
        <ele>326.713</ele>
        <time>2016-09-26T07:33:46Z</time>
      </trkpt>
      <trkpt lat="43.760275" lon="-7.872100">
        <ele>326.836</ele>
        <time>2016-09-26T07:33:47Z</time>
      </trkpt>
      <trkpt lat="43.760265" lon="-7.872108">
        <ele>326.917</ele>
        <time>2016-09-26T07:33:48Z</time>
      </trkpt>
      <trkpt lat="43.760257" lon="-7.872115">
        <ele>327.018</ele>
        <time>2016-09-26T07:33:49Z</time>
      </trkpt>
      <trkpt lat="43.760249" lon="-7.872123">
        <ele>327.308</ele>
        <time>2016-09-26T07:33:50Z</time>
      </trkpt>
      <trkpt lat="43.760242" lon="-7.872130">
        <ele>327.524</ele>
        <time>2016-09-26T07:33:51Z</time>
      </trkpt>
      <trkpt lat="43.760230" lon="-7.872142">
        <ele>327.599</ele>
        <time>2016-09-26T07:33:52Z</time>
      </trkpt>
      <trkpt lat="43.760221" lon="-7.872151">
        <ele>327.587</ele>
        <time>2016-09-26T07:33:53Z</time>
      </trkpt>
      <trkpt lat="43.760213" lon="-7.872160">
        <ele>327.693</ele>
        <time>2016-09-26T07:33:54Z</time>
      </trkpt>
      <trkpt lat="43.760204" lon="-7.872169">
        <ele>327.957</ele>
        <time>2016-09-26T07:33:55Z</time>
      </trkpt>
      <trkpt lat="43.760194" lon="-7.872178">
        <ele>328.019</ele>
        <time>2016-09-26T07:33:56Z</time>
      </trkpt>
      <trkpt lat="43.760188" lon="-7.872185">
        <ele>328.342</ele>
        <time>2016-09-26T07:33:57Z</time>
      </trkpt>
      <trkpt lat="43.760181" lon="-7.872193">
        <ele>328.460</ele>
        <time>2016-09-26T07:33:58Z</time>
      </trkpt>
      <trkpt lat="43.760176" lon="-7.872201">
        <ele>328.434</ele>
        <time>2016-09-26T07:33:59Z</time>
      </trkpt>
      <trkpt lat="43.760169" lon="-7.872208">
        <ele>328.455</ele>
        <time>2016-09-26T07:34:00Z</time>
      </trkpt>
      <trkpt lat="43.760163" lon="-7.872214">
        <ele>328.510</ele>
        <time>2016-09-26T07:34:01Z</time>
      </trkpt>
      <trkpt lat="43.760156" lon="-7.872222">
        <ele>328.708</ele>
        <time>2016-09-26T07:34:02Z</time>
      </trkpt>
      <trkpt lat="43.760149" lon="-7.872232">
        <ele>328.884</ele>
        <time>2016-09-26T07:34:03Z</time>
      </trkpt>
      <trkpt lat="43.760142" lon="-7.872241">
        <ele>329.029</ele>
        <time>2016-09-26T07:34:04Z</time>
      </trkpt>
      <trkpt lat="43.760136" lon="-7.872249">
        <ele>329.187</ele>
        <time>2016-09-26T07:34:05Z</time>
      </trkpt>
      <trkpt lat="43.760129" lon="-7.872257">
        <ele>329.383</ele>
        <time>2016-09-26T07:34:06Z</time>
      </trkpt>
      <trkpt lat="43.760123" lon="-7.872266">
        <ele>329.467</ele>
        <time>2016-09-26T07:34:07Z</time>
      </trkpt>
      <trkpt lat="43.760116" lon="-7.872275">
        <ele>329.619</ele>
        <time>2016-09-26T07:34:08Z</time>
      </trkpt>
      <trkpt lat="43.760109" lon="-7.872284">
        <ele>329.762</ele>
        <time>2016-09-26T07:34:09Z</time>
      </trkpt>
      <trkpt lat="43.760103" lon="-7.872293">
        <ele>329.990</ele>
        <time>2016-09-26T07:34:10Z</time>
      </trkpt>
      <trkpt lat="43.760096" lon="-7.872303">
        <ele>330.272</ele>
        <time>2016-09-26T07:34:11Z</time>
      </trkpt>
      <trkpt lat="43.760089" lon="-7.872312">
        <ele>330.313</ele>
        <time>2016-09-26T07:34:12Z</time>
      </trkpt>
      <trkpt lat="43.760083" lon="-7.872322">
        <ele>330.414</ele>
        <time>2016-09-26T07:34:13Z</time>
      </trkpt>
      <trkpt lat="43.760076" lon="-7.872332">
        <ele>330.408</ele>
        <time>2016-09-26T07:34:14Z</time>
      </trkpt>
      <trkpt lat="43.760068" lon="-7.872342">
        <ele>330.538</ele>
        <time>2016-09-26T07:34:15Z</time>
      </trkpt>
      <trkpt lat="43.760061" lon="-7.872352">
        <ele>330.723</ele>
        <time>2016-09-26T07:34:16Z</time>
      </trkpt>
      <trkpt lat="43.760054" lon="-7.872363">
        <ele>330.851</ele>
        <time>2016-09-26T07:34:17Z</time>
      </trkpt>
      <trkpt lat="43.760045" lon="-7.872373">
        <ele>331.047</ele>
        <time>2016-09-26T07:34:18Z</time>
      </trkpt>
      <trkpt lat="43.760036" lon="-7.872381">
        <ele>331.411</ele>
        <time>2016-09-26T07:34:19Z</time>
      </trkpt>
      <trkpt lat="43.760027" lon="-7.872389">
        <ele>331.633</ele>
        <time>2016-09-26T07:34:20Z</time>
      </trkpt>
      <trkpt lat="43.760018" lon="-7.872395">
        <ele>331.626</ele>
        <time>2016-09-26T07:34:21Z</time>
      </trkpt>
      <trkpt lat="43.760010" lon="-7.872402">
        <ele>331.724</ele>
        <time>2016-09-26T07:34:22Z</time>
      </trkpt>
      <trkpt lat="43.760002" lon="-7.872409">
        <ele>331.829</ele>
        <time>2016-09-26T07:34:23Z</time>
      </trkpt>
      <trkpt lat="43.759995" lon="-7.872417">
        <ele>331.800</ele>
        <time>2016-09-26T07:34:24Z</time>
      </trkpt>
      <trkpt lat="43.759988" lon="-7.872425">
        <ele>331.820</ele>
        <time>2016-09-26T07:34:25Z</time>
      </trkpt>
      <trkpt lat="43.759981" lon="-7.872432">
        <ele>331.808</ele>
        <time>2016-09-26T07:34:26Z</time>
      </trkpt>
      <trkpt lat="43.759973" lon="-7.872440">
        <ele>331.993</ele>
        <time>2016-09-26T07:34:27Z</time>
      </trkpt>
      <trkpt lat="43.759967" lon="-7.872448">
        <ele>332.078</ele>
        <time>2016-09-26T07:34:28Z</time>
      </trkpt>
      <trkpt lat="43.759963" lon="-7.872457">
        <ele>331.926</ele>
        <time>2016-09-26T07:34:29Z</time>
      </trkpt>
      <trkpt lat="43.759960" lon="-7.872468">
        <ele>332.112</ele>
        <time>2016-09-26T07:34:30Z</time>
      </trkpt>
      <trkpt lat="43.759955" lon="-7.872478">
        <ele>332.166</ele>
        <time>2016-09-26T07:34:31Z</time>
      </trkpt>
      <trkpt lat="43.759948" lon="-7.872486">
        <ele>332.148</ele>
        <time>2016-09-26T07:34:32Z</time>
      </trkpt>
      <trkpt lat="43.759945" lon="-7.872493">
        <ele>332.391</ele>
        <time>2016-09-26T07:34:33Z</time>
      </trkpt>
      <trkpt lat="43.759944" lon="-7.872495">
        <ele>332.489</ele>
        <time>2016-09-26T07:34:34Z</time>
      </trkpt>
      <trkpt lat="43.759943" lon="-7.872495">
        <ele>332.313</ele>
        <time>2016-09-26T07:34:35Z</time>
      </trkpt>
      <trkpt lat="43.759943" lon="-7.872495">
        <ele>332.143</ele>
        <time>2016-09-26T07:34:36Z</time>
      </trkpt>
      <trkpt lat="43.759944" lon="-7.872496">
        <ele>332.107</ele>
        <time>2016-09-26T07:34:37Z</time>
      </trkpt>
      <trkpt lat="43.759944" lon="-7.872496">
        <ele>332.108</ele>
        <time>2016-09-26T07:34:37Z</time>
      </trkpt>
      <trkpt lat="43.759944" lon="-7.872496">
        <ele>332.112</ele>
        <time>2016-09-26T07:34:37Z</time>
      </trkpt>
      <trkpt lat="43.759845" lon="-7.872660">
        <ele>331.547</ele>
        <time>2016-09-26T07:36:44Z</time>
      </trkpt>
      <trkpt lat="43.759834" lon="-7.872674">
        <ele>331.355</ele>
        <time>2016-09-26T07:36:45Z</time>
      </trkpt>
      <trkpt lat="43.759822" lon="-7.872690">
        <ele>331.331</ele>
        <time>2016-09-26T07:36:46Z</time>
      </trkpt>
      <trkpt lat="43.759809" lon="-7.872709">
        <ele>331.295</ele>
        <time>2016-09-26T07:36:47Z</time>
      </trkpt>
      <trkpt lat="43.759796" lon="-7.872731">
        <ele>331.077</ele>
        <time>2016-09-26T07:36:48Z</time>
      </trkpt>
      <trkpt lat="43.759782" lon="-7.872753">
        <ele>330.870</ele>
        <time>2016-09-26T07:36:49Z</time>
      </trkpt>
      <trkpt lat="43.759769" lon="-7.872776">
        <ele>330.768</ele>
        <time>2016-09-26T07:36:50Z</time>
      </trkpt>
      <trkpt lat="43.759757" lon="-7.872803">
        <ele>330.686</ele>
        <time>2016-09-26T07:36:51Z</time>
      </trkpt>
      <trkpt lat="43.759747" lon="-7.872832">
        <ele>330.360</ele>
        <time>2016-09-26T07:36:52Z</time>
      </trkpt>
      <trkpt lat="43.759737" lon="-7.872864">
        <ele>330.126</ele>
        <time>2016-09-26T07:36:53Z</time>
      </trkpt>
      <trkpt lat="43.759727" lon="-7.872901">
        <ele>329.908</ele>
        <time>2016-09-26T07:36:54Z</time>
      </trkpt>
      <trkpt lat="43.759722" lon="-7.872944">
        <ele>329.899</ele>
        <time>2016-09-26T07:36:55Z</time>
      </trkpt>
      <trkpt lat="43.759719" lon="-7.872987">
        <ele>329.794</ele>
        <time>2016-09-26T07:36:56Z</time>
      </trkpt>
      <trkpt lat="43.759719" lon="-7.873030">
        <ele>329.542</ele>
        <time>2016-09-26T07:36:57Z</time>
      </trkpt>
      <trkpt lat="43.759720" lon="-7.873069">
        <ele>329.328</ele>
        <time>2016-09-26T07:36:58Z</time>
      </trkpt>
      <trkpt lat="43.759724" lon="-7.873105">
        <ele>328.922</ele>
        <time>2016-09-26T07:36:59Z</time>
      </trkpt>
      <trkpt lat="43.759728" lon="-7.873139">
        <ele>328.844</ele>
        <time>2016-09-26T07:37:00Z</time>
      </trkpt>
      <trkpt lat="43.759734" lon="-7.873176">
        <ele>328.777</ele>
        <time>2016-09-26T07:37:01Z</time>
      </trkpt>
      <trkpt lat="43.759744" lon="-7.873213">
        <ele>328.575</ele>
        <time>2016-09-26T07:37:02Z</time>
      </trkpt>
      <trkpt lat="43.759752" lon="-7.873248">
        <ele>328.325</ele>
        <time>2016-09-26T07:37:03Z</time>
      </trkpt>
      <trkpt lat="43.759761" lon="-7.873280">
        <ele>328.026</ele>
        <time>2016-09-26T07:37:04Z</time>
      </trkpt>
      <trkpt lat="43.759770" lon="-7.873311">
        <ele>327.808</ele>
        <time>2016-09-26T07:37:05Z</time>
      </trkpt>
      <trkpt lat="43.759779" lon="-7.873344">
        <ele>327.708</ele>
        <time>2016-09-26T07:37:06Z</time>
      </trkpt>
      <trkpt lat="43.759788" lon="-7.873378">
        <ele>327.473</ele>
        <time>2016-09-26T07:37:07Z</time>
      </trkpt>
      <trkpt lat="43.759795" lon="-7.873414">
        <ele>327.298</ele>
        <time>2016-09-26T07:37:08Z</time>
      </trkpt>
      <trkpt lat="43.759802" lon="-7.873452">
        <ele>327.126</ele>
        <time>2016-09-26T07:37:09Z</time>
      </trkpt>
      <trkpt lat="43.759808" lon="-7.873492">
        <ele>326.732</ele>
        <time>2016-09-26T07:37:10Z</time>
      </trkpt>
      <trkpt lat="43.759813" lon="-7.873534">
        <ele>326.756</ele>
        <time>2016-09-26T07:37:11Z</time>
      </trkpt>
      <trkpt lat="43.759821" lon="-7.873579">
        <ele>326.488</ele>
        <time>2016-09-26T07:37:12Z</time>
      </trkpt>
      <trkpt lat="43.759828" lon="-7.873631">
        <ele>326.061</ele>
        <time>2016-09-26T07:37:13Z</time>
      </trkpt>
      <trkpt lat="43.759834" lon="-7.873689">
        <ele>325.829</ele>
        <time>2016-09-26T07:37:14Z</time>
      </trkpt>
      <trkpt lat="43.759837" lon="-7.873751">
        <ele>325.432</ele>
        <time>2016-09-26T07:37:15Z</time>
      </trkpt>
      <trkpt lat="43.759838" lon="-7.873813">
        <ele>325.292</ele>
        <time>2016-09-26T07:37:16Z</time>
      </trkpt>
      <trkpt lat="43.759836" lon="-7.873874">
        <ele>324.711</ele>
        <time>2016-09-26T07:37:17Z</time>
      </trkpt>
      <trkpt lat="43.759829" lon="-7.873937">
        <ele>324.308</ele>
        <time>2016-09-26T07:37:18Z</time>
      </trkpt>
      <trkpt lat="43.759819" lon="-7.874003">
        <ele>323.874</ele>
        <time>2016-09-26T07:37:19Z</time>
      </trkpt>
      <trkpt lat="43.759807" lon="-7.874070">
        <ele>323.359</ele>
        <time>2016-09-26T07:37:20Z</time>
      </trkpt>
      <trkpt lat="43.759794" lon="-7.874135">
        <ele>322.917</ele>
        <time>2016-09-26T07:37:21Z</time>
      </trkpt>
      <trkpt lat="43.759781" lon="-7.874199">
        <ele>322.543</ele>
        <time>2016-09-26T07:37:22Z</time>
      </trkpt>
      <trkpt lat="43.759768" lon="-7.874263">
        <ele>322.247</ele>
        <time>2016-09-26T07:37:23Z</time>
      </trkpt>
      <trkpt lat="43.759755" lon="-7.874324">
        <ele>321.889</ele>
        <time>2016-09-26T07:37:24Z</time>
      </trkpt>
      <trkpt lat="43.759742" lon="-7.874383">
        <ele>321.542</ele>
        <time>2016-09-26T07:37:25Z</time>
      </trkpt>
      <trkpt lat="43.759730" lon="-7.874438">
        <ele>321.050</ele>
        <time>2016-09-26T07:37:26Z</time>
      </trkpt>
      <trkpt lat="43.759718" lon="-7.874491">
        <ele>320.647</ele>
        <time>2016-09-26T07:37:27Z</time>
      </trkpt>
      <trkpt lat="43.759705" lon="-7.874546">
        <ele>320.229</ele>
        <time>2016-09-26T07:37:28Z</time>
      </trkpt>
      <trkpt lat="43.759690" lon="-7.874610">
        <ele>319.821</ele>
        <time>2016-09-26T07:37:29Z</time>
      </trkpt>
      <trkpt lat="43.759672" lon="-7.874676">
        <ele>319.208</ele>
        <time>2016-09-26T07:37:30Z</time>
      </trkpt>
      <trkpt lat="43.759655" lon="-7.874743">
        <ele>318.965</ele>
        <time>2016-09-26T07:37:31Z</time>
      </trkpt>
      <trkpt lat="43.759640" lon="-7.874808">
        <ele>318.590</ele>
        <time>2016-09-26T07:37:32Z</time>
      </trkpt>
      <trkpt lat="43.759625" lon="-7.874872">
        <ele>318.218</ele>
        <time>2016-09-26T07:37:33Z</time>
      </trkpt>
      <trkpt lat="43.759608" lon="-7.874938">
        <ele>317.894</ele>
        <time>2016-09-26T07:37:34Z</time>
      </trkpt>
      <trkpt lat="43.759589" lon="-7.875005">
        <ele>317.438</ele>
        <time>2016-09-26T07:37:35Z</time>
      </trkpt>
      <trkpt lat="43.759571" lon="-7.875067">
        <ele>316.830</ele>
        <time>2016-09-26T07:37:36Z</time>
      </trkpt>
      <trkpt lat="43.759554" lon="-7.875127">
        <ele>316.513</ele>
        <time>2016-09-26T07:37:37Z</time>
      </trkpt>
      <trkpt lat="43.759540" lon="-7.875183">
        <ele>316.121</ele>
        <time>2016-09-26T07:37:38Z</time>
      </trkpt>
      <trkpt lat="43.759527" lon="-7.875233">
        <ele>315.528</ele>
        <time>2016-09-26T07:37:39Z</time>
      </trkpt>
      <trkpt lat="43.759512" lon="-7.875282">
        <ele>315.289</ele>
        <time>2016-09-26T07:37:40Z</time>
      </trkpt>
      <trkpt lat="43.759499" lon="-7.875334">
        <ele>314.717</ele>
        <time>2016-09-26T07:37:41Z</time>
      </trkpt>
      <trkpt lat="43.759486" lon="-7.875390">
        <ele>314.208</ele>
        <time>2016-09-26T07:37:42Z</time>
      </trkpt>
      <trkpt lat="43.759474" lon="-7.875443">
        <ele>313.943</ele>
        <time>2016-09-26T07:37:43Z</time>
      </trkpt>
      <trkpt lat="43.759462" lon="-7.875493">
        <ele>313.548</ele>
        <time>2016-09-26T07:37:44Z</time>
      </trkpt>
      <trkpt lat="43.759451" lon="-7.875543">
        <ele>313.166</ele>
        <time>2016-09-26T07:37:45Z</time>
      </trkpt>
      <trkpt lat="43.759442" lon="-7.875590">
        <ele>312.792</ele>
        <time>2016-09-26T07:37:46Z</time>
      </trkpt>
      <trkpt lat="43.759433" lon="-7.875633">
        <ele>312.476</ele>
        <time>2016-09-26T07:37:47Z</time>
      </trkpt>
      <trkpt lat="43.759423" lon="-7.875676">
        <ele>312.118</ele>
        <time>2016-09-26T07:37:48Z</time>
      </trkpt>
      <trkpt lat="43.759413" lon="-7.875722">
        <ele>311.891</ele>
        <time>2016-09-26T07:37:49Z</time>
      </trkpt>
      <trkpt lat="43.759404" lon="-7.875772">
        <ele>311.249</ele>
        <time>2016-09-26T07:37:50Z</time>
      </trkpt>
      <trkpt lat="43.759394" lon="-7.875822">
        <ele>310.892</ele>
        <time>2016-09-26T07:37:51Z</time>
      </trkpt>
      <trkpt lat="43.759385" lon="-7.875870">
        <ele>310.173</ele>
        <time>2016-09-26T07:37:52Z</time>
      </trkpt>
      <trkpt lat="43.759379" lon="-7.875918">
        <ele>309.720</ele>
        <time>2016-09-26T07:37:53Z</time>
      </trkpt>
      <trkpt lat="43.759371" lon="-7.875967">
        <ele>309.208</ele>
        <time>2016-09-26T07:37:54Z</time>
      </trkpt>
      <trkpt lat="43.759368" lon="-7.876018">
        <ele>308.810</ele>
        <time>2016-09-26T07:37:55Z</time>
      </trkpt>
      <trkpt lat="43.759361" lon="-7.876068">
        <ele>308.555</ele>
        <time>2016-09-26T07:37:56Z</time>
      </trkpt>
      <trkpt lat="43.759355" lon="-7.876120">
        <ele>308.273</ele>
        <time>2016-09-26T07:37:57Z</time>
      </trkpt>
      <trkpt lat="43.759347" lon="-7.876169">
        <ele>307.879</ele>
        <time>2016-09-26T07:37:58Z</time>
      </trkpt>
      <trkpt lat="43.759343" lon="-7.876219">
        <ele>307.463</ele>
        <time>2016-09-26T07:37:59Z</time>
      </trkpt>
      <trkpt lat="43.759335" lon="-7.876273">
        <ele>306.885</ele>
        <time>2016-09-26T07:38:00Z</time>
      </trkpt>
      <trkpt lat="43.759325" lon="-7.876332">
        <ele>306.628</ele>
        <time>2016-09-26T07:38:01Z</time>
      </trkpt>
      <trkpt lat="43.759315" lon="-7.876394">
        <ele>306.126</ele>
        <time>2016-09-26T07:38:02Z</time>
      </trkpt>
      <trkpt lat="43.759304" lon="-7.876456">
        <ele>305.614</ele>
        <time>2016-09-26T07:38:03Z</time>
      </trkpt>
      <trkpt lat="43.759293" lon="-7.876519">
        <ele>305.154</ele>
        <time>2016-09-26T07:38:04Z</time>
      </trkpt>
      <trkpt lat="43.759282" lon="-7.876583">
        <ele>304.509</ele>
        <time>2016-09-26T07:38:05Z</time>
      </trkpt>
      <trkpt lat="43.759267" lon="-7.876653">
        <ele>304.008</ele>
        <time>2016-09-26T07:38:06Z</time>
      </trkpt>
      <trkpt lat="43.759249" lon="-7.876727">
        <ele>303.692</ele>
        <time>2016-09-26T07:38:07Z</time>
      </trkpt>
      <trkpt lat="43.759234" lon="-7.876803">
        <ele>303.137</ele>
        <time>2016-09-26T07:38:08Z</time>
      </trkpt>
      <trkpt lat="43.759216" lon="-7.876879">
        <ele>302.475</ele>
        <time>2016-09-26T07:38:09Z</time>
      </trkpt>
      <trkpt lat="43.759197" lon="-7.876954">
        <ele>301.911</ele>
        <time>2016-09-26T07:38:10Z</time>
      </trkpt>
      <trkpt lat="43.759177" lon="-7.877026">
        <ele>301.435</ele>
        <time>2016-09-26T07:38:11Z</time>
      </trkpt>
      <trkpt lat="43.759159" lon="-7.877096">
        <ele>300.817</ele>
        <time>2016-09-26T07:38:12Z</time>
      </trkpt>
      <trkpt lat="43.759144" lon="-7.877162">
        <ele>300.430</ele>
        <time>2016-09-26T07:38:13Z</time>
      </trkpt>
      <trkpt lat="43.759129" lon="-7.877223">
        <ele>300.158</ele>
        <time>2016-09-26T07:38:14Z</time>
      </trkpt>
      <trkpt lat="43.759115" lon="-7.877280">
        <ele>299.789</ele>
        <time>2016-09-26T07:38:15Z</time>
      </trkpt>
      <trkpt lat="43.759101" lon="-7.877333">
        <ele>299.306</ele>
        <time>2016-09-26T07:38:16Z</time>
      </trkpt>
      <trkpt lat="43.759088" lon="-7.877385">
        <ele>298.926</ele>
        <time>2016-09-26T07:38:17Z</time>
      </trkpt>
      <trkpt lat="43.759074" lon="-7.877438">
        <ele>298.408</ele>
        <time>2016-09-26T07:38:18Z</time>
      </trkpt>
      <trkpt lat="43.759061" lon="-7.877491">
        <ele>298.099</ele>
        <time>2016-09-26T07:38:19Z</time>
      </trkpt>
      <trkpt lat="43.759049" lon="-7.877542">
        <ele>297.684</ele>
        <time>2016-09-26T07:38:20Z</time>
      </trkpt>
      <trkpt lat="43.759036" lon="-7.877592">
        <ele>297.112</ele>
        <time>2016-09-26T07:38:21Z</time>
      </trkpt>
      <trkpt lat="43.759022" lon="-7.877641">
        <ele>296.588</ele>
        <time>2016-09-26T07:38:22Z</time>
      </trkpt>
      <trkpt lat="43.759006" lon="-7.877692">
        <ele>296.322</ele>
        <time>2016-09-26T07:38:23Z</time>
      </trkpt>
      <trkpt lat="43.758990" lon="-7.877749">
        <ele>295.864</ele>
        <time>2016-09-26T07:38:24Z</time>
      </trkpt>
      <trkpt lat="43.758974" lon="-7.877808">
        <ele>295.477</ele>
        <time>2016-09-26T07:38:25Z</time>
      </trkpt>
      <trkpt lat="43.758961" lon="-7.877865">
        <ele>295.185</ele>
        <time>2016-09-26T07:38:26Z</time>
      </trkpt>
      <trkpt lat="43.758948" lon="-7.877916">
        <ele>294.957</ele>
        <time>2016-09-26T07:38:27Z</time>
      </trkpt>
      <trkpt lat="43.758939" lon="-7.877965">
        <ele>294.500</ele>
        <time>2016-09-26T07:38:28Z</time>
      </trkpt>
      <trkpt lat="43.758929" lon="-7.878017">
        <ele>294.220</ele>
        <time>2016-09-26T07:38:29Z</time>
      </trkpt>
      <trkpt lat="43.758917" lon="-7.878071">
        <ele>293.908</ele>
        <time>2016-09-26T07:38:30Z</time>
      </trkpt>
      <trkpt lat="43.758905" lon="-7.878126">
        <ele>293.586</ele>
        <time>2016-09-26T07:38:31Z</time>
      </trkpt>
      <trkpt lat="43.758888" lon="-7.878182">
        <ele>293.231</ele>
        <time>2016-09-26T07:38:32Z</time>
      </trkpt>
      <trkpt lat="43.758870" lon="-7.878242">
        <ele>292.799</ele>
        <time>2016-09-26T07:38:33Z</time>
      </trkpt>
      <trkpt lat="43.758848" lon="-7.878305">
        <ele>292.245</ele>
        <time>2016-09-26T07:38:34Z</time>
      </trkpt>
      <trkpt lat="43.758824" lon="-7.878370">
        <ele>292.089</ele>
        <time>2016-09-26T07:38:35Z</time>
      </trkpt>
      <trkpt lat="43.758799" lon="-7.878433">
        <ele>291.781</ele>
        <time>2016-09-26T07:38:36Z</time>
      </trkpt>
      <trkpt lat="43.758773" lon="-7.878492">
        <ele>291.284</ele>
        <time>2016-09-26T07:38:37Z</time>
      </trkpt>
      <trkpt lat="43.758745" lon="-7.878546">
        <ele>290.892</ele>
        <time>2016-09-26T07:38:38Z</time>
      </trkpt>
      <trkpt lat="43.758717" lon="-7.878599">
        <ele>290.472</ele>
        <time>2016-09-26T07:38:39Z</time>
      </trkpt>
      <trkpt lat="43.758687" lon="-7.878649">
        <ele>290.113</ele>
        <time>2016-09-26T07:38:40Z</time>
      </trkpt>
      <trkpt lat="43.758656" lon="-7.878699">
        <ele>289.914</ele>
        <time>2016-09-26T07:38:41Z</time>
      </trkpt>
      <trkpt lat="43.758626" lon="-7.878750">
        <ele>289.608</ele>
        <time>2016-09-26T07:38:42Z</time>
      </trkpt>
      <trkpt lat="43.758595" lon="-7.878800">
        <ele>289.348</ele>
        <time>2016-09-26T07:38:43Z</time>
      </trkpt>
      <trkpt lat="43.758564" lon="-7.878850">
        <ele>289.053</ele>
        <time>2016-09-26T07:38:44Z</time>
      </trkpt>
      <trkpt lat="43.758533" lon="-7.878899">
        <ele>288.841</ele>
        <time>2016-09-26T07:38:45Z</time>
      </trkpt>
      <trkpt lat="43.758502" lon="-7.878947">
        <ele>288.777</ele>
        <time>2016-09-26T07:38:46Z</time>
      </trkpt>
      <trkpt lat="43.758472" lon="-7.878995">
        <ele>288.331</ele>
        <time>2016-09-26T07:38:47Z</time>
      </trkpt>
      <trkpt lat="43.758443" lon="-7.879043">
        <ele>288.163</ele>
        <time>2016-09-26T07:38:48Z</time>
      </trkpt>
      <trkpt lat="43.758418" lon="-7.879090">
        <ele>287.836</ele>
        <time>2016-09-26T07:38:49Z</time>
      </trkpt>
      <trkpt lat="43.758395" lon="-7.879134">
        <ele>287.634</ele>
        <time>2016-09-26T07:38:50Z</time>
      </trkpt>
      <trkpt lat="43.758373" lon="-7.879176">
        <ele>287.558</ele>
        <time>2016-09-26T07:38:51Z</time>
      </trkpt>
      <trkpt lat="43.758356" lon="-7.879211">
        <ele>287.352</ele>
        <time>2016-09-26T07:38:52Z</time>
      </trkpt>
      <trkpt lat="43.758344" lon="-7.879241">
        <ele>287.317</ele>
        <time>2016-09-26T07:38:53Z</time>
      </trkpt>
      <trkpt lat="43.758336" lon="-7.879268">
        <ele>287.008</ele>
        <time>2016-09-26T07:38:54Z</time>
      </trkpt>
      <trkpt lat="43.758328" lon="-7.879295">
        <ele>287.016</ele>
        <time>2016-09-26T07:38:55Z</time>
      </trkpt>
      <trkpt lat="43.758319" lon="-7.879320">
        <ele>286.831</ele>
        <time>2016-09-26T07:38:56Z</time>
      </trkpt>
      <trkpt lat="43.758312" lon="-7.879345">
        <ele>286.869</ele>
        <time>2016-09-26T07:38:57Z</time>
      </trkpt>
      <trkpt lat="43.758305" lon="-7.879372">
        <ele>286.895</ele>
        <time>2016-09-26T07:38:58Z</time>
      </trkpt>
      <trkpt lat="43.758299" lon="-7.879403">
        <ele>286.659</ele>
        <time>2016-09-26T07:38:59Z</time>
      </trkpt>
      <trkpt lat="43.758295" lon="-7.879436">
        <ele>286.451</ele>
        <time>2016-09-26T07:39:00Z</time>
      </trkpt>
      <trkpt lat="43.758291" lon="-7.879468">
        <ele>286.524</ele>
        <time>2016-09-26T07:39:01Z</time>
      </trkpt>
      <trkpt lat="43.758287" lon="-7.879497">
        <ele>286.552</ele>
        <time>2016-09-26T07:39:02Z</time>
      </trkpt>
      <trkpt lat="43.758286" lon="-7.879527">
        <ele>286.595</ele>
        <time>2016-09-26T07:39:03Z</time>
      </trkpt>
      <trkpt lat="43.758284" lon="-7.879557">
        <ele>286.549</ele>
        <time>2016-09-26T07:39:04Z</time>
      </trkpt>
      <trkpt lat="43.758281" lon="-7.879588">
        <ele>286.423</ele>
        <time>2016-09-26T07:39:05Z</time>
      </trkpt>
      <trkpt lat="43.758280" lon="-7.879622">
        <ele>286.608</ele>
        <time>2016-09-26T07:39:06Z</time>
      </trkpt>
      <trkpt lat="43.758277" lon="-7.879656">
        <ele>286.610</ele>
        <time>2016-09-26T07:39:07Z</time>
      </trkpt>
      <trkpt lat="43.758275" lon="-7.879690">
        <ele>286.795</ele>
        <time>2016-09-26T07:39:08Z</time>
      </trkpt>
      <trkpt lat="43.758274" lon="-7.879723">
        <ele>287.063</ele>
        <time>2016-09-26T07:39:09Z</time>
      </trkpt>
      <trkpt lat="43.758273" lon="-7.879755">
        <ele>287.269</ele>
        <time>2016-09-26T07:39:10Z</time>
      </trkpt>
      <trkpt lat="43.758269" lon="-7.879786">
        <ele>287.283</ele>
        <time>2016-09-26T07:39:11Z</time>
      </trkpt>
      <trkpt lat="43.758265" lon="-7.879818">
        <ele>287.345</ele>
        <time>2016-09-26T07:39:12Z</time>
      </trkpt>
      <trkpt lat="43.758264" lon="-7.879851">
        <ele>287.418</ele>
        <time>2016-09-26T07:39:13Z</time>
      </trkpt>
      <trkpt lat="43.758261" lon="-7.879885">
        <ele>287.556</ele>
        <time>2016-09-26T07:39:14Z</time>
      </trkpt>
      <trkpt lat="43.758255" lon="-7.879917">
        <ele>287.463</ele>
        <time>2016-09-26T07:39:15Z</time>
      </trkpt>
      <trkpt lat="43.758249" lon="-7.879948">
        <ele>287.744</ele>
        <time>2016-09-26T07:39:16Z</time>
      </trkpt>
      <trkpt lat="43.758243" lon="-7.879979">
        <ele>287.918</ele>
        <time>2016-09-26T07:39:17Z</time>
      </trkpt>
      <trkpt lat="43.758237" lon="-7.880009">
        <ele>288.008</ele>
        <time>2016-09-26T07:39:18Z</time>
      </trkpt>
      <trkpt lat="43.758233" lon="-7.880037">
        <ele>288.167</ele>
        <time>2016-09-26T07:39:19Z</time>
      </trkpt>
      <trkpt lat="43.758229" lon="-7.880064">
        <ele>288.362</ele>
        <time>2016-09-26T07:39:20Z</time>
      </trkpt>
      <trkpt lat="43.758223" lon="-7.880091">
        <ele>288.530</ele>
        <time>2016-09-26T07:39:21Z</time>
      </trkpt>
      <trkpt lat="43.758219" lon="-7.880118">
        <ele>288.716</ele>
        <time>2016-09-26T07:39:22Z</time>
      </trkpt>
      <trkpt lat="43.758214" lon="-7.880145">
        <ele>288.790</ele>
        <time>2016-09-26T07:39:23Z</time>
      </trkpt>
      <trkpt lat="43.758207" lon="-7.880172">
        <ele>288.752</ele>
        <time>2016-09-26T07:39:24Z</time>
      </trkpt>
      <trkpt lat="43.758197" lon="-7.880197">
        <ele>289.025</ele>
        <time>2016-09-26T07:39:25Z</time>
      </trkpt>
      <trkpt lat="43.758186" lon="-7.880220">
        <ele>289.283</ele>
        <time>2016-09-26T07:39:26Z</time>
      </trkpt>
      <trkpt lat="43.758176" lon="-7.880243">
        <ele>289.683</ele>
        <time>2016-09-26T07:39:27Z</time>
      </trkpt>
      <trkpt lat="43.758169" lon="-7.880266">
        <ele>290.025</ele>
        <time>2016-09-26T07:39:28Z</time>
      </trkpt>
      <trkpt lat="43.758161" lon="-7.880290">
        <ele>290.317</ele>
        <time>2016-09-26T07:39:29Z</time>
      </trkpt>
      <trkpt lat="43.758151" lon="-7.880311">
        <ele>290.608</ele>
        <time>2016-09-26T07:39:30Z</time>
      </trkpt>
      <trkpt lat="43.758140" lon="-7.880333">
        <ele>290.849</ele>
        <time>2016-09-26T07:39:31Z</time>
      </trkpt>
      <trkpt lat="43.758128" lon="-7.880354">
        <ele>291.194</ele>
        <time>2016-09-26T07:39:32Z</time>
      </trkpt>
      <trkpt lat="43.758117" lon="-7.880370">
        <ele>291.542</ele>
        <time>2016-09-26T07:39:33Z</time>
      </trkpt>
      <trkpt lat="43.758113" lon="-7.880378">
        <ele>291.828</ele>
        <time>2016-09-26T07:39:34Z</time>
      </trkpt>
      <trkpt lat="43.758114" lon="-7.880379">
        <ele>292.042</ele>
        <time>2016-09-26T07:39:35Z</time>
      </trkpt>
      <trkpt lat="43.758114" lon="-7.880381">
        <ele>292.224</ele>
        <time>2016-09-26T07:39:36Z</time>
      </trkpt>
      <trkpt lat="43.758107" lon="-7.880389">
        <ele>292.457</ele>
        <time>2016-09-26T07:39:37Z</time>
      </trkpt>
      <trkpt lat="43.758101" lon="-7.880399">
        <ele>292.425</ele>
        <time>2016-09-26T07:39:38Z</time>
      </trkpt>
      <trkpt lat="43.758101" lon="-7.880399">
        <ele>292.473</ele>
        <time>2016-09-26T07:39:38Z</time>
      </trkpt>
      <trkpt lat="43.758101" lon="-7.880399">
        <ele>292.485</ele>
        <time>2016-09-26T07:39:38Z</time>
      </trkpt>
      <trkpt lat="43.758070" lon="-7.880452">
        <ele>293.213</ele>
        <time>2016-09-26T07:39:43Z</time>
      </trkpt>
      <trkpt lat="43.758067" lon="-7.880460">
        <ele>293.208</ele>
        <time>2016-09-26T07:39:44Z</time>
      </trkpt>
      <trkpt lat="43.758065" lon="-7.880463">
        <ele>293.138</ele>
        <time>2016-09-26T07:39:45Z</time>
      </trkpt>
      <trkpt lat="43.758064" lon="-7.880466">
        <ele>293.333</ele>
        <time>2016-09-26T07:39:46Z</time>
      </trkpt>
      <trkpt lat="43.758064" lon="-7.880470">
        <ele>293.541</ele>
        <time>2016-09-26T07:39:47Z</time>
      </trkpt>
      <trkpt lat="43.758063" lon="-7.880477">
        <ele>293.797</ele>
        <time>2016-09-26T07:39:48Z</time>
      </trkpt>
      <trkpt lat="43.758063" lon="-7.880477">
        <ele>293.771</ele>
        <time>2016-09-26T07:39:48Z</time>
      </trkpt>
      <trkpt lat="43.758063" lon="-7.880477">
        <ele>293.743</ele>
        <time>2016-09-26T07:39:48Z</time>
      </trkpt>
      <trkpt lat="43.758024" lon="-7.880557">
        <ele>294.496</ele>
        <time>2016-09-26T07:39:55Z</time>
      </trkpt>
      <trkpt lat="43.758021" lon="-7.880567">
        <ele>294.634</ele>
        <time>2016-09-26T07:39:56Z</time>
      </trkpt>
      <trkpt lat="43.758016" lon="-7.880577">
        <ele>294.718</ele>
        <time>2016-09-26T07:39:57Z</time>
      </trkpt>
      <trkpt lat="43.758011" lon="-7.880586">
        <ele>294.798</ele>
        <time>2016-09-26T07:39:58Z</time>
      </trkpt>
      <trkpt lat="43.758005" lon="-7.880595">
        <ele>294.917</ele>
        <time>2016-09-26T07:39:59Z</time>
      </trkpt>
      <trkpt lat="43.758000" lon="-7.880605">
        <ele>295.208</ele>
        <time>2016-09-26T07:40:00Z</time>
      </trkpt>
      <trkpt lat="43.757995" lon="-7.880616">
        <ele>295.212</ele>
        <time>2016-09-26T07:40:01Z</time>
      </trkpt>
      <trkpt lat="43.757990" lon="-7.880626">
        <ele>295.557</ele>
        <time>2016-09-26T07:40:02Z</time>
      </trkpt>
      <trkpt lat="43.757986" lon="-7.880637">
        <ele>295.835</ele>
        <time>2016-09-26T07:40:03Z</time>
      </trkpt>
      <trkpt lat="43.757981" lon="-7.880648">
        <ele>296.041</ele>
        <time>2016-09-26T07:40:04Z</time>
      </trkpt>
      <trkpt lat="43.757977" lon="-7.880659">
        <ele>296.155</ele>
        <time>2016-09-26T07:40:05Z</time>
      </trkpt>
      <trkpt lat="43.757973" lon="-7.880667">
        <ele>296.287</ele>
        <time>2016-09-26T07:40:06Z</time>
      </trkpt>
      <trkpt lat="43.757971" lon="-7.880674">
        <ele>296.520</ele>
        <time>2016-09-26T07:40:07Z</time>
      </trkpt>
      <trkpt lat="43.757968" lon="-7.880685">
        <ele>296.888</ele>
        <time>2016-09-26T07:40:08Z</time>
      </trkpt>
      <trkpt lat="43.757966" lon="-7.880695">
        <ele>297.086</ele>
        <time>2016-09-26T07:40:09Z</time>
      </trkpt>
      <trkpt lat="43.757968" lon="-7.880705">
        <ele>297.260</ele>
        <time>2016-09-26T07:40:10Z</time>
      </trkpt>
      <trkpt lat="43.757968" lon="-7.880716">
        <ele>297.326</ele>
        <time>2016-09-26T07:40:11Z</time>
      </trkpt>
      <trkpt lat="43.757967" lon="-7.880726">
        <ele>297.508</ele>
        <time>2016-09-26T07:40:12Z</time>
      </trkpt>
      <trkpt lat="43.757962" lon="-7.880736">
        <ele>297.969</ele>
        <time>2016-09-26T07:40:13Z</time>
      </trkpt>
      <trkpt lat="43.757956" lon="-7.880745">
        <ele>298.194</ele>
        <time>2016-09-26T07:40:14Z</time>
      </trkpt>
      <trkpt lat="43.757951" lon="-7.880756">
        <ele>298.112</ele>
        <time>2016-09-26T07:40:15Z</time>
      </trkpt>
      <trkpt lat="43.757947" lon="-7.880767">
        <ele>298.328</ele>
        <time>2016-09-26T07:40:16Z</time>
      </trkpt>
      <trkpt lat="43.757943" lon="-7.880778">
        <ele>298.662</ele>
        <time>2016-09-26T07:40:17Z</time>
      </trkpt>
      <trkpt lat="43.757941" lon="-7.880788">
        <ele>298.794</ele>
        <time>2016-09-26T07:40:18Z</time>
      </trkpt>
      <trkpt lat="43.757941" lon="-7.880797">
        <ele>298.767</ele>
        <time>2016-09-26T07:40:19Z</time>
      </trkpt>
      <trkpt lat="43.757943" lon="-7.880808">
        <ele>299.155</ele>
        <time>2016-09-26T07:40:20Z</time>
      </trkpt>
      <trkpt lat="43.757943" lon="-7.880817">
        <ele>299.371</ele>
        <time>2016-09-26T07:40:21Z</time>
      </trkpt>
      <trkpt lat="43.757944" lon="-7.880829">
        <ele>299.441</ele>
        <time>2016-09-26T07:40:22Z</time>
      </trkpt>
      <trkpt lat="43.757947" lon="-7.880841">
        <ele>299.715</ele>
        <time>2016-09-26T07:40:23Z</time>
      </trkpt>
      <trkpt lat="43.757948" lon="-7.880851">
        <ele>299.908</ele>
        <time>2016-09-26T07:40:24Z</time>
      </trkpt>
      <trkpt lat="43.757953" lon="-7.880862">
        <ele>300.048</ele>
        <time>2016-09-26T07:40:25Z</time>
      </trkpt>
      <trkpt lat="43.757958" lon="-7.880872">
        <ele>300.343</ele>
        <time>2016-09-26T07:40:26Z</time>
      </trkpt>
      <trkpt lat="43.757962" lon="-7.880879">
        <ele>300.341</ele>
        <time>2016-09-26T07:40:27Z</time>
      </trkpt>
      <trkpt lat="43.757971" lon="-7.880887">
        <ele>300.687</ele>
        <time>2016-09-26T07:40:28Z</time>
      </trkpt>
      <trkpt lat="43.757977" lon="-7.880894">
        <ele>300.891</ele>
        <time>2016-09-26T07:40:29Z</time>
      </trkpt>
      <trkpt lat="43.757984" lon="-7.880906">
        <ele>301.033</ele>
        <time>2016-09-26T07:40:30Z</time>
      </trkpt>
      <trkpt lat="43.757987" lon="-7.880915">
        <ele>301.156</ele>
        <time>2016-09-26T07:40:31Z</time>
      </trkpt>
      <trkpt lat="43.757993" lon="-7.880927">
        <ele>301.354</ele>
        <time>2016-09-26T07:40:32Z</time>
      </trkpt>
      <trkpt lat="43.758000" lon="-7.880939">
        <ele>301.432</ele>
        <time>2016-09-26T07:40:33Z</time>
      </trkpt>
      <trkpt lat="43.758006" lon="-7.880951">
        <ele>301.592</ele>
        <time>2016-09-26T07:40:34Z</time>
      </trkpt>
      <trkpt lat="43.758016" lon="-7.880959">
        <ele>301.811</ele>
        <time>2016-09-26T07:40:35Z</time>
      </trkpt>
      <trkpt lat="43.758028" lon="-7.880965">
        <ele>301.708</ele>
        <time>2016-09-26T07:40:36Z</time>
      </trkpt>
      <trkpt lat="43.758038" lon="-7.880971">
        <ele>301.984</ele>
        <time>2016-09-26T07:40:37Z</time>
      </trkpt>
      <trkpt lat="43.758048" lon="-7.880975">
        <ele>302.019</ele>
        <time>2016-09-26T07:40:38Z</time>
      </trkpt>
      <trkpt lat="43.758058" lon="-7.880978">
        <ele>302.177</ele>
        <time>2016-09-26T07:40:39Z</time>
      </trkpt>
      <trkpt lat="43.758069" lon="-7.880982">
        <ele>302.223</ele>
        <time>2016-09-26T07:40:40Z</time>
      </trkpt>
      <trkpt lat="43.758077" lon="-7.880986">
        <ele>302.217</ele>
        <time>2016-09-26T07:40:41Z</time>
      </trkpt>
      <trkpt lat="43.758085" lon="-7.880990">
        <ele>302.519</ele>
        <time>2016-09-26T07:40:42Z</time>
      </trkpt>
      <trkpt lat="43.758086" lon="-7.880991">
        <ele>302.562</ele>
        <time>2016-09-26T07:40:43Z</time>
      </trkpt>
      <trkpt lat="43.758089" lon="-7.880993">
        <ele>302.590</ele>
        <time>2016-09-26T07:40:44Z</time>
      </trkpt>
      <trkpt lat="43.758097" lon="-7.880999">
        <ele>302.738</ele>
        <time>2016-09-26T07:40:45Z</time>
      </trkpt>
      <trkpt lat="43.758107" lon="-7.881005">
        <ele>302.670</ele>
        <time>2016-09-26T07:40:46Z</time>
      </trkpt>
      <trkpt lat="43.758118" lon="-7.881011">
        <ele>302.817</ele>
        <time>2016-09-26T07:40:47Z</time>
      </trkpt>
      <trkpt lat="43.758127" lon="-7.881018">
        <ele>302.708</ele>
        <time>2016-09-26T07:40:48Z</time>
      </trkpt>
      <trkpt lat="43.758138" lon="-7.881027">
        <ele>302.854</ele>
        <time>2016-09-26T07:40:49Z</time>
      </trkpt>
      <trkpt lat="43.758150" lon="-7.881038">
        <ele>302.989</ele>
        <time>2016-09-26T07:40:50Z</time>
      </trkpt>
      <trkpt lat="43.758162" lon="-7.881048">
        <ele>302.937</ele>
        <time>2016-09-26T07:40:51Z</time>
      </trkpt>
      <trkpt lat="43.758173" lon="-7.881056">
        <ele>303.083</ele>
        <time>2016-09-26T07:40:52Z</time>
      </trkpt>
      <trkpt lat="43.758185" lon="-7.881064">
        <ele>303.117</ele>
        <time>2016-09-26T07:40:53Z</time>
      </trkpt>
      <trkpt lat="43.758197" lon="-7.881072">
        <ele>303.159</ele>
        <time>2016-09-26T07:40:54Z</time>
      </trkpt>
      <trkpt lat="43.758207" lon="-7.881078">
        <ele>303.342</ele>
        <time>2016-09-26T07:40:55Z</time>
      </trkpt>
      <trkpt lat="43.758217" lon="-7.881087">
        <ele>303.420</ele>
        <time>2016-09-26T07:40:56Z</time>
      </trkpt>
      <trkpt lat="43.758225" lon="-7.881099">
        <ele>303.588</ele>
        <time>2016-09-26T07:40:57Z</time>
      </trkpt>
      <trkpt lat="43.758234" lon="-7.881110">
        <ele>303.624</ele>
        <time>2016-09-26T07:40:58Z</time>
      </trkpt>
      <trkpt lat="43.758242" lon="-7.881122">
        <ele>303.726</ele>
        <time>2016-09-26T07:40:59Z</time>
      </trkpt>
      <trkpt lat="43.758248" lon="-7.881135">
        <ele>303.708</ele>
        <time>2016-09-26T07:41:00Z</time>
      </trkpt>
      <trkpt lat="43.758253" lon="-7.881149">
        <ele>303.829</ele>
        <time>2016-09-26T07:41:01Z</time>
      </trkpt>
      <trkpt lat="43.758258" lon="-7.881163">
        <ele>303.944</ele>
        <time>2016-09-26T07:41:02Z</time>
      </trkpt>
      <trkpt lat="43.758261" lon="-7.881177">
        <ele>304.032</ele>
        <time>2016-09-26T07:41:03Z</time>
      </trkpt>
      <trkpt lat="43.758262" lon="-7.881193">
        <ele>304.218</ele>
        <time>2016-09-26T07:41:04Z</time>
      </trkpt>
      <trkpt lat="43.758262" lon="-7.881208">
        <ele>304.342</ele>
        <time>2016-09-26T07:41:05Z</time>
      </trkpt>
      <trkpt lat="43.758263" lon="-7.881223">
        <ele>304.494</ele>
        <time>2016-09-26T07:41:06Z</time>
      </trkpt>
      <trkpt lat="43.758263" lon="-7.881240">
        <ele>304.517</ele>
        <time>2016-09-26T07:41:07Z</time>
      </trkpt>
      <trkpt lat="43.758262" lon="-7.881257">
        <ele>304.525</ele>
        <time>2016-09-26T07:41:08Z</time>
      </trkpt>
      <trkpt lat="43.758262" lon="-7.881273">
        <ele>304.519</ele>
        <time>2016-09-26T07:41:09Z</time>
      </trkpt>
      <trkpt lat="43.758261" lon="-7.881287">
        <ele>304.609</ele>
        <time>2016-09-26T07:41:10Z</time>
      </trkpt>
      <trkpt lat="43.758259" lon="-7.881302">
        <ele>305.019</ele>
        <time>2016-09-26T07:41:11Z</time>
      </trkpt>
      <trkpt lat="43.758256" lon="-7.881315">
        <ele>305.308</ele>
        <time>2016-09-26T07:41:12Z</time>
      </trkpt>
      <trkpt lat="43.758251" lon="-7.881328">
        <ele>305.522</ele>
        <time>2016-09-26T07:41:13Z</time>
      </trkpt>
      <trkpt lat="43.758245" lon="-7.881340">
        <ele>305.767</ele>
        <time>2016-09-26T07:41:14Z</time>
      </trkpt>
      <trkpt lat="43.758240" lon="-7.881350">
        <ele>305.825</ele>
        <time>2016-09-26T07:41:15Z</time>
      </trkpt>
      <trkpt lat="43.758237" lon="-7.881359">
        <ele>306.061</ele>
        <time>2016-09-26T07:41:16Z</time>
      </trkpt>
      <trkpt lat="43.758234" lon="-7.881367">
        <ele>306.355</ele>
        <time>2016-09-26T07:41:17Z</time>
      </trkpt>
      <trkpt lat="43.758228" lon="-7.881374">
        <ele>306.347</ele>
        <time>2016-09-26T07:41:18Z</time>
      </trkpt>
      <trkpt lat="43.758219" lon="-7.881378">
        <ele>306.410</ele>
        <time>2016-09-26T07:41:19Z</time>
      </trkpt>
      <trkpt lat="43.758209" lon="-7.881384">
        <ele>306.438</ele>
        <time>2016-09-26T07:41:20Z</time>
      </trkpt>
      <trkpt lat="43.758200" lon="-7.881389">
        <ele>306.697</ele>
        <time>2016-09-26T07:41:21Z</time>
      </trkpt>
      <trkpt lat="43.758190" lon="-7.881395">
        <ele>306.723</ele>
        <time>2016-09-26T07:41:22Z</time>
      </trkpt>
      <trkpt lat="43.758180" lon="-7.881401">
        <ele>306.925</ele>
        <time>2016-09-26T07:41:23Z</time>
      </trkpt>
      <trkpt lat="43.758168" lon="-7.881406">
        <ele>306.908</ele>
        <time>2016-09-26T07:41:24Z</time>
      </trkpt>
      <trkpt lat="43.758159" lon="-7.881408">
        <ele>307.050</ele>
        <time>2016-09-26T07:41:25Z</time>
      </trkpt>
      <trkpt lat="43.758148" lon="-7.881403">
        <ele>307.015</ele>
        <time>2016-09-26T07:41:26Z</time>
      </trkpt>
      <trkpt lat="43.758139" lon="-7.881395">
        <ele>307.093</ele>
        <time>2016-09-26T07:41:27Z</time>
      </trkpt>
      <trkpt lat="43.758129" lon="-7.881387">
        <ele>307.269</ele>
        <time>2016-09-26T07:41:28Z</time>
      </trkpt>
      <trkpt lat="43.758118" lon="-7.881382">
        <ele>307.223</ele>
        <time>2016-09-26T07:41:29Z</time>
      </trkpt>
      <trkpt lat="43.758108" lon="-7.881377">
        <ele>307.325</ele>
        <time>2016-09-26T07:41:30Z</time>
      </trkpt>
      <trkpt lat="43.758097" lon="-7.881371">
        <ele>307.618</ele>
        <time>2016-09-26T07:41:31Z</time>
      </trkpt>
      <trkpt lat="43.758087" lon="-7.881364">
        <ele>307.846</ele>
        <time>2016-09-26T07:41:32Z</time>
      </trkpt>
      <trkpt lat="43.758079" lon="-7.881357">
        <ele>307.941</ele>
        <time>2016-09-26T07:41:33Z</time>
      </trkpt>
      <trkpt lat="43.758071" lon="-7.881351">
        <ele>307.981</ele>
        <time>2016-09-26T07:41:34Z</time>
      </trkpt>
      <trkpt lat="43.758064" lon="-7.881341">
        <ele>308.209</ele>
        <time>2016-09-26T07:41:35Z</time>
      </trkpt>
      <trkpt lat="43.758058" lon="-7.881331">
        <ele>308.308</ele>
        <time>2016-09-26T07:41:36Z</time>
      </trkpt>
      <trkpt lat="43.758051" lon="-7.881322">
        <ele>308.355</ele>
        <time>2016-09-26T07:41:37Z</time>
      </trkpt>
      <trkpt lat="43.758043" lon="-7.881313">
        <ele>308.350</ele>
        <time>2016-09-26T07:41:38Z</time>
      </trkpt>
      <trkpt lat="43.758034" lon="-7.881303">
        <ele>308.338</ele>
        <time>2016-09-26T07:41:39Z</time>
      </trkpt>
      <trkpt lat="43.758029" lon="-7.881296">
        <ele>308.374</ele>
        <time>2016-09-26T07:41:40Z</time>
      </trkpt>
      <trkpt lat="43.758028" lon="-7.881294">
        <ele>308.218</ele>
        <time>2016-09-26T07:41:41Z</time>
      </trkpt>
      <trkpt lat="43.758027" lon="-7.881296">
        <ele>308.350</ele>
        <time>2016-09-26T07:41:42Z</time>
      </trkpt>
      <trkpt lat="43.758027" lon="-7.881297">
        <ele>308.593</ele>
        <time>2016-09-26T07:41:43Z</time>
      </trkpt>
      <trkpt lat="43.758025" lon="-7.881299">
        <ele>308.691</ele>
        <time>2016-09-26T07:41:44Z</time>
      </trkpt>
      <trkpt lat="43.758025" lon="-7.881299">
        <ele>308.674</ele>
        <time>2016-09-26T07:41:44Z</time>
      </trkpt>
      <trkpt lat="43.758025" lon="-7.881299">
        <ele>308.656</ele>
        <time>2016-09-26T07:41:44Z</time>
      </trkpt>
      <trkpt lat="43.757946" lon="-7.881306">
        <ele>308.621</ele>
        <time>2016-09-26T07:43:00Z</time>
      </trkpt>
      <trkpt lat="43.757933" lon="-7.881302">
        <ele>308.708</ele>
        <time>2016-09-26T07:43:01Z</time>
      </trkpt>
      <trkpt lat="43.757917" lon="-7.881301">
        <ele>308.698</ele>
        <time>2016-09-26T07:43:02Z</time>
      </trkpt>
      <trkpt lat="43.757902" lon="-7.881302">
        <ele>308.843</ele>
        <time>2016-09-26T07:43:03Z</time>
      </trkpt>
      <trkpt lat="43.757887" lon="-7.881303">
        <ele>309.061</ele>
        <time>2016-09-26T07:43:04Z</time>
      </trkpt>
      <trkpt lat="43.757872" lon="-7.881305">
        <ele>309.297</ele>
        <time>2016-09-26T07:43:05Z</time>
      </trkpt>
      <trkpt lat="43.757857" lon="-7.881308">
        <ele>309.221</ele>
        <time>2016-09-26T07:43:06Z</time>
      </trkpt>
      <trkpt lat="43.757843" lon="-7.881309">
        <ele>309.483</ele>
        <time>2016-09-26T07:43:07Z</time>
      </trkpt>
      <trkpt lat="43.757826" lon="-7.881308">
        <ele>309.516</ele>
        <time>2016-09-26T07:43:08Z</time>
      </trkpt>
      <trkpt lat="43.757810" lon="-7.881308">
        <ele>309.664</ele>
        <time>2016-09-26T07:43:09Z</time>
      </trkpt>
      <trkpt lat="43.757793" lon="-7.881309">
        <ele>309.796</ele>
        <time>2016-09-26T07:43:10Z</time>
      </trkpt>
      <trkpt lat="43.757777" lon="-7.881309">
        <ele>309.931</ele>
        <time>2016-09-26T07:43:11Z</time>
      </trkpt>
      <trkpt lat="43.757760" lon="-7.881309">
        <ele>310.024</ele>
        <time>2016-09-26T07:43:12Z</time>
      </trkpt>
      <trkpt lat="43.757741" lon="-7.881308">
        <ele>310.108</ele>
        <time>2016-09-26T07:43:13Z</time>
      </trkpt>
      <trkpt lat="43.757723" lon="-7.881310">
        <ele>310.260</ele>
        <time>2016-09-26T07:43:14Z</time>
      </trkpt>
      <trkpt lat="43.757705" lon="-7.881311">
        <ele>310.435</ele>
        <time>2016-09-26T07:43:15Z</time>
      </trkpt>
      <trkpt lat="43.757686" lon="-7.881312">
        <ele>310.623</ele>
        <time>2016-09-26T07:43:16Z</time>
      </trkpt>
      <trkpt lat="43.757668" lon="-7.881313">
        <ele>310.799</ele>
        <time>2016-09-26T07:43:17Z</time>
      </trkpt>
      <trkpt lat="43.757648" lon="-7.881313">
        <ele>310.983</ele>
        <time>2016-09-26T07:43:18Z</time>
      </trkpt>
      <trkpt lat="43.757629" lon="-7.881312">
        <ele>311.075</ele>
        <time>2016-09-26T07:43:19Z</time>
      </trkpt>
      <trkpt lat="43.757609" lon="-7.881311">
        <ele>310.918</ele>
        <time>2016-09-26T07:43:20Z</time>
      </trkpt>
      <trkpt lat="43.757590" lon="-7.881312">
        <ele>311.166</ele>
        <time>2016-09-26T07:43:21Z</time>
      </trkpt>
      <trkpt lat="43.757571" lon="-7.881314">
        <ele>311.468</ele>
        <time>2016-09-26T07:43:22Z</time>
      </trkpt>
      <trkpt lat="43.757552" lon="-7.881315">
        <ele>311.642</ele>
        <time>2016-09-26T07:43:23Z</time>
      </trkpt>
      <trkpt lat="43.757533" lon="-7.881315">
        <ele>311.726</ele>
        <time>2016-09-26T07:43:24Z</time>
      </trkpt>
      <trkpt lat="43.757518" lon="-7.881317">
        <ele>312.008</ele>
        <time>2016-09-26T07:43:25Z</time>
      </trkpt>
      <trkpt lat="43.757501" lon="-7.881317">
        <ele>312.027</ele>
        <time>2016-09-26T07:43:26Z</time>
      </trkpt>
      <trkpt lat="43.757482" lon="-7.881320">
        <ele>312.122</ele>
        <time>2016-09-26T07:43:27Z</time>
      </trkpt>
      <trkpt lat="43.757463" lon="-7.881324">
        <ele>312.250</ele>
        <time>2016-09-26T07:43:28Z</time>
      </trkpt>
      <trkpt lat="43.757445" lon="-7.881326">
        <ele>312.316</ele>
        <time>2016-09-26T07:43:29Z</time>
      </trkpt>
      <trkpt lat="43.757428" lon="-7.881330">
        <ele>312.210</ele>
        <time>2016-09-26T07:43:30Z</time>
      </trkpt>
      <trkpt lat="43.757409" lon="-7.881333">
        <ele>312.352</ele>
        <time>2016-09-26T07:43:31Z</time>
      </trkpt>
      <trkpt lat="43.757390" lon="-7.881334">
        <ele>312.595</ele>
        <time>2016-09-26T07:43:32Z</time>
      </trkpt>
      <trkpt lat="43.757373" lon="-7.881337">
        <ele>312.583</ele>
        <time>2016-09-26T07:43:33Z</time>
      </trkpt>
      <trkpt lat="43.757355" lon="-7.881342">
        <ele>312.996</ele>
        <time>2016-09-26T07:43:34Z</time>
      </trkpt>
      <trkpt lat="43.757336" lon="-7.881346">
        <ele>313.031</ele>
        <time>2016-09-26T07:43:35Z</time>
      </trkpt>
      <trkpt lat="43.757315" lon="-7.881349">
        <ele>313.324</ele>
        <time>2016-09-26T07:43:36Z</time>
      </trkpt>
      <trkpt lat="43.757296" lon="-7.881353">
        <ele>313.308</ele>
        <time>2016-09-26T07:43:37Z</time>
      </trkpt>
      <trkpt lat="43.757277" lon="-7.881358">
        <ele>313.380</ele>
        <time>2016-09-26T07:43:38Z</time>
      </trkpt>
      <trkpt lat="43.757261" lon="-7.881365">
        <ele>313.395</ele>
        <time>2016-09-26T07:43:39Z</time>
      </trkpt>
      <trkpt lat="43.757243" lon="-7.881370">
        <ele>313.493</ele>
        <time>2016-09-26T07:43:40Z</time>
      </trkpt>
      <trkpt lat="43.757224" lon="-7.881375">
        <ele>313.599</ele>
        <time>2016-09-26T07:43:41Z</time>
      </trkpt>
      <trkpt lat="43.757206" lon="-7.881382">
        <ele>313.583</ele>
        <time>2016-09-26T07:43:42Z</time>
      </trkpt>
      <trkpt lat="43.757187" lon="-7.881387">
        <ele>313.735</ele>
        <time>2016-09-26T07:43:43Z</time>
      </trkpt>
      <trkpt lat="43.757169" lon="-7.881393">
        <ele>314.028</ele>
        <time>2016-09-26T07:43:44Z</time>
      </trkpt>
      <trkpt lat="43.757150" lon="-7.881399">
        <ele>314.266</ele>
        <time>2016-09-26T07:43:45Z</time>
      </trkpt>
      <trkpt lat="43.757130" lon="-7.881403">
        <ele>314.487</ele>
        <time>2016-09-26T07:43:46Z</time>
      </trkpt>
      <trkpt lat="43.757112" lon="-7.881408">
        <ele>314.542</ele>
        <time>2016-09-26T07:43:47Z</time>
      </trkpt>
      <trkpt lat="43.757095" lon="-7.881415">
        <ele>314.726</ele>
        <time>2016-09-26T07:43:48Z</time>
      </trkpt>
      <trkpt lat="43.757081" lon="-7.881427">
        <ele>314.908</ele>
        <time>2016-09-26T07:43:49Z</time>
      </trkpt>
      <trkpt lat="43.757065" lon="-7.881437">
        <ele>314.919</ele>
        <time>2016-09-26T07:43:50Z</time>
      </trkpt>
      <trkpt lat="43.757048" lon="-7.881445">
        <ele>315.144</ele>
        <time>2016-09-26T07:43:51Z</time>
      </trkpt>
      <trkpt lat="43.757034" lon="-7.881458">
        <ele>315.312</ele>
        <time>2016-09-26T07:43:52Z</time>
      </trkpt>
      <trkpt lat="43.757019" lon="-7.881471">
        <ele>315.638</ele>
        <time>2016-09-26T07:43:53Z</time>
      </trkpt>
      <trkpt lat="43.757001" lon="-7.881482">
        <ele>315.752</ele>
        <time>2016-09-26T07:43:54Z</time>
      </trkpt>
      <trkpt lat="43.756977" lon="-7.881489">
        <ele>315.894</ele>
        <time>2016-09-26T07:43:55Z</time>
      </trkpt>
      <trkpt lat="43.756957" lon="-7.881500">
        <ele>315.897</ele>
        <time>2016-09-26T07:43:56Z</time>
      </trkpt>
      <trkpt lat="43.756941" lon="-7.881509">
        <ele>315.935</ele>
        <time>2016-09-26T07:43:57Z</time>
      </trkpt>
      <trkpt lat="43.756924" lon="-7.881517">
        <ele>316.121</ele>
        <time>2016-09-26T07:43:58Z</time>
      </trkpt>
      <trkpt lat="43.756907" lon="-7.881529">
        <ele>316.041</ele>
        <time>2016-09-26T07:43:59Z</time>
      </trkpt>
      <trkpt lat="43.756886" lon="-7.881536">
        <ele>316.205</ele>
        <time>2016-09-26T07:44:00Z</time>
      </trkpt>
      <trkpt lat="43.756863" lon="-7.881536">
        <ele>316.308</ele>
        <time>2016-09-26T07:44:01Z</time>
      </trkpt>
      <trkpt lat="43.756839" lon="-7.881537">
        <ele>316.513</ele>
        <time>2016-09-26T07:44:02Z</time>
      </trkpt>
      <trkpt lat="43.756815" lon="-7.881539">
        <ele>316.628</ele>
        <time>2016-09-26T07:44:03Z</time>
      </trkpt>
      <trkpt lat="43.756793" lon="-7.881547">
        <ele>316.946</ele>
        <time>2016-09-26T07:44:04Z</time>
      </trkpt>
      <trkpt lat="43.756770" lon="-7.881549">
        <ele>317.132</ele>
        <time>2016-09-26T07:44:05Z</time>
      </trkpt>
      <trkpt lat="43.756748" lon="-7.881557">
        <ele>317.396</ele>
        <time>2016-09-26T07:44:06Z</time>
      </trkpt>
      <trkpt lat="43.756724" lon="-7.881559">
        <ele>317.488</ele>
        <time>2016-09-26T07:44:07Z</time>
      </trkpt>
      <trkpt lat="43.756702" lon="-7.881564">
        <ele>317.661</ele>
        <time>2016-09-26T07:44:08Z</time>
      </trkpt>
      <trkpt lat="43.756680" lon="-7.881566">
        <ele>317.949</ele>
        <time>2016-09-26T07:44:09Z</time>
      </trkpt>
      <trkpt lat="43.756661" lon="-7.881571">
        <ele>318.078</ele>
        <time>2016-09-26T07:44:10Z</time>
      </trkpt>
      <trkpt lat="43.756639" lon="-7.881574">
        <ele>318.233</ele>
        <time>2016-09-26T07:44:11Z</time>
      </trkpt>
      <trkpt lat="43.756615" lon="-7.881577">
        <ele>318.226</ele>
        <time>2016-09-26T07:44:12Z</time>
      </trkpt>
      <trkpt lat="43.756595" lon="-7.881581">
        <ele>318.308</ele>
        <time>2016-09-26T07:44:13Z</time>
      </trkpt>
      <trkpt lat="43.756576" lon="-7.881583">
        <ele>318.448</ele>
        <time>2016-09-26T07:44:14Z</time>
      </trkpt>
      <trkpt lat="43.756561" lon="-7.881586">
        <ele>318.583</ele>
        <time>2016-09-26T07:44:15Z</time>
      </trkpt>
      <trkpt lat="43.756545" lon="-7.881586">
        <ele>318.671</ele>
        <time>2016-09-26T07:44:16Z</time>
      </trkpt>
      <trkpt lat="43.756532" lon="-7.881592">
        <ele>318.827</ele>
        <time>2016-09-26T07:44:17Z</time>
      </trkpt>
      <trkpt lat="43.756510" lon="-7.881596">
        <ele>318.961</ele>
        <time>2016-09-26T07:44:18Z</time>
      </trkpt>
      <trkpt lat="43.756490" lon="-7.881597">
        <ele>319.133</ele>
        <time>2016-09-26T07:44:19Z</time>
      </trkpt>
      <trkpt lat="43.756470" lon="-7.881602">
        <ele>319.336</ele>
        <time>2016-09-26T07:44:20Z</time>
      </trkpt>
      <trkpt lat="43.756449" lon="-7.881607">
        <ele>319.454</ele>
        <time>2016-09-26T07:44:21Z</time>
      </trkpt>
      <trkpt lat="43.756431" lon="-7.881619">
        <ele>319.681</ele>
        <time>2016-09-26T07:44:22Z</time>
      </trkpt>
      <trkpt lat="43.756412" lon="-7.881628">
        <ele>319.661</ele>
        <time>2016-09-26T07:44:23Z</time>
      </trkpt>
      <trkpt lat="43.756394" lon="-7.881638">
        <ele>319.717</ele>
        <time>2016-09-26T07:44:24Z</time>
      </trkpt>
      <trkpt lat="43.756374" lon="-7.881642">
        <ele>319.708</ele>
        <time>2016-09-26T07:44:25Z</time>
      </trkpt>
      <trkpt lat="43.756351" lon="-7.881647">
        <ele>319.839</ele>
        <time>2016-09-26T07:44:26Z</time>
      </trkpt>
      <trkpt lat="43.756328" lon="-7.881650">
        <ele>319.874</ele>
        <time>2016-09-26T07:44:27Z</time>
      </trkpt>
      <trkpt lat="43.756309" lon="-7.881652">
        <ele>320.172</ele>
        <time>2016-09-26T07:44:28Z</time>
      </trkpt>
      <trkpt lat="43.756289" lon="-7.881657">
        <ele>320.428</ele>
        <time>2016-09-26T07:44:29Z</time>
      </trkpt>
      <trkpt lat="43.756267" lon="-7.881658">
        <ele>320.672</ele>
        <time>2016-09-26T07:44:30Z</time>
      </trkpt>
      <trkpt lat="43.756246" lon="-7.881657">
        <ele>320.794</ele>
        <time>2016-09-26T07:44:31Z</time>
      </trkpt>
      <trkpt lat="43.756229" lon="-7.881665">
        <ele>320.617</ele>
        <time>2016-09-26T07:44:32Z</time>
      </trkpt>
      <trkpt lat="43.756211" lon="-7.881676">
        <ele>320.865</ele>
        <time>2016-09-26T07:44:33Z</time>
      </trkpt>
      <trkpt lat="43.756189" lon="-7.881680">
        <ele>321.016</ele>
        <time>2016-09-26T07:44:34Z</time>
      </trkpt>
      <trkpt lat="43.756164" lon="-7.881687">
        <ele>321.176</ele>
        <time>2016-09-26T07:44:35Z</time>
      </trkpt>
      <trkpt lat="43.756136" lon="-7.881695">
        <ele>321.213</ele>
        <time>2016-09-26T07:44:36Z</time>
      </trkpt>
      <trkpt lat="43.756110" lon="-7.881702">
        <ele>321.508</ele>
        <time>2016-09-26T07:44:37Z</time>
      </trkpt>
      <trkpt lat="43.756087" lon="-7.881703">
        <ele>321.622</ele>
        <time>2016-09-26T07:44:38Z</time>
      </trkpt>
      <trkpt lat="43.756066" lon="-7.881703">
        <ele>321.547</ele>
        <time>2016-09-26T07:44:39Z</time>
      </trkpt>
      <trkpt lat="43.756044" lon="-7.881706">
        <ele>321.685</ele>
        <time>2016-09-26T07:44:40Z</time>
      </trkpt>
      <trkpt lat="43.756013" lon="-7.881705">
        <ele>321.551</ele>
        <time>2016-09-26T07:44:41Z</time>
      </trkpt>
      <trkpt lat="43.755987" lon="-7.881707">
        <ele>321.715</ele>
        <time>2016-09-26T07:44:42Z</time>
      </trkpt>
      <trkpt lat="43.755960" lon="-7.881705">
        <ele>321.787</ele>
        <time>2016-09-26T07:44:43Z</time>
      </trkpt>
      <trkpt lat="43.755932" lon="-7.881696">
        <ele>321.930</ele>
        <time>2016-09-26T07:44:44Z</time>
      </trkpt>
      <trkpt lat="43.755907" lon="-7.881694">
        <ele>321.938</ele>
        <time>2016-09-26T07:44:45Z</time>
      </trkpt>
      <trkpt lat="43.755879" lon="-7.881694">
        <ele>321.913</ele>
        <time>2016-09-26T07:44:46Z</time>
      </trkpt>
      <trkpt lat="43.755845" lon="-7.881689">
        <ele>322.043</ele>
        <time>2016-09-26T07:44:47Z</time>
      </trkpt>
      <trkpt lat="43.755812" lon="-7.881689">
        <ele>322.107</ele>
        <time>2016-09-26T07:44:48Z</time>
      </trkpt>
      <trkpt lat="43.755787" lon="-7.881686">
        <ele>322.108</ele>
        <time>2016-09-26T07:44:49Z</time>
      </trkpt>
      <trkpt lat="43.755763" lon="-7.881685">
        <ele>322.232</ele>
        <time>2016-09-26T07:44:50Z</time>
      </trkpt>
      <trkpt lat="43.755741" lon="-7.881687">
        <ele>322.287</ele>
        <time>2016-09-26T07:44:51Z</time>
      </trkpt>
      <trkpt lat="43.755715" lon="-7.881690">
        <ele>322.225</ele>
        <time>2016-09-26T07:44:52Z</time>
      </trkpt>
      <trkpt lat="43.755689" lon="-7.881692">
        <ele>322.291</ele>
        <time>2016-09-26T07:44:53Z</time>
      </trkpt>
      <trkpt lat="43.755661" lon="-7.881694">
        <ele>322.395</ele>
        <time>2016-09-26T07:44:54Z</time>
      </trkpt>
      <trkpt lat="43.755633" lon="-7.881697">
        <ele>322.247</ele>
        <time>2016-09-26T07:44:55Z</time>
      </trkpt>
      <trkpt lat="43.755601" lon="-7.881699">
        <ele>322.350</ele>
        <time>2016-09-26T07:44:56Z</time>
      </trkpt>
      <trkpt lat="43.755572" lon="-7.881700">
        <ele>322.488</ele>
        <time>2016-09-26T07:44:57Z</time>
      </trkpt>
      <trkpt lat="43.755545" lon="-7.881698">
        <ele>322.427</ele>
        <time>2016-09-26T07:44:58Z</time>
      </trkpt>
      <trkpt lat="43.755516" lon="-7.881695">
        <ele>322.468</ele>
        <time>2016-09-26T07:44:59Z</time>
      </trkpt>
      <trkpt lat="43.755488" lon="-7.881694">
        <ele>322.314</ele>
        <time>2016-09-26T07:45:00Z</time>
      </trkpt>
      <trkpt lat="43.755462" lon="-7.881693">
        <ele>322.408</ele>
        <time>2016-09-26T07:45:01Z</time>
      </trkpt>
      <trkpt lat="43.755432" lon="-7.881696">
        <ele>322.563</ele>
        <time>2016-09-26T07:45:02Z</time>
      </trkpt>
      <trkpt lat="43.755401" lon="-7.881702">
        <ele>322.798</ele>
        <time>2016-09-26T07:45:03Z</time>
      </trkpt>
      <trkpt lat="43.755372" lon="-7.881705">
        <ele>322.786</ele>
        <time>2016-09-26T07:45:04Z</time>
      </trkpt>
      <trkpt lat="43.755347" lon="-7.881703">
        <ele>322.862</ele>
        <time>2016-09-26T07:45:05Z</time>
      </trkpt>
      <trkpt lat="43.755319" lon="-7.881703">
        <ele>322.836</ele>
        <time>2016-09-26T07:45:06Z</time>
      </trkpt>
      <trkpt lat="43.755293" lon="-7.881707">
        <ele>322.758</ele>
        <time>2016-09-26T07:45:07Z</time>
      </trkpt>
      <trkpt lat="43.755265" lon="-7.881707">
        <ele>322.871</ele>
        <time>2016-09-26T07:45:08Z</time>
      </trkpt>
      <trkpt lat="43.755235" lon="-7.881713">
        <ele>322.929</ele>
        <time>2016-09-26T07:45:09Z</time>
      </trkpt>
      <trkpt lat="43.755201" lon="-7.881719">
        <ele>323.033</ele>
        <time>2016-09-26T07:45:10Z</time>
      </trkpt>
      <trkpt lat="43.755165" lon="-7.881722">
        <ele>323.223</ele>
        <time>2016-09-26T07:45:11Z</time>
      </trkpt>
      <trkpt lat="43.755130" lon="-7.881727">
        <ele>323.015</ele>
        <time>2016-09-26T07:45:12Z</time>
      </trkpt>
      <trkpt lat="43.755094" lon="-7.881730">
        <ele>323.008</ele>
        <time>2016-09-26T07:45:13Z</time>
      </trkpt>
      <trkpt lat="43.755063" lon="-7.881736">
        <ele>323.014</ele>
        <time>2016-09-26T07:45:14Z</time>
      </trkpt>
      <trkpt lat="43.755032" lon="-7.881738">
        <ele>322.939</ele>
        <time>2016-09-26T07:45:15Z</time>
      </trkpt>
      <trkpt lat="43.754996" lon="-7.881742">
        <ele>323.087</ele>
        <time>2016-09-26T07:45:16Z</time>
      </trkpt>
      <trkpt lat="43.754966" lon="-7.881746">
        <ele>323.173</ele>
        <time>2016-09-26T07:45:17Z</time>
      </trkpt>
      <trkpt lat="43.754935" lon="-7.881751">
        <ele>323.267</ele>
        <time>2016-09-26T07:45:18Z</time>
      </trkpt>
      <trkpt lat="43.754906" lon="-7.881762">
        <ele>323.119</ele>
        <time>2016-09-26T07:45:19Z</time>
      </trkpt>
      <trkpt lat="43.754882" lon="-7.881772">
        <ele>323.032</ele>
        <time>2016-09-26T07:45:20Z</time>
      </trkpt>
      <trkpt lat="43.754856" lon="-7.881781">
        <ele>323.190</ele>
        <time>2016-09-26T07:45:21Z</time>
      </trkpt>
      <trkpt lat="43.754827" lon="-7.881791">
        <ele>323.154</ele>
        <time>2016-09-26T07:45:22Z</time>
      </trkpt>
      <trkpt lat="43.754796" lon="-7.881800">
        <ele>323.256</ele>
        <time>2016-09-26T07:45:23Z</time>
      </trkpt>
      <trkpt lat="43.754760" lon="-7.881807">
        <ele>323.311</ele>
        <time>2016-09-26T07:45:24Z</time>
      </trkpt>
      <trkpt lat="43.754722" lon="-7.881813">
        <ele>323.408</ele>
        <time>2016-09-26T07:45:25Z</time>
      </trkpt>
      <trkpt lat="43.754687" lon="-7.881815">
        <ele>323.566</ele>
        <time>2016-09-26T07:45:26Z</time>
      </trkpt>
      <trkpt lat="43.754654" lon="-7.881810">
        <ele>323.641</ele>
        <time>2016-09-26T07:45:27Z</time>
      </trkpt>
      <trkpt lat="43.754619" lon="-7.881805">
        <ele>323.759</ele>
        <time>2016-09-26T07:45:28Z</time>
      </trkpt>
      <trkpt lat="43.754583" lon="-7.881805">
        <ele>323.725</ele>
        <time>2016-09-26T07:45:29Z</time>
      </trkpt>
      <trkpt lat="43.754553" lon="-7.881809">
        <ele>323.779</ele>
        <time>2016-09-26T07:45:30Z</time>
      </trkpt>
      <trkpt lat="43.754525" lon="-7.881813">
        <ele>323.711</ele>
        <time>2016-09-26T07:45:31Z</time>
      </trkpt>
      <trkpt lat="43.754487" lon="-7.881817">
        <ele>323.884</ele>
        <time>2016-09-26T07:45:32Z</time>
      </trkpt>
      <trkpt lat="43.754447" lon="-7.881825">
        <ele>323.922</ele>
        <time>2016-09-26T07:45:33Z</time>
      </trkpt>
      <trkpt lat="43.754411" lon="-7.881835">
        <ele>323.826</ele>
        <time>2016-09-26T07:45:34Z</time>
      </trkpt>
      <trkpt lat="43.754367" lon="-7.881840">
        <ele>323.747</ele>
        <time>2016-09-26T07:45:35Z</time>
      </trkpt>
      <trkpt lat="43.754320" lon="-7.881848">
        <ele>323.611</ele>
        <time>2016-09-26T07:45:36Z</time>
      </trkpt>
      <trkpt lat="43.754271" lon="-7.881856">
        <ele>323.508</ele>
        <time>2016-09-26T07:45:37Z</time>
      </trkpt>
      <trkpt lat="43.754225" lon="-7.881867">
        <ele>323.363</ele>
        <time>2016-09-26T07:45:38Z</time>
      </trkpt>
      <trkpt lat="43.754172" lon="-7.881875">
        <ele>323.228</ele>
        <time>2016-09-26T07:45:39Z</time>
      </trkpt>
      <trkpt lat="43.754116" lon="-7.881883">
        <ele>323.086</ele>
        <time>2016-09-26T07:45:40Z</time>
      </trkpt>
      <trkpt lat="43.754055" lon="-7.881896">
        <ele>322.772</ele>
        <time>2016-09-26T07:45:41Z</time>
      </trkpt>
      <trkpt lat="43.753998" lon="-7.881912">
        <ele>322.536</ele>
        <time>2016-09-26T07:45:42Z</time>
      </trkpt>
      <trkpt lat="43.753953" lon="-7.881933">
        <ele>322.358</ele>
        <time>2016-09-26T07:45:43Z</time>
      </trkpt>
      <trkpt lat="43.753908" lon="-7.881951">
        <ele>322.351</ele>
        <time>2016-09-26T07:45:44Z</time>
      </trkpt>
      <trkpt lat="43.753867" lon="-7.881971">
        <ele>322.219</ele>
        <time>2016-09-26T07:45:45Z</time>
      </trkpt>
      <trkpt lat="43.753822" lon="-7.881989">
        <ele>322.174</ele>
        <time>2016-09-26T07:45:46Z</time>
      </trkpt>
      <trkpt lat="43.753779" lon="-7.882011">
        <ele>321.956</ele>
        <time>2016-09-26T07:45:47Z</time>
      </trkpt>
      <trkpt lat="43.753739" lon="-7.882034">
        <ele>321.821</ele>
        <time>2016-09-26T07:45:48Z</time>
      </trkpt>
      <trkpt lat="43.753695" lon="-7.882057">
        <ele>321.608</ele>
        <time>2016-09-26T07:45:49Z</time>
      </trkpt>
      <trkpt lat="43.753653" lon="-7.882085">
        <ele>321.548</ele>
        <time>2016-09-26T07:45:50Z</time>
      </trkpt>
      <trkpt lat="43.753606" lon="-7.882113">
        <ele>321.423</ele>
        <time>2016-09-26T07:45:51Z</time>
      </trkpt>
      <trkpt lat="43.753553" lon="-7.882143">
        <ele>321.321</ele>
        <time>2016-09-26T07:45:52Z</time>
      </trkpt>
      <trkpt lat="43.753502" lon="-7.882176">
        <ele>321.047</ele>
        <time>2016-09-26T07:45:53Z</time>
      </trkpt>
      <trkpt lat="43.753461" lon="-7.882207">
        <ele>320.731</ele>
        <time>2016-09-26T07:45:54Z</time>
      </trkpt>
      <trkpt lat="43.753425" lon="-7.882236">
        <ele>320.453</ele>
        <time>2016-09-26T07:45:55Z</time>
      </trkpt>
      <trkpt lat="43.753394" lon="-7.882265">
        <ele>320.126</ele>
        <time>2016-09-26T07:45:56Z</time>
      </trkpt>
      <trkpt lat="43.753362" lon="-7.882290">
        <ele>319.864</ele>
        <time>2016-09-26T07:45:57Z</time>
      </trkpt>
      <trkpt lat="43.753332" lon="-7.882316">
        <ele>319.569</ele>
        <time>2016-09-26T07:45:58Z</time>
      </trkpt>
      <trkpt lat="43.753301" lon="-7.882346">
        <ele>319.404</ele>
        <time>2016-09-26T07:45:59Z</time>
      </trkpt>
      <trkpt lat="43.753269" lon="-7.882375">
        <ele>319.024</ele>
        <time>2016-09-26T07:46:00Z</time>
      </trkpt>
      <trkpt lat="43.753243" lon="-7.882403">
        <ele>318.808</ele>
        <time>2016-09-26T07:46:01Z</time>
      </trkpt>
      <trkpt lat="43.753221" lon="-7.882433">
        <ele>318.677</ele>
        <time>2016-09-26T07:46:02Z</time>
      </trkpt>
      <trkpt lat="43.753196" lon="-7.882471">
        <ele>318.362</ele>
        <time>2016-09-26T07:46:03Z</time>
      </trkpt>
      <trkpt lat="43.753174" lon="-7.882513">
        <ele>318.050</ele>
        <time>2016-09-26T07:46:04Z</time>
      </trkpt>
      <trkpt lat="43.753155" lon="-7.882553">
        <ele>317.886</ele>
        <time>2016-09-26T07:46:05Z</time>
      </trkpt>
      <trkpt lat="43.753139" lon="-7.882591">
        <ele>317.480</ele>
        <time>2016-09-26T07:46:06Z</time>
      </trkpt>
      <trkpt lat="43.753126" lon="-7.882626">
        <ele>317.232</ele>
        <time>2016-09-26T07:46:07Z</time>
      </trkpt>
      <trkpt lat="43.753104" lon="-7.882658">
        <ele>317.145</ele>
        <time>2016-09-26T07:46:08Z</time>
      </trkpt>
      <trkpt lat="43.753078" lon="-7.882689">
        <ele>317.263</ele>
        <time>2016-09-26T07:46:09Z</time>
      </trkpt>
      <trkpt lat="43.753060" lon="-7.882727">
        <ele>317.014</ele>
        <time>2016-09-26T07:46:10Z</time>
      </trkpt>
      <trkpt lat="43.753051" lon="-7.882767">
        <ele>316.854</ele>
        <time>2016-09-26T07:46:11Z</time>
      </trkpt>
      <trkpt lat="43.753049" lon="-7.882808">
        <ele>316.809</ele>
        <time>2016-09-26T07:46:12Z</time>
      </trkpt>
      <trkpt lat="43.753045" lon="-7.882850">
        <ele>316.908</ele>
        <time>2016-09-26T07:46:13Z</time>
      </trkpt>
      <trkpt lat="43.753042" lon="-7.882891">
        <ele>317.062</ele>
        <time>2016-09-26T07:46:14Z</time>
      </trkpt>
      <trkpt lat="43.753039" lon="-7.882929">
        <ele>317.097</ele>
        <time>2016-09-26T07:46:15Z</time>
      </trkpt>
      <trkpt lat="43.753034" lon="-7.882964">
        <ele>317.075</ele>
        <time>2016-09-26T07:46:16Z</time>
      </trkpt>
      <trkpt lat="43.753029" lon="-7.882998">
        <ele>317.271</ele>
        <time>2016-09-26T07:46:17Z</time>
      </trkpt>
      <trkpt lat="43.753021" lon="-7.883033">
        <ele>317.345</ele>
        <time>2016-09-26T07:46:18Z</time>
      </trkpt>
      <trkpt lat="43.753016" lon="-7.883069">
        <ele>317.447</ele>
        <time>2016-09-26T07:46:19Z</time>
      </trkpt>
      <trkpt lat="43.753010" lon="-7.883106">
        <ele>317.660</ele>
        <time>2016-09-26T07:46:20Z</time>
      </trkpt>
      <trkpt lat="43.753004" lon="-7.883142">
        <ele>317.838</ele>
        <time>2016-09-26T07:46:21Z</time>
      </trkpt>
      <trkpt lat="43.752998" lon="-7.883175">
        <ele>318.163</ele>
        <time>2016-09-26T07:46:22Z</time>
      </trkpt>
      <trkpt lat="43.752991" lon="-7.883206">
        <ele>318.344</ele>
        <time>2016-09-26T07:46:23Z</time>
      </trkpt>
      <trkpt lat="43.752983" lon="-7.883237">
        <ele>318.318</ele>
        <time>2016-09-26T07:46:24Z</time>
      </trkpt>
      <trkpt lat="43.752976" lon="-7.883268">
        <ele>318.408</ele>
        <time>2016-09-26T07:46:25Z</time>
      </trkpt>
      <trkpt lat="43.752970" lon="-7.883301">
        <ele>318.637</ele>
        <time>2016-09-26T07:46:26Z</time>
      </trkpt>
      <trkpt lat="43.752968" lon="-7.883333">
        <ele>318.882</ele>
        <time>2016-09-26T07:46:27Z</time>
      </trkpt>
      <trkpt lat="43.752965" lon="-7.883363">
        <ele>319.220</ele>
        <time>2016-09-26T07:46:28Z</time>
      </trkpt>
      <trkpt lat="43.752960" lon="-7.883393">
        <ele>319.556</ele>
        <time>2016-09-26T07:46:29Z</time>
      </trkpt>
      <trkpt lat="43.752956" lon="-7.883424">
        <ele>319.680</ele>
        <time>2016-09-26T07:46:30Z</time>
      </trkpt>
      <trkpt lat="43.752953" lon="-7.883455">
        <ele>319.842</ele>
        <time>2016-09-26T07:46:31Z</time>
      </trkpt>
      <trkpt lat="43.752950" lon="-7.883486">
        <ele>320.175</ele>
        <time>2016-09-26T07:46:32Z</time>
      </trkpt>
      <trkpt lat="43.752949" lon="-7.883514">
        <ele>320.413</ele>
        <time>2016-09-26T07:46:33Z</time>
      </trkpt>
      <trkpt lat="43.752946" lon="-7.883542">
        <ele>320.776</ele>
        <time>2016-09-26T07:46:34Z</time>
      </trkpt>
      <trkpt lat="43.752943" lon="-7.883573">
        <ele>321.090</ele>
        <time>2016-09-26T07:46:35Z</time>
      </trkpt>
      <trkpt lat="43.752942" lon="-7.883602">
        <ele>321.219</ele>
        <time>2016-09-26T07:46:36Z</time>
      </trkpt>
      <trkpt lat="43.752941" lon="-7.883628">
        <ele>321.508</ele>
        <time>2016-09-26T07:46:37Z</time>
      </trkpt>
      <trkpt lat="43.752940" lon="-7.883655">
        <ele>321.618</ele>
        <time>2016-09-26T07:46:38Z</time>
      </trkpt>
      <trkpt lat="43.752939" lon="-7.883689">
        <ele>321.943</ele>
        <time>2016-09-26T07:46:39Z</time>
      </trkpt>
      <trkpt lat="43.752939" lon="-7.883724">
        <ele>322.251</ele>
        <time>2016-09-26T07:46:40Z</time>
      </trkpt>
      <trkpt lat="43.752937" lon="-7.883753">
        <ele>322.347</ele>
        <time>2016-09-26T07:46:41Z</time>
      </trkpt>
      <trkpt lat="43.752936" lon="-7.883786">
        <ele>322.391</ele>
        <time>2016-09-26T07:46:42Z</time>
      </trkpt>
      <trkpt lat="43.752932" lon="-7.883814">
        <ele>322.723</ele>
        <time>2016-09-26T07:46:43Z</time>
      </trkpt>
      <trkpt lat="43.752925" lon="-7.883841">
        <ele>323.016</ele>
        <time>2016-09-26T07:46:44Z</time>
      </trkpt>
      <trkpt lat="43.752920" lon="-7.883868">
        <ele>323.084</ele>
        <time>2016-09-26T07:46:45Z</time>
      </trkpt>
      <trkpt lat="43.752915" lon="-7.883895">
        <ele>323.397</ele>
        <time>2016-09-26T07:46:46Z</time>
      </trkpt>
      <trkpt lat="43.752912" lon="-7.883920">
        <ele>323.423</ele>
        <time>2016-09-26T07:46:47Z</time>
      </trkpt>
      <trkpt lat="43.752910" lon="-7.883949">
        <ele>323.825</ele>
        <time>2016-09-26T07:46:48Z</time>
      </trkpt>
      <trkpt lat="43.752906" lon="-7.883977">
        <ele>324.108</ele>
        <time>2016-09-26T07:46:49Z</time>
      </trkpt>
      <trkpt lat="43.752899" lon="-7.884005">
        <ele>324.490</ele>
        <time>2016-09-26T07:46:50Z</time>
      </trkpt>
      <trkpt lat="43.752895" lon="-7.884037">
        <ele>324.595</ele>
        <time>2016-09-26T07:46:51Z</time>
      </trkpt>
      <trkpt lat="43.752889" lon="-7.884065">
        <ele>324.863</ele>
        <time>2016-09-26T07:46:52Z</time>
      </trkpt>
      <trkpt lat="43.752881" lon="-7.884094">
        <ele>324.759</ele>
        <time>2016-09-26T07:46:53Z</time>
      </trkpt>
      <trkpt lat="43.752873" lon="-7.884122">
        <ele>325.053</ele>
        <time>2016-09-26T07:46:54Z</time>
      </trkpt>
      <trkpt lat="43.752865" lon="-7.884151">
        <ele>325.085</ele>
        <time>2016-09-26T07:46:55Z</time>
      </trkpt>
      <trkpt lat="43.752858" lon="-7.884179">
        <ele>325.378</ele>
        <time>2016-09-26T07:46:56Z</time>
      </trkpt>
      <trkpt lat="43.752853" lon="-7.884207">
        <ele>325.336</ele>
        <time>2016-09-26T07:46:57Z</time>
      </trkpt>
      <trkpt lat="43.752849" lon="-7.884237">
        <ele>325.582</ele>
        <time>2016-09-26T07:46:58Z</time>
      </trkpt>
      <trkpt lat="43.752839" lon="-7.884263">
        <ele>325.743</ele>
        <time>2016-09-26T07:46:59Z</time>
      </trkpt>
      <trkpt lat="43.752831" lon="-7.884294">
        <ele>325.817</ele>
        <time>2016-09-26T07:47:00Z</time>
      </trkpt>
      <trkpt lat="43.752825" lon="-7.884324">
        <ele>326.008</ele>
        <time>2016-09-26T07:47:01Z</time>
      </trkpt>
      <trkpt lat="43.752816" lon="-7.884354">
        <ele>326.319</ele>
        <time>2016-09-26T07:47:02Z</time>
      </trkpt>
      <trkpt lat="43.752804" lon="-7.884381">
        <ele>326.564</ele>
        <time>2016-09-26T07:47:03Z</time>
      </trkpt>
      <trkpt lat="43.752795" lon="-7.884411">
        <ele>326.892</ele>
        <time>2016-09-26T07:47:04Z</time>
      </trkpt>
      <trkpt lat="43.752791" lon="-7.884439">
        <ele>326.928</ele>
        <time>2016-09-26T07:47:05Z</time>
      </trkpt>
      <trkpt lat="43.752784" lon="-7.884467">
        <ele>327.172</ele>
        <time>2016-09-26T07:47:06Z</time>
      </trkpt>
      <trkpt lat="43.752774" lon="-7.884494">
        <ele>327.214</ele>
        <time>2016-09-26T07:47:07Z</time>
      </trkpt>
      <trkpt lat="43.752764" lon="-7.884519">
        <ele>327.527</ele>
        <time>2016-09-26T07:47:08Z</time>
      </trkpt>
      <trkpt lat="43.752752" lon="-7.884545">
        <ele>327.615</ele>
        <time>2016-09-26T07:47:09Z</time>
      </trkpt>
      <trkpt lat="43.752740" lon="-7.884573">
        <ele>327.794</ele>
        <time>2016-09-26T07:47:10Z</time>
      </trkpt>
      <trkpt lat="43.752727" lon="-7.884601">
        <ele>327.857</ele>
        <time>2016-09-26T07:47:11Z</time>
      </trkpt>
      <trkpt lat="43.752714" lon="-7.884629">
        <ele>328.022</ele>
        <time>2016-09-26T07:47:12Z</time>
      </trkpt>
      <trkpt lat="43.752701" lon="-7.884656">
        <ele>328.308</ele>
        <time>2016-09-26T07:47:13Z</time>
      </trkpt>
      <trkpt lat="43.752688" lon="-7.884683">
        <ele>328.530</ele>
        <time>2016-09-26T07:47:14Z</time>
      </trkpt>
      <trkpt lat="43.752673" lon="-7.884710">
        <ele>328.745</ele>
        <time>2016-09-26T07:47:15Z</time>
      </trkpt>
      <trkpt lat="43.752658" lon="-7.884738">
        <ele>328.883</ele>
        <time>2016-09-26T07:47:16Z</time>
      </trkpt>
      <trkpt lat="43.752643" lon="-7.884764">
        <ele>328.919</ele>
        <time>2016-09-26T07:47:17Z</time>
      </trkpt>
      <trkpt lat="43.752629" lon="-7.884790">
        <ele>329.193</ele>
        <time>2016-09-26T07:47:18Z</time>
      </trkpt>
      <trkpt lat="43.752616" lon="-7.884816">
        <ele>329.215</ele>
        <time>2016-09-26T07:47:19Z</time>
      </trkpt>
      <trkpt lat="43.752600" lon="-7.884840">
        <ele>329.468</ele>
        <time>2016-09-26T07:47:20Z</time>
      </trkpt>
      <trkpt lat="43.752585" lon="-7.884860">
        <ele>329.566</ele>
        <time>2016-09-26T07:47:21Z</time>
      </trkpt>
      <trkpt lat="43.752570" lon="-7.884882">
        <ele>329.739</ele>
        <time>2016-09-26T07:47:22Z</time>
      </trkpt>
      <trkpt lat="43.752555" lon="-7.884904">
        <ele>329.701</ele>
        <time>2016-09-26T07:47:23Z</time>
      </trkpt>
      <trkpt lat="43.752541" lon="-7.884928">
        <ele>329.921</ele>
        <time>2016-09-26T07:47:24Z</time>
      </trkpt>
      <trkpt lat="43.752526" lon="-7.884956">
        <ele>330.108</ele>
        <time>2016-09-26T07:47:25Z</time>
      </trkpt>
      <trkpt lat="43.752510" lon="-7.884982">
        <ele>330.114</ele>
        <time>2016-09-26T07:47:26Z</time>
      </trkpt>
      <trkpt lat="43.752494" lon="-7.885006">
        <ele>330.119</ele>
        <time>2016-09-26T07:47:27Z</time>
      </trkpt>
      <trkpt lat="43.752480" lon="-7.885031">
        <ele>330.347</ele>
        <time>2016-09-26T07:47:28Z</time>
      </trkpt>
      <trkpt lat="43.752464" lon="-7.885054">
        <ele>330.683</ele>
        <time>2016-09-26T07:47:29Z</time>
      </trkpt>
      <trkpt lat="43.752448" lon="-7.885077">
        <ele>330.577</ele>
        <time>2016-09-26T07:47:30Z</time>
      </trkpt>
      <trkpt lat="43.752431" lon="-7.885100">
        <ele>330.769</ele>
        <time>2016-09-26T07:47:31Z</time>
      </trkpt>
      <trkpt lat="43.752414" lon="-7.885123">
        <ele>330.842</ele>
        <time>2016-09-26T07:47:32Z</time>
      </trkpt>
      <trkpt lat="43.752398" lon="-7.885146">
        <ele>330.980</ele>
        <time>2016-09-26T07:47:33Z</time>
      </trkpt>
      <trkpt lat="43.752379" lon="-7.885170">
        <ele>330.948</ele>
        <time>2016-09-26T07:47:34Z</time>
      </trkpt>
      <trkpt lat="43.752362" lon="-7.885193">
        <ele>331.161</ele>
        <time>2016-09-26T07:47:35Z</time>
      </trkpt>
      <trkpt lat="43.752347" lon="-7.885217">
        <ele>331.317</ele>
        <time>2016-09-26T07:47:36Z</time>
      </trkpt>
      <trkpt lat="43.752329" lon="-7.885239">
        <ele>331.408</ele>
        <time>2016-09-26T07:47:37Z</time>
      </trkpt>
      <trkpt lat="43.752310" lon="-7.885261">
        <ele>331.525</ele>
        <time>2016-09-26T07:47:38Z</time>
      </trkpt>
      <trkpt lat="43.752292" lon="-7.885282">
        <ele>331.880</ele>
        <time>2016-09-26T07:47:39Z</time>
      </trkpt>
      <trkpt lat="43.752276" lon="-7.885305">
        <ele>331.948</ele>
        <time>2016-09-26T07:47:40Z</time>
      </trkpt>
      <trkpt lat="43.752265" lon="-7.885329">
        <ele>332.134</ele>
        <time>2016-09-26T07:47:41Z</time>
      </trkpt>
      <trkpt lat="43.752252" lon="-7.885356">
        <ele>332.358</ele>
        <time>2016-09-26T07:47:42Z</time>
      </trkpt>
      <trkpt lat="43.752237" lon="-7.885382">
        <ele>332.280</ele>
        <time>2016-09-26T07:47:43Z</time>
      </trkpt>
      <trkpt lat="43.752221" lon="-7.885407">
        <ele>332.273</ele>
        <time>2016-09-26T07:47:44Z</time>
      </trkpt>
      <trkpt lat="43.752204" lon="-7.885430">
        <ele>332.581</ele>
        <time>2016-09-26T07:47:45Z</time>
      </trkpt>
      <trkpt lat="43.752188" lon="-7.885456">
        <ele>332.612</ele>
        <time>2016-09-26T07:47:46Z</time>
      </trkpt>
      <trkpt lat="43.752171" lon="-7.885482">
        <ele>332.732</ele>
        <time>2016-09-26T07:47:47Z</time>
      </trkpt>
      <trkpt lat="43.752151" lon="-7.885504">
        <ele>332.805</ele>
        <time>2016-09-26T07:47:48Z</time>
      </trkpt>
      <trkpt lat="43.752132" lon="-7.885526">
        <ele>332.908</ele>
        <time>2016-09-26T07:47:49Z</time>
      </trkpt>
      <trkpt lat="43.752113" lon="-7.885552">
        <ele>333.032</ele>
        <time>2016-09-26T07:47:50Z</time>
      </trkpt>
      <trkpt lat="43.752093" lon="-7.885575">
        <ele>333.217</ele>
        <time>2016-09-26T07:47:51Z</time>
      </trkpt>
      <trkpt lat="43.752074" lon="-7.885597">
        <ele>333.375</ele>
        <time>2016-09-26T07:47:52Z</time>
      </trkpt>
      <trkpt lat="43.752054" lon="-7.885619">
        <ele>333.321</ele>
        <time>2016-09-26T07:47:53Z</time>
      </trkpt>
      <trkpt lat="43.752034" lon="-7.885640">
        <ele>333.445</ele>
        <time>2016-09-26T07:47:54Z</time>
      </trkpt>
      <trkpt lat="43.752011" lon="-7.885663">
        <ele>333.557</ele>
        <time>2016-09-26T07:47:55Z</time>
      </trkpt>
      <trkpt lat="43.751988" lon="-7.885687">
        <ele>333.610</ele>
        <time>2016-09-26T07:47:56Z</time>
      </trkpt>
      <trkpt lat="43.751970" lon="-7.885709">
        <ele>333.798</ele>
        <time>2016-09-26T07:47:57Z</time>
      </trkpt>
      <trkpt lat="43.751954" lon="-7.885734">
        <ele>333.714</ele>
        <time>2016-09-26T07:47:58Z</time>
      </trkpt>
      <trkpt lat="43.751937" lon="-7.885760">
        <ele>333.854</ele>
        <time>2016-09-26T07:47:59Z</time>
      </trkpt>
      <trkpt lat="43.751915" lon="-7.885784">
        <ele>333.809</ele>
        <time>2016-09-26T07:48:00Z</time>
      </trkpt>
      <trkpt lat="43.751890" lon="-7.885805">
        <ele>334.208</ele>
        <time>2016-09-26T07:48:01Z</time>
      </trkpt>
      <trkpt lat="43.751863" lon="-7.885826">
        <ele>334.262</ele>
        <time>2016-09-26T07:48:02Z</time>
      </trkpt>
      <trkpt lat="43.751837" lon="-7.885847">
        <ele>334.217</ele>
        <time>2016-09-26T07:48:03Z</time>
      </trkpt>
      <trkpt lat="43.751814" lon="-7.885867">
        <ele>334.165</ele>
        <time>2016-09-26T07:48:04Z</time>
      </trkpt>
      <trkpt lat="43.751791" lon="-7.885888">
        <ele>334.271</ele>
        <time>2016-09-26T07:48:05Z</time>
      </trkpt>
      <trkpt lat="43.751767" lon="-7.885912">
        <ele>334.225</ele>
        <time>2016-09-26T07:48:06Z</time>
      </trkpt>
      <trkpt lat="43.751745" lon="-7.885933">
        <ele>334.267</ele>
        <time>2016-09-26T07:48:07Z</time>
      </trkpt>
      <trkpt lat="43.751720" lon="-7.885950">
        <ele>334.210</ele>
        <time>2016-09-26T07:48:08Z</time>
      </trkpt>
      <trkpt lat="43.751694" lon="-7.885965">
        <ele>334.278</ele>
        <time>2016-09-26T07:48:09Z</time>
      </trkpt>
      <trkpt lat="43.751669" lon="-7.885984">
        <ele>334.313</ele>
        <time>2016-09-26T07:48:10Z</time>
      </trkpt>
      <trkpt lat="43.751644" lon="-7.886004">
        <ele>334.543</ele>
        <time>2016-09-26T07:48:11Z</time>
      </trkpt>
      <trkpt lat="43.751619" lon="-7.886021">
        <ele>334.607</ele>
        <time>2016-09-26T07:48:12Z</time>
      </trkpt>
      <trkpt lat="43.751592" lon="-7.886041">
        <ele>334.508</ele>
        <time>2016-09-26T07:48:13Z</time>
      </trkpt>
      <trkpt lat="43.751565" lon="-7.886064">
        <ele>334.552</ele>
        <time>2016-09-26T07:48:14Z</time>
      </trkpt>
      <trkpt lat="43.751539" lon="-7.886088">
        <ele>334.637</ele>
        <time>2016-09-26T07:48:15Z</time>
      </trkpt>
      <trkpt lat="43.751513" lon="-7.886110">
        <ele>334.735</ele>
        <time>2016-09-26T07:48:16Z</time>
      </trkpt>
      <trkpt lat="43.751487" lon="-7.886130">
        <ele>334.871</ele>
        <time>2016-09-26T07:48:17Z</time>
      </trkpt>
      <trkpt lat="43.751460" lon="-7.886153">
        <ele>334.955</ele>
        <time>2016-09-26T07:48:18Z</time>
      </trkpt>
      <trkpt lat="43.751434" lon="-7.886177">
        <ele>335.027</ele>
        <time>2016-09-26T07:48:19Z</time>
      </trkpt>
      <trkpt lat="43.751408" lon="-7.886202">
        <ele>335.160</ele>
        <time>2016-09-26T07:48:20Z</time>
      </trkpt>
      <trkpt lat="43.751383" lon="-7.886224">
        <ele>335.218</ele>
        <time>2016-09-26T07:48:21Z</time>
      </trkpt>
      <trkpt lat="43.751361" lon="-7.886247">
        <ele>335.112</ele>
        <time>2016-09-26T07:48:22Z</time>
      </trkpt>
      <trkpt lat="43.751340" lon="-7.886270">
        <ele>335.232</ele>
        <time>2016-09-26T07:48:23Z</time>
      </trkpt>
      <trkpt lat="43.751319" lon="-7.886295">
        <ele>335.105</ele>
        <time>2016-09-26T07:48:24Z</time>
      </trkpt>
      <trkpt lat="43.751297" lon="-7.886319">
        <ele>335.108</ele>
        <time>2016-09-26T07:48:25Z</time>
      </trkpt>
      <trkpt lat="43.751274" lon="-7.886343">
        <ele>335.162</ele>
        <time>2016-09-26T07:48:26Z</time>
      </trkpt>
      <trkpt lat="43.751251" lon="-7.886368">
        <ele>335.257</ele>
        <time>2016-09-26T07:48:27Z</time>
      </trkpt>
      <trkpt lat="43.751228" lon="-7.886393">
        <ele>335.325</ele>
        <time>2016-09-26T07:48:28Z</time>
      </trkpt>
      <trkpt lat="43.751204" lon="-7.886416">
        <ele>335.591</ele>
        <time>2016-09-26T07:48:29Z</time>
      </trkpt>
      <trkpt lat="43.751182" lon="-7.886440">
        <ele>335.625</ele>
        <time>2016-09-26T07:48:30Z</time>
      </trkpt>
      <trkpt lat="43.751160" lon="-7.886465">
        <ele>335.557</ele>
        <time>2016-09-26T07:48:31Z</time>
      </trkpt>
      <trkpt lat="43.751138" lon="-7.886490">
        <ele>335.760</ele>
        <time>2016-09-26T07:48:32Z</time>
      </trkpt>
      <trkpt lat="43.751117" lon="-7.886515">
        <ele>335.748</ele>
        <time>2016-09-26T07:48:33Z</time>
      </trkpt>
      <trkpt lat="43.751097" lon="-7.886541">
        <ele>335.791</ele>
        <time>2016-09-26T07:48:34Z</time>
      </trkpt>
      <trkpt lat="43.751074" lon="-7.886566">
        <ele>335.881</ele>
        <time>2016-09-26T07:48:35Z</time>
      </trkpt>
      <trkpt lat="43.751053" lon="-7.886592">
        <ele>335.919</ele>
        <time>2016-09-26T07:48:36Z</time>
      </trkpt>
      <trkpt lat="43.751031" lon="-7.886619">
        <ele>336.008</ele>
        <time>2016-09-26T07:48:37Z</time>
      </trkpt>
      <trkpt lat="43.751013" lon="-7.886644">
        <ele>336.160</ele>
        <time>2016-09-26T07:48:38Z</time>
      </trkpt>
      <trkpt lat="43.750993" lon="-7.886670">
        <ele>336.395</ele>
        <time>2016-09-26T07:48:39Z</time>
      </trkpt>
      <trkpt lat="43.750971" lon="-7.886695">
        <ele>336.493</ele>
        <time>2016-09-26T07:48:40Z</time>
      </trkpt>
      <trkpt lat="43.750950" lon="-7.886722">
        <ele>336.529</ele>
        <time>2016-09-26T07:48:41Z</time>
      </trkpt>
      <trkpt lat="43.750929" lon="-7.886750">
        <ele>336.533</ele>
        <time>2016-09-26T07:48:42Z</time>
      </trkpt>
      <trkpt lat="43.750908" lon="-7.886778">
        <ele>336.595</ele>
        <time>2016-09-26T07:48:43Z</time>
      </trkpt>
      <trkpt lat="43.750884" lon="-7.886805">
        <ele>336.698</ele>
        <time>2016-09-26T07:48:44Z</time>
      </trkpt>
      <trkpt lat="43.750857" lon="-7.886830">
        <ele>336.776</ele>
        <time>2016-09-26T07:48:45Z</time>
      </trkpt>
      <trkpt lat="43.750831" lon="-7.886855">
        <ele>336.883</ele>
        <time>2016-09-26T07:48:46Z</time>
      </trkpt>
      <trkpt lat="43.750806" lon="-7.886880">
        <ele>336.925</ele>
        <time>2016-09-26T07:48:47Z</time>
      </trkpt>
      <trkpt lat="43.750779" lon="-7.886904">
        <ele>337.117</ele>
        <time>2016-09-26T07:48:48Z</time>
      </trkpt>
      <trkpt lat="43.750750" lon="-7.886927">
        <ele>337.308</ele>
        <time>2016-09-26T07:48:49Z</time>
      </trkpt>
      <trkpt lat="43.750721" lon="-7.886948">
        <ele>337.369</ele>
        <time>2016-09-26T07:48:50Z</time>
      </trkpt>
      <trkpt lat="43.750693" lon="-7.886971">
        <ele>337.354</ele>
        <time>2016-09-26T07:48:51Z</time>
      </trkpt>
      <trkpt lat="43.750666" lon="-7.886996">
        <ele>337.462</ele>
        <time>2016-09-26T07:48:52Z</time>
      </trkpt>
      <trkpt lat="43.750638" lon="-7.887021">
        <ele>337.568</ele>
        <time>2016-09-26T07:48:53Z</time>
      </trkpt>
      <trkpt lat="43.750610" lon="-7.887046">
        <ele>337.422</ele>
        <time>2016-09-26T07:48:54Z</time>
      </trkpt>
      <trkpt lat="43.750582" lon="-7.887070">
        <ele>337.414</ele>
        <time>2016-09-26T07:48:55Z</time>
      </trkpt>
      <trkpt lat="43.750555" lon="-7.887094">
        <ele>337.467</ele>
        <time>2016-09-26T07:48:56Z</time>
      </trkpt>
      <trkpt lat="43.750528" lon="-7.887117">
        <ele>337.415</ele>
        <time>2016-09-26T07:48:57Z</time>
      </trkpt>
      <trkpt lat="43.750502" lon="-7.887139">
        <ele>337.318</ele>
        <time>2016-09-26T07:48:58Z</time>
      </trkpt>
      <trkpt lat="43.750476" lon="-7.887162">
        <ele>337.398</ele>
        <time>2016-09-26T07:48:59Z</time>
      </trkpt>
      <trkpt lat="43.750450" lon="-7.887183">
        <ele>337.417</ele>
        <time>2016-09-26T07:49:00Z</time>
      </trkpt>
      <trkpt lat="43.750424" lon="-7.887205">
        <ele>337.408</ele>
        <time>2016-09-26T07:49:01Z</time>
      </trkpt>
      <trkpt lat="43.750398" lon="-7.887225">
        <ele>337.482</ele>
        <time>2016-09-26T07:49:02Z</time>
      </trkpt>
      <trkpt lat="43.750372" lon="-7.887246">
        <ele>337.497</ele>
        <time>2016-09-26T07:49:03Z</time>
      </trkpt>
      <trkpt lat="43.750345" lon="-7.887267">
        <ele>337.415</ele>
        <time>2016-09-26T07:49:04Z</time>
      </trkpt>
      <trkpt lat="43.750318" lon="-7.887286">
        <ele>337.591</ele>
        <time>2016-09-26T07:49:05Z</time>
      </trkpt>
      <trkpt lat="43.750290" lon="-7.887305">
        <ele>337.665</ele>
        <time>2016-09-26T07:49:06Z</time>
      </trkpt>
      <trkpt lat="43.750263" lon="-7.887320">
        <ele>337.527</ele>
        <time>2016-09-26T07:49:07Z</time>
      </trkpt>
      <trkpt lat="43.750234" lon="-7.887335">
        <ele>337.760</ele>
        <time>2016-09-26T07:49:08Z</time>
      </trkpt>
      <trkpt lat="43.750206" lon="-7.887351">
        <ele>337.848</ele>
        <time>2016-09-26T07:49:09Z</time>
      </trkpt>
      <trkpt lat="43.750179" lon="-7.887370">
        <ele>337.919</ele>
        <time>2016-09-26T07:49:10Z</time>
      </trkpt>
      <trkpt lat="43.750153" lon="-7.887390">
        <ele>338.109</ele>
        <time>2016-09-26T07:49:11Z</time>
      </trkpt>
      <trkpt lat="43.750128" lon="-7.887413">
        <ele>338.219</ele>
        <time>2016-09-26T07:49:12Z</time>
      </trkpt>
      <trkpt lat="43.750103" lon="-7.887436">
        <ele>338.608</ele>
        <time>2016-09-26T07:49:13Z</time>
      </trkpt>
      <trkpt lat="43.750078" lon="-7.887455">
        <ele>338.692</ele>
        <time>2016-09-26T07:49:14Z</time>
      </trkpt>
      <trkpt lat="43.750051" lon="-7.887475">
        <ele>338.787</ele>
        <time>2016-09-26T07:49:15Z</time>
      </trkpt>
      <trkpt lat="43.750026" lon="-7.887495">
        <ele>338.825</ele>
        <time>2016-09-26T07:49:16Z</time>
      </trkpt>
      <trkpt lat="43.750002" lon="-7.887516">
        <ele>338.861</ele>
        <time>2016-09-26T07:49:17Z</time>
      </trkpt>
      <trkpt lat="43.749977" lon="-7.887536">
        <ele>339.025</ele>
        <time>2016-09-26T07:49:18Z</time>
      </trkpt>
      <trkpt lat="43.749951" lon="-7.887555">
        <ele>339.147</ele>
        <time>2016-09-26T07:49:19Z</time>
      </trkpt>
      <trkpt lat="43.749925" lon="-7.887577">
        <ele>339.290</ele>
        <time>2016-09-26T07:49:20Z</time>
      </trkpt>
      <trkpt lat="43.749899" lon="-7.887598">
        <ele>339.148</ele>
        <time>2016-09-26T07:49:21Z</time>
      </trkpt>
      <trkpt lat="43.749872" lon="-7.887617">
        <ele>339.143</ele>
        <time>2016-09-26T07:49:22Z</time>
      </trkpt>
      <trkpt lat="43.749845" lon="-7.887636">
        <ele>339.264</ele>
        <time>2016-09-26T07:49:23Z</time>
      </trkpt>
      <trkpt lat="43.749819" lon="-7.887657">
        <ele>339.310</ele>
        <time>2016-09-26T07:49:24Z</time>
      </trkpt>
      <trkpt lat="43.749791" lon="-7.887677">
        <ele>339.508</ele>
        <time>2016-09-26T07:49:25Z</time>
      </trkpt>
      <trkpt lat="43.749762" lon="-7.887696">
        <ele>339.615</ele>
        <time>2016-09-26T07:49:26Z</time>
      </trkpt>
      <trkpt lat="43.749733" lon="-7.887714">
        <ele>339.740</ele>
        <time>2016-09-26T07:49:27Z</time>
      </trkpt>
      <trkpt lat="43.749707" lon="-7.887733">
        <ele>339.878</ele>
        <time>2016-09-26T07:49:28Z</time>
      </trkpt>
      <trkpt lat="43.749680" lon="-7.887751">
        <ele>339.974</ele>
        <time>2016-09-26T07:49:29Z</time>
      </trkpt>
      <trkpt lat="43.749655" lon="-7.887770">
        <ele>340.018</ele>
        <time>2016-09-26T07:49:30Z</time>
      </trkpt>
      <trkpt lat="43.749629" lon="-7.887788">
        <ele>340.270</ele>
        <time>2016-09-26T07:49:31Z</time>
      </trkpt>
      <trkpt lat="43.749603" lon="-7.887805">
        <ele>340.243</ele>
        <time>2016-09-26T07:49:32Z</time>
      </trkpt>
      <trkpt lat="43.749576" lon="-7.887821">
        <ele>340.311</ele>
        <time>2016-09-26T07:49:33Z</time>
      </trkpt>
      <trkpt lat="43.749550" lon="-7.887837">
        <ele>340.478</ele>
        <time>2016-09-26T07:49:34Z</time>
      </trkpt>
      <trkpt lat="43.749525" lon="-7.887852">
        <ele>340.733</ele>
        <time>2016-09-26T07:49:35Z</time>
      </trkpt>
      <trkpt lat="43.749498" lon="-7.887866">
        <ele>340.926</ele>
        <time>2016-09-26T07:49:36Z</time>
      </trkpt>
      <trkpt lat="43.749472" lon="-7.887882">
        <ele>341.108</ele>
        <time>2016-09-26T07:49:37Z</time>
      </trkpt>
      <trkpt lat="43.749447" lon="-7.887898">
        <ele>341.398</ele>
        <time>2016-09-26T07:49:38Z</time>
      </trkpt>
      <trkpt lat="43.749422" lon="-7.887914">
        <ele>341.233</ele>
        <time>2016-09-26T07:49:39Z</time>
      </trkpt>
      <trkpt lat="43.749397" lon="-7.887930">
        <ele>341.291</ele>
        <time>2016-09-26T07:49:40Z</time>
      </trkpt>
      <trkpt lat="43.749371" lon="-7.887944">
        <ele>341.467</ele>
        <time>2016-09-26T07:49:41Z</time>
      </trkpt>
      <trkpt lat="43.749348" lon="-7.887957">
        <ele>341.631</ele>
        <time>2016-09-26T07:49:42Z</time>
      </trkpt>
      <trkpt lat="43.749325" lon="-7.887973">
        <ele>341.993</ele>
        <time>2016-09-26T07:49:43Z</time>
      </trkpt>
      <trkpt lat="43.749299" lon="-7.887985">
        <ele>342.256</ele>
        <time>2016-09-26T07:49:44Z</time>
      </trkpt>
      <trkpt lat="43.749273" lon="-7.887998">
        <ele>342.484</ele>
        <time>2016-09-26T07:49:45Z</time>
      </trkpt>
      <trkpt lat="43.749245" lon="-7.888012">
        <ele>342.658</ele>
        <time>2016-09-26T07:49:46Z</time>
      </trkpt>
      <trkpt lat="43.749219" lon="-7.888026">
        <ele>342.752</ele>
        <time>2016-09-26T07:49:47Z</time>
      </trkpt>
      <trkpt lat="43.749196" lon="-7.888036">
        <ele>342.717</ele>
        <time>2016-09-26T07:49:48Z</time>
      </trkpt>
      <trkpt lat="43.749174" lon="-7.888044">
        <ele>342.808</ele>
        <time>2016-09-26T07:49:49Z</time>
      </trkpt>
      <trkpt lat="43.749148" lon="-7.888056">
        <ele>343.136</ele>
        <time>2016-09-26T07:49:50Z</time>
      </trkpt>
      <trkpt lat="43.749122" lon="-7.888069">
        <ele>343.341</ele>
        <time>2016-09-26T07:49:51Z</time>
      </trkpt>
      <trkpt lat="43.749096" lon="-7.888080">
        <ele>343.629</ele>
        <time>2016-09-26T07:49:52Z</time>
      </trkpt>
      <trkpt lat="43.749070" lon="-7.888091">
        <ele>343.915</ele>
        <time>2016-09-26T07:49:53Z</time>
      </trkpt>
      <trkpt lat="43.749044" lon="-7.888103">
        <ele>344.189</ele>
        <time>2016-09-26T07:49:54Z</time>
      </trkpt>
      <trkpt lat="43.749020" lon="-7.888115">
        <ele>344.221</ele>
        <time>2016-09-26T07:49:55Z</time>
      </trkpt>
      <trkpt lat="43.748995" lon="-7.888128">
        <ele>344.384</ele>
        <time>2016-09-26T07:49:56Z</time>
      </trkpt>
      <trkpt lat="43.748971" lon="-7.888141">
        <ele>344.582</ele>
        <time>2016-09-26T07:49:57Z</time>
      </trkpt>
      <trkpt lat="43.748947" lon="-7.888154">
        <ele>344.748</ele>
        <time>2016-09-26T07:49:58Z</time>
      </trkpt>
      <trkpt lat="43.748924" lon="-7.888167">
        <ele>344.961</ele>
        <time>2016-09-26T07:49:59Z</time>
      </trkpt>
      <trkpt lat="43.748900" lon="-7.888179">
        <ele>345.117</ele>
        <time>2016-09-26T07:50:00Z</time>
      </trkpt>
      <trkpt lat="43.748876" lon="-7.888190">
        <ele>345.308</ele>
        <time>2016-09-26T07:50:01Z</time>
      </trkpt>
      <trkpt lat="43.748853" lon="-7.888200">
        <ele>345.485</ele>
        <time>2016-09-26T07:50:02Z</time>
      </trkpt>
      <trkpt lat="43.748828" lon="-7.888211">
        <ele>345.670</ele>
        <time>2016-09-26T07:50:03Z</time>
      </trkpt>
      <trkpt lat="43.748804" lon="-7.888223">
        <ele>345.818</ele>
        <time>2016-09-26T07:50:04Z</time>
      </trkpt>
      <trkpt lat="43.748779" lon="-7.888234">
        <ele>345.854</ele>
        <time>2016-09-26T07:50:05Z</time>
      </trkpt>
      <trkpt lat="43.748753" lon="-7.888245">
        <ele>345.958</ele>
        <time>2016-09-26T07:50:06Z</time>
      </trkpt>
      <trkpt lat="43.748728" lon="-7.888257">
        <ele>346.140</ele>
        <time>2016-09-26T07:50:07Z</time>
      </trkpt>
      <trkpt lat="43.748704" lon="-7.888271">
        <ele>346.363</ele>
        <time>2016-09-26T07:50:08Z</time>
      </trkpt>
      <trkpt lat="43.748680" lon="-7.888281">
        <ele>346.481</ele>
        <time>2016-09-26T07:50:09Z</time>
      </trkpt>
      <trkpt lat="43.748654" lon="-7.888290">
        <ele>346.647</ele>
        <time>2016-09-26T07:50:10Z</time>
      </trkpt>
      <trkpt lat="43.748629" lon="-7.888300">
        <ele>346.529</ele>
        <time>2016-09-26T07:50:11Z</time>
      </trkpt>
      <trkpt lat="43.748604" lon="-7.888310">
        <ele>346.921</ele>
        <time>2016-09-26T07:50:12Z</time>
      </trkpt>
      <trkpt lat="43.748578" lon="-7.888318">
        <ele>347.108</ele>
        <time>2016-09-26T07:50:13Z</time>
      </trkpt>
      <trkpt lat="43.748553" lon="-7.888327">
        <ele>347.175</ele>
        <time>2016-09-26T07:50:14Z</time>
      </trkpt>
      <trkpt lat="43.748527" lon="-7.888336">
        <ele>347.560</ele>
        <time>2016-09-26T07:50:15Z</time>
      </trkpt>
      <trkpt lat="43.748501" lon="-7.888347">
        <ele>347.718</ele>
        <time>2016-09-26T07:50:16Z</time>
      </trkpt>
      <trkpt lat="43.748476" lon="-7.888356">
        <ele>347.944</ele>
        <time>2016-09-26T07:50:17Z</time>
      </trkpt>
      <trkpt lat="43.748451" lon="-7.888363">
        <ele>348.068</ele>
        <time>2016-09-26T07:50:18Z</time>
      </trkpt>
      <trkpt lat="43.748426" lon="-7.888369">
        <ele>348.150</ele>
        <time>2016-09-26T07:50:19Z</time>
      </trkpt>
      <trkpt lat="43.748399" lon="-7.888375">
        <ele>348.273</ele>
        <time>2016-09-26T07:50:20Z</time>
      </trkpt>
      <trkpt lat="43.748370" lon="-7.888380">
        <ele>348.341</ele>
        <time>2016-09-26T07:50:21Z</time>
      </trkpt>
      <trkpt lat="43.748342" lon="-7.888388">
        <ele>348.447</ele>
        <time>2016-09-26T07:50:22Z</time>
      </trkpt>
      <trkpt lat="43.748315" lon="-7.888398">
        <ele>348.529</ele>
        <time>2016-09-26T07:50:23Z</time>
      </trkpt>
      <trkpt lat="43.748289" lon="-7.888410">
        <ele>348.621</ele>
        <time>2016-09-26T07:50:24Z</time>
      </trkpt>
      <trkpt lat="43.748264" lon="-7.888423">
        <ele>348.608</ele>
        <time>2016-09-26T07:50:25Z</time>
      </trkpt>
      <trkpt lat="43.748239" lon="-7.888435">
        <ele>348.885</ele>
        <time>2016-09-26T07:50:26Z</time>
      </trkpt>
      <trkpt lat="43.748214" lon="-7.888446">
        <ele>348.870</ele>
        <time>2016-09-26T07:50:27Z</time>
      </trkpt>
      <trkpt lat="43.748188" lon="-7.888456">
        <ele>348.868</ele>
        <time>2016-09-26T07:50:28Z</time>
      </trkpt>
      <trkpt lat="43.748163" lon="-7.888467">
        <ele>348.724</ele>
        <time>2016-09-26T07:50:29Z</time>
      </trkpt>
      <trkpt lat="43.748138" lon="-7.888479">
        <ele>349.068</ele>
        <time>2016-09-26T07:50:30Z</time>
      </trkpt>
      <trkpt lat="43.748112" lon="-7.888491">
        <ele>349.250</ele>
        <time>2016-09-26T07:50:31Z</time>
      </trkpt>
      <trkpt lat="43.748087" lon="-7.888503">
        <ele>349.253</ele>
        <time>2016-09-26T07:50:32Z</time>
      </trkpt>
      <trkpt lat="43.748061" lon="-7.888514">
        <ele>349.321</ele>
        <time>2016-09-26T07:50:33Z</time>
      </trkpt>
      <trkpt lat="43.748034" lon="-7.888525">
        <ele>349.399</ele>
        <time>2016-09-26T07:50:34Z</time>
      </trkpt>
      <trkpt lat="43.748007" lon="-7.888537">
        <ele>349.407</ele>
        <time>2016-09-26T07:50:35Z</time>
      </trkpt>
      <trkpt lat="43.747981" lon="-7.888548">
        <ele>349.627</ele>
        <time>2016-09-26T07:50:36Z</time>
      </trkpt>
      <trkpt lat="43.747955" lon="-7.888559">
        <ele>349.608</ele>
        <time>2016-09-26T07:50:37Z</time>
      </trkpt>
      <trkpt lat="43.747930" lon="-7.888572">
        <ele>349.810</ele>
        <time>2016-09-26T07:50:38Z</time>
      </trkpt>
      <trkpt lat="43.747906" lon="-7.888587">
        <ele>349.975</ele>
        <time>2016-09-26T07:50:39Z</time>
      </trkpt>
      <trkpt lat="43.747881" lon="-7.888600">
        <ele>350.133</ele>
        <time>2016-09-26T07:50:40Z</time>
      </trkpt>
      <trkpt lat="43.747855" lon="-7.888612">
        <ele>350.329</ele>
        <time>2016-09-26T07:50:41Z</time>
      </trkpt>
      <trkpt lat="43.747829" lon="-7.888625">
        <ele>350.383</ele>
        <time>2016-09-26T07:50:42Z</time>
      </trkpt>
      <trkpt lat="43.747804" lon="-7.888638">
        <ele>350.445</ele>
        <time>2016-09-26T07:50:43Z</time>
      </trkpt>
      <trkpt lat="43.747779" lon="-7.888652">
        <ele>350.518</ele>
        <time>2016-09-26T07:50:44Z</time>
      </trkpt>
      <trkpt lat="43.747753" lon="-7.888666">
        <ele>350.576</ele>
        <time>2016-09-26T07:50:45Z</time>
      </trkpt>
      <trkpt lat="43.747729" lon="-7.888681">
        <ele>350.621</ele>
        <time>2016-09-26T07:50:46Z</time>
      </trkpt>
      <trkpt lat="43.747704" lon="-7.888696">
        <ele>350.741</ele>
        <time>2016-09-26T07:50:47Z</time>
      </trkpt>
      <trkpt lat="43.747680" lon="-7.888713">
        <ele>351.005</ele>
        <time>2016-09-26T07:50:48Z</time>
      </trkpt>
      <trkpt lat="43.747656" lon="-7.888728">
        <ele>350.808</ele>
        <time>2016-09-26T07:50:49Z</time>
      </trkpt>
      <trkpt lat="43.747633" lon="-7.888742">
        <ele>351.123</ele>
        <time>2016-09-26T07:50:50Z</time>
      </trkpt>
      <trkpt lat="43.747612" lon="-7.888757">
        <ele>351.158</ele>
        <time>2016-09-26T07:50:51Z</time>
      </trkpt>
      <trkpt lat="43.747591" lon="-7.888773">
        <ele>351.226</ele>
        <time>2016-09-26T07:50:52Z</time>
      </trkpt>
      <trkpt lat="43.747570" lon="-7.888790">
        <ele>351.482</ele>
        <time>2016-09-26T07:50:53Z</time>
      </trkpt>
      <trkpt lat="43.747550" lon="-7.888811">
        <ele>351.546</ele>
        <time>2016-09-26T07:50:54Z</time>
      </trkpt>
      <trkpt lat="43.747527" lon="-7.888832">
        <ele>351.778</ele>
        <time>2016-09-26T07:50:55Z</time>
      </trkpt>
      <trkpt lat="43.747504" lon="-7.888853">
        <ele>352.071</ele>
        <time>2016-09-26T07:50:56Z</time>
      </trkpt>
      <trkpt lat="43.747481" lon="-7.888871">
        <ele>352.269</ele>
        <time>2016-09-26T07:50:57Z</time>
      </trkpt>
      <trkpt lat="43.747462" lon="-7.888889">
        <ele>352.261</ele>
        <time>2016-09-26T07:50:58Z</time>
      </trkpt>
      <trkpt lat="43.747442" lon="-7.888907">
        <ele>352.421</ele>
        <time>2016-09-26T07:50:59Z</time>
      </trkpt>
      <trkpt lat="43.747420" lon="-7.888925">
        <ele>352.613</ele>
        <time>2016-09-26T07:51:00Z</time>
      </trkpt>
      <trkpt lat="43.747398" lon="-7.888942">
        <ele>352.708</ele>
        <time>2016-09-26T07:51:01Z</time>
      </trkpt>
      <trkpt lat="43.747377" lon="-7.888961">
        <ele>353.037</ele>
        <time>2016-09-26T07:51:02Z</time>
      </trkpt>
      <trkpt lat="43.747357" lon="-7.888980">
        <ele>353.312</ele>
        <time>2016-09-26T07:51:03Z</time>
      </trkpt>
      <trkpt lat="43.747336" lon="-7.888999">
        <ele>353.510</ele>
        <time>2016-09-26T07:51:04Z</time>
      </trkpt>
      <trkpt lat="43.747316" lon="-7.889017">
        <ele>353.626</ele>
        <time>2016-09-26T07:51:05Z</time>
      </trkpt>
      <trkpt lat="43.747297" lon="-7.889036">
        <ele>353.950</ele>
        <time>2016-09-26T07:51:06Z</time>
      </trkpt>
      <trkpt lat="43.747279" lon="-7.889056">
        <ele>354.372</ele>
        <time>2016-09-26T07:51:07Z</time>
      </trkpt>
      <trkpt lat="43.747260" lon="-7.889075">
        <ele>354.675</ele>
        <time>2016-09-26T07:51:08Z</time>
      </trkpt>
      <trkpt lat="43.747241" lon="-7.889093">
        <ele>354.863</ele>
        <time>2016-09-26T07:51:09Z</time>
      </trkpt>
      <trkpt lat="43.747222" lon="-7.889113">
        <ele>355.184</ele>
        <time>2016-09-26T07:51:10Z</time>
      </trkpt>
      <trkpt lat="43.747206" lon="-7.889134">
        <ele>355.107</ele>
        <time>2016-09-26T07:51:11Z</time>
      </trkpt>
      <trkpt lat="43.747188" lon="-7.889155">
        <ele>355.217</ele>
        <time>2016-09-26T07:51:12Z</time>
      </trkpt>
      <trkpt lat="43.747168" lon="-7.889175">
        <ele>355.408</ele>
        <time>2016-09-26T07:51:13Z</time>
      </trkpt>
      <trkpt lat="43.747151" lon="-7.889195">
        <ele>355.619</ele>
        <time>2016-09-26T07:51:14Z</time>
      </trkpt>
      <trkpt lat="43.747136" lon="-7.889218">
        <ele>355.844</ele>
        <time>2016-09-26T07:51:15Z</time>
      </trkpt>
      <trkpt lat="43.747121" lon="-7.889243">
        <ele>356.032</ele>
        <time>2016-09-26T07:51:16Z</time>
      </trkpt>
      <trkpt lat="43.747106" lon="-7.889270">
        <ele>356.018</ele>
        <time>2016-09-26T07:51:17Z</time>
      </trkpt>
      <trkpt lat="43.747089" lon="-7.889296">
        <ele>356.282</ele>
        <time>2016-09-26T07:51:18Z</time>
      </trkpt>
      <trkpt lat="43.747076" lon="-7.889320">
        <ele>356.414</ele>
        <time>2016-09-26T07:51:19Z</time>
      </trkpt>
      <trkpt lat="43.747063" lon="-7.889345">
        <ele>356.637</ele>
        <time>2016-09-26T07:51:20Z</time>
      </trkpt>
      <trkpt lat="43.747049" lon="-7.889372">
        <ele>356.885</ele>
        <time>2016-09-26T07:51:21Z</time>
      </trkpt>
      <trkpt lat="43.747035" lon="-7.889399">
        <ele>356.945</ele>
        <time>2016-09-26T07:51:22Z</time>
      </trkpt>
      <trkpt lat="43.747022" lon="-7.889427">
        <ele>357.147</ele>
        <time>2016-09-26T07:51:23Z</time>
      </trkpt>
      <trkpt lat="43.747010" lon="-7.889455">
        <ele>357.411</ele>
        <time>2016-09-26T07:51:24Z</time>
      </trkpt>
      <trkpt lat="43.746997" lon="-7.889481">
        <ele>357.508</ele>
        <time>2016-09-26T07:51:25Z</time>
      </trkpt>
      <trkpt lat="43.746983" lon="-7.889506">
        <ele>357.735</ele>
        <time>2016-09-26T07:51:26Z</time>
      </trkpt>
      <trkpt lat="43.746971" lon="-7.889532">
        <ele>358.010</ele>
        <time>2016-09-26T07:51:27Z</time>
      </trkpt>
      <trkpt lat="43.746960" lon="-7.889558">
        <ele>358.328</ele>
        <time>2016-09-26T07:51:28Z</time>
      </trkpt>
      <trkpt lat="43.746951" lon="-7.889581">
        <ele>358.424</ele>
        <time>2016-09-26T07:51:29Z</time>
      </trkpt>
      <trkpt lat="43.746942" lon="-7.889602">
        <ele>358.518</ele>
        <time>2016-09-26T07:51:30Z</time>
      </trkpt>
      <trkpt lat="43.746932" lon="-7.889626">
        <ele>358.870</ele>
        <time>2016-09-26T07:51:31Z</time>
      </trkpt>
      <trkpt lat="43.746924" lon="-7.889650">
        <ele>359.143</ele>
        <time>2016-09-26T07:51:32Z</time>
      </trkpt>
      <trkpt lat="43.746912" lon="-7.889672">
        <ele>359.361</ele>
        <time>2016-09-26T07:51:33Z</time>
      </trkpt>
      <trkpt lat="43.746900" lon="-7.889696">
        <ele>359.733</ele>
        <time>2016-09-26T07:51:34Z</time>
      </trkpt>
      <trkpt lat="43.746890" lon="-7.889719">
        <ele>359.923</ele>
        <time>2016-09-26T07:51:35Z</time>
      </trkpt>
      <trkpt lat="43.746879" lon="-7.889743">
        <ele>360.115</ele>
        <time>2016-09-26T07:51:36Z</time>
      </trkpt>
      <trkpt lat="43.746867" lon="-7.889767">
        <ele>360.308</ele>
        <time>2016-09-26T07:51:37Z</time>
      </trkpt>
      <trkpt lat="43.746855" lon="-7.889791">
        <ele>360.514</ele>
        <time>2016-09-26T07:51:38Z</time>
      </trkpt>
      <trkpt lat="43.746844" lon="-7.889815">
        <ele>360.699</ele>
        <time>2016-09-26T07:51:39Z</time>
      </trkpt>
      <trkpt lat="43.746832" lon="-7.889840">
        <ele>360.977</ele>
        <time>2016-09-26T07:51:40Z</time>
      </trkpt>
      <trkpt lat="43.746820" lon="-7.889865">
        <ele>361.073</ele>
        <time>2016-09-26T07:51:41Z</time>
      </trkpt>
      <trkpt lat="43.746809" lon="-7.889890">
        <ele>361.387</ele>
        <time>2016-09-26T07:51:42Z</time>
      </trkpt>
      <trkpt lat="43.746798" lon="-7.889914">
        <ele>361.539</ele>
        <time>2016-09-26T07:51:43Z</time>
      </trkpt>
      <trkpt lat="43.746786" lon="-7.889936">
        <ele>361.512</ele>
        <time>2016-09-26T07:51:44Z</time>
      </trkpt>
      <trkpt lat="43.746776" lon="-7.889958">
        <ele>361.940</ele>
        <time>2016-09-26T07:51:45Z</time>
      </trkpt>
      <trkpt lat="43.746763" lon="-7.889980">
        <ele>362.075</ele>
        <time>2016-09-26T07:51:46Z</time>
      </trkpt>
      <trkpt lat="43.746750" lon="-7.890001">
        <ele>362.328</ele>
        <time>2016-09-26T07:51:47Z</time>
      </trkpt>
      <trkpt lat="43.746737" lon="-7.890023">
        <ele>362.520</ele>
        <time>2016-09-26T07:51:48Z</time>
      </trkpt>
      <trkpt lat="43.746725" lon="-7.890046">
        <ele>362.608</ele>
        <time>2016-09-26T07:51:49Z</time>
      </trkpt>
      <trkpt lat="43.746714" lon="-7.890069">
        <ele>362.878</ele>
        <time>2016-09-26T07:51:50Z</time>
      </trkpt>
      <trkpt lat="43.746698" lon="-7.890091">
        <ele>362.883</ele>
        <time>2016-09-26T07:51:51Z</time>
      </trkpt>
      <trkpt lat="43.746687" lon="-7.890114">
        <ele>363.091</ele>
        <time>2016-09-26T07:51:52Z</time>
      </trkpt>
      <trkpt lat="43.746676" lon="-7.890137">
        <ele>363.017</ele>
        <time>2016-09-26T07:51:53Z</time>
      </trkpt>
      <trkpt lat="43.746661" lon="-7.890159">
        <ele>363.031</ele>
        <time>2016-09-26T07:51:54Z</time>
      </trkpt>
      <trkpt lat="43.746648" lon="-7.890182">
        <ele>363.473</ele>
        <time>2016-09-26T07:51:55Z</time>
      </trkpt>
      <trkpt lat="43.746636" lon="-7.890205">
        <ele>363.646</ele>
        <time>2016-09-26T07:51:56Z</time>
      </trkpt>
      <trkpt lat="43.746624" lon="-7.890228">
        <ele>363.924</ele>
        <time>2016-09-26T07:51:57Z</time>
      </trkpt>
      <trkpt lat="43.746610" lon="-7.890252">
        <ele>364.165</ele>
        <time>2016-09-26T07:51:58Z</time>
      </trkpt>
      <trkpt lat="43.746597" lon="-7.890274">
        <ele>364.368</ele>
        <time>2016-09-26T07:51:59Z</time>
      </trkpt>
      <trkpt lat="43.746584" lon="-7.890298">
        <ele>364.414</ele>
        <time>2016-09-26T07:52:00Z</time>
      </trkpt>
      <trkpt lat="43.746568" lon="-7.890319">
        <ele>364.608</ele>
        <time>2016-09-26T07:52:01Z</time>
      </trkpt>
      <trkpt lat="43.746551" lon="-7.890341">
        <ele>364.797</ele>
        <time>2016-09-26T07:52:02Z</time>
      </trkpt>
      <trkpt lat="43.746537" lon="-7.890363">
        <ele>365.012</ele>
        <time>2016-09-26T07:52:03Z</time>
      </trkpt>
      <trkpt lat="43.746523" lon="-7.890384">
        <ele>365.310</ele>
        <time>2016-09-26T07:52:04Z</time>
      </trkpt>
      <trkpt lat="43.746508" lon="-7.890404">
        <ele>365.426</ele>
        <time>2016-09-26T07:52:05Z</time>
      </trkpt>
      <trkpt lat="43.746491" lon="-7.890424">
        <ele>365.750</ele>
        <time>2016-09-26T07:52:06Z</time>
      </trkpt>
      <trkpt lat="43.746472" lon="-7.890441">
        <ele>365.962</ele>
        <time>2016-09-26T07:52:07Z</time>
      </trkpt>
      <trkpt lat="43.746455" lon="-7.890456">
        <ele>366.165</ele>
        <time>2016-09-26T07:52:08Z</time>
      </trkpt>
      <trkpt lat="43.746438" lon="-7.890470">
        <ele>366.033</ele>
        <time>2016-09-26T07:52:09Z</time>
      </trkpt>
      <trkpt lat="43.746419" lon="-7.890484">
        <ele>366.015</ele>
        <time>2016-09-26T07:52:10Z</time>
      </trkpt>
      <trkpt lat="43.746401" lon="-7.890496">
        <ele>366.165</ele>
        <time>2016-09-26T07:52:11Z</time>
      </trkpt>
      <trkpt lat="43.746384" lon="-7.890505">
        <ele>366.311</ele>
        <time>2016-09-26T07:52:12Z</time>
      </trkpt>
      <trkpt lat="43.746369" lon="-7.890515">
        <ele>366.308</ele>
        <time>2016-09-26T07:52:13Z</time>
      </trkpt>
      <trkpt lat="43.746354" lon="-7.890526">
        <ele>366.342</ele>
        <time>2016-09-26T07:52:14Z</time>
      </trkpt>
      <trkpt lat="43.746339" lon="-7.890539">
        <ele>366.487</ele>
        <time>2016-09-26T07:52:15Z</time>
      </trkpt>
      <trkpt lat="43.746324" lon="-7.890554">
        <ele>366.645</ele>
        <time>2016-09-26T07:52:16Z</time>
      </trkpt>
      <trkpt lat="43.746309" lon="-7.890568">
        <ele>366.751</ele>
        <time>2016-09-26T07:52:17Z</time>
      </trkpt>
      <trkpt lat="43.746297" lon="-7.890581">
        <ele>366.895</ele>
        <time>2016-09-26T07:52:18Z</time>
      </trkpt>
      <trkpt lat="43.746292" lon="-7.890586">
        <ele>366.967</ele>
        <time>2016-09-26T07:52:19Z</time>
      </trkpt>
      <trkpt lat="43.746291" lon="-7.890587">
        <ele>366.930</ele>
        <time>2016-09-26T07:52:20Z</time>
      </trkpt>
      <trkpt lat="43.746291" lon="-7.890586">
        <ele>366.988</ele>
        <time>2016-09-26T07:52:21Z</time>
      </trkpt>
      <trkpt lat="43.746288" lon="-7.890590">
        <ele>367.091</ele>
        <time>2016-09-26T07:52:22Z</time>
      </trkpt>
      <trkpt lat="43.746282" lon="-7.890595">
        <ele>367.081</ele>
        <time>2016-09-26T07:52:23Z</time>
      </trkpt>
      <trkpt lat="43.746282" lon="-7.890595">
        <ele>367.019</ele>
        <time>2016-09-26T07:52:23Z</time>
      </trkpt>
      <trkpt lat="43.746282" lon="-7.890595">
        <ele>367.008</ele>
        <time>2016-09-26T07:52:23Z</time>
      </trkpt>
      <trkpt lat="43.746226" lon="-7.890726">
        <ele>365.380</ele>
        <time>2016-09-26T07:58:56Z</time>
      </trkpt>
      <trkpt lat="43.746216" lon="-7.890755">
        <ele>365.215</ele>
        <time>2016-09-26T07:58:57Z</time>
      </trkpt>
      <trkpt lat="43.746204" lon="-7.890787">
        <ele>365.433</ele>
        <time>2016-09-26T07:58:58Z</time>
      </trkpt>
      <trkpt lat="43.746189" lon="-7.890820">
        <ele>365.479</ele>
        <time>2016-09-26T07:58:59Z</time>
      </trkpt>
      <trkpt lat="43.746169" lon="-7.890858">
        <ele>365.353</ele>
        <time>2016-09-26T07:59:00Z</time>
      </trkpt>
      <trkpt lat="43.746145" lon="-7.890902">
        <ele>365.365</ele>
        <time>2016-09-26T07:59:01Z</time>
      </trkpt>
      <trkpt lat="43.746117" lon="-7.890946">
        <ele>365.298</ele>
        <time>2016-09-26T07:59:02Z</time>
      </trkpt>
      <trkpt lat="43.746088" lon="-7.890995">
        <ele>365.086</ele>
        <time>2016-09-26T07:59:03Z</time>
      </trkpt>
      <trkpt lat="43.746059" lon="-7.891052">
        <ele>364.885</ele>
        <time>2016-09-26T07:59:04Z</time>
      </trkpt>
      <trkpt lat="43.746027" lon="-7.891111">
        <ele>364.889</ele>
        <time>2016-09-26T07:59:05Z</time>
      </trkpt>
      <trkpt lat="43.745993" lon="-7.891175">
        <ele>364.517</ele>
        <time>2016-09-26T07:59:06Z</time>
      </trkpt>
      <trkpt lat="43.745956" lon="-7.891245">
        <ele>364.408</ele>
        <time>2016-09-26T07:59:07Z</time>
      </trkpt>
      <trkpt lat="43.745916" lon="-7.891317">
        <ele>364.239</ele>
        <time>2016-09-26T07:59:08Z</time>
      </trkpt>
      <trkpt lat="43.745871" lon="-7.891390">
        <ele>363.734</ele>
        <time>2016-09-26T07:59:09Z</time>
      </trkpt>
      <trkpt lat="43.745823" lon="-7.891468">
        <ele>363.312</ele>
        <time>2016-09-26T07:59:10Z</time>
      </trkpt>
      <trkpt lat="43.745772" lon="-7.891552">
        <ele>362.828</ele>
        <time>2016-09-26T07:59:11Z</time>
      </trkpt>
      <trkpt lat="43.745718" lon="-7.891642">
        <ele>362.532</ele>
        <time>2016-09-26T07:59:12Z</time>
      </trkpt>
      <trkpt lat="43.745663" lon="-7.891736">
        <ele>362.254</ele>
        <time>2016-09-26T07:59:13Z</time>
      </trkpt>
      <trkpt lat="43.745604" lon="-7.891829">
        <ele>361.887</ele>
        <time>2016-09-26T07:59:14Z</time>
      </trkpt>
      <trkpt lat="43.745542" lon="-7.891928">
        <ele>361.275</ele>
        <time>2016-09-26T07:59:15Z</time>
      </trkpt>
      <trkpt lat="43.745479" lon="-7.892035">
        <ele>360.899</ele>
        <time>2016-09-26T07:59:16Z</time>
      </trkpt>
      <trkpt lat="43.745414" lon="-7.892147">
        <ele>360.207</ele>
        <time>2016-09-26T07:59:17Z</time>
      </trkpt>
      <trkpt lat="43.745349" lon="-7.892261">
        <ele>359.727</ele>
        <time>2016-09-26T07:59:18Z</time>
      </trkpt>
      <trkpt lat="43.745281" lon="-7.892375">
        <ele>359.308</ele>
        <time>2016-09-26T07:59:19Z</time>
      </trkpt>
      <trkpt lat="43.745211" lon="-7.892490">
        <ele>358.790</ele>
        <time>2016-09-26T07:59:20Z</time>
      </trkpt>
      <trkpt lat="43.745147" lon="-7.892604">
        <ele>358.245</ele>
        <time>2016-09-26T07:59:21Z</time>
      </trkpt>
      <trkpt lat="43.745084" lon="-7.892716">
        <ele>357.613</ele>
        <time>2016-09-26T07:59:22Z</time>
      </trkpt>
      <trkpt lat="43.745020" lon="-7.892823">
        <ele>357.389</ele>
        <time>2016-09-26T07:59:23Z</time>
      </trkpt>
      <trkpt lat="43.744961" lon="-7.892918">
        <ele>356.623</ele>
        <time>2016-09-26T07:59:24Z</time>
      </trkpt>
      <trkpt lat="43.744906" lon="-7.893009">
        <ele>356.025</ele>
        <time>2016-09-26T07:59:25Z</time>
      </trkpt>
      <trkpt lat="43.744853" lon="-7.893101">
        <ele>355.418</ele>
        <time>2016-09-26T07:59:26Z</time>
      </trkpt>
      <trkpt lat="43.744797" lon="-7.893196">
        <ele>354.846</ele>
        <time>2016-09-26T07:59:27Z</time>
      </trkpt>
      <trkpt lat="43.744745" lon="-7.893298">
        <ele>354.263</ele>
        <time>2016-09-26T07:59:28Z</time>
      </trkpt>
      <trkpt lat="43.744697" lon="-7.893400">
        <ele>353.844</ele>
        <time>2016-09-26T07:59:29Z</time>
      </trkpt>
      <trkpt lat="43.744654" lon="-7.893510">
        <ele>353.218</ele>
        <time>2016-09-26T07:59:30Z</time>
      </trkpt>
      <trkpt lat="43.744613" lon="-7.893625">
        <ele>352.808</ele>
        <time>2016-09-26T07:59:31Z</time>
      </trkpt>
      <trkpt lat="43.744570" lon="-7.893742">
        <ele>352.487</ele>
        <time>2016-09-26T07:59:32Z</time>
      </trkpt>
      <trkpt lat="43.744532" lon="-7.893860">
        <ele>351.912</ele>
        <time>2016-09-26T07:59:33Z</time>
      </trkpt>
      <trkpt lat="43.744493" lon="-7.893982">
        <ele>351.490</ele>
        <time>2016-09-26T07:59:34Z</time>
      </trkpt>
      <trkpt lat="43.744452" lon="-7.894105">
        <ele>350.926</ele>
        <time>2016-09-26T07:59:35Z</time>
      </trkpt>
      <trkpt lat="43.744409" lon="-7.894230">
        <ele>350.470</ele>
        <time>2016-09-26T07:59:36Z</time>
      </trkpt>
      <trkpt lat="43.744368" lon="-7.894358">
        <ele>349.832</ele>
        <time>2016-09-26T07:59:37Z</time>
      </trkpt>
      <trkpt lat="43.744328" lon="-7.894489">
        <ele>349.255</ele>
        <time>2016-09-26T07:59:38Z</time>
      </trkpt>
      <trkpt lat="43.744284" lon="-7.894616">
        <ele>348.643</ele>
        <time>2016-09-26T07:59:39Z</time>
      </trkpt>
      <trkpt lat="43.744235" lon="-7.894738">
        <ele>347.981</ele>
        <time>2016-09-26T07:59:40Z</time>
      </trkpt>
      <trkpt lat="43.744192" lon="-7.894862">
        <ele>347.361</ele>
        <time>2016-09-26T07:59:41Z</time>
      </trkpt>
      <trkpt lat="43.744154" lon="-7.894986">
        <ele>346.417</ele>
        <time>2016-09-26T07:59:42Z</time>
      </trkpt>
      <trkpt lat="43.744119" lon="-7.895111">
        <ele>345.708</ele>
        <time>2016-09-26T07:59:43Z</time>
      </trkpt>
      <trkpt lat="43.744086" lon="-7.895234">
        <ele>345.299</ele>
        <time>2016-09-26T07:59:44Z</time>
      </trkpt>
      <trkpt lat="43.744055" lon="-7.895355">
        <ele>344.144</ele>
        <time>2016-09-26T07:59:45Z</time>
      </trkpt>
      <trkpt lat="43.744023" lon="-7.895469">
        <ele>343.282</ele>
        <time>2016-09-26T07:59:46Z</time>
      </trkpt>
      <trkpt lat="43.743992" lon="-7.895577">
        <ele>342.138</ele>
        <time>2016-09-26T07:59:47Z</time>
      </trkpt>
      <trkpt lat="43.743964" lon="-7.895683">
        <ele>341.312</ele>
        <time>2016-09-26T07:59:48Z</time>
      </trkpt>
      <trkpt lat="43.743940" lon="-7.895798">
        <ele>340.444</ele>
        <time>2016-09-26T07:59:49Z</time>
      </trkpt>
      <trkpt lat="43.743930" lon="-7.895924">
        <ele>339.587</ele>
        <time>2016-09-26T07:59:50Z</time>
      </trkpt>
      <trkpt lat="43.743925" lon="-7.896056">
        <ele>338.835</ele>
        <time>2016-09-26T07:59:51Z</time>
      </trkpt>
      <trkpt lat="43.743920" lon="-7.896192">
        <ele>338.128</ele>
        <time>2016-09-26T07:59:52Z</time>
      </trkpt>
      <trkpt lat="43.743915" lon="-7.896329">
        <ele>337.489</ele>
        <time>2016-09-26T07:59:53Z</time>
      </trkpt>
      <trkpt lat="43.743921" lon="-7.896466">
        <ele>336.817</ele>
        <time>2016-09-26T07:59:54Z</time>
      </trkpt>
      <trkpt lat="43.743919" lon="-7.896597">
        <ele>336.108</ele>
        <time>2016-09-26T07:59:55Z</time>
      </trkpt>
      <trkpt lat="43.743901" lon="-7.896722">
        <ele>335.253</ele>
        <time>2016-09-26T07:59:56Z</time>
      </trkpt>
      <trkpt lat="43.743878" lon="-7.896841">
        <ele>334.548</ele>
        <time>2016-09-26T07:59:57Z</time>
      </trkpt>
      <trkpt lat="43.743844" lon="-7.896946">
        <ele>334.096</ele>
        <time>2016-09-26T07:59:58Z</time>
      </trkpt>
      <trkpt lat="43.743785" lon="-7.897021">
        <ele>333.652</ele>
        <time>2016-09-26T07:59:59Z</time>
      </trkpt>
      <trkpt lat="43.743739" lon="-7.897089">
        <ele>333.456</ele>
        <time>2016-09-26T08:00:00Z</time>
      </trkpt>
      <trkpt lat="43.743698" lon="-7.897161">
        <ele>333.298</ele>
        <time>2016-09-26T08:00:01Z</time>
      </trkpt>
      <trkpt lat="43.743667" lon="-7.897232">
        <ele>333.181</ele>
        <time>2016-09-26T08:00:02Z</time>
      </trkpt>
      <trkpt lat="43.743643" lon="-7.897300">
        <ele>332.959</ele>
        <time>2016-09-26T08:00:03Z</time>
      </trkpt>
      <trkpt lat="43.743626" lon="-7.897362">
        <ele>332.998</ele>
        <time>2016-09-26T08:00:04Z</time>
      </trkpt>
      <trkpt lat="43.743615" lon="-7.897421">
        <ele>332.715</ele>
        <time>2016-09-26T08:00:05Z</time>
      </trkpt>
      <trkpt lat="43.743602" lon="-7.897479">
        <ele>332.726</ele>
        <time>2016-09-26T08:00:06Z</time>
      </trkpt>
      <trkpt lat="43.743589" lon="-7.897541">
        <ele>332.908</ele>
        <time>2016-09-26T08:00:07Z</time>
      </trkpt>
      <trkpt lat="43.743577" lon="-7.897603">
        <ele>333.150</ele>
        <time>2016-09-26T08:00:08Z</time>
      </trkpt>
      <trkpt lat="43.743569" lon="-7.897668">
        <ele>333.215</ele>
        <time>2016-09-26T08:00:09Z</time>
      </trkpt>
      <trkpt lat="43.743564" lon="-7.897736">
        <ele>333.463</ele>
        <time>2016-09-26T08:00:10Z</time>
      </trkpt>
      <trkpt lat="43.743556" lon="-7.897804">
        <ele>333.639</ele>
        <time>2016-09-26T08:00:11Z</time>
      </trkpt>
      <trkpt lat="43.743547" lon="-7.897870">
        <ele>333.763</ele>
        <time>2016-09-26T08:00:12Z</time>
      </trkpt>
      <trkpt lat="43.743540" lon="-7.897935">
        <ele>333.865</ele>
        <time>2016-09-26T08:00:13Z</time>
      </trkpt>
      <trkpt lat="43.743537" lon="-7.897999">
        <ele>333.868</ele>
        <time>2016-09-26T08:00:14Z</time>
      </trkpt>
      <trkpt lat="43.743536" lon="-7.898059">
        <ele>334.166</ele>
        <time>2016-09-26T08:00:15Z</time>
      </trkpt>
      <trkpt lat="43.743530" lon="-7.898118">
        <ele>334.514</ele>
        <time>2016-09-26T08:00:16Z</time>
      </trkpt>
      <trkpt lat="43.743524" lon="-7.898175">
        <ele>334.854</ele>
        <time>2016-09-26T08:00:17Z</time>
      </trkpt>
      <trkpt lat="43.743518" lon="-7.898232">
        <ele>335.009</ele>
        <time>2016-09-26T08:00:18Z</time>
      </trkpt>
      <trkpt lat="43.743510" lon="-7.898287">
        <ele>335.108</ele>
        <time>2016-09-26T08:00:19Z</time>
      </trkpt>
      <trkpt lat="43.743503" lon="-7.898339">
        <ele>335.292</ele>
        <time>2016-09-26T08:00:20Z</time>
      </trkpt>
      <trkpt lat="43.743493" lon="-7.898393">
        <ele>335.487</ele>
        <time>2016-09-26T08:00:21Z</time>
      </trkpt>
      <trkpt lat="43.743486" lon="-7.898442">
        <ele>335.795</ele>
        <time>2016-09-26T08:00:22Z</time>
      </trkpt>
      <trkpt lat="43.743478" lon="-7.898488">
        <ele>335.951</ele>
        <time>2016-09-26T08:00:23Z</time>
      </trkpt>
      <trkpt lat="43.743471" lon="-7.898532">
        <ele>336.155</ele>
        <time>2016-09-26T08:00:24Z</time>
      </trkpt>
      <trkpt lat="43.743461" lon="-7.898576">
        <ele>336.227</ele>
        <time>2016-09-26T08:00:25Z</time>
      </trkpt>
      <trkpt lat="43.743450" lon="-7.898620">
        <ele>336.430</ele>
        <time>2016-09-26T08:00:26Z</time>
      </trkpt>
      <trkpt lat="43.743439" lon="-7.898664">
        <ele>336.658</ele>
        <time>2016-09-26T08:00:27Z</time>
      </trkpt>
      <trkpt lat="43.743424" lon="-7.898708">
        <ele>336.774</ele>
        <time>2016-09-26T08:00:28Z</time>
      </trkpt>
      <trkpt lat="43.743411" lon="-7.898753">
        <ele>337.056</ele>
        <time>2016-09-26T08:00:29Z</time>
      </trkpt>
      <trkpt lat="43.743403" lon="-7.898796">
        <ele>337.021</ele>
        <time>2016-09-26T08:00:30Z</time>
      </trkpt>
      <trkpt lat="43.743389" lon="-7.898839">
        <ele>337.108</ele>
        <time>2016-09-26T08:00:31Z</time>
      </trkpt>
      <trkpt lat="43.743375" lon="-7.898882">
        <ele>337.368</ele>
        <time>2016-09-26T08:00:32Z</time>
      </trkpt>
      <trkpt lat="43.743360" lon="-7.898927">
        <ele>337.483</ele>
        <time>2016-09-26T08:00:33Z</time>
      </trkpt>
      <trkpt lat="43.743343" lon="-7.898972">
        <ele>337.561</ele>
        <time>2016-09-26T08:00:34Z</time>
      </trkpt>
      <trkpt lat="43.743326" lon="-7.899016">
        <ele>337.727</ele>
        <time>2016-09-26T08:00:35Z</time>
      </trkpt>
      <trkpt lat="43.743312" lon="-7.899057">
        <ele>337.911</ele>
        <time>2016-09-26T08:00:36Z</time>
      </trkpt>
      <trkpt lat="43.743299" lon="-7.899098">
        <ele>338.263</ele>
        <time>2016-09-26T08:00:37Z</time>
      </trkpt>
      <trkpt lat="43.743284" lon="-7.899138">
        <ele>338.486</ele>
        <time>2016-09-26T08:00:38Z</time>
      </trkpt>
      <trkpt lat="43.743268" lon="-7.899178">
        <ele>338.464</ele>
        <time>2016-09-26T08:00:39Z</time>
      </trkpt>
      <trkpt lat="43.743254" lon="-7.899219">
        <ele>338.569</ele>
        <time>2016-09-26T08:00:40Z</time>
      </trkpt>
      <trkpt lat="43.743240" lon="-7.899259">
        <ele>338.704</ele>
        <time>2016-09-26T08:00:41Z</time>
      </trkpt>
      <trkpt lat="43.743223" lon="-7.899296">
        <ele>338.924</ele>
        <time>2016-09-26T08:00:42Z</time>
      </trkpt>
      <trkpt lat="43.743203" lon="-7.899334">
        <ele>338.908</ele>
        <time>2016-09-26T08:00:43Z</time>
      </trkpt>
      <trkpt lat="43.743179" lon="-7.899372">
        <ele>339.287</ele>
        <time>2016-09-26T08:00:44Z</time>
      </trkpt>
      <trkpt lat="43.743161" lon="-7.899413">
        <ele>339.492</ele>
        <time>2016-09-26T08:00:45Z</time>
      </trkpt>
      <trkpt lat="43.743151" lon="-7.899455">
        <ele>339.620</ele>
        <time>2016-09-26T08:00:46Z</time>
      </trkpt>
      <trkpt lat="43.743138" lon="-7.899497">
        <ele>339.876</ele>
        <time>2016-09-26T08:00:47Z</time>
      </trkpt>
      <trkpt lat="43.743125" lon="-7.899539">
        <ele>339.980</ele>
        <time>2016-09-26T08:00:48Z</time>
      </trkpt>
      <trkpt lat="43.743110" lon="-7.899581">
        <ele>340.242</ele>
        <time>2016-09-26T08:00:49Z</time>
      </trkpt>
      <trkpt lat="43.743094" lon="-7.899622">
        <ele>340.415</ele>
        <time>2016-09-26T08:00:50Z</time>
      </trkpt>
      <trkpt lat="43.743078" lon="-7.899663">
        <ele>340.843</ele>
        <time>2016-09-26T08:00:51Z</time>
      </trkpt>
      <trkpt lat="43.743064" lon="-7.899697">
        <ele>340.961</ele>
        <time>2016-09-26T08:00:52Z</time>
      </trkpt>
      <trkpt lat="43.743053" lon="-7.899732">
        <ele>341.221</ele>
        <time>2016-09-26T08:00:53Z</time>
      </trkpt>
      <trkpt lat="43.743041" lon="-7.899763">
        <ele>341.413</ele>
        <time>2016-09-26T08:00:54Z</time>
      </trkpt>
      <trkpt lat="43.743030" lon="-7.899796">
        <ele>341.608</ele>
        <time>2016-09-26T08:00:55Z</time>
      </trkpt>
      <trkpt lat="43.743014" lon="-7.899823">
        <ele>342.087</ele>
        <time>2016-09-26T08:00:56Z</time>
      </trkpt>
      <trkpt lat="43.742998" lon="-7.899844">
        <ele>342.382</ele>
        <time>2016-09-26T08:00:57Z</time>
      </trkpt>
      <trkpt lat="43.742981" lon="-7.899872">
        <ele>342.520</ele>
        <time>2016-09-26T08:00:58Z</time>
      </trkpt>
      <trkpt lat="43.742961" lon="-7.899904">
        <ele>342.676</ele>
        <time>2016-09-26T08:00:59Z</time>
      </trkpt>
      <trkpt lat="43.742942" lon="-7.899935">
        <ele>342.890</ele>
        <time>2016-09-26T08:01:00Z</time>
      </trkpt>
      <trkpt lat="43.742924" lon="-7.899964">
        <ele>342.772</ele>
        <time>2016-09-26T08:01:01Z</time>
      </trkpt>
      <trkpt lat="43.742907" lon="-7.899995">
        <ele>343.035</ele>
        <time>2016-09-26T08:01:02Z</time>
      </trkpt>
      <trkpt lat="43.742895" lon="-7.900025">
        <ele>343.163</ele>
        <time>2016-09-26T08:01:03Z</time>
      </trkpt>
      <trkpt lat="43.742883" lon="-7.900051">
        <ele>343.324</ele>
        <time>2016-09-26T08:01:04Z</time>
      </trkpt>
      <trkpt lat="43.742868" lon="-7.900079">
        <ele>343.504</ele>
        <time>2016-09-26T08:01:05Z</time>
      </trkpt>
      <trkpt lat="43.742858" lon="-7.900107">
        <ele>343.614</ele>
        <time>2016-09-26T08:01:06Z</time>
      </trkpt>
      <trkpt lat="43.742847" lon="-7.900132">
        <ele>344.008</ele>
        <time>2016-09-26T08:01:07Z</time>
      </trkpt>
      <trkpt lat="43.742836" lon="-7.900161">
        <ele>344.293</ele>
        <time>2016-09-26T08:01:08Z</time>
      </trkpt>
      <trkpt lat="43.742824" lon="-7.900196">
        <ele>344.588</ele>
        <time>2016-09-26T08:01:09Z</time>
      </trkpt>
      <trkpt lat="43.742808" lon="-7.900232">
        <ele>344.776</ele>
        <time>2016-09-26T08:01:10Z</time>
      </trkpt>
      <trkpt lat="43.742793" lon="-7.900267">
        <ele>345.012</ele>
        <time>2016-09-26T08:01:11Z</time>
      </trkpt>
      <trkpt lat="43.742779" lon="-7.900298">
        <ele>345.136</ele>
        <time>2016-09-26T08:01:12Z</time>
      </trkpt>
      <trkpt lat="43.742769" lon="-7.900331">
        <ele>345.418</ele>
        <time>2016-09-26T08:01:13Z</time>
      </trkpt>
      <trkpt lat="43.742756" lon="-7.900361">
        <ele>345.681</ele>
        <time>2016-09-26T08:01:14Z</time>
      </trkpt>
      <trkpt lat="43.742743" lon="-7.900391">
        <ele>345.829</ele>
        <time>2016-09-26T08:01:15Z</time>
      </trkpt>
      <trkpt lat="43.742730" lon="-7.900418">
        <ele>346.088</ele>
        <time>2016-09-26T08:01:16Z</time>
      </trkpt>
      <trkpt lat="43.742715" lon="-7.900444">
        <ele>346.324</ele>
        <time>2016-09-26T08:01:17Z</time>
      </trkpt>
      <trkpt lat="43.742699" lon="-7.900470">
        <ele>346.426</ele>
        <time>2016-09-26T08:01:18Z</time>
      </trkpt>
      <trkpt lat="43.742684" lon="-7.900496">
        <ele>346.608</ele>
        <time>2016-09-26T08:01:19Z</time>
      </trkpt>
      <trkpt lat="43.742673" lon="-7.900525">
        <ele>346.849</ele>
        <time>2016-09-26T08:01:20Z</time>
      </trkpt>
      <trkpt lat="43.742663" lon="-7.900556">
        <ele>347.174</ele>
        <time>2016-09-26T08:01:21Z</time>
      </trkpt>
      <trkpt lat="43.742649" lon="-7.900587">
        <ele>347.462</ele>
        <time>2016-09-26T08:01:22Z</time>
      </trkpt>
      <trkpt lat="43.742635" lon="-7.900616">
        <ele>347.668</ele>
        <time>2016-09-26T08:01:23Z</time>
      </trkpt>
      <trkpt lat="43.742623" lon="-7.900645">
        <ele>347.842</ele>
        <time>2016-09-26T08:01:24Z</time>
      </trkpt>
      <trkpt lat="43.742612" lon="-7.900673">
        <ele>348.174</ele>
        <time>2016-09-26T08:01:25Z</time>
      </trkpt>
      <trkpt lat="43.742600" lon="-7.900702">
        <ele>348.047</ele>
        <time>2016-09-26T08:01:26Z</time>
      </trkpt>
      <trkpt lat="43.742589" lon="-7.900730">
        <ele>348.285</ele>
        <time>2016-09-26T08:01:27Z</time>
      </trkpt>
      <trkpt lat="43.742577" lon="-7.900754">
        <ele>348.535</ele>
        <time>2016-09-26T08:01:28Z</time>
      </trkpt>
      <trkpt lat="43.742564" lon="-7.900779">
        <ele>348.786</ele>
        <time>2016-09-26T08:01:29Z</time>
      </trkpt>
      <trkpt lat="43.742552" lon="-7.900804">
        <ele>348.814</ele>
        <time>2016-09-26T08:01:30Z</time>
      </trkpt>
      <trkpt lat="43.742540" lon="-7.900829">
        <ele>349.108</ele>
        <time>2016-09-26T08:01:31Z</time>
      </trkpt>
      <trkpt lat="43.742526" lon="-7.900854">
        <ele>349.344</ele>
        <time>2016-09-26T08:01:32Z</time>
      </trkpt>
      <trkpt lat="43.742512" lon="-7.900877">
        <ele>349.599</ele>
        <time>2016-09-26T08:01:33Z</time>
      </trkpt>
      <trkpt lat="43.742501" lon="-7.900901">
        <ele>349.637</ele>
        <time>2016-09-26T08:01:34Z</time>
      </trkpt>
      <trkpt lat="43.742488" lon="-7.900925">
        <ele>349.773</ele>
        <time>2016-09-26T08:01:35Z</time>
      </trkpt>
      <trkpt lat="43.742476" lon="-7.900948">
        <ele>349.947</ele>
        <time>2016-09-26T08:01:36Z</time>
      </trkpt>
      <trkpt lat="43.742464" lon="-7.900971">
        <ele>350.249</ele>
        <time>2016-09-26T08:01:37Z</time>
      </trkpt>
      <trkpt lat="43.742452" lon="-7.900995">
        <ele>350.462</ele>
        <time>2016-09-26T08:01:38Z</time>
      </trkpt>
      <trkpt lat="43.742441" lon="-7.901019">
        <ele>350.760</ele>
        <time>2016-09-26T08:01:39Z</time>
      </trkpt>
      <trkpt lat="43.742430" lon="-7.901045">
        <ele>350.854</ele>
        <time>2016-09-26T08:01:40Z</time>
      </trkpt>
      <trkpt lat="43.742418" lon="-7.901068">
        <ele>351.056</ele>
        <time>2016-09-26T08:01:41Z</time>
      </trkpt>
      <trkpt lat="43.742408" lon="-7.901090">
        <ele>350.911</ele>
        <time>2016-09-26T08:01:42Z</time>
      </trkpt>
      <trkpt lat="43.742398" lon="-7.901114">
        <ele>351.008</ele>
        <time>2016-09-26T08:01:43Z</time>
      </trkpt>
      <trkpt lat="43.742389" lon="-7.901139">
        <ele>351.316</ele>
        <time>2016-09-26T08:01:44Z</time>
      </trkpt>
      <trkpt lat="43.742378" lon="-7.901163">
        <ele>351.671</ele>
        <time>2016-09-26T08:01:45Z</time>
      </trkpt>
      <trkpt lat="43.742366" lon="-7.901187">
        <ele>351.699</ele>
        <time>2016-09-26T08:01:46Z</time>
      </trkpt>
      <trkpt lat="43.742354" lon="-7.901213">
        <ele>351.825</ele>
        <time>2016-09-26T08:01:47Z</time>
      </trkpt>
      <trkpt lat="43.742344" lon="-7.901240">
        <ele>352.029</ele>
        <time>2016-09-26T08:01:48Z</time>
      </trkpt>
      <trkpt lat="43.742334" lon="-7.901267">
        <ele>352.111</ele>
        <time>2016-09-26T08:01:49Z</time>
      </trkpt>
      <trkpt lat="43.742326" lon="-7.901294">
        <ele>352.394</ele>
        <time>2016-09-26T08:01:50Z</time>
      </trkpt>
      <trkpt lat="43.742318" lon="-7.901320">
        <ele>352.582</ele>
        <time>2016-09-26T08:01:51Z</time>
      </trkpt>
      <trkpt lat="43.742309" lon="-7.901347">
        <ele>352.764</ele>
        <time>2016-09-26T08:01:52Z</time>
      </trkpt>
      <trkpt lat="43.742303" lon="-7.901378">
        <ele>352.906</ele>
        <time>2016-09-26T08:01:53Z</time>
      </trkpt>
      <trkpt lat="43.742296" lon="-7.901403">
        <ele>353.016</ele>
        <time>2016-09-26T08:01:54Z</time>
      </trkpt>
      <trkpt lat="43.742287" lon="-7.901428">
        <ele>353.208</ele>
        <time>2016-09-26T08:01:55Z</time>
      </trkpt>
      <trkpt lat="43.742279" lon="-7.901452">
        <ele>353.467</ele>
        <time>2016-09-26T08:01:56Z</time>
      </trkpt>
      <trkpt lat="43.742273" lon="-7.901477">
        <ele>353.612</ele>
        <time>2016-09-26T08:01:57Z</time>
      </trkpt>
      <trkpt lat="43.742267" lon="-7.901504">
        <ele>353.840</ele>
        <time>2016-09-26T08:01:58Z</time>
      </trkpt>
      <trkpt lat="43.742260" lon="-7.901532">
        <ele>354.036</ele>
        <time>2016-09-26T08:01:59Z</time>
      </trkpt>
      <trkpt lat="43.742251" lon="-7.901560">
        <ele>354.070</ele>
        <time>2016-09-26T08:02:00Z</time>
      </trkpt>
      <trkpt lat="43.742243" lon="-7.901589">
        <ele>353.922</ele>
        <time>2016-09-26T08:02:01Z</time>
      </trkpt>
      <trkpt lat="43.742235" lon="-7.901616">
        <ele>354.155</ele>
        <time>2016-09-26T08:02:02Z</time>
      </trkpt>
      <trkpt lat="43.742227" lon="-7.901645">
        <ele>354.273</ele>
        <time>2016-09-26T08:02:03Z</time>
      </trkpt>
      <trkpt lat="43.742218" lon="-7.901674">
        <ele>354.428</ele>
        <time>2016-09-26T08:02:04Z</time>
      </trkpt>
      <trkpt lat="43.742212" lon="-7.901705">
        <ele>354.589</ele>
        <time>2016-09-26T08:02:05Z</time>
      </trkpt>
      <trkpt lat="43.742205" lon="-7.901734">
        <ele>354.817</ele>
        <time>2016-09-26T08:02:06Z</time>
      </trkpt>
      <trkpt lat="43.742197" lon="-7.901764">
        <ele>354.908</ele>
        <time>2016-09-26T08:02:07Z</time>
      </trkpt>
      <trkpt lat="43.742187" lon="-7.901794">
        <ele>355.033</ele>
        <time>2016-09-26T08:02:08Z</time>
      </trkpt>
      <trkpt lat="43.742178" lon="-7.901827">
        <ele>355.018</ele>
        <time>2016-09-26T08:02:09Z</time>
      </trkpt>
      <trkpt lat="43.742169" lon="-7.901860">
        <ele>355.286</ele>
        <time>2016-09-26T08:02:10Z</time>
      </trkpt>
      <trkpt lat="43.742161" lon="-7.901895">
        <ele>355.352</ele>
        <time>2016-09-26T08:02:11Z</time>
      </trkpt>
      <trkpt lat="43.742153" lon="-7.901929">
        <ele>355.426</ele>
        <time>2016-09-26T08:02:12Z</time>
      </trkpt>
      <trkpt lat="43.742146" lon="-7.901964">
        <ele>355.478</ele>
        <time>2016-09-26T08:02:13Z</time>
      </trkpt>
      <trkpt lat="43.742141" lon="-7.902000">
        <ele>355.471</ele>
        <time>2016-09-26T08:02:14Z</time>
      </trkpt>
      <trkpt lat="43.742135" lon="-7.902035">
        <ele>355.659</ele>
        <time>2016-09-26T08:02:15Z</time>
      </trkpt>
      <trkpt lat="43.742130" lon="-7.902068">
        <ele>355.918</ele>
        <time>2016-09-26T08:02:16Z</time>
      </trkpt>
      <trkpt lat="43.742127" lon="-7.902101">
        <ele>355.998</ele>
        <time>2016-09-26T08:02:17Z</time>
      </trkpt>
      <trkpt lat="43.742124" lon="-7.902132">
        <ele>355.917</ele>
        <time>2016-09-26T08:02:18Z</time>
      </trkpt>
      <trkpt lat="43.742122" lon="-7.902160">
        <ele>355.908</ele>
        <time>2016-09-26T08:02:19Z</time>
      </trkpt>
      <trkpt lat="43.742119" lon="-7.902186">
        <ele>356.022</ele>
        <time>2016-09-26T08:02:20Z</time>
      </trkpt>
      <trkpt lat="43.742118" lon="-7.902211">
        <ele>356.287</ele>
        <time>2016-09-26T08:02:21Z</time>
      </trkpt>
      <trkpt lat="43.742121" lon="-7.902238">
        <ele>356.435</ele>
        <time>2016-09-26T08:02:22Z</time>
      </trkpt>
      <trkpt lat="43.742124" lon="-7.902266">
        <ele>356.541</ele>
        <time>2016-09-26T08:02:23Z</time>
      </trkpt>
      <trkpt lat="43.742124" lon="-7.902299">
        <ele>356.695</ele>
        <time>2016-09-26T08:02:24Z</time>
      </trkpt>
      <trkpt lat="43.742123" lon="-7.902331">
        <ele>356.837</ele>
        <time>2016-09-26T08:02:25Z</time>
      </trkpt>
      <trkpt lat="43.742120" lon="-7.902364">
        <ele>356.830</ele>
        <time>2016-09-26T08:02:26Z</time>
      </trkpt>
      <trkpt lat="43.742120" lon="-7.902399">
        <ele>357.088</ele>
        <time>2016-09-26T08:02:27Z</time>
      </trkpt>
      <trkpt lat="43.742115" lon="-7.902433">
        <ele>357.396</ele>
        <time>2016-09-26T08:02:28Z</time>
      </trkpt>
      <trkpt lat="43.742111" lon="-7.902467">
        <ele>357.631</ele>
        <time>2016-09-26T08:02:29Z</time>
      </trkpt>
      <trkpt lat="43.742111" lon="-7.902498">
        <ele>357.824</ele>
        <time>2016-09-26T08:02:30Z</time>
      </trkpt>
      <trkpt lat="43.742112" lon="-7.902532">
        <ele>357.908</ele>
        <time>2016-09-26T08:02:31Z</time>
      </trkpt>
      <trkpt lat="43.742113" lon="-7.902568">
        <ele>358.160</ele>
        <time>2016-09-26T08:02:32Z</time>
      </trkpt>
      <trkpt lat="43.742115" lon="-7.902604">
        <ele>358.275</ele>
        <time>2016-09-26T08:02:33Z</time>
      </trkpt>
      <trkpt lat="43.742117" lon="-7.902640">
        <ele>358.343</ele>
        <time>2016-09-26T08:02:34Z</time>
      </trkpt>
      <trkpt lat="43.742120" lon="-7.902679">
        <ele>358.419</ele>
        <time>2016-09-26T08:02:35Z</time>
      </trkpt>
      <trkpt lat="43.742124" lon="-7.902718">
        <ele>358.533</ele>
        <time>2016-09-26T08:02:36Z</time>
      </trkpt>
      <trkpt lat="43.742125" lon="-7.902757">
        <ele>358.495</ele>
        <time>2016-09-26T08:02:37Z</time>
      </trkpt>
      <trkpt lat="43.742127" lon="-7.902795">
        <ele>358.458</ele>
        <time>2016-09-26T08:02:38Z</time>
      </trkpt>
      <trkpt lat="43.742130" lon="-7.902831">
        <ele>358.456</ele>
        <time>2016-09-26T08:02:39Z</time>
      </trkpt>
      <trkpt lat="43.742133" lon="-7.902868">
        <ele>358.642</ele>
        <time>2016-09-26T08:02:40Z</time>
      </trkpt>
      <trkpt lat="43.742131" lon="-7.902905">
        <ele>358.822</ele>
        <time>2016-09-26T08:02:41Z</time>
      </trkpt>
      <trkpt lat="43.742131" lon="-7.902941">
        <ele>358.714</ele>
        <time>2016-09-26T08:02:42Z</time>
      </trkpt>
      <trkpt lat="43.742134" lon="-7.902981">
        <ele>358.908</ele>
        <time>2016-09-26T08:02:43Z</time>
      </trkpt>
      <trkpt lat="43.742134" lon="-7.903018">
        <ele>359.225</ele>
        <time>2016-09-26T08:02:44Z</time>
      </trkpt>
      <trkpt lat="43.742132" lon="-7.903054">
        <ele>359.320</ele>
        <time>2016-09-26T08:02:45Z</time>
      </trkpt>
      <trkpt lat="43.742136" lon="-7.903090">
        <ele>359.598</ele>
        <time>2016-09-26T08:02:46Z</time>
      </trkpt>
      <trkpt lat="43.742139" lon="-7.903128">
        <ele>359.674</ele>
        <time>2016-09-26T08:02:47Z</time>
      </trkpt>
      <trkpt lat="43.742140" lon="-7.903167">
        <ele>359.758</ele>
        <time>2016-09-26T08:02:48Z</time>
      </trkpt>
      <trkpt lat="43.742141" lon="-7.903205">
        <ele>359.810</ele>
        <time>2016-09-26T08:02:49Z</time>
      </trkpt>
      <trkpt lat="43.742139" lon="-7.903241">
        <ele>360.013</ele>
        <time>2016-09-26T08:02:50Z</time>
      </trkpt>
      <trkpt lat="43.742140" lon="-7.903278">
        <ele>360.271</ele>
        <time>2016-09-26T08:02:51Z</time>
      </trkpt>
      <trkpt lat="43.742139" lon="-7.903316">
        <ele>360.424</ele>
        <time>2016-09-26T08:02:52Z</time>
      </trkpt>
      <trkpt lat="43.742137" lon="-7.903354">
        <ele>360.604</ele>
        <time>2016-09-26T08:02:53Z</time>
      </trkpt>
      <trkpt lat="43.742136" lon="-7.903391">
        <ele>360.714</ele>
        <time>2016-09-26T08:02:54Z</time>
      </trkpt>
      <trkpt lat="43.742136" lon="-7.903429">
        <ele>361.008</ele>
        <time>2016-09-26T08:02:55Z</time>
      </trkpt>
      <trkpt lat="43.742133" lon="-7.903468">
        <ele>360.913</ele>
        <time>2016-09-26T08:02:56Z</time>
      </trkpt>
      <trkpt lat="43.742132" lon="-7.903507">
        <ele>361.178</ele>
        <time>2016-09-26T08:02:57Z</time>
      </trkpt>
      <trkpt lat="43.742131" lon="-7.903544">
        <ele>361.286</ele>
        <time>2016-09-26T08:02:58Z</time>
      </trkpt>
      <trkpt lat="43.742131" lon="-7.903581">
        <ele>361.452</ele>
        <time>2016-09-26T08:02:59Z</time>
      </trkpt>
      <trkpt lat="43.742131" lon="-7.903618">
        <ele>361.556</ele>
        <time>2016-09-26T08:03:00Z</time>
      </trkpt>
      <trkpt lat="43.742130" lon="-7.903652">
        <ele>361.758</ele>
        <time>2016-09-26T08:03:01Z</time>
      </trkpt>
      <trkpt lat="43.742128" lon="-7.903683">
        <ele>361.891</ele>
        <time>2016-09-26T08:03:02Z</time>
      </trkpt>
      <trkpt lat="43.742128" lon="-7.903714">
        <ele>362.039</ele>
        <time>2016-09-26T08:03:03Z</time>
      </trkpt>
      <trkpt lat="43.742133" lon="-7.903748">
        <ele>362.299</ele>
        <time>2016-09-26T08:03:04Z</time>
      </trkpt>
      <trkpt lat="43.742136" lon="-7.903782">
        <ele>362.407</ele>
        <time>2016-09-26T08:03:05Z</time>
      </trkpt>
      <trkpt lat="43.742137" lon="-7.903816">
        <ele>362.827</ele>
        <time>2016-09-26T08:03:06Z</time>
      </trkpt>
      <trkpt lat="43.742135" lon="-7.903848">
        <ele>362.908</ele>
        <time>2016-09-26T08:03:07Z</time>
      </trkpt>
      <trkpt lat="43.742133" lon="-7.903881">
        <ele>363.080</ele>
        <time>2016-09-26T08:03:08Z</time>
      </trkpt>
      <trkpt lat="43.742131" lon="-7.903913">
        <ele>363.145</ele>
        <time>2016-09-26T08:03:09Z</time>
      </trkpt>
      <trkpt lat="43.742132" lon="-7.903945">
        <ele>363.273</ele>
        <time>2016-09-26T08:03:10Z</time>
      </trkpt>
      <trkpt lat="43.742132" lon="-7.903976">
        <ele>363.359</ele>
        <time>2016-09-26T08:03:11Z</time>
      </trkpt>
      <trkpt lat="43.742134" lon="-7.904008">
        <ele>363.543</ele>
        <time>2016-09-26T08:03:12Z</time>
      </trkpt>
      <trkpt lat="43.742139" lon="-7.904041">
        <ele>363.785</ele>
        <time>2016-09-26T08:03:13Z</time>
      </trkpt>
      <trkpt lat="43.742143" lon="-7.904075">
        <ele>364.078</ele>
        <time>2016-09-26T08:03:14Z</time>
      </trkpt>
      <trkpt lat="43.742148" lon="-7.904109">
        <ele>364.286</ele>
        <time>2016-09-26T08:03:15Z</time>
      </trkpt>
      <trkpt lat="43.742149" lon="-7.904141">
        <ele>364.523</ele>
        <time>2016-09-26T08:03:16Z</time>
      </trkpt>
      <trkpt lat="43.742150" lon="-7.904172">
        <ele>364.683</ele>
        <time>2016-09-26T08:03:17Z</time>
      </trkpt>
      <trkpt lat="43.742153" lon="-7.904205">
        <ele>364.611</ele>
        <time>2016-09-26T08:03:18Z</time>
      </trkpt>
      <trkpt lat="43.742155" lon="-7.904236">
        <ele>364.808</ele>
        <time>2016-09-26T08:03:19Z</time>
      </trkpt>
      <trkpt lat="43.742160" lon="-7.904266">
        <ele>365.033</ele>
        <time>2016-09-26T08:03:20Z</time>
      </trkpt>
      <trkpt lat="43.742164" lon="-7.904296">
        <ele>365.278</ele>
        <time>2016-09-26T08:03:21Z</time>
      </trkpt>
      <trkpt lat="43.742166" lon="-7.904326">
        <ele>365.366</ele>
        <time>2016-09-26T08:03:22Z</time>
      </trkpt>
      <trkpt lat="43.742170" lon="-7.904358">
        <ele>365.362</ele>
        <time>2016-09-26T08:03:23Z</time>
      </trkpt>
      <trkpt lat="43.742173" lon="-7.904389">
        <ele>365.526</ele>
        <time>2016-09-26T08:03:24Z</time>
      </trkpt>
      <trkpt lat="43.742174" lon="-7.904420">
        <ele>365.718</ele>
        <time>2016-09-26T08:03:25Z</time>
      </trkpt>
      <trkpt lat="43.742172" lon="-7.904450">
        <ele>366.051</ele>
        <time>2016-09-26T08:03:26Z</time>
      </trkpt>
      <trkpt lat="43.742172" lon="-7.904480">
        <ele>366.259</ele>
        <time>2016-09-26T08:03:27Z</time>
      </trkpt>
      <trkpt lat="43.742172" lon="-7.904512">
        <ele>366.447</ele>
        <time>2016-09-26T08:03:28Z</time>
      </trkpt>
      <trkpt lat="43.742171" lon="-7.904543">
        <ele>366.729</ele>
        <time>2016-09-26T08:03:29Z</time>
      </trkpt>
      <trkpt lat="43.742172" lon="-7.904573">
        <ele>366.821</ele>
        <time>2016-09-26T08:03:30Z</time>
      </trkpt>
      <trkpt lat="43.742173" lon="-7.904602">
        <ele>366.908</ele>
        <time>2016-09-26T08:03:31Z</time>
      </trkpt>
      <trkpt lat="43.742175" lon="-7.904631">
        <ele>367.195</ele>
        <time>2016-09-26T08:03:32Z</time>
      </trkpt>
      <trkpt lat="43.742176" lon="-7.904659">
        <ele>367.430</ele>
        <time>2016-09-26T08:03:33Z</time>
      </trkpt>
      <trkpt lat="43.742174" lon="-7.904689">
        <ele>367.788</ele>
        <time>2016-09-26T08:03:34Z</time>
      </trkpt>
      <trkpt lat="43.742173" lon="-7.904720">
        <ele>367.984</ele>
        <time>2016-09-26T08:03:35Z</time>
      </trkpt>
      <trkpt lat="43.742175" lon="-7.904752">
        <ele>368.198</ele>
        <time>2016-09-26T08:03:36Z</time>
      </trkpt>
      <trkpt lat="43.742174" lon="-7.904784">
        <ele>368.250</ele>
        <time>2016-09-26T08:03:37Z</time>
      </trkpt>
      <trkpt lat="43.742174" lon="-7.904814">
        <ele>368.383</ele>
        <time>2016-09-26T08:03:38Z</time>
      </trkpt>
      <trkpt lat="43.742174" lon="-7.904846">
        <ele>368.421</ele>
        <time>2016-09-26T08:03:39Z</time>
      </trkpt>
      <trkpt lat="43.742174" lon="-7.904877">
        <ele>368.696</ele>
        <time>2016-09-26T08:03:40Z</time>
      </trkpt>
      <trkpt lat="43.742173" lon="-7.904907">
        <ele>368.831</ele>
        <time>2016-09-26T08:03:41Z</time>
      </trkpt>
      <trkpt lat="43.742173" lon="-7.904938">
        <ele>369.024</ele>
        <time>2016-09-26T08:03:42Z</time>
      </trkpt>
      <trkpt lat="43.742173" lon="-7.904969">
        <ele>369.208</ele>
        <time>2016-09-26T08:03:43Z</time>
      </trkpt>
      <trkpt lat="43.742172" lon="-7.904998">
        <ele>369.270</ele>
        <time>2016-09-26T08:03:44Z</time>
      </trkpt>
      <trkpt lat="43.742172" lon="-7.905027">
        <ele>369.395</ele>
        <time>2016-09-26T08:03:45Z</time>
      </trkpt>
      <trkpt lat="43.742174" lon="-7.905058">
        <ele>369.413</ele>
        <time>2016-09-26T08:03:46Z</time>
      </trkpt>
      <trkpt lat="43.742176" lon="-7.905087">
        <ele>369.529</ele>
        <time>2016-09-26T08:03:47Z</time>
      </trkpt>
      <trkpt lat="43.742176" lon="-7.905116">
        <ele>369.893</ele>
        <time>2016-09-26T08:03:48Z</time>
      </trkpt>
      <trkpt lat="43.742175" lon="-7.905144">
        <ele>369.935</ele>
        <time>2016-09-26T08:03:49Z</time>
      </trkpt>
      <trkpt lat="43.742174" lon="-7.905172">
        <ele>370.238</ele>
        <time>2016-09-26T08:03:50Z</time>
      </trkpt>
      <trkpt lat="43.742173" lon="-7.905200">
        <ele>370.356</ele>
        <time>2016-09-26T08:03:51Z</time>
      </trkpt>
      <trkpt lat="43.742173" lon="-7.905230">
        <ele>370.435</ele>
        <time>2016-09-26T08:03:52Z</time>
      </trkpt>
      <trkpt lat="43.742172" lon="-7.905260">
        <ele>370.586</ele>
        <time>2016-09-26T08:03:53Z</time>
      </trkpt>
      <trkpt lat="43.742172" lon="-7.905290">
        <ele>370.714</ele>
        <time>2016-09-26T08:03:54Z</time>
      </trkpt>
      <trkpt lat="43.742174" lon="-7.905321">
        <ele>370.908</ele>
        <time>2016-09-26T08:03:55Z</time>
      </trkpt>
      <trkpt lat="43.742175" lon="-7.905351">
        <ele>371.134</ele>
        <time>2016-09-26T08:03:56Z</time>
      </trkpt>
      <trkpt lat="43.742175" lon="-7.905382">
        <ele>371.219</ele>
        <time>2016-09-26T08:03:57Z</time>
      </trkpt>
      <trkpt lat="43.742174" lon="-7.905411">
        <ele>371.427</ele>
        <time>2016-09-26T08:03:58Z</time>
      </trkpt>
      <trkpt lat="43.742172" lon="-7.905439">
        <ele>371.643</ele>
        <time>2016-09-26T08:03:59Z</time>
      </trkpt>
      <trkpt lat="43.742169" lon="-7.905467">
        <ele>371.847</ele>
        <time>2016-09-26T08:04:00Z</time>
      </trkpt>
      <trkpt lat="43.742167" lon="-7.905495">
        <ele>372.079</ele>
        <time>2016-09-26T08:04:01Z</time>
      </trkpt>
      <trkpt lat="43.742167" lon="-7.905523">
        <ele>372.172</ele>
        <time>2016-09-26T08:04:02Z</time>
      </trkpt>
      <trkpt lat="43.742166" lon="-7.905553">
        <ele>372.360</ele>
        <time>2016-09-26T08:04:03Z</time>
      </trkpt>
      <trkpt lat="43.742164" lon="-7.905582">
        <ele>372.476</ele>
        <time>2016-09-26T08:04:04Z</time>
      </trkpt>
      <trkpt lat="43.742161" lon="-7.905610">
        <ele>372.590</ele>
        <time>2016-09-26T08:04:05Z</time>
      </trkpt>
      <trkpt lat="43.742158" lon="-7.905638">
        <ele>372.619</ele>
        <time>2016-09-26T08:04:06Z</time>
      </trkpt>
      <trkpt lat="43.742157" lon="-7.905668">
        <ele>373.008</ele>
        <time>2016-09-26T08:04:07Z</time>
      </trkpt>
      <trkpt lat="43.742155" lon="-7.905696">
        <ele>373.128</ele>
        <time>2016-09-26T08:04:08Z</time>
      </trkpt>
      <trkpt lat="43.742157" lon="-7.905725">
        <ele>373.253</ele>
        <time>2016-09-26T08:04:09Z</time>
      </trkpt>
      <trkpt lat="43.742157" lon="-7.905755">
        <ele>373.491</ele>
        <time>2016-09-26T08:04:10Z</time>
      </trkpt>
      <trkpt lat="43.742154" lon="-7.905783">
        <ele>373.737</ele>
        <time>2016-09-26T08:04:11Z</time>
      </trkpt>
      <trkpt lat="43.742151" lon="-7.905811">
        <ele>374.191</ele>
        <time>2016-09-26T08:04:12Z</time>
      </trkpt>
      <trkpt lat="43.742152" lon="-7.905840">
        <ele>374.223</ele>
        <time>2016-09-26T08:04:13Z</time>
      </trkpt>
      <trkpt lat="43.742152" lon="-7.905867">
        <ele>374.446</ele>
        <time>2016-09-26T08:04:14Z</time>
      </trkpt>
      <trkpt lat="43.742149" lon="-7.905894">
        <ele>374.644</ele>
        <time>2016-09-26T08:04:15Z</time>
      </trkpt>
      <trkpt lat="43.742149" lon="-7.905922">
        <ele>374.975</ele>
        <time>2016-09-26T08:04:16Z</time>
      </trkpt>
      <trkpt lat="43.742153" lon="-7.905950">
        <ele>375.028</ele>
        <time>2016-09-26T08:04:17Z</time>
      </trkpt>
      <trkpt lat="43.742155" lon="-7.905976">
        <ele>375.320</ele>
        <time>2016-09-26T08:04:18Z</time>
      </trkpt>
      <trkpt lat="43.742155" lon="-7.906002">
        <ele>375.508</ele>
        <time>2016-09-26T08:04:19Z</time>
      </trkpt>
      <trkpt lat="43.742154" lon="-7.906029">
        <ele>375.578</ele>
        <time>2016-09-26T08:04:20Z</time>
      </trkpt>
      <trkpt lat="43.742153" lon="-7.906056">
        <ele>375.573</ele>
        <time>2016-09-26T08:04:21Z</time>
      </trkpt>
      <trkpt lat="43.742152" lon="-7.906084">
        <ele>375.521</ele>
        <time>2016-09-26T08:04:22Z</time>
      </trkpt>
      <trkpt lat="43.742150" lon="-7.906113">
        <ele>375.757</ele>
        <time>2016-09-26T08:04:23Z</time>
      </trkpt>
      <trkpt lat="43.742149" lon="-7.906143">
        <ele>375.811</ele>
        <time>2016-09-26T08:04:24Z</time>
      </trkpt>
      <trkpt lat="43.742148" lon="-7.906173">
        <ele>376.083</ele>
        <time>2016-09-26T08:04:25Z</time>
      </trkpt>
      <trkpt lat="43.742147" lon="-7.906201">
        <ele>376.226</ele>
        <time>2016-09-26T08:04:26Z</time>
      </trkpt>
      <trkpt lat="43.742146" lon="-7.906229">
        <ele>376.334</ele>
        <time>2016-09-26T08:04:27Z</time>
      </trkpt>
      <trkpt lat="43.742144" lon="-7.906258">
        <ele>376.468</ele>
        <time>2016-09-26T08:04:28Z</time>
      </trkpt>
      <trkpt lat="43.742144" lon="-7.906289">
        <ele>376.542</ele>
        <time>2016-09-26T08:04:29Z</time>
      </trkpt>
      <trkpt lat="43.742143" lon="-7.906319">
        <ele>376.926</ele>
        <time>2016-09-26T08:04:30Z</time>
      </trkpt>
      <trkpt lat="43.742141" lon="-7.906349">
        <ele>377.108</ele>
        <time>2016-09-26T08:04:31Z</time>
      </trkpt>
      <trkpt lat="43.742139" lon="-7.906379">
        <ele>377.377</ele>
        <time>2016-09-26T08:04:32Z</time>
      </trkpt>
      <trkpt lat="43.742137" lon="-7.906410">
        <ele>377.482</ele>
        <time>2016-09-26T08:04:33Z</time>
      </trkpt>
      <trkpt lat="43.742134" lon="-7.906440">
        <ele>377.580</ele>
        <time>2016-09-26T08:04:34Z</time>
      </trkpt>
      <trkpt lat="43.742130" lon="-7.906470">
        <ele>377.896</ele>
        <time>2016-09-26T08:04:35Z</time>
      </trkpt>
      <trkpt lat="43.742128" lon="-7.906501">
        <ele>377.940</ele>
        <time>2016-09-26T08:04:36Z</time>
      </trkpt>
      <trkpt lat="43.742126" lon="-7.906528">
        <ele>378.292</ele>
        <time>2016-09-26T08:04:37Z</time>
      </trkpt>
      <trkpt lat="43.742125" lon="-7.906555">
        <ele>378.465</ele>
        <time>2016-09-26T08:04:38Z</time>
      </trkpt>
      <trkpt lat="43.742123" lon="-7.906584">
        <ele>378.543</ele>
        <time>2016-09-26T08:04:39Z</time>
      </trkpt>
      <trkpt lat="43.742120" lon="-7.906613">
        <ele>378.748</ele>
        <time>2016-09-26T08:04:40Z</time>
      </trkpt>
      <trkpt lat="43.742115" lon="-7.906643">
        <ele>378.861</ele>
        <time>2016-09-26T08:04:41Z</time>
      </trkpt>
      <trkpt lat="43.742109" lon="-7.906674">
        <ele>379.017</ele>
        <time>2016-09-26T08:04:42Z</time>
      </trkpt>
      <trkpt lat="43.742104" lon="-7.906703">
        <ele>379.308</ele>
        <time>2016-09-26T08:04:43Z</time>
      </trkpt>
      <trkpt lat="43.742099" lon="-7.906734">
        <ele>379.565</ele>
        <time>2016-09-26T08:04:44Z</time>
      </trkpt>
      <trkpt lat="43.742094" lon="-7.906767">
        <ele>379.530</ele>
        <time>2016-09-26T08:04:45Z</time>
      </trkpt>
      <trkpt lat="43.742090" lon="-7.906799">
        <ele>379.728</ele>
        <time>2016-09-26T08:04:46Z</time>
      </trkpt>
      <trkpt lat="43.742086" lon="-7.906829">
        <ele>380.034</ele>
        <time>2016-09-26T08:04:47Z</time>
      </trkpt>
      <trkpt lat="43.742082" lon="-7.906859">
        <ele>380.148</ele>
        <time>2016-09-26T08:04:48Z</time>
      </trkpt>
      <trkpt lat="43.742077" lon="-7.906890">
        <ele>380.330</ele>
        <time>2016-09-26T08:04:49Z</time>
      </trkpt>
      <trkpt lat="43.742070" lon="-7.906922">
        <ele>380.453</ele>
        <time>2016-09-26T08:04:50Z</time>
      </trkpt>
      <trkpt lat="43.742064" lon="-7.906953">
        <ele>380.661</ele>
        <time>2016-09-26T08:04:51Z</time>
      </trkpt>
      <trkpt lat="43.742058" lon="-7.906982">
        <ele>380.915</ele>
        <time>2016-09-26T08:04:52Z</time>
      </trkpt>
      <trkpt lat="43.742051" lon="-7.907013">
        <ele>380.965</ele>
        <time>2016-09-26T08:04:53Z</time>
      </trkpt>
      <trkpt lat="43.742043" lon="-7.907044">
        <ele>381.111</ele>
        <time>2016-09-26T08:04:54Z</time>
      </trkpt>
      <trkpt lat="43.742037" lon="-7.907074">
        <ele>381.208</ele>
        <time>2016-09-26T08:04:55Z</time>
      </trkpt>
      <trkpt lat="43.742032" lon="-7.907104">
        <ele>381.232</ele>
        <time>2016-09-26T08:04:56Z</time>
      </trkpt>
      <trkpt lat="43.742026" lon="-7.907134">
        <ele>381.247</ele>
        <time>2016-09-26T08:04:57Z</time>
      </trkpt>
      <trkpt lat="43.742020" lon="-7.907165">
        <ele>381.275</ele>
        <time>2016-09-26T08:04:58Z</time>
      </trkpt>
      <trkpt lat="43.742011" lon="-7.907194">
        <ele>381.591</ele>
        <time>2016-09-26T08:04:59Z</time>
      </trkpt>
      <trkpt lat="43.742001" lon="-7.907225">
        <ele>381.515</ele>
        <time>2016-09-26T08:05:00Z</time>
      </trkpt>
      <trkpt lat="43.741992" lon="-7.907255">
        <ele>381.537</ele>
        <time>2016-09-26T08:05:01Z</time>
      </trkpt>
      <trkpt lat="43.741986" lon="-7.907285">
        <ele>381.650</ele>
        <time>2016-09-26T08:05:02Z</time>
      </trkpt>
      <trkpt lat="43.741976" lon="-7.907314">
        <ele>381.618</ele>
        <time>2016-09-26T08:05:03Z</time>
      </trkpt>
      <trkpt lat="43.741965" lon="-7.907343">
        <ele>381.887</ele>
        <time>2016-09-26T08:05:04Z</time>
      </trkpt>
      <trkpt lat="43.741959" lon="-7.907372">
        <ele>381.842</ele>
        <time>2016-09-26T08:05:05Z</time>
      </trkpt>
      <trkpt lat="43.741953" lon="-7.907403">
        <ele>382.226</ele>
        <time>2016-09-26T08:05:06Z</time>
      </trkpt>
      <trkpt lat="43.741945" lon="-7.907433">
        <ele>382.308</ele>
        <time>2016-09-26T08:05:07Z</time>
      </trkpt>
      <trkpt lat="43.741935" lon="-7.907463">
        <ele>382.419</ele>
        <time>2016-09-26T08:05:08Z</time>
      </trkpt>
      <trkpt lat="43.741928" lon="-7.907491">
        <ele>382.614</ele>
        <time>2016-09-26T08:05:09Z</time>
      </trkpt>
      <trkpt lat="43.741921" lon="-7.907519">
        <ele>382.642</ele>
        <time>2016-09-26T08:05:10Z</time>
      </trkpt>
      <trkpt lat="43.741912" lon="-7.907548">
        <ele>382.798</ele>
        <time>2016-09-26T08:05:11Z</time>
      </trkpt>
      <trkpt lat="43.741902" lon="-7.907578">
        <ele>382.922</ele>
        <time>2016-09-26T08:05:12Z</time>
      </trkpt>
      <trkpt lat="43.741893" lon="-7.907609">
        <ele>383.134</ele>
        <time>2016-09-26T08:05:13Z</time>
      </trkpt>
      <trkpt lat="43.741885" lon="-7.907641">
        <ele>383.237</ele>
        <time>2016-09-26T08:05:14Z</time>
      </trkpt>
      <trkpt lat="43.741875" lon="-7.907671">
        <ele>383.415</ele>
        <time>2016-09-26T08:05:15Z</time>
      </trkpt>
      <trkpt lat="43.741866" lon="-7.907702">
        <ele>383.313</ele>
        <time>2016-09-26T08:05:16Z</time>
      </trkpt>
      <trkpt lat="43.741860" lon="-7.907734">
        <ele>383.343</ele>
        <time>2016-09-26T08:05:17Z</time>
      </trkpt>
      <trkpt lat="43.741857" lon="-7.907765">
        <ele>383.607</ele>
        <time>2016-09-26T08:05:18Z</time>
      </trkpt>
      <trkpt lat="43.741849" lon="-7.907794">
        <ele>383.608</ele>
        <time>2016-09-26T08:05:19Z</time>
      </trkpt>
      <trkpt lat="43.741835" lon="-7.907825">
        <ele>383.642</ele>
        <time>2016-09-26T08:05:20Z</time>
      </trkpt>
      <trkpt lat="43.741823" lon="-7.907855">
        <ele>383.747</ele>
        <time>2016-09-26T08:05:21Z</time>
      </trkpt>
      <trkpt lat="43.741810" lon="-7.907885">
        <ele>383.935</ele>
        <time>2016-09-26T08:05:22Z</time>
      </trkpt>
      <trkpt lat="43.741797" lon="-7.907916">
        <ele>383.911</ele>
        <time>2016-09-26T08:05:23Z</time>
      </trkpt>
      <trkpt lat="43.741785" lon="-7.907946">
        <ele>384.055</ele>
        <time>2016-09-26T08:05:24Z</time>
      </trkpt>
      <trkpt lat="43.741774" lon="-7.907978">
        <ele>384.137</ele>
        <time>2016-09-26T08:05:25Z</time>
      </trkpt>
      <trkpt lat="43.741762" lon="-7.908010">
        <ele>384.480</ele>
        <time>2016-09-26T08:05:26Z</time>
      </trkpt>
      <trkpt lat="43.741751" lon="-7.908042">
        <ele>384.638</ele>
        <time>2016-09-26T08:05:27Z</time>
      </trkpt>
      <trkpt lat="43.741739" lon="-7.908076">
        <ele>384.864</ele>
        <time>2016-09-26T08:05:28Z</time>
      </trkpt>
      <trkpt lat="43.741724" lon="-7.908110">
        <ele>385.006</ele>
        <time>2016-09-26T08:05:29Z</time>
      </trkpt>
      <trkpt lat="43.741710" lon="-7.908143">
        <ele>385.116</ele>
        <time>2016-09-26T08:05:30Z</time>
      </trkpt>
      <trkpt lat="43.741696" lon="-7.908172">
        <ele>385.308</ele>
        <time>2016-09-26T08:05:31Z</time>
      </trkpt>
      <trkpt lat="43.741684" lon="-7.908203">
        <ele>385.447</ele>
        <time>2016-09-26T08:05:32Z</time>
      </trkpt>
      <trkpt lat="43.741672" lon="-7.908238">
        <ele>385.642</ele>
        <time>2016-09-26T08:05:33Z</time>
      </trkpt>
      <trkpt lat="43.741660" lon="-7.908275">
        <ele>385.950</ele>
        <time>2016-09-26T08:05:34Z</time>
      </trkpt>
      <trkpt lat="43.741646" lon="-7.908310">
        <ele>386.136</ele>
        <time>2016-09-26T08:05:35Z</time>
      </trkpt>
      <trkpt lat="43.741632" lon="-7.908345">
        <ele>386.280</ele>
        <time>2016-09-26T08:05:36Z</time>
      </trkpt>
      <trkpt lat="43.741618" lon="-7.908378">
        <ele>386.542</ele>
        <time>2016-09-26T08:05:37Z</time>
      </trkpt>
      <trkpt lat="43.741604" lon="-7.908413">
        <ele>386.735</ele>
        <time>2016-09-26T08:05:38Z</time>
      </trkpt>
      <trkpt lat="43.741589" lon="-7.908448">
        <ele>386.853</ele>
        <time>2016-09-26T08:05:39Z</time>
      </trkpt>
      <trkpt lat="43.741577" lon="-7.908481">
        <ele>387.035</ele>
        <time>2016-09-26T08:05:40Z</time>
      </trkpt>
      <trkpt lat="43.741563" lon="-7.908513">
        <ele>387.186</ele>
        <time>2016-09-26T08:05:41Z</time>
      </trkpt>
      <trkpt lat="43.741548" lon="-7.908549">
        <ele>387.314</ele>
        <time>2016-09-26T08:05:42Z</time>
      </trkpt>
      <trkpt lat="43.741535" lon="-7.908585">
        <ele>387.308</ele>
        <time>2016-09-26T08:05:43Z</time>
      </trkpt>
      <trkpt lat="43.741521" lon="-7.908620">
        <ele>387.534</ele>
        <time>2016-09-26T08:05:44Z</time>
      </trkpt>
      <trkpt lat="43.741509" lon="-7.908655">
        <ele>387.849</ele>
        <time>2016-09-26T08:05:45Z</time>
      </trkpt>
      <trkpt lat="43.741496" lon="-7.908688">
        <ele>388.097</ele>
        <time>2016-09-26T08:05:46Z</time>
      </trkpt>
      <trkpt lat="43.741483" lon="-7.908719">
        <ele>388.293</ele>
        <time>2016-09-26T08:05:47Z</time>
      </trkpt>
      <trkpt lat="43.741469" lon="-7.908751">
        <ele>388.277</ele>
        <time>2016-09-26T08:05:48Z</time>
      </trkpt>
      <trkpt lat="43.741456" lon="-7.908782">
        <ele>388.369</ele>
        <time>2016-09-26T08:05:49Z</time>
      </trkpt>
      <trkpt lat="43.741445" lon="-7.908816">
        <ele>388.482</ele>
        <time>2016-09-26T08:05:50Z</time>
      </trkpt>
      <trkpt lat="43.741433" lon="-7.908851">
        <ele>388.410</ele>
        <time>2016-09-26T08:05:51Z</time>
      </trkpt>
      <trkpt lat="43.741422" lon="-7.908884">
        <ele>388.572</ele>
        <time>2016-09-26T08:05:52Z</time>
      </trkpt>
      <trkpt lat="43.741409" lon="-7.908916">
        <ele>388.613</ele>
        <time>2016-09-26T08:05:53Z</time>
      </trkpt>
      <trkpt lat="43.741395" lon="-7.908950">
        <ele>388.814</ele>
        <time>2016-09-26T08:05:54Z</time>
      </trkpt>
      <trkpt lat="43.741381" lon="-7.908984">
        <ele>388.708</ele>
        <time>2016-09-26T08:05:55Z</time>
      </trkpt>
      <trkpt lat="43.741365" lon="-7.909019">
        <ele>388.738</ele>
        <time>2016-09-26T08:05:56Z</time>
      </trkpt>
      <trkpt lat="43.741350" lon="-7.909056">
        <ele>388.813</ele>
        <time>2016-09-26T08:05:57Z</time>
      </trkpt>
      <trkpt lat="43.741336" lon="-7.909093">
        <ele>388.751</ele>
        <time>2016-09-26T08:05:58Z</time>
      </trkpt>
      <trkpt lat="43.741322" lon="-7.909130">
        <ele>389.037</ele>
        <time>2016-09-26T08:05:59Z</time>
      </trkpt>
      <trkpt lat="43.741306" lon="-7.909165">
        <ele>389.391</ele>
        <time>2016-09-26T08:06:00Z</time>
      </trkpt>
      <trkpt lat="43.741292" lon="-7.909199">
        <ele>389.553</ele>
        <time>2016-09-26T08:06:01Z</time>
      </trkpt>
      <trkpt lat="43.741280" lon="-7.909234">
        <ele>389.476</ele>
        <time>2016-09-26T08:06:02Z</time>
      </trkpt>
      <trkpt lat="43.741265" lon="-7.909269">
        <ele>389.574</ele>
        <time>2016-09-26T08:06:03Z</time>
      </trkpt>
      <trkpt lat="43.741249" lon="-7.909306">
        <ele>389.664</ele>
        <time>2016-09-26T08:06:04Z</time>
      </trkpt>
      <trkpt lat="43.741233" lon="-7.909344">
        <ele>389.906</ele>
        <time>2016-09-26T08:06:05Z</time>
      </trkpt>
      <trkpt lat="43.741216" lon="-7.909383">
        <ele>389.916</ele>
        <time>2016-09-26T08:06:06Z</time>
      </trkpt>
      <trkpt lat="43.741198" lon="-7.909425">
        <ele>389.808</ele>
        <time>2016-09-26T08:06:07Z</time>
      </trkpt>
      <trkpt lat="43.741181" lon="-7.909467">
        <ele>389.847</ele>
        <time>2016-09-26T08:06:08Z</time>
      </trkpt>
      <trkpt lat="43.741166" lon="-7.909505">
        <ele>389.962</ele>
        <time>2016-09-26T08:06:09Z</time>
      </trkpt>
      <trkpt lat="43.741152" lon="-7.909542">
        <ele>390.150</ele>
        <time>2016-09-26T08:06:10Z</time>
      </trkpt>
      <trkpt lat="43.741138" lon="-7.909579">
        <ele>390.176</ele>
        <time>2016-09-26T08:06:11Z</time>
      </trkpt>
      <trkpt lat="43.741123" lon="-7.909615">
        <ele>390.340</ele>
        <time>2016-09-26T08:06:12Z</time>
      </trkpt>
      <trkpt lat="43.741109" lon="-7.909650">
        <ele>390.352</ele>
        <time>2016-09-26T08:06:13Z</time>
      </trkpt>
      <trkpt lat="43.741094" lon="-7.909689">
        <ele>390.215</ele>
        <time>2016-09-26T08:06:14Z</time>
      </trkpt>
      <trkpt lat="43.741079" lon="-7.909726">
        <ele>390.183</ele>
        <time>2016-09-26T08:06:15Z</time>
      </trkpt>
      <trkpt lat="43.741065" lon="-7.909761">
        <ele>390.259</ele>
        <time>2016-09-26T08:06:16Z</time>
      </trkpt>
      <trkpt lat="43.741051" lon="-7.909797">
        <ele>390.203</ele>
        <time>2016-09-26T08:06:17Z</time>
      </trkpt>
      <trkpt lat="43.741035" lon="-7.909832">
        <ele>390.223</ele>
        <time>2016-09-26T08:06:18Z</time>
      </trkpt>
      <trkpt lat="43.741022" lon="-7.909866">
        <ele>390.408</ele>
        <time>2016-09-26T08:06:19Z</time>
      </trkpt>
      <trkpt lat="43.741009" lon="-7.909902">
        <ele>390.556</ele>
        <time>2016-09-26T08:06:20Z</time>
      </trkpt>
      <trkpt lat="43.740995" lon="-7.909937">
        <ele>390.521</ele>
        <time>2016-09-26T08:06:21Z</time>
      </trkpt>
      <trkpt lat="43.740979" lon="-7.909971">
        <ele>390.679</ele>
        <time>2016-09-26T08:06:22Z</time>
      </trkpt>
      <trkpt lat="43.740966" lon="-7.910003">
        <ele>390.885</ele>
        <time>2016-09-26T08:06:23Z</time>
      </trkpt>
      <trkpt lat="43.740954" lon="-7.910038">
        <ele>390.959</ele>
        <time>2016-09-26T08:06:24Z</time>
      </trkpt>
      <trkpt lat="43.740941" lon="-7.910075">
        <ele>390.961</ele>
        <time>2016-09-26T08:06:25Z</time>
      </trkpt>
      <trkpt lat="43.740926" lon="-7.910112">
        <ele>390.914</ele>
        <time>2016-09-26T08:06:26Z</time>
      </trkpt>
      <trkpt lat="43.740910" lon="-7.910148">
        <ele>390.962</ele>
        <time>2016-09-26T08:06:27Z</time>
      </trkpt>
      <trkpt lat="43.740896" lon="-7.910181">
        <ele>390.822</ele>
        <time>2016-09-26T08:06:28Z</time>
      </trkpt>
      <trkpt lat="43.740881" lon="-7.910215">
        <ele>391.062</ele>
        <time>2016-09-26T08:06:29Z</time>
      </trkpt>
      <trkpt lat="43.740866" lon="-7.910249">
        <ele>391.008</ele>
        <time>2016-09-26T08:06:30Z</time>
      </trkpt>
      <trkpt lat="43.740852" lon="-7.910283">
        <ele>391.108</ele>
        <time>2016-09-26T08:06:31Z</time>
      </trkpt>
      <trkpt lat="43.740839" lon="-7.910317">
        <ele>391.243</ele>
        <time>2016-09-26T08:06:32Z</time>
      </trkpt>
      <trkpt lat="43.740825" lon="-7.910352">
        <ele>391.458</ele>
        <time>2016-09-26T08:06:33Z</time>
      </trkpt>
      <trkpt lat="43.740809" lon="-7.910389">
        <ele>391.496</ele>
        <time>2016-09-26T08:06:34Z</time>
      </trkpt>
      <trkpt lat="43.740790" lon="-7.910432">
        <ele>391.612</ele>
        <time>2016-09-26T08:06:35Z</time>
      </trkpt>
      <trkpt lat="43.740773" lon="-7.910474">
        <ele>391.646</ele>
        <time>2016-09-26T08:06:36Z</time>
      </trkpt>
      <trkpt lat="43.740755" lon="-7.910516">
        <ele>391.768</ele>
        <time>2016-09-26T08:06:37Z</time>
      </trkpt>
      <trkpt lat="43.740737" lon="-7.910557">
        <ele>391.581</ele>
        <time>2016-09-26T08:06:38Z</time>
      </trkpt>
      <trkpt lat="43.740719" lon="-7.910597">
        <ele>391.489</ele>
        <time>2016-09-26T08:06:39Z</time>
      </trkpt>
      <trkpt lat="43.740700" lon="-7.910640">
        <ele>391.599</ele>
        <time>2016-09-26T08:06:40Z</time>
      </trkpt>
      <trkpt lat="43.740682" lon="-7.910685">
        <ele>391.607</ele>
        <time>2016-09-26T08:06:41Z</time>
      </trkpt>
      <trkpt lat="43.740663" lon="-7.910731">
        <ele>391.627</ele>
        <time>2016-09-26T08:06:42Z</time>
      </trkpt>
      <trkpt lat="43.740642" lon="-7.910777">
        <ele>391.608</ele>
        <time>2016-09-26T08:06:43Z</time>
      </trkpt>
      <trkpt lat="43.740622" lon="-7.910825">
        <ele>391.720</ele>
        <time>2016-09-26T08:06:44Z</time>
      </trkpt>
      <trkpt lat="43.740601" lon="-7.910875">
        <ele>391.775</ele>
        <time>2016-09-26T08:06:45Z</time>
      </trkpt>
      <trkpt lat="43.740580" lon="-7.910924">
        <ele>391.733</ele>
        <time>2016-09-26T08:06:46Z</time>
      </trkpt>
      <trkpt lat="43.740556" lon="-7.910975">
        <ele>391.679</ele>
        <time>2016-09-26T08:06:47Z</time>
      </trkpt>
      <trkpt lat="43.740532" lon="-7.911028">
        <ele>391.583</ele>
        <time>2016-09-26T08:06:48Z</time>
      </trkpt>
      <trkpt lat="43.740507" lon="-7.911084">
        <ele>391.385</ele>
        <time>2016-09-26T08:06:49Z</time>
      </trkpt>
      <trkpt lat="43.740482" lon="-7.911142">
        <ele>390.918</ele>
        <time>2016-09-26T08:06:50Z</time>
      </trkpt>
      <trkpt lat="43.740454" lon="-7.911203">
        <ele>390.836</ele>
        <time>2016-09-26T08:06:51Z</time>
      </trkpt>
      <trkpt lat="43.740425" lon="-7.911266">
        <ele>390.692</ele>
        <time>2016-09-26T08:06:52Z</time>
      </trkpt>
      <trkpt lat="43.740393" lon="-7.911330">
        <ele>390.473</ele>
        <time>2016-09-26T08:06:53Z</time>
      </trkpt>
      <trkpt lat="43.740359" lon="-7.911397">
        <ele>390.320</ele>
        <time>2016-09-26T08:06:54Z</time>
      </trkpt>
      <trkpt lat="43.740323" lon="-7.911468">
        <ele>390.008</ele>
        <time>2016-09-26T08:06:55Z</time>
      </trkpt>
      <trkpt lat="43.740286" lon="-7.911544">
        <ele>389.550</ele>
        <time>2016-09-26T08:06:56Z</time>
      </trkpt>
      <trkpt lat="43.740247" lon="-7.911621">
        <ele>389.175</ele>
        <time>2016-09-26T08:06:57Z</time>
      </trkpt>
      <trkpt lat="43.740209" lon="-7.911703">
        <ele>389.053</ele>
        <time>2016-09-26T08:06:58Z</time>
      </trkpt>
      <trkpt lat="43.740169" lon="-7.911788">
        <ele>389.079</ele>
        <time>2016-09-26T08:06:59Z</time>
      </trkpt>
      <trkpt lat="43.740127" lon="-7.911874">
        <ele>388.753</ele>
        <time>2016-09-26T08:07:00Z</time>
      </trkpt>
      <trkpt lat="43.740084" lon="-7.911965">
        <ele>388.445</ele>
        <time>2016-09-26T08:07:01Z</time>
      </trkpt>
      <trkpt lat="43.740041" lon="-7.912057">
        <ele>387.948</ele>
        <time>2016-09-26T08:07:02Z</time>
      </trkpt>
      <trkpt lat="43.739995" lon="-7.912150">
        <ele>387.716</ele>
        <time>2016-09-26T08:07:03Z</time>
      </trkpt>
      <trkpt lat="43.739947" lon="-7.912242">
        <ele>387.531</ele>
        <time>2016-09-26T08:07:04Z</time>
      </trkpt>
      <trkpt lat="43.739899" lon="-7.912334">
        <ele>387.361</ele>
        <time>2016-09-26T08:07:05Z</time>
      </trkpt>
      <trkpt lat="43.739852" lon="-7.912423">
        <ele>386.507</ele>
        <time>2016-09-26T08:07:06Z</time>
      </trkpt>
      <trkpt lat="43.739807" lon="-7.912510">
        <ele>386.108</ele>
        <time>2016-09-26T08:07:07Z</time>
      </trkpt>
      <trkpt lat="43.739763" lon="-7.912598">
        <ele>385.744</ele>
        <time>2016-09-26T08:07:08Z</time>
      </trkpt>
      <trkpt lat="43.739718" lon="-7.912686">
        <ele>385.299</ele>
        <time>2016-09-26T08:07:09Z</time>
      </trkpt>
      <trkpt lat="43.739673" lon="-7.912774">
        <ele>384.867</ele>
        <time>2016-09-26T08:07:10Z</time>
      </trkpt>
      <trkpt lat="43.739625" lon="-7.912859">
        <ele>384.523</ele>
        <time>2016-09-26T08:07:11Z</time>
      </trkpt>
      <trkpt lat="43.739577" lon="-7.912942">
        <ele>384.087</ele>
        <time>2016-09-26T08:07:12Z</time>
      </trkpt>
      <trkpt lat="43.739527" lon="-7.913028">
        <ele>383.829</ele>
        <time>2016-09-26T08:07:13Z</time>
      </trkpt>
      <trkpt lat="43.739479" lon="-7.913119">
        <ele>383.442</ele>
        <time>2016-09-26T08:07:14Z</time>
      </trkpt>
      <trkpt lat="43.739439" lon="-7.913205">
        <ele>383.230</ele>
        <time>2016-09-26T08:07:15Z</time>
      </trkpt>
      <trkpt lat="43.739397" lon="-7.913276">
        <ele>382.748</ele>
        <time>2016-09-26T08:07:16Z</time>
      </trkpt>
      <trkpt lat="43.739353" lon="-7.913341">
        <ele>382.461</ele>
        <time>2016-09-26T08:07:17Z</time>
      </trkpt>
      <trkpt lat="43.739319" lon="-7.913411">
        <ele>382.517</ele>
        <time>2016-09-26T08:07:18Z</time>
      </trkpt>
      <trkpt lat="43.739283" lon="-7.913473">
        <ele>382.508</ele>
        <time>2016-09-26T08:07:19Z</time>
      </trkpt>
      <trkpt lat="43.739247" lon="-7.913524">
        <ele>382.475</ele>
        <time>2016-09-26T08:07:20Z</time>
      </trkpt>
      <trkpt lat="43.739209" lon="-7.913571">
        <ele>382.540</ele>
        <time>2016-09-26T08:07:21Z</time>
      </trkpt>
      <trkpt lat="43.739165" lon="-7.913606">
        <ele>382.268</ele>
        <time>2016-09-26T08:07:22Z</time>
      </trkpt>
      <trkpt lat="43.739118" lon="-7.913647">
        <ele>382.224</ele>
        <time>2016-09-26T08:07:23Z</time>
      </trkpt>
      <trkpt lat="43.739066" lon="-7.913691">
        <ele>382.088</ele>
        <time>2016-09-26T08:07:24Z</time>
      </trkpt>
      <trkpt lat="43.739017" lon="-7.913737">
        <ele>381.830</ele>
        <time>2016-09-26T08:07:25Z</time>
      </trkpt>
      <trkpt lat="43.738967" lon="-7.913787">
        <ele>381.723</ele>
        <time>2016-09-26T08:07:26Z</time>
      </trkpt>
      <trkpt lat="43.738916" lon="-7.913836">
        <ele>381.611</ele>
        <time>2016-09-26T08:07:27Z</time>
      </trkpt>
      <trkpt lat="43.738863" lon="-7.913886">
        <ele>381.585</ele>
        <time>2016-09-26T08:07:28Z</time>
      </trkpt>
      <trkpt lat="43.738809" lon="-7.913933">
        <ele>381.189</ele>
        <time>2016-09-26T08:07:29Z</time>
      </trkpt>
      <trkpt lat="43.738757" lon="-7.913982">
        <ele>380.817</ele>
        <time>2016-09-26T08:07:30Z</time>
      </trkpt>
      <trkpt lat="43.738705" lon="-7.914035">
        <ele>380.408</ele>
        <time>2016-09-26T08:07:31Z</time>
      </trkpt>
      <trkpt lat="43.738650" lon="-7.914090">
        <ele>380.159</ele>
        <time>2016-09-26T08:07:32Z</time>
      </trkpt>
      <trkpt lat="43.738601" lon="-7.914152">
        <ele>380.154</ele>
        <time>2016-09-26T08:07:33Z</time>
      </trkpt>
      <trkpt lat="43.738556" lon="-7.914226">
        <ele>380.042</ele>
        <time>2016-09-26T08:07:34Z</time>
      </trkpt>
      <trkpt lat="43.738510" lon="-7.914306">
        <ele>379.748</ele>
        <time>2016-09-26T08:07:35Z</time>
      </trkpt>
      <trkpt lat="43.738470" lon="-7.914395">
        <ele>379.472</ele>
        <time>2016-09-26T08:07:36Z</time>
      </trkpt>
      <trkpt lat="43.738439" lon="-7.914497">
        <ele>378.864</ele>
        <time>2016-09-26T08:07:37Z</time>
      </trkpt>
      <trkpt lat="43.738417" lon="-7.914610">
        <ele>378.767</ele>
        <time>2016-09-26T08:07:38Z</time>
      </trkpt>
      <trkpt lat="43.738399" lon="-7.914726">
        <ele>378.045</ele>
        <time>2016-09-26T08:07:39Z</time>
      </trkpt>
      <trkpt lat="43.738382" lon="-7.914837">
        <ele>377.698</ele>
        <time>2016-09-26T08:07:40Z</time>
      </trkpt>
      <trkpt lat="43.738368" lon="-7.914949">
        <ele>377.215</ele>
        <time>2016-09-26T08:07:41Z</time>
      </trkpt>
      <trkpt lat="43.738353" lon="-7.915059">
        <ele>376.926</ele>
        <time>2016-09-26T08:07:42Z</time>
      </trkpt>
      <trkpt lat="43.738343" lon="-7.915169">
        <ele>376.408</ele>
        <time>2016-09-26T08:07:43Z</time>
      </trkpt>
      <trkpt lat="43.738334" lon="-7.915280">
        <ele>376.070</ele>
        <time>2016-09-26T08:07:44Z</time>
      </trkpt>
      <trkpt lat="43.738327" lon="-7.915395">
        <ele>375.515</ele>
        <time>2016-09-26T08:07:45Z</time>
      </trkpt>
      <trkpt lat="43.738327" lon="-7.915513">
        <ele>375.223</ele>
        <time>2016-09-26T08:07:46Z</time>
      </trkpt>
      <trkpt lat="43.738334" lon="-7.915632">
        <ele>374.759</ele>
        <time>2016-09-26T08:07:47Z</time>
      </trkpt>
      <trkpt lat="43.738351" lon="-7.915752">
        <ele>374.123</ele>
        <time>2016-09-26T08:07:48Z</time>
      </trkpt>
      <trkpt lat="43.738375" lon="-7.915868">
        <ele>373.865</ele>
        <time>2016-09-26T08:07:49Z</time>
      </trkpt>
      <trkpt lat="43.738404" lon="-7.915980">
        <ele>373.288</ele>
        <time>2016-09-26T08:07:50Z</time>
      </trkpt>
      <trkpt lat="43.738435" lon="-7.916091">
        <ele>372.736</ele>
        <time>2016-09-26T08:07:51Z</time>
      </trkpt>
      <trkpt lat="43.738468" lon="-7.916202">
        <ele>372.311</ele>
        <time>2016-09-26T08:07:52Z</time>
      </trkpt>
      <trkpt lat="43.738504" lon="-7.916316">
        <ele>371.621</ele>
        <time>2016-09-26T08:07:53Z</time>
      </trkpt>
      <trkpt lat="43.738537" lon="-7.916428">
        <ele>371.303</ele>
        <time>2016-09-26T08:07:54Z</time>
      </trkpt>
      <trkpt lat="43.738565" lon="-7.916541">
        <ele>370.808</ele>
        <time>2016-09-26T08:07:55Z</time>
      </trkpt>
      <trkpt lat="43.738584" lon="-7.916655">
        <ele>370.212</ele>
        <time>2016-09-26T08:07:56Z</time>
      </trkpt>
      <trkpt lat="43.738589" lon="-7.916769">
        <ele>369.767</ele>
        <time>2016-09-26T08:07:57Z</time>
      </trkpt>
      <trkpt lat="43.738578" lon="-7.916879">
        <ele>369.395</ele>
        <time>2016-09-26T08:07:58Z</time>
      </trkpt>
      <trkpt lat="43.738545" lon="-7.916977">
        <ele>368.871</ele>
        <time>2016-09-26T08:07:59Z</time>
      </trkpt>
      <trkpt lat="43.738495" lon="-7.917064">
        <ele>368.235</ele>
        <time>2016-09-26T08:08:00Z</time>
      </trkpt>
      <trkpt lat="43.738434" lon="-7.917132">
        <ele>368.037</ele>
        <time>2016-09-26T08:08:01Z</time>
      </trkpt>
      <trkpt lat="43.738365" lon="-7.917181">
        <ele>367.710</ele>
        <time>2016-09-26T08:08:02Z</time>
      </trkpt>
      <trkpt lat="43.738293" lon="-7.917213">
        <ele>367.538</ele>
        <time>2016-09-26T08:08:03Z</time>
      </trkpt>
      <trkpt lat="43.738220" lon="-7.917236">
        <ele>367.348</ele>
        <time>2016-09-26T08:08:04Z</time>
      </trkpt>
      <trkpt lat="43.738149" lon="-7.917255">
        <ele>367.061</ele>
        <time>2016-09-26T08:08:05Z</time>
      </trkpt>
      <trkpt lat="43.738078" lon="-7.917271">
        <ele>367.017</ele>
        <time>2016-09-26T08:08:06Z</time>
      </trkpt>
      <trkpt lat="43.738008" lon="-7.917288">
        <ele>366.808</ele>
        <time>2016-09-26T08:08:07Z</time>
      </trkpt>
      <trkpt lat="43.737938" lon="-7.917308">
        <ele>366.755</ele>
        <time>2016-09-26T08:08:08Z</time>
      </trkpt>
      <trkpt lat="43.737870" lon="-7.917328">
        <ele>366.520</ele>
        <time>2016-09-26T08:08:09Z</time>
      </trkpt>
      <trkpt lat="43.737803" lon="-7.917345">
        <ele>366.488</ele>
        <time>2016-09-26T08:08:10Z</time>
      </trkpt>
      <trkpt lat="43.737736" lon="-7.917359">
        <ele>366.324</ele>
        <time>2016-09-26T08:08:11Z</time>
      </trkpt>
      <trkpt lat="43.737671" lon="-7.917371">
        <ele>366.218</ele>
        <time>2016-09-26T08:08:12Z</time>
      </trkpt>
      <trkpt lat="43.737607" lon="-7.917384">
        <ele>366.210</ele>
        <time>2016-09-26T08:08:13Z</time>
      </trkpt>
      <trkpt lat="43.737546" lon="-7.917395">
        <ele>366.183</ele>
        <time>2016-09-26T08:08:14Z</time>
      </trkpt>
      <trkpt lat="43.737488" lon="-7.917403">
        <ele>366.181</ele>
        <time>2016-09-26T08:08:15Z</time>
      </trkpt>
      <trkpt lat="43.737430" lon="-7.917405">
        <ele>366.128</ele>
        <time>2016-09-26T08:08:16Z</time>
      </trkpt>
      <trkpt lat="43.737374" lon="-7.917405">
        <ele>366.189</ele>
        <time>2016-09-26T08:08:17Z</time>
      </trkpt>
      <trkpt lat="43.737319" lon="-7.917407">
        <ele>366.217</ele>
        <time>2016-09-26T08:08:18Z</time>
      </trkpt>
      <trkpt lat="43.737263" lon="-7.917402">
        <ele>366.208</ele>
        <time>2016-09-26T08:08:19Z</time>
      </trkpt>
      <trkpt lat="43.737206" lon="-7.917391">
        <ele>366.393</ele>
        <time>2016-09-26T08:08:20Z</time>
      </trkpt>
      <trkpt lat="43.737150" lon="-7.917372">
        <ele>366.498</ele>
        <time>2016-09-26T08:08:21Z</time>
      </trkpt>
      <trkpt lat="43.737096" lon="-7.917346">
        <ele>366.636</ele>
        <time>2016-09-26T08:08:22Z</time>
      </trkpt>
      <trkpt lat="43.737045" lon="-7.917313">
        <ele>366.712</ele>
        <time>2016-09-26T08:08:23Z</time>
      </trkpt>
      <trkpt lat="43.736997" lon="-7.917276">
        <ele>366.856</ele>
        <time>2016-09-26T08:08:24Z</time>
      </trkpt>
      <trkpt lat="43.736952" lon="-7.917235">
        <ele>366.968</ele>
        <time>2016-09-26T08:08:25Z</time>
      </trkpt>
      <trkpt lat="43.736909" lon="-7.917196">
        <ele>367.051</ele>
        <time>2016-09-26T08:08:26Z</time>
      </trkpt>
      <trkpt lat="43.736869" lon="-7.917155">
        <ele>367.399</ele>
        <time>2016-09-26T08:08:27Z</time>
      </trkpt>
      <trkpt lat="43.736829" lon="-7.917116">
        <ele>367.658</ele>
        <time>2016-09-26T08:08:28Z</time>
      </trkpt>
      <trkpt lat="43.736791" lon="-7.917081">
        <ele>367.452</ele>
        <time>2016-09-26T08:08:29Z</time>
      </trkpt>
      <trkpt lat="43.736752" lon="-7.917048">
        <ele>367.517</ele>
        <time>2016-09-26T08:08:30Z</time>
      </trkpt>
      <trkpt lat="43.736713" lon="-7.917017">
        <ele>367.708</ele>
        <time>2016-09-26T08:08:31Z</time>
      </trkpt>
      <trkpt lat="43.736673" lon="-7.916986">
        <ele>367.726</ele>
        <time>2016-09-26T08:08:32Z</time>
      </trkpt>
      <trkpt lat="43.736633" lon="-7.916957">
        <ele>367.911</ele>
        <time>2016-09-26T08:08:33Z</time>
      </trkpt>
      <trkpt lat="43.736593" lon="-7.916935">
        <ele>368.249</ele>
        <time>2016-09-26T08:08:34Z</time>
      </trkpt>
      <trkpt lat="43.736550" lon="-7.916920">
        <ele>368.395</ele>
        <time>2016-09-26T08:08:35Z</time>
      </trkpt>
      <trkpt lat="43.736506" lon="-7.916917">
        <ele>368.629</ele>
        <time>2016-09-26T08:08:36Z</time>
      </trkpt>
      <trkpt lat="43.736462" lon="-7.916931">
        <ele>368.831</ele>
        <time>2016-09-26T08:08:37Z</time>
      </trkpt>
      <trkpt lat="43.736418" lon="-7.916955">
        <ele>368.844</ele>
        <time>2016-09-26T08:08:38Z</time>
      </trkpt>
      <trkpt lat="43.736374" lon="-7.916989">
        <ele>369.072</ele>
        <time>2016-09-26T08:08:39Z</time>
      </trkpt>
      <trkpt lat="43.736332" lon="-7.917029">
        <ele>369.097</ele>
        <time>2016-09-26T08:08:40Z</time>
      </trkpt>
      <trkpt lat="43.736292" lon="-7.917075">
        <ele>368.723</ele>
        <time>2016-09-26T08:08:41Z</time>
      </trkpt>
      <trkpt lat="43.736250" lon="-7.917123">
        <ele>368.825</ele>
        <time>2016-09-26T08:08:42Z</time>
      </trkpt>
      <trkpt lat="43.736208" lon="-7.917175">
        <ele>368.808</ele>
        <time>2016-09-26T08:08:43Z</time>
      </trkpt>
      <trkpt lat="43.736164" lon="-7.917229">
        <ele>368.770</ele>
        <time>2016-09-26T08:08:44Z</time>
      </trkpt>
      <trkpt lat="43.736118" lon="-7.917281">
        <ele>368.725</ele>
        <time>2016-09-26T08:08:45Z</time>
      </trkpt>
      <trkpt lat="43.736070" lon="-7.917333">
        <ele>368.523</ele>
        <time>2016-09-26T08:08:46Z</time>
      </trkpt>
      <trkpt lat="43.736016" lon="-7.917380">
        <ele>368.259</ele>
        <time>2016-09-26T08:08:47Z</time>
      </trkpt>
      <trkpt lat="43.735958" lon="-7.917421">
        <ele>367.833</ele>
        <time>2016-09-26T08:08:48Z</time>
      </trkpt>
      <trkpt lat="43.735897" lon="-7.917455">
        <ele>367.555</ele>
        <time>2016-09-26T08:08:49Z</time>
      </trkpt>
      <trkpt lat="43.735828" lon="-7.917478">
        <ele>367.238</ele>
        <time>2016-09-26T08:08:50Z</time>
      </trkpt>
      <trkpt lat="43.735753" lon="-7.917492">
        <ele>366.976</ele>
        <time>2016-09-26T08:08:51Z</time>
      </trkpt>
      <trkpt lat="43.735674" lon="-7.917499">
        <ele>366.787</ele>
        <time>2016-09-26T08:08:52Z</time>
      </trkpt>
      <trkpt lat="43.735593" lon="-7.917504">
        <ele>366.342</ele>
        <time>2016-09-26T08:08:53Z</time>
      </trkpt>
      <trkpt lat="43.735513" lon="-7.917506">
        <ele>365.926</ele>
        <time>2016-09-26T08:08:54Z</time>
      </trkpt>
      <trkpt lat="43.735436" lon="-7.917505">
        <ele>365.608</ele>
        <time>2016-09-26T08:08:55Z</time>
      </trkpt>
      <trkpt lat="43.735361" lon="-7.917505">
        <ele>365.199</ele>
        <time>2016-09-26T08:08:56Z</time>
      </trkpt>
      <trkpt lat="43.735288" lon="-7.917512">
        <ele>364.864</ele>
        <time>2016-09-26T08:08:57Z</time>
      </trkpt>
      <trkpt lat="43.735219" lon="-7.917526">
        <ele>364.512</ele>
        <time>2016-09-26T08:08:58Z</time>
      </trkpt>
      <trkpt lat="43.735151" lon="-7.917550">
        <ele>364.288</ele>
        <time>2016-09-26T08:08:59Z</time>
      </trkpt>
      <trkpt lat="43.735087" lon="-7.917584">
        <ele>363.912</ele>
        <time>2016-09-26T08:09:00Z</time>
      </trkpt>
      <trkpt lat="43.735025" lon="-7.917623">
        <ele>363.534</ele>
        <time>2016-09-26T08:09:01Z</time>
      </trkpt>
      <trkpt lat="43.734967" lon="-7.917669">
        <ele>363.157</ele>
        <time>2016-09-26T08:09:02Z</time>
      </trkpt>
      <trkpt lat="43.734912" lon="-7.917720">
        <ele>363.125</ele>
        <time>2016-09-26T08:09:03Z</time>
      </trkpt>
      <trkpt lat="43.734854" lon="-7.917769">
        <ele>363.069</ele>
        <time>2016-09-26T08:09:04Z</time>
      </trkpt>
      <trkpt lat="43.734794" lon="-7.917813">
        <ele>362.804</ele>
        <time>2016-09-26T08:09:05Z</time>
      </trkpt>
      <trkpt lat="43.734734" lon="-7.917861">
        <ele>362.524</ele>
        <time>2016-09-26T08:09:06Z</time>
      </trkpt>
      <trkpt lat="43.734676" lon="-7.917911">
        <ele>362.508</ele>
        <time>2016-09-26T08:09:07Z</time>
      </trkpt>
      <trkpt lat="43.734617" lon="-7.917962">
        <ele>362.417</ele>
        <time>2016-09-26T08:09:08Z</time>
      </trkpt>
      <trkpt lat="43.734558" lon="-7.918011">
        <ele>362.192</ele>
        <time>2016-09-26T08:09:09Z</time>
      </trkpt>
      <trkpt lat="43.734497" lon="-7.918062">
        <ele>361.930</ele>
        <time>2016-09-26T08:09:10Z</time>
      </trkpt>
      <trkpt lat="43.734435" lon="-7.918118">
        <ele>361.676</ele>
        <time>2016-09-26T08:09:11Z</time>
      </trkpt>
      <trkpt lat="43.734375" lon="-7.918174">
        <ele>361.620</ele>
        <time>2016-09-26T08:09:12Z</time>
      </trkpt>
      <trkpt lat="43.734315" lon="-7.918231">
        <ele>361.522</ele>
        <time>2016-09-26T08:09:13Z</time>
      </trkpt>
      <trkpt lat="43.734256" lon="-7.918288">
        <ele>361.225</ele>
        <time>2016-09-26T08:09:14Z</time>
      </trkpt>
      <trkpt lat="43.734196" lon="-7.918346">
        <ele>360.933</ele>
        <time>2016-09-26T08:09:15Z</time>
      </trkpt>
      <trkpt lat="43.734137" lon="-7.918406">
        <ele>360.646</ele>
        <time>2016-09-26T08:09:16Z</time>
      </trkpt>
      <trkpt lat="43.734082" lon="-7.918468">
        <ele>360.488</ele>
        <time>2016-09-26T08:09:17Z</time>
      </trkpt>
      <trkpt lat="43.734030" lon="-7.918532">
        <ele>360.116</ele>
        <time>2016-09-26T08:09:18Z</time>
      </trkpt>
      <trkpt lat="43.733988" lon="-7.918600">
        <ele>359.808</ele>
        <time>2016-09-26T08:09:19Z</time>
      </trkpt>
      <trkpt lat="43.733948" lon="-7.918663">
        <ele>359.575</ele>
        <time>2016-09-26T08:09:20Z</time>
      </trkpt>
      <trkpt lat="43.733901" lon="-7.918715">
        <ele>359.330</ele>
        <time>2016-09-26T08:09:21Z</time>
      </trkpt>
      <trkpt lat="43.733851" lon="-7.918759">
        <ele>359.168</ele>
        <time>2016-09-26T08:09:22Z</time>
      </trkpt>
      <trkpt lat="43.733799" lon="-7.918798">
        <ele>358.954</ele>
        <time>2016-09-26T08:09:23Z</time>
      </trkpt>
      <trkpt lat="43.733746" lon="-7.918822">
        <ele>358.768</ele>
        <time>2016-09-26T08:09:24Z</time>
      </trkpt>
      <trkpt lat="43.733692" lon="-7.918830">
        <ele>358.960</ele>
        <time>2016-09-26T08:09:25Z</time>
      </trkpt>
      <trkpt lat="43.733638" lon="-7.918832">
        <ele>358.763</ele>
        <time>2016-09-26T08:09:26Z</time>
      </trkpt>
      <trkpt lat="43.733584" lon="-7.918834">
        <ele>358.761</ele>
        <time>2016-09-26T08:09:27Z</time>
      </trkpt>
      <trkpt lat="43.733532" lon="-7.918833">
        <ele>358.777</ele>
        <time>2016-09-26T08:09:28Z</time>
      </trkpt>
      <trkpt lat="43.733479" lon="-7.918836">
        <ele>359.061</ele>
        <time>2016-09-26T08:09:29Z</time>
      </trkpt>
      <trkpt lat="43.733429" lon="-7.918845">
        <ele>359.027</ele>
        <time>2016-09-26T08:09:30Z</time>
      </trkpt>
      <trkpt lat="43.733382" lon="-7.918861">
        <ele>358.808</ele>
        <time>2016-09-26T08:09:31Z</time>
      </trkpt>
      <trkpt lat="43.733338" lon="-7.918886">
        <ele>358.858</ele>
        <time>2016-09-26T08:09:32Z</time>
      </trkpt>
      <trkpt lat="43.733298" lon="-7.918920">
        <ele>358.883</ele>
        <time>2016-09-26T08:09:33Z</time>
      </trkpt>
      <trkpt lat="43.733259" lon="-7.918958">
        <ele>359.061</ele>
        <time>2016-09-26T08:09:34Z</time>
      </trkpt>
      <trkpt lat="43.733221" lon="-7.918996">
        <ele>359.167</ele>
        <time>2016-09-26T08:09:35Z</time>
      </trkpt>
      <trkpt lat="43.733187" lon="-7.919039">
        <ele>359.341</ele>
        <time>2016-09-26T08:09:36Z</time>
      </trkpt>
      <trkpt lat="43.733156" lon="-7.919085">
        <ele>359.333</ele>
        <time>2016-09-26T08:09:37Z</time>
      </trkpt>
      <trkpt lat="43.733123" lon="-7.919133">
        <ele>359.336</ele>
        <time>2016-09-26T08:09:38Z</time>
      </trkpt>
      <trkpt lat="43.733093" lon="-7.919181">
        <ele>359.434</ele>
        <time>2016-09-26T08:09:39Z</time>
      </trkpt>
      <trkpt lat="43.733065" lon="-7.919231">
        <ele>359.786</ele>
        <time>2016-09-26T08:09:40Z</time>
      </trkpt>
      <trkpt lat="43.733040" lon="-7.919281">
        <ele>359.960</ele>
        <time>2016-09-26T08:09:41Z</time>
      </trkpt>
      <trkpt lat="43.733019" lon="-7.919334">
        <ele>359.826</ele>
        <time>2016-09-26T08:09:42Z</time>
      </trkpt>
      <trkpt lat="43.733002" lon="-7.919386">
        <ele>359.808</ele>
        <time>2016-09-26T08:09:43Z</time>
      </trkpt>
      <trkpt lat="43.732990" lon="-7.919440">
        <ele>360.179</ele>
        <time>2016-09-26T08:09:44Z</time>
      </trkpt>
      <trkpt lat="43.732979" lon="-7.919493">
        <ele>360.244</ele>
        <time>2016-09-26T08:09:45Z</time>
      </trkpt>
      <trkpt lat="43.732971" lon="-7.919547">
        <ele>360.422</ele>
        <time>2016-09-26T08:09:46Z</time>
      </trkpt>
      <trkpt lat="43.732967" lon="-7.919602">
        <ele>360.528</ele>
        <time>2016-09-26T08:09:47Z</time>
      </trkpt>
      <trkpt lat="43.732965" lon="-7.919656">
        <ele>360.652</ele>
        <time>2016-09-26T08:09:48Z</time>
      </trkpt>
      <trkpt lat="43.732963" lon="-7.919710">
        <ele>360.814</ele>
        <time>2016-09-26T08:09:49Z</time>
      </trkpt>
      <trkpt lat="43.732962" lon="-7.919764">
        <ele>361.167</ele>
        <time>2016-09-26T08:09:50Z</time>
      </trkpt>
      <trkpt lat="43.732960" lon="-7.919818">
        <ele>361.235</ele>
        <time>2016-09-26T08:09:51Z</time>
      </trkpt>
      <trkpt lat="43.732955" lon="-7.919870">
        <ele>361.335</ele>
        <time>2016-09-26T08:09:52Z</time>
      </trkpt>
      <trkpt lat="43.732949" lon="-7.919921">
        <ele>361.586</ele>
        <time>2016-09-26T08:09:53Z</time>
      </trkpt>
      <trkpt lat="43.732943" lon="-7.919972">
        <ele>361.614</ele>
        <time>2016-09-26T08:09:54Z</time>
      </trkpt>
      <trkpt lat="43.732938" lon="-7.920024">
        <ele>361.808</ele>
        <time>2016-09-26T08:09:55Z</time>
      </trkpt>
      <trkpt lat="43.732936" lon="-7.920076">
        <ele>362.394</ele>
        <time>2016-09-26T08:09:56Z</time>
      </trkpt>
      <trkpt lat="43.732932" lon="-7.920128">
        <ele>362.319</ele>
        <time>2016-09-26T08:09:57Z</time>
      </trkpt>
      <trkpt lat="43.732925" lon="-7.920181">
        <ele>362.497</ele>
        <time>2016-09-26T08:09:58Z</time>
      </trkpt>
      <trkpt lat="43.732919" lon="-7.920234">
        <ele>362.523</ele>
        <time>2016-09-26T08:09:59Z</time>
      </trkpt>
      <trkpt lat="43.732910" lon="-7.920289">
        <ele>362.957</ele>
        <time>2016-09-26T08:10:00Z</time>
      </trkpt>
      <trkpt lat="43.732899" lon="-7.920346">
        <ele>363.059</ele>
        <time>2016-09-26T08:10:01Z</time>
      </trkpt>
      <trkpt lat="43.732885" lon="-7.920402">
        <ele>363.122</ele>
        <time>2016-09-26T08:10:02Z</time>
      </trkpt>
      <trkpt lat="43.732868" lon="-7.920457">
        <ele>363.040</ele>
        <time>2016-09-26T08:10:03Z</time>
      </trkpt>
      <trkpt lat="43.732848" lon="-7.920512">
        <ele>363.231</ele>
        <time>2016-09-26T08:10:04Z</time>
      </trkpt>
      <trkpt lat="43.732825" lon="-7.920566">
        <ele>363.261</ele>
        <time>2016-09-26T08:10:05Z</time>
      </trkpt>
      <trkpt lat="43.732795" lon="-7.920616">
        <ele>363.107</ele>
        <time>2016-09-26T08:10:06Z</time>
      </trkpt>
      <trkpt lat="43.732760" lon="-7.920660">
        <ele>363.308</ele>
        <time>2016-09-26T08:10:07Z</time>
      </trkpt>
      <trkpt lat="43.732723" lon="-7.920699">
        <ele>363.414</ele>
        <time>2016-09-26T08:10:08Z</time>
      </trkpt>
      <trkpt lat="43.732683" lon="-7.920733">
        <ele>363.479</ele>
        <time>2016-09-26T08:10:09Z</time>
      </trkpt>
      <trkpt lat="43.732640" lon="-7.920760">
        <ele>363.327</ele>
        <time>2016-09-26T08:10:10Z</time>
      </trkpt>
      <trkpt lat="43.732594" lon="-7.920786">
        <ele>363.193</ele>
        <time>2016-09-26T08:10:11Z</time>
      </trkpt>
      <trkpt lat="43.732548" lon="-7.920812">
        <ele>363.097</ele>
        <time>2016-09-26T08:10:12Z</time>
      </trkpt>
      <trkpt lat="43.732500" lon="-7.920836">
        <ele>363.129</ele>
        <time>2016-09-26T08:10:13Z</time>
      </trkpt>
      <trkpt lat="43.732450" lon="-7.920855">
        <ele>363.162</ele>
        <time>2016-09-26T08:10:14Z</time>
      </trkpt>
      <trkpt lat="43.732400" lon="-7.920873">
        <ele>362.980</ele>
        <time>2016-09-26T08:10:15Z</time>
      </trkpt>
      <trkpt lat="43.732351" lon="-7.920889">
        <ele>362.716</ele>
        <time>2016-09-26T08:10:16Z</time>
      </trkpt>
      <trkpt lat="43.732303" lon="-7.920902">
        <ele>362.776</ele>
        <time>2016-09-26T08:10:17Z</time>
      </trkpt>
      <trkpt lat="43.732254" lon="-7.920916">
        <ele>362.713</ele>
        <time>2016-09-26T08:10:18Z</time>
      </trkpt>
      <trkpt lat="43.732207" lon="-7.920933">
        <ele>362.608</ele>
        <time>2016-09-26T08:10:19Z</time>
      </trkpt>
      <trkpt lat="43.732160" lon="-7.920948">
        <ele>362.472</ele>
        <time>2016-09-26T08:10:20Z</time>
      </trkpt>
      <trkpt lat="43.732111" lon="-7.920962">
        <ele>362.417</ele>
        <time>2016-09-26T08:10:21Z</time>
      </trkpt>
      <trkpt lat="43.732064" lon="-7.920980">
        <ele>362.255</ele>
        <time>2016-09-26T08:10:22Z</time>
      </trkpt>
      <trkpt lat="43.732018" lon="-7.921002">
        <ele>362.361</ele>
        <time>2016-09-26T08:10:23Z</time>
      </trkpt>
      <trkpt lat="43.731971" lon="-7.921024">
        <ele>362.115</ele>
        <time>2016-09-26T08:10:24Z</time>
      </trkpt>
      <trkpt lat="43.731927" lon="-7.921047">
        <ele>361.957</ele>
        <time>2016-09-26T08:10:25Z</time>
      </trkpt>
      <trkpt lat="43.731882" lon="-7.921073">
        <ele>361.840</ele>
        <time>2016-09-26T08:10:26Z</time>
      </trkpt>
      <trkpt lat="43.731839" lon="-7.921099">
        <ele>361.868</ele>
        <time>2016-09-26T08:10:27Z</time>
      </trkpt>
      <trkpt lat="43.731799" lon="-7.921124">
        <ele>361.696</ele>
        <time>2016-09-26T08:10:28Z</time>
      </trkpt>
      <trkpt lat="43.731763" lon="-7.921152">
        <ele>361.631</ele>
        <time>2016-09-26T08:10:29Z</time>
      </trkpt>
      <trkpt lat="43.731727" lon="-7.921180">
        <ele>361.524</ele>
        <time>2016-09-26T08:10:30Z</time>
      </trkpt>
      <trkpt lat="43.731691" lon="-7.921206">
        <ele>361.408</ele>
        <time>2016-09-26T08:10:31Z</time>
      </trkpt>
      <trkpt lat="43.731652" lon="-7.921233">
        <ele>361.390</ele>
        <time>2016-09-26T08:10:32Z</time>
      </trkpt>
      <trkpt lat="43.731612" lon="-7.921264">
        <ele>361.475</ele>
        <time>2016-09-26T08:10:33Z</time>
      </trkpt>
      <trkpt lat="43.731570" lon="-7.921297">
        <ele>361.343</ele>
        <time>2016-09-26T08:10:34Z</time>
      </trkpt>
      <trkpt lat="43.731526" lon="-7.921334">
        <ele>360.959</ele>
        <time>2016-09-26T08:10:35Z</time>
      </trkpt>
      <trkpt lat="43.731479" lon="-7.921374">
        <ele>360.793</ele>
        <time>2016-09-26T08:10:36Z</time>
      </trkpt>
      <trkpt lat="43.731432" lon="-7.921420">
        <ele>360.635</ele>
        <time>2016-09-26T08:10:37Z</time>
      </trkpt>
      <trkpt lat="43.731387" lon="-7.921469">
        <ele>360.268</ele>
        <time>2016-09-26T08:10:38Z</time>
      </trkpt>
      <trkpt lat="43.731345" lon="-7.921513">
        <ele>359.916</ele>
        <time>2016-09-26T08:10:39Z</time>
      </trkpt>
      <trkpt lat="43.731315" lon="-7.921561">
        <ele>359.575</ele>
        <time>2016-09-26T08:10:40Z</time>
      </trkpt>
      <trkpt lat="43.731287" lon="-7.921603">
        <ele>359.228</ele>
        <time>2016-09-26T08:10:41Z</time>
      </trkpt>
      <trkpt lat="43.731260" lon="-7.921643">
        <ele>358.920</ele>
        <time>2016-09-26T08:10:42Z</time>
      </trkpt>
      <trkpt lat="43.731234" lon="-7.921676">
        <ele>358.708</ele>
        <time>2016-09-26T08:10:43Z</time>
      </trkpt>
      <trkpt lat="43.731207" lon="-7.921710">
        <ele>358.588</ele>
        <time>2016-09-26T08:10:44Z</time>
      </trkpt>
      <trkpt lat="43.731187" lon="-7.921750">
        <ele>358.473</ele>
        <time>2016-09-26T08:10:45Z</time>
      </trkpt>
      <trkpt lat="43.731175" lon="-7.921799">
        <ele>358.231</ele>
        <time>2016-09-26T08:10:46Z</time>
      </trkpt>
      <trkpt lat="43.731169" lon="-7.921849">
        <ele>358.147</ele>
        <time>2016-09-26T08:10:47Z</time>
      </trkpt>
      <trkpt lat="43.731167" lon="-7.921898">
        <ele>358.191</ele>
        <time>2016-09-26T08:10:48Z</time>
      </trkpt>
      <trkpt lat="43.731168" lon="-7.921947">
        <ele>358.133</ele>
        <time>2016-09-26T08:10:49Z</time>
      </trkpt>
      <trkpt lat="43.731172" lon="-7.921993">
        <ele>358.016</ele>
        <time>2016-09-26T08:10:50Z</time>
      </trkpt>
      <trkpt lat="43.731174" lon="-7.922033">
        <ele>358.024</ele>
        <time>2016-09-26T08:10:51Z</time>
      </trkpt>
      <trkpt lat="43.731177" lon="-7.922073">
        <ele>358.028</ele>
        <time>2016-09-26T08:10:52Z</time>
      </trkpt>
      <trkpt lat="43.731183" lon="-7.922112">
        <ele>358.489</ele>
        <time>2016-09-26T08:10:53Z</time>
      </trkpt>
      <trkpt lat="43.731192" lon="-7.922148">
        <ele>358.317</ele>
        <time>2016-09-26T08:10:54Z</time>
      </trkpt>
      <trkpt lat="43.731201" lon="-7.922185">
        <ele>358.608</ele>
        <time>2016-09-26T08:10:55Z</time>
      </trkpt>
      <trkpt lat="43.731208" lon="-7.922216">
        <ele>358.533</ele>
        <time>2016-09-26T08:10:56Z</time>
      </trkpt>
      <trkpt lat="43.731211" lon="-7.922249">
        <ele>358.898</ele>
        <time>2016-09-26T08:10:57Z</time>
      </trkpt>
      <trkpt lat="43.731220" lon="-7.922287">
        <ele>359.176</ele>
        <time>2016-09-26T08:10:58Z</time>
      </trkpt>
      <trkpt lat="43.731225" lon="-7.922321">
        <ele>359.462</ele>
        <time>2016-09-26T08:10:59Z</time>
      </trkpt>
      <trkpt lat="43.731235" lon="-7.922356">
        <ele>359.696</ele>
        <time>2016-09-26T08:11:00Z</time>
      </trkpt>
      <trkpt lat="43.731242" lon="-7.922393">
        <ele>359.938</ele>
        <time>2016-09-26T08:11:01Z</time>
      </trkpt>
      <trkpt lat="43.731252" lon="-7.922423">
        <ele>360.281</ele>
        <time>2016-09-26T08:11:02Z</time>
      </trkpt>
      <trkpt lat="43.731260" lon="-7.922454">
        <ele>360.149</ele>
        <time>2016-09-26T08:11:03Z</time>
      </trkpt>
      <trkpt lat="43.731271" lon="-7.922492">
        <ele>360.551</ele>
        <time>2016-09-26T08:11:04Z</time>
      </trkpt>
      <trkpt lat="43.731279" lon="-7.922528">
        <ele>360.701</ele>
        <time>2016-09-26T08:11:05Z</time>
      </trkpt>
      <trkpt lat="43.731285" lon="-7.922565">
        <ele>360.811</ele>
        <time>2016-09-26T08:11:06Z</time>
      </trkpt>
      <trkpt lat="43.731291" lon="-7.922603">
        <ele>361.108</ele>
        <time>2016-09-26T08:11:07Z</time>
      </trkpt>
      <trkpt lat="43.731298" lon="-7.922641">
        <ele>361.486</ele>
        <time>2016-09-26T08:11:08Z</time>
      </trkpt>
      <trkpt lat="43.731310" lon="-7.922677">
        <ele>361.641</ele>
        <time>2016-09-26T08:11:09Z</time>
      </trkpt>
      <trkpt lat="43.731325" lon="-7.922711">
        <ele>361.979</ele>
        <time>2016-09-26T08:11:10Z</time>
      </trkpt>
      <trkpt lat="43.731334" lon="-7.922748">
        <ele>362.185</ele>
        <time>2016-09-26T08:11:11Z</time>
      </trkpt>
      <trkpt lat="43.731336" lon="-7.922784">
        <ele>362.379</ele>
        <time>2016-09-26T08:11:12Z</time>
      </trkpt>
      <trkpt lat="43.731338" lon="-7.922819">
        <ele>362.641</ele>
        <time>2016-09-26T08:11:13Z</time>
      </trkpt>
      <trkpt lat="43.731345" lon="-7.922843">
        <ele>362.854</ele>
        <time>2016-09-26T08:11:14Z</time>
      </trkpt>
      <trkpt lat="43.731350" lon="-7.922868">
        <ele>363.052</ele>
        <time>2016-09-26T08:11:15Z</time>
      </trkpt>
      <trkpt lat="43.731356" lon="-7.922899">
        <ele>363.455</ele>
        <time>2016-09-26T08:11:16Z</time>
      </trkpt>
      <trkpt lat="43.731364" lon="-7.922929">
        <ele>363.607</ele>
        <time>2016-09-26T08:11:17Z</time>
      </trkpt>
      <trkpt lat="43.731377" lon="-7.922960">
        <ele>363.917</ele>
        <time>2016-09-26T08:11:18Z</time>
      </trkpt>
      <trkpt lat="43.731385" lon="-7.922988">
        <ele>364.308</ele>
        <time>2016-09-26T08:11:19Z</time>
      </trkpt>
      <trkpt lat="43.731396" lon="-7.923019">
        <ele>364.466</ele>
        <time>2016-09-26T08:11:20Z</time>
      </trkpt>
      <trkpt lat="43.731404" lon="-7.923052">
        <ele>364.551</ele>
        <time>2016-09-26T08:11:21Z</time>
      </trkpt>
      <trkpt lat="43.731412" lon="-7.923083">
        <ele>364.659</ele>
        <time>2016-09-26T08:11:22Z</time>
      </trkpt>
      <trkpt lat="43.731417" lon="-7.923111">
        <ele>364.825</ele>
        <time>2016-09-26T08:11:23Z</time>
      </trkpt>
      <trkpt lat="43.731424" lon="-7.923140">
        <ele>365.119</ele>
        <time>2016-09-26T08:11:24Z</time>
      </trkpt>
      <trkpt lat="43.731431" lon="-7.923171">
        <ele>365.351</ele>
        <time>2016-09-26T08:11:25Z</time>
      </trkpt>
      <trkpt lat="43.731435" lon="-7.923204">
        <ele>365.634</ele>
        <time>2016-09-26T08:11:26Z</time>
      </trkpt>
      <trkpt lat="43.731439" lon="-7.923230">
        <ele>365.942</ele>
        <time>2016-09-26T08:11:27Z</time>
      </trkpt>
      <trkpt lat="43.731444" lon="-7.923255">
        <ele>366.173</ele>
        <time>2016-09-26T08:11:28Z</time>
      </trkpt>
      <trkpt lat="43.731451" lon="-7.923284">
        <ele>366.385</ele>
        <time>2016-09-26T08:11:29Z</time>
      </trkpt>
      <trkpt lat="43.731456" lon="-7.923313">
        <ele>366.513</ele>
        <time>2016-09-26T08:11:30Z</time>
      </trkpt>
      <trkpt lat="43.731457" lon="-7.923339">
        <ele>366.708</ele>
        <time>2016-09-26T08:11:31Z</time>
      </trkpt>
      <trkpt lat="43.731462" lon="-7.923366">
        <ele>367.188</ele>
        <time>2016-09-26T08:11:32Z</time>
      </trkpt>
      <trkpt lat="43.731470" lon="-7.923393">
        <ele>367.453</ele>
        <time>2016-09-26T08:11:33Z</time>
      </trkpt>
      <trkpt lat="43.731473" lon="-7.923416">
        <ele>367.681</ele>
        <time>2016-09-26T08:11:34Z</time>
      </trkpt>
      <trkpt lat="43.731474" lon="-7.923437">
        <ele>367.917</ele>
        <time>2016-09-26T08:11:35Z</time>
      </trkpt>
      <trkpt lat="43.731476" lon="-7.923461">
        <ele>368.111</ele>
        <time>2016-09-26T08:11:36Z</time>
      </trkpt>
      <trkpt lat="43.731481" lon="-7.923485">
        <ele>368.353</ele>
        <time>2016-09-26T08:11:37Z</time>
      </trkpt>
      <trkpt lat="43.731492" lon="-7.923511">
        <ele>368.586</ele>
        <time>2016-09-26T08:11:38Z</time>
      </trkpt>
      <trkpt lat="43.731499" lon="-7.923536">
        <ele>368.934</ele>
        <time>2016-09-26T08:11:39Z</time>
      </trkpt>
      <trkpt lat="43.731510" lon="-7.923567">
        <ele>369.256</ele>
        <time>2016-09-26T08:11:40Z</time>
      </trkpt>
      <trkpt lat="43.731519" lon="-7.923600">
        <ele>369.359</ele>
        <time>2016-09-26T08:11:41Z</time>
      </trkpt>
      <trkpt lat="43.731526" lon="-7.923632">
        <ele>369.514</ele>
        <time>2016-09-26T08:11:42Z</time>
      </trkpt>
      <trkpt lat="43.731537" lon="-7.923664">
        <ele>369.708</ele>
        <time>2016-09-26T08:11:43Z</time>
      </trkpt>
      <trkpt lat="43.731549" lon="-7.923692">
        <ele>369.916</ele>
        <time>2016-09-26T08:11:44Z</time>
      </trkpt>
      <trkpt lat="43.731556" lon="-7.923720">
        <ele>370.131</ele>
        <time>2016-09-26T08:11:45Z</time>
      </trkpt>
      <trkpt lat="43.731562" lon="-7.923748">
        <ele>370.319</ele>
        <time>2016-09-26T08:11:46Z</time>
      </trkpt>
      <trkpt lat="43.731568" lon="-7.923774">
        <ele>370.625</ele>
        <time>2016-09-26T08:11:47Z</time>
      </trkpt>
      <trkpt lat="43.731573" lon="-7.923800">
        <ele>370.959</ele>
        <time>2016-09-26T08:11:48Z</time>
      </trkpt>
      <trkpt lat="43.731579" lon="-7.923825">
        <ele>371.061</ele>
        <time>2016-09-26T08:11:49Z</time>
      </trkpt>
      <trkpt lat="43.731583" lon="-7.923851">
        <ele>371.274</ele>
        <time>2016-09-26T08:11:50Z</time>
      </trkpt>
      <trkpt lat="43.731588" lon="-7.923877">
        <ele>371.492</ele>
        <time>2016-09-26T08:11:51Z</time>
      </trkpt>
      <trkpt lat="43.731592" lon="-7.923902">
        <ele>371.881</ele>
        <time>2016-09-26T08:11:52Z</time>
      </trkpt>
      <trkpt lat="43.731596" lon="-7.923929">
        <ele>371.961</ele>
        <time>2016-09-26T08:11:53Z</time>
      </trkpt>
      <trkpt lat="43.731601" lon="-7.923955">
        <ele>372.117</ele>
        <time>2016-09-26T08:11:54Z</time>
      </trkpt>
      <trkpt lat="43.731603" lon="-7.923983">
        <ele>372.308</ele>
        <time>2016-09-26T08:11:55Z</time>
      </trkpt>
      <trkpt lat="43.731607" lon="-7.924012">
        <ele>372.319</ele>
        <time>2016-09-26T08:11:56Z</time>
      </trkpt>
      <trkpt lat="43.731611" lon="-7.924037">
        <ele>372.724</ele>
        <time>2016-09-26T08:11:57Z</time>
      </trkpt>
      <trkpt lat="43.731613" lon="-7.924061">
        <ele>372.892</ele>
        <time>2016-09-26T08:11:58Z</time>
      </trkpt>
      <trkpt lat="43.731617" lon="-7.924088">
        <ele>373.168</ele>
        <time>2016-09-26T08:11:59Z</time>
      </trkpt>
      <trkpt lat="43.731621" lon="-7.924116">
        <ele>373.222</ele>
        <time>2016-09-26T08:12:00Z</time>
      </trkpt>
      <trkpt lat="43.731622" lon="-7.924143">
        <ele>373.574</ele>
        <time>2016-09-26T08:12:01Z</time>
      </trkpt>
      <trkpt lat="43.731623" lon="-7.924169">
        <ele>373.787</ele>
        <time>2016-09-26T08:12:02Z</time>
      </trkpt>
      <trkpt lat="43.731623" lon="-7.924195">
        <ele>373.865</ele>
        <time>2016-09-26T08:12:03Z</time>
      </trkpt>
      <trkpt lat="43.731623" lon="-7.924222">
        <ele>374.094</ele>
        <time>2016-09-26T08:12:04Z</time>
      </trkpt>
      <trkpt lat="43.731622" lon="-7.924248">
        <ele>374.257</ele>
        <time>2016-09-26T08:12:05Z</time>
      </trkpt>
      <trkpt lat="43.731619" lon="-7.924276">
        <ele>374.522</ele>
        <time>2016-09-26T08:12:06Z</time>
      </trkpt>
      <trkpt lat="43.731617" lon="-7.924304">
        <ele>374.908</ele>
        <time>2016-09-26T08:12:07Z</time>
      </trkpt>
      <trkpt lat="43.731614" lon="-7.924329">
        <ele>374.990</ele>
        <time>2016-09-26T08:12:08Z</time>
      </trkpt>
      <trkpt lat="43.731608" lon="-7.924352">
        <ele>375.065</ele>
        <time>2016-09-26T08:12:09Z</time>
      </trkpt>
      <trkpt lat="43.731604" lon="-7.924378">
        <ele>375.113</ele>
        <time>2016-09-26T08:12:10Z</time>
      </trkpt>
      <trkpt lat="43.731602" lon="-7.924402">
        <ele>375.389</ele>
        <time>2016-09-26T08:12:11Z</time>
      </trkpt>
      <trkpt lat="43.731601" lon="-7.924427">
        <ele>375.583</ele>
        <time>2016-09-26T08:12:12Z</time>
      </trkpt>
      <trkpt lat="43.731599" lon="-7.924452">
        <ele>375.645</ele>
        <time>2016-09-26T08:12:13Z</time>
      </trkpt>
      <trkpt lat="43.731596" lon="-7.924475">
        <ele>375.718</ele>
        <time>2016-09-26T08:12:14Z</time>
      </trkpt>
      <trkpt lat="43.731593" lon="-7.924498">
        <ele>375.856</ele>
        <time>2016-09-26T08:12:15Z</time>
      </trkpt>
      <trkpt lat="43.731591" lon="-7.924522">
        <ele>376.012</ele>
        <time>2016-09-26T08:12:16Z</time>
      </trkpt>
      <trkpt lat="43.731591" lon="-7.924546">
        <ele>376.232</ele>
        <time>2016-09-26T08:12:17Z</time>
      </trkpt>
      <trkpt lat="43.731587" lon="-7.924570">
        <ele>376.505</ele>
        <time>2016-09-26T08:12:18Z</time>
      </trkpt>
      <trkpt lat="43.731582" lon="-7.924593">
        <ele>376.808</ele>
        <time>2016-09-26T08:12:19Z</time>
      </trkpt>
      <trkpt lat="43.731575" lon="-7.924616">
        <ele>377.122</ele>
        <time>2016-09-26T08:12:20Z</time>
      </trkpt>
      <trkpt lat="43.731573" lon="-7.924640">
        <ele>377.327</ele>
        <time>2016-09-26T08:12:21Z</time>
      </trkpt>
      <trkpt lat="43.731575" lon="-7.924666">
        <ele>377.595</ele>
        <time>2016-09-26T08:12:22Z</time>
      </trkpt>
      <trkpt lat="43.731575" lon="-7.924691">
        <ele>377.851</ele>
        <time>2016-09-26T08:12:23Z</time>
      </trkpt>
      <trkpt lat="43.731573" lon="-7.924715">
        <ele>378.265</ele>
        <time>2016-09-26T08:12:24Z</time>
      </trkpt>
      <trkpt lat="43.731573" lon="-7.924739">
        <ele>378.517</ele>
        <time>2016-09-26T08:12:25Z</time>
      </trkpt>
      <trkpt lat="43.731572" lon="-7.924762">
        <ele>378.650</ele>
        <time>2016-09-26T08:12:26Z</time>
      </trkpt>
      <trkpt lat="43.731571" lon="-7.924783">
        <ele>378.628</ele>
        <time>2016-09-26T08:12:27Z</time>
      </trkpt>
      <trkpt lat="43.731570" lon="-7.924803">
        <ele>378.868</ele>
        <time>2016-09-26T08:12:28Z</time>
      </trkpt>
      <trkpt lat="43.731570" lon="-7.924825">
        <ele>378.942</ele>
        <time>2016-09-26T08:12:29Z</time>
      </trkpt>
      <trkpt lat="43.731570" lon="-7.924847">
        <ele>379.226</ele>
        <time>2016-09-26T08:12:30Z</time>
      </trkpt>
      <trkpt lat="43.731571" lon="-7.924870">
        <ele>379.408</ele>
        <time>2016-09-26T08:12:31Z</time>
      </trkpt>
      <trkpt lat="43.731573" lon="-7.924893">
        <ele>379.757</ele>
        <time>2016-09-26T08:12:32Z</time>
      </trkpt>
      <trkpt lat="43.731573" lon="-7.924915">
        <ele>379.842</ele>
        <time>2016-09-26T08:12:33Z</time>
      </trkpt>
      <trkpt lat="43.731571" lon="-7.924937">
        <ele>380.190</ele>
        <time>2016-09-26T08:12:34Z</time>
      </trkpt>
      <trkpt lat="43.731568" lon="-7.924959">
        <ele>380.276</ele>
        <time>2016-09-26T08:12:35Z</time>
      </trkpt>
      <trkpt lat="43.731563" lon="-7.924981">
        <ele>380.450</ele>
        <time>2016-09-26T08:12:36Z</time>
      </trkpt>
      <trkpt lat="43.731559" lon="-7.925003">
        <ele>380.762</ele>
        <time>2016-09-26T08:12:37Z</time>
      </trkpt>
      <trkpt lat="43.731556" lon="-7.925024">
        <ele>380.815</ele>
        <time>2016-09-26T08:12:38Z</time>
      </trkpt>
      <trkpt lat="43.731555" lon="-7.925046">
        <ele>380.993</ele>
        <time>2016-09-26T08:12:39Z</time>
      </trkpt>
      <trkpt lat="43.731553" lon="-7.925068">
        <ele>381.065</ele>
        <time>2016-09-26T08:12:40Z</time>
      </trkpt>
      <trkpt lat="43.731552" lon="-7.925091">
        <ele>381.168</ele>
        <time>2016-09-26T08:12:41Z</time>
      </trkpt>
      <trkpt lat="43.731552" lon="-7.925113">
        <ele>381.214</ele>
        <time>2016-09-26T08:12:42Z</time>
      </trkpt>
      <trkpt lat="43.731552" lon="-7.925134">
        <ele>381.408</ele>
        <time>2016-09-26T08:12:43Z</time>
      </trkpt>
      <trkpt lat="43.731552" lon="-7.925156">
        <ele>381.727</ele>
        <time>2016-09-26T08:12:44Z</time>
      </trkpt>
      <trkpt lat="43.731548" lon="-7.925177">
        <ele>382.062</ele>
        <time>2016-09-26T08:12:45Z</time>
      </trkpt>
      <trkpt lat="43.731543" lon="-7.925197">
        <ele>382.240</ele>
        <time>2016-09-26T08:12:46Z</time>
      </trkpt>
      <trkpt lat="43.731540" lon="-7.925218">
        <ele>382.466</ele>
        <time>2016-09-26T08:12:47Z</time>
      </trkpt>
      <trkpt lat="43.731539" lon="-7.925239">
        <ele>382.810</ele>
        <time>2016-09-26T08:12:48Z</time>
      </trkpt>
      <trkpt lat="43.731537" lon="-7.925260">
        <ele>383.152</ele>
        <time>2016-09-26T08:12:49Z</time>
      </trkpt>
      <trkpt lat="43.731536" lon="-7.925281">
        <ele>383.475</ele>
        <time>2016-09-26T08:12:50Z</time>
      </trkpt>
      <trkpt lat="43.731538" lon="-7.925303">
        <ele>383.793</ele>
        <time>2016-09-26T08:12:51Z</time>
      </trkpt>
      <trkpt lat="43.731543" lon="-7.925326">
        <ele>384.025</ele>
        <time>2016-09-26T08:12:52Z</time>
      </trkpt>
      <trkpt lat="43.731547" lon="-7.925349">
        <ele>384.226</ele>
        <time>2016-09-26T08:12:53Z</time>
      </trkpt>
      <trkpt lat="43.731549" lon="-7.925372">
        <ele>384.408</ele>
        <time>2016-09-26T08:12:54Z</time>
      </trkpt>
      <trkpt lat="43.731552" lon="-7.925394">
        <ele>384.708</ele>
        <time>2016-09-26T08:12:55Z</time>
      </trkpt>
      <trkpt lat="43.731553" lon="-7.925416">
        <ele>385.133</ele>
        <time>2016-09-26T08:12:56Z</time>
      </trkpt>
      <trkpt lat="43.731555" lon="-7.925437">
        <ele>385.378</ele>
        <time>2016-09-26T08:12:57Z</time>
      </trkpt>
      <trkpt lat="43.731560" lon="-7.925458">
        <ele>385.536</ele>
        <time>2016-09-26T08:12:58Z</time>
      </trkpt>
      <trkpt lat="43.731567" lon="-7.925478">
        <ele>385.842</ele>
        <time>2016-09-26T08:12:59Z</time>
      </trkpt>
      <trkpt lat="43.731575" lon="-7.925496">
        <ele>386.086</ele>
        <time>2016-09-26T08:13:00Z</time>
      </trkpt>
      <trkpt lat="43.731586" lon="-7.925510">
        <ele>386.358</ele>
        <time>2016-09-26T08:13:01Z</time>
      </trkpt>
      <trkpt lat="43.731595" lon="-7.925521">
        <ele>386.521</ele>
        <time>2016-09-26T08:13:02Z</time>
      </trkpt>
      <trkpt lat="43.731605" lon="-7.925529">
        <ele>386.749</ele>
        <time>2016-09-26T08:13:03Z</time>
      </trkpt>
      <trkpt lat="43.731620" lon="-7.925535">
        <ele>387.116</ele>
        <time>2016-09-26T08:13:04Z</time>
      </trkpt>
      <trkpt lat="43.731637" lon="-7.925539">
        <ele>387.176</ele>
        <time>2016-09-26T08:13:05Z</time>
      </trkpt>
      <trkpt lat="43.731654" lon="-7.925537">
        <ele>387.213</ele>
        <time>2016-09-26T08:13:06Z</time>
      </trkpt>
      <trkpt lat="43.731673" lon="-7.925531">
        <ele>387.408</ele>
        <time>2016-09-26T08:13:07Z</time>
      </trkpt>
      <trkpt lat="43.731689" lon="-7.925525">
        <ele>387.462</ele>
        <time>2016-09-26T08:13:08Z</time>
      </trkpt>
      <trkpt lat="43.731706" lon="-7.925518">
        <ele>387.627</ele>
        <time>2016-09-26T08:13:09Z</time>
      </trkpt>
      <trkpt lat="43.731722" lon="-7.925510">
        <ele>387.785</ele>
        <time>2016-09-26T08:13:10Z</time>
      </trkpt>
      <trkpt lat="43.731739" lon="-7.925503">
        <ele>388.011</ele>
        <time>2016-09-26T08:13:11Z</time>
      </trkpt>
      <trkpt lat="43.731756" lon="-7.925495">
        <ele>388.145</ele>
        <time>2016-09-26T08:13:12Z</time>
      </trkpt>
      <trkpt lat="43.731772" lon="-7.925483">
        <ele>388.347</ele>
        <time>2016-09-26T08:13:13Z</time>
      </trkpt>
      <trkpt lat="43.731786" lon="-7.925470">
        <ele>388.480</ele>
        <time>2016-09-26T08:13:14Z</time>
      </trkpt>
      <trkpt lat="43.731802" lon="-7.925459">
        <ele>388.798</ele>
        <time>2016-09-26T08:13:15Z</time>
      </trkpt>
      <trkpt lat="43.731817" lon="-7.925446">
        <ele>388.821</ele>
        <time>2016-09-26T08:13:16Z</time>
      </trkpt>
      <trkpt lat="43.731831" lon="-7.925433">
        <ele>388.841</ele>
        <time>2016-09-26T08:13:17Z</time>
      </trkpt>
      <trkpt lat="43.731845" lon="-7.925420">
        <ele>389.005</ele>
        <time>2016-09-26T08:13:18Z</time>
      </trkpt>
      <trkpt lat="43.731858" lon="-7.925406">
        <ele>389.208</ele>
        <time>2016-09-26T08:13:19Z</time>
      </trkpt>
      <trkpt lat="43.731873" lon="-7.925392">
        <ele>389.643</ele>
        <time>2016-09-26T08:13:20Z</time>
      </trkpt>
      <trkpt lat="43.731889" lon="-7.925379">
        <ele>389.698</ele>
        <time>2016-09-26T08:13:21Z</time>
      </trkpt>
      <trkpt lat="43.731903" lon="-7.925367">
        <ele>389.956</ele>
        <time>2016-09-26T08:13:22Z</time>
      </trkpt>
      <trkpt lat="43.731917" lon="-7.925354">
        <ele>390.452</ele>
        <time>2016-09-26T08:13:23Z</time>
      </trkpt>
      <trkpt lat="43.731931" lon="-7.925338">
        <ele>390.416</ele>
        <time>2016-09-26T08:13:24Z</time>
      </trkpt>
      <trkpt lat="43.731945" lon="-7.925322">
        <ele>390.528</ele>
        <time>2016-09-26T08:13:25Z</time>
      </trkpt>
      <trkpt lat="43.731958" lon="-7.925309">
        <ele>390.671</ele>
        <time>2016-09-26T08:13:26Z</time>
      </trkpt>
      <trkpt lat="43.731971" lon="-7.925293">
        <ele>390.679</ele>
        <time>2016-09-26T08:13:27Z</time>
      </trkpt>
      <trkpt lat="43.731983" lon="-7.925277">
        <ele>390.833</ele>
        <time>2016-09-26T08:13:28Z</time>
      </trkpt>
      <trkpt lat="43.731996" lon="-7.925263">
        <ele>390.923</ele>
        <time>2016-09-26T08:13:29Z</time>
      </trkpt>
      <trkpt lat="43.732009" lon="-7.925250">
        <ele>391.015</ele>
        <time>2016-09-26T08:13:30Z</time>
      </trkpt>
      <trkpt lat="43.732022" lon="-7.925237">
        <ele>391.108</ele>
        <time>2016-09-26T08:13:31Z</time>
      </trkpt>
      <trkpt lat="43.732037" lon="-7.925224">
        <ele>391.344</ele>
        <time>2016-09-26T08:13:32Z</time>
      </trkpt>
      <trkpt lat="43.732051" lon="-7.925209">
        <ele>391.419</ele>
        <time>2016-09-26T08:13:33Z</time>
      </trkpt>
      <trkpt lat="43.732064" lon="-7.925193">
        <ele>391.667</ele>
        <time>2016-09-26T08:13:34Z</time>
      </trkpt>
      <trkpt lat="43.732077" lon="-7.925178">
        <ele>391.433</ele>
        <time>2016-09-26T08:13:35Z</time>
      </trkpt>
      <trkpt lat="43.732091" lon="-7.925163">
        <ele>391.317</ele>
        <time>2016-09-26T08:13:36Z</time>
      </trkpt>
      <trkpt lat="43.732105" lon="-7.925147">
        <ele>391.479</ele>
        <time>2016-09-26T08:13:37Z</time>
      </trkpt>
      <trkpt lat="43.732118" lon="-7.925131">
        <ele>391.622</ele>
        <time>2016-09-26T08:13:38Z</time>
      </trkpt>
      <trkpt lat="43.732132" lon="-7.925115">
        <ele>391.990</ele>
        <time>2016-09-26T08:13:39Z</time>
      </trkpt>
      <trkpt lat="43.732146" lon="-7.925103">
        <ele>392.199</ele>
        <time>2016-09-26T08:13:40Z</time>
      </trkpt>
      <trkpt lat="43.732161" lon="-7.925089">
        <ele>392.107</ele>
        <time>2016-09-26T08:13:41Z</time>
      </trkpt>
      <trkpt lat="43.732175" lon="-7.925074">
        <ele>392.227</ele>
        <time>2016-09-26T08:13:42Z</time>
      </trkpt>
      <trkpt lat="43.732187" lon="-7.925058">
        <ele>392.308</ele>
        <time>2016-09-26T08:13:43Z</time>
      </trkpt>
      <trkpt lat="43.732200" lon="-7.925042">
        <ele>392.510</ele>
        <time>2016-09-26T08:13:44Z</time>
      </trkpt>
      <trkpt lat="43.732214" lon="-7.925028">
        <ele>392.725</ele>
        <time>2016-09-26T08:13:45Z</time>
      </trkpt>
      <trkpt lat="43.732226" lon="-7.925011">
        <ele>392.813</ele>
        <time>2016-09-26T08:13:46Z</time>
      </trkpt>
      <trkpt lat="43.732240" lon="-7.924996">
        <ele>392.929</ele>
        <time>2016-09-26T08:13:47Z</time>
      </trkpt>
      <trkpt lat="43.732254" lon="-7.924980">
        <ele>393.033</ele>
        <time>2016-09-26T08:13:48Z</time>
      </trkpt>
      <trkpt lat="43.732268" lon="-7.924965">
        <ele>393.285</ele>
        <time>2016-09-26T08:13:49Z</time>
      </trkpt>
      <trkpt lat="43.732282" lon="-7.924950">
        <ele>393.298</ele>
        <time>2016-09-26T08:13:50Z</time>
      </trkpt>
      <trkpt lat="43.732296" lon="-7.924936">
        <ele>393.426</ele>
        <time>2016-09-26T08:13:51Z</time>
      </trkpt>
      <trkpt lat="43.732309" lon="-7.924920">
        <ele>393.576</ele>
        <time>2016-09-26T08:13:52Z</time>
      </trkpt>
      <trkpt lat="43.732323" lon="-7.924906">
        <ele>393.790</ele>
        <time>2016-09-26T08:13:53Z</time>
      </trkpt>
      <trkpt lat="43.732338" lon="-7.924893">
        <ele>393.819</ele>
        <time>2016-09-26T08:13:54Z</time>
      </trkpt>
      <trkpt lat="43.732353" lon="-7.924878">
        <ele>394.108</ele>
        <time>2016-09-26T08:13:55Z</time>
      </trkpt>
      <trkpt lat="43.732367" lon="-7.924864">
        <ele>394.278</ele>
        <time>2016-09-26T08:13:56Z</time>
      </trkpt>
      <trkpt lat="43.732381" lon="-7.924849">
        <ele>394.483</ele>
        <time>2016-09-26T08:13:57Z</time>
      </trkpt>
      <trkpt lat="43.732396" lon="-7.924834">
        <ele>394.731</ele>
        <time>2016-09-26T08:13:58Z</time>
      </trkpt>
      <trkpt lat="43.732409" lon="-7.924818">
        <ele>394.837</ele>
        <time>2016-09-26T08:13:59Z</time>
      </trkpt>
      <trkpt lat="43.732423" lon="-7.924801">
        <ele>394.911</ele>
        <time>2016-09-26T08:14:00Z</time>
      </trkpt>
      <trkpt lat="43.732437" lon="-7.924786">
        <ele>395.063</ele>
        <time>2016-09-26T08:14:01Z</time>
      </trkpt>
      <trkpt lat="43.732453" lon="-7.924770">
        <ele>395.016</ele>
        <time>2016-09-26T08:14:02Z</time>
      </trkpt>
      <trkpt lat="43.732467" lon="-7.924755">
        <ele>395.354</ele>
        <time>2016-09-26T08:14:03Z</time>
      </trkpt>
      <trkpt lat="43.732482" lon="-7.924741">
        <ele>395.482</ele>
        <time>2016-09-26T08:14:04Z</time>
      </trkpt>
      <trkpt lat="43.732497" lon="-7.924726">
        <ele>395.743</ele>
        <time>2016-09-26T08:14:05Z</time>
      </trkpt>
      <trkpt lat="43.732512" lon="-7.924711">
        <ele>395.917</ele>
        <time>2016-09-26T08:14:06Z</time>
      </trkpt>
      <trkpt lat="43.732527" lon="-7.924696">
        <ele>396.008</ele>
        <time>2016-09-26T08:14:07Z</time>
      </trkpt>
      <trkpt lat="43.732541" lon="-7.924681">
        <ele>396.279</ele>
        <time>2016-09-26T08:14:08Z</time>
      </trkpt>
      <trkpt lat="43.732556" lon="-7.924666">
        <ele>396.344</ele>
        <time>2016-09-26T08:14:09Z</time>
      </trkpt>
      <trkpt lat="43.732575" lon="-7.924649">
        <ele>396.542</ele>
        <time>2016-09-26T08:14:10Z</time>
      </trkpt>
      <trkpt lat="43.732593" lon="-7.924632">
        <ele>396.598</ele>
        <time>2016-09-26T08:14:11Z</time>
      </trkpt>
      <trkpt lat="43.732608" lon="-7.924615">
        <ele>396.692</ele>
        <time>2016-09-26T08:14:12Z</time>
      </trkpt>
      <trkpt lat="43.732622" lon="-7.924595">
        <ele>396.894</ele>
        <time>2016-09-26T08:14:13Z</time>
      </trkpt>
      <trkpt lat="43.732640" lon="-7.924578">
        <ele>397.187</ele>
        <time>2016-09-26T08:14:14Z</time>
      </trkpt>
      <trkpt lat="43.732656" lon="-7.924560">
        <ele>397.375</ele>
        <time>2016-09-26T08:14:15Z</time>
      </trkpt>
      <trkpt lat="43.732671" lon="-7.924545">
        <ele>397.592</ele>
        <time>2016-09-26T08:14:16Z</time>
      </trkpt>
      <trkpt lat="43.732689" lon="-7.924529">
        <ele>397.673</ele>
        <time>2016-09-26T08:14:17Z</time>
      </trkpt>
      <trkpt lat="43.732705" lon="-7.924514">
        <ele>397.820</ele>
        <time>2016-09-26T08:14:18Z</time>
      </trkpt>
      <trkpt lat="43.732720" lon="-7.924500">
        <ele>398.008</ele>
        <time>2016-09-26T08:14:19Z</time>
      </trkpt>
      <trkpt lat="43.732737" lon="-7.924479">
        <ele>398.110</ele>
        <time>2016-09-26T08:14:20Z</time>
      </trkpt>
      <trkpt lat="43.732752" lon="-7.924462">
        <ele>398.085</ele>
        <time>2016-09-26T08:14:21Z</time>
      </trkpt>
      <trkpt lat="43.732768" lon="-7.924444">
        <ele>398.213</ele>
        <time>2016-09-26T08:14:22Z</time>
      </trkpt>
      <trkpt lat="43.732785" lon="-7.924428">
        <ele>398.229</ele>
        <time>2016-09-26T08:14:23Z</time>
      </trkpt>
      <trkpt lat="43.732801" lon="-7.924411">
        <ele>398.323</ele>
        <time>2016-09-26T08:14:24Z</time>
      </trkpt>
      <trkpt lat="43.732816" lon="-7.924394">
        <ele>398.515</ele>
        <time>2016-09-26T08:14:25Z</time>
      </trkpt>
      <trkpt lat="43.732831" lon="-7.924378">
        <ele>398.638</ele>
        <time>2016-09-26T08:14:26Z</time>
      </trkpt>
      <trkpt lat="43.732847" lon="-7.924363">
        <ele>398.856</ele>
        <time>2016-09-26T08:14:27Z</time>
      </trkpt>
      <trkpt lat="43.732862" lon="-7.924347">
        <ele>398.887</ele>
        <time>2016-09-26T08:14:28Z</time>
      </trkpt>
      <trkpt lat="43.732877" lon="-7.924330">
        <ele>399.042</ele>
        <time>2016-09-26T08:14:29Z</time>
      </trkpt>
      <trkpt lat="43.732893" lon="-7.924314">
        <ele>399.326</ele>
        <time>2016-09-26T08:14:30Z</time>
      </trkpt>
      <trkpt lat="43.732910" lon="-7.924298">
        <ele>399.408</ele>
        <time>2016-09-26T08:14:31Z</time>
      </trkpt>
      <trkpt lat="43.732925" lon="-7.924280">
        <ele>399.379</ele>
        <time>2016-09-26T08:14:32Z</time>
      </trkpt>
      <trkpt lat="43.732941" lon="-7.924264">
        <ele>399.784</ele>
        <time>2016-09-26T08:14:33Z</time>
      </trkpt>
      <trkpt lat="43.732957" lon="-7.924248">
        <ele>399.822</ele>
        <time>2016-09-26T08:14:34Z</time>
      </trkpt>
      <trkpt lat="43.732974" lon="-7.924233">
        <ele>400.188</ele>
        <time>2016-09-26T08:14:35Z</time>
      </trkpt>
      <trkpt lat="43.732989" lon="-7.924217">
        <ele>400.272</ele>
        <time>2016-09-26T08:14:36Z</time>
      </trkpt>
      <trkpt lat="43.733005" lon="-7.924201">
        <ele>400.424</ele>
        <time>2016-09-26T08:14:37Z</time>
      </trkpt>
      <trkpt lat="43.733021" lon="-7.924188">
        <ele>400.677</ele>
        <time>2016-09-26T08:14:38Z</time>
      </trkpt>
      <trkpt lat="43.733038" lon="-7.924174">
        <ele>400.835</ele>
        <time>2016-09-26T08:14:39Z</time>
      </trkpt>
      <trkpt lat="43.733055" lon="-7.924160">
        <ele>401.043</ele>
        <time>2016-09-26T08:14:40Z</time>
      </trkpt>
      <trkpt lat="43.733070" lon="-7.924144">
        <ele>401.164</ele>
        <time>2016-09-26T08:14:41Z</time>
      </trkpt>
      <trkpt lat="43.733087" lon="-7.924130">
        <ele>401.210</ele>
        <time>2016-09-26T08:14:42Z</time>
      </trkpt>
      <trkpt lat="43.733104" lon="-7.924118">
        <ele>401.408</ele>
        <time>2016-09-26T08:14:43Z</time>
      </trkpt>
      <trkpt lat="43.733121" lon="-7.924107">
        <ele>401.645</ele>
        <time>2016-09-26T08:14:44Z</time>
      </trkpt>
      <trkpt lat="43.733139" lon="-7.924096">
        <ele>401.850</ele>
        <time>2016-09-26T08:14:45Z</time>
      </trkpt>
      <trkpt lat="43.733158" lon="-7.924087">
        <ele>402.168</ele>
        <time>2016-09-26T08:14:46Z</time>
      </trkpt>
      <trkpt lat="43.733177" lon="-7.924077">
        <ele>402.294</ele>
        <time>2016-09-26T08:14:47Z</time>
      </trkpt>
      <trkpt lat="43.733195" lon="-7.924066">
        <ele>402.398</ele>
        <time>2016-09-26T08:14:48Z</time>
      </trkpt>
      <trkpt lat="43.733213" lon="-7.924054">
        <ele>402.440</ele>
        <time>2016-09-26T08:14:49Z</time>
      </trkpt>
      <trkpt lat="43.733230" lon="-7.924043">
        <ele>402.613</ele>
        <time>2016-09-26T08:14:50Z</time>
      </trkpt>
      <trkpt lat="43.733246" lon="-7.924033">
        <ele>402.621</ele>
        <time>2016-09-26T08:14:51Z</time>
      </trkpt>
      <trkpt lat="43.733264" lon="-7.924025">
        <ele>402.766</ele>
        <time>2016-09-26T08:14:52Z</time>
      </trkpt>
      <trkpt lat="43.733281" lon="-7.924017">
        <ele>402.829</ele>
        <time>2016-09-26T08:14:53Z</time>
      </trkpt>
      <trkpt lat="43.733299" lon="-7.924011">
        <ele>403.021</ele>
        <time>2016-09-26T08:14:54Z</time>
      </trkpt>
      <trkpt lat="43.733317" lon="-7.924007">
        <ele>403.208</ele>
        <time>2016-09-26T08:14:55Z</time>
      </trkpt>
      <trkpt lat="43.733334" lon="-7.924006">
        <ele>403.577</ele>
        <time>2016-09-26T08:14:56Z</time>
      </trkpt>
      <trkpt lat="43.733351" lon="-7.924006">
        <ele>403.712</ele>
        <time>2016-09-26T08:14:57Z</time>
      </trkpt>
      <trkpt lat="43.733369" lon="-7.924009">
        <ele>404.060</ele>
        <time>2016-09-26T08:14:58Z</time>
      </trkpt>
      <trkpt lat="43.733387" lon="-7.924013">
        <ele>404.256</ele>
        <time>2016-09-26T08:14:59Z</time>
      </trkpt>
      <trkpt lat="43.733405" lon="-7.924017">
        <ele>404.610</ele>
        <time>2016-09-26T08:15:00Z</time>
      </trkpt>
      <trkpt lat="43.733423" lon="-7.924024">
        <ele>404.952</ele>
        <time>2016-09-26T08:15:01Z</time>
      </trkpt>
      <trkpt lat="43.733440" lon="-7.924035">
        <ele>404.915</ele>
        <time>2016-09-26T08:15:02Z</time>
      </trkpt>
      <trkpt lat="43.733456" lon="-7.924043">
        <ele>405.263</ele>
        <time>2016-09-26T08:15:03Z</time>
      </trkpt>
      <trkpt lat="43.733471" lon="-7.924055">
        <ele>405.647</ele>
        <time>2016-09-26T08:15:04Z</time>
      </trkpt>
      <trkpt lat="43.733483" lon="-7.924068">
        <ele>405.829</ele>
        <time>2016-09-26T08:15:05Z</time>
      </trkpt>
      <trkpt lat="43.733495" lon="-7.924083">
        <ele>406.021</ele>
        <time>2016-09-26T08:15:06Z</time>
      </trkpt>
      <trkpt lat="43.733507" lon="-7.924099">
        <ele>406.008</ele>
        <time>2016-09-26T08:15:07Z</time>
      </trkpt>
      <trkpt lat="43.733517" lon="-7.924115">
        <ele>406.335</ele>
        <time>2016-09-26T08:15:08Z</time>
      </trkpt>
      <trkpt lat="43.733527" lon="-7.924133">
        <ele>406.710</ele>
        <time>2016-09-26T08:15:09Z</time>
      </trkpt>
      <trkpt lat="43.733535" lon="-7.924151">
        <ele>406.758</ele>
        <time>2016-09-26T08:15:10Z</time>
      </trkpt>
      <trkpt lat="43.733544" lon="-7.924169">
        <ele>406.774</ele>
        <time>2016-09-26T08:15:11Z</time>
      </trkpt>
      <trkpt lat="43.733554" lon="-7.924188">
        <ele>406.878</ele>
        <time>2016-09-26T08:15:12Z</time>
      </trkpt>
      <trkpt lat="43.733565" lon="-7.924207">
        <ele>407.030</ele>
        <time>2016-09-26T08:15:13Z</time>
      </trkpt>
      <trkpt lat="43.733571" lon="-7.924225">
        <ele>407.263</ele>
        <time>2016-09-26T08:15:14Z</time>
      </trkpt>
      <trkpt lat="43.733579" lon="-7.924242">
        <ele>407.471</ele>
        <time>2016-09-26T08:15:15Z</time>
      </trkpt>
      <trkpt lat="43.733590" lon="-7.924259">
        <ele>407.561</ele>
        <time>2016-09-26T08:15:16Z</time>
      </trkpt>
      <trkpt lat="43.733602" lon="-7.924277">
        <ele>407.521</ele>
        <time>2016-09-26T08:15:17Z</time>
      </trkpt>
      <trkpt lat="43.733613" lon="-7.924297">
        <ele>407.813</ele>
        <time>2016-09-26T08:15:18Z</time>
      </trkpt>
      <trkpt lat="43.733628" lon="-7.924313">
        <ele>408.008</ele>
        <time>2016-09-26T08:15:19Z</time>
      </trkpt>
      <trkpt lat="43.733642" lon="-7.924332">
        <ele>408.377</ele>
        <time>2016-09-26T08:15:20Z</time>
      </trkpt>
      <trkpt lat="43.733654" lon="-7.924350">
        <ele>408.442</ele>
        <time>2016-09-26T08:15:21Z</time>
      </trkpt>
      <trkpt lat="43.733664" lon="-7.924369">
        <ele>408.650</ele>
        <time>2016-09-26T08:15:22Z</time>
      </trkpt>
      <trkpt lat="43.733675" lon="-7.924389">
        <ele>408.826</ele>
        <time>2016-09-26T08:15:23Z</time>
      </trkpt>
      <trkpt lat="43.733686" lon="-7.924409">
        <ele>408.920</ele>
        <time>2016-09-26T08:15:24Z</time>
      </trkpt>
      <trkpt lat="43.733699" lon="-7.924432">
        <ele>409.252</ele>
        <time>2016-09-26T08:15:25Z</time>
      </trkpt>
      <trkpt lat="43.733712" lon="-7.924451">
        <ele>409.345</ele>
        <time>2016-09-26T08:15:26Z</time>
      </trkpt>
      <trkpt lat="43.733721" lon="-7.924468">
        <ele>409.573</ele>
        <time>2016-09-26T08:15:27Z</time>
      </trkpt>
      <trkpt lat="43.733731" lon="-7.924483">
        <ele>409.721</ele>
        <time>2016-09-26T08:15:28Z</time>
      </trkpt>
      <trkpt lat="43.733743" lon="-7.924498">
        <ele>409.941</ele>
        <time>2016-09-26T08:15:29Z</time>
      </trkpt>
      <trkpt lat="43.733754" lon="-7.924513">
        <ele>410.105</ele>
        <time>2016-09-26T08:15:30Z</time>
      </trkpt>
      <trkpt lat="43.733768" lon="-7.924529">
        <ele>410.408</ele>
        <time>2016-09-26T08:15:31Z</time>
      </trkpt>
      <trkpt lat="43.733783" lon="-7.924546">
        <ele>410.773</ele>
        <time>2016-09-26T08:15:32Z</time>
      </trkpt>
      <trkpt lat="43.733797" lon="-7.924562">
        <ele>410.938</ele>
        <time>2016-09-26T08:15:33Z</time>
      </trkpt>
      <trkpt lat="43.733811" lon="-7.924580">
        <ele>411.136</ele>
        <time>2016-09-26T08:15:34Z</time>
      </trkpt>
      <trkpt lat="43.733825" lon="-7.924597">
        <ele>411.382</ele>
        <time>2016-09-26T08:15:35Z</time>
      </trkpt>
      <trkpt lat="43.733840" lon="-7.924616">
        <ele>411.396</ele>
        <time>2016-09-26T08:15:36Z</time>
      </trkpt>
      <trkpt lat="43.733854" lon="-7.924634">
        <ele>411.638</ele>
        <time>2016-09-26T08:15:37Z</time>
      </trkpt>
      <trkpt lat="43.733868" lon="-7.924652">
        <ele>411.741</ele>
        <time>2016-09-26T08:15:38Z</time>
      </trkpt>
      <trkpt lat="43.733883" lon="-7.924667">
        <ele>411.969</ele>
        <time>2016-09-26T08:15:39Z</time>
      </trkpt>
      <trkpt lat="43.733899" lon="-7.924680">
        <ele>412.296</ele>
        <time>2016-09-26T08:15:40Z</time>
      </trkpt>
      <trkpt lat="43.733918" lon="-7.924693">
        <ele>412.431</ele>
        <time>2016-09-26T08:15:41Z</time>
      </trkpt>
      <trkpt lat="43.733934" lon="-7.924706">
        <ele>412.624</ele>
        <time>2016-09-26T08:15:42Z</time>
      </trkpt>
      <trkpt lat="43.733950" lon="-7.924719">
        <ele>412.708</ele>
        <time>2016-09-26T08:15:43Z</time>
      </trkpt>
      <trkpt lat="43.733969" lon="-7.924732">
        <ele>412.750</ele>
        <time>2016-09-26T08:15:44Z</time>
      </trkpt>
      <trkpt lat="43.733987" lon="-7.924744">
        <ele>412.815</ele>
        <time>2016-09-26T08:15:45Z</time>
      </trkpt>
      <trkpt lat="43.734004" lon="-7.924755">
        <ele>413.013</ele>
        <time>2016-09-26T08:15:46Z</time>
      </trkpt>
      <trkpt lat="43.734022" lon="-7.924766">
        <ele>413.199</ele>
        <time>2016-09-26T08:15:47Z</time>
      </trkpt>
      <trkpt lat="43.734042" lon="-7.924776">
        <ele>413.283</ele>
        <time>2016-09-26T08:15:48Z</time>
      </trkpt>
      <trkpt lat="43.734062" lon="-7.924784">
        <ele>413.335</ele>
        <time>2016-09-26T08:15:49Z</time>
      </trkpt>
      <trkpt lat="43.734080" lon="-7.924792">
        <ele>413.488</ele>
        <time>2016-09-26T08:15:50Z</time>
      </trkpt>
      <trkpt lat="43.734100" lon="-7.924801">
        <ele>413.616</ele>
        <time>2016-09-26T08:15:51Z</time>
      </trkpt>
      <trkpt lat="43.734120" lon="-7.924810">
        <ele>413.859</ele>
        <time>2016-09-26T08:15:52Z</time>
      </trkpt>
      <trkpt lat="43.734141" lon="-7.924817">
        <ele>413.903</ele>
        <time>2016-09-26T08:15:53Z</time>
      </trkpt>
      <trkpt lat="43.734160" lon="-7.924823">
        <ele>414.223</ele>
        <time>2016-09-26T08:15:54Z</time>
      </trkpt>
      <trkpt lat="43.734180" lon="-7.924828">
        <ele>414.308</ele>
        <time>2016-09-26T08:15:55Z</time>
      </trkpt>
      <trkpt lat="43.734200" lon="-7.924834">
        <ele>414.546</ele>
        <time>2016-09-26T08:15:56Z</time>
      </trkpt>
      <trkpt lat="43.734220" lon="-7.924841">
        <ele>414.671</ele>
        <time>2016-09-26T08:15:57Z</time>
      </trkpt>
      <trkpt lat="43.734239" lon="-7.924848">
        <ele>414.859</ele>
        <time>2016-09-26T08:15:58Z</time>
      </trkpt>
      <trkpt lat="43.734258" lon="-7.924853">
        <ele>414.845</ele>
        <time>2016-09-26T08:15:59Z</time>
      </trkpt>
      <trkpt lat="43.734276" lon="-7.924858">
        <ele>415.019</ele>
        <time>2016-09-26T08:16:00Z</time>
      </trkpt>
      <trkpt lat="43.734295" lon="-7.924863">
        <ele>415.251</ele>
        <time>2016-09-26T08:16:01Z</time>
      </trkpt>
      <trkpt lat="43.734315" lon="-7.924869">
        <ele>415.454</ele>
        <time>2016-09-26T08:16:02Z</time>
      </trkpt>
      <trkpt lat="43.734333" lon="-7.924874">
        <ele>415.582</ele>
        <time>2016-09-26T08:16:03Z</time>
      </trkpt>
      <trkpt lat="43.734351" lon="-7.924880">
        <ele>415.414</ele>
        <time>2016-09-26T08:16:04Z</time>
      </trkpt>
      <trkpt lat="43.734368" lon="-7.924886">
        <ele>415.754</ele>
        <time>2016-09-26T08:16:05Z</time>
      </trkpt>
      <trkpt lat="43.734386" lon="-7.924892">
        <ele>415.809</ele>
        <time>2016-09-26T08:16:06Z</time>
      </trkpt>
      <trkpt lat="43.734406" lon="-7.924899">
        <ele>415.708</ele>
        <time>2016-09-26T08:16:07Z</time>
      </trkpt>
      <trkpt lat="43.734425" lon="-7.924906">
        <ele>416.062</ele>
        <time>2016-09-26T08:16:08Z</time>
      </trkpt>
      <trkpt lat="43.734444" lon="-7.924913">
        <ele>416.217</ele>
        <time>2016-09-26T08:16:09Z</time>
      </trkpt>
      <trkpt lat="43.734464" lon="-7.924922">
        <ele>416.265</ele>
        <time>2016-09-26T08:16:10Z</time>
      </trkpt>
      <trkpt lat="43.734483" lon="-7.924933">
        <ele>416.671</ele>
        <time>2016-09-26T08:16:11Z</time>
      </trkpt>
      <trkpt lat="43.734502" lon="-7.924943">
        <ele>416.715</ele>
        <time>2016-09-26T08:16:12Z</time>
      </trkpt>
      <trkpt lat="43.734523" lon="-7.924951">
        <ele>416.867</ele>
        <time>2016-09-26T08:16:13Z</time>
      </trkpt>
      <trkpt lat="43.734541" lon="-7.924958">
        <ele>417.140</ele>
        <time>2016-09-26T08:16:14Z</time>
      </trkpt>
      <trkpt lat="43.734560" lon="-7.924965">
        <ele>417.468</ele>
        <time>2016-09-26T08:16:15Z</time>
      </trkpt>
      <trkpt lat="43.734578" lon="-7.924975">
        <ele>417.644</ele>
        <time>2016-09-26T08:16:16Z</time>
      </trkpt>
      <trkpt lat="43.734595" lon="-7.924986">
        <ele>417.805</ele>
        <time>2016-09-26T08:16:17Z</time>
      </trkpt>
      <trkpt lat="43.734611" lon="-7.924997">
        <ele>417.915</ele>
        <time>2016-09-26T08:16:18Z</time>
      </trkpt>
      <trkpt lat="43.734626" lon="-7.925005">
        <ele>417.908</ele>
        <time>2016-09-26T08:16:19Z</time>
      </trkpt>
      <trkpt lat="43.734641" lon="-7.925015">
        <ele>418.185</ele>
        <time>2016-09-26T08:16:20Z</time>
      </trkpt>
      <trkpt lat="43.734657" lon="-7.925026">
        <ele>418.450</ele>
        <time>2016-09-26T08:16:21Z</time>
      </trkpt>
      <trkpt lat="43.734672" lon="-7.925038">
        <ele>418.538</ele>
        <time>2016-09-26T08:16:22Z</time>
      </trkpt>
      <trkpt lat="43.734686" lon="-7.925050">
        <ele>418.954</ele>
        <time>2016-09-26T08:16:23Z</time>
      </trkpt>
      <trkpt lat="43.734702" lon="-7.925062">
        <ele>419.348</ele>
        <time>2016-09-26T08:16:24Z</time>
      </trkpt>
      <trkpt lat="43.734717" lon="-7.925075">
        <ele>419.320</ele>
        <time>2016-09-26T08:16:25Z</time>
      </trkpt>
      <trkpt lat="43.734731" lon="-7.925088">
        <ele>419.523</ele>
        <time>2016-09-26T08:16:26Z</time>
      </trkpt>
      <trkpt lat="43.734744" lon="-7.925102">
        <ele>419.831</ele>
        <time>2016-09-26T08:16:27Z</time>
      </trkpt>
      <trkpt lat="43.734759" lon="-7.925116">
        <ele>420.028</ele>
        <time>2016-09-26T08:16:28Z</time>
      </trkpt>
      <trkpt lat="43.734772" lon="-7.925128">
        <ele>420.289</ele>
        <time>2016-09-26T08:16:29Z</time>
      </trkpt>
      <trkpt lat="43.734785" lon="-7.925142">
        <ele>420.317</ele>
        <time>2016-09-26T08:16:30Z</time>
      </trkpt>
      <trkpt lat="43.734797" lon="-7.925157">
        <ele>420.608</ele>
        <time>2016-09-26T08:16:31Z</time>
      </trkpt>
      <trkpt lat="43.734811" lon="-7.925171">
        <ele>420.933</ele>
        <time>2016-09-26T08:16:32Z</time>
      </trkpt>
      <trkpt lat="43.734823" lon="-7.925186">
        <ele>421.218</ele>
        <time>2016-09-26T08:16:33Z</time>
      </trkpt>
      <trkpt lat="43.734836" lon="-7.925201">
        <ele>421.456</ele>
        <time>2016-09-26T08:16:34Z</time>
      </trkpt>
      <trkpt lat="43.734848" lon="-7.925216">
        <ele>421.772</ele>
        <time>2016-09-26T08:16:35Z</time>
      </trkpt>
      <trkpt lat="43.734859" lon="-7.925232">
        <ele>421.996</ele>
        <time>2016-09-26T08:16:36Z</time>
      </trkpt>
      <trkpt lat="43.734871" lon="-7.925248">
        <ele>422.128</ele>
        <time>2016-09-26T08:16:37Z</time>
      </trkpt>
      <trkpt lat="43.734883" lon="-7.925262">
        <ele>422.351</ele>
        <time>2016-09-26T08:16:38Z</time>
      </trkpt>
      <trkpt lat="43.734895" lon="-7.925277">
        <ele>422.579</ele>
        <time>2016-09-26T08:16:39Z</time>
      </trkpt>
      <trkpt lat="43.734906" lon="-7.925292">
        <ele>422.786</ele>
        <time>2016-09-26T08:16:40Z</time>
      </trkpt>
      <trkpt lat="43.734916" lon="-7.925308">
        <ele>423.160</ele>
        <time>2016-09-26T08:16:41Z</time>
      </trkpt>
      <trkpt lat="43.734926" lon="-7.925324">
        <ele>423.426</ele>
        <time>2016-09-26T08:16:42Z</time>
      </trkpt>
      <trkpt lat="43.734936" lon="-7.925340">
        <ele>423.908</ele>
        <time>2016-09-26T08:16:43Z</time>
      </trkpt>
      <trkpt lat="43.734947" lon="-7.925354">
        <ele>424.099</ele>
        <time>2016-09-26T08:16:44Z</time>
      </trkpt>
      <trkpt lat="43.734958" lon="-7.925370">
        <ele>424.334</ele>
        <time>2016-09-26T08:16:45Z</time>
      </trkpt>
      <trkpt lat="43.734970" lon="-7.925386">
        <ele>424.512</ele>
        <time>2016-09-26T08:16:46Z</time>
      </trkpt>
      <trkpt lat="43.734982" lon="-7.925403">
        <ele>424.918</ele>
        <time>2016-09-26T08:16:47Z</time>
      </trkpt>
      <trkpt lat="43.734994" lon="-7.925418">
        <ele>425.112</ele>
        <time>2016-09-26T08:16:48Z</time>
      </trkpt>
      <trkpt lat="43.735006" lon="-7.925433">
        <ele>425.344</ele>
        <time>2016-09-26T08:16:49Z</time>
      </trkpt>
      <trkpt lat="43.735017" lon="-7.925449">
        <ele>425.547</ele>
        <time>2016-09-26T08:16:50Z</time>
      </trkpt>
      <trkpt lat="43.735030" lon="-7.925463">
        <ele>425.725</ele>
        <time>2016-09-26T08:16:51Z</time>
      </trkpt>
      <trkpt lat="43.735042" lon="-7.925479">
        <ele>425.987</ele>
        <time>2016-09-26T08:16:52Z</time>
      </trkpt>
      <trkpt lat="43.735052" lon="-7.925496">
        <ele>426.242</ele>
        <time>2016-09-26T08:16:53Z</time>
      </trkpt>
      <trkpt lat="43.735062" lon="-7.925513">
        <ele>426.526</ele>
        <time>2016-09-26T08:16:54Z</time>
      </trkpt>
      <trkpt lat="43.735071" lon="-7.925531">
        <ele>426.708</ele>
        <time>2016-09-26T08:16:55Z</time>
      </trkpt>
      <trkpt lat="43.735081" lon="-7.925546">
        <ele>426.919</ele>
        <time>2016-09-26T08:16:56Z</time>
      </trkpt>
      <trkpt lat="43.735092" lon="-7.925562">
        <ele>427.044</ele>
        <time>2016-09-26T08:16:57Z</time>
      </trkpt>
      <trkpt lat="43.735103" lon="-7.925576">
        <ele>427.292</ele>
        <time>2016-09-26T08:16:58Z</time>
      </trkpt>
      <trkpt lat="43.735112" lon="-7.925593">
        <ele>427.718</ele>
        <time>2016-09-26T08:16:59Z</time>
      </trkpt>
      <trkpt lat="43.735121" lon="-7.925610">
        <ele>428.062</ele>
        <time>2016-09-26T08:17:00Z</time>
      </trkpt>
      <trkpt lat="43.735131" lon="-7.925624">
        <ele>428.154</ele>
        <time>2016-09-26T08:17:01Z</time>
      </trkpt>
      <trkpt lat="43.735142" lon="-7.925638">
        <ele>428.297</ele>
        <time>2016-09-26T08:17:02Z</time>
      </trkpt>
      <trkpt lat="43.735151" lon="-7.925654">
        <ele>428.495</ele>
        <time>2016-09-26T08:17:03Z</time>
      </trkpt>
      <trkpt lat="43.735160" lon="-7.925670">
        <ele>428.763</ele>
        <time>2016-09-26T08:17:04Z</time>
      </trkpt>
      <trkpt lat="43.735169" lon="-7.925687">
        <ele>428.944</ele>
        <time>2016-09-26T08:17:05Z</time>
      </trkpt>
      <trkpt lat="43.735178" lon="-7.925704">
        <ele>429.118</ele>
        <time>2016-09-26T08:17:06Z</time>
      </trkpt>
      <trkpt lat="43.735183" lon="-7.925722">
        <ele>429.208</ele>
        <time>2016-09-26T08:17:07Z</time>
      </trkpt>
      <trkpt lat="43.735189" lon="-7.925740">
        <ele>429.487</ele>
        <time>2016-09-26T08:17:08Z</time>
      </trkpt>
      <trkpt lat="43.735196" lon="-7.925758">
        <ele>429.612</ele>
        <time>2016-09-26T08:17:09Z</time>
      </trkpt>
      <trkpt lat="43.735201" lon="-7.925777">
        <ele>429.740</ele>
        <time>2016-09-26T08:17:10Z</time>
      </trkpt>
      <trkpt lat="43.735205" lon="-7.925796">
        <ele>429.986</ele>
        <time>2016-09-26T08:17:11Z</time>
      </trkpt>
      <trkpt lat="43.735207" lon="-7.925818">
        <ele>430.250</ele>
        <time>2016-09-26T08:17:12Z</time>
      </trkpt>
      <trkpt lat="43.735211" lon="-7.925837">
        <ele>430.332</ele>
        <time>2016-09-26T08:17:13Z</time>
      </trkpt>
      <trkpt lat="43.735216" lon="-7.925856">
        <ele>430.645</ele>
        <time>2016-09-26T08:17:14Z</time>
      </trkpt>
      <trkpt lat="43.735221" lon="-7.925875">
        <ele>430.893</ele>
        <time>2016-09-26T08:17:15Z</time>
      </trkpt>
      <trkpt lat="43.735230" lon="-7.925896">
        <ele>430.993</ele>
        <time>2016-09-26T08:17:16Z</time>
      </trkpt>
      <trkpt lat="43.735236" lon="-7.925915">
        <ele>430.965</ele>
        <time>2016-09-26T08:17:17Z</time>
      </trkpt>
      <trkpt lat="43.735240" lon="-7.925936">
        <ele>431.121</ele>
        <time>2016-09-26T08:17:18Z</time>
      </trkpt>
      <trkpt lat="43.735242" lon="-7.925956">
        <ele>431.308</ele>
        <time>2016-09-26T08:17:19Z</time>
      </trkpt>
      <trkpt lat="43.735243" lon="-7.925977">
        <ele>431.430</ele>
        <time>2016-09-26T08:17:20Z</time>
      </trkpt>
      <trkpt lat="43.735243" lon="-7.925999">
        <ele>431.745</ele>
        <time>2016-09-26T08:17:21Z</time>
      </trkpt>
      <trkpt lat="43.735244" lon="-7.926020">
        <ele>431.983</ele>
        <time>2016-09-26T08:17:22Z</time>
      </trkpt>
      <trkpt lat="43.735246" lon="-7.926042">
        <ele>432.059</ele>
        <time>2016-09-26T08:17:23Z</time>
      </trkpt>
      <trkpt lat="43.735248" lon="-7.926064">
        <ele>432.223</ele>
        <time>2016-09-26T08:17:24Z</time>
      </trkpt>
      <trkpt lat="43.735251" lon="-7.926085">
        <ele>432.395</ele>
        <time>2016-09-26T08:17:25Z</time>
      </trkpt>
      <trkpt lat="43.735253" lon="-7.926106">
        <ele>432.668</ele>
        <time>2016-09-26T08:17:26Z</time>
      </trkpt>
      <trkpt lat="43.735254" lon="-7.926124">
        <ele>432.816</ele>
        <time>2016-09-26T08:17:27Z</time>
      </trkpt>
      <trkpt lat="43.735255" lon="-7.926134">
        <ele>433.188</ele>
        <time>2016-09-26T08:17:28Z</time>
      </trkpt>
      <trkpt lat="43.735254" lon="-7.926136">
        <ele>433.424</ele>
        <time>2016-09-26T08:17:29Z</time>
      </trkpt>
      <trkpt lat="43.735253" lon="-7.926138">
        <ele>433.726</ele>
        <time>2016-09-26T08:17:30Z</time>
      </trkpt>
      <trkpt lat="43.735247" lon="-7.926146">
        <ele>433.808</ele>
        <time>2016-09-26T08:17:31Z</time>
      </trkpt>
      <trkpt lat="43.735241" lon="-7.926157">
        <ele>433.839</ele>
        <time>2016-09-26T08:17:32Z</time>
      </trkpt>
      <trkpt lat="43.735239" lon="-7.926171">
        <ele>433.874</ele>
        <time>2016-09-26T08:17:33Z</time>
      </trkpt>
      <trkpt lat="43.735239" lon="-7.926183">
        <ele>433.992</ele>
        <time>2016-09-26T08:17:34Z</time>
      </trkpt>
      <trkpt lat="43.735238" lon="-7.926198">
        <ele>434.298</ele>
        <time>2016-09-26T08:17:35Z</time>
      </trkpt>
      <trkpt lat="43.735239" lon="-7.926213">
        <ele>434.382</ele>
        <time>2016-09-26T08:17:36Z</time>
      </trkpt>
      <trkpt lat="43.735239" lon="-7.926229">
        <ele>434.324</ele>
        <time>2016-09-26T08:17:37Z</time>
      </trkpt>
      <trkpt lat="43.735239" lon="-7.926243">
        <ele>434.337</ele>
        <time>2016-09-26T08:17:38Z</time>
      </trkpt>
      <trkpt lat="43.735240" lon="-7.926257">
        <ele>434.445</ele>
        <time>2016-09-26T08:17:39Z</time>
      </trkpt>
      <trkpt lat="43.735240" lon="-7.926271">
        <ele>434.623</ele>
        <time>2016-09-26T08:17:40Z</time>
      </trkpt>
      <trkpt lat="43.735238" lon="-7.926285">
        <ele>434.783</ele>
        <time>2016-09-26T08:17:41Z</time>
      </trkpt>
      <trkpt lat="43.735235" lon="-7.926299">
        <ele>434.811</ele>
        <time>2016-09-26T08:17:42Z</time>
      </trkpt>
      <trkpt lat="43.735233" lon="-7.926314">
        <ele>435.008</ele>
        <time>2016-09-26T08:17:43Z</time>
      </trkpt>
      <trkpt lat="43.735229" lon="-7.926329">
        <ele>435.253</ele>
        <time>2016-09-26T08:17:44Z</time>
      </trkpt>
      <trkpt lat="43.735227" lon="-7.926345">
        <ele>435.538</ele>
        <time>2016-09-26T08:17:45Z</time>
      </trkpt>
      <trkpt lat="43.735225" lon="-7.926360">
        <ele>435.656</ele>
        <time>2016-09-26T08:17:46Z</time>
      </trkpt>
      <trkpt lat="43.735224" lon="-7.926375">
        <ele>435.732</ele>
        <time>2016-09-26T08:17:47Z</time>
      </trkpt>
      <trkpt lat="43.735223" lon="-7.926389">
        <ele>435.926</ele>
        <time>2016-09-26T08:17:48Z</time>
      </trkpt>
      <trkpt lat="43.735220" lon="-7.926404">
        <ele>436.168</ele>
        <time>2016-09-26T08:17:49Z</time>
      </trkpt>
      <trkpt lat="43.735216" lon="-7.926418">
        <ele>436.341</ele>
        <time>2016-09-26T08:17:50Z</time>
      </trkpt>
      <trkpt lat="43.735213" lon="-7.926432">
        <ele>436.599</ele>
        <time>2016-09-26T08:17:51Z</time>
      </trkpt>
      <trkpt lat="43.735210" lon="-7.926446">
        <ele>436.614</ele>
        <time>2016-09-26T08:17:52Z</time>
      </trkpt>
      <trkpt lat="43.735206" lon="-7.926462">
        <ele>436.554</ele>
        <time>2016-09-26T08:17:53Z</time>
      </trkpt>
      <trkpt lat="43.735203" lon="-7.926478">
        <ele>436.709</ele>
        <time>2016-09-26T08:17:54Z</time>
      </trkpt>
      <trkpt lat="43.735201" lon="-7.926494">
        <ele>436.808</ele>
        <time>2016-09-26T08:17:55Z</time>
      </trkpt>
      <trkpt lat="43.735198" lon="-7.926509">
        <ele>436.942</ele>
        <time>2016-09-26T08:17:56Z</time>
      </trkpt>
      <trkpt lat="43.735194" lon="-7.926524">
        <ele>437.137</ele>
        <time>2016-09-26T08:17:57Z</time>
      </trkpt>
      <trkpt lat="43.735190" lon="-7.926540">
        <ele>437.525</ele>
        <time>2016-09-26T08:17:58Z</time>
      </trkpt>
      <trkpt lat="43.735187" lon="-7.926554">
        <ele>437.681</ele>
        <time>2016-09-26T08:17:59Z</time>
      </trkpt>
      <trkpt lat="43.735183" lon="-7.926568">
        <ele>437.995</ele>
        <time>2016-09-26T08:18:00Z</time>
      </trkpt>
      <trkpt lat="43.735179" lon="-7.926583">
        <ele>438.057</ele>
        <time>2016-09-26T08:18:01Z</time>
      </trkpt>
      <trkpt lat="43.735176" lon="-7.926599">
        <ele>438.160</ele>
        <time>2016-09-26T08:18:02Z</time>
      </trkpt>
      <trkpt lat="43.735172" lon="-7.926613">
        <ele>438.478</ele>
        <time>2016-09-26T08:18:03Z</time>
      </trkpt>
      <trkpt lat="43.735170" lon="-7.926628">
        <ele>438.529</ele>
        <time>2016-09-26T08:18:04Z</time>
      </trkpt>
      <trkpt lat="43.735167" lon="-7.926642">
        <ele>438.600</ele>
        <time>2016-09-26T08:18:05Z</time>
      </trkpt>
      <trkpt lat="43.735164" lon="-7.926655">
        <ele>438.720</ele>
        <time>2016-09-26T08:18:06Z</time>
      </trkpt>
      <trkpt lat="43.735162" lon="-7.926670">
        <ele>438.908</ele>
        <time>2016-09-26T08:18:07Z</time>
      </trkpt>
      <trkpt lat="43.735160" lon="-7.926687">
        <ele>439.023</ele>
        <time>2016-09-26T08:18:08Z</time>
      </trkpt>
      <trkpt lat="43.735158" lon="-7.926704">
        <ele>439.168</ele>
        <time>2016-09-26T08:18:09Z</time>
      </trkpt>
      <trkpt lat="43.735156" lon="-7.926719">
        <ele>439.326</ele>
        <time>2016-09-26T08:18:10Z</time>
      </trkpt>
      <trkpt lat="43.735153" lon="-7.926734">
        <ele>439.532</ele>
        <time>2016-09-26T08:18:11Z</time>
      </trkpt>
      <trkpt lat="43.735149" lon="-7.926750">
        <ele>439.666</ele>
        <time>2016-09-26T08:18:12Z</time>
      </trkpt>
      <trkpt lat="43.735146" lon="-7.926766">
        <ele>439.958</ele>
        <time>2016-09-26T08:18:13Z</time>
      </trkpt>
      <trkpt lat="43.735141" lon="-7.926783">
        <ele>440.081</ele>
        <time>2016-09-26T08:18:14Z</time>
      </trkpt>
      <trkpt lat="43.735140" lon="-7.926800">
        <ele>440.229</ele>
        <time>2016-09-26T08:18:15Z</time>
      </trkpt>
      <trkpt lat="43.735138" lon="-7.926816">
        <ele>440.575</ele>
        <time>2016-09-26T08:18:16Z</time>
      </trkpt>
      <trkpt lat="43.735135" lon="-7.926832">
        <ele>440.628</ele>
        <time>2016-09-26T08:18:17Z</time>
      </trkpt>
      <trkpt lat="43.735131" lon="-7.926846">
        <ele>440.820</ele>
        <time>2016-09-26T08:18:18Z</time>
      </trkpt>
      <trkpt lat="43.735128" lon="-7.926861">
        <ele>440.908</ele>
        <time>2016-09-26T08:18:19Z</time>
      </trkpt>
      <trkpt lat="43.735125" lon="-7.926875">
        <ele>441.068</ele>
        <time>2016-09-26T08:18:20Z</time>
      </trkpt>
      <trkpt lat="43.735120" lon="-7.926890">
        <ele>441.223</ele>
        <time>2016-09-26T08:18:21Z</time>
      </trkpt>
      <trkpt lat="43.735116" lon="-7.926905">
        <ele>441.451</ele>
        <time>2016-09-26T08:18:22Z</time>
      </trkpt>
      <trkpt lat="43.735112" lon="-7.926918">
        <ele>441.537</ele>
        <time>2016-09-26T08:18:23Z</time>
      </trkpt>
      <trkpt lat="43.735108" lon="-7.926932">
        <ele>441.751</ele>
        <time>2016-09-26T08:18:24Z</time>
      </trkpt>
      <trkpt lat="43.735104" lon="-7.926947">
        <ele>441.833</ele>
        <time>2016-09-26T08:18:25Z</time>
      </trkpt>
      <trkpt lat="43.735099" lon="-7.926962">
        <ele>442.026</ele>
        <time>2016-09-26T08:18:26Z</time>
      </trkpt>
      <trkpt lat="43.735095" lon="-7.926976">
        <ele>442.254</ele>
        <time>2016-09-26T08:18:27Z</time>
      </trkpt>
      <trkpt lat="43.735092" lon="-7.926991">
        <ele>442.329</ele>
        <time>2016-09-26T08:18:28Z</time>
      </trkpt>
      <trkpt lat="43.735089" lon="-7.927005">
        <ele>442.300</ele>
        <time>2016-09-26T08:18:29Z</time>
      </trkpt>
      <trkpt lat="43.735085" lon="-7.927018">
        <ele>442.420</ele>
        <time>2016-09-26T08:18:30Z</time>
      </trkpt>
      <trkpt lat="43.735080" lon="-7.927032">
        <ele>442.608</ele>
        <time>2016-09-26T08:18:31Z</time>
      </trkpt>
      <trkpt lat="43.735074" lon="-7.927044">
        <ele>442.693</ele>
        <time>2016-09-26T08:18:32Z</time>
      </trkpt>
      <trkpt lat="43.735070" lon="-7.927058">
        <ele>442.758</ele>
        <time>2016-09-26T08:18:33Z</time>
      </trkpt>
      <trkpt lat="43.735065" lon="-7.927070">
        <ele>442.896</ele>
        <time>2016-09-26T08:18:34Z</time>
      </trkpt>
      <trkpt lat="43.735061" lon="-7.927084">
        <ele>442.912</ele>
        <time>2016-09-26T08:18:35Z</time>
      </trkpt>
      <trkpt lat="43.735056" lon="-7.927098">
        <ele>443.216</ele>
        <time>2016-09-26T08:18:36Z</time>
      </trkpt>
      <trkpt lat="43.735051" lon="-7.927111">
        <ele>443.418</ele>
        <time>2016-09-26T08:18:37Z</time>
      </trkpt>
      <trkpt lat="43.735046" lon="-7.927125">
        <ele>443.621</ele>
        <time>2016-09-26T08:18:38Z</time>
      </trkpt>
      <trkpt lat="43.735042" lon="-7.927140">
        <ele>443.959</ele>
        <time>2016-09-26T08:18:39Z</time>
      </trkpt>
      <trkpt lat="43.735037" lon="-7.927155">
        <ele>444.178</ele>
        <time>2016-09-26T08:18:40Z</time>
      </trkpt>
      <trkpt lat="43.735032" lon="-7.927169">
        <ele>443.933</ele>
        <time>2016-09-26T08:18:41Z</time>
      </trkpt>
      <trkpt lat="43.735027" lon="-7.927183">
        <ele>444.326</ele>
        <time>2016-09-26T08:18:42Z</time>
      </trkpt>
      <trkpt lat="43.735022" lon="-7.927196">
        <ele>444.308</ele>
        <time>2016-09-26T08:18:43Z</time>
      </trkpt>
      <trkpt lat="43.735016" lon="-7.927210">
        <ele>444.468</ele>
        <time>2016-09-26T08:18:44Z</time>
      </trkpt>
      <trkpt lat="43.735011" lon="-7.927225">
        <ele>444.593</ele>
        <time>2016-09-26T08:18:45Z</time>
      </trkpt>
      <trkpt lat="43.735005" lon="-7.927240">
        <ele>444.811</ele>
        <time>2016-09-26T08:18:46Z</time>
      </trkpt>
      <trkpt lat="43.734999" lon="-7.927255">
        <ele>444.827</ele>
        <time>2016-09-26T08:18:47Z</time>
      </trkpt>
      <trkpt lat="43.734995" lon="-7.927268">
        <ele>444.921</ele>
        <time>2016-09-26T08:18:48Z</time>
      </trkpt>
      <trkpt lat="43.734989" lon="-7.927280">
        <ele>445.153</ele>
        <time>2016-09-26T08:18:49Z</time>
      </trkpt>
      <trkpt lat="43.734984" lon="-7.927293">
        <ele>445.256</ele>
        <time>2016-09-26T08:18:50Z</time>
      </trkpt>
      <trkpt lat="43.734980" lon="-7.927307">
        <ele>445.634</ele>
        <time>2016-09-26T08:18:51Z</time>
      </trkpt>
      <trkpt lat="43.734975" lon="-7.927319">
        <ele>445.747</ele>
        <time>2016-09-26T08:18:52Z</time>
      </trkpt>
      <trkpt lat="43.734969" lon="-7.927332">
        <ele>446.029</ele>
        <time>2016-09-26T08:18:53Z</time>
      </trkpt>
      <trkpt lat="43.734962" lon="-7.927344">
        <ele>446.021</ele>
        <time>2016-09-26T08:18:54Z</time>
      </trkpt>
      <trkpt lat="43.734957" lon="-7.927356">
        <ele>446.108</ele>
        <time>2016-09-26T08:18:55Z</time>
      </trkpt>
      <trkpt lat="43.734953" lon="-7.927368">
        <ele>446.485</ele>
        <time>2016-09-26T08:18:56Z</time>
      </trkpt>
      <trkpt lat="43.734949" lon="-7.927380">
        <ele>446.640</ele>
        <time>2016-09-26T08:18:57Z</time>
      </trkpt>
      <trkpt lat="43.734943" lon="-7.927391">
        <ele>447.048</ele>
        <time>2016-09-26T08:18:58Z</time>
      </trkpt>
      <trkpt lat="43.734937" lon="-7.927404">
        <ele>447.164</ele>
        <time>2016-09-26T08:18:59Z</time>
      </trkpt>
      <trkpt lat="43.734931" lon="-7.927417">
        <ele>447.188</ele>
        <time>2016-09-26T08:19:00Z</time>
      </trkpt>
      <trkpt lat="43.734925" lon="-7.927430">
        <ele>447.190</ele>
        <time>2016-09-26T08:19:01Z</time>
      </trkpt>
      <trkpt lat="43.734918" lon="-7.927442">
        <ele>447.163</ele>
        <time>2016-09-26T08:19:02Z</time>
      </trkpt>
      <trkpt lat="43.734912" lon="-7.927456">
        <ele>447.321</ele>
        <time>2016-09-26T08:19:03Z</time>
      </trkpt>
      <trkpt lat="43.734905" lon="-7.927469">
        <ele>447.642</ele>
        <time>2016-09-26T08:19:04Z</time>
      </trkpt>
      <trkpt lat="43.734898" lon="-7.927482">
        <ele>447.722</ele>
        <time>2016-09-26T08:19:05Z</time>
      </trkpt>
      <trkpt lat="43.734893" lon="-7.927496">
        <ele>448.014</ele>
        <time>2016-09-26T08:19:06Z</time>
      </trkpt>
      <trkpt lat="43.734886" lon="-7.927510">
        <ele>447.908</ele>
        <time>2016-09-26T08:19:07Z</time>
      </trkpt>
      <trkpt lat="43.734880" lon="-7.927524">
        <ele>448.135</ele>
        <time>2016-09-26T08:19:08Z</time>
      </trkpt>
      <trkpt lat="43.734873" lon="-7.927538">
        <ele>448.530</ele>
        <time>2016-09-26T08:19:09Z</time>
      </trkpt>
      <trkpt lat="43.734867" lon="-7.927553">
        <ele>448.588</ele>
        <time>2016-09-26T08:19:10Z</time>
      </trkpt>
      <trkpt lat="43.734861" lon="-7.927566">
        <ele>448.734</ele>
        <time>2016-09-26T08:19:11Z</time>
      </trkpt>
      <trkpt lat="43.734855" lon="-7.927580">
        <ele>448.798</ele>
        <time>2016-09-26T08:19:12Z</time>
      </trkpt>
      <trkpt lat="43.734849" lon="-7.927593">
        <ele>448.940</ele>
        <time>2016-09-26T08:19:13Z</time>
      </trkpt>
      <trkpt lat="43.734843" lon="-7.927607">
        <ele>449.263</ele>
        <time>2016-09-26T08:19:14Z</time>
      </trkpt>
      <trkpt lat="43.734837" lon="-7.927621">
        <ele>449.481</ele>
        <time>2016-09-26T08:19:15Z</time>
      </trkpt>
      <trkpt lat="43.734830" lon="-7.927634">
        <ele>449.741</ele>
        <time>2016-09-26T08:19:16Z</time>
      </trkpt>
      <trkpt lat="43.734824" lon="-7.927648">
        <ele>450.081</ele>
        <time>2016-09-26T08:19:17Z</time>
      </trkpt>
      <trkpt lat="43.734818" lon="-7.927661">
        <ele>450.209</ele>
        <time>2016-09-26T08:19:18Z</time>
      </trkpt>
      <trkpt lat="43.734812" lon="-7.927674">
        <ele>450.408</ele>
        <time>2016-09-26T08:19:19Z</time>
      </trkpt>
      <trkpt lat="43.734806" lon="-7.927687">
        <ele>450.665</ele>
        <time>2016-09-26T08:19:20Z</time>
      </trkpt>
      <trkpt lat="43.734799" lon="-7.927701">
        <ele>450.760</ele>
        <time>2016-09-26T08:19:21Z</time>
      </trkpt>
      <trkpt lat="43.734793" lon="-7.927715">
        <ele>450.928</ele>
        <time>2016-09-26T08:19:22Z</time>
      </trkpt>
      <trkpt lat="43.734788" lon="-7.927728">
        <ele>451.074</ele>
        <time>2016-09-26T08:19:23Z</time>
      </trkpt>
      <trkpt lat="43.734782" lon="-7.927741">
        <ele>451.078</ele>
        <time>2016-09-26T08:19:24Z</time>
      </trkpt>
      <trkpt lat="43.734776" lon="-7.927754">
        <ele>451.290</ele>
        <time>2016-09-26T08:19:25Z</time>
      </trkpt>
      <trkpt lat="43.734770" lon="-7.927766">
        <ele>451.483</ele>
        <time>2016-09-26T08:19:26Z</time>
      </trkpt>
      <trkpt lat="43.734765" lon="-7.927779">
        <ele>451.591</ele>
        <time>2016-09-26T08:19:27Z</time>
      </trkpt>
      <trkpt lat="43.734759" lon="-7.927793">
        <ele>451.755</ele>
        <time>2016-09-26T08:19:28Z</time>
      </trkpt>
      <trkpt lat="43.734754" lon="-7.927805">
        <ele>451.907</ele>
        <time>2016-09-26T08:19:29Z</time>
      </trkpt>
      <trkpt lat="43.734748" lon="-7.927818">
        <ele>452.017</ele>
        <time>2016-09-26T08:19:30Z</time>
      </trkpt>
      <trkpt lat="43.734742" lon="-7.927830">
        <ele>452.308</ele>
        <time>2016-09-26T08:19:31Z</time>
      </trkpt>
      <trkpt lat="43.734735" lon="-7.927844">
        <ele>452.456</ele>
        <time>2016-09-26T08:19:32Z</time>
      </trkpt>
      <trkpt lat="43.734729" lon="-7.927858">
        <ele>452.521</ele>
        <time>2016-09-26T08:19:33Z</time>
      </trkpt>
      <trkpt lat="43.734723" lon="-7.927871">
        <ele>452.599</ele>
        <time>2016-09-26T08:19:34Z</time>
      </trkpt>
      <trkpt lat="43.734717" lon="-7.927885">
        <ele>452.775</ele>
        <time>2016-09-26T08:19:35Z</time>
      </trkpt>
      <trkpt lat="43.734711" lon="-7.927899">
        <ele>452.959</ele>
        <time>2016-09-26T08:19:36Z</time>
      </trkpt>
      <trkpt lat="43.734705" lon="-7.927912">
        <ele>453.171</ele>
        <time>2016-09-26T08:19:37Z</time>
      </trkpt>
      <trkpt lat="43.734699" lon="-7.927926">
        <ele>453.344</ele>
        <time>2016-09-26T08:19:38Z</time>
      </trkpt>
      <trkpt lat="43.734693" lon="-7.927939">
        <ele>453.672</ele>
        <time>2016-09-26T08:19:39Z</time>
      </trkpt>
      <trkpt lat="43.734687" lon="-7.927953">
        <ele>453.842</ele>
        <time>2016-09-26T08:19:40Z</time>
      </trkpt>
      <trkpt lat="43.734681" lon="-7.927967">
        <ele>454.022</ele>
        <time>2016-09-26T08:19:41Z</time>
      </trkpt>
      <trkpt lat="43.734675" lon="-7.927981">
        <ele>454.414</ele>
        <time>2016-09-26T08:19:42Z</time>
      </trkpt>
      <trkpt lat="43.734670" lon="-7.927994">
        <ele>454.508</ele>
        <time>2016-09-26T08:19:43Z</time>
      </trkpt>
      <trkpt lat="43.734664" lon="-7.928007">
        <ele>454.725</ele>
        <time>2016-09-26T08:19:44Z</time>
      </trkpt>
      <trkpt lat="43.734659" lon="-7.928020">
        <ele>454.880</ele>
        <time>2016-09-26T08:19:45Z</time>
      </trkpt>
      <trkpt lat="43.734653" lon="-7.928033">
        <ele>455.138</ele>
        <time>2016-09-26T08:19:46Z</time>
      </trkpt>
      <trkpt lat="43.734648" lon="-7.928046">
        <ele>455.124</ele>
        <time>2016-09-26T08:19:47Z</time>
      </trkpt>
      <trkpt lat="43.734642" lon="-7.928059">
        <ele>455.378</ele>
        <time>2016-09-26T08:19:48Z</time>
      </trkpt>
      <trkpt lat="43.734636" lon="-7.928073">
        <ele>455.570</ele>
        <time>2016-09-26T08:19:49Z</time>
      </trkpt>
      <trkpt lat="43.734629" lon="-7.928086">
        <ele>455.943</ele>
        <time>2016-09-26T08:19:50Z</time>
      </trkpt>
      <trkpt lat="43.734623" lon="-7.928099">
        <ele>456.041</ele>
        <time>2016-09-26T08:19:51Z</time>
      </trkpt>
      <trkpt lat="43.734617" lon="-7.928113">
        <ele>456.288</ele>
        <time>2016-09-26T08:19:52Z</time>
      </trkpt>
      <trkpt lat="43.734612" lon="-7.928126">
        <ele>456.424</ele>
        <time>2016-09-26T08:19:53Z</time>
      </trkpt>
      <trkpt lat="43.734606" lon="-7.928138">
        <ele>456.626</ele>
        <time>2016-09-26T08:19:54Z</time>
      </trkpt>
      <trkpt lat="43.734601" lon="-7.928150">
        <ele>456.708</ele>
        <time>2016-09-26T08:19:55Z</time>
      </trkpt>
      <trkpt lat="43.734595" lon="-7.928163">
        <ele>456.929</ele>
        <time>2016-09-26T08:19:56Z</time>
      </trkpt>
      <trkpt lat="43.734590" lon="-7.928176">
        <ele>457.164</ele>
        <time>2016-09-26T08:19:57Z</time>
      </trkpt>
      <trkpt lat="43.734585" lon="-7.928189">
        <ele>457.352</ele>
        <time>2016-09-26T08:19:58Z</time>
      </trkpt>
      <trkpt lat="43.734580" lon="-7.928203">
        <ele>457.648</ele>
        <time>2016-09-26T08:19:59Z</time>
      </trkpt>
      <trkpt lat="43.734574" lon="-7.928217">
        <ele>457.962</ele>
        <time>2016-09-26T08:20:00Z</time>
      </trkpt>
      <trkpt lat="43.734568" lon="-7.928232">
        <ele>458.134</ele>
        <time>2016-09-26T08:20:01Z</time>
      </trkpt>
      <trkpt lat="43.734562" lon="-7.928246">
        <ele>458.327</ele>
        <time>2016-09-26T08:20:02Z</time>
      </trkpt>
      <trkpt lat="43.734556" lon="-7.928261">
        <ele>458.425</ele>
        <time>2016-09-26T08:20:03Z</time>
      </trkpt>
      <trkpt lat="43.734551" lon="-7.928275">
        <ele>458.816</ele>
        <time>2016-09-26T08:20:04Z</time>
      </trkpt>
      <trkpt lat="43.734544" lon="-7.928288">
        <ele>459.076</ele>
        <time>2016-09-26T08:20:05Z</time>
      </trkpt>
      <trkpt lat="43.734538" lon="-7.928301">
        <ele>459.113</ele>
        <time>2016-09-26T08:20:06Z</time>
      </trkpt>
      <trkpt lat="43.734531" lon="-7.928315">
        <ele>459.208</ele>
        <time>2016-09-26T08:20:07Z</time>
      </trkpt>
      <trkpt lat="43.734525" lon="-7.928328">
        <ele>459.372</ele>
        <time>2016-09-26T08:20:08Z</time>
      </trkpt>
      <trkpt lat="43.734519" lon="-7.928340">
        <ele>459.587</ele>
        <time>2016-09-26T08:20:09Z</time>
      </trkpt>
      <trkpt lat="43.734514" lon="-7.928353">
        <ele>459.735</ele>
        <time>2016-09-26T08:20:10Z</time>
      </trkpt>
      <trkpt lat="43.734508" lon="-7.928365">
        <ele>459.971</ele>
        <time>2016-09-26T08:20:11Z</time>
      </trkpt>
      <trkpt lat="43.734504" lon="-7.928377">
        <ele>459.965</ele>
        <time>2016-09-26T08:20:12Z</time>
      </trkpt>
      <trkpt lat="43.734499" lon="-7.928389">
        <ele>460.377</ele>
        <time>2016-09-26T08:20:13Z</time>
      </trkpt>
      <trkpt lat="43.734493" lon="-7.928401">
        <ele>460.550</ele>
        <time>2016-09-26T08:20:14Z</time>
      </trkpt>
      <trkpt lat="43.734487" lon="-7.928413">
        <ele>460.768</ele>
        <time>2016-09-26T08:20:15Z</time>
      </trkpt>
      <trkpt lat="43.734482" lon="-7.928425">
        <ele>460.842</ele>
        <time>2016-09-26T08:20:16Z</time>
      </trkpt>
      <trkpt lat="43.734476" lon="-7.928436">
        <ele>461.122</ele>
        <time>2016-09-26T08:20:17Z</time>
      </trkpt>
      <trkpt lat="43.734471" lon="-7.928448">
        <ele>461.314</ele>
        <time>2016-09-26T08:20:18Z</time>
      </trkpt>
      <trkpt lat="43.734465" lon="-7.928459">
        <ele>461.308</ele>
        <time>2016-09-26T08:20:19Z</time>
      </trkpt>
      <trkpt lat="43.734459" lon="-7.928471">
        <ele>461.525</ele>
        <time>2016-09-26T08:20:20Z</time>
      </trkpt>
      <trkpt lat="43.734454" lon="-7.928484">
        <ele>461.740</ele>
        <time>2016-09-26T08:20:21Z</time>
      </trkpt>
      <trkpt lat="43.734449" lon="-7.928497">
        <ele>461.868</ele>
        <time>2016-09-26T08:20:22Z</time>
      </trkpt>
      <trkpt lat="43.734444" lon="-7.928510">
        <ele>462.154</ele>
        <time>2016-09-26T08:20:23Z</time>
      </trkpt>
      <trkpt lat="43.734439" lon="-7.928523">
        <ele>462.288</ele>
        <time>2016-09-26T08:20:24Z</time>
      </trkpt>
      <trkpt lat="43.734435" lon="-7.928535">
        <ele>462.470</ele>
        <time>2016-09-26T08:20:25Z</time>
      </trkpt>
      <trkpt lat="43.734430" lon="-7.928547">
        <ele>462.773</ele>
        <time>2016-09-26T08:20:26Z</time>
      </trkpt>
      <trkpt lat="43.734425" lon="-7.928559">
        <ele>462.921</ele>
        <time>2016-09-26T08:20:27Z</time>
      </trkpt>
      <trkpt lat="43.734420" lon="-7.928571">
        <ele>463.042</ele>
        <time>2016-09-26T08:20:28Z</time>
      </trkpt>
      <trkpt lat="43.734415" lon="-7.928583">
        <ele>463.322</ele>
        <time>2016-09-26T08:20:29Z</time>
      </trkpt>
      <trkpt lat="43.734409" lon="-7.928593">
        <ele>463.514</ele>
        <time>2016-09-26T08:20:30Z</time>
      </trkpt>
      <trkpt lat="43.734403" lon="-7.928605">
        <ele>463.808</ele>
        <time>2016-09-26T08:20:31Z</time>
      </trkpt>
      <trkpt lat="43.734398" lon="-7.928617">
        <ele>464.195</ele>
        <time>2016-09-26T08:20:32Z</time>
      </trkpt>
      <trkpt lat="43.734393" lon="-7.928629">
        <ele>464.210</ele>
        <time>2016-09-26T08:20:33Z</time>
      </trkpt>
      <trkpt lat="43.734388" lon="-7.928642">
        <ele>464.418</ele>
        <time>2016-09-26T08:20:34Z</time>
      </trkpt>
      <trkpt lat="43.734382" lon="-7.928654">
        <ele>464.574</ele>
        <time>2016-09-26T08:20:35Z</time>
      </trkpt>
      <trkpt lat="43.734377" lon="-7.928667">
        <ele>464.528</ele>
        <time>2016-09-26T08:20:36Z</time>
      </trkpt>
      <trkpt lat="43.734372" lon="-7.928680">
        <ele>464.870</ele>
        <time>2016-09-26T08:20:37Z</time>
      </trkpt>
      <trkpt lat="43.734367" lon="-7.928693">
        <ele>464.853</ele>
        <time>2016-09-26T08:20:38Z</time>
      </trkpt>
      <trkpt lat="43.734361" lon="-7.928706">
        <ele>464.991</ele>
        <time>2016-09-26T08:20:39Z</time>
      </trkpt>
      <trkpt lat="43.734356" lon="-7.928718">
        <ele>465.142</ele>
        <time>2016-09-26T08:20:40Z</time>
      </trkpt>
      <trkpt lat="43.734350" lon="-7.928731">
        <ele>465.222</ele>
        <time>2016-09-26T08:20:41Z</time>
      </trkpt>
      <trkpt lat="43.734344" lon="-7.928744">
        <ele>465.314</ele>
        <time>2016-09-26T08:20:42Z</time>
      </trkpt>
      <trkpt lat="43.734337" lon="-7.928758">
        <ele>465.308</ele>
        <time>2016-09-26T08:20:43Z</time>
      </trkpt>
      <trkpt lat="43.734330" lon="-7.928771">
        <ele>465.595</ele>
        <time>2016-09-26T08:20:44Z</time>
      </trkpt>
      <trkpt lat="43.734323" lon="-7.928784">
        <ele>465.810</ele>
        <time>2016-09-26T08:20:45Z</time>
      </trkpt>
      <trkpt lat="43.734317" lon="-7.928796">
        <ele>466.138</ele>
        <time>2016-09-26T08:20:46Z</time>
      </trkpt>
      <trkpt lat="43.734311" lon="-7.928808">
        <ele>466.314</ele>
        <time>2016-09-26T08:20:47Z</time>
      </trkpt>
      <trkpt lat="43.734305" lon="-7.928821">
        <ele>466.568</ele>
        <time>2016-09-26T08:20:48Z</time>
      </trkpt>
      <trkpt lat="43.734298" lon="-7.928832">
        <ele>466.960</ele>
        <time>2016-09-26T08:20:49Z</time>
      </trkpt>
      <trkpt lat="43.734291" lon="-7.928845">
        <ele>466.853</ele>
        <time>2016-09-26T08:20:50Z</time>
      </trkpt>
      <trkpt lat="43.734285" lon="-7.928857">
        <ele>467.291</ele>
        <time>2016-09-26T08:20:51Z</time>
      </trkpt>
      <trkpt lat="43.734277" lon="-7.928869">
        <ele>467.375</ele>
        <time>2016-09-26T08:20:52Z</time>
      </trkpt>
      <trkpt lat="43.734270" lon="-7.928880">
        <ele>467.328</ele>
        <time>2016-09-26T08:20:53Z</time>
      </trkpt>
      <trkpt lat="43.734263" lon="-7.928891">
        <ele>467.520</ele>
        <time>2016-09-26T08:20:54Z</time>
      </trkpt>
      <trkpt lat="43.734256" lon="-7.928903">
        <ele>467.508</ele>
        <time>2016-09-26T08:20:55Z</time>
      </trkpt>
      <trkpt lat="43.734248" lon="-7.928914">
        <ele>467.748</ele>
        <time>2016-09-26T08:20:56Z</time>
      </trkpt>
      <trkpt lat="43.734240" lon="-7.928926">
        <ele>467.883</ele>
        <time>2016-09-26T08:20:57Z</time>
      </trkpt>
      <trkpt lat="43.734232" lon="-7.928936">
        <ele>467.911</ele>
        <time>2016-09-26T08:20:58Z</time>
      </trkpt>
      <trkpt lat="43.734223" lon="-7.928947">
        <ele>468.127</ele>
        <time>2016-09-26T08:20:59Z</time>
      </trkpt>
      <trkpt lat="43.734215" lon="-7.928957">
        <ele>468.271</ele>
        <time>2016-09-26T08:21:00Z</time>
      </trkpt>
      <trkpt lat="43.734207" lon="-7.928967">
        <ele>468.423</ele>
        <time>2016-09-26T08:21:01Z</time>
      </trkpt>
      <trkpt lat="43.734199" lon="-7.928978">
        <ele>468.796</ele>
        <time>2016-09-26T08:21:02Z</time>
      </trkpt>
      <trkpt lat="43.734191" lon="-7.928988">
        <ele>469.064</ele>
        <time>2016-09-26T08:21:03Z</time>
      </trkpt>
      <trkpt lat="43.734182" lon="-7.928998">
        <ele>469.378</ele>
        <time>2016-09-26T08:21:04Z</time>
      </trkpt>
      <trkpt lat="43.734173" lon="-7.929008">
        <ele>469.533</ele>
        <time>2016-09-26T08:21:05Z</time>
      </trkpt>
      <trkpt lat="43.734165" lon="-7.929019">
        <ele>469.526</ele>
        <time>2016-09-26T08:21:06Z</time>
      </trkpt>
      <trkpt lat="43.734157" lon="-7.929029">
        <ele>469.608</ele>
        <time>2016-09-26T08:21:07Z</time>
      </trkpt>
      <trkpt lat="43.734148" lon="-7.929039">
        <ele>469.998</ele>
        <time>2016-09-26T08:21:08Z</time>
      </trkpt>
      <trkpt lat="43.734138" lon="-7.929050">
        <ele>470.273</ele>
        <time>2016-09-26T08:21:09Z</time>
      </trkpt>
      <trkpt lat="43.734130" lon="-7.929062">
        <ele>470.691</ele>
        <time>2016-09-26T08:21:10Z</time>
      </trkpt>
      <trkpt lat="43.734121" lon="-7.929073">
        <ele>470.697</ele>
        <time>2016-09-26T08:21:11Z</time>
      </trkpt>
      <trkpt lat="43.734112" lon="-7.929084">
        <ele>470.651</ele>
        <time>2016-09-26T08:21:12Z</time>
      </trkpt>
      <trkpt lat="43.734104" lon="-7.929094">
        <ele>470.823</ele>
        <time>2016-09-26T08:21:13Z</time>
      </trkpt>
      <trkpt lat="43.734095" lon="-7.929104">
        <ele>470.926</ele>
        <time>2016-09-26T08:21:14Z</time>
      </trkpt>
      <trkpt lat="43.734087" lon="-7.929114">
        <ele>471.134</ele>
        <time>2016-09-26T08:21:15Z</time>
      </trkpt>
      <trkpt lat="43.734078" lon="-7.929124">
        <ele>471.279</ele>
        <time>2016-09-26T08:21:16Z</time>
      </trkpt>
      <trkpt lat="43.734068" lon="-7.929134">
        <ele>471.305</ele>
        <time>2016-09-26T08:21:17Z</time>
      </trkpt>
      <trkpt lat="43.734059" lon="-7.929144">
        <ele>471.325</ele>
        <time>2016-09-26T08:21:18Z</time>
      </trkpt>
      <trkpt lat="43.734050" lon="-7.929154">
        <ele>471.408</ele>
        <time>2016-09-26T08:21:19Z</time>
      </trkpt>
      <trkpt lat="43.734040" lon="-7.929164">
        <ele>471.558</ele>
        <time>2016-09-26T08:21:20Z</time>
      </trkpt>
      <trkpt lat="43.734032" lon="-7.929175">
        <ele>471.543</ele>
        <time>2016-09-26T08:21:21Z</time>
      </trkpt>
      <trkpt lat="43.734023" lon="-7.929184">
        <ele>471.721</ele>
        <time>2016-09-26T08:21:22Z</time>
      </trkpt>
      <trkpt lat="43.734015" lon="-7.929193">
        <ele>471.787</ele>
        <time>2016-09-26T08:21:23Z</time>
      </trkpt>
      <trkpt lat="43.734006" lon="-7.929202">
        <ele>472.061</ele>
        <time>2016-09-26T08:21:24Z</time>
      </trkpt>
      <trkpt lat="43.733996" lon="-7.929210">
        <ele>472.363</ele>
        <time>2016-09-26T08:21:25Z</time>
      </trkpt>
      <trkpt lat="43.733987" lon="-7.929220">
        <ele>472.546</ele>
        <time>2016-09-26T08:21:26Z</time>
      </trkpt>
      <trkpt lat="43.733977" lon="-7.929230">
        <ele>472.654</ele>
        <time>2016-09-26T08:21:27Z</time>
      </trkpt>
      <trkpt lat="43.733966" lon="-7.929239">
        <ele>472.787</ele>
        <time>2016-09-26T08:21:28Z</time>
      </trkpt>
      <trkpt lat="43.733957" lon="-7.929248">
        <ele>472.942</ele>
        <time>2016-09-26T08:21:29Z</time>
      </trkpt>
      <trkpt lat="43.733947" lon="-7.929257">
        <ele>473.026</ele>
        <time>2016-09-26T08:21:30Z</time>
      </trkpt>
      <trkpt lat="43.733937" lon="-7.929266">
        <ele>473.008</ele>
        <time>2016-09-26T08:21:31Z</time>
      </trkpt>
      <trkpt lat="43.733927" lon="-7.929274">
        <ele>473.249</ele>
        <time>2016-09-26T08:21:32Z</time>
      </trkpt>
      <trkpt lat="43.733917" lon="-7.929283">
        <ele>473.424</ele>
        <time>2016-09-26T08:21:33Z</time>
      </trkpt>
      <trkpt lat="43.733908" lon="-7.929293">
        <ele>473.762</ele>
        <time>2016-09-26T08:21:34Z</time>
      </trkpt>
      <trkpt lat="43.733898" lon="-7.929304">
        <ele>473.738</ele>
        <time>2016-09-26T08:21:35Z</time>
      </trkpt>
      <trkpt lat="43.733888" lon="-7.929312">
        <ele>473.872</ele>
        <time>2016-09-26T08:21:36Z</time>
      </trkpt>
      <trkpt lat="43.733879" lon="-7.929321">
        <ele>474.024</ele>
        <time>2016-09-26T08:21:37Z</time>
      </trkpt>
      <trkpt lat="43.733869" lon="-7.929329">
        <ele>474.177</ele>
        <time>2016-09-26T08:21:38Z</time>
      </trkpt>
      <trkpt lat="43.733859" lon="-7.929336">
        <ele>474.465</ele>
        <time>2016-09-26T08:21:39Z</time>
      </trkpt>
      <trkpt lat="43.733848" lon="-7.929342">
        <ele>474.522</ele>
        <time>2016-09-26T08:21:40Z</time>
      </trkpt>
      <trkpt lat="43.733837" lon="-7.929347">
        <ele>474.562</ele>
        <time>2016-09-26T08:21:41Z</time>
      </trkpt>
      <trkpt lat="43.733827" lon="-7.929353">
        <ele>474.708</ele>
        <time>2016-09-26T08:21:42Z</time>
      </trkpt>
      <trkpt lat="43.733817" lon="-7.929361">
        <ele>475.008</ele>
        <time>2016-09-26T08:21:43Z</time>
      </trkpt>
      <trkpt lat="43.733807" lon="-7.929368">
        <ele>475.213</ele>
        <time>2016-09-26T08:21:44Z</time>
      </trkpt>
      <trkpt lat="43.733796" lon="-7.929374">
        <ele>475.448</ele>
        <time>2016-09-26T08:21:45Z</time>
      </trkpt>
      <trkpt lat="43.733786" lon="-7.929381">
        <ele>475.556</ele>
        <time>2016-09-26T08:21:46Z</time>
      </trkpt>
      <trkpt lat="43.733777" lon="-7.929389">
        <ele>475.552</ele>
        <time>2016-09-26T08:21:47Z</time>
      </trkpt>
      <trkpt lat="43.733766" lon="-7.929396">
        <ele>475.626</ele>
        <time>2016-09-26T08:21:48Z</time>
      </trkpt>
      <trkpt lat="43.733756" lon="-7.929402">
        <ele>475.818</ele>
        <time>2016-09-26T08:21:49Z</time>
      </trkpt>
      <trkpt lat="43.733747" lon="-7.929410">
        <ele>476.071</ele>
        <time>2016-09-26T08:21:50Z</time>
      </trkpt>
      <trkpt lat="43.733739" lon="-7.929419">
        <ele>476.269</ele>
        <time>2016-09-26T08:21:51Z</time>
      </trkpt>
      <trkpt lat="43.733730" lon="-7.929426">
        <ele>476.247</ele>
        <time>2016-09-26T08:21:52Z</time>
      </trkpt>
      <trkpt lat="43.733721" lon="-7.929432">
        <ele>476.329</ele>
        <time>2016-09-26T08:21:53Z</time>
      </trkpt>
      <trkpt lat="43.733718" lon="-7.929436">
        <ele>476.521</ele>
        <time>2016-09-26T08:21:54Z</time>
      </trkpt>
      <trkpt lat="43.733719" lon="-7.929436">
        <ele>476.608</ele>
        <time>2016-09-26T08:21:55Z</time>
      </trkpt>
      <trkpt lat="43.733717" lon="-7.929437">
        <ele>476.555</ele>
        <time>2016-09-26T08:21:56Z</time>
      </trkpt>
      <trkpt lat="43.733718" lon="-7.929439">
        <ele>476.480</ele>
        <time>2016-09-26T08:21:57Z</time>
      </trkpt>
      <trkpt lat="43.733718" lon="-7.929439">
        <ele>476.498</ele>
        <time>2016-09-26T08:21:57Z</time>
      </trkpt>
      <trkpt lat="43.733718" lon="-7.929439">
        <ele>476.424</ele>
        <time>2016-09-26T08:21:57Z</time>
      </trkpt>
      <trkpt lat="43.733611" lon="-7.929518">
        <ele>477.788</ele>
        <time>2016-09-26T08:22:15Z</time>
      </trkpt>
      <trkpt lat="43.733599" lon="-7.929529">
        <ele>477.980</ele>
        <time>2016-09-26T08:22:16Z</time>
      </trkpt>
      <trkpt lat="43.733586" lon="-7.929538">
        <ele>477.993</ele>
        <time>2016-09-26T08:22:17Z</time>
      </trkpt>
      <trkpt lat="43.733575" lon="-7.929549">
        <ele>478.021</ele>
        <time>2016-09-26T08:22:18Z</time>
      </trkpt>
      <trkpt lat="43.733562" lon="-7.929556">
        <ele>478.267</ele>
        <time>2016-09-26T08:22:19Z</time>
      </trkpt>
      <trkpt lat="43.733548" lon="-7.929564">
        <ele>478.481</ele>
        <time>2016-09-26T08:22:20Z</time>
      </trkpt>
      <trkpt lat="43.733536" lon="-7.929573">
        <ele>478.819</ele>
        <time>2016-09-26T08:22:21Z</time>
      </trkpt>
      <trkpt lat="43.733523" lon="-7.929582">
        <ele>478.908</ele>
        <time>2016-09-26T08:22:22Z</time>
      </trkpt>
      <trkpt lat="43.733511" lon="-7.929592">
        <ele>479.057</ele>
        <time>2016-09-26T08:22:23Z</time>
      </trkpt>
      <trkpt lat="43.733497" lon="-7.929602">
        <ele>479.132</ele>
        <time>2016-09-26T08:22:24Z</time>
      </trkpt>
      <trkpt lat="43.733484" lon="-7.929612">
        <ele>479.210</ele>
        <time>2016-09-26T08:22:25Z</time>
      </trkpt>
      <trkpt lat="43.733471" lon="-7.929623">
        <ele>479.586</ele>
        <time>2016-09-26T08:22:26Z</time>
      </trkpt>
      <trkpt lat="43.733458" lon="-7.929634">
        <ele>479.640</ele>
        <time>2016-09-26T08:22:27Z</time>
      </trkpt>
      <trkpt lat="43.733446" lon="-7.929646">
        <ele>479.632</ele>
        <time>2016-09-26T08:22:28Z</time>
      </trkpt>
      <trkpt lat="43.733433" lon="-7.929656">
        <ele>479.885</ele>
        <time>2016-09-26T08:22:29Z</time>
      </trkpt>
      <trkpt lat="43.733421" lon="-7.929664">
        <ele>480.023</ele>
        <time>2016-09-26T08:22:30Z</time>
      </trkpt>
      <trkpt lat="43.733408" lon="-7.929675">
        <ele>480.357</ele>
        <time>2016-09-26T08:22:31Z</time>
      </trkpt>
      <trkpt lat="43.733393" lon="-7.929683">
        <ele>480.300</ele>
        <time>2016-09-26T08:22:32Z</time>
      </trkpt>
      <trkpt lat="43.733378" lon="-7.929694">
        <ele>480.520</ele>
        <time>2016-09-26T08:22:33Z</time>
      </trkpt>
      <trkpt lat="43.733364" lon="-7.929704">
        <ele>480.808</ele>
        <time>2016-09-26T08:22:34Z</time>
      </trkpt>
      <trkpt lat="43.733350" lon="-7.929715">
        <ele>481.296</ele>
        <time>2016-09-26T08:22:35Z</time>
      </trkpt>
      <trkpt lat="43.733335" lon="-7.929725">
        <ele>481.581</ele>
        <time>2016-09-26T08:22:36Z</time>
      </trkpt>
      <trkpt lat="43.733321" lon="-7.929737">
        <ele>481.519</ele>
        <time>2016-09-26T08:22:37Z</time>
      </trkpt>
      <trkpt lat="43.733307" lon="-7.929750">
        <ele>481.545</ele>
        <time>2016-09-26T08:22:38Z</time>
      </trkpt>
      <trkpt lat="43.733293" lon="-7.929762">
        <ele>481.699</ele>
        <time>2016-09-26T08:22:39Z</time>
      </trkpt>
      <trkpt lat="43.733279" lon="-7.929771">
        <ele>481.771</ele>
        <time>2016-09-26T08:22:40Z</time>
      </trkpt>
      <trkpt lat="43.733266" lon="-7.929781">
        <ele>482.094</ele>
        <time>2016-09-26T08:22:41Z</time>
      </trkpt>
      <trkpt lat="43.733251" lon="-7.929790">
        <ele>482.342</ele>
        <time>2016-09-26T08:22:42Z</time>
      </trkpt>
      <trkpt lat="43.733237" lon="-7.929800">
        <ele>482.312</ele>
        <time>2016-09-26T08:22:43Z</time>
      </trkpt>
      <trkpt lat="43.733222" lon="-7.929809">
        <ele>482.532</ele>
        <time>2016-09-26T08:22:44Z</time>
      </trkpt>
      <trkpt lat="43.733209" lon="-7.929820">
        <ele>482.605</ele>
        <time>2016-09-26T08:22:45Z</time>
      </trkpt>
      <trkpt lat="43.733195" lon="-7.929831">
        <ele>482.708</ele>
        <time>2016-09-26T08:22:46Z</time>
      </trkpt>
      <trkpt lat="43.733181" lon="-7.929842">
        <ele>482.942</ele>
        <time>2016-09-26T08:22:47Z</time>
      </trkpt>
      <trkpt lat="43.733169" lon="-7.929856">
        <ele>483.117</ele>
        <time>2016-09-26T08:22:48Z</time>
      </trkpt>
      <trkpt lat="43.733155" lon="-7.929867">
        <ele>483.495</ele>
        <time>2016-09-26T08:22:49Z</time>
      </trkpt>
      <trkpt lat="43.733141" lon="-7.929877">
        <ele>483.651</ele>
        <time>2016-09-26T08:22:50Z</time>
      </trkpt>
      <trkpt lat="43.733126" lon="-7.929889">
        <ele>483.895</ele>
        <time>2016-09-26T08:22:51Z</time>
      </trkpt>
      <trkpt lat="43.733110" lon="-7.929898">
        <ele>484.067</ele>
        <time>2016-09-26T08:22:52Z</time>
      </trkpt>
      <trkpt lat="43.733094" lon="-7.929907">
        <ele>484.260</ele>
        <time>2016-09-26T08:22:53Z</time>
      </trkpt>
      <trkpt lat="43.733077" lon="-7.929918">
        <ele>484.358</ele>
        <time>2016-09-26T08:22:54Z</time>
      </trkpt>
      <trkpt lat="43.733062" lon="-7.929931">
        <ele>484.423</ele>
        <time>2016-09-26T08:22:55Z</time>
      </trkpt>
      <trkpt lat="43.733048" lon="-7.929944">
        <ele>484.783</ele>
        <time>2016-09-26T08:22:56Z</time>
      </trkpt>
      <trkpt lat="43.733033" lon="-7.929959">
        <ele>484.811</ele>
        <time>2016-09-26T08:22:57Z</time>
      </trkpt>
      <trkpt lat="43.733019" lon="-7.929971">
        <ele>485.108</ele>
        <time>2016-09-26T08:22:58Z</time>
      </trkpt>
      <trkpt lat="43.733004" lon="-7.929982">
        <ele>485.433</ele>
        <time>2016-09-26T08:22:59Z</time>
      </trkpt>
      <trkpt lat="43.732990" lon="-7.929995">
        <ele>485.518</ele>
        <time>2016-09-26T08:23:00Z</time>
      </trkpt>
      <trkpt lat="43.732975" lon="-7.930007">
        <ele>485.696</ele>
        <time>2016-09-26T08:23:01Z</time>
      </trkpt>
      <trkpt lat="43.732961" lon="-7.930021">
        <ele>485.722</ele>
        <time>2016-09-26T08:23:02Z</time>
      </trkpt>
      <trkpt lat="43.732945" lon="-7.930033">
        <ele>485.856</ele>
        <time>2016-09-26T08:23:03Z</time>
      </trkpt>
      <trkpt lat="43.732930" lon="-7.930047">
        <ele>486.078</ele>
        <time>2016-09-26T08:23:04Z</time>
      </trkpt>
      <trkpt lat="43.732914" lon="-7.930060">
        <ele>486.081</ele>
        <time>2016-09-26T08:23:05Z</time>
      </trkpt>
      <trkpt lat="43.732898" lon="-7.930073">
        <ele>486.069</ele>
        <time>2016-09-26T08:23:06Z</time>
      </trkpt>
      <trkpt lat="43.732882" lon="-7.930085">
        <ele>486.134</ele>
        <time>2016-09-26T08:23:07Z</time>
      </trkpt>
      <trkpt lat="43.732867" lon="-7.930099">
        <ele>486.455</ele>
        <time>2016-09-26T08:23:08Z</time>
      </trkpt>
      <trkpt lat="43.732853" lon="-7.930114">
        <ele>486.810</ele>
        <time>2016-09-26T08:23:09Z</time>
      </trkpt>
      <trkpt lat="43.732837" lon="-7.930127">
        <ele>487.108</ele>
        <time>2016-09-26T08:23:10Z</time>
      </trkpt>
      <trkpt lat="43.732821" lon="-7.930140">
        <ele>487.224</ele>
        <time>2016-09-26T08:23:11Z</time>
      </trkpt>
      <trkpt lat="43.732806" lon="-7.930151">
        <ele>487.369</ele>
        <time>2016-09-26T08:23:12Z</time>
      </trkpt>
      <trkpt lat="43.732791" lon="-7.930163">
        <ele>487.577</ele>
        <time>2016-09-26T08:23:13Z</time>
      </trkpt>
      <trkpt lat="43.732778" lon="-7.930176">
        <ele>487.843</ele>
        <time>2016-09-26T08:23:14Z</time>
      </trkpt>
      <trkpt lat="43.732764" lon="-7.930187">
        <ele>488.277</ele>
        <time>2016-09-26T08:23:15Z</time>
      </trkpt>
      <trkpt lat="43.732749" lon="-7.930200">
        <ele>488.599</ele>
        <time>2016-09-26T08:23:16Z</time>
      </trkpt>
      <trkpt lat="43.732733" lon="-7.930212">
        <ele>488.772</ele>
        <time>2016-09-26T08:23:17Z</time>
      </trkpt>
      <trkpt lat="43.732718" lon="-7.930224">
        <ele>488.930</ele>
        <time>2016-09-26T08:23:18Z</time>
      </trkpt>
      <trkpt lat="43.732702" lon="-7.930237">
        <ele>489.033</ele>
        <time>2016-09-26T08:23:19Z</time>
      </trkpt>
      <trkpt lat="43.732689" lon="-7.930252">
        <ele>489.023</ele>
        <time>2016-09-26T08:23:20Z</time>
      </trkpt>
      <trkpt lat="43.732675" lon="-7.930266">
        <ele>489.215</ele>
        <time>2016-09-26T08:23:21Z</time>
      </trkpt>
      <trkpt lat="43.732661" lon="-7.930280">
        <ele>489.308</ele>
        <time>2016-09-26T08:23:22Z</time>
      </trkpt>
      <trkpt lat="43.732646" lon="-7.930293">
        <ele>489.394</ele>
        <time>2016-09-26T08:23:23Z</time>
      </trkpt>
      <trkpt lat="43.732632" lon="-7.930307">
        <ele>489.569</ele>
        <time>2016-09-26T08:23:24Z</time>
      </trkpt>
      <trkpt lat="43.732617" lon="-7.930321">
        <ele>489.757</ele>
        <time>2016-09-26T08:23:25Z</time>
      </trkpt>
      <trkpt lat="43.732602" lon="-7.930332">
        <ele>490.143</ele>
        <time>2016-09-26T08:23:26Z</time>
      </trkpt>
      <trkpt lat="43.732587" lon="-7.930345">
        <ele>490.437</ele>
        <time>2016-09-26T08:23:27Z</time>
      </trkpt>
      <trkpt lat="43.732571" lon="-7.930359">
        <ele>490.739</ele>
        <time>2016-09-26T08:23:28Z</time>
      </trkpt>
      <trkpt lat="43.732557" lon="-7.930374">
        <ele>490.722</ele>
        <time>2016-09-26T08:23:29Z</time>
      </trkpt>
      <trkpt lat="43.732544" lon="-7.930388">
        <ele>490.940</ele>
        <time>2016-09-26T08:23:30Z</time>
      </trkpt>
      <trkpt lat="43.732530" lon="-7.930403">
        <ele>491.037</ele>
        <time>2016-09-26T08:23:31Z</time>
      </trkpt>
      <trkpt lat="43.732517" lon="-7.930418">
        <ele>491.249</ele>
        <time>2016-09-26T08:23:32Z</time>
      </trkpt>
      <trkpt lat="43.732503" lon="-7.930432">
        <ele>491.513</ele>
        <time>2016-09-26T08:23:33Z</time>
      </trkpt>
      <trkpt lat="43.732487" lon="-7.930443">
        <ele>491.708</ele>
        <time>2016-09-26T08:23:34Z</time>
      </trkpt>
      <trkpt lat="43.732470" lon="-7.930453">
        <ele>492.034</ele>
        <time>2016-09-26T08:23:35Z</time>
      </trkpt>
      <trkpt lat="43.732455" lon="-7.930465">
        <ele>492.079</ele>
        <time>2016-09-26T08:23:36Z</time>
      </trkpt>
      <trkpt lat="43.732441" lon="-7.930478">
        <ele>492.167</ele>
        <time>2016-09-26T08:23:37Z</time>
      </trkpt>
      <trkpt lat="43.732426" lon="-7.930490">
        <ele>492.263</ele>
        <time>2016-09-26T08:23:38Z</time>
      </trkpt>
      <trkpt lat="43.732411" lon="-7.930504">
        <ele>492.417</ele>
        <time>2016-09-26T08:23:39Z</time>
      </trkpt>
      <trkpt lat="43.732396" lon="-7.930516">
        <ele>492.729</ele>
        <time>2016-09-26T08:23:40Z</time>
      </trkpt>
      <trkpt lat="43.732381" lon="-7.930528">
        <ele>492.992</ele>
        <time>2016-09-26T08:23:41Z</time>
      </trkpt>
      <trkpt lat="43.732367" lon="-7.930540">
        <ele>493.470</ele>
        <time>2016-09-26T08:23:42Z</time>
      </trkpt>
      <trkpt lat="43.732352" lon="-7.930551">
        <ele>493.556</ele>
        <time>2016-09-26T08:23:43Z</time>
      </trkpt>
      <trkpt lat="43.732337" lon="-7.930562">
        <ele>493.759</ele>
        <time>2016-09-26T08:23:44Z</time>
      </trkpt>
      <trkpt lat="43.732322" lon="-7.930572">
        <ele>493.914</ele>
        <time>2016-09-26T08:23:45Z</time>
      </trkpt>
      <trkpt lat="43.732307" lon="-7.930582">
        <ele>494.208</ele>
        <time>2016-09-26T08:23:46Z</time>
      </trkpt>
      <trkpt lat="43.732292" lon="-7.930593">
        <ele>494.596</ele>
        <time>2016-09-26T08:23:47Z</time>
      </trkpt>
      <trkpt lat="43.732276" lon="-7.930602">
        <ele>494.761</ele>
        <time>2016-09-26T08:23:48Z</time>
      </trkpt>
      <trkpt lat="43.732260" lon="-7.930611">
        <ele>494.879</ele>
        <time>2016-09-26T08:23:49Z</time>
      </trkpt>
      <trkpt lat="43.732245" lon="-7.930622">
        <ele>495.035</ele>
        <time>2016-09-26T08:23:50Z</time>
      </trkpt>
      <trkpt lat="43.732230" lon="-7.930632">
        <ele>495.319</ele>
        <time>2016-09-26T08:23:51Z</time>
      </trkpt>
      <trkpt lat="43.732215" lon="-7.930643">
        <ele>495.371</ele>
        <time>2016-09-26T08:23:52Z</time>
      </trkpt>
      <trkpt lat="43.732201" lon="-7.930656">
        <ele>495.524</ele>
        <time>2016-09-26T08:23:53Z</time>
      </trkpt>
      <trkpt lat="43.732187" lon="-7.930667">
        <ele>495.732</ele>
        <time>2016-09-26T08:23:54Z</time>
      </trkpt>
      <trkpt lat="43.732172" lon="-7.930677">
        <ele>495.735</ele>
        <time>2016-09-26T08:23:55Z</time>
      </trkpt>
      <trkpt lat="43.732157" lon="-7.930687">
        <ele>495.686</ele>
        <time>2016-09-26T08:23:56Z</time>
      </trkpt>
      <trkpt lat="43.732141" lon="-7.930696">
        <ele>495.814</ele>
        <time>2016-09-26T08:23:57Z</time>
      </trkpt>
      <trkpt lat="43.732126" lon="-7.930707">
        <ele>496.108</ele>
        <time>2016-09-26T08:23:58Z</time>
      </trkpt>
      <trkpt lat="43.732110" lon="-7.930718">
        <ele>496.444</ele>
        <time>2016-09-26T08:23:59Z</time>
      </trkpt>
      <trkpt lat="43.732093" lon="-7.930726">
        <ele>496.559</ele>
        <time>2016-09-26T08:24:00Z</time>
      </trkpt>
      <trkpt lat="43.732076" lon="-7.930735">
        <ele>496.737</ele>
        <time>2016-09-26T08:24:01Z</time>
      </trkpt>
      <trkpt lat="43.732061" lon="-7.930745">
        <ele>496.653</ele>
        <time>2016-09-26T08:24:02Z</time>
      </trkpt>
      <trkpt lat="43.732045" lon="-7.930755">
        <ele>497.087</ele>
        <time>2016-09-26T08:24:03Z</time>
      </trkpt>
      <trkpt lat="43.732030" lon="-7.930766">
        <ele>497.179</ele>
        <time>2016-09-26T08:24:04Z</time>
      </trkpt>
      <trkpt lat="43.732016" lon="-7.930775">
        <ele>497.452</ele>
        <time>2016-09-26T08:24:05Z</time>
      </trkpt>
      <trkpt lat="43.732002" lon="-7.930785">
        <ele>497.660</ele>
        <time>2016-09-26T08:24:06Z</time>
      </trkpt>
      <trkpt lat="43.731986" lon="-7.930794">
        <ele>497.843</ele>
        <time>2016-09-26T08:24:07Z</time>
      </trkpt>
      <trkpt lat="43.731970" lon="-7.930803">
        <ele>498.164</ele>
        <time>2016-09-26T08:24:08Z</time>
      </trkpt>
      <trkpt lat="43.731955" lon="-7.930813">
        <ele>498.210</ele>
        <time>2016-09-26T08:24:09Z</time>
      </trkpt>
      <trkpt lat="43.731941" lon="-7.930825">
        <ele>498.108</ele>
        <time>2016-09-26T08:24:10Z</time>
      </trkpt>
      <trkpt lat="43.731925" lon="-7.930834">
        <ele>498.235</ele>
        <time>2016-09-26T08:24:11Z</time>
      </trkpt>
      <trkpt lat="43.731910" lon="-7.930843">
        <ele>498.430</ele>
        <time>2016-09-26T08:24:12Z</time>
      </trkpt>
      <trkpt lat="43.731894" lon="-7.930852">
        <ele>498.738</ele>
        <time>2016-09-26T08:24:13Z</time>
      </trkpt>
      <trkpt lat="43.731880" lon="-7.930861">
        <ele>498.934</ele>
        <time>2016-09-26T08:24:14Z</time>
      </trkpt>
      <trkpt lat="43.731865" lon="-7.930871">
        <ele>499.198</ele>
        <time>2016-09-26T08:24:15Z</time>
      </trkpt>
      <trkpt lat="43.731850" lon="-7.930882">
        <ele>499.350</ele>
        <time>2016-09-26T08:24:16Z</time>
      </trkpt>
      <trkpt lat="43.731834" lon="-7.930892">
        <ele>499.573</ele>
        <time>2016-09-26T08:24:17Z</time>
      </trkpt>
      <trkpt lat="43.731818" lon="-7.930902">
        <ele>499.671</ele>
        <time>2016-09-26T08:24:18Z</time>
      </trkpt>
      <trkpt lat="43.731802" lon="-7.930912">
        <ele>499.938</ele>
        <time>2016-09-26T08:24:19Z</time>
      </trkpt>
      <trkpt lat="43.731787" lon="-7.930922">
        <ele>500.270</ele>
        <time>2016-09-26T08:24:20Z</time>
      </trkpt>
      <trkpt lat="43.731771" lon="-7.930933">
        <ele>500.417</ele>
        <time>2016-09-26T08:24:21Z</time>
      </trkpt>
      <trkpt lat="43.731756" lon="-7.930944">
        <ele>500.708</ele>
        <time>2016-09-26T08:24:22Z</time>
      </trkpt>
      <trkpt lat="43.731741" lon="-7.930957">
        <ele>500.984</ele>
        <time>2016-09-26T08:24:23Z</time>
      </trkpt>
      <trkpt lat="43.731726" lon="-7.930970">
        <ele>501.179</ele>
        <time>2016-09-26T08:24:24Z</time>
      </trkpt>
      <trkpt lat="43.731711" lon="-7.930982">
        <ele>501.417</ele>
        <time>2016-09-26T08:24:25Z</time>
      </trkpt>
      <trkpt lat="43.731697" lon="-7.930994">
        <ele>501.673</ele>
        <time>2016-09-26T08:24:26Z</time>
      </trkpt>
      <trkpt lat="43.731681" lon="-7.931006">
        <ele>501.767</ele>
        <time>2016-09-26T08:24:27Z</time>
      </trkpt>
      <trkpt lat="43.731667" lon="-7.931017">
        <ele>501.959</ele>
        <time>2016-09-26T08:24:28Z</time>
      </trkpt>
      <trkpt lat="43.731653" lon="-7.931029">
        <ele>502.152</ele>
        <time>2016-09-26T08:24:29Z</time>
      </trkpt>
      <trkpt lat="43.731637" lon="-7.931039">
        <ele>502.320</ele>
        <time>2016-09-26T08:24:30Z</time>
      </trkpt>
      <trkpt lat="43.731622" lon="-7.931050">
        <ele>502.467</ele>
        <time>2016-09-26T08:24:31Z</time>
      </trkpt>
      <trkpt lat="43.731606" lon="-7.931060">
        <ele>502.581</ele>
        <time>2016-09-26T08:24:32Z</time>
      </trkpt>
      <trkpt lat="43.731591" lon="-7.931070">
        <ele>502.819</ele>
        <time>2016-09-26T08:24:33Z</time>
      </trkpt>
      <trkpt lat="43.731576" lon="-7.931081">
        <ele>502.808</ele>
        <time>2016-09-26T08:24:34Z</time>
      </trkpt>
      <trkpt lat="43.731561" lon="-7.931093">
        <ele>502.967</ele>
        <time>2016-09-26T08:24:35Z</time>
      </trkpt>
      <trkpt lat="43.731546" lon="-7.931104">
        <ele>503.152</ele>
        <time>2016-09-26T08:24:36Z</time>
      </trkpt>
      <trkpt lat="43.731531" lon="-7.931116">
        <ele>503.150</ele>
        <time>2016-09-26T08:24:37Z</time>
      </trkpt>
      <trkpt lat="43.731515" lon="-7.931126">
        <ele>503.266</ele>
        <time>2016-09-26T08:24:38Z</time>
      </trkpt>
      <trkpt lat="43.731500" lon="-7.931137">
        <ele>503.450</ele>
        <time>2016-09-26T08:24:39Z</time>
      </trkpt>
      <trkpt lat="43.731485" lon="-7.931147">
        <ele>503.732</ele>
        <time>2016-09-26T08:24:40Z</time>
      </trkpt>
      <trkpt lat="43.731471" lon="-7.931158">
        <ele>503.965</ele>
        <time>2016-09-26T08:24:41Z</time>
      </trkpt>
      <trkpt lat="43.731456" lon="-7.931170">
        <ele>504.273</ele>
        <time>2016-09-26T08:24:42Z</time>
      </trkpt>
      <trkpt lat="43.731441" lon="-7.931183">
        <ele>504.589</ele>
        <time>2016-09-26T08:24:43Z</time>
      </trkpt>
      <trkpt lat="43.731425" lon="-7.931194">
        <ele>504.706</ele>
        <time>2016-09-26T08:24:44Z</time>
      </trkpt>
      <trkpt lat="43.731411" lon="-7.931205">
        <ele>505.026</ele>
        <time>2016-09-26T08:24:45Z</time>
      </trkpt>
      <trkpt lat="43.731396" lon="-7.931217">
        <ele>505.108</ele>
        <time>2016-09-26T08:24:46Z</time>
      </trkpt>
      <trkpt lat="43.731381" lon="-7.931229">
        <ele>505.229</ele>
        <time>2016-09-26T08:24:47Z</time>
      </trkpt>
      <trkpt lat="43.731366" lon="-7.931243">
        <ele>505.614</ele>
        <time>2016-09-26T08:24:48Z</time>
      </trkpt>
      <trkpt lat="43.731351" lon="-7.931257">
        <ele>505.962</ele>
        <time>2016-09-26T08:24:49Z</time>
      </trkpt>
      <trkpt lat="43.731336" lon="-7.931269">
        <ele>506.148</ele>
        <time>2016-09-26T08:24:50Z</time>
      </trkpt>
      <trkpt lat="43.731320" lon="-7.931281">
        <ele>506.282</ele>
        <time>2016-09-26T08:24:51Z</time>
      </trkpt>
      <trkpt lat="43.731305" lon="-7.931294">
        <ele>506.484</ele>
        <time>2016-09-26T08:24:52Z</time>
      </trkpt>
      <trkpt lat="43.731289" lon="-7.931307">
        <ele>506.637</ele>
        <time>2016-09-26T08:24:53Z</time>
      </trkpt>
      <trkpt lat="43.731274" lon="-7.931318">
        <ele>506.935</ele>
        <time>2016-09-26T08:24:54Z</time>
      </trkpt>
      <trkpt lat="43.731259" lon="-7.931330">
        <ele>507.053</ele>
        <time>2016-09-26T08:24:55Z</time>
      </trkpt>
      <trkpt lat="43.731245" lon="-7.931344">
        <ele>507.104</ele>
        <time>2016-09-26T08:24:56Z</time>
      </trkpt>
      <trkpt lat="43.731230" lon="-7.931357">
        <ele>507.314</ele>
        <time>2016-09-26T08:24:57Z</time>
      </trkpt>
      <trkpt lat="43.731215" lon="-7.931368">
        <ele>507.308</ele>
        <time>2016-09-26T08:24:58Z</time>
      </trkpt>
      <trkpt lat="43.731201" lon="-7.931381">
        <ele>507.566</ele>
        <time>2016-09-26T08:24:59Z</time>
      </trkpt>
      <trkpt lat="43.731186" lon="-7.931395">
        <ele>507.861</ele>
        <time>2016-09-26T08:25:00Z</time>
      </trkpt>
      <trkpt lat="43.731170" lon="-7.931407">
        <ele>507.829</ele>
        <time>2016-09-26T08:25:01Z</time>
      </trkpt>
      <trkpt lat="43.731154" lon="-7.931420">
        <ele>507.835</ele>
        <time>2016-09-26T08:25:02Z</time>
      </trkpt>
      <trkpt lat="43.731139" lon="-7.931433">
        <ele>507.929</ele>
        <time>2016-09-26T08:25:03Z</time>
      </trkpt>
      <trkpt lat="43.731125" lon="-7.931446">
        <ele>508.041</ele>
        <time>2016-09-26T08:25:04Z</time>
      </trkpt>
      <trkpt lat="43.731110" lon="-7.931459">
        <ele>508.494</ele>
        <time>2016-09-26T08:25:05Z</time>
      </trkpt>
      <trkpt lat="43.731094" lon="-7.931472">
        <ele>508.512</ele>
        <time>2016-09-26T08:25:06Z</time>
      </trkpt>
      <trkpt lat="43.731080" lon="-7.931484">
        <ele>508.734</ele>
        <time>2016-09-26T08:25:07Z</time>
      </trkpt>
      <trkpt lat="43.731066" lon="-7.931497">
        <ele>508.955</ele>
        <time>2016-09-26T08:25:08Z</time>
      </trkpt>
      <trkpt lat="43.731052" lon="-7.931512">
        <ele>509.010</ele>
        <time>2016-09-26T08:25:09Z</time>
      </trkpt>
      <trkpt lat="43.731037" lon="-7.931527">
        <ele>509.108</ele>
        <time>2016-09-26T08:25:10Z</time>
      </trkpt>
      <trkpt lat="43.731024" lon="-7.931545">
        <ele>509.284</ele>
        <time>2016-09-26T08:25:11Z</time>
      </trkpt>
      <trkpt lat="43.731012" lon="-7.931563">
        <ele>509.359</ele>
        <time>2016-09-26T08:25:12Z</time>
      </trkpt>
      <trkpt lat="43.730998" lon="-7.931578">
        <ele>509.487</ele>
        <time>2016-09-26T08:25:13Z</time>
      </trkpt>
      <trkpt lat="43.730986" lon="-7.931595">
        <ele>509.783</ele>
        <time>2016-09-26T08:25:14Z</time>
      </trkpt>
      <trkpt lat="43.730972" lon="-7.931612">
        <ele>510.037</ele>
        <time>2016-09-26T08:25:15Z</time>
      </trkpt>
      <trkpt lat="43.730960" lon="-7.931628">
        <ele>510.239</ele>
        <time>2016-09-26T08:25:16Z</time>
      </trkpt>
      <trkpt lat="43.730946" lon="-7.931643">
        <ele>510.342</ele>
        <time>2016-09-26T08:25:17Z</time>
      </trkpt>
      <trkpt lat="43.730933" lon="-7.931660">
        <ele>510.610</ele>
        <time>2016-09-26T08:25:18Z</time>
      </trkpt>
      <trkpt lat="43.730919" lon="-7.931677">
        <ele>510.724</ele>
        <time>2016-09-26T08:25:19Z</time>
      </trkpt>
      <trkpt lat="43.730905" lon="-7.931695">
        <ele>510.904</ele>
        <time>2016-09-26T08:25:20Z</time>
      </trkpt>
      <trkpt lat="43.730892" lon="-7.931711">
        <ele>511.014</ele>
        <time>2016-09-26T08:25:21Z</time>
      </trkpt>
      <trkpt lat="43.730878" lon="-7.931730">
        <ele>511.108</ele>
        <time>2016-09-26T08:25:22Z</time>
      </trkpt>
      <trkpt lat="43.730865" lon="-7.931748">
        <ele>511.363</ele>
        <time>2016-09-26T08:25:23Z</time>
      </trkpt>
      <trkpt lat="43.730852" lon="-7.931765">
        <ele>511.358</ele>
        <time>2016-09-26T08:25:24Z</time>
      </trkpt>
      <trkpt lat="43.730838" lon="-7.931783">
        <ele>511.596</ele>
        <time>2016-09-26T08:25:25Z</time>
      </trkpt>
      <trkpt lat="43.730825" lon="-7.931801">
        <ele>511.572</ele>
        <time>2016-09-26T08:25:26Z</time>
      </trkpt>
      <trkpt lat="43.730812" lon="-7.931819">
        <ele>511.836</ele>
        <time>2016-09-26T08:25:27Z</time>
      </trkpt>
      <trkpt lat="43.730799" lon="-7.931836">
        <ele>512.178</ele>
        <time>2016-09-26T08:25:28Z</time>
      </trkpt>
      <trkpt lat="43.730786" lon="-7.931854">
        <ele>512.261</ele>
        <time>2016-09-26T08:25:29Z</time>
      </trkpt>
      <trkpt lat="43.730773" lon="-7.931871">
        <ele>512.489</ele>
        <time>2016-09-26T08:25:30Z</time>
      </trkpt>
      <trkpt lat="43.730760" lon="-7.931888">
        <ele>512.667</ele>
        <time>2016-09-26T08:25:31Z</time>
      </trkpt>
      <trkpt lat="43.730746" lon="-7.931905">
        <ele>512.881</ele>
        <time>2016-09-26T08:25:32Z</time>
      </trkpt>
      <trkpt lat="43.730733" lon="-7.931924">
        <ele>512.719</ele>
        <time>2016-09-26T08:25:33Z</time>
      </trkpt>
      <trkpt lat="43.730721" lon="-7.931941">
        <ele>513.008</ele>
        <time>2016-09-26T08:25:34Z</time>
      </trkpt>
      <trkpt lat="43.730709" lon="-7.931959">
        <ele>513.167</ele>
        <time>2016-09-26T08:25:35Z</time>
      </trkpt>
      <trkpt lat="43.730696" lon="-7.931976">
        <ele>513.362</ele>
        <time>2016-09-26T08:25:36Z</time>
      </trkpt>
      <trkpt lat="43.730683" lon="-7.931993">
        <ele>513.540</ele>
        <time>2016-09-26T08:25:37Z</time>
      </trkpt>
      <trkpt lat="43.730670" lon="-7.932010">
        <ele>513.656</ele>
        <time>2016-09-26T08:25:38Z</time>
      </trkpt>
      <trkpt lat="43.730657" lon="-7.932027">
        <ele>513.740</ele>
        <time>2016-09-26T08:25:39Z</time>
      </trkpt>
      <trkpt lat="43.730644" lon="-7.932046">
        <ele>513.932</ele>
        <time>2016-09-26T08:25:40Z</time>
      </trkpt>
      <trkpt lat="43.730632" lon="-7.932063">
        <ele>514.175</ele>
        <time>2016-09-26T08:25:41Z</time>
      </trkpt>
      <trkpt lat="43.730619" lon="-7.932081">
        <ele>514.143</ele>
        <time>2016-09-26T08:25:42Z</time>
      </trkpt>
      <trkpt lat="43.730608" lon="-7.932100">
        <ele>514.429</ele>
        <time>2016-09-26T08:25:43Z</time>
      </trkpt>
      <trkpt lat="43.730594" lon="-7.932118">
        <ele>514.500</ele>
        <time>2016-09-26T08:25:44Z</time>
      </trkpt>
      <trkpt lat="43.730580" lon="-7.932133">
        <ele>514.720</ele>
        <time>2016-09-26T08:25:45Z</time>
      </trkpt>
      <trkpt lat="43.730566" lon="-7.932149">
        <ele>514.908</ele>
        <time>2016-09-26T08:25:46Z</time>
      </trkpt>
      <trkpt lat="43.730553" lon="-7.932166">
        <ele>515.013</ele>
        <time>2016-09-26T08:25:47Z</time>
      </trkpt>
      <trkpt lat="43.730541" lon="-7.932185">
        <ele>515.178</ele>
        <time>2016-09-26T08:25:48Z</time>
      </trkpt>
      <trkpt lat="43.730529" lon="-7.932202">
        <ele>515.256</ele>
        <time>2016-09-26T08:25:49Z</time>
      </trkpt>
      <trkpt lat="43.730517" lon="-7.932220">
        <ele>515.462</ele>
        <time>2016-09-26T08:25:50Z</time>
      </trkpt>
      <trkpt lat="43.730505" lon="-7.932239">
        <ele>515.736</ele>
        <time>2016-09-26T08:25:51Z</time>
      </trkpt>
      <trkpt lat="43.730493" lon="-7.932257">
        <ele>515.828</ele>
        <time>2016-09-26T08:25:52Z</time>
      </trkpt>
      <trkpt lat="43.730479" lon="-7.932275">
        <ele>516.061</ele>
        <time>2016-09-26T08:25:53Z</time>
      </trkpt>
      <trkpt lat="43.730466" lon="-7.932293">
        <ele>516.249</ele>
        <time>2016-09-26T08:25:54Z</time>
      </trkpt>
      <trkpt lat="43.730453" lon="-7.932311">
        <ele>516.425</ele>
        <time>2016-09-26T08:25:55Z</time>
      </trkpt>
      <trkpt lat="43.730439" lon="-7.932331">
        <ele>516.526</ele>
        <time>2016-09-26T08:25:56Z</time>
      </trkpt>
      <trkpt lat="43.730426" lon="-7.932350">
        <ele>516.608</ele>
        <time>2016-09-26T08:25:57Z</time>
      </trkpt>
      <trkpt lat="43.730414" lon="-7.932367">
        <ele>516.808</ele>
        <time>2016-09-26T08:25:58Z</time>
      </trkpt>
      <trkpt lat="43.730401" lon="-7.932384">
        <ele>517.173</ele>
        <time>2016-09-26T08:25:59Z</time>
      </trkpt>
      <trkpt lat="43.730388" lon="-7.932402">
        <ele>517.228</ele>
        <time>2016-09-26T08:26:00Z</time>
      </trkpt>
      <trkpt lat="43.730376" lon="-7.932419">
        <ele>517.486</ele>
        <time>2016-09-26T08:26:01Z</time>
      </trkpt>
      <trkpt lat="43.730362" lon="-7.932436">
        <ele>517.662</ele>
        <time>2016-09-26T08:26:02Z</time>
      </trkpt>
      <trkpt lat="43.730349" lon="-7.932454">
        <ele>517.826</ele>
        <time>2016-09-26T08:26:03Z</time>
      </trkpt>
      <trkpt lat="43.730335" lon="-7.932471">
        <ele>518.138</ele>
        <time>2016-09-26T08:26:04Z</time>
      </trkpt>
      <trkpt lat="43.730322" lon="-7.932488">
        <ele>518.311</ele>
        <time>2016-09-26T08:26:05Z</time>
      </trkpt>
      <trkpt lat="43.730309" lon="-7.932506">
        <ele>518.359</ele>
        <time>2016-09-26T08:26:06Z</time>
      </trkpt>
      <trkpt lat="43.730296" lon="-7.932524">
        <ele>518.477</ele>
        <time>2016-09-26T08:26:07Z</time>
      </trkpt>
      <trkpt lat="43.730283" lon="-7.932541">
        <ele>518.661</ele>
        <time>2016-09-26T08:26:08Z</time>
      </trkpt>
      <trkpt lat="43.730270" lon="-7.932558">
        <ele>518.627</ele>
        <time>2016-09-26T08:26:09Z</time>
      </trkpt>
      <trkpt lat="43.730258" lon="-7.932574">
        <ele>518.508</ele>
        <time>2016-09-26T08:26:10Z</time>
      </trkpt>
      <trkpt lat="43.730246" lon="-7.932591">
        <ele>518.658</ele>
        <time>2016-09-26T08:26:11Z</time>
      </trkpt>
      <trkpt lat="43.730233" lon="-7.932609">
        <ele>518.633</ele>
        <time>2016-09-26T08:26:12Z</time>
      </trkpt>
      <trkpt lat="43.730220" lon="-7.932628">
        <ele>518.931</ele>
        <time>2016-09-26T08:26:13Z</time>
      </trkpt>
      <trkpt lat="43.730207" lon="-7.932646">
        <ele>519.337</ele>
        <time>2016-09-26T08:26:14Z</time>
      </trkpt>
      <trkpt lat="43.730194" lon="-7.932665">
        <ele>519.441</ele>
        <time>2016-09-26T08:26:15Z</time>
      </trkpt>
      <trkpt lat="43.730182" lon="-7.932684">
        <ele>519.633</ele>
        <time>2016-09-26T08:26:16Z</time>
      </trkpt>
      <trkpt lat="43.730169" lon="-7.932700">
        <ele>519.716</ele>
        <time>2016-09-26T08:26:17Z</time>
      </trkpt>
      <trkpt lat="43.730156" lon="-7.932717">
        <ele>519.914</ele>
        <time>2016-09-26T08:26:18Z</time>
      </trkpt>
      <trkpt lat="43.730143" lon="-7.932734">
        <ele>520.152</ele>
        <time>2016-09-26T08:26:19Z</time>
      </trkpt>
      <trkpt lat="43.730129" lon="-7.932751">
        <ele>520.253</ele>
        <time>2016-09-26T08:26:20Z</time>
      </trkpt>
      <trkpt lat="43.730116" lon="-7.932767">
        <ele>520.308</ele>
        <time>2016-09-26T08:26:21Z</time>
      </trkpt>
      <trkpt lat="43.730104" lon="-7.932786">
        <ele>520.408</ele>
        <time>2016-09-26T08:26:22Z</time>
      </trkpt>
      <trkpt lat="43.730091" lon="-7.932804">
        <ele>520.486</ele>
        <time>2016-09-26T08:26:23Z</time>
      </trkpt>
      <trkpt lat="43.730078" lon="-7.932822">
        <ele>520.641</ele>
        <time>2016-09-26T08:26:24Z</time>
      </trkpt>
      <trkpt lat="43.730065" lon="-7.932839">
        <ele>520.769</ele>
        <time>2016-09-26T08:26:25Z</time>
      </trkpt>
      <trkpt lat="43.730050" lon="-7.932855">
        <ele>520.985</ele>
        <time>2016-09-26T08:26:26Z</time>
      </trkpt>
      <trkpt lat="43.730037" lon="-7.932872">
        <ele>521.289</ele>
        <time>2016-09-26T08:26:27Z</time>
      </trkpt>
      <trkpt lat="43.730025" lon="-7.932890">
        <ele>521.571</ele>
        <time>2016-09-26T08:26:28Z</time>
      </trkpt>
      <trkpt lat="43.730013" lon="-7.932908">
        <ele>521.874</ele>
        <time>2016-09-26T08:26:29Z</time>
      </trkpt>
      <trkpt lat="43.730000" lon="-7.932924">
        <ele>522.222</ele>
        <time>2016-09-26T08:26:30Z</time>
      </trkpt>
      <trkpt lat="43.729985" lon="-7.932940">
        <ele>522.428</ele>
        <time>2016-09-26T08:26:31Z</time>
      </trkpt>
      <trkpt lat="43.729971" lon="-7.932955">
        <ele>522.489</ele>
        <time>2016-09-26T08:26:32Z</time>
      </trkpt>
      <trkpt lat="43.729958" lon="-7.932971">
        <ele>522.617</ele>
        <time>2016-09-26T08:26:33Z</time>
      </trkpt>
      <trkpt lat="43.729945" lon="-7.932986">
        <ele>522.808</ele>
        <time>2016-09-26T08:26:34Z</time>
      </trkpt>
      <trkpt lat="43.729931" lon="-7.933001">
        <ele>523.093</ele>
        <time>2016-09-26T08:26:35Z</time>
      </trkpt>
      <trkpt lat="43.729918" lon="-7.933017">
        <ele>523.298</ele>
        <time>2016-09-26T08:26:36Z</time>
      </trkpt>
      <trkpt lat="43.729905" lon="-7.933032">
        <ele>523.436</ele>
        <time>2016-09-26T08:26:37Z</time>
      </trkpt>
      <trkpt lat="43.729892" lon="-7.933046">
        <ele>523.612</ele>
        <time>2016-09-26T08:26:38Z</time>
      </trkpt>
      <trkpt lat="43.729879" lon="-7.933062">
        <ele>523.696</ele>
        <time>2016-09-26T08:26:39Z</time>
      </trkpt>
      <trkpt lat="43.729866" lon="-7.933076">
        <ele>523.998</ele>
        <time>2016-09-26T08:26:40Z</time>
      </trkpt>
      <trkpt lat="43.729852" lon="-7.933091">
        <ele>524.221</ele>
        <time>2016-09-26T08:26:41Z</time>
      </trkpt>
      <trkpt lat="43.729840" lon="-7.933108">
        <ele>524.389</ele>
        <time>2016-09-26T08:26:42Z</time>
      </trkpt>
      <trkpt lat="43.729827" lon="-7.933124">
        <ele>524.356</ele>
        <time>2016-09-26T08:26:43Z</time>
      </trkpt>
      <trkpt lat="43.729813" lon="-7.933140">
        <ele>524.459</ele>
        <time>2016-09-26T08:26:44Z</time>
      </trkpt>
      <trkpt lat="43.729799" lon="-7.933157">
        <ele>524.414</ele>
        <time>2016-09-26T08:26:45Z</time>
      </trkpt>
      <trkpt lat="43.729786" lon="-7.933174">
        <ele>524.608</ele>
        <time>2016-09-26T08:26:46Z</time>
      </trkpt>
      <trkpt lat="43.729773" lon="-7.933190">
        <ele>524.796</ele>
        <time>2016-09-26T08:26:47Z</time>
      </trkpt>
      <trkpt lat="43.729759" lon="-7.933207">
        <ele>524.921</ele>
        <time>2016-09-26T08:26:48Z</time>
      </trkpt>
      <trkpt lat="43.729747" lon="-7.933225">
        <ele>525.249</ele>
        <time>2016-09-26T08:26:49Z</time>
      </trkpt>
      <trkpt lat="43.729733" lon="-7.933241">
        <ele>525.465</ele>
        <time>2016-09-26T08:26:50Z</time>
      </trkpt>
      <trkpt lat="43.729718" lon="-7.933256">
        <ele>525.529</ele>
        <time>2016-09-26T08:26:51Z</time>
      </trkpt>
      <trkpt lat="43.729704" lon="-7.933273">
        <ele>525.621</ele>
        <time>2016-09-26T08:26:52Z</time>
      </trkpt>
      <trkpt lat="43.729690" lon="-7.933288">
        <ele>525.814</ele>
        <time>2016-09-26T08:26:53Z</time>
      </trkpt>
      <trkpt lat="43.729675" lon="-7.933304">
        <ele>525.822</ele>
        <time>2016-09-26T08:26:54Z</time>
      </trkpt>
      <trkpt lat="43.729661" lon="-7.933319">
        <ele>526.037</ele>
        <time>2016-09-26T08:26:55Z</time>
      </trkpt>
      <trkpt lat="43.729647" lon="-7.933336">
        <ele>526.049</ele>
        <time>2016-09-26T08:26:56Z</time>
      </trkpt>
      <trkpt lat="43.729635" lon="-7.933354">
        <ele>526.313</ele>
        <time>2016-09-26T08:26:57Z</time>
      </trkpt>
      <trkpt lat="43.729624" lon="-7.933372">
        <ele>526.508</ele>
        <time>2016-09-26T08:26:58Z</time>
      </trkpt>
      <trkpt lat="43.729612" lon="-7.933391">
        <ele>526.744</ele>
        <time>2016-09-26T08:26:59Z</time>
      </trkpt>
      <trkpt lat="43.729601" lon="-7.933409">
        <ele>526.899</ele>
        <time>2016-09-26T08:27:00Z</time>
      </trkpt>
      <trkpt lat="43.729587" lon="-7.933426">
        <ele>526.977</ele>
        <time>2016-09-26T08:27:01Z</time>
      </trkpt>
      <trkpt lat="43.729574" lon="-7.933442">
        <ele>527.053</ele>
        <time>2016-09-26T08:27:02Z</time>
      </trkpt>
      <trkpt lat="43.729560" lon="-7.933457">
        <ele>527.427</ele>
        <time>2016-09-26T08:27:03Z</time>
      </trkpt>
      <trkpt lat="43.729547" lon="-7.933474">
        <ele>527.669</ele>
        <time>2016-09-26T08:27:04Z</time>
      </trkpt>
      <trkpt lat="43.729534" lon="-7.933490">
        <ele>527.672</ele>
        <time>2016-09-26T08:27:05Z</time>
      </trkpt>
      <trkpt lat="43.729520" lon="-7.933506">
        <ele>527.730</ele>
        <time>2016-09-26T08:27:06Z</time>
      </trkpt>
      <trkpt lat="43.729505" lon="-7.933521">
        <ele>527.792</ele>
        <time>2016-09-26T08:27:07Z</time>
      </trkpt>
      <trkpt lat="43.729492" lon="-7.933537">
        <ele>528.073</ele>
        <time>2016-09-26T08:27:08Z</time>
      </trkpt>
      <trkpt lat="43.729478" lon="-7.933555">
        <ele>528.120</ele>
        <time>2016-09-26T08:27:09Z</time>
      </trkpt>
      <trkpt lat="43.729465" lon="-7.933572">
        <ele>528.408</ele>
        <time>2016-09-26T08:27:10Z</time>
      </trkpt>
      <trkpt lat="43.729452" lon="-7.933590">
        <ele>528.550</ele>
        <time>2016-09-26T08:27:11Z</time>
      </trkpt>
      <trkpt lat="43.729438" lon="-7.933607">
        <ele>528.785</ele>
        <time>2016-09-26T08:27:12Z</time>
      </trkpt>
      <trkpt lat="43.729424" lon="-7.933625">
        <ele>528.863</ele>
        <time>2016-09-26T08:27:13Z</time>
      </trkpt>
      <trkpt lat="43.729410" lon="-7.933643">
        <ele>529.079</ele>
        <time>2016-09-26T08:27:14Z</time>
      </trkpt>
      <trkpt lat="43.729396" lon="-7.933659">
        <ele>529.133</ele>
        <time>2016-09-26T08:27:15Z</time>
      </trkpt>
      <trkpt lat="43.729383" lon="-7.933675">
        <ele>529.245</ele>
        <time>2016-09-26T08:27:16Z</time>
      </trkpt>
      <trkpt lat="43.729369" lon="-7.933690">
        <ele>529.458</ele>
        <time>2016-09-26T08:27:17Z</time>
      </trkpt>
      <trkpt lat="43.729355" lon="-7.933707">
        <ele>529.586</ele>
        <time>2016-09-26T08:27:18Z</time>
      </trkpt>
      <trkpt lat="43.729342" lon="-7.933723">
        <ele>529.547</ele>
        <time>2016-09-26T08:27:19Z</time>
      </trkpt>
      <trkpt lat="43.729328" lon="-7.933739">
        <ele>529.629</ele>
        <time>2016-09-26T08:27:20Z</time>
      </trkpt>
      <trkpt lat="43.729314" lon="-7.933755">
        <ele>529.721</ele>
        <time>2016-09-26T08:27:21Z</time>
      </trkpt>
      <trkpt lat="43.729300" lon="-7.933770">
        <ele>529.908</ele>
        <time>2016-09-26T08:27:22Z</time>
      </trkpt>
      <trkpt lat="43.729285" lon="-7.933785">
        <ele>530.085</ele>
        <time>2016-09-26T08:27:23Z</time>
      </trkpt>
      <trkpt lat="43.729272" lon="-7.933801">
        <ele>530.310</ele>
        <time>2016-09-26T08:27:24Z</time>
      </trkpt>
      <trkpt lat="43.729260" lon="-7.933818">
        <ele>530.448</ele>
        <time>2016-09-26T08:27:25Z</time>
      </trkpt>
      <trkpt lat="43.729248" lon="-7.933835">
        <ele>530.684</ele>
        <time>2016-09-26T08:27:26Z</time>
      </trkpt>
      <trkpt lat="43.729235" lon="-7.933853">
        <ele>530.888</ele>
        <time>2016-09-26T08:27:27Z</time>
      </trkpt>
      <trkpt lat="43.729222" lon="-7.933870">
        <ele>531.140</ele>
        <time>2016-09-26T08:27:28Z</time>
      </trkpt>
      <trkpt lat="43.729209" lon="-7.933887">
        <ele>531.223</ele>
        <time>2016-09-26T08:27:29Z</time>
      </trkpt>
      <trkpt lat="43.729194" lon="-7.933903">
        <ele>531.481</ele>
        <time>2016-09-26T08:27:30Z</time>
      </trkpt>
      <trkpt lat="43.729179" lon="-7.933918">
        <ele>531.427</ele>
        <time>2016-09-26T08:27:31Z</time>
      </trkpt>
      <trkpt lat="43.729165" lon="-7.933933">
        <ele>531.668</ele>
        <time>2016-09-26T08:27:32Z</time>
      </trkpt>
      <trkpt lat="43.729152" lon="-7.933949">
        <ele>531.714</ele>
        <time>2016-09-26T08:27:33Z</time>
      </trkpt>
      <trkpt lat="43.729137" lon="-7.933964">
        <ele>532.008</ele>
        <time>2016-09-26T08:27:34Z</time>
      </trkpt>
      <trkpt lat="43.729123" lon="-7.933979">
        <ele>532.273</ele>
        <time>2016-09-26T08:27:35Z</time>
      </trkpt>
      <trkpt lat="43.729108" lon="-7.933994">
        <ele>532.348</ele>
        <time>2016-09-26T08:27:36Z</time>
      </trkpt>
      <trkpt lat="43.729094" lon="-7.934009">
        <ele>532.636</ele>
        <time>2016-09-26T08:27:37Z</time>
      </trkpt>
      <trkpt lat="43.729079" lon="-7.934025">
        <ele>532.832</ele>
        <time>2016-09-26T08:27:38Z</time>
      </trkpt>
      <trkpt lat="43.729066" lon="-7.934043">
        <ele>533.166</ele>
        <time>2016-09-26T08:27:39Z</time>
      </trkpt>
      <trkpt lat="43.729052" lon="-7.934060">
        <ele>533.338</ele>
        <time>2016-09-26T08:27:40Z</time>
      </trkpt>
      <trkpt lat="43.729039" lon="-7.934078">
        <ele>533.551</ele>
        <time>2016-09-26T08:27:41Z</time>
      </trkpt>
      <trkpt lat="43.729025" lon="-7.934096">
        <ele>533.819</ele>
        <time>2016-09-26T08:27:42Z</time>
      </trkpt>
      <trkpt lat="43.729011" lon="-7.934114">
        <ele>534.036</ele>
        <time>2016-09-26T08:27:43Z</time>
      </trkpt>
      <trkpt lat="43.728998" lon="-7.934131">
        <ele>534.217</ele>
        <time>2016-09-26T08:27:44Z</time>
      </trkpt>
      <trkpt lat="43.728985" lon="-7.934147">
        <ele>534.418</ele>
        <time>2016-09-26T08:27:45Z</time>
      </trkpt>
      <trkpt lat="43.728971" lon="-7.934163">
        <ele>534.508</ele>
        <time>2016-09-26T08:27:46Z</time>
      </trkpt>
      <trkpt lat="43.728958" lon="-7.934178">
        <ele>534.654</ele>
        <time>2016-09-26T08:27:47Z</time>
      </trkpt>
      <trkpt lat="43.728944" lon="-7.934194">
        <ele>534.819</ele>
        <time>2016-09-26T08:27:48Z</time>
      </trkpt>
      <trkpt lat="43.728930" lon="-7.934211">
        <ele>535.027</ele>
        <time>2016-09-26T08:27:49Z</time>
      </trkpt>
      <trkpt lat="43.728916" lon="-7.934227">
        <ele>535.393</ele>
        <time>2016-09-26T08:27:50Z</time>
      </trkpt>
      <trkpt lat="43.728903" lon="-7.934242">
        <ele>535.427</ele>
        <time>2016-09-26T08:27:51Z</time>
      </trkpt>
      <trkpt lat="43.728889" lon="-7.934257">
        <ele>535.679</ele>
        <time>2016-09-26T08:27:52Z</time>
      </trkpt>
      <trkpt lat="43.728876" lon="-7.934273">
        <ele>535.712</ele>
        <time>2016-09-26T08:27:53Z</time>
      </trkpt>
      <trkpt lat="43.728862" lon="-7.934289">
        <ele>535.990</ele>
        <time>2016-09-26T08:27:54Z</time>
      </trkpt>
      <trkpt lat="43.728849" lon="-7.934305">
        <ele>536.056</ele>
        <time>2016-09-26T08:27:55Z</time>
      </trkpt>
      <trkpt lat="43.728836" lon="-7.934319">
        <ele>536.359</ele>
        <time>2016-09-26T08:27:56Z</time>
      </trkpt>
      <trkpt lat="43.728823" lon="-7.934334">
        <ele>536.314</ele>
        <time>2016-09-26T08:27:57Z</time>
      </trkpt>
      <trkpt lat="43.728809" lon="-7.934350">
        <ele>536.208</ele>
        <time>2016-09-26T08:27:58Z</time>
      </trkpt>
      <trkpt lat="43.728796" lon="-7.934367">
        <ele>536.466</ele>
        <time>2016-09-26T08:27:59Z</time>
      </trkpt>
      <trkpt lat="43.728783" lon="-7.934382">
        <ele>536.651</ele>
        <time>2016-09-26T08:28:00Z</time>
      </trkpt>
      <trkpt lat="43.728770" lon="-7.934399">
        <ele>536.829</ele>
        <time>2016-09-26T08:28:01Z</time>
      </trkpt>
      <trkpt lat="43.728757" lon="-7.934418">
        <ele>536.955</ele>
        <time>2016-09-26T08:28:02Z</time>
      </trkpt>
      <trkpt lat="43.728744" lon="-7.934436">
        <ele>537.189</ele>
        <time>2016-09-26T08:28:03Z</time>
      </trkpt>
      <trkpt lat="43.728731" lon="-7.934452">
        <ele>537.321</ele>
        <time>2016-09-26T08:28:04Z</time>
      </trkpt>
      <trkpt lat="43.728718" lon="-7.934469">
        <ele>537.674</ele>
        <time>2016-09-26T08:28:05Z</time>
      </trkpt>
      <trkpt lat="43.728705" lon="-7.934486">
        <ele>537.982</ele>
        <time>2016-09-26T08:28:06Z</time>
      </trkpt>
      <trkpt lat="43.728692" lon="-7.934504">
        <ele>538.124</ele>
        <time>2016-09-26T08:28:07Z</time>
      </trkpt>
      <trkpt lat="43.728679" lon="-7.934521">
        <ele>538.204</ele>
        <time>2016-09-26T08:28:08Z</time>
      </trkpt>
      <trkpt lat="43.728666" lon="-7.934537">
        <ele>538.314</ele>
        <time>2016-09-26T08:28:09Z</time>
      </trkpt>
      <trkpt lat="43.728654" lon="-7.934554">
        <ele>538.508</ele>
        <time>2016-09-26T08:28:10Z</time>
      </trkpt>
      <trkpt lat="43.728642" lon="-7.934572">
        <ele>538.683</ele>
        <time>2016-09-26T08:28:11Z</time>
      </trkpt>
      <trkpt lat="43.728629" lon="-7.934590">
        <ele>538.818</ele>
        <time>2016-09-26T08:28:12Z</time>
      </trkpt>
      <trkpt lat="43.728616" lon="-7.934607">
        <ele>538.866</ele>
        <time>2016-09-26T08:28:13Z</time>
      </trkpt>
      <trkpt lat="43.728604" lon="-7.934624">
        <ele>538.942</ele>
        <time>2016-09-26T08:28:14Z</time>
      </trkpt>
      <trkpt lat="43.728591" lon="-7.934642">
        <ele>539.356</ele>
        <time>2016-09-26T08:28:15Z</time>
      </trkpt>
      <trkpt lat="43.728579" lon="-7.934661">
        <ele>539.568</ele>
        <time>2016-09-26T08:28:16Z</time>
      </trkpt>
      <trkpt lat="43.728568" lon="-7.934679">
        <ele>539.971</ele>
        <time>2016-09-26T08:28:17Z</time>
      </trkpt>
      <trkpt lat="43.728556" lon="-7.934697">
        <ele>539.999</ele>
        <time>2016-09-26T08:28:18Z</time>
      </trkpt>
      <trkpt lat="43.728544" lon="-7.934715">
        <ele>540.036</ele>
        <time>2016-09-26T08:28:19Z</time>
      </trkpt>
      <trkpt lat="43.728532" lon="-7.934733">
        <ele>540.117</ele>
        <time>2016-09-26T08:28:20Z</time>
      </trkpt>
      <trkpt lat="43.728520" lon="-7.934751">
        <ele>540.318</ele>
        <time>2016-09-26T08:28:21Z</time>
      </trkpt>
      <trkpt lat="43.728508" lon="-7.934769">
        <ele>540.608</ele>
        <time>2016-09-26T08:28:22Z</time>
      </trkpt>
      <trkpt lat="43.728495" lon="-7.934786">
        <ele>540.714</ele>
        <time>2016-09-26T08:28:23Z</time>
      </trkpt>
      <trkpt lat="43.728484" lon="-7.934803">
        <ele>540.959</ele>
        <time>2016-09-26T08:28:24Z</time>
      </trkpt>
      <trkpt lat="43.728472" lon="-7.934821">
        <ele>541.117</ele>
        <time>2016-09-26T08:28:25Z</time>
      </trkpt>
      <trkpt lat="43.728460" lon="-7.934839">
        <ele>541.493</ele>
        <time>2016-09-26T08:28:26Z</time>
      </trkpt>
      <trkpt lat="43.728449" lon="-7.934858">
        <ele>541.597</ele>
        <time>2016-09-26T08:28:27Z</time>
      </trkpt>
      <trkpt lat="43.728437" lon="-7.934876">
        <ele>541.819</ele>
        <time>2016-09-26T08:28:28Z</time>
      </trkpt>
      <trkpt lat="43.728425" lon="-7.934895">
        <ele>541.982</ele>
        <time>2016-09-26T08:28:29Z</time>
      </trkpt>
      <trkpt lat="43.728414" lon="-7.934913">
        <ele>542.070</ele>
        <time>2016-09-26T08:28:30Z</time>
      </trkpt>
      <trkpt lat="43.728403" lon="-7.934931">
        <ele>542.284</ele>
        <time>2016-09-26T08:28:31Z</time>
      </trkpt>
      <trkpt lat="43.728392" lon="-7.934949">
        <ele>542.507</ele>
        <time>2016-09-26T08:28:32Z</time>
      </trkpt>
      <trkpt lat="43.728382" lon="-7.934967">
        <ele>542.617</ele>
        <time>2016-09-26T08:28:33Z</time>
      </trkpt>
      <trkpt lat="43.728371" lon="-7.934985">
        <ele>542.808</ele>
        <time>2016-09-26T08:28:34Z</time>
      </trkpt>
      <trkpt lat="43.728360" lon="-7.935004">
        <ele>543.089</ele>
        <time>2016-09-26T08:28:35Z</time>
      </trkpt>
      <trkpt lat="43.728348" lon="-7.935022">
        <ele>543.194</ele>
        <time>2016-09-26T08:28:36Z</time>
      </trkpt>
      <trkpt lat="43.728338" lon="-7.935040">
        <ele>543.392</ele>
        <time>2016-09-26T08:28:37Z</time>
      </trkpt>
      <trkpt lat="43.728327" lon="-7.935059">
        <ele>543.498</ele>
        <time>2016-09-26T08:28:38Z</time>
      </trkpt>
      <trkpt lat="43.728315" lon="-7.935077">
        <ele>543.692</ele>
        <time>2016-09-26T08:28:39Z</time>
      </trkpt>
      <trkpt lat="43.728304" lon="-7.935097">
        <ele>543.914</ele>
        <time>2016-09-26T08:28:40Z</time>
      </trkpt>
      <trkpt lat="43.728293" lon="-7.935116">
        <ele>544.097</ele>
        <time>2016-09-26T08:28:41Z</time>
      </trkpt>
      <trkpt lat="43.728283" lon="-7.935135">
        <ele>544.475</ele>
        <time>2016-09-26T08:28:42Z</time>
      </trkpt>
      <trkpt lat="43.728271" lon="-7.935153">
        <ele>544.711</ele>
        <time>2016-09-26T08:28:43Z</time>
      </trkpt>
      <trkpt lat="43.728260" lon="-7.935172">
        <ele>545.021</ele>
        <time>2016-09-26T08:28:44Z</time>
      </trkpt>
      <trkpt lat="43.728250" lon="-7.935191">
        <ele>545.203</ele>
        <time>2016-09-26T08:28:45Z</time>
      </trkpt>
      <trkpt lat="43.728240" lon="-7.935210">
        <ele>545.308</ele>
        <time>2016-09-26T08:28:46Z</time>
      </trkpt>
      <trkpt lat="43.728230" lon="-7.935229">
        <ele>545.512</ele>
        <time>2016-09-26T08:28:47Z</time>
      </trkpt>
      <trkpt lat="43.728220" lon="-7.935247">
        <ele>545.687</ele>
        <time>2016-09-26T08:28:48Z</time>
      </trkpt>
      <trkpt lat="43.728210" lon="-7.935265">
        <ele>545.815</ele>
        <time>2016-09-26T08:28:49Z</time>
      </trkpt>
      <trkpt lat="43.728199" lon="-7.935283">
        <ele>545.981</ele>
        <time>2016-09-26T08:28:50Z</time>
      </trkpt>
      <trkpt lat="43.728189" lon="-7.935302">
        <ele>546.165</ele>
        <time>2016-09-26T08:28:51Z</time>
      </trkpt>
      <trkpt lat="43.728178" lon="-7.935323">
        <ele>546.257</ele>
        <time>2016-09-26T08:28:52Z</time>
      </trkpt>
      <trkpt lat="43.728167" lon="-7.935342">
        <ele>546.350</ele>
        <time>2016-09-26T08:28:53Z</time>
      </trkpt>
      <trkpt lat="43.728156" lon="-7.935362">
        <ele>546.518</ele>
        <time>2016-09-26T08:28:54Z</time>
      </trkpt>
      <trkpt lat="43.728144" lon="-7.935381">
        <ele>546.579</ele>
        <time>2016-09-26T08:28:55Z</time>
      </trkpt>
      <trkpt lat="43.728132" lon="-7.935400">
        <ele>546.705</ele>
        <time>2016-09-26T08:28:56Z</time>
      </trkpt>
      <trkpt lat="43.728121" lon="-7.935418">
        <ele>546.825</ele>
        <time>2016-09-26T08:28:57Z</time>
      </trkpt>
      <trkpt lat="43.728110" lon="-7.935438">
        <ele>547.108</ele>
        <time>2016-09-26T08:28:58Z</time>
      </trkpt>
      <trkpt lat="43.728098" lon="-7.935457">
        <ele>547.488</ele>
        <time>2016-09-26T08:28:59Z</time>
      </trkpt>
      <trkpt lat="43.728086" lon="-7.935476">
        <ele>547.643</ele>
        <time>2016-09-26T08:29:00Z</time>
      </trkpt>
      <trkpt lat="43.728074" lon="-7.935494">
        <ele>547.791</ele>
        <time>2016-09-26T08:29:01Z</time>
      </trkpt>
      <trkpt lat="43.728062" lon="-7.935513">
        <ele>548.047</ele>
        <time>2016-09-26T08:29:02Z</time>
      </trkpt>
      <trkpt lat="43.728051" lon="-7.935533">
        <ele>548.351</ele>
        <time>2016-09-26T08:29:03Z</time>
      </trkpt>
      <trkpt lat="43.728040" lon="-7.935553">
        <ele>548.423</ele>
        <time>2016-09-26T08:29:04Z</time>
      </trkpt>
      <trkpt lat="43.728028" lon="-7.935572">
        <ele>548.676</ele>
        <time>2016-09-26T08:29:05Z</time>
      </trkpt>
      <trkpt lat="43.728017" lon="-7.935591">
        <ele>548.734</ele>
        <time>2016-09-26T08:29:06Z</time>
      </trkpt>
      <trkpt lat="43.728005" lon="-7.935610">
        <ele>548.977</ele>
        <time>2016-09-26T08:29:07Z</time>
      </trkpt>
      <trkpt lat="43.727993" lon="-7.935630">
        <ele>549.061</ele>
        <time>2016-09-26T08:29:08Z</time>
      </trkpt>
      <trkpt lat="43.727982" lon="-7.935649">
        <ele>549.127</ele>
        <time>2016-09-26T08:29:09Z</time>
      </trkpt>
      <trkpt lat="43.727971" lon="-7.935668">
        <ele>549.308</ele>
        <time>2016-09-26T08:29:10Z</time>
      </trkpt>
      <trkpt lat="43.727960" lon="-7.935688">
        <ele>549.598</ele>
        <time>2016-09-26T08:29:11Z</time>
      </trkpt>
      <trkpt lat="43.727949" lon="-7.935707">
        <ele>549.863</ele>
        <time>2016-09-26T08:29:12Z</time>
      </trkpt>
      <trkpt lat="43.727938" lon="-7.935726">
        <ele>549.921</ele>
        <time>2016-09-26T08:29:13Z</time>
      </trkpt>
      <trkpt lat="43.727926" lon="-7.935745">
        <ele>550.167</ele>
        <time>2016-09-26T08:29:14Z</time>
      </trkpt>
      <trkpt lat="43.727915" lon="-7.935763">
        <ele>550.341</ele>
        <time>2016-09-26T08:29:15Z</time>
      </trkpt>
      <trkpt lat="43.727903" lon="-7.935780">
        <ele>550.573</ele>
        <time>2016-09-26T08:29:16Z</time>
      </trkpt>
      <trkpt lat="43.727892" lon="-7.935799">
        <ele>550.446</ele>
        <time>2016-09-26T08:29:17Z</time>
      </trkpt>
      <trkpt lat="43.727881" lon="-7.935818">
        <ele>550.464</ele>
        <time>2016-09-26T08:29:18Z</time>
      </trkpt>
      <trkpt lat="43.727871" lon="-7.935837">
        <ele>550.639</ele>
        <time>2016-09-26T08:29:19Z</time>
      </trkpt>
      <trkpt lat="43.727861" lon="-7.935855">
        <ele>550.701</ele>
        <time>2016-09-26T08:29:20Z</time>
      </trkpt>
      <trkpt lat="43.727850" lon="-7.935875">
        <ele>550.921</ele>
        <time>2016-09-26T08:29:21Z</time>
      </trkpt>
      <trkpt lat="43.727840" lon="-7.935892">
        <ele>551.208</ele>
        <time>2016-09-26T08:29:22Z</time>
      </trkpt>
      <trkpt lat="43.727829" lon="-7.935910">
        <ele>551.474</ele>
        <time>2016-09-26T08:29:23Z</time>
      </trkpt>
      <trkpt lat="43.727818" lon="-7.935928">
        <ele>551.669</ele>
        <time>2016-09-26T08:29:24Z</time>
      </trkpt>
      <trkpt lat="43.727807" lon="-7.935946">
        <ele>551.847</ele>
        <time>2016-09-26T08:29:25Z</time>
      </trkpt>
      <trkpt lat="43.727797" lon="-7.935964">
        <ele>551.963</ele>
        <time>2016-09-26T08:29:26Z</time>
      </trkpt>
      <trkpt lat="43.727786" lon="-7.935982">
        <ele>552.167</ele>
        <time>2016-09-26T08:29:27Z</time>
      </trkpt>
      <trkpt lat="43.727775" lon="-7.936000">
        <ele>552.249</ele>
        <time>2016-09-26T08:29:28Z</time>
      </trkpt>
      <trkpt lat="43.727763" lon="-7.936017">
        <ele>552.562</ele>
        <time>2016-09-26T08:29:29Z</time>
      </trkpt>
      <trkpt lat="43.727752" lon="-7.936036">
        <ele>552.760</ele>
        <time>2016-09-26T08:29:30Z</time>
      </trkpt>
      <trkpt lat="43.727741" lon="-7.936053">
        <ele>552.899</ele>
        <time>2016-09-26T08:29:31Z</time>
      </trkpt>
      <trkpt lat="43.727730" lon="-7.936071">
        <ele>553.007</ele>
        <time>2016-09-26T08:29:32Z</time>
      </trkpt>
      <trkpt lat="43.727718" lon="-7.936088">
        <ele>553.227</ele>
        <time>2016-09-26T08:29:33Z</time>
      </trkpt>
      <trkpt lat="43.727706" lon="-7.936106">
        <ele>553.408</ele>
        <time>2016-09-26T08:29:34Z</time>
      </trkpt>
      <trkpt lat="43.727694" lon="-7.936124">
        <ele>553.690</ele>
        <time>2016-09-26T08:29:35Z</time>
      </trkpt>
      <trkpt lat="43.727682" lon="-7.936143">
        <ele>553.775</ele>
        <time>2016-09-26T08:29:36Z</time>
      </trkpt>
      <trkpt lat="43.727670" lon="-7.936162">
        <ele>553.983</ele>
        <time>2016-09-26T08:29:37Z</time>
      </trkpt>
      <trkpt lat="43.727658" lon="-7.936180">
        <ele>554.019</ele>
        <time>2016-09-26T08:29:38Z</time>
      </trkpt>
      <trkpt lat="43.727647" lon="-7.936198">
        <ele>554.233</ele>
        <time>2016-09-26T08:29:39Z</time>
      </trkpt>
      <trkpt lat="43.727635" lon="-7.936216">
        <ele>554.485</ele>
        <time>2016-09-26T08:29:40Z</time>
      </trkpt>
      <trkpt lat="43.727624" lon="-7.936233">
        <ele>554.788</ele>
        <time>2016-09-26T08:29:41Z</time>
      </trkpt>
      <trkpt lat="43.727612" lon="-7.936252">
        <ele>555.156</ele>
        <time>2016-09-26T08:29:42Z</time>
      </trkpt>
      <trkpt lat="43.727601" lon="-7.936270">
        <ele>555.381</ele>
        <time>2016-09-26T08:29:43Z</time>
      </trkpt>
      <trkpt lat="43.727589" lon="-7.936288">
        <ele>555.661</ele>
        <time>2016-09-26T08:29:44Z</time>
      </trkpt>
      <trkpt lat="43.727577" lon="-7.936306">
        <ele>555.817</ele>
        <time>2016-09-26T08:29:45Z</time>
      </trkpt>
      <trkpt lat="43.727566" lon="-7.936324">
        <ele>556.008</ele>
        <time>2016-09-26T08:29:46Z</time>
      </trkpt>
      <trkpt lat="43.727555" lon="-7.936343">
        <ele>556.169</ele>
        <time>2016-09-26T08:29:47Z</time>
      </trkpt>
      <trkpt lat="43.727544" lon="-7.936363">
        <ele>556.474</ele>
        <time>2016-09-26T08:29:48Z</time>
      </trkpt>
      <trkpt lat="43.727533" lon="-7.936382">
        <ele>556.582</ele>
        <time>2016-09-26T08:29:49Z</time>
      </trkpt>
      <trkpt lat="43.727523" lon="-7.936401">
        <ele>556.628</ele>
        <time>2016-09-26T08:29:50Z</time>
      </trkpt>
      <trkpt lat="43.727512" lon="-7.936420">
        <ele>556.772</ele>
        <time>2016-09-26T08:29:51Z</time>
      </trkpt>
      <trkpt lat="43.727501" lon="-7.936438">
        <ele>556.994</ele>
        <time>2016-09-26T08:29:52Z</time>
      </trkpt>
      <trkpt lat="43.727489" lon="-7.936454">
        <ele>557.187</ele>
        <time>2016-09-26T08:29:53Z</time>
      </trkpt>
      <trkpt lat="43.727477" lon="-7.936471">
        <ele>557.255</ele>
        <time>2016-09-26T08:29:54Z</time>
      </trkpt>
      <trkpt lat="43.727466" lon="-7.936488">
        <ele>557.318</ele>
        <time>2016-09-26T08:29:55Z</time>
      </trkpt>
      <trkpt lat="43.727455" lon="-7.936505">
        <ele>557.398</ele>
        <time>2016-09-26T08:29:56Z</time>
      </trkpt>
      <trkpt lat="43.727444" lon="-7.936523">
        <ele>557.417</ele>
        <time>2016-09-26T08:29:57Z</time>
      </trkpt>
      <trkpt lat="43.727433" lon="-7.936541">
        <ele>557.608</ele>
        <time>2016-09-26T08:29:58Z</time>
      </trkpt>
      <trkpt lat="43.727422" lon="-7.936559">
        <ele>557.612</ele>
        <time>2016-09-26T08:29:59Z</time>
      </trkpt>
      <trkpt lat="43.727411" lon="-7.936576">
        <ele>557.977</ele>
        <time>2016-09-26T08:30:00Z</time>
      </trkpt>
      <trkpt lat="43.727400" lon="-7.936594">
        <ele>558.155</ele>
        <time>2016-09-26T08:30:01Z</time>
      </trkpt>
      <trkpt lat="43.727387" lon="-7.936610">
        <ele>558.421</ele>
        <time>2016-09-26T08:30:02Z</time>
      </trkpt>
      <trkpt lat="43.727376" lon="-7.936629">
        <ele>558.735</ele>
        <time>2016-09-26T08:30:03Z</time>
      </trkpt>
      <trkpt lat="43.727366" lon="-7.936649">
        <ele>558.877</ele>
        <time>2016-09-26T08:30:04Z</time>
      </trkpt>
      <trkpt lat="43.727355" lon="-7.936667">
        <ele>558.910</ele>
        <time>2016-09-26T08:30:05Z</time>
      </trkpt>
      <trkpt lat="43.727344" lon="-7.936685">
        <ele>559.178</ele>
        <time>2016-09-26T08:30:06Z</time>
      </trkpt>
      <trkpt lat="43.727332" lon="-7.936702">
        <ele>559.465</ele>
        <time>2016-09-26T08:30:07Z</time>
      </trkpt>
      <trkpt lat="43.727321" lon="-7.936721">
        <ele>559.668</ele>
        <time>2016-09-26T08:30:08Z</time>
      </trkpt>
      <trkpt lat="43.727310" lon="-7.936739">
        <ele>559.614</ele>
        <time>2016-09-26T08:30:09Z</time>
      </trkpt>
      <trkpt lat="43.727299" lon="-7.936757">
        <ele>559.608</ele>
        <time>2016-09-26T08:30:10Z</time>
      </trkpt>
      <trkpt lat="43.727290" lon="-7.936776">
        <ele>559.837</ele>
        <time>2016-09-26T08:30:11Z</time>
      </trkpt>
      <trkpt lat="43.727281" lon="-7.936795">
        <ele>560.042</ele>
        <time>2016-09-26T08:30:12Z</time>
      </trkpt>
      <trkpt lat="43.727270" lon="-7.936814">
        <ele>560.310</ele>
        <time>2016-09-26T08:30:13Z</time>
      </trkpt>
      <trkpt lat="43.727259" lon="-7.936833">
        <ele>560.736</ele>
        <time>2016-09-26T08:30:14Z</time>
      </trkpt>
      <trkpt lat="43.727248" lon="-7.936852">
        <ele>560.940</ele>
        <time>2016-09-26T08:30:15Z</time>
      </trkpt>
      <trkpt lat="43.727238" lon="-7.936870">
        <ele>561.022</ele>
        <time>2016-09-26T08:30:16Z</time>
      </trkpt>
      <trkpt lat="43.727228" lon="-7.936888">
        <ele>561.135</ele>
        <time>2016-09-26T08:30:17Z</time>
      </trkpt>
      <trkpt lat="43.727217" lon="-7.936907">
        <ele>561.133</ele>
        <time>2016-09-26T08:30:18Z</time>
      </trkpt>
      <trkpt lat="43.727206" lon="-7.936925">
        <ele>561.291</ele>
        <time>2016-09-26T08:30:19Z</time>
      </trkpt>
      <trkpt lat="43.727194" lon="-7.936943">
        <ele>561.381</ele>
        <time>2016-09-26T08:30:20Z</time>
      </trkpt>
      <trkpt lat="43.727182" lon="-7.936960">
        <ele>561.519</ele>
        <time>2016-09-26T08:30:21Z</time>
      </trkpt>
      <trkpt lat="43.727170" lon="-7.936977">
        <ele>561.908</ele>
        <time>2016-09-26T08:30:22Z</time>
      </trkpt>
      <trkpt lat="43.727160" lon="-7.936995">
        <ele>562.170</ele>
        <time>2016-09-26T08:30:23Z</time>
      </trkpt>
      <trkpt lat="43.727149" lon="-7.937013">
        <ele>562.265</ele>
        <time>2016-09-26T08:30:24Z</time>
      </trkpt>
      <trkpt lat="43.727138" lon="-7.937030">
        <ele>562.443</ele>
        <time>2016-09-26T08:30:25Z</time>
      </trkpt>
      <trkpt lat="43.727127" lon="-7.937048">
        <ele>562.539</ele>
        <time>2016-09-26T08:30:26Z</time>
      </trkpt>
      <trkpt lat="43.727115" lon="-7.937064">
        <ele>562.693</ele>
        <time>2016-09-26T08:30:27Z</time>
      </trkpt>
      <trkpt lat="43.727104" lon="-7.937082">
        <ele>562.845</ele>
        <time>2016-09-26T08:30:28Z</time>
      </trkpt>
      <trkpt lat="43.727094" lon="-7.937099">
        <ele>563.118</ele>
        <time>2016-09-26T08:30:29Z</time>
      </trkpt>
      <trkpt lat="43.727083" lon="-7.937115">
        <ele>563.446</ele>
        <time>2016-09-26T08:30:30Z</time>
      </trkpt>
      <trkpt lat="43.727072" lon="-7.937133">
        <ele>563.592</ele>
        <time>2016-09-26T08:30:31Z</time>
      </trkpt>
      <trkpt lat="43.727060" lon="-7.937151">
        <ele>563.673</ele>
        <time>2016-09-26T08:30:32Z</time>
      </trkpt>
      <trkpt lat="43.727049" lon="-7.937169">
        <ele>563.720</ele>
        <time>2016-09-26T08:30:33Z</time>
      </trkpt>
      <trkpt lat="43.727038" lon="-7.937187">
        <ele>563.908</ele>
        <time>2016-09-26T08:30:34Z</time>
      </trkpt>
      <trkpt lat="43.727027" lon="-7.937205">
        <ele>564.130</ele>
        <time>2016-09-26T08:30:35Z</time>
      </trkpt>
      <trkpt lat="43.727016" lon="-7.937223">
        <ele>564.385</ele>
        <time>2016-09-26T08:30:36Z</time>
      </trkpt>
      <trkpt lat="43.727004" lon="-7.937242">
        <ele>564.563</ele>
        <time>2016-09-26T08:30:37Z</time>
      </trkpt>
      <trkpt lat="43.726994" lon="-7.937260">
        <ele>564.639</ele>
        <time>2016-09-26T08:30:38Z</time>
      </trkpt>
      <trkpt lat="43.726983" lon="-7.937278">
        <ele>564.733</ele>
        <time>2016-09-26T08:30:39Z</time>
      </trkpt>
      <trkpt lat="43.726972" lon="-7.937296">
        <ele>564.995</ele>
        <time>2016-09-26T08:30:40Z</time>
      </trkpt>
      <trkpt lat="43.726962" lon="-7.937314">
        <ele>565.118</ele>
        <time>2016-09-26T08:30:41Z</time>
      </trkpt>
      <trkpt lat="43.726951" lon="-7.937332">
        <ele>565.366</ele>
        <time>2016-09-26T08:30:42Z</time>
      </trkpt>
      <trkpt lat="43.726940" lon="-7.937350">
        <ele>565.267</ele>
        <time>2016-09-26T08:30:43Z</time>
      </trkpt>
      <trkpt lat="43.726928" lon="-7.937368">
        <ele>565.281</ele>
        <time>2016-09-26T08:30:44Z</time>
      </trkpt>
      <trkpt lat="43.726917" lon="-7.937387">
        <ele>565.419</ele>
        <time>2016-09-26T08:30:45Z</time>
      </trkpt>
      <trkpt lat="43.726906" lon="-7.937405">
        <ele>565.508</ele>
        <time>2016-09-26T08:30:46Z</time>
      </trkpt>
      <trkpt lat="43.726895" lon="-7.937423">
        <ele>565.757</ele>
        <time>2016-09-26T08:30:47Z</time>
      </trkpt>
      <trkpt lat="43.726885" lon="-7.937442">
        <ele>565.992</ele>
        <time>2016-09-26T08:30:48Z</time>
      </trkpt>
      <trkpt lat="43.726876" lon="-7.937459">
        <ele>566.130</ele>
        <time>2016-09-26T08:30:49Z</time>
      </trkpt>
      <trkpt lat="43.726864" lon="-7.937477">
        <ele>566.276</ele>
        <time>2016-09-26T08:30:50Z</time>
      </trkpt>
      <trkpt lat="43.726852" lon="-7.937494">
        <ele>566.430</ele>
        <time>2016-09-26T08:30:51Z</time>
      </trkpt>
      <trkpt lat="43.726841" lon="-7.937512">
        <ele>566.522</ele>
        <time>2016-09-26T08:30:52Z</time>
      </trkpt>
      <trkpt lat="43.726831" lon="-7.937531">
        <ele>566.785</ele>
        <time>2016-09-26T08:30:53Z</time>
      </trkpt>
      <trkpt lat="43.726821" lon="-7.937549">
        <ele>566.973</ele>
        <time>2016-09-26T08:30:54Z</time>
      </trkpt>
      <trkpt lat="43.726811" lon="-7.937566">
        <ele>567.236</ele>
        <time>2016-09-26T08:30:55Z</time>
      </trkpt>
      <trkpt lat="43.726799" lon="-7.937582">
        <ele>567.317</ele>
        <time>2016-09-26T08:30:56Z</time>
      </trkpt>
      <trkpt lat="43.726788" lon="-7.937600">
        <ele>567.718</ele>
        <time>2016-09-26T08:30:57Z</time>
      </trkpt>
      <trkpt lat="43.726777" lon="-7.937618">
        <ele>568.008</ele>
        <time>2016-09-26T08:30:58Z</time>
      </trkpt>
      <trkpt lat="43.726766" lon="-7.937636">
        <ele>567.944</ele>
        <time>2016-09-26T08:30:59Z</time>
      </trkpt>
      <trkpt lat="43.726755" lon="-7.937654">
        <ele>568.369</ele>
        <time>2016-09-26T08:31:00Z</time>
      </trkpt>
      <trkpt lat="43.726745" lon="-7.937672">
        <ele>568.477</ele>
        <time>2016-09-26T08:31:01Z</time>
      </trkpt>
      <trkpt lat="43.726733" lon="-7.937690">
        <ele>568.433</ele>
        <time>2016-09-26T08:31:02Z</time>
      </trkpt>
      <trkpt lat="43.726722" lon="-7.937708">
        <ele>568.587</ele>
        <time>2016-09-26T08:31:03Z</time>
      </trkpt>
      <trkpt lat="43.726710" lon="-7.937726">
        <ele>568.769</ele>
        <time>2016-09-26T08:31:04Z</time>
      </trkpt>
      <trkpt lat="43.726698" lon="-7.937744">
        <ele>568.922</ele>
        <time>2016-09-26T08:31:05Z</time>
      </trkpt>
      <trkpt lat="43.726687" lon="-7.937764">
        <ele>569.090</ele>
        <time>2016-09-26T08:31:06Z</time>
      </trkpt>
      <trkpt lat="43.726677" lon="-7.937783">
        <ele>569.237</ele>
        <time>2016-09-26T08:31:07Z</time>
      </trkpt>
      <trkpt lat="43.726665" lon="-7.937801">
        <ele>569.349</ele>
        <time>2016-09-26T08:31:08Z</time>
      </trkpt>
      <trkpt lat="43.726655" lon="-7.937820">
        <ele>569.513</ele>
        <time>2016-09-26T08:31:09Z</time>
      </trkpt>
      <trkpt lat="43.726644" lon="-7.937839">
        <ele>569.608</ele>
        <time>2016-09-26T08:31:10Z</time>
      </trkpt>
      <trkpt lat="43.726634" lon="-7.937857">
        <ele>569.774</ele>
        <time>2016-09-26T08:31:11Z</time>
      </trkpt>
      <trkpt lat="43.726623" lon="-7.937875">
        <ele>570.029</ele>
        <time>2016-09-26T08:31:12Z</time>
      </trkpt>
      <trkpt lat="43.726612" lon="-7.937894">
        <ele>570.327</ele>
        <time>2016-09-26T08:31:13Z</time>
      </trkpt>
      <trkpt lat="43.726600" lon="-7.937911">
        <ele>570.493</ele>
        <time>2016-09-26T08:31:14Z</time>
      </trkpt>
      <trkpt lat="43.726587" lon="-7.937929">
        <ele>570.527</ele>
        <time>2016-09-26T08:31:15Z</time>
      </trkpt>
      <trkpt lat="43.726575" lon="-7.937948">
        <ele>570.689</ele>
        <time>2016-09-26T08:31:16Z</time>
      </trkpt>
      <trkpt lat="43.726565" lon="-7.937967">
        <ele>570.892</ele>
        <time>2016-09-26T08:31:17Z</time>
      </trkpt>
      <trkpt lat="43.726556" lon="-7.937987">
        <ele>571.070</ele>
        <time>2016-09-26T08:31:18Z</time>
      </trkpt>
      <trkpt lat="43.726545" lon="-7.938008">
        <ele>571.296</ele>
        <time>2016-09-26T08:31:19Z</time>
      </trkpt>
      <trkpt lat="43.726534" lon="-7.938028">
        <ele>571.431</ele>
        <time>2016-09-26T08:31:20Z</time>
      </trkpt>
      <trkpt lat="43.726524" lon="-7.938049">
        <ele>571.724</ele>
        <time>2016-09-26T08:31:21Z</time>
      </trkpt>
      <trkpt lat="43.726512" lon="-7.938070">
        <ele>572.108</ele>
        <time>2016-09-26T08:31:22Z</time>
      </trkpt>
      <trkpt lat="43.726499" lon="-7.938090">
        <ele>572.290</ele>
        <time>2016-09-26T08:31:23Z</time>
      </trkpt>
      <trkpt lat="43.726487" lon="-7.938109">
        <ele>572.345</ele>
        <time>2016-09-26T08:31:24Z</time>
      </trkpt>
      <trkpt lat="43.726476" lon="-7.938127">
        <ele>572.533</ele>
        <time>2016-09-26T08:31:25Z</time>
      </trkpt>
      <trkpt lat="43.726465" lon="-7.938146">
        <ele>572.629</ele>
        <time>2016-09-26T08:31:26Z</time>
      </trkpt>
      <trkpt lat="43.726454" lon="-7.938164">
        <ele>572.663</ele>
        <time>2016-09-26T08:31:27Z</time>
      </trkpt>
      <trkpt lat="43.726443" lon="-7.938182">
        <ele>572.835</ele>
        <time>2016-09-26T08:31:28Z</time>
      </trkpt>
      <trkpt lat="43.726431" lon="-7.938201">
        <ele>573.058</ele>
        <time>2016-09-26T08:31:29Z</time>
      </trkpt>
      <trkpt lat="43.726420" lon="-7.938218">
        <ele>573.256</ele>
        <time>2016-09-26T08:31:30Z</time>
      </trkpt>
      <trkpt lat="43.726409" lon="-7.938235">
        <ele>573.676</ele>
        <time>2016-09-26T08:31:31Z</time>
      </trkpt>
      <trkpt lat="43.726397" lon="-7.938254">
        <ele>573.690</ele>
        <time>2016-09-26T08:31:32Z</time>
      </trkpt>
      <trkpt lat="43.726385" lon="-7.938271">
        <ele>573.819</ele>
        <time>2016-09-26T08:31:33Z</time>
      </trkpt>
      <trkpt lat="43.726373" lon="-7.938289">
        <ele>573.908</ele>
        <time>2016-09-26T08:31:34Z</time>
      </trkpt>
      <trkpt lat="43.726362" lon="-7.938306">
        <ele>574.038</ele>
        <time>2016-09-26T08:31:35Z</time>
      </trkpt>
      <trkpt lat="43.726352" lon="-7.938325">
        <ele>574.073</ele>
        <time>2016-09-26T08:31:36Z</time>
      </trkpt>
      <trkpt lat="43.726341" lon="-7.938344">
        <ele>574.181</ele>
        <time>2016-09-26T08:31:37Z</time>
      </trkpt>
      <trkpt lat="43.726329" lon="-7.938363">
        <ele>574.337</ele>
        <time>2016-09-26T08:31:38Z</time>
      </trkpt>
      <trkpt lat="43.726318" lon="-7.938381">
        <ele>574.471</ele>
        <time>2016-09-26T08:31:39Z</time>
      </trkpt>
      <trkpt lat="43.726306" lon="-7.938399">
        <ele>574.673</ele>
        <time>2016-09-26T08:31:40Z</time>
      </trkpt>
      <trkpt lat="43.726294" lon="-7.938418">
        <ele>574.776</ele>
        <time>2016-09-26T08:31:41Z</time>
      </trkpt>
      <trkpt lat="43.726282" lon="-7.938437">
        <ele>575.084</ele>
        <time>2016-09-26T08:31:42Z</time>
      </trkpt>
      <trkpt lat="43.726270" lon="-7.938457">
        <ele>574.933</ele>
        <time>2016-09-26T08:31:43Z</time>
      </trkpt>
      <trkpt lat="43.726259" lon="-7.938476">
        <ele>575.123</ele>
        <time>2016-09-26T08:31:44Z</time>
      </trkpt>
      <trkpt lat="43.726248" lon="-7.938495">
        <ele>575.215</ele>
        <time>2016-09-26T08:31:45Z</time>
      </trkpt>
      <trkpt lat="43.726237" lon="-7.938514">
        <ele>575.108</ele>
        <time>2016-09-26T08:31:46Z</time>
      </trkpt>
      <trkpt lat="43.726225" lon="-7.938533">
        <ele>575.334</ele>
        <time>2016-09-26T08:31:47Z</time>
      </trkpt>
      <trkpt lat="43.726213" lon="-7.938551">
        <ele>575.529</ele>
        <time>2016-09-26T08:31:48Z</time>
      </trkpt>
      <trkpt lat="43.726202" lon="-7.938570">
        <ele>575.797</ele>
        <time>2016-09-26T08:31:49Z</time>
      </trkpt>
      <trkpt lat="43.726191" lon="-7.938589">
        <ele>576.053</ele>
        <time>2016-09-26T08:31:50Z</time>
      </trkpt>
      <trkpt lat="43.726179" lon="-7.938608">
        <ele>576.247</ele>
        <time>2016-09-26T08:31:51Z</time>
      </trkpt>
      <trkpt lat="43.726167" lon="-7.938626">
        <ele>576.249</ele>
        <time>2016-09-26T08:31:52Z</time>
      </trkpt>
      <trkpt lat="43.726156" lon="-7.938644">
        <ele>576.352</ele>
        <time>2016-09-26T08:31:53Z</time>
      </trkpt>
      <trkpt lat="43.726145" lon="-7.938662">
        <ele>576.570</ele>
        <time>2016-09-26T08:31:54Z</time>
      </trkpt>
      <trkpt lat="43.726133" lon="-7.938680">
        <ele>576.686</ele>
        <time>2016-09-26T08:31:55Z</time>
      </trkpt>
      <trkpt lat="43.726121" lon="-7.938698">
        <ele>576.760</ele>
        <time>2016-09-26T08:31:56Z</time>
      </trkpt>
      <trkpt lat="43.726109" lon="-7.938716">
        <ele>576.926</ele>
        <time>2016-09-26T08:31:57Z</time>
      </trkpt>
      <trkpt lat="43.726098" lon="-7.938734">
        <ele>577.108</ele>
        <time>2016-09-26T08:31:58Z</time>
      </trkpt>
      <trkpt lat="43.726088" lon="-7.938752">
        <ele>577.399</ele>
        <time>2016-09-26T08:31:59Z</time>
      </trkpt>
      <trkpt lat="43.726077" lon="-7.938771">
        <ele>577.464</ele>
        <time>2016-09-26T08:32:00Z</time>
      </trkpt>
      <trkpt lat="43.726065" lon="-7.938789">
        <ele>577.682</ele>
        <time>2016-09-26T08:32:01Z</time>
      </trkpt>
      <trkpt lat="43.726053" lon="-7.938808">
        <ele>577.718</ele>
        <time>2016-09-26T08:32:02Z</time>
      </trkpt>
      <trkpt lat="43.726041" lon="-7.938827">
        <ele>577.972</ele>
        <time>2016-09-26T08:32:03Z</time>
      </trkpt>
      <trkpt lat="43.726030" lon="-7.938846">
        <ele>577.954</ele>
        <time>2016-09-26T08:32:04Z</time>
      </trkpt>
      <trkpt lat="43.726019" lon="-7.938865">
        <ele>578.047</ele>
        <time>2016-09-26T08:32:05Z</time>
      </trkpt>
      <trkpt lat="43.726008" lon="-7.938884">
        <ele>578.255</ele>
        <time>2016-09-26T08:32:06Z</time>
      </trkpt>
      <trkpt lat="43.725997" lon="-7.938902">
        <ele>578.518</ele>
        <time>2016-09-26T08:32:07Z</time>
      </trkpt>
      <trkpt lat="43.725985" lon="-7.938921">
        <ele>578.898</ele>
        <time>2016-09-26T08:32:08Z</time>
      </trkpt>
      <trkpt lat="43.725975" lon="-7.938940">
        <ele>579.017</ele>
        <time>2016-09-26T08:32:09Z</time>
      </trkpt>
      <trkpt lat="43.725963" lon="-7.938957">
        <ele>579.308</ele>
        <time>2016-09-26T08:32:10Z</time>
      </trkpt>
      <trkpt lat="43.725952" lon="-7.938976">
        <ele>579.332</ele>
        <time>2016-09-26T08:32:11Z</time>
      </trkpt>
      <trkpt lat="43.725941" lon="-7.938995">
        <ele>579.567</ele>
        <time>2016-09-26T08:32:12Z</time>
      </trkpt>
      <trkpt lat="43.725930" lon="-7.939014">
        <ele>579.585</ele>
        <time>2016-09-26T08:32:13Z</time>
      </trkpt>
      <trkpt lat="43.725919" lon="-7.939033">
        <ele>579.591</ele>
        <time>2016-09-26T08:32:14Z</time>
      </trkpt>
      <trkpt lat="43.725907" lon="-7.939051">
        <ele>579.775</ele>
        <time>2016-09-26T08:32:15Z</time>
      </trkpt>
      <trkpt lat="43.725897" lon="-7.939069">
        <ele>579.937</ele>
        <time>2016-09-26T08:32:16Z</time>
      </trkpt>
      <trkpt lat="43.725887" lon="-7.939088">
        <ele>580.150</ele>
        <time>2016-09-26T08:32:17Z</time>
      </trkpt>
      <trkpt lat="43.725877" lon="-7.939108">
        <ele>580.118</ele>
        <time>2016-09-26T08:32:18Z</time>
      </trkpt>
      <trkpt lat="43.725866" lon="-7.939127">
        <ele>580.229</ele>
        <time>2016-09-26T08:32:19Z</time>
      </trkpt>
      <trkpt lat="43.725855" lon="-7.939146">
        <ele>580.200</ele>
        <time>2016-09-26T08:32:20Z</time>
      </trkpt>
      <trkpt lat="43.725843" lon="-7.939165">
        <ele>580.620</ele>
        <time>2016-09-26T08:32:21Z</time>
      </trkpt>
      <trkpt lat="43.725832" lon="-7.939183">
        <ele>580.808</ele>
        <time>2016-09-26T08:32:22Z</time>
      </trkpt>
      <trkpt lat="43.725819" lon="-7.939202">
        <ele>581.053</ele>
        <time>2016-09-26T08:32:23Z</time>
      </trkpt>
      <trkpt lat="43.725807" lon="-7.939222">
        <ele>581.048</ele>
        <time>2016-09-26T08:32:24Z</time>
      </trkpt>
      <trkpt lat="43.725797" lon="-7.939243">
        <ele>581.266</ele>
        <time>2016-09-26T08:32:25Z</time>
      </trkpt>
      <trkpt lat="43.725786" lon="-7.939263">
        <ele>581.562</ele>
        <time>2016-09-26T08:32:26Z</time>
      </trkpt>
      <trkpt lat="43.725776" lon="-7.939283">
        <ele>581.596</ele>
        <time>2016-09-26T08:32:27Z</time>
      </trkpt>
      <trkpt lat="43.725765" lon="-7.939302">
        <ele>581.698</ele>
        <time>2016-09-26T08:32:28Z</time>
      </trkpt>
      <trkpt lat="43.725754" lon="-7.939323">
        <ele>581.941</ele>
        <time>2016-09-26T08:32:29Z</time>
      </trkpt>
      <trkpt lat="43.725742" lon="-7.939343">
        <ele>582.299</ele>
        <time>2016-09-26T08:32:30Z</time>
      </trkpt>
      <trkpt lat="43.725730" lon="-7.939363">
        <ele>582.113</ele>
        <time>2016-09-26T08:32:31Z</time>
      </trkpt>
      <trkpt lat="43.725718" lon="-7.939383">
        <ele>582.343</ele>
        <time>2016-09-26T08:32:32Z</time>
      </trkpt>
      <trkpt lat="43.725707" lon="-7.939403">
        <ele>582.507</ele>
        <time>2016-09-26T08:32:33Z</time>
      </trkpt>
      <trkpt lat="43.725695" lon="-7.939424">
        <ele>582.608</ele>
        <time>2016-09-26T08:32:34Z</time>
      </trkpt>
      <trkpt lat="43.725684" lon="-7.939444">
        <ele>582.612</ele>
        <time>2016-09-26T08:32:35Z</time>
      </trkpt>
      <trkpt lat="43.725672" lon="-7.939463">
        <ele>582.767</ele>
        <time>2016-09-26T08:32:36Z</time>
      </trkpt>
      <trkpt lat="43.725658" lon="-7.939483">
        <ele>583.015</ele>
        <time>2016-09-26T08:32:37Z</time>
      </trkpt>
      <trkpt lat="43.725646" lon="-7.939502">
        <ele>583.161</ele>
        <time>2016-09-26T08:32:38Z</time>
      </trkpt>
      <trkpt lat="43.725633" lon="-7.939522">
        <ele>583.265</ele>
        <time>2016-09-26T08:32:39Z</time>
      </trkpt>
      <trkpt lat="43.725621" lon="-7.939543">
        <ele>583.447</ele>
        <time>2016-09-26T08:32:40Z</time>
      </trkpt>
      <trkpt lat="43.725609" lon="-7.939563">
        <ele>583.460</ele>
        <time>2016-09-26T08:32:41Z</time>
      </trkpt>
      <trkpt lat="43.725597" lon="-7.939582">
        <ele>583.528</ele>
        <time>2016-09-26T08:32:42Z</time>
      </trkpt>
      <trkpt lat="43.725584" lon="-7.939602">
        <ele>583.699</ele>
        <time>2016-09-26T08:32:43Z</time>
      </trkpt>
      <trkpt lat="43.725572" lon="-7.939623">
        <ele>583.607</ele>
        <time>2016-09-26T08:32:44Z</time>
      </trkpt>
      <trkpt lat="43.725559" lon="-7.939644">
        <ele>583.627</ele>
        <time>2016-09-26T08:32:45Z</time>
      </trkpt>
      <trkpt lat="43.725547" lon="-7.939665">
        <ele>583.908</ele>
        <time>2016-09-26T08:32:46Z</time>
      </trkpt>
      <trkpt lat="43.725535" lon="-7.939687">
        <ele>584.210</ele>
        <time>2016-09-26T08:32:47Z</time>
      </trkpt>
      <trkpt lat="43.725524" lon="-7.939709">
        <ele>584.465</ele>
        <time>2016-09-26T08:32:48Z</time>
      </trkpt>
      <trkpt lat="43.725512" lon="-7.939731">
        <ele>584.643</ele>
        <time>2016-09-26T08:32:49Z</time>
      </trkpt>
      <trkpt lat="43.725500" lon="-7.939752">
        <ele>584.849</ele>
        <time>2016-09-26T08:32:50Z</time>
      </trkpt>
      <trkpt lat="43.725487" lon="-7.939774">
        <ele>584.863</ele>
        <time>2016-09-26T08:32:51Z</time>
      </trkpt>
      <trkpt lat="43.725474" lon="-7.939795">
        <ele>584.815</ele>
        <time>2016-09-26T08:32:52Z</time>
      </trkpt>
      <trkpt lat="43.725460" lon="-7.939817">
        <ele>584.958</ele>
        <time>2016-09-26T08:32:53Z</time>
      </trkpt>
      <trkpt lat="43.725447" lon="-7.939839">
        <ele>584.936</ele>
        <time>2016-09-26T08:32:54Z</time>
      </trkpt>
      <trkpt lat="43.725435" lon="-7.939862">
        <ele>585.021</ele>
        <time>2016-09-26T08:32:55Z</time>
      </trkpt>
      <trkpt lat="43.725421" lon="-7.939886">
        <ele>585.041</ele>
        <time>2016-09-26T08:32:56Z</time>
      </trkpt>
      <trkpt lat="43.725408" lon="-7.939911">
        <ele>585.305</ele>
        <time>2016-09-26T08:32:57Z</time>
      </trkpt>
      <trkpt lat="43.725393" lon="-7.939936">
        <ele>585.508</ele>
        <time>2016-09-26T08:32:58Z</time>
      </trkpt>
      <trkpt lat="43.725378" lon="-7.939961">
        <ele>585.653</ele>
        <time>2016-09-26T08:32:59Z</time>
      </trkpt>
      <trkpt lat="43.725362" lon="-7.939986">
        <ele>585.738</ele>
        <time>2016-09-26T08:33:00Z</time>
      </trkpt>
      <trkpt lat="43.725346" lon="-7.940011">
        <ele>585.746</ele>
        <time>2016-09-26T08:33:01Z</time>
      </trkpt>
      <trkpt lat="43.725330" lon="-7.940037">
        <ele>585.652</ele>
        <time>2016-09-26T08:33:02Z</time>
      </trkpt>
      <trkpt lat="43.725314" lon="-7.940066">
        <ele>585.836</ele>
        <time>2016-09-26T08:33:03Z</time>
      </trkpt>
      <trkpt lat="43.725297" lon="-7.940092">
        <ele>586.018</ele>
        <time>2016-09-26T08:33:04Z</time>
      </trkpt>
      <trkpt lat="43.725279" lon="-7.940119">
        <ele>586.061</ele>
        <time>2016-09-26T08:33:05Z</time>
      </trkpt>
      <trkpt lat="43.725263" lon="-7.940146">
        <ele>586.329</ele>
        <time>2016-09-26T08:33:06Z</time>
      </trkpt>
      <trkpt lat="43.725246" lon="-7.940173">
        <ele>586.542</ele>
        <time>2016-09-26T08:33:07Z</time>
      </trkpt>
      <trkpt lat="43.725229" lon="-7.940198">
        <ele>586.522</ele>
        <time>2016-09-26T08:33:08Z</time>
      </trkpt>
      <trkpt lat="43.725213" lon="-7.940229">
        <ele>586.714</ele>
        <time>2016-09-26T08:33:09Z</time>
      </trkpt>
      <trkpt lat="43.725197" lon="-7.940256">
        <ele>586.908</ele>
        <time>2016-09-26T08:33:10Z</time>
      </trkpt>
      <trkpt lat="43.725181" lon="-7.940283">
        <ele>586.915</ele>
        <time>2016-09-26T08:33:11Z</time>
      </trkpt>
      <trkpt lat="43.725165" lon="-7.940309">
        <ele>586.920</ele>
        <time>2016-09-26T08:33:12Z</time>
      </trkpt>
      <trkpt lat="43.725149" lon="-7.940335">
        <ele>587.058</ele>
        <time>2016-09-26T08:33:13Z</time>
      </trkpt>
      <trkpt lat="43.725133" lon="-7.940362">
        <ele>587.124</ele>
        <time>2016-09-26T08:33:14Z</time>
      </trkpt>
      <trkpt lat="43.725118" lon="-7.940390">
        <ele>587.288</ele>
        <time>2016-09-26T08:33:15Z</time>
      </trkpt>
      <trkpt lat="43.725102" lon="-7.940417">
        <ele>587.460</ele>
        <time>2016-09-26T08:33:16Z</time>
      </trkpt>
      <trkpt lat="43.725086" lon="-7.940443">
        <ele>587.513</ele>
        <time>2016-09-26T08:33:17Z</time>
      </trkpt>
      <trkpt lat="43.725071" lon="-7.940470">
        <ele>587.611</ele>
        <time>2016-09-26T08:33:18Z</time>
      </trkpt>
      <trkpt lat="43.725057" lon="-7.940497">
        <ele>587.761</ele>
        <time>2016-09-26T08:33:19Z</time>
      </trkpt>
      <trkpt lat="43.725040" lon="-7.940522">
        <ele>587.821</ele>
        <time>2016-09-26T08:33:20Z</time>
      </trkpt>
      <trkpt lat="43.725025" lon="-7.940547">
        <ele>588.013</ele>
        <time>2016-09-26T08:33:21Z</time>
      </trkpt>
      <trkpt lat="43.725010" lon="-7.940574">
        <ele>588.208</ele>
        <time>2016-09-26T08:33:22Z</time>
      </trkpt>
      <trkpt lat="43.724996" lon="-7.940601">
        <ele>588.357</ele>
        <time>2016-09-26T08:33:23Z</time>
      </trkpt>
      <trkpt lat="43.724980" lon="-7.940628">
        <ele>588.342</ele>
        <time>2016-09-26T08:33:24Z</time>
      </trkpt>
      <trkpt lat="43.724965" lon="-7.940653">
        <ele>588.280</ele>
        <time>2016-09-26T08:33:25Z</time>
      </trkpt>
      <trkpt lat="43.724949" lon="-7.940679">
        <ele>588.486</ele>
        <time>2016-09-26T08:33:26Z</time>
      </trkpt>
      <trkpt lat="43.724932" lon="-7.940704">
        <ele>588.550</ele>
        <time>2016-09-26T08:33:27Z</time>
      </trkpt>
      <trkpt lat="43.724914" lon="-7.940729">
        <ele>588.532</ele>
        <time>2016-09-26T08:33:28Z</time>
      </trkpt>
      <trkpt lat="43.724897" lon="-7.940755">
        <ele>588.645</ele>
        <time>2016-09-26T08:33:29Z</time>
      </trkpt>
      <trkpt lat="43.724880" lon="-7.940783">
        <ele>588.693</ele>
        <time>2016-09-26T08:33:30Z</time>
      </trkpt>
      <trkpt lat="43.724864" lon="-7.940811">
        <ele>588.724</ele>
        <time>2016-09-26T08:33:31Z</time>
      </trkpt>
      <trkpt lat="43.724849" lon="-7.940840">
        <ele>588.904</ele>
        <time>2016-09-26T08:33:32Z</time>
      </trkpt>
      <trkpt lat="43.724833" lon="-7.940867">
        <ele>589.014</ele>
        <time>2016-09-26T08:33:33Z</time>
      </trkpt>
      <trkpt lat="43.724816" lon="-7.940894">
        <ele>589.108</ele>
        <time>2016-09-26T08:33:34Z</time>
      </trkpt>
      <trkpt lat="43.724801" lon="-7.940921">
        <ele>589.033</ele>
        <time>2016-09-26T08:33:35Z</time>
      </trkpt>
      <trkpt lat="43.724784" lon="-7.940948">
        <ele>589.168</ele>
        <time>2016-09-26T08:33:36Z</time>
      </trkpt>
      <trkpt lat="43.724769" lon="-7.940974">
        <ele>589.116</ele>
        <time>2016-09-26T08:33:37Z</time>
      </trkpt>
      <trkpt lat="43.724753" lon="-7.941001">
        <ele>589.412</ele>
        <time>2016-09-26T08:33:38Z</time>
      </trkpt>
      <trkpt lat="43.724737" lon="-7.941028">
        <ele>589.426</ele>
        <time>2016-09-26T08:33:39Z</time>
      </trkpt>
      <trkpt lat="43.724720" lon="-7.941054">
        <ele>589.658</ele>
        <time>2016-09-26T08:33:40Z</time>
      </trkpt>
      <trkpt lat="43.724703" lon="-7.941081">
        <ele>589.791</ele>
        <time>2016-09-26T08:33:41Z</time>
      </trkpt>
      <trkpt lat="43.724686" lon="-7.941105">
        <ele>589.759</ele>
        <time>2016-09-26T08:33:42Z</time>
      </trkpt>
      <trkpt lat="43.724669" lon="-7.941130">
        <ele>589.784</ele>
        <time>2016-09-26T08:33:43Z</time>
      </trkpt>
      <trkpt lat="43.724653" lon="-7.941156">
        <ele>589.807</ele>
        <time>2016-09-26T08:33:44Z</time>
      </trkpt>
      <trkpt lat="43.724637" lon="-7.941182">
        <ele>590.017</ele>
        <time>2016-09-26T08:33:45Z</time>
      </trkpt>
      <trkpt lat="43.724622" lon="-7.941209">
        <ele>590.108</ele>
        <time>2016-09-26T08:33:46Z</time>
      </trkpt>
      <trkpt lat="43.724607" lon="-7.941234">
        <ele>590.299</ele>
        <time>2016-09-26T08:33:47Z</time>
      </trkpt>
      <trkpt lat="43.724591" lon="-7.941259">
        <ele>590.454</ele>
        <time>2016-09-26T08:33:48Z</time>
      </trkpt>
      <trkpt lat="43.724574" lon="-7.941284">
        <ele>590.572</ele>
        <time>2016-09-26T08:33:49Z</time>
      </trkpt>
      <trkpt lat="43.724558" lon="-7.941311">
        <ele>590.638</ele>
        <time>2016-09-26T08:33:50Z</time>
      </trkpt>
      <trkpt lat="43.724542" lon="-7.941336">
        <ele>590.712</ele>
        <time>2016-09-26T08:33:51Z</time>
      </trkpt>
      <trkpt lat="43.724528" lon="-7.941364">
        <ele>591.034</ele>
        <time>2016-09-26T08:33:52Z</time>
      </trkpt>
      <trkpt lat="43.724514" lon="-7.941389">
        <ele>591.187</ele>
        <time>2016-09-26T08:33:53Z</time>
      </trkpt>
      <trkpt lat="43.724500" lon="-7.941415">
        <ele>591.295</ele>
        <time>2016-09-26T08:33:54Z</time>
      </trkpt>
      <trkpt lat="43.724485" lon="-7.941441">
        <ele>591.452</ele>
        <time>2016-09-26T08:33:55Z</time>
      </trkpt>
      <trkpt lat="43.724469" lon="-7.941465">
        <ele>591.553</ele>
        <time>2016-09-26T08:33:56Z</time>
      </trkpt>
      <trkpt lat="43.724454" lon="-7.941489">
        <ele>591.608</ele>
        <time>2016-09-26T08:33:57Z</time>
      </trkpt>
      <trkpt lat="43.724439" lon="-7.941513">
        <ele>591.808</ele>
        <time>2016-09-26T08:33:58Z</time>
      </trkpt>
      <trkpt lat="43.724425" lon="-7.941538">
        <ele>591.946</ele>
        <time>2016-09-26T08:33:59Z</time>
      </trkpt>
      <trkpt lat="43.724412" lon="-7.941562">
        <ele>592.091</ele>
        <time>2016-09-26T08:34:00Z</time>
      </trkpt>
      <trkpt lat="43.724397" lon="-7.941588">
        <ele>592.189</ele>
        <time>2016-09-26T08:34:01Z</time>
      </trkpt>
      <trkpt lat="43.724381" lon="-7.941612">
        <ele>592.465</ele>
        <time>2016-09-26T08:34:02Z</time>
      </trkpt>
      <trkpt lat="43.724365" lon="-7.941638">
        <ele>592.649</ele>
        <time>2016-09-26T08:34:03Z</time>
      </trkpt>
      <trkpt lat="43.724349" lon="-7.941666">
        <ele>592.891</ele>
        <time>2016-09-26T08:34:04Z</time>
      </trkpt>
      <trkpt lat="43.724334" lon="-7.941693">
        <ele>592.894</ele>
        <time>2016-09-26T08:34:05Z</time>
      </trkpt>
      <trkpt lat="43.724319" lon="-7.941721">
        <ele>592.982</ele>
        <time>2016-09-26T08:34:06Z</time>
      </trkpt>
      <trkpt lat="43.724303" lon="-7.941750">
        <ele>593.069</ele>
        <time>2016-09-26T08:34:07Z</time>
      </trkpt>
      <trkpt lat="43.724285" lon="-7.941779">
        <ele>592.804</ele>
        <time>2016-09-26T08:34:08Z</time>
      </trkpt>
      <trkpt lat="43.724268" lon="-7.941809">
        <ele>593.024</ele>
        <time>2016-09-26T08:34:09Z</time>
      </trkpt>
      <trkpt lat="43.724250" lon="-7.941841">
        <ele>593.008</ele>
        <time>2016-09-26T08:34:10Z</time>
      </trkpt>
      <trkpt lat="43.724231" lon="-7.941875">
        <ele>593.077</ele>
        <time>2016-09-26T08:34:11Z</time>
      </trkpt>
      <trkpt lat="43.724209" lon="-7.941908">
        <ele>593.182</ele>
        <time>2016-09-26T08:34:12Z</time>
      </trkpt>
      <trkpt lat="43.724188" lon="-7.941943">
        <ele>593.370</ele>
        <time>2016-09-26T08:34:13Z</time>
      </trkpt>
      <trkpt lat="43.724167" lon="-7.941978">
        <ele>593.316</ele>
        <time>2016-09-26T08:34:14Z</time>
      </trkpt>
      <trkpt lat="43.724143" lon="-7.942016">
        <ele>593.690</ele>
        <time>2016-09-26T08:34:15Z</time>
      </trkpt>
      <trkpt lat="43.724118" lon="-7.942054">
        <ele>593.522</ele>
        <time>2016-09-26T08:34:16Z</time>
      </trkpt>
      <trkpt lat="43.724093" lon="-7.942095">
        <ele>593.675</ele>
        <time>2016-09-26T08:34:17Z</time>
      </trkpt>
      <trkpt lat="43.724069" lon="-7.942138">
        <ele>593.743</ele>
        <time>2016-09-26T08:34:18Z</time>
      </trkpt>
      <trkpt lat="43.724044" lon="-7.942183">
        <ele>593.817</ele>
        <time>2016-09-26T08:34:19Z</time>
      </trkpt>
      <trkpt lat="43.724017" lon="-7.942228">
        <ele>593.887</ele>
        <time>2016-09-26T08:34:20Z</time>
      </trkpt>
      <trkpt lat="43.723990" lon="-7.942275">
        <ele>593.815</ele>
        <time>2016-09-26T08:34:21Z</time>
      </trkpt>
      <trkpt lat="43.723962" lon="-7.942322">
        <ele>593.808</ele>
        <time>2016-09-26T08:34:22Z</time>
      </trkpt>
      <trkpt lat="43.723934" lon="-7.942370">
        <ele>593.942</ele>
        <time>2016-09-26T08:34:23Z</time>
      </trkpt>
      <trkpt lat="43.723905" lon="-7.942417">
        <ele>594.077</ele>
        <time>2016-09-26T08:34:24Z</time>
      </trkpt>
      <trkpt lat="43.723876" lon="-7.942466">
        <ele>594.175</ele>
        <time>2016-09-26T08:34:25Z</time>
      </trkpt>
      <trkpt lat="43.723847" lon="-7.942517">
        <ele>594.291</ele>
        <time>2016-09-26T08:34:26Z</time>
      </trkpt>
      <trkpt lat="43.723817" lon="-7.942567">
        <ele>594.135</ele>
        <time>2016-09-26T08:34:27Z</time>
      </trkpt>
      <trkpt lat="43.723787" lon="-7.942615">
        <ele>594.147</ele>
        <time>2016-09-26T08:34:28Z</time>
      </trkpt>
      <trkpt lat="43.723758" lon="-7.942664">
        <ele>594.390</ele>
        <time>2016-09-26T08:34:29Z</time>
      </trkpt>
      <trkpt lat="43.723730" lon="-7.942713">
        <ele>594.438</ele>
        <time>2016-09-26T08:34:30Z</time>
      </trkpt>
      <trkpt lat="43.723701" lon="-7.942762">
        <ele>594.555</ele>
        <time>2016-09-26T08:34:31Z</time>
      </trkpt>
      <trkpt lat="43.723672" lon="-7.942811">
        <ele>594.407</ele>
        <time>2016-09-26T08:34:32Z</time>
      </trkpt>
      <trkpt lat="43.723644" lon="-7.942860">
        <ele>594.417</ele>
        <time>2016-09-26T08:34:33Z</time>
      </trkpt>
      <trkpt lat="43.723615" lon="-7.942908">
        <ele>594.408</ele>
        <time>2016-09-26T08:34:34Z</time>
      </trkpt>
      <trkpt lat="43.723586" lon="-7.942956">
        <ele>594.486</ele>
        <time>2016-09-26T08:34:35Z</time>
      </trkpt>
      <trkpt lat="43.723557" lon="-7.943005">
        <ele>594.431</ele>
        <time>2016-09-26T08:34:36Z</time>
      </trkpt>
      <trkpt lat="43.723528" lon="-7.943053">
        <ele>594.659</ele>
        <time>2016-09-26T08:34:37Z</time>
      </trkpt>
      <trkpt lat="43.723498" lon="-7.943100">
        <ele>594.515</ele>
        <time>2016-09-26T08:34:38Z</time>
      </trkpt>
      <trkpt lat="43.723469" lon="-7.943147">
        <ele>594.549</ele>
        <time>2016-09-26T08:34:39Z</time>
      </trkpt>
      <trkpt lat="43.723440" lon="-7.943195">
        <ele>594.591</ele>
        <time>2016-09-26T08:34:40Z</time>
      </trkpt>
      <trkpt lat="43.723412" lon="-7.943243">
        <ele>594.684</ele>
        <time>2016-09-26T08:34:41Z</time>
      </trkpt>
      <trkpt lat="43.723384" lon="-7.943291">
        <ele>594.672</ele>
        <time>2016-09-26T08:34:42Z</time>
      </trkpt>
      <trkpt lat="43.723356" lon="-7.943340">
        <ele>594.612</ele>
        <time>2016-09-26T08:34:43Z</time>
      </trkpt>
      <trkpt lat="43.723328" lon="-7.943388">
        <ele>595.032</ele>
        <time>2016-09-26T08:34:44Z</time>
      </trkpt>
      <trkpt lat="43.723299" lon="-7.943436">
        <ele>595.005</ele>
        <time>2016-09-26T08:34:45Z</time>
      </trkpt>
      <trkpt lat="43.723270" lon="-7.943486">
        <ele>595.008</ele>
        <time>2016-09-26T08:34:46Z</time>
      </trkpt>
      <trkpt lat="43.723241" lon="-7.943535">
        <ele>594.982</ele>
        <time>2016-09-26T08:34:47Z</time>
      </trkpt>
      <trkpt lat="43.723211" lon="-7.943584">
        <ele>595.177</ele>
        <time>2016-09-26T08:34:48Z</time>
      </trkpt>
      <trkpt lat="43.723179" lon="-7.943632">
        <ele>595.135</ele>
        <time>2016-09-26T08:34:49Z</time>
      </trkpt>
      <trkpt lat="43.723148" lon="-7.943681">
        <ele>595.151</ele>
        <time>2016-09-26T08:34:50Z</time>
      </trkpt>
      <trkpt lat="43.723119" lon="-7.943731">
        <ele>595.065</ele>
        <time>2016-09-26T08:34:51Z</time>
      </trkpt>
      <trkpt lat="43.723089" lon="-7.943780">
        <ele>594.877</ele>
        <time>2016-09-26T08:34:52Z</time>
      </trkpt>
      <trkpt lat="43.723061" lon="-7.943829">
        <ele>594.880</ele>
        <time>2016-09-26T08:34:53Z</time>
      </trkpt>
      <trkpt lat="43.723032" lon="-7.943878">
        <ele>594.738</ele>
        <time>2016-09-26T08:34:54Z</time>
      </trkpt>
      <trkpt lat="43.723002" lon="-7.943926">
        <ele>594.988</ele>
        <time>2016-09-26T08:34:55Z</time>
      </trkpt>
      <trkpt lat="43.722974" lon="-7.943972">
        <ele>594.924</ele>
        <time>2016-09-26T08:34:56Z</time>
      </trkpt>
      <trkpt lat="43.722947" lon="-7.944018">
        <ele>595.026</ele>
        <time>2016-09-26T08:34:57Z</time>
      </trkpt>
      <trkpt lat="43.722920" lon="-7.944064">
        <ele>594.908</ele>
        <time>2016-09-26T08:34:58Z</time>
      </trkpt>
      <trkpt lat="43.722893" lon="-7.944107">
        <ele>594.779</ele>
        <time>2016-09-26T08:34:59Z</time>
      </trkpt>
      <trkpt lat="43.722866" lon="-7.944149">
        <ele>594.754</ele>
        <time>2016-09-26T08:35:00Z</time>
      </trkpt>
      <trkpt lat="43.722840" lon="-7.944190">
        <ele>594.652</ele>
        <time>2016-09-26T08:35:01Z</time>
      </trkpt>
      <trkpt lat="43.722815" lon="-7.944230">
        <ele>594.638</ele>
        <time>2016-09-26T08:35:02Z</time>
      </trkpt>
      <trkpt lat="43.722790" lon="-7.944269">
        <ele>594.652</ele>
        <time>2016-09-26T08:35:03Z</time>
      </trkpt>
      <trkpt lat="43.722766" lon="-7.944307">
        <ele>594.514</ele>
        <time>2016-09-26T08:35:04Z</time>
      </trkpt>
      <trkpt lat="43.722743" lon="-7.944344">
        <ele>594.317</ele>
        <time>2016-09-26T08:35:05Z</time>
      </trkpt>
      <trkpt lat="43.722722" lon="-7.944381">
        <ele>594.595</ele>
        <time>2016-09-26T08:35:06Z</time>
      </trkpt>
      <trkpt lat="43.722700" lon="-7.944416">
        <ele>594.425</ele>
        <time>2016-09-26T08:35:07Z</time>
      </trkpt>
      <trkpt lat="43.722680" lon="-7.944449">
        <ele>594.626</ele>
        <time>2016-09-26T08:35:08Z</time>
      </trkpt>
      <trkpt lat="43.722662" lon="-7.944477">
        <ele>594.608</ele>
        <time>2016-09-26T08:35:09Z</time>
      </trkpt>
      <trkpt lat="43.722646" lon="-7.944501">
        <ele>594.608</ele>
        <time>2016-09-26T08:35:10Z</time>
      </trkpt>
      <trkpt lat="43.722632" lon="-7.944524">
        <ele>594.623</ele>
        <time>2016-09-26T08:35:11Z</time>
      </trkpt>
      <trkpt lat="43.722617" lon="-7.944546">
        <ele>594.738</ele>
        <time>2016-09-26T08:35:12Z</time>
      </trkpt>
      <trkpt lat="43.722604" lon="-7.944571">
        <ele>594.646</ele>
        <time>2016-09-26T08:35:13Z</time>
      </trkpt>
      <trkpt lat="43.722597" lon="-7.944595">
        <ele>594.592</ele>
        <time>2016-09-26T08:35:14Z</time>
      </trkpt>
      <trkpt lat="43.722593" lon="-7.944617">
        <ele>594.426</ele>
        <time>2016-09-26T08:35:15Z</time>
      </trkpt>
      <trkpt lat="43.722589" lon="-7.944641">
        <ele>594.438</ele>
        <time>2016-09-26T08:35:16Z</time>
      </trkpt>
      <trkpt lat="43.722581" lon="-7.944664">
        <ele>594.291</ele>
        <time>2016-09-26T08:35:17Z</time>
      </trkpt>
      <trkpt lat="43.722565" lon="-7.944687">
        <ele>594.139</ele>
        <time>2016-09-26T08:35:18Z</time>
      </trkpt>
      <trkpt lat="43.722549" lon="-7.944712">
        <ele>594.096</ele>
        <time>2016-09-26T08:35:19Z</time>
      </trkpt>
      <trkpt lat="43.722532" lon="-7.944739">
        <ele>594.031</ele>
        <time>2016-09-26T08:35:20Z</time>
      </trkpt>
      <trkpt lat="43.722514" lon="-7.944767">
        <ele>593.924</ele>
        <time>2016-09-26T08:35:21Z</time>
      </trkpt>
      <trkpt lat="43.722494" lon="-7.944796">
        <ele>593.908</ele>
        <time>2016-09-26T08:35:22Z</time>
      </trkpt>
      <trkpt lat="43.722473" lon="-7.944825">
        <ele>593.930</ele>
        <time>2016-09-26T08:35:23Z</time>
      </trkpt>
      <trkpt lat="43.722450" lon="-7.944854">
        <ele>594.025</ele>
        <time>2016-09-26T08:35:24Z</time>
      </trkpt>
      <trkpt lat="43.722428" lon="-7.944883">
        <ele>594.063</ele>
        <time>2016-09-26T08:35:25Z</time>
      </trkpt>
      <trkpt lat="43.722409" lon="-7.944915">
        <ele>593.899</ele>
        <time>2016-09-26T08:35:26Z</time>
      </trkpt>
      <trkpt lat="43.722394" lon="-7.944941">
        <ele>593.643</ele>
        <time>2016-09-26T08:35:27Z</time>
      </trkpt>
      <trkpt lat="43.722386" lon="-7.944965">
        <ele>593.795</ele>
        <time>2016-09-26T08:35:28Z</time>
      </trkpt>
      <trkpt lat="43.722387" lon="-7.944991">
        <ele>593.848</ele>
        <time>2016-09-26T08:35:29Z</time>
      </trkpt>
      <trkpt lat="43.722396" lon="-7.945020">
        <ele>593.746</ele>
        <time>2016-09-26T08:35:30Z</time>
      </trkpt>
      <trkpt lat="43.722412" lon="-7.945049">
        <ele>593.716</ele>
        <time>2016-09-26T08:35:31Z</time>
      </trkpt>
      <trkpt lat="43.722432" lon="-7.945073">
        <ele>593.676</ele>
        <time>2016-09-26T08:35:32Z</time>
      </trkpt>
      <trkpt lat="43.722455" lon="-7.945089">
        <ele>593.713</ele>
        <time>2016-09-26T08:35:33Z</time>
      </trkpt>
      <trkpt lat="43.722480" lon="-7.945099">
        <ele>593.908</ele>
        <time>2016-09-26T08:35:34Z</time>
      </trkpt>
      <trkpt lat="43.722505" lon="-7.945101">
        <ele>594.072</ele>
        <time>2016-09-26T08:35:35Z</time>
      </trkpt>
      <trkpt lat="43.722528" lon="-7.945102">
        <ele>594.177</ele>
        <time>2016-09-26T08:35:36Z</time>
      </trkpt>
      <trkpt lat="43.722549" lon="-7.945108">
        <ele>594.335</ele>
        <time>2016-09-26T08:35:37Z</time>
      </trkpt>
      <trkpt lat="43.722568" lon="-7.945121">
        <ele>594.641</ele>
        <time>2016-09-26T08:35:38Z</time>
      </trkpt>
      <trkpt lat="43.722586" lon="-7.945140">
        <ele>595.065</ele>
        <time>2016-09-26T08:35:39Z</time>
      </trkpt>
      <trkpt lat="43.722603" lon="-7.945159">
        <ele>595.317</ele>
        <time>2016-09-26T08:35:40Z</time>
      </trkpt>
      <trkpt lat="43.722621" lon="-7.945174">
        <ele>595.520</ele>
        <time>2016-09-26T08:35:41Z</time>
      </trkpt>
      <trkpt lat="43.722641" lon="-7.945186">
        <ele>595.888</ele>
        <time>2016-09-26T08:35:42Z</time>
      </trkpt>
      <trkpt lat="43.722662" lon="-7.945198">
        <ele>596.118</ele>
        <time>2016-09-26T08:35:43Z</time>
      </trkpt>
      <trkpt lat="43.722682" lon="-7.945209">
        <ele>596.298</ele>
        <time>2016-09-26T08:35:44Z</time>
      </trkpt>
      <trkpt lat="43.722703" lon="-7.945221">
        <ele>596.317</ele>
        <time>2016-09-26T08:35:45Z</time>
      </trkpt>
      <trkpt lat="43.722724" lon="-7.945235">
        <ele>596.608</ele>
        <time>2016-09-26T08:35:46Z</time>
      </trkpt>
      <trkpt lat="43.722746" lon="-7.945249">
        <ele>596.842</ele>
        <time>2016-09-26T08:35:47Z</time>
      </trkpt>
      <trkpt lat="43.722767" lon="-7.945265">
        <ele>597.027</ele>
        <time>2016-09-26T08:35:48Z</time>
      </trkpt>
      <trkpt lat="43.722788" lon="-7.945281">
        <ele>597.485</ele>
        <time>2016-09-26T08:35:49Z</time>
      </trkpt>
      <trkpt lat="43.722810" lon="-7.945294">
        <ele>597.891</ele>
        <time>2016-09-26T08:35:50Z</time>
      </trkpt>
      <trkpt lat="43.722830" lon="-7.945304">
        <ele>598.035</ele>
        <time>2016-09-26T08:35:51Z</time>
      </trkpt>
      <trkpt lat="43.722853" lon="-7.945312">
        <ele>598.347</ele>
        <time>2016-09-26T08:35:52Z</time>
      </trkpt>
      <trkpt lat="43.722874" lon="-7.945320">
        <ele>598.670</ele>
        <time>2016-09-26T08:35:53Z</time>
      </trkpt>
      <trkpt lat="43.722896" lon="-7.945330">
        <ele>598.828</ele>
        <time>2016-09-26T08:35:54Z</time>
      </trkpt>
      <trkpt lat="43.722917" lon="-7.945342">
        <ele>599.077</ele>
        <time>2016-09-26T08:35:55Z</time>
      </trkpt>
      <trkpt lat="43.722937" lon="-7.945357">
        <ele>599.161</ele>
        <time>2016-09-26T08:35:56Z</time>
      </trkpt>
      <trkpt lat="43.722957" lon="-7.945372">
        <ele>599.327</ele>
        <time>2016-09-26T08:35:57Z</time>
      </trkpt>
      <trkpt lat="43.722975" lon="-7.945387">
        <ele>599.708</ele>
        <time>2016-09-26T08:35:58Z</time>
      </trkpt>
      <trkpt lat="43.722993" lon="-7.945401">
        <ele>600.158</ele>
        <time>2016-09-26T08:35:59Z</time>
      </trkpt>
      <trkpt lat="43.723012" lon="-7.945416">
        <ele>600.473</ele>
        <time>2016-09-26T08:36:00Z</time>
      </trkpt>
      <trkpt lat="43.723030" lon="-7.945429">
        <ele>600.641</ele>
        <time>2016-09-26T08:36:01Z</time>
      </trkpt>
      <trkpt lat="43.723049" lon="-7.945443">
        <ele>600.887</ele>
        <time>2016-09-26T08:36:02Z</time>
      </trkpt>
      <trkpt lat="43.723068" lon="-7.945455">
        <ele>601.071</ele>
        <time>2016-09-26T08:36:03Z</time>
      </trkpt>
      <trkpt lat="43.723086" lon="-7.945466">
        <ele>601.013</ele>
        <time>2016-09-26T08:36:04Z</time>
      </trkpt>
      <trkpt lat="43.723105" lon="-7.945476">
        <ele>601.226</ele>
        <time>2016-09-26T08:36:05Z</time>
      </trkpt>
      <trkpt lat="43.723124" lon="-7.945487">
        <ele>601.474</ele>
        <time>2016-09-26T08:36:06Z</time>
      </trkpt>
      <trkpt lat="43.723143" lon="-7.945497">
        <ele>601.745</ele>
        <time>2016-09-26T08:36:07Z</time>
      </trkpt>
      <trkpt lat="43.723161" lon="-7.945506">
        <ele>601.947</ele>
        <time>2016-09-26T08:36:08Z</time>
      </trkpt>
      <trkpt lat="43.723179" lon="-7.945517">
        <ele>601.911</ele>
        <time>2016-09-26T08:36:09Z</time>
      </trkpt>
      <trkpt lat="43.723199" lon="-7.945526">
        <ele>602.008</ele>
        <time>2016-09-26T08:36:10Z</time>
      </trkpt>
      <trkpt lat="43.723218" lon="-7.945535">
        <ele>602.375</ele>
        <time>2016-09-26T08:36:11Z</time>
      </trkpt>
      <trkpt lat="43.723237" lon="-7.945541">
        <ele>602.640</ele>
        <time>2016-09-26T08:36:12Z</time>
      </trkpt>
      <trkpt lat="43.723256" lon="-7.945549">
        <ele>602.998</ele>
        <time>2016-09-26T08:36:13Z</time>
      </trkpt>
      <trkpt lat="43.723275" lon="-7.945557">
        <ele>603.244</ele>
        <time>2016-09-26T08:36:14Z</time>
      </trkpt>
      <trkpt lat="43.723294" lon="-7.945564">
        <ele>603.258</ele>
        <time>2016-09-26T08:36:15Z</time>
      </trkpt>
      <trkpt lat="43.723317" lon="-7.945572">
        <ele>603.480</ele>
        <time>2016-09-26T08:36:16Z</time>
      </trkpt>
      <trkpt lat="43.723339" lon="-7.945582">
        <ele>603.483</ele>
        <time>2016-09-26T08:36:17Z</time>
      </trkpt>
      <trkpt lat="43.723358" lon="-7.945596">
        <ele>603.611</ele>
        <time>2016-09-26T08:36:18Z</time>
      </trkpt>
      <trkpt lat="43.723371" lon="-7.945615">
        <ele>603.685</ele>
        <time>2016-09-26T08:36:19Z</time>
      </trkpt>
      <trkpt lat="43.723380" lon="-7.945639">
        <ele>603.689</ele>
        <time>2016-09-26T08:36:20Z</time>
      </trkpt>
      <trkpt lat="43.723385" lon="-7.945664">
        <ele>603.617</ele>
        <time>2016-09-26T08:36:21Z</time>
      </trkpt>
      <trkpt lat="43.723385" lon="-7.945688">
        <ele>603.908</ele>
        <time>2016-09-26T08:36:22Z</time>
      </trkpt>
      <trkpt lat="43.723388" lon="-7.945710">
        <ele>604.369</ele>
        <time>2016-09-26T08:36:23Z</time>
      </trkpt>
      <trkpt lat="43.723392" lon="-7.945732">
        <ele>604.534</ele>
        <time>2016-09-26T08:36:24Z</time>
      </trkpt>
      <trkpt lat="43.723404" lon="-7.945753">
        <ele>604.852</ele>
        <time>2016-09-26T08:36:25Z</time>
      </trkpt>
      <trkpt lat="43.723417" lon="-7.945772">
        <ele>604.928</ele>
        <time>2016-09-26T08:36:26Z</time>
      </trkpt>
      <trkpt lat="43.723430" lon="-7.945790">
        <ele>605.192</ele>
        <time>2016-09-26T08:36:27Z</time>
      </trkpt>
      <trkpt lat="43.723439" lon="-7.945806">
        <ele>605.394</ele>
        <time>2016-09-26T08:36:28Z</time>
      </trkpt>
      <trkpt lat="43.723448" lon="-7.945817">
        <ele>605.747</ele>
        <time>2016-09-26T08:36:29Z</time>
      </trkpt>
      <trkpt lat="43.723457" lon="-7.945827">
        <ele>605.915</ele>
        <time>2016-09-26T08:36:30Z</time>
      </trkpt>
      <trkpt lat="43.723467" lon="-7.945835">
        <ele>606.072</ele>
        <time>2016-09-26T08:36:31Z</time>
      </trkpt>
      <trkpt lat="43.723475" lon="-7.945847">
        <ele>606.213</ele>
        <time>2016-09-26T08:36:32Z</time>
      </trkpt>
      <trkpt lat="43.723480" lon="-7.945861">
        <ele>606.514</ele>
        <time>2016-09-26T08:36:33Z</time>
      </trkpt>
      <trkpt lat="43.723484" lon="-7.945875">
        <ele>606.508</ele>
        <time>2016-09-26T08:36:34Z</time>
      </trkpt>
      <trkpt lat="43.723484" lon="-7.945882">
        <ele>606.528</ele>
        <time>2016-09-26T08:36:35Z</time>
      </trkpt>
      <trkpt lat="43.723483" lon="-7.945882">
        <ele>606.633</ele>
        <time>2016-09-26T08:36:36Z</time>
      </trkpt>
      <trkpt lat="43.723482" lon="-7.945882">
        <ele>606.771</ele>
        <time>2016-09-26T08:36:37Z</time>
      </trkpt>
      <trkpt lat="43.723482" lon="-7.945883">
        <ele>606.847</ele>
        <time>2016-09-26T08:36:38Z</time>
      </trkpt>
      <trkpt lat="43.723482" lon="-7.945890">
        <ele>606.841</ele>
        <time>2016-09-26T08:36:39Z</time>
      </trkpt>
      <trkpt lat="43.723482" lon="-7.945890">
        <ele>606.843</ele>
        <time>2016-09-26T08:36:39Z</time>
      </trkpt>
      <trkpt lat="43.723482" lon="-7.945890">
        <ele>606.896</ele>
        <time>2016-09-26T08:36:39Z</time>
      </trkpt>
      <trkpt lat="43.723454" lon="-7.945891">
        <ele>606.864</ele>
        <time>2016-09-26T08:49:14Z</time>
      </trkpt>
      <trkpt lat="43.723453" lon="-7.945883">
        <ele>606.922</ele>
        <time>2016-09-26T08:49:15Z</time>
      </trkpt>
      <trkpt lat="43.723452" lon="-7.945875">
        <ele>607.062</ele>
        <time>2016-09-26T08:49:16Z</time>
      </trkpt>
      <trkpt lat="43.723453" lon="-7.945871">
        <ele>607.108</ele>
        <time>2016-09-26T08:49:17Z</time>
      </trkpt>
      <trkpt lat="43.723453" lon="-7.945870">
        <ele>607.008</ele>
        <time>2016-09-26T08:49:18Z</time>
      </trkpt>
      <trkpt lat="43.723452" lon="-7.945871">
        <ele>607.113</ele>
        <time>2016-09-26T08:49:19Z</time>
      </trkpt>
      <trkpt lat="43.723451" lon="-7.945872">
        <ele>607.188</ele>
        <time>2016-09-26T08:49:20Z</time>
      </trkpt>
      <trkpt lat="43.723451" lon="-7.945872">
        <ele>607.136</ele>
        <time>2016-09-26T08:49:20Z</time>
      </trkpt>
      <trkpt lat="43.723451" lon="-7.945872">
        <ele>607.112</ele>
        <time>2016-09-26T08:49:20Z</time>
      </trkpt>
      <trkpt lat="43.723451" lon="-7.945872">
        <ele>607.116</ele>
        <time>2016-09-26T08:49:20Z</time>
      </trkpt>
      <trkpt lat="43.723366" lon="-7.945735">
        <ele>605.768</ele>
        <time>2016-09-26T08:49:34Z</time>
      </trkpt>
      <trkpt lat="43.723355" lon="-7.945726">
        <ele>605.521</ele>
        <time>2016-09-26T08:49:35Z</time>
      </trkpt>
      <trkpt lat="43.723344" lon="-7.945719">
        <ele>605.699</ele>
        <time>2016-09-26T08:49:36Z</time>
      </trkpt>
      <trkpt lat="43.723336" lon="-7.945712">
        <ele>605.357</ele>
        <time>2016-09-26T08:49:37Z</time>
      </trkpt>
      <trkpt lat="43.723325" lon="-7.945706">
        <ele>605.300</ele>
        <time>2016-09-26T08:49:38Z</time>
      </trkpt>
      <trkpt lat="43.723314" lon="-7.945701">
        <ele>605.120</ele>
        <time>2016-09-26T08:49:39Z</time>
      </trkpt>
      <trkpt lat="43.723305" lon="-7.945693">
        <ele>604.908</ele>
        <time>2016-09-26T08:49:40Z</time>
      </trkpt>
      <trkpt lat="43.723299" lon="-7.945681">
        <ele>604.746</ele>
        <time>2016-09-26T08:49:41Z</time>
      </trkpt>
      <trkpt lat="43.723297" lon="-7.945668">
        <ele>604.671</ele>
        <time>2016-09-26T08:49:42Z</time>
      </trkpt>
      <trkpt lat="43.723298" lon="-7.945655">
        <ele>604.779</ele>
        <time>2016-09-26T08:49:43Z</time>
      </trkpt>
      <trkpt lat="43.723300" lon="-7.945642">
        <ele>604.525</ele>
        <time>2016-09-26T08:49:44Z</time>
      </trkpt>
      <trkpt lat="43.723301" lon="-7.945627">
        <ele>604.329</ele>
        <time>2016-09-26T08:49:45Z</time>
      </trkpt>
      <trkpt lat="43.723298" lon="-7.945608">
        <ele>604.471</ele>
        <time>2016-09-26T08:49:46Z</time>
      </trkpt>
      <trkpt lat="43.723292" lon="-7.945589">
        <ele>604.324</ele>
        <time>2016-09-26T08:49:47Z</time>
      </trkpt>
      <trkpt lat="43.723280" lon="-7.945570">
        <ele>604.232</ele>
        <time>2016-09-26T08:49:48Z</time>
      </trkpt>
      <trkpt lat="43.723264" lon="-7.945555">
        <ele>603.932</ele>
        <time>2016-09-26T08:49:49Z</time>
      </trkpt>
      <trkpt lat="43.723248" lon="-7.945544">
        <ele>603.992</ele>
        <time>2016-09-26T08:49:50Z</time>
      </trkpt>
      <trkpt lat="43.723227" lon="-7.945532">
        <ele>603.811</ele>
        <time>2016-09-26T08:49:51Z</time>
      </trkpt>
      <trkpt lat="43.723202" lon="-7.945520">
        <ele>603.508</ele>
        <time>2016-09-26T08:49:52Z</time>
      </trkpt>
      <trkpt lat="43.723177" lon="-7.945509">
        <ele>603.294</ele>
        <time>2016-09-26T08:49:53Z</time>
      </trkpt>
      <trkpt lat="43.723154" lon="-7.945498">
        <ele>602.919</ele>
        <time>2016-09-26T08:49:54Z</time>
      </trkpt>
      <trkpt lat="43.723130" lon="-7.945485">
        <ele>602.737</ele>
        <time>2016-09-26T08:49:55Z</time>
      </trkpt>
      <trkpt lat="43.723104" lon="-7.945466">
        <ele>602.743</ele>
        <time>2016-09-26T08:49:56Z</time>
      </trkpt>
      <trkpt lat="43.723074" lon="-7.945448">
        <ele>602.527</ele>
        <time>2016-09-26T08:49:57Z</time>
      </trkpt>
      <trkpt lat="43.723046" lon="-7.945431">
        <ele>602.299</ele>
        <time>2016-09-26T08:49:58Z</time>
      </trkpt>
      <trkpt lat="43.723022" lon="-7.945414">
        <ele>601.872</ele>
        <time>2016-09-26T08:49:59Z</time>
      </trkpt>
      <trkpt lat="43.722998" lon="-7.945396">
        <ele>601.750</ele>
        <time>2016-09-26T08:50:00Z</time>
      </trkpt>
      <trkpt lat="43.722977" lon="-7.945382">
        <ele>601.689</ele>
        <time>2016-09-26T08:50:01Z</time>
      </trkpt>
      <trkpt lat="43.722956" lon="-7.945372">
        <ele>601.406</ele>
        <time>2016-09-26T08:50:02Z</time>
      </trkpt>
      <trkpt lat="43.722938" lon="-7.945363">
        <ele>601.026</ele>
        <time>2016-09-26T08:50:03Z</time>
      </trkpt>
      <trkpt lat="43.722920" lon="-7.945352">
        <ele>600.908</ele>
        <time>2016-09-26T08:50:04Z</time>
      </trkpt>
      <trkpt lat="43.722901" lon="-7.945340">
        <ele>600.889</ele>
        <time>2016-09-26T08:50:05Z</time>
      </trkpt>
      <trkpt lat="43.722884" lon="-7.945331">
        <ele>600.514</ele>
        <time>2016-09-26T08:50:06Z</time>
      </trkpt>
      <trkpt lat="43.722863" lon="-7.945322">
        <ele>600.432</ele>
        <time>2016-09-26T08:50:07Z</time>
      </trkpt>
      <trkpt lat="43.722837" lon="-7.945314">
        <ele>600.178</ele>
        <time>2016-09-26T08:50:08Z</time>
      </trkpt>
      <trkpt lat="43.722814" lon="-7.945306">
        <ele>599.932</ele>
        <time>2016-09-26T08:50:09Z</time>
      </trkpt>
      <trkpt lat="43.722791" lon="-7.945298">
        <ele>599.724</ele>
        <time>2016-09-26T08:50:10Z</time>
      </trkpt>
      <trkpt lat="43.722767" lon="-7.945289">
        <ele>599.757</ele>
        <time>2016-09-26T08:50:11Z</time>
      </trkpt>
      <trkpt lat="43.722741" lon="-7.945277">
        <ele>599.445</ele>
        <time>2016-09-26T08:50:12Z</time>
      </trkpt>
      <trkpt lat="43.722718" lon="-7.945264">
        <ele>599.394</ele>
        <time>2016-09-26T08:50:13Z</time>
      </trkpt>
      <trkpt lat="43.722698" lon="-7.945254">
        <ele>599.157</ele>
        <time>2016-09-26T08:50:14Z</time>
      </trkpt>
      <trkpt lat="43.722680" lon="-7.945241">
        <ele>598.922</ele>
        <time>2016-09-26T08:50:15Z</time>
      </trkpt>
      <trkpt lat="43.722663" lon="-7.945221">
        <ele>598.608</ele>
        <time>2016-09-26T08:50:16Z</time>
      </trkpt>
      <trkpt lat="43.722649" lon="-7.945200">
        <ele>598.260</ele>
        <time>2016-09-26T08:50:17Z</time>
      </trkpt>
      <trkpt lat="43.722635" lon="-7.945180">
        <ele>598.035</ele>
        <time>2016-09-26T08:50:18Z</time>
      </trkpt>
      <trkpt lat="43.722614" lon="-7.945162">
        <ele>597.573</ele>
        <time>2016-09-26T08:50:19Z</time>
      </trkpt>
      <trkpt lat="43.722594" lon="-7.945148">
        <ele>597.379</ele>
        <time>2016-09-26T08:50:20Z</time>
      </trkpt>
      <trkpt lat="43.722578" lon="-7.945135">
        <ele>597.083</ele>
        <time>2016-09-26T08:50:21Z</time>
      </trkpt>
      <trkpt lat="43.722564" lon="-7.945121">
        <ele>596.795</ele>
        <time>2016-09-26T08:50:22Z</time>
      </trkpt>
      <trkpt lat="43.722549" lon="-7.945107">
        <ele>596.588</ele>
        <time>2016-09-26T08:50:23Z</time>
      </trkpt>
      <trkpt lat="43.722534" lon="-7.945100">
        <ele>596.346</ele>
        <time>2016-09-26T08:50:24Z</time>
      </trkpt>
      <trkpt lat="43.722516" lon="-7.945098">
        <ele>596.099</ele>
        <time>2016-09-26T08:50:25Z</time>
      </trkpt>
      <trkpt lat="43.722495" lon="-7.945093">
        <ele>595.907</ele>
        <time>2016-09-26T08:50:26Z</time>
      </trkpt>
      <trkpt lat="43.722471" lon="-7.945080">
        <ele>595.627</ele>
        <time>2016-09-26T08:50:27Z</time>
      </trkpt>
      <trkpt lat="43.722446" lon="-7.945062">
        <ele>595.608</ele>
        <time>2016-09-26T08:50:28Z</time>
      </trkpt>
      <trkpt lat="43.722423" lon="-7.945044">
        <ele>595.350</ele>
        <time>2016-09-26T08:50:29Z</time>
      </trkpt>
      <trkpt lat="43.722403" lon="-7.945030">
        <ele>595.125</ele>
        <time>2016-09-26T08:50:30Z</time>
      </trkpt>
      <trkpt lat="43.722382" lon="-7.945018">
        <ele>594.823</ele>
        <time>2016-09-26T08:50:31Z</time>
      </trkpt>
      <trkpt lat="43.722362" lon="-7.945016">
        <ele>594.769</ele>
        <time>2016-09-26T08:50:32Z</time>
      </trkpt>
      <trkpt lat="43.722343" lon="-7.945025">
        <ele>594.463</ele>
        <time>2016-09-26T08:50:33Z</time>
      </trkpt>
      <trkpt lat="43.722325" lon="-7.945043">
        <ele>594.125</ele>
        <time>2016-09-26T08:50:34Z</time>
      </trkpt>
      <trkpt lat="43.722308" lon="-7.945065">
        <ele>594.018</ele>
        <time>2016-09-26T08:50:35Z</time>
      </trkpt>
      <trkpt lat="43.722290" lon="-7.945090">
        <ele>593.866</ele>
        <time>2016-09-26T08:50:36Z</time>
      </trkpt>
      <trkpt lat="43.722273" lon="-7.945114">
        <ele>593.698</ele>
        <time>2016-09-26T08:50:37Z</time>
      </trkpt>
      <trkpt lat="43.722261" lon="-7.945141">
        <ele>593.515</ele>
        <time>2016-09-26T08:50:38Z</time>
      </trkpt>
      <trkpt lat="43.722252" lon="-7.945169">
        <ele>593.426</ele>
        <time>2016-09-26T08:50:39Z</time>
      </trkpt>
      <trkpt lat="43.722239" lon="-7.945195">
        <ele>593.108</ele>
        <time>2016-09-26T08:50:40Z</time>
      </trkpt>
      <trkpt lat="43.722223" lon="-7.945223">
        <ele>592.920</ele>
        <time>2016-09-26T08:50:41Z</time>
      </trkpt>
      <trkpt lat="43.722203" lon="-7.945252">
        <ele>592.845</ele>
        <time>2016-09-26T08:50:42Z</time>
      </trkpt>
      <trkpt lat="43.722181" lon="-7.945282">
        <ele>592.823</ele>
        <time>2016-09-26T08:50:43Z</time>
      </trkpt>
      <trkpt lat="43.722157" lon="-7.945317">
        <ele>592.789</ele>
        <time>2016-09-26T08:50:44Z</time>
      </trkpt>
      <trkpt lat="43.722134" lon="-7.945357">
        <ele>592.873</ele>
        <time>2016-09-26T08:50:45Z</time>
      </trkpt>
      <trkpt lat="43.722109" lon="-7.945399">
        <ele>592.935</ele>
        <time>2016-09-26T08:50:46Z</time>
      </trkpt>
      <trkpt lat="43.722080" lon="-7.945443">
        <ele>593.068</ele>
        <time>2016-09-26T08:50:47Z</time>
      </trkpt>
      <trkpt lat="43.722049" lon="-7.945491">
        <ele>592.836</ele>
        <time>2016-09-26T08:50:48Z</time>
      </trkpt>
      <trkpt lat="43.722017" lon="-7.945542">
        <ele>592.694</ele>
        <time>2016-09-26T08:50:49Z</time>
      </trkpt>
      <trkpt lat="43.721983" lon="-7.945594">
        <ele>592.357</ele>
        <time>2016-09-26T08:50:50Z</time>
      </trkpt>
      <trkpt lat="43.721948" lon="-7.945649">
        <ele>592.422</ele>
        <time>2016-09-26T08:50:51Z</time>
      </trkpt>
      <trkpt lat="43.721913" lon="-7.945707">
        <ele>592.308</ele>
        <time>2016-09-26T08:50:52Z</time>
      </trkpt>
      <trkpt lat="43.721875" lon="-7.945765">
        <ele>592.140</ele>
        <time>2016-09-26T08:50:53Z</time>
      </trkpt>
      <trkpt lat="43.721834" lon="-7.945826">
        <ele>591.985</ele>
        <time>2016-09-26T08:50:54Z</time>
      </trkpt>
      <trkpt lat="43.721791" lon="-7.945889">
        <ele>591.733</ele>
        <time>2016-09-26T08:50:55Z</time>
      </trkpt>
      <trkpt lat="43.721746" lon="-7.945953">
        <ele>591.639</ele>
        <time>2016-09-26T08:50:56Z</time>
      </trkpt>
      <trkpt lat="43.721701" lon="-7.946020">
        <ele>591.363</ele>
        <time>2016-09-26T08:50:57Z</time>
      </trkpt>
      <trkpt lat="43.721656" lon="-7.946089">
        <ele>591.045</ele>
        <time>2016-09-26T08:50:58Z</time>
      </trkpt>
      <trkpt lat="43.721609" lon="-7.946161">
        <ele>590.738</ele>
        <time>2016-09-26T08:50:59Z</time>
      </trkpt>
      <trkpt lat="43.721561" lon="-7.946234">
        <ele>590.376</ele>
        <time>2016-09-26T08:51:00Z</time>
      </trkpt>
      <trkpt lat="43.721512" lon="-7.946309">
        <ele>590.181</ele>
        <time>2016-09-26T08:51:01Z</time>
      </trkpt>
      <trkpt lat="43.721462" lon="-7.946385">
        <ele>589.861</ele>
        <time>2016-09-26T08:51:02Z</time>
      </trkpt>
      <trkpt lat="43.721411" lon="-7.946464">
        <ele>589.517</ele>
        <time>2016-09-26T08:51:03Z</time>
      </trkpt>
      <trkpt lat="43.721359" lon="-7.946543">
        <ele>589.208</ele>
        <time>2016-09-26T08:51:04Z</time>
      </trkpt>
      <trkpt lat="43.721306" lon="-7.946623">
        <ele>589.079</ele>
        <time>2016-09-26T08:51:05Z</time>
      </trkpt>
      <trkpt lat="43.721251" lon="-7.946707">
        <ele>588.794</ele>
        <time>2016-09-26T08:51:06Z</time>
      </trkpt>
      <trkpt lat="43.721196" lon="-7.946793">
        <ele>588.342</ele>
        <time>2016-09-26T08:51:07Z</time>
      </trkpt>
      <trkpt lat="43.721139" lon="-7.946880">
        <ele>588.038</ele>
        <time>2016-09-26T08:51:08Z</time>
      </trkpt>
      <trkpt lat="43.721082" lon="-7.946967">
        <ele>587.672</ele>
        <time>2016-09-26T08:51:09Z</time>
      </trkpt>
      <trkpt lat="43.721027" lon="-7.947054">
        <ele>587.014</ele>
        <time>2016-09-26T08:51:10Z</time>
      </trkpt>
      <trkpt lat="43.720974" lon="-7.947139">
        <ele>586.697</ele>
        <time>2016-09-26T08:51:11Z</time>
      </trkpt>
      <trkpt lat="43.720918" lon="-7.947224">
        <ele>585.995</ele>
        <time>2016-09-26T08:51:12Z</time>
      </trkpt>
      <trkpt lat="43.720863" lon="-7.947309">
        <ele>585.224</ele>
        <time>2016-09-26T08:51:13Z</time>
      </trkpt>
      <trkpt lat="43.720807" lon="-7.947396">
        <ele>584.604</ele>
        <time>2016-09-26T08:51:14Z</time>
      </trkpt>
      <trkpt lat="43.720752" lon="-7.947481">
        <ele>583.714</ele>
        <time>2016-09-26T08:51:15Z</time>
      </trkpt>
      <trkpt lat="43.720697" lon="-7.947564">
        <ele>583.308</ele>
        <time>2016-09-26T08:51:16Z</time>
      </trkpt>
      <trkpt lat="43.720641" lon="-7.947651">
        <ele>582.653</ele>
        <time>2016-09-26T08:51:17Z</time>
      </trkpt>
      <trkpt lat="43.720583" lon="-7.947739">
        <ele>581.968</ele>
        <time>2016-09-26T08:51:18Z</time>
      </trkpt>
      <trkpt lat="43.720525" lon="-7.947826">
        <ele>580.916</ele>
        <time>2016-09-26T08:51:19Z</time>
      </trkpt>
      <trkpt lat="43.720467" lon="-7.947911">
        <ele>580.212</ele>
        <time>2016-09-26T08:51:20Z</time>
      </trkpt>
      <trkpt lat="43.720408" lon="-7.947994">
        <ele>579.446</ele>
        <time>2016-09-26T08:51:21Z</time>
      </trkpt>
      <trkpt lat="43.720351" lon="-7.948075">
        <ele>578.858</ele>
        <time>2016-09-26T08:51:22Z</time>
      </trkpt>
      <trkpt lat="43.720293" lon="-7.948154">
        <ele>578.021</ele>
        <time>2016-09-26T08:51:23Z</time>
      </trkpt>
      <trkpt lat="43.720237" lon="-7.948232">
        <ele>577.289</ele>
        <time>2016-09-26T08:51:24Z</time>
      </trkpt>
      <trkpt lat="43.720182" lon="-7.948309">
        <ele>576.593</ele>
        <time>2016-09-26T08:51:25Z</time>
      </trkpt>
      <trkpt lat="43.720127" lon="-7.948387">
        <ele>575.665</ele>
        <time>2016-09-26T08:51:26Z</time>
      </trkpt>
      <trkpt lat="43.720073" lon="-7.948469">
        <ele>575.021</ele>
        <time>2016-09-26T08:51:27Z</time>
      </trkpt>
      <trkpt lat="43.720020" lon="-7.948558">
        <ele>574.108</ele>
        <time>2016-09-26T08:51:28Z</time>
      </trkpt>
      <trkpt lat="43.719963" lon="-7.948652">
        <ele>573.310</ele>
        <time>2016-09-26T08:51:29Z</time>
      </trkpt>
      <trkpt lat="43.719899" lon="-7.948750">
        <ele>572.465</ele>
        <time>2016-09-26T08:51:30Z</time>
      </trkpt>
      <trkpt lat="43.719832" lon="-7.948851">
        <ele>571.653</ele>
        <time>2016-09-26T08:51:31Z</time>
      </trkpt>
      <trkpt lat="43.719763" lon="-7.948958">
        <ele>570.699</ele>
        <time>2016-09-26T08:51:32Z</time>
      </trkpt>
      <trkpt lat="43.719690" lon="-7.949067">
        <ele>569.553</ele>
        <time>2016-09-26T08:51:33Z</time>
      </trkpt>
      <trkpt lat="43.719617" lon="-7.949177">
        <ele>568.515</ele>
        <time>2016-09-26T08:51:34Z</time>
      </trkpt>
      <trkpt lat="43.719543" lon="-7.949288">
        <ele>567.588</ele>
        <time>2016-09-26T08:51:35Z</time>
      </trkpt>
      <trkpt lat="43.719470" lon="-7.949399">
        <ele>566.356</ele>
        <time>2016-09-26T08:51:36Z</time>
      </trkpt>
      <trkpt lat="43.719397" lon="-7.949510">
        <ele>565.112</ele>
        <time>2016-09-26T08:51:37Z</time>
      </trkpt>
      <trkpt lat="43.719319" lon="-7.949627">
        <ele>564.032</ele>
        <time>2016-09-26T08:51:38Z</time>
      </trkpt>
      <trkpt lat="43.719240" lon="-7.949747">
        <ele>562.905</ele>
        <time>2016-09-26T08:51:39Z</time>
      </trkpt>
      <trkpt lat="43.719162" lon="-7.949865">
        <ele>561.608</ele>
        <time>2016-09-26T08:51:40Z</time>
      </trkpt>
      <trkpt lat="43.719084" lon="-7.949982">
        <ele>560.392</ele>
        <time>2016-09-26T08:51:41Z</time>
      </trkpt>
      <trkpt lat="43.719006" lon="-7.950100">
        <ele>559.237</ele>
        <time>2016-09-26T08:51:42Z</time>
      </trkpt>
      <trkpt lat="43.718927" lon="-7.950220">
        <ele>557.975</ele>
        <time>2016-09-26T08:51:43Z</time>
      </trkpt>
      <trkpt lat="43.718850" lon="-7.950337">
        <ele>556.711</ele>
        <time>2016-09-26T08:51:44Z</time>
      </trkpt>
      <trkpt lat="43.718775" lon="-7.950449">
        <ele>555.065</ele>
        <time>2016-09-26T08:51:45Z</time>
      </trkpt>
      <trkpt lat="43.718704" lon="-7.950555">
        <ele>553.517</ele>
        <time>2016-09-26T08:51:46Z</time>
      </trkpt>
      <trkpt lat="43.718635" lon="-7.950658">
        <ele>552.210</ele>
        <time>2016-09-26T08:51:47Z</time>
      </trkpt>
      <trkpt lat="43.718570" lon="-7.950756">
        <ele>550.518</ele>
        <time>2016-09-26T08:51:48Z</time>
      </trkpt>
      <trkpt lat="43.718508" lon="-7.950848">
        <ele>549.078</ele>
        <time>2016-09-26T08:51:49Z</time>
      </trkpt>
      <trkpt lat="43.718450" lon="-7.950934">
        <ele>547.933</ele>
        <time>2016-09-26T08:51:50Z</time>
      </trkpt>
      <trkpt lat="43.718396" lon="-7.951017">
        <ele>546.626</ele>
        <time>2016-09-26T08:51:51Z</time>
      </trkpt>
      <trkpt lat="43.718347" lon="-7.951092">
        <ele>545.508</ele>
        <time>2016-09-26T08:51:52Z</time>
      </trkpt>
      <trkpt lat="43.718301" lon="-7.951162">
        <ele>544.728</ele>
        <time>2016-09-26T08:51:53Z</time>
      </trkpt>
      <trkpt lat="43.718258" lon="-7.951227">
        <ele>543.663</ele>
        <time>2016-09-26T08:51:54Z</time>
      </trkpt>
      <trkpt lat="43.718218" lon="-7.951289">
        <ele>542.471</ele>
        <time>2016-09-26T08:51:55Z</time>
      </trkpt>
      <trkpt lat="43.718177" lon="-7.951352">
        <ele>541.777</ele>
        <time>2016-09-26T08:51:56Z</time>
      </trkpt>
      <trkpt lat="43.718132" lon="-7.951420">
        <ele>540.771</ele>
        <time>2016-09-26T08:51:57Z</time>
      </trkpt>
      <trkpt lat="43.718085" lon="-7.951492">
        <ele>539.753</ele>
        <time>2016-09-26T08:51:58Z</time>
      </trkpt>
      <trkpt lat="43.718038" lon="-7.951568">
        <ele>538.976</ele>
        <time>2016-09-26T08:51:59Z</time>
      </trkpt>
      <trkpt lat="43.717985" lon="-7.951649">
        <ele>538.034</ele>
        <time>2016-09-26T08:52:00Z</time>
      </trkpt>
      <trkpt lat="43.717925" lon="-7.951733">
        <ele>537.289</ele>
        <time>2016-09-26T08:52:01Z</time>
      </trkpt>
      <trkpt lat="43.717860" lon="-7.951819">
        <ele>536.506</ele>
        <time>2016-09-26T08:52:02Z</time>
      </trkpt>
      <trkpt lat="43.717789" lon="-7.951903">
        <ele>535.626</ele>
        <time>2016-09-26T08:52:03Z</time>
      </trkpt>
      <trkpt lat="43.717715" lon="-7.951981">
        <ele>534.808</ele>
        <time>2016-09-26T08:52:04Z</time>
      </trkpt>
      <trkpt lat="43.717638" lon="-7.952054">
        <ele>534.089</ele>
        <time>2016-09-26T08:52:05Z</time>
      </trkpt>
      <trkpt lat="43.717555" lon="-7.952121">
        <ele>533.064</ele>
        <time>2016-09-26T08:52:06Z</time>
      </trkpt>
      <trkpt lat="43.717472" lon="-7.952184">
        <ele>532.262</ele>
        <time>2016-09-26T08:52:07Z</time>
      </trkpt>
      <trkpt lat="43.717393" lon="-7.952242">
        <ele>531.268</ele>
        <time>2016-09-26T08:52:08Z</time>
      </trkpt>
      <trkpt lat="43.717315" lon="-7.952300">
        <ele>530.292</ele>
        <time>2016-09-26T08:52:09Z</time>
      </trkpt>
      <trkpt lat="43.717236" lon="-7.952358">
        <ele>529.334</ele>
        <time>2016-09-26T08:52:10Z</time>
      </trkpt>
      <trkpt lat="43.717158" lon="-7.952415">
        <ele>528.327</ele>
        <time>2016-09-26T08:52:11Z</time>
      </trkpt>
      <trkpt lat="43.717084" lon="-7.952469">
        <ele>527.545</ele>
        <time>2016-09-26T08:52:12Z</time>
      </trkpt>
      <trkpt lat="43.717018" lon="-7.952517">
        <ele>526.626</ele>
        <time>2016-09-26T08:52:13Z</time>
      </trkpt>
      <trkpt lat="43.716961" lon="-7.952560">
        <ele>525.847</ele>
        <time>2016-09-26T08:52:14Z</time>
      </trkpt>
      <trkpt lat="43.716911" lon="-7.952598">
        <ele>524.811</ele>
        <time>2016-09-26T08:52:15Z</time>
      </trkpt>
      <trkpt lat="43.716864" lon="-7.952633">
        <ele>523.808</ele>
        <time>2016-09-26T08:52:16Z</time>
      </trkpt>
      <trkpt lat="43.716815" lon="-7.952670">
        <ele>523.223</ele>
        <time>2016-09-26T08:52:17Z</time>
      </trkpt>
      <trkpt lat="43.716763" lon="-7.952707">
        <ele>522.538</ele>
        <time>2016-09-26T08:52:18Z</time>
      </trkpt>
      <trkpt lat="43.716708" lon="-7.952745">
        <ele>522.066</ele>
        <time>2016-09-26T08:52:19Z</time>
      </trkpt>
      <trkpt lat="43.716652" lon="-7.952784">
        <ele>521.542</ele>
        <time>2016-09-26T08:52:20Z</time>
      </trkpt>
      <trkpt lat="43.716595" lon="-7.952825">
        <ele>521.236</ele>
        <time>2016-09-26T08:52:21Z</time>
      </trkpt>
      <trkpt lat="43.716536" lon="-7.952868">
        <ele>520.968</ele>
        <time>2016-09-26T08:52:22Z</time>
      </trkpt>
      <trkpt lat="43.716474" lon="-7.952910">
        <ele>520.531</ele>
        <time>2016-09-26T08:52:23Z</time>
      </trkpt>
      <trkpt lat="43.716413" lon="-7.952956">
        <ele>520.119</ele>
        <time>2016-09-26T08:52:24Z</time>
      </trkpt>
      <trkpt lat="43.716350" lon="-7.953001">
        <ele>519.885</ele>
        <time>2016-09-26T08:52:25Z</time>
      </trkpt>
      <trkpt lat="43.716286" lon="-7.953046">
        <ele>519.689</ele>
        <time>2016-09-26T08:52:26Z</time>
      </trkpt>
      <trkpt lat="43.716221" lon="-7.953094">
        <ele>518.917</ele>
        <time>2016-09-26T08:52:27Z</time>
      </trkpt>
      <trkpt lat="43.716154" lon="-7.953143">
        <ele>518.708</ele>
        <time>2016-09-26T08:52:28Z</time>
      </trkpt>
      <trkpt lat="43.716087" lon="-7.953193">
        <ele>518.329</ele>
        <time>2016-09-26T08:52:29Z</time>
      </trkpt>
      <trkpt lat="43.716017" lon="-7.953244">
        <ele>518.124</ele>
        <time>2016-09-26T08:52:30Z</time>
      </trkpt>
      <trkpt lat="43.715946" lon="-7.953295">
        <ele>517.982</ele>
        <time>2016-09-26T08:52:31Z</time>
      </trkpt>
      <trkpt lat="43.715872" lon="-7.953349">
        <ele>517.598</ele>
        <time>2016-09-26T08:52:32Z</time>
      </trkpt>
      <trkpt lat="43.715796" lon="-7.953406">
        <ele>517.282</ele>
        <time>2016-09-26T08:52:33Z</time>
      </trkpt>
      <trkpt lat="43.715715" lon="-7.953466">
        <ele>516.964</ele>
        <time>2016-09-26T08:52:34Z</time>
      </trkpt>
      <trkpt lat="43.715632" lon="-7.953529">
        <ele>516.677</ele>
        <time>2016-09-26T08:52:35Z</time>
      </trkpt>
      <trkpt lat="43.715547" lon="-7.953593">
        <ele>516.465</ele>
        <time>2016-09-26T08:52:36Z</time>
      </trkpt>
      <trkpt lat="43.715460" lon="-7.953657">
        <ele>516.131</ele>
        <time>2016-09-26T08:52:37Z</time>
      </trkpt>
      <trkpt lat="43.715373" lon="-7.953720">
        <ele>515.661</ele>
        <time>2016-09-26T08:52:38Z</time>
      </trkpt>
      <trkpt lat="43.715286" lon="-7.953784">
        <ele>515.407</ele>
        <time>2016-09-26T08:52:39Z</time>
      </trkpt>
      <trkpt lat="43.715201" lon="-7.953847">
        <ele>515.008</ele>
        <time>2016-09-26T08:52:40Z</time>
      </trkpt>
      <trkpt lat="43.715117" lon="-7.953909">
        <ele>514.554</ele>
        <time>2016-09-26T08:52:41Z</time>
      </trkpt>
      <trkpt lat="43.715034" lon="-7.953972">
        <ele>514.219</ele>
        <time>2016-09-26T08:52:42Z</time>
      </trkpt>
      <trkpt lat="43.714951" lon="-7.954035">
        <ele>513.877</ele>
        <time>2016-09-26T08:52:43Z</time>
      </trkpt>
      <trkpt lat="43.714868" lon="-7.954096">
        <ele>513.483</ele>
        <time>2016-09-26T08:52:44Z</time>
      </trkpt>
      <trkpt lat="43.714785" lon="-7.954158">
        <ele>512.977</ele>
        <time>2016-09-26T08:52:45Z</time>
      </trkpt>
      <trkpt lat="43.714701" lon="-7.954221">
        <ele>512.369</ele>
        <time>2016-09-26T08:52:46Z</time>
      </trkpt>
      <trkpt lat="43.714616" lon="-7.954283">
        <ele>511.962</ele>
        <time>2016-09-26T08:52:47Z</time>
      </trkpt>
      <trkpt lat="43.714531" lon="-7.954346">
        <ele>511.340</ele>
        <time>2016-09-26T08:52:48Z</time>
      </trkpt>
      <trkpt lat="43.714445" lon="-7.954409">
        <ele>511.148</ele>
        <time>2016-09-26T08:52:49Z</time>
      </trkpt>
      <trkpt lat="43.714359" lon="-7.954472">
        <ele>510.561</ele>
        <time>2016-09-26T08:52:50Z</time>
      </trkpt>
      <trkpt lat="43.714273" lon="-7.954536">
        <ele>510.017</ele>
        <time>2016-09-26T08:52:51Z</time>
      </trkpt>
      <trkpt lat="43.714187" lon="-7.954598">
        <ele>509.508</ele>
        <time>2016-09-26T08:52:52Z</time>
      </trkpt>
      <trkpt lat="43.714100" lon="-7.954660">
        <ele>509.085</ele>
        <time>2016-09-26T08:52:53Z</time>
      </trkpt>
      <trkpt lat="43.714013" lon="-7.954724">
        <ele>508.310</ele>
        <time>2016-09-26T08:52:54Z</time>
      </trkpt>
      <trkpt lat="43.713927" lon="-7.954789">
        <ele>507.888</ele>
        <time>2016-09-26T08:52:55Z</time>
      </trkpt>
      <trkpt lat="43.713840" lon="-7.954854">
        <ele>507.284</ele>
        <time>2016-09-26T08:52:56Z</time>
      </trkpt>
      <trkpt lat="43.713753" lon="-7.954920">
        <ele>506.798</ele>
        <time>2016-09-26T08:52:57Z</time>
      </trkpt>
      <trkpt lat="43.713665" lon="-7.954986">
        <ele>506.140</ele>
        <time>2016-09-26T08:52:58Z</time>
      </trkpt>
      <trkpt lat="43.713576" lon="-7.955054">
        <ele>505.543</ele>
        <time>2016-09-26T08:52:59Z</time>
      </trkpt>
      <trkpt lat="43.713486" lon="-7.955121">
        <ele>505.121</ele>
        <time>2016-09-26T08:53:00Z</time>
      </trkpt>
      <trkpt lat="43.713395" lon="-7.955189">
        <ele>504.418</ele>
        <time>2016-09-26T08:53:01Z</time>
      </trkpt>
      <trkpt lat="43.713305" lon="-7.955257">
        <ele>503.998</ele>
        <time>2016-09-26T08:53:02Z</time>
      </trkpt>
      <trkpt lat="43.713217" lon="-7.955325">
        <ele>503.317</ele>
        <time>2016-09-26T08:53:03Z</time>
      </trkpt>
      <trkpt lat="43.713132" lon="-7.955390">
        <ele>502.508</ele>
        <time>2016-09-26T08:53:04Z</time>
      </trkpt>
      <trkpt lat="43.713049" lon="-7.955452">
        <ele>501.942</ele>
        <time>2016-09-26T08:53:05Z</time>
      </trkpt>
      <trkpt lat="43.712971" lon="-7.955510">
        <ele>501.417</ele>
        <time>2016-09-26T08:53:06Z</time>
      </trkpt>
      <trkpt lat="43.712902" lon="-7.955563">
        <ele>500.885</ele>
        <time>2016-09-26T08:53:07Z</time>
      </trkpt>
      <trkpt lat="43.712841" lon="-7.955610">
        <ele>500.151</ele>
        <time>2016-09-26T08:53:08Z</time>
      </trkpt>
      <trkpt lat="43.712786" lon="-7.955653">
        <ele>499.225</ele>
        <time>2016-09-26T08:53:09Z</time>
      </trkpt>
      <trkpt lat="43.712738" lon="-7.955692">
        <ele>498.427</ele>
        <time>2016-09-26T08:53:10Z</time>
      </trkpt>
      <trkpt lat="43.712693" lon="-7.955727">
        <ele>497.710</ele>
        <time>2016-09-26T08:53:11Z</time>
      </trkpt>
      <trkpt lat="43.712651" lon="-7.955761">
        <ele>497.138</ele>
        <time>2016-09-26T08:53:12Z</time>
      </trkpt>
      <trkpt lat="43.712611" lon="-7.955793">
        <ele>496.577</ele>
        <time>2016-09-26T08:53:13Z</time>
      </trkpt>
      <trkpt lat="43.712572" lon="-7.955823">
        <ele>495.761</ele>
        <time>2016-09-26T08:53:14Z</time>
      </trkpt>
      <trkpt lat="43.712533" lon="-7.955853">
        <ele>495.327</ele>
        <time>2016-09-26T08:53:15Z</time>
      </trkpt>
      <trkpt lat="43.712495" lon="-7.955883">
        <ele>494.808</ele>
        <time>2016-09-26T08:53:16Z</time>
      </trkpt>
      <trkpt lat="43.712458" lon="-7.955910">
        <ele>494.288</ele>
        <time>2016-09-26T08:53:17Z</time>
      </trkpt>
      <trkpt lat="43.712420" lon="-7.955939">
        <ele>493.883</ele>
        <time>2016-09-26T08:53:18Z</time>
      </trkpt>
      <trkpt lat="43.712381" lon="-7.955970">
        <ele>493.471</ele>
        <time>2016-09-26T08:53:19Z</time>
      </trkpt>
      <trkpt lat="43.712336" lon="-7.956001">
        <ele>492.927</ele>
        <time>2016-09-26T08:53:20Z</time>
      </trkpt>
      <trkpt lat="43.712288" lon="-7.956033">
        <ele>492.491</ele>
        <time>2016-09-26T08:53:21Z</time>
      </trkpt>
      <trkpt lat="43.712239" lon="-7.956071">
        <ele>492.013</ele>
        <time>2016-09-26T08:53:22Z</time>
      </trkpt>
      <trkpt lat="43.712189" lon="-7.956119">
        <ele>491.646</ele>
        <time>2016-09-26T08:53:23Z</time>
      </trkpt>
      <trkpt lat="43.712139" lon="-7.956174">
        <ele>491.334</ele>
        <time>2016-09-26T08:53:24Z</time>
      </trkpt>
      <trkpt lat="43.712088" lon="-7.956235">
        <ele>491.077</ele>
        <time>2016-09-26T08:53:25Z</time>
      </trkpt>
      <trkpt lat="43.712037" lon="-7.956301">
        <ele>490.661</ele>
        <time>2016-09-26T08:53:26Z</time>
      </trkpt>
      <trkpt lat="43.711985" lon="-7.956373">
        <ele>490.127</ele>
        <time>2016-09-26T08:53:27Z</time>
      </trkpt>
      <trkpt lat="43.711934" lon="-7.956450">
        <ele>489.908</ele>
        <time>2016-09-26T08:53:28Z</time>
      </trkpt>
      <trkpt lat="43.711884" lon="-7.956533">
        <ele>489.678</ele>
        <time>2016-09-26T08:53:29Z</time>
      </trkpt>
      <trkpt lat="43.711834" lon="-7.956620">
        <ele>489.223</ele>
        <time>2016-09-26T08:53:30Z</time>
      </trkpt>
      <trkpt lat="43.711785" lon="-7.956711">
        <ele>488.891</ele>
        <time>2016-09-26T08:53:31Z</time>
      </trkpt>
      <trkpt lat="43.711735" lon="-7.956804">
        <ele>488.537</ele>
        <time>2016-09-26T08:53:32Z</time>
      </trkpt>
      <trkpt lat="43.711682" lon="-7.956895">
        <ele>487.981</ele>
        <time>2016-09-26T08:53:33Z</time>
      </trkpt>
      <trkpt lat="43.711627" lon="-7.956982">
        <ele>487.483</ele>
        <time>2016-09-26T08:53:34Z</time>
      </trkpt>
      <trkpt lat="43.711567" lon="-7.957065">
        <ele>486.716</ele>
        <time>2016-09-26T08:53:35Z</time>
      </trkpt>
      <trkpt lat="43.711502" lon="-7.957140">
        <ele>485.984</ele>
        <time>2016-09-26T08:53:36Z</time>
      </trkpt>
      <trkpt lat="43.711435" lon="-7.957209">
        <ele>485.218</ele>
        <time>2016-09-26T08:53:37Z</time>
      </trkpt>
      <trkpt lat="43.711369" lon="-7.957276">
        <ele>484.398</ele>
        <time>2016-09-26T08:53:38Z</time>
      </trkpt>
      <trkpt lat="43.711306" lon="-7.957341">
        <ele>483.617</ele>
        <time>2016-09-26T08:53:39Z</time>
      </trkpt>
      <trkpt lat="43.711246" lon="-7.957406">
        <ele>483.108</ele>
        <time>2016-09-26T08:53:40Z</time>
      </trkpt>
      <trkpt lat="43.711189" lon="-7.957468">
        <ele>482.452</ele>
        <time>2016-09-26T08:53:41Z</time>
      </trkpt>
      <trkpt lat="43.711135" lon="-7.957530">
        <ele>481.787</ele>
        <time>2016-09-26T08:53:42Z</time>
      </trkpt>
      <trkpt lat="43.711081" lon="-7.957587">
        <ele>480.975</ele>
        <time>2016-09-26T08:53:43Z</time>
      </trkpt>
      <trkpt lat="43.711026" lon="-7.957644">
        <ele>480.351</ele>
        <time>2016-09-26T08:53:44Z</time>
      </trkpt>
      <trkpt lat="43.710971" lon="-7.957708">
        <ele>479.755</ele>
        <time>2016-09-26T08:53:45Z</time>
      </trkpt>
      <trkpt lat="43.710918" lon="-7.957780">
        <ele>479.227</ele>
        <time>2016-09-26T08:53:46Z</time>
      </trkpt>
      <trkpt lat="43.710864" lon="-7.957856">
        <ele>478.670</ele>
        <time>2016-09-26T08:53:47Z</time>
      </trkpt>
      <trkpt lat="43.710808" lon="-7.957934">
        <ele>478.088</ele>
        <time>2016-09-26T08:53:48Z</time>
      </trkpt>
      <trkpt lat="43.710751" lon="-7.958014">
        <ele>477.661</ele>
        <time>2016-09-26T08:53:49Z</time>
      </trkpt>
      <trkpt lat="43.710692" lon="-7.958095">
        <ele>477.021</ele>
        <time>2016-09-26T08:53:50Z</time>
      </trkpt>
      <trkpt lat="43.710634" lon="-7.958177">
        <ele>476.513</ele>
        <time>2016-09-26T08:53:51Z</time>
      </trkpt>
      <trkpt lat="43.710576" lon="-7.958259">
        <ele>476.108</ele>
        <time>2016-09-26T08:53:52Z</time>
      </trkpt>
      <trkpt lat="43.710518" lon="-7.958344">
        <ele>475.637</ele>
        <time>2016-09-26T08:53:53Z</time>
      </trkpt>
      <trkpt lat="43.710460" lon="-7.958432">
        <ele>475.032</ele>
        <time>2016-09-26T08:53:54Z</time>
      </trkpt>
      <trkpt lat="43.710400" lon="-7.958524">
        <ele>474.330</ele>
        <time>2016-09-26T08:53:55Z</time>
      </trkpt>
      <trkpt lat="43.710340" lon="-7.958615">
        <ele>473.436</ele>
        <time>2016-09-26T08:53:56Z</time>
      </trkpt>
      <trkpt lat="43.710280" lon="-7.958706">
        <ele>472.790</ele>
        <time>2016-09-26T08:53:57Z</time>
      </trkpt>
      <trkpt lat="43.710224" lon="-7.958803">
        <ele>471.922</ele>
        <time>2016-09-26T08:53:58Z</time>
      </trkpt>
      <trkpt lat="43.710173" lon="-7.958908">
        <ele>471.295</ele>
        <time>2016-09-26T08:53:59Z</time>
      </trkpt>
      <trkpt lat="43.710129" lon="-7.959023">
        <ele>470.533</ele>
        <time>2016-09-26T08:54:00Z</time>
      </trkpt>
      <trkpt lat="43.710089" lon="-7.959147">
        <ele>470.025</ele>
        <time>2016-09-26T08:54:01Z</time>
      </trkpt>
      <trkpt lat="43.710050" lon="-7.959272">
        <ele>469.226</ele>
        <time>2016-09-26T08:54:02Z</time>
      </trkpt>
      <trkpt lat="43.710006" lon="-7.959397">
        <ele>468.508</ele>
        <time>2016-09-26T08:54:03Z</time>
      </trkpt>
      <trkpt lat="43.709960" lon="-7.959520">
        <ele>467.908</ele>
        <time>2016-09-26T08:54:04Z</time>
      </trkpt>
      <trkpt lat="43.709913" lon="-7.959641">
        <ele>467.283</ele>
        <time>2016-09-26T08:54:05Z</time>
      </trkpt>
      <trkpt lat="43.709862" lon="-7.959757">
        <ele>466.618</ele>
        <time>2016-09-26T08:54:06Z</time>
      </trkpt>
      <trkpt lat="43.709807" lon="-7.959869">
        <ele>465.986</ele>
        <time>2016-09-26T08:54:07Z</time>
      </trkpt>
      <trkpt lat="43.709750" lon="-7.959978">
        <ele>465.082</ele>
        <time>2016-09-26T08:54:08Z</time>
      </trkpt>
      <trkpt lat="43.709692" lon="-7.960089">
        <ele>464.136</ele>
        <time>2016-09-26T08:54:09Z</time>
      </trkpt>
      <trkpt lat="43.709638" lon="-7.960203">
        <ele>463.348</ele>
        <time>2016-09-26T08:54:10Z</time>
      </trkpt>
      <trkpt lat="43.709590" lon="-7.960323">
        <ele>462.211</ele>
        <time>2016-09-26T08:54:11Z</time>
      </trkpt>
      <trkpt lat="43.709545" lon="-7.960450">
        <ele>461.269</ele>
        <time>2016-09-26T08:54:12Z</time>
      </trkpt>
      <trkpt lat="43.709504" lon="-7.960584">
        <ele>460.142</ele>
        <time>2016-09-26T08:54:13Z</time>
      </trkpt>
      <trkpt lat="43.709464" lon="-7.960734">
        <ele>459.322</ele>
        <time>2016-09-26T08:54:14Z</time>
      </trkpt>
      <trkpt lat="43.709420" lon="-7.960890">
        <ele>458.314</ele>
        <time>2016-09-26T08:54:15Z</time>
      </trkpt>
      <trkpt lat="43.709368" lon="-7.961037">
        <ele>457.408</ele>
        <time>2016-09-26T08:54:16Z</time>
      </trkpt>
      <trkpt lat="43.709308" lon="-7.961174">
        <ele>456.225</ele>
        <time>2016-09-26T08:54:17Z</time>
      </trkpt>
      <trkpt lat="43.709248" lon="-7.961313">
        <ele>455.380</ele>
        <time>2016-09-26T08:54:18Z</time>
      </trkpt>
      <trkpt lat="43.709191" lon="-7.961449">
        <ele>454.058</ele>
        <time>2016-09-26T08:54:19Z</time>
      </trkpt>
      <trkpt lat="43.709137" lon="-7.961583">
        <ele>452.854</ele>
        <time>2016-09-26T08:54:20Z</time>
      </trkpt>
      <trkpt lat="43.709088" lon="-7.961710">
        <ele>451.788</ele>
        <time>2016-09-26T08:54:21Z</time>
      </trkpt>
      <trkpt lat="43.709043" lon="-7.961829">
        <ele>450.510</ele>
        <time>2016-09-26T08:54:22Z</time>
      </trkpt>
      <trkpt lat="43.708994" lon="-7.961935">
        <ele>449.723</ele>
        <time>2016-09-26T08:54:23Z</time>
      </trkpt>
      <trkpt lat="43.708942" lon="-7.962024">
        <ele>448.581</ele>
        <time>2016-09-26T08:54:24Z</time>
      </trkpt>
      <trkpt lat="43.708885" lon="-7.962108">
        <ele>447.541</ele>
        <time>2016-09-26T08:54:25Z</time>
      </trkpt>
      <trkpt lat="43.708825" lon="-7.962193">
        <ele>446.481</ele>
        <time>2016-09-26T08:54:26Z</time>
      </trkpt>
      <trkpt lat="43.708758" lon="-7.962274">
        <ele>445.409</ele>
        <time>2016-09-26T08:54:27Z</time>
      </trkpt>
      <trkpt lat="43.708687" lon="-7.962350">
        <ele>444.508</ele>
        <time>2016-09-26T08:54:28Z</time>
      </trkpt>
      <trkpt lat="43.708612" lon="-7.962424">
        <ele>443.445</ele>
        <time>2016-09-26T08:54:29Z</time>
      </trkpt>
      <trkpt lat="43.708535" lon="-7.962500">
        <ele>442.530</ele>
        <time>2016-09-26T08:54:30Z</time>
      </trkpt>
      <trkpt lat="43.708459" lon="-7.962569">
        <ele>441.858</ele>
        <time>2016-09-26T08:54:31Z</time>
      </trkpt>
      <trkpt lat="43.708381" lon="-7.962627">
        <ele>440.884</ele>
        <time>2016-09-26T08:54:32Z</time>
      </trkpt>
      <trkpt lat="43.708308" lon="-7.962670">
        <ele>440.018</ele>
        <time>2016-09-26T08:54:33Z</time>
      </trkpt>
      <trkpt lat="43.708238" lon="-7.962689">
        <ele>439.290</ele>
        <time>2016-09-26T08:54:34Z</time>
      </trkpt>
      <trkpt lat="43.708164" lon="-7.962694">
        <ele>438.433</ele>
        <time>2016-09-26T08:54:35Z</time>
      </trkpt>
      <trkpt lat="43.708087" lon="-7.962689">
        <ele>437.871</ele>
        <time>2016-09-26T08:54:36Z</time>
      </trkpt>
      <trkpt lat="43.708008" lon="-7.962680">
        <ele>437.364</ele>
        <time>2016-09-26T08:54:37Z</time>
      </trkpt>
      <trkpt lat="43.707930" lon="-7.962674">
        <ele>436.806</ele>
        <time>2016-09-26T08:54:38Z</time>
      </trkpt>
      <trkpt lat="43.707852" lon="-7.962674">
        <ele>436.316</ele>
        <time>2016-09-26T08:54:39Z</time>
      </trkpt>
      <trkpt lat="43.707771" lon="-7.962678">
        <ele>435.808</ele>
        <time>2016-09-26T08:54:40Z</time>
      </trkpt>
      <trkpt lat="43.707683" lon="-7.962692">
        <ele>435.547</ele>
        <time>2016-09-26T08:54:41Z</time>
      </trkpt>
      <trkpt lat="43.707598" lon="-7.962723">
        <ele>435.042</ele>
        <time>2016-09-26T08:54:42Z</time>
      </trkpt>
      <trkpt lat="43.707524" lon="-7.962769">
        <ele>434.630</ele>
        <time>2016-09-26T08:54:43Z</time>
      </trkpt>
      <trkpt lat="43.707449" lon="-7.962825">
        <ele>434.226</ele>
        <time>2016-09-26T08:54:44Z</time>
      </trkpt>
      <trkpt lat="43.707383" lon="-7.962891">
        <ele>433.620</ele>
        <time>2016-09-26T08:54:45Z</time>
      </trkpt>
      <trkpt lat="43.707319" lon="-7.962961">
        <ele>433.212</ele>
        <time>2016-09-26T08:54:46Z</time>
      </trkpt>
      <trkpt lat="43.707258" lon="-7.963032">
        <ele>432.845</ele>
        <time>2016-09-26T08:54:47Z</time>
      </trkpt>
      <trkpt lat="43.707199" lon="-7.963099">
        <ele>432.723</ele>
        <time>2016-09-26T08:54:48Z</time>
      </trkpt>
      <trkpt lat="43.707143" lon="-7.963164">
        <ele>432.493</ele>
        <time>2016-09-26T08:54:49Z</time>
      </trkpt>
      <trkpt lat="43.707090" lon="-7.963227">
        <ele>432.465</ele>
        <time>2016-09-26T08:54:50Z</time>
      </trkpt>
      <trkpt lat="43.707037" lon="-7.963285">
        <ele>432.121</ele>
        <time>2016-09-26T08:54:51Z</time>
      </trkpt>
      <trkpt lat="43.706984" lon="-7.963341">
        <ele>431.908</ele>
        <time>2016-09-26T08:54:52Z</time>
      </trkpt>
      <trkpt lat="43.706932" lon="-7.963396">
        <ele>431.980</ele>
        <time>2016-09-26T08:54:53Z</time>
      </trkpt>
      <trkpt lat="43.706881" lon="-7.963451">
        <ele>431.855</ele>
        <time>2016-09-26T08:54:54Z</time>
      </trkpt>
      <trkpt lat="43.706834" lon="-7.963508">
        <ele>431.863</ele>
        <time>2016-09-26T08:54:55Z</time>
      </trkpt>
      <trkpt lat="43.706789" lon="-7.963567">
        <ele>432.019</ele>
        <time>2016-09-26T08:54:56Z</time>
      </trkpt>
      <trkpt lat="43.706755" lon="-7.963634">
        <ele>432.113</ele>
        <time>2016-09-26T08:54:57Z</time>
      </trkpt>
      <trkpt lat="43.706739" lon="-7.963713">
        <ele>432.215</ele>
        <time>2016-09-26T08:54:58Z</time>
      </trkpt>
      <trkpt lat="43.706742" lon="-7.963792">
        <ele>432.398</ele>
        <time>2016-09-26T08:54:59Z</time>
      </trkpt>
      <trkpt lat="43.706765" lon="-7.963867">
        <ele>432.286</ele>
        <time>2016-09-26T08:55:00Z</time>
      </trkpt>
      <trkpt lat="43.706800" lon="-7.963940">
        <ele>432.484</ele>
        <time>2016-09-26T08:55:01Z</time>
      </trkpt>
      <trkpt lat="43.706840" lon="-7.964010">
        <ele>432.407</ele>
        <time>2016-09-26T08:55:02Z</time>
      </trkpt>
      <trkpt lat="43.706883" lon="-7.964081">
        <ele>432.517</ele>
        <time>2016-09-26T08:55:03Z</time>
      </trkpt>
      <trkpt lat="43.706923" lon="-7.964157">
        <ele>432.508</ele>
        <time>2016-09-26T08:55:04Z</time>
      </trkpt>
      <trkpt lat="43.706965" lon="-7.964236">
        <ele>432.659</ele>
        <time>2016-09-26T08:55:05Z</time>
      </trkpt>
      <trkpt lat="43.707008" lon="-7.964315">
        <ele>432.394</ele>
        <time>2016-09-26T08:55:06Z</time>
      </trkpt>
      <trkpt lat="43.707052" lon="-7.964395">
        <ele>432.242</ele>
        <time>2016-09-26T08:55:07Z</time>
      </trkpt>
      <trkpt lat="43.707096" lon="-7.964473">
        <ele>431.838</ele>
        <time>2016-09-26T08:55:08Z</time>
      </trkpt>
      <trkpt lat="43.707141" lon="-7.964549">
        <ele>431.442</ele>
        <time>2016-09-26T08:55:09Z</time>
      </trkpt>
      <trkpt lat="43.707185" lon="-7.964619">
        <ele>431.354</ele>
        <time>2016-09-26T08:55:10Z</time>
      </trkpt>
      <trkpt lat="43.707225" lon="-7.964683">
        <ele>431.117</ele>
        <time>2016-09-26T08:55:11Z</time>
      </trkpt>
      <trkpt lat="43.707262" lon="-7.964750">
        <ele>430.845</ele>
        <time>2016-09-26T08:55:12Z</time>
      </trkpt>
      <trkpt lat="43.707297" lon="-7.964823">
        <ele>430.416</ele>
        <time>2016-09-26T08:55:13Z</time>
      </trkpt>
      <trkpt lat="43.707333" lon="-7.964899">
        <ele>430.176</ele>
        <time>2016-09-26T08:55:14Z</time>
      </trkpt>
      <trkpt lat="43.707371" lon="-7.964975">
        <ele>429.713</ele>
        <time>2016-09-26T08:55:15Z</time>
      </trkpt>
      <trkpt lat="43.707406" lon="-7.965051">
        <ele>429.608</ele>
        <time>2016-09-26T08:55:16Z</time>
      </trkpt>
      <trkpt lat="43.707439" lon="-7.965122">
        <ele>429.452</ele>
        <time>2016-09-26T08:55:17Z</time>
      </trkpt>
      <trkpt lat="43.707468" lon="-7.965189">
        <ele>429.377</ele>
        <time>2016-09-26T08:55:18Z</time>
      </trkpt>
      <trkpt lat="43.707492" lon="-7.965256">
        <ele>429.155</ele>
        <time>2016-09-26T08:55:19Z</time>
      </trkpt>
      <trkpt lat="43.707518" lon="-7.965325">
        <ele>429.291</ele>
        <time>2016-09-26T08:55:20Z</time>
      </trkpt>
      <trkpt lat="43.707549" lon="-7.965390">
        <ele>429.185</ele>
        <time>2016-09-26T08:55:21Z</time>
      </trkpt>
      <trkpt lat="43.707582" lon="-7.965450">
        <ele>429.087</ele>
        <time>2016-09-26T08:55:22Z</time>
      </trkpt>
      <trkpt lat="43.707608" lon="-7.965514">
        <ele>428.950</ele>
        <time>2016-09-26T08:55:23Z</time>
      </trkpt>
      <trkpt lat="43.707627" lon="-7.965584">
        <ele>428.788</ele>
        <time>2016-09-26T08:55:24Z</time>
      </trkpt>
      <trkpt lat="43.707650" lon="-7.965655">
        <ele>428.747</ele>
        <time>2016-09-26T08:55:25Z</time>
      </trkpt>
      <trkpt lat="43.707673" lon="-7.965723">
        <ele>428.929</ele>
        <time>2016-09-26T08:55:26Z</time>
      </trkpt>
      <trkpt lat="43.707693" lon="-7.965785">
        <ele>428.721</ele>
        <time>2016-09-26T08:55:27Z</time>
      </trkpt>
      <trkpt lat="43.707705" lon="-7.965841">
        <ele>428.608</ele>
        <time>2016-09-26T08:55:28Z</time>
      </trkpt>
      <trkpt lat="43.707722" lon="-7.965897">
        <ele>428.625</ele>
        <time>2016-09-26T08:55:29Z</time>
      </trkpt>
      <trkpt lat="43.707740" lon="-7.965944">
        <ele>428.330</ele>
        <time>2016-09-26T08:55:30Z</time>
      </trkpt>
      <trkpt lat="43.707751" lon="-7.965993">
        <ele>428.368</ele>
        <time>2016-09-26T08:55:31Z</time>
      </trkpt>
      <trkpt lat="43.707766" lon="-7.966045">
        <ele>428.334</ele>
        <time>2016-09-26T08:55:32Z</time>
      </trkpt>
      <trkpt lat="43.707774" lon="-7.966103">
        <ele>428.468</ele>
        <time>2016-09-26T08:55:33Z</time>
      </trkpt>
      <trkpt lat="43.707792" lon="-7.966158">
        <ele>428.380</ele>
        <time>2016-09-26T08:55:34Z</time>
      </trkpt>
      <trkpt lat="43.707810" lon="-7.966208">
        <ele>428.443</ele>
        <time>2016-09-26T08:55:35Z</time>
      </trkpt>
      <trkpt lat="43.707821" lon="-7.966247">
        <ele>428.241</ele>
        <time>2016-09-26T08:55:36Z</time>
      </trkpt>
      <trkpt lat="43.707822" lon="-7.966287">
        <ele>428.298</ele>
        <time>2016-09-26T08:55:37Z</time>
      </trkpt>
      <trkpt lat="43.707818" lon="-7.966330">
        <ele>428.315</ele>
        <time>2016-09-26T08:55:38Z</time>
      </trkpt>
      <trkpt lat="43.707820" lon="-7.966372">
        <ele>428.226</ele>
        <time>2016-09-26T08:55:39Z</time>
      </trkpt>
      <trkpt lat="43.707826" lon="-7.966418">
        <ele>428.108</ele>
        <time>2016-09-26T08:55:40Z</time>
      </trkpt>
      <trkpt lat="43.707836" lon="-7.966460">
        <ele>428.040</ele>
        <time>2016-09-26T08:55:41Z</time>
      </trkpt>
      <trkpt lat="43.707844" lon="-7.966505">
        <ele>428.065</ele>
        <time>2016-09-26T08:55:42Z</time>
      </trkpt>
      <trkpt lat="43.707853" lon="-7.966552">
        <ele>428.123</ele>
        <time>2016-09-26T08:55:43Z</time>
      </trkpt>
      <trkpt lat="43.707855" lon="-7.966591">
        <ele>428.059</ele>
        <time>2016-09-26T08:55:44Z</time>
      </trkpt>
      <trkpt lat="43.707867" lon="-7.966625">
        <ele>428.123</ele>
        <time>2016-09-26T08:55:45Z</time>
      </trkpt>
      <trkpt lat="43.707887" lon="-7.966669">
        <ele>428.355</ele>
        <time>2016-09-26T08:55:46Z</time>
      </trkpt>
      <trkpt lat="43.707905" lon="-7.966709">
        <ele>428.328</ele>
        <time>2016-09-26T08:55:47Z</time>
      </trkpt>
      <trkpt lat="43.707921" lon="-7.966744">
        <ele>428.466</ele>
        <time>2016-09-26T08:55:48Z</time>
      </trkpt>
      <trkpt lat="43.707929" lon="-7.966784">
        <ele>428.437</ele>
        <time>2016-09-26T08:55:49Z</time>
      </trkpt>
      <trkpt lat="43.707925" lon="-7.966823">
        <ele>428.449</ele>
        <time>2016-09-26T08:55:50Z</time>
      </trkpt>
      <trkpt lat="43.707927" lon="-7.966860">
        <ele>428.613</ele>
        <time>2016-09-26T08:55:51Z</time>
      </trkpt>
      <trkpt lat="43.707937" lon="-7.966902">
        <ele>428.808</ele>
        <time>2016-09-26T08:55:52Z</time>
      </trkpt>
      <trkpt lat="43.707947" lon="-7.966942">
        <ele>428.824</ele>
        <time>2016-09-26T08:55:53Z</time>
      </trkpt>
      <trkpt lat="43.707961" lon="-7.966979">
        <ele>428.929</ele>
        <time>2016-09-26T08:55:54Z</time>
      </trkpt>
      <trkpt lat="43.707968" lon="-7.967023">
        <ele>428.917</ele>
        <time>2016-09-26T08:55:55Z</time>
      </trkpt>
      <trkpt lat="43.707973" lon="-7.967065">
        <ele>428.823</ele>
        <time>2016-09-26T08:55:56Z</time>
      </trkpt>
      <trkpt lat="43.707970" lon="-7.967105">
        <ele>428.957</ele>
        <time>2016-09-26T08:55:57Z</time>
      </trkpt>
      <trkpt lat="43.707970" lon="-7.967147">
        <ele>429.119</ele>
        <time>2016-09-26T08:55:58Z</time>
      </trkpt>
      <trkpt lat="43.707963" lon="-7.967186">
        <ele>429.132</ele>
        <time>2016-09-26T08:55:59Z</time>
      </trkpt>
      <trkpt lat="43.707973" lon="-7.967224">
        <ele>429.350</ele>
        <time>2016-09-26T08:56:00Z</time>
      </trkpt>
      <trkpt lat="43.707972" lon="-7.967267">
        <ele>429.636</ele>
        <time>2016-09-26T08:56:01Z</time>
      </trkpt>
      <trkpt lat="43.707967" lon="-7.967321">
        <ele>429.717</ele>
        <time>2016-09-26T08:56:02Z</time>
      </trkpt>
      <trkpt lat="43.707974" lon="-7.967372">
        <ele>429.918</ele>
        <time>2016-09-26T08:56:03Z</time>
      </trkpt>
      <trkpt lat="43.707983" lon="-7.967419">
        <ele>429.908</ele>
        <time>2016-09-26T08:56:04Z</time>
      </trkpt>
      <trkpt lat="43.707992" lon="-7.967466">
        <ele>430.014</ele>
        <time>2016-09-26T08:56:05Z</time>
      </trkpt>
      <trkpt lat="43.707999" lon="-7.967507">
        <ele>430.199</ele>
        <time>2016-09-26T08:56:06Z</time>
      </trkpt>
      <trkpt lat="43.707997" lon="-7.967546">
        <ele>430.117</ele>
        <time>2016-09-26T08:56:07Z</time>
      </trkpt>
      <trkpt lat="43.707996" lon="-7.967588">
        <ele>430.143</ele>
        <time>2016-09-26T08:56:08Z</time>
      </trkpt>
      <trkpt lat="43.708011" lon="-7.967632">
        <ele>430.277</ele>
        <time>2016-09-26T08:56:09Z</time>
      </trkpt>
      <trkpt lat="43.708016" lon="-7.967671">
        <ele>430.319</ele>
        <time>2016-09-26T08:56:10Z</time>
      </trkpt>
      <trkpt lat="43.708024" lon="-7.967711">
        <ele>430.472</ele>
        <time>2016-09-26T08:56:11Z</time>
      </trkpt>
      <trkpt lat="43.708030" lon="-7.967750">
        <ele>430.590</ele>
        <time>2016-09-26T08:56:12Z</time>
      </trkpt>
      <trkpt lat="43.708034" lon="-7.967793">
        <ele>430.588</ele>
        <time>2016-09-26T08:56:13Z</time>
      </trkpt>
      <trkpt lat="43.708038" lon="-7.967840">
        <ele>430.524</ele>
        <time>2016-09-26T08:56:14Z</time>
      </trkpt>
      <trkpt lat="43.708048" lon="-7.967892">
        <ele>430.526</ele>
        <time>2016-09-26T08:56:15Z</time>
      </trkpt>
      <trkpt lat="43.708055" lon="-7.967948">
        <ele>430.808</ele>
        <time>2016-09-26T08:56:16Z</time>
      </trkpt>
      <trkpt lat="43.708064" lon="-7.967997">
        <ele>430.869</ele>
        <time>2016-09-26T08:56:17Z</time>
      </trkpt>
      <trkpt lat="43.708078" lon="-7.968045">
        <ele>430.814</ele>
        <time>2016-09-26T08:56:18Z</time>
      </trkpt>
      <trkpt lat="43.708092" lon="-7.968085">
        <ele>430.822</ele>
        <time>2016-09-26T08:56:19Z</time>
      </trkpt>
      <trkpt lat="43.708105" lon="-7.968128">
        <ele>430.938</ele>
        <time>2016-09-26T08:56:20Z</time>
      </trkpt>
      <trkpt lat="43.708124" lon="-7.968172">
        <ele>431.082</ele>
        <time>2016-09-26T08:56:21Z</time>
      </trkpt>
      <trkpt lat="43.708143" lon="-7.968212">
        <ele>431.354</ele>
        <time>2016-09-26T08:56:22Z</time>
      </trkpt>
      <trkpt lat="43.708160" lon="-7.968249">
        <ele>431.217</ele>
        <time>2016-09-26T08:56:23Z</time>
      </trkpt>
      <trkpt lat="43.708173" lon="-7.968289">
        <ele>431.435</ele>
        <time>2016-09-26T08:56:24Z</time>
      </trkpt>
      <trkpt lat="43.708187" lon="-7.968333">
        <ele>431.614</ele>
        <time>2016-09-26T08:56:25Z</time>
      </trkpt>
      <trkpt lat="43.708192" lon="-7.968379">
        <ele>431.654</ele>
        <time>2016-09-26T08:56:26Z</time>
      </trkpt>
      <trkpt lat="43.708199" lon="-7.968425">
        <ele>431.709</ele>
        <time>2016-09-26T08:56:27Z</time>
      </trkpt>
      <trkpt lat="43.708208" lon="-7.968471">
        <ele>431.908</ele>
        <time>2016-09-26T08:56:28Z</time>
      </trkpt>
      <trkpt lat="43.708217" lon="-7.968511">
        <ele>432.132</ele>
        <time>2016-09-26T08:56:29Z</time>
      </trkpt>
      <trkpt lat="43.708229" lon="-7.968550">
        <ele>432.377</ele>
        <time>2016-09-26T08:56:30Z</time>
      </trkpt>
      <trkpt lat="43.708242" lon="-7.968590">
        <ele>432.515</ele>
        <time>2016-09-26T08:56:31Z</time>
      </trkpt>
      <trkpt lat="43.708250" lon="-7.968629">
        <ele>432.751</ele>
        <time>2016-09-26T08:56:32Z</time>
      </trkpt>
      <trkpt lat="43.708254" lon="-7.968664">
        <ele>432.865</ele>
        <time>2016-09-26T08:56:33Z</time>
      </trkpt>
      <trkpt lat="43.708256" lon="-7.968702">
        <ele>432.967</ele>
        <time>2016-09-26T08:56:34Z</time>
      </trkpt>
      <trkpt lat="43.708263" lon="-7.968739">
        <ele>433.190</ele>
        <time>2016-09-26T08:56:35Z</time>
      </trkpt>
      <trkpt lat="43.708267" lon="-7.968774">
        <ele>433.278</ele>
        <time>2016-09-26T08:56:36Z</time>
      </trkpt>
      <trkpt lat="43.708270" lon="-7.968808">
        <ele>433.411</ele>
        <time>2016-09-26T08:56:37Z</time>
      </trkpt>
      <trkpt lat="43.708283" lon="-7.968838">
        <ele>433.721</ele>
        <time>2016-09-26T08:56:38Z</time>
      </trkpt>
      <trkpt lat="43.708291" lon="-7.968875">
        <ele>433.903</ele>
        <time>2016-09-26T08:56:39Z</time>
      </trkpt>
      <trkpt lat="43.708301" lon="-7.968909">
        <ele>434.108</ele>
        <time>2016-09-26T08:56:40Z</time>
      </trkpt>
      <trkpt lat="43.708306" lon="-7.968942">
        <ele>434.312</ele>
        <time>2016-09-26T08:56:41Z</time>
      </trkpt>
      <trkpt lat="43.708307" lon="-7.968972">
        <ele>434.487</ele>
        <time>2016-09-26T08:56:42Z</time>
      </trkpt>
      <trkpt lat="43.708311" lon="-7.969002">
        <ele>434.795</ele>
        <time>2016-09-26T08:56:43Z</time>
      </trkpt>
      <trkpt lat="43.708309" lon="-7.969033">
        <ele>435.011</ele>
        <time>2016-09-26T08:56:44Z</time>
      </trkpt>
      <trkpt lat="43.708313" lon="-7.969064">
        <ele>435.125</ele>
        <time>2016-09-26T08:56:45Z</time>
      </trkpt>
      <trkpt lat="43.708313" lon="-7.969092">
        <ele>435.457</ele>
        <time>2016-09-26T08:56:46Z</time>
      </trkpt>
      <trkpt lat="43.708314" lon="-7.969125">
        <ele>435.710</ele>
        <time>2016-09-26T08:56:47Z</time>
      </trkpt>
      <trkpt lat="43.708316" lon="-7.969158">
        <ele>435.998</ele>
        <time>2016-09-26T08:56:48Z</time>
      </trkpt>
      <trkpt lat="43.708316" lon="-7.969196">
        <ele>436.131</ele>
        <time>2016-09-26T08:56:49Z</time>
      </trkpt>
      <trkpt lat="43.708311" lon="-7.969232">
        <ele>436.361</ele>
        <time>2016-09-26T08:56:50Z</time>
      </trkpt>
      <trkpt lat="43.708305" lon="-7.969270">
        <ele>436.607</ele>
        <time>2016-09-26T08:56:51Z</time>
      </trkpt>
      <trkpt lat="43.708308" lon="-7.969303">
        <ele>436.808</ele>
        <time>2016-09-26T08:56:52Z</time>
      </trkpt>
      <trkpt lat="43.708310" lon="-7.969334">
        <ele>436.944</ele>
        <time>2016-09-26T08:56:53Z</time>
      </trkpt>
      <trkpt lat="43.708312" lon="-7.969365">
        <ele>437.269</ele>
        <time>2016-09-26T08:56:54Z</time>
      </trkpt>
      <trkpt lat="43.708317" lon="-7.969397">
        <ele>437.337</ele>
        <time>2016-09-26T08:56:55Z</time>
      </trkpt>
      <trkpt lat="43.708320" lon="-7.969430">
        <ele>437.433</ele>
        <time>2016-09-26T08:56:56Z</time>
      </trkpt>
      <trkpt lat="43.708321" lon="-7.969467">
        <ele>437.487</ele>
        <time>2016-09-26T08:56:57Z</time>
      </trkpt>
      <trkpt lat="43.708323" lon="-7.969503">
        <ele>437.429</ele>
        <time>2016-09-26T08:56:58Z</time>
      </trkpt>
      <trkpt lat="43.708324" lon="-7.969542">
        <ele>437.662</ele>
        <time>2016-09-26T08:56:59Z</time>
      </trkpt>
      <trkpt lat="43.708323" lon="-7.969578">
        <ele>437.930</ele>
        <time>2016-09-26T08:57:00Z</time>
      </trkpt>
      <trkpt lat="43.708324" lon="-7.969616">
        <ele>438.114</ele>
        <time>2016-09-26T08:57:01Z</time>
      </trkpt>
      <trkpt lat="43.708323" lon="-7.969652">
        <ele>438.254</ele>
        <time>2016-09-26T08:57:02Z</time>
      </trkpt>
      <trkpt lat="43.708321" lon="-7.969687">
        <ele>438.609</ele>
        <time>2016-09-26T08:57:03Z</time>
      </trkpt>
      <trkpt lat="43.708319" lon="-7.969721">
        <ele>438.608</ele>
        <time>2016-09-26T08:57:04Z</time>
      </trkpt>
      <trkpt lat="43.708317" lon="-7.969751">
        <ele>438.732</ele>
        <time>2016-09-26T08:57:05Z</time>
      </trkpt>
      <trkpt lat="43.708317" lon="-7.969782">
        <ele>439.087</ele>
        <time>2016-09-26T08:57:06Z</time>
      </trkpt>
      <trkpt lat="43.708320" lon="-7.969815">
        <ele>439.095</ele>
        <time>2016-09-26T08:57:07Z</time>
      </trkpt>
      <trkpt lat="43.708319" lon="-7.969849">
        <ele>439.481</ele>
        <time>2016-09-26T08:57:08Z</time>
      </trkpt>
      <trkpt lat="43.708315" lon="-7.969882">
        <ele>439.465</ele>
        <time>2016-09-26T08:57:09Z</time>
      </trkpt>
      <trkpt lat="43.708310" lon="-7.969914">
        <ele>439.637</ele>
        <time>2016-09-26T08:57:10Z</time>
      </trkpt>
      <trkpt lat="43.708304" lon="-7.969943">
        <ele>439.890</ele>
        <time>2016-09-26T08:57:11Z</time>
      </trkpt>
      <trkpt lat="43.708299" lon="-7.969968">
        <ele>440.198</ele>
        <time>2016-09-26T08:57:12Z</time>
      </trkpt>
      <trkpt lat="43.708291" lon="-7.969992">
        <ele>440.332</ele>
        <time>2016-09-26T08:57:13Z</time>
      </trkpt>
      <trkpt lat="43.708283" lon="-7.970018">
        <ele>440.592</ele>
        <time>2016-09-26T08:57:14Z</time>
      </trkpt>
      <trkpt lat="43.708273" lon="-7.970043">
        <ele>440.711</ele>
        <time>2016-09-26T08:57:15Z</time>
      </trkpt>
      <trkpt lat="43.708263" lon="-7.970067">
        <ele>440.808</ele>
        <time>2016-09-26T08:57:16Z</time>
      </trkpt>
      <trkpt lat="43.708251" lon="-7.970092">
        <ele>441.274</ele>
        <time>2016-09-26T08:57:17Z</time>
      </trkpt>
      <trkpt lat="43.708240" lon="-7.970113">
        <ele>441.489</ele>
        <time>2016-09-26T08:57:18Z</time>
      </trkpt>
      <trkpt lat="43.708229" lon="-7.970136">
        <ele>441.597</ele>
        <time>2016-09-26T08:57:19Z</time>
      </trkpt>
      <trkpt lat="43.708219" lon="-7.970158">
        <ele>441.563</ele>
        <time>2016-09-26T08:57:20Z</time>
      </trkpt>
      <trkpt lat="43.708208" lon="-7.970184">
        <ele>441.757</ele>
        <time>2016-09-26T08:57:21Z</time>
      </trkpt>
      <trkpt lat="43.708196" lon="-7.970206">
        <ele>441.849</ele>
        <time>2016-09-26T08:57:22Z</time>
      </trkpt>
      <trkpt lat="43.708184" lon="-7.970221">
        <ele>441.812</ele>
        <time>2016-09-26T08:57:23Z</time>
      </trkpt>
      <trkpt lat="43.708169" lon="-7.970237">
        <ele>442.020</ele>
        <time>2016-09-26T08:57:24Z</time>
      </trkpt>
      <trkpt lat="43.708153" lon="-7.970253">
        <ele>442.235</ele>
        <time>2016-09-26T08:57:25Z</time>
      </trkpt>
      <trkpt lat="43.708137" lon="-7.970269">
        <ele>442.286</ele>
        <time>2016-09-26T08:57:26Z</time>
      </trkpt>
      <trkpt lat="43.708118" lon="-7.970284">
        <ele>442.214</ele>
        <time>2016-09-26T08:57:27Z</time>
      </trkpt>
      <trkpt lat="43.708101" lon="-7.970299">
        <ele>442.208</ele>
        <time>2016-09-26T08:57:28Z</time>
      </trkpt>
      <trkpt lat="43.708080" lon="-7.970311">
        <ele>442.324</ele>
        <time>2016-09-26T08:57:29Z</time>
      </trkpt>
      <trkpt lat="43.708060" lon="-7.970326">
        <ele>442.419</ele>
        <time>2016-09-26T08:57:30Z</time>
      </trkpt>
      <trkpt lat="43.708044" lon="-7.970343">
        <ele>442.497</ele>
        <time>2016-09-26T08:57:31Z</time>
      </trkpt>
      <trkpt lat="43.708027" lon="-7.970359">
        <ele>442.483</ele>
        <time>2016-09-26T08:57:32Z</time>
      </trkpt>
      <trkpt lat="43.708001" lon="-7.970374">
        <ele>442.557</ele>
        <time>2016-09-26T08:57:33Z</time>
      </trkpt>
      <trkpt lat="43.707982" lon="-7.970398">
        <ele>442.649</ele>
        <time>2016-09-26T08:57:34Z</time>
      </trkpt>
      <trkpt lat="43.707958" lon="-7.970422">
        <ele>442.572</ele>
        <time>2016-09-26T08:57:35Z</time>
      </trkpt>
      <trkpt lat="43.707935" lon="-7.970444">
        <ele>442.890</ele>
        <time>2016-09-26T08:57:36Z</time>
      </trkpt>
      <trkpt lat="43.707910" lon="-7.970467">
        <ele>442.914</ele>
        <time>2016-09-26T08:57:37Z</time>
      </trkpt>
      <trkpt lat="43.707889" lon="-7.970489">
        <ele>443.054</ele>
        <time>2016-09-26T08:57:38Z</time>
      </trkpt>
      <trkpt lat="43.707868" lon="-7.970507">
        <ele>443.009</ele>
        <time>2016-09-26T08:57:39Z</time>
      </trkpt>
      <trkpt lat="43.707846" lon="-7.970528">
        <ele>443.408</ele>
        <time>2016-09-26T08:57:40Z</time>
      </trkpt>
      <trkpt lat="43.707824" lon="-7.970545">
        <ele>443.542</ele>
        <time>2016-09-26T08:57:41Z</time>
      </trkpt>
      <trkpt lat="43.707802" lon="-7.970560">
        <ele>443.597</ele>
        <time>2016-09-26T08:57:42Z</time>
      </trkpt>
      <trkpt lat="43.707780" lon="-7.970579">
        <ele>443.725</ele>
        <time>2016-09-26T08:57:43Z</time>
      </trkpt>
      <trkpt lat="43.707756" lon="-7.970598">
        <ele>443.941</ele>
        <time>2016-09-26T08:57:44Z</time>
      </trkpt>
      <trkpt lat="43.707736" lon="-7.970614">
        <ele>443.925</ele>
        <time>2016-09-26T08:57:45Z</time>
      </trkpt>
      <trkpt lat="43.707718" lon="-7.970628">
        <ele>444.027</ele>
        <time>2016-09-26T08:57:46Z</time>
      </trkpt>
      <trkpt lat="43.707698" lon="-7.970639">
        <ele>444.040</ele>
        <time>2016-09-26T08:57:47Z</time>
      </trkpt>
      <trkpt lat="43.707677" lon="-7.970648">
        <ele>444.278</ele>
        <time>2016-09-26T08:57:48Z</time>
      </trkpt>
      <trkpt lat="43.707657" lon="-7.970660">
        <ele>444.337</ele>
        <time>2016-09-26T08:57:49Z</time>
      </trkpt>
      <trkpt lat="43.707638" lon="-7.970671">
        <ele>444.549</ele>
        <time>2016-09-26T08:57:50Z</time>
      </trkpt>
      <trkpt lat="43.707618" lon="-7.970682">
        <ele>444.713</ele>
        <time>2016-09-26T08:57:51Z</time>
      </trkpt>
      <trkpt lat="43.707597" lon="-7.970694">
        <ele>444.908</ele>
        <time>2016-09-26T08:57:52Z</time>
      </trkpt>
      <trkpt lat="43.707577" lon="-7.970704">
        <ele>445.194</ele>
        <time>2016-09-26T08:57:53Z</time>
      </trkpt>
      <trkpt lat="43.707560" lon="-7.970713">
        <ele>445.339</ele>
        <time>2016-09-26T08:57:54Z</time>
      </trkpt>
      <trkpt lat="43.707547" lon="-7.970721">
        <ele>445.477</ele>
        <time>2016-09-26T08:57:55Z</time>
      </trkpt>
      <trkpt lat="43.707531" lon="-7.970725">
        <ele>445.793</ele>
        <time>2016-09-26T08:57:56Z</time>
      </trkpt>
      <trkpt lat="43.707515" lon="-7.970729">
        <ele>445.947</ele>
        <time>2016-09-26T08:57:57Z</time>
      </trkpt>
      <trkpt lat="43.707498" lon="-7.970734">
        <ele>446.159</ele>
        <time>2016-09-26T08:57:58Z</time>
      </trkpt>
      <trkpt lat="43.707480" lon="-7.970738">
        <ele>446.062</ele>
        <time>2016-09-26T08:57:59Z</time>
      </trkpt>
      <trkpt lat="43.707462" lon="-7.970741">
        <ele>446.260</ele>
        <time>2016-09-26T08:58:00Z</time>
      </trkpt>
      <trkpt lat="43.707445" lon="-7.970740">
        <ele>446.422</ele>
        <time>2016-09-26T08:58:01Z</time>
      </trkpt>
      <trkpt lat="43.707429" lon="-7.970738">
        <ele>446.562</ele>
        <time>2016-09-26T08:58:02Z</time>
      </trkpt>
      <trkpt lat="43.707412" lon="-7.970737">
        <ele>446.508</ele>
        <time>2016-09-26T08:58:03Z</time>
      </trkpt>
      <trkpt lat="43.707394" lon="-7.970734">
        <ele>446.808</ele>
        <time>2016-09-26T08:58:04Z</time>
      </trkpt>
      <trkpt lat="43.707376" lon="-7.970730">
        <ele>447.023</ele>
        <time>2016-09-26T08:58:05Z</time>
      </trkpt>
      <trkpt lat="43.707360" lon="-7.970724">
        <ele>447.178</ele>
        <time>2016-09-26T08:58:06Z</time>
      </trkpt>
      <trkpt lat="43.707344" lon="-7.970716">
        <ele>447.386</ele>
        <time>2016-09-26T08:58:07Z</time>
      </trkpt>
      <trkpt lat="43.707334" lon="-7.970706">
        <ele>447.412</ele>
        <time>2016-09-26T08:58:08Z</time>
      </trkpt>
      <trkpt lat="43.707324" lon="-7.970694">
        <ele>447.666</ele>
        <time>2016-09-26T08:58:09Z</time>
      </trkpt>
      <trkpt lat="43.707315" lon="-7.970681">
        <ele>447.988</ele>
        <time>2016-09-26T08:58:10Z</time>
      </trkpt>
      <trkpt lat="43.707305" lon="-7.970667">
        <ele>448.091</ele>
        <time>2016-09-26T08:58:11Z</time>
      </trkpt>
      <trkpt lat="43.707294" lon="-7.970655">
        <ele>448.299</ele>
        <time>2016-09-26T08:58:12Z</time>
      </trkpt>
      <trkpt lat="43.707283" lon="-7.970642">
        <ele>448.465</ele>
        <time>2016-09-26T08:58:13Z</time>
      </trkpt>
      <trkpt lat="43.707273" lon="-7.970624">
        <ele>448.668</ele>
        <time>2016-09-26T08:58:14Z</time>
      </trkpt>
      <trkpt lat="43.707265" lon="-7.970604">
        <ele>448.714</ele>
        <time>2016-09-26T08:58:15Z</time>
      </trkpt>
      <trkpt lat="43.707257" lon="-7.970584">
        <ele>448.608</ele>
        <time>2016-09-26T08:58:16Z</time>
      </trkpt>
      <trkpt lat="43.707249" lon="-7.970566">
        <ele>448.787</ele>
        <time>2016-09-26T08:58:17Z</time>
      </trkpt>
      <trkpt lat="43.707239" lon="-7.970548">
        <ele>448.722</ele>
        <time>2016-09-26T08:58:18Z</time>
      </trkpt>
      <trkpt lat="43.707227" lon="-7.970529">
        <ele>448.990</ele>
        <time>2016-09-26T08:58:19Z</time>
      </trkpt>
      <trkpt lat="43.707213" lon="-7.970509">
        <ele>449.036</ele>
        <time>2016-09-26T08:58:20Z</time>
      </trkpt>
      <trkpt lat="43.707201" lon="-7.970486">
        <ele>448.970</ele>
        <time>2016-09-26T08:58:21Z</time>
      </trkpt>
      <trkpt lat="43.707184" lon="-7.970457">
        <ele>449.012</ele>
        <time>2016-09-26T08:58:22Z</time>
      </trkpt>
      <trkpt lat="43.707159" lon="-7.970420">
        <ele>448.815</ele>
        <time>2016-09-26T08:58:23Z</time>
      </trkpt>
      <trkpt lat="43.707131" lon="-7.970376">
        <ele>448.733</ele>
        <time>2016-09-26T08:58:24Z</time>
      </trkpt>
      <trkpt lat="43.707097" lon="-7.970323">
        <ele>448.549</ele>
        <time>2016-09-26T08:58:25Z</time>
      </trkpt>
      <trkpt lat="43.707058" lon="-7.970266">
        <ele>448.202</ele>
        <time>2016-09-26T08:58:26Z</time>
      </trkpt>
      <trkpt lat="43.707016" lon="-7.970202">
        <ele>448.022</ele>
        <time>2016-09-26T08:58:27Z</time>
      </trkpt>
      <trkpt lat="43.706974" lon="-7.970138">
        <ele>447.908</ele>
        <time>2016-09-26T08:58:28Z</time>
      </trkpt>
      <trkpt lat="43.706927" lon="-7.970080">
        <ele>447.435</ele>
        <time>2016-09-26T08:58:29Z</time>
      </trkpt>
      <trkpt lat="43.706877" lon="-7.970030">
        <ele>447.390</ele>
        <time>2016-09-26T08:58:30Z</time>
      </trkpt>
      <trkpt lat="43.706821" lon="-7.969978">
        <ele>447.048</ele>
        <time>2016-09-26T08:58:31Z</time>
      </trkpt>
      <trkpt lat="43.706771" lon="-7.969924">
        <ele>446.654</ele>
        <time>2016-09-26T08:58:32Z</time>
      </trkpt>
      <trkpt lat="43.706722" lon="-7.969876">
        <ele>446.438</ele>
        <time>2016-09-26T08:58:33Z</time>
      </trkpt>
      <trkpt lat="43.706675" lon="-7.969832">
        <ele>446.140</ele>
        <time>2016-09-26T08:58:34Z</time>
      </trkpt>
      <trkpt lat="43.706631" lon="-7.969791">
        <ele>445.853</ele>
        <time>2016-09-26T08:58:35Z</time>
      </trkpt>
      <trkpt lat="43.706595" lon="-7.969749">
        <ele>446.061</ele>
        <time>2016-09-26T08:58:36Z</time>
      </trkpt>
      <trkpt lat="43.706565" lon="-7.969707">
        <ele>446.077</ele>
        <time>2016-09-26T08:58:37Z</time>
      </trkpt>
      <trkpt lat="43.706537" lon="-7.969670">
        <ele>445.961</ele>
        <time>2016-09-26T08:58:38Z</time>
      </trkpt>
      <trkpt lat="43.706509" lon="-7.969634">
        <ele>445.827</ele>
        <time>2016-09-26T08:58:39Z</time>
      </trkpt>
      <trkpt lat="43.706477" lon="-7.969599">
        <ele>445.808</ele>
        <time>2016-09-26T08:58:40Z</time>
      </trkpt>
      <trkpt lat="43.706449" lon="-7.969566">
        <ele>445.878</ele>
        <time>2016-09-26T08:58:41Z</time>
      </trkpt>
      <trkpt lat="43.706423" lon="-7.969534">
        <ele>445.893</ele>
        <time>2016-09-26T08:58:42Z</time>
      </trkpt>
      <trkpt lat="43.706398" lon="-7.969500">
        <ele>445.721</ele>
        <time>2016-09-26T08:58:43Z</time>
      </trkpt>
      <trkpt lat="43.706372" lon="-7.969469">
        <ele>445.957</ele>
        <time>2016-09-26T08:58:44Z</time>
      </trkpt>
      <trkpt lat="43.706344" lon="-7.969441">
        <ele>445.871</ele>
        <time>2016-09-26T08:58:45Z</time>
      </trkpt>
      <trkpt lat="43.706313" lon="-7.969411">
        <ele>445.913</ele>
        <time>2016-09-26T08:58:46Z</time>
      </trkpt>
      <trkpt lat="43.706283" lon="-7.969381">
        <ele>445.866</ele>
        <time>2016-09-26T08:58:47Z</time>
      </trkpt>
      <trkpt lat="43.706251" lon="-7.969351">
        <ele>445.974</ele>
        <time>2016-09-26T08:58:48Z</time>
      </trkpt>
      <trkpt lat="43.706221" lon="-7.969317">
        <ele>445.691</ele>
        <time>2016-09-26T08:58:49Z</time>
      </trkpt>
      <trkpt lat="43.706189" lon="-7.969284">
        <ele>445.481</ele>
        <time>2016-09-26T08:58:50Z</time>
      </trkpt>
      <trkpt lat="43.706159" lon="-7.969251">
        <ele>445.419</ele>
        <time>2016-09-26T08:58:51Z</time>
      </trkpt>
      <trkpt lat="43.706127" lon="-7.969219">
        <ele>445.308</ele>
        <time>2016-09-26T08:58:52Z</time>
      </trkpt>
      <trkpt lat="43.706094" lon="-7.969189">
        <ele>445.140</ele>
        <time>2016-09-26T08:58:53Z</time>
      </trkpt>
      <trkpt lat="43.706059" lon="-7.969164">
        <ele>444.965</ele>
        <time>2016-09-26T08:58:54Z</time>
      </trkpt>
      <trkpt lat="43.706022" lon="-7.969139">
        <ele>444.913</ele>
        <time>2016-09-26T08:58:55Z</time>
      </trkpt>
      <trkpt lat="43.705983" lon="-7.969118">
        <ele>444.849</ele>
        <time>2016-09-26T08:58:56Z</time>
      </trkpt>
      <trkpt lat="43.705944" lon="-7.969104">
        <ele>444.983</ele>
        <time>2016-09-26T08:58:57Z</time>
      </trkpt>
      <trkpt lat="43.705906" lon="-7.969097">
        <ele>444.915</ele>
        <time>2016-09-26T08:58:58Z</time>
      </trkpt>
      <trkpt lat="43.705867" lon="-7.969094">
        <ele>444.628</ele>
        <time>2016-09-26T08:58:59Z</time>
      </trkpt>
      <trkpt lat="43.705825" lon="-7.969096">
        <ele>444.336</ele>
        <time>2016-09-26T08:59:00Z</time>
      </trkpt>
      <trkpt lat="43.705786" lon="-7.969100">
        <ele>444.144</ele>
        <time>2016-09-26T08:59:01Z</time>
      </trkpt>
      <trkpt lat="43.705750" lon="-7.969103">
        <ele>443.905</ele>
        <time>2016-09-26T08:59:02Z</time>
      </trkpt>
      <trkpt lat="43.705715" lon="-7.969109">
        <ele>443.715</ele>
        <time>2016-09-26T08:59:03Z</time>
      </trkpt>
      <trkpt lat="43.705680" lon="-7.969115">
        <ele>443.608</ele>
        <time>2016-09-26T08:59:04Z</time>
      </trkpt>
      <trkpt lat="43.705645" lon="-7.969121">
        <ele>443.665</ele>
        <time>2016-09-26T08:59:05Z</time>
      </trkpt>
      <trkpt lat="43.705610" lon="-7.969126">
        <ele>443.570</ele>
        <time>2016-09-26T08:59:06Z</time>
      </trkpt>
      <trkpt lat="43.705575" lon="-7.969124">
        <ele>443.488</ele>
        <time>2016-09-26T08:59:07Z</time>
      </trkpt>
      <trkpt lat="43.705540" lon="-7.969124">
        <ele>443.654</ele>
        <time>2016-09-26T08:59:08Z</time>
      </trkpt>
      <trkpt lat="43.705504" lon="-7.969131">
        <ele>443.338</ele>
        <time>2016-09-26T08:59:09Z</time>
      </trkpt>
      <trkpt lat="43.705467" lon="-7.969141">
        <ele>443.060</ele>
        <time>2016-09-26T08:59:10Z</time>
      </trkpt>
      <trkpt lat="43.705428" lon="-7.969153">
        <ele>442.953</ele>
        <time>2016-09-26T08:59:11Z</time>
      </trkpt>
      <trkpt lat="43.705387" lon="-7.969166">
        <ele>443.081</ele>
        <time>2016-09-26T08:59:12Z</time>
      </trkpt>
      <trkpt lat="43.705343" lon="-7.969185">
        <ele>442.874</ele>
        <time>2016-09-26T08:59:13Z</time>
      </trkpt>
      <trkpt lat="43.705299" lon="-7.969208">
        <ele>442.756</ele>
        <time>2016-09-26T08:59:14Z</time>
      </trkpt>
      <trkpt lat="43.705253" lon="-7.969234">
        <ele>442.421</ele>
        <time>2016-09-26T08:59:15Z</time>
      </trkpt>
      <trkpt lat="43.705206" lon="-7.969265">
        <ele>442.008</ele>
        <time>2016-09-26T08:59:16Z</time>
      </trkpt>
      <trkpt lat="43.705160" lon="-7.969301">
        <ele>441.598</ele>
        <time>2016-09-26T08:59:17Z</time>
      </trkpt>
      <trkpt lat="43.705111" lon="-7.969341">
        <ele>441.443</ele>
        <time>2016-09-26T08:59:18Z</time>
      </trkpt>
      <trkpt lat="43.705061" lon="-7.969383">
        <ele>441.091</ele>
        <time>2016-09-26T08:59:19Z</time>
      </trkpt>
      <trkpt lat="43.705011" lon="-7.969428">
        <ele>440.717</ele>
        <time>2016-09-26T08:59:20Z</time>
      </trkpt>
      <trkpt lat="43.704966" lon="-7.969476">
        <ele>440.171</ele>
        <time>2016-09-26T08:59:21Z</time>
      </trkpt>
      <trkpt lat="43.704924" lon="-7.969523">
        <ele>439.663</ele>
        <time>2016-09-26T08:59:22Z</time>
      </trkpt>
      <trkpt lat="43.704881" lon="-7.969573">
        <ele>439.236</ele>
        <time>2016-09-26T08:59:23Z</time>
      </trkpt>
      <trkpt lat="43.704838" lon="-7.969629">
        <ele>438.734</ele>
        <time>2016-09-26T08:59:24Z</time>
      </trkpt>
      <trkpt lat="43.704793" lon="-7.969689">
        <ele>438.073</ele>
        <time>2016-09-26T08:59:25Z</time>
      </trkpt>
      <trkpt lat="43.704752" lon="-7.969747">
        <ele>437.185</ele>
        <time>2016-09-26T08:59:26Z</time>
      </trkpt>
      <trkpt lat="43.704714" lon="-7.969803">
        <ele>436.413</ele>
        <time>2016-09-26T08:59:27Z</time>
      </trkpt>
      <trkpt lat="43.704681" lon="-7.969847">
        <ele>435.508</ele>
        <time>2016-09-26T08:59:28Z</time>
      </trkpt>
      <trkpt lat="43.704654" lon="-7.969889">
        <ele>434.838</ele>
        <time>2016-09-26T08:59:29Z</time>
      </trkpt>
      <trkpt lat="43.704617" lon="-7.969923">
        <ele>434.123</ele>
        <time>2016-09-26T08:59:30Z</time>
      </trkpt>
      <trkpt lat="43.704579" lon="-7.969959">
        <ele>433.361</ele>
        <time>2016-09-26T08:59:31Z</time>
      </trkpt>
      <trkpt lat="43.704546" lon="-7.969995">
        <ele>432.697</ele>
        <time>2016-09-26T08:59:32Z</time>
      </trkpt>
      <trkpt lat="43.704515" lon="-7.970035">
        <ele>431.821</ele>
        <time>2016-09-26T08:59:33Z</time>
      </trkpt>
      <trkpt lat="43.704483" lon="-7.970073">
        <ele>431.213</ele>
        <time>2016-09-26T08:59:34Z</time>
      </trkpt>
      <trkpt lat="43.704455" lon="-7.970110">
        <ele>430.536</ele>
        <time>2016-09-26T08:59:35Z</time>
      </trkpt>
      <trkpt lat="43.704430" lon="-7.970148">
        <ele>430.174</ele>
        <time>2016-09-26T08:59:36Z</time>
      </trkpt>
      <trkpt lat="43.704407" lon="-7.970177">
        <ele>429.451</ele>
        <time>2016-09-26T08:59:37Z</time>
      </trkpt>
      <trkpt lat="43.704382" lon="-7.970202">
        <ele>429.101</ele>
        <time>2016-09-26T08:59:38Z</time>
      </trkpt>
      <trkpt lat="43.704352" lon="-7.970227">
        <ele>428.511</ele>
        <time>2016-09-26T08:59:39Z</time>
      </trkpt>
      <trkpt lat="43.704322" lon="-7.970249">
        <ele>428.008</ele>
        <time>2016-09-26T08:59:40Z</time>
      </trkpt>
      <trkpt lat="43.704289" lon="-7.970272">
        <ele>427.736</ele>
        <time>2016-09-26T08:59:41Z</time>
      </trkpt>
      <trkpt lat="43.704249" lon="-7.970296">
        <ele>427.371</ele>
        <time>2016-09-26T08:59:42Z</time>
      </trkpt>
      <trkpt lat="43.704205" lon="-7.970323">
        <ele>426.849</ele>
        <time>2016-09-26T08:59:43Z</time>
      </trkpt>
      <trkpt lat="43.704167" lon="-7.970347">
        <ele>426.675</ele>
        <time>2016-09-26T08:59:44Z</time>
      </trkpt>
      <trkpt lat="43.704127" lon="-7.970371">
        <ele>426.439</ele>
        <time>2016-09-26T08:59:45Z</time>
      </trkpt>
      <trkpt lat="43.704079" lon="-7.970396">
        <ele>425.961</ele>
        <time>2016-09-26T08:59:46Z</time>
      </trkpt>
      <trkpt lat="43.704036" lon="-7.970419">
        <ele>425.894</ele>
        <time>2016-09-26T08:59:47Z</time>
      </trkpt>
      <trkpt lat="43.703993" lon="-7.970439">
        <ele>425.422</ele>
        <time>2016-09-26T08:59:48Z</time>
      </trkpt>
      <trkpt lat="43.703949" lon="-7.970461">
        <ele>425.071</ele>
        <time>2016-09-26T08:59:49Z</time>
      </trkpt>
      <trkpt lat="43.703905" lon="-7.970489">
        <ele>424.541</ele>
        <time>2016-09-26T08:59:50Z</time>
      </trkpt>
      <trkpt lat="43.703858" lon="-7.970517">
        <ele>424.015</ele>
        <time>2016-09-26T08:59:51Z</time>
      </trkpt>
      <trkpt lat="43.703810" lon="-7.970546">
        <ele>423.708</ele>
        <time>2016-09-26T08:59:52Z</time>
      </trkpt>
      <trkpt lat="43.703761" lon="-7.970569">
        <ele>423.528</ele>
        <time>2016-09-26T08:59:53Z</time>
      </trkpt>
      <trkpt lat="43.703716" lon="-7.970594">
        <ele>423.353</ele>
        <time>2016-09-26T08:59:54Z</time>
      </trkpt>
      <trkpt lat="43.703676" lon="-7.970619">
        <ele>423.361</ele>
        <time>2016-09-26T08:59:55Z</time>
      </trkpt>
      <trkpt lat="43.703642" lon="-7.970637">
        <ele>423.217</ele>
        <time>2016-09-26T08:59:56Z</time>
      </trkpt>
      <trkpt lat="43.703608" lon="-7.970655">
        <ele>423.081</ele>
        <time>2016-09-26T08:59:57Z</time>
      </trkpt>
      <trkpt lat="43.703574" lon="-7.970670">
        <ele>423.023</ele>
        <time>2016-09-26T08:59:58Z</time>
      </trkpt>
      <trkpt lat="43.703542" lon="-7.970690">
        <ele>422.786</ele>
        <time>2016-09-26T08:59:59Z</time>
      </trkpt>
      <trkpt lat="43.703513" lon="-7.970714">
        <ele>422.584</ele>
        <time>2016-09-26T09:00:00Z</time>
      </trkpt>
      <trkpt lat="43.703482" lon="-7.970746">
        <ele>422.372</ele>
        <time>2016-09-26T09:00:01Z</time>
      </trkpt>
      <trkpt lat="43.703460" lon="-7.970806">
        <ele>421.913</ele>
        <time>2016-09-26T09:00:02Z</time>
      </trkpt>
      <trkpt lat="43.703433" lon="-7.970866">
        <ele>421.614</ele>
        <time>2016-09-26T09:00:03Z</time>
      </trkpt>
      <trkpt lat="43.703407" lon="-7.970919">
        <ele>421.208</ele>
        <time>2016-09-26T09:00:04Z</time>
      </trkpt>
      <trkpt lat="43.703385" lon="-7.970973">
        <ele>420.948</ele>
        <time>2016-09-26T09:00:05Z</time>
      </trkpt>
      <trkpt lat="43.703357" lon="-7.971032">
        <ele>420.633</ele>
        <time>2016-09-26T09:00:06Z</time>
      </trkpt>
      <trkpt lat="43.703327" lon="-7.971091">
        <ele>420.221</ele>
        <time>2016-09-26T09:00:07Z</time>
      </trkpt>
      <trkpt lat="43.703298" lon="-7.971138">
        <ele>419.777</ele>
        <time>2016-09-26T09:00:08Z</time>
      </trkpt>
      <trkpt lat="43.703272" lon="-7.971173">
        <ele>419.441</ele>
        <time>2016-09-26T09:00:09Z</time>
      </trkpt>
      <trkpt lat="43.703245" lon="-7.971209">
        <ele>419.183</ele>
        <time>2016-09-26T09:00:10Z</time>
      </trkpt>
      <trkpt lat="43.703220" lon="-7.971255">
        <ele>418.716</ele>
        <time>2016-09-26T09:00:11Z</time>
      </trkpt>
      <trkpt lat="43.703189" lon="-7.971304">
        <ele>418.314</ele>
        <time>2016-09-26T09:00:12Z</time>
      </trkpt>
      <trkpt lat="43.703160" lon="-7.971367">
        <ele>417.746</ele>
        <time>2016-09-26T09:00:13Z</time>
      </trkpt>
      <trkpt lat="43.703125" lon="-7.971431">
        <ele>417.488</ele>
        <time>2016-09-26T09:00:14Z</time>
      </trkpt>
      <trkpt lat="43.703089" lon="-7.971499">
        <ele>416.816</ele>
        <time>2016-09-26T09:00:15Z</time>
      </trkpt>
      <trkpt lat="43.703057" lon="-7.971569">
        <ele>416.408</ele>
        <time>2016-09-26T09:00:16Z</time>
      </trkpt>
      <trkpt lat="43.703021" lon="-7.971630">
        <ele>416.275</ele>
        <time>2016-09-26T09:00:17Z</time>
      </trkpt>
      <trkpt lat="43.702985" lon="-7.971680">
        <ele>415.920</ele>
        <time>2016-09-26T09:00:18Z</time>
      </trkpt>
      <trkpt lat="43.702950" lon="-7.971722">
        <ele>415.638</ele>
        <time>2016-09-26T09:00:19Z</time>
      </trkpt>
      <trkpt lat="43.702918" lon="-7.971760">
        <ele>415.424</ele>
        <time>2016-09-26T09:00:20Z</time>
      </trkpt>
      <trkpt lat="43.702888" lon="-7.971794">
        <ele>415.398</ele>
        <time>2016-09-26T09:00:21Z</time>
      </trkpt>
      <trkpt lat="43.702859" lon="-7.971828">
        <ele>415.210</ele>
        <time>2016-09-26T09:00:22Z</time>
      </trkpt>
      <trkpt lat="43.702830" lon="-7.971858">
        <ele>415.593</ele>
        <time>2016-09-26T09:00:23Z</time>
      </trkpt>
      <trkpt lat="43.702800" lon="-7.971884">
        <ele>415.661</ele>
        <time>2016-09-26T09:00:24Z</time>
      </trkpt>
      <trkpt lat="43.702773" lon="-7.971908">
        <ele>415.939</ele>
        <time>2016-09-26T09:00:25Z</time>
      </trkpt>
      <trkpt lat="43.702746" lon="-7.971932">
        <ele>416.001</ele>
        <time>2016-09-26T09:00:26Z</time>
      </trkpt>
      <trkpt lat="43.702715" lon="-7.971952">
        <ele>416.121</ele>
        <time>2016-09-26T09:00:27Z</time>
      </trkpt>
      <trkpt lat="43.702687" lon="-7.971972">
        <ele>416.208</ele>
        <time>2016-09-26T09:00:28Z</time>
      </trkpt>
      <trkpt lat="43.702651" lon="-7.971989">
        <ele>416.244</ele>
        <time>2016-09-26T09:00:29Z</time>
      </trkpt>
      <trkpt lat="43.702619" lon="-7.972000">
        <ele>416.599</ele>
        <time>2016-09-26T09:00:30Z</time>
      </trkpt>
      <trkpt lat="43.702590" lon="-7.972010">
        <ele>416.747</ele>
        <time>2016-09-26T09:00:31Z</time>
      </trkpt>
      <trkpt lat="43.702563" lon="-7.972019">
        <ele>417.133</ele>
        <time>2016-09-26T09:00:32Z</time>
      </trkpt>
      <trkpt lat="43.702542" lon="-7.972030">
        <ele>417.597</ele>
        <time>2016-09-26T09:00:33Z</time>
      </trkpt>
      <trkpt lat="43.702519" lon="-7.972039">
        <ele>417.839</ele>
        <time>2016-09-26T09:00:34Z</time>
      </trkpt>
      <trkpt lat="43.702499" lon="-7.972048">
        <ele>418.392</ele>
        <time>2016-09-26T09:00:35Z</time>
      </trkpt>
      <trkpt lat="43.702485" lon="-7.972053">
        <ele>418.530</ele>
        <time>2016-09-26T09:00:36Z</time>
      </trkpt>
      <trkpt lat="43.702481" lon="-7.972057">
        <ele>418.843</ele>
        <time>2016-09-26T09:00:37Z</time>
      </trkpt>
      <trkpt lat="43.702484" lon="-7.972060">
        <ele>418.864</ele>
        <time>2016-09-26T09:00:38Z</time>
      </trkpt>
      <trkpt lat="43.702489" lon="-7.972067">
        <ele>418.810</ele>
        <time>2016-09-26T09:00:39Z</time>
      </trkpt>
      <trkpt lat="43.702488" lon="-7.972066">
        <ele>418.908</ele>
        <time>2016-09-26T09:00:40Z</time>
      </trkpt>
      <trkpt lat="43.702488" lon="-7.972068">
        <ele>419.045</ele>
        <time>2016-09-26T09:00:41Z</time>
      </trkpt>
      <trkpt lat="43.702488" lon="-7.972069">
        <ele>419.110</ele>
        <time>2016-09-26T09:00:42Z</time>
      </trkpt>
      <trkpt lat="43.702488" lon="-7.972069">
        <ele>419.148</ele>
        <time>2016-09-26T09:00:42Z</time>
      </trkpt>
      <trkpt lat="43.702488" lon="-7.972069">
        <ele>419.124</ele>
        <time>2016-09-26T09:00:42Z</time>
      </trkpt>
      <trkpt lat="43.702423" lon="-7.972061">
        <ele>419.838</ele>
        <time>2016-09-26T09:01:13Z</time>
      </trkpt>
      <trkpt lat="43.702412" lon="-7.972063">
        <ele>420.070</ele>
        <time>2016-09-26T09:01:14Z</time>
      </trkpt>
      <trkpt lat="43.702402" lon="-7.972064">
        <ele>420.283</ele>
        <time>2016-09-26T09:01:15Z</time>
      </trkpt>
      <trkpt lat="43.702393" lon="-7.972066">
        <ele>420.381</ele>
        <time>2016-09-26T09:01:16Z</time>
      </trkpt>
      <trkpt lat="43.702385" lon="-7.972069">
        <ele>420.576</ele>
        <time>2016-09-26T09:01:17Z</time>
      </trkpt>
      <trkpt lat="43.702377" lon="-7.972072">
        <ele>420.690</ele>
        <time>2016-09-26T09:01:18Z</time>
      </trkpt>
      <trkpt lat="43.702370" lon="-7.972079">
        <ele>420.819</ele>
        <time>2016-09-26T09:01:19Z</time>
      </trkpt>
      <trkpt lat="43.702369" lon="-7.972086">
        <ele>421.008</ele>
        <time>2016-09-26T09:01:20Z</time>
      </trkpt>
      <trkpt lat="43.702367" lon="-7.972089">
        <ele>421.018</ele>
        <time>2016-09-26T09:01:21Z</time>
      </trkpt>
      <trkpt lat="43.702363" lon="-7.972094">
        <ele>421.143</ele>
        <time>2016-09-26T09:01:22Z</time>
      </trkpt>
      <trkpt lat="43.702361" lon="-7.972099">
        <ele>421.171</ele>
        <time>2016-09-26T09:01:23Z</time>
      </trkpt>
      <trkpt lat="43.702359" lon="-7.972098">
        <ele>421.247</ele>
        <time>2016-09-26T09:01:24Z</time>
      </trkpt>
      <trkpt lat="43.702359" lon="-7.972098">
        <ele>421.271</ele>
        <time>2016-09-26T09:01:24Z</time>
      </trkpt>
      <trkpt lat="43.702359" lon="-7.972098">
        <ele>421.283</ele>
        <time>2016-09-26T09:01:24Z</time>
      </trkpt>
      <trkpt lat="43.702283" lon="-7.972113">
        <ele>423.456</ele>
        <time>2016-09-26T09:01:42Z</time>
      </trkpt>
      <trkpt lat="43.702278" lon="-7.972117">
        <ele>423.694</ele>
        <time>2016-09-26T09:01:43Z</time>
      </trkpt>
      <trkpt lat="43.702274" lon="-7.972119">
        <ele>423.782</ele>
        <time>2016-09-26T09:01:44Z</time>
      </trkpt>
      <trkpt lat="43.702268" lon="-7.972121">
        <ele>423.843</ele>
        <time>2016-09-26T09:01:45Z</time>
      </trkpt>
      <trkpt lat="43.702263" lon="-7.972123">
        <ele>424.017</ele>
        <time>2016-09-26T09:01:46Z</time>
      </trkpt>
      <trkpt lat="43.702259" lon="-7.972126">
        <ele>424.108</ele>
        <time>2016-09-26T09:01:47Z</time>
      </trkpt>
      <trkpt lat="43.702252" lon="-7.972129">
        <ele>424.129</ele>
        <time>2016-09-26T09:01:48Z</time>
      </trkpt>
      <trkpt lat="43.702246" lon="-7.972133">
        <ele>424.394</ele>
        <time>2016-09-26T09:01:49Z</time>
      </trkpt>
      <trkpt lat="43.702241" lon="-7.972136">
        <ele>424.572</ele>
        <time>2016-09-26T09:01:50Z</time>
      </trkpt>
      <trkpt lat="43.702233" lon="-7.972141">
        <ele>424.818</ele>
        <time>2016-09-26T09:01:51Z</time>
      </trkpt>
      <trkpt lat="43.702228" lon="-7.972145">
        <ele>425.072</ele>
        <time>2016-09-26T09:01:52Z</time>
      </trkpt>
      <trkpt lat="43.702220" lon="-7.972149">
        <ele>425.164</ele>
        <time>2016-09-26T09:01:53Z</time>
      </trkpt>
      <trkpt lat="43.702213" lon="-7.972156">
        <ele>425.117</ele>
        <time>2016-09-26T09:01:54Z</time>
      </trkpt>
      <trkpt lat="43.702206" lon="-7.972161">
        <ele>425.155</ele>
        <time>2016-09-26T09:01:55Z</time>
      </trkpt>
      <trkpt lat="43.702199" lon="-7.972165">
        <ele>425.396</ele>
        <time>2016-09-26T09:01:56Z</time>
      </trkpt>
      <trkpt lat="43.702193" lon="-7.972168">
        <ele>425.631</ele>
        <time>2016-09-26T09:01:57Z</time>
      </trkpt>
      <trkpt lat="43.702188" lon="-7.972173">
        <ele>425.924</ele>
        <time>2016-09-26T09:01:58Z</time>
      </trkpt>
      <trkpt lat="43.702184" lon="-7.972177">
        <ele>426.208</ele>
        <time>2016-09-26T09:01:59Z</time>
      </trkpt>
      <trkpt lat="43.702176" lon="-7.972180">
        <ele>426.430</ele>
        <time>2016-09-26T09:02:00Z</time>
      </trkpt>
      <trkpt lat="43.702169" lon="-7.972184">
        <ele>426.635</ele>
        <time>2016-09-26T09:02:01Z</time>
      </trkpt>
      <trkpt lat="43.702161" lon="-7.972188">
        <ele>426.893</ele>
        <time>2016-09-26T09:02:02Z</time>
      </trkpt>
      <trkpt lat="43.702153" lon="-7.972192">
        <ele>426.869</ele>
        <time>2016-09-26T09:02:03Z</time>
      </trkpt>
      <trkpt lat="43.702143" lon="-7.972199">
        <ele>427.023</ele>
        <time>2016-09-26T09:02:04Z</time>
      </trkpt>
      <trkpt lat="43.702133" lon="-7.972204">
        <ele>427.165</ele>
        <time>2016-09-26T09:02:05Z</time>
      </trkpt>
      <trkpt lat="43.702121" lon="-7.972211">
        <ele>427.228</ele>
        <time>2016-09-26T09:02:06Z</time>
      </trkpt>
      <trkpt lat="43.702109" lon="-7.972217">
        <ele>427.456</ele>
        <time>2016-09-26T09:02:07Z</time>
      </trkpt>
      <trkpt lat="43.702101" lon="-7.972224">
        <ele>427.666</ele>
        <time>2016-09-26T09:02:08Z</time>
      </trkpt>
      <trkpt lat="43.702083" lon="-7.972226">
        <ele>427.829</ele>
        <time>2016-09-26T09:02:09Z</time>
      </trkpt>
      <trkpt lat="43.702073" lon="-7.972235">
        <ele>428.121</ele>
        <time>2016-09-26T09:02:10Z</time>
      </trkpt>
      <trkpt lat="43.702063" lon="-7.972242">
        <ele>428.108</ele>
        <time>2016-09-26T09:02:11Z</time>
      </trkpt>
      <trkpt lat="43.702053" lon="-7.972247">
        <ele>428.467</ele>
        <time>2016-09-26T09:02:12Z</time>
      </trkpt>
      <trkpt lat="43.702046" lon="-7.972254">
        <ele>428.782</ele>
        <time>2016-09-26T09:02:13Z</time>
      </trkpt>
      <trkpt lat="43.702038" lon="-7.972259">
        <ele>428.890</ele>
        <time>2016-09-26T09:02:14Z</time>
      </trkpt>
      <trkpt lat="43.702025" lon="-7.972266">
        <ele>429.036</ele>
        <time>2016-09-26T09:02:15Z</time>
      </trkpt>
      <trkpt lat="43.702015" lon="-7.972272">
        <ele>429.140</ele>
        <time>2016-09-26T09:02:16Z</time>
      </trkpt>
      <trkpt lat="43.702004" lon="-7.972279">
        <ele>429.112</ele>
        <time>2016-09-26T09:02:17Z</time>
      </trkpt>
      <trkpt lat="43.701995" lon="-7.972285">
        <ele>429.475</ele>
        <time>2016-09-26T09:02:18Z</time>
      </trkpt>
      <trkpt lat="43.701986" lon="-7.972290">
        <ele>429.673</ele>
        <time>2016-09-26T09:02:19Z</time>
      </trkpt>
      <trkpt lat="43.701975" lon="-7.972298">
        <ele>429.835</ele>
        <time>2016-09-26T09:02:20Z</time>
      </trkpt>
      <trkpt lat="43.701966" lon="-7.972304">
        <ele>430.186</ele>
        <time>2016-09-26T09:02:21Z</time>
      </trkpt>
      <trkpt lat="43.701958" lon="-7.972311">
        <ele>430.114</ele>
        <time>2016-09-26T09:02:22Z</time>
      </trkpt>
      <trkpt lat="43.701949" lon="-7.972317">
        <ele>430.308</ele>
        <time>2016-09-26T09:02:23Z</time>
      </trkpt>
      <trkpt lat="43.701941" lon="-7.972324">
        <ele>430.524</ele>
        <time>2016-09-26T09:02:24Z</time>
      </trkpt>
      <trkpt lat="43.701933" lon="-7.972332">
        <ele>430.889</ele>
        <time>2016-09-26T09:02:25Z</time>
      </trkpt>
      <trkpt lat="43.701925" lon="-7.972340">
        <ele>430.957</ele>
        <time>2016-09-26T09:02:26Z</time>
      </trkpt>
      <trkpt lat="43.701916" lon="-7.972348">
        <ele>431.173</ele>
        <time>2016-09-26T09:02:27Z</time>
      </trkpt>
      <trkpt lat="43.701906" lon="-7.972353">
        <ele>431.257</ele>
        <time>2016-09-26T09:02:28Z</time>
      </trkpt>
      <trkpt lat="43.701897" lon="-7.972358">
        <ele>431.559</ele>
        <time>2016-09-26T09:02:29Z</time>
      </trkpt>
      <trkpt lat="43.701889" lon="-7.972362">
        <ele>431.682</ele>
        <time>2016-09-26T09:02:30Z</time>
      </trkpt>
      <trkpt lat="43.701879" lon="-7.972368">
        <ele>431.890</ele>
        <time>2016-09-26T09:02:31Z</time>
      </trkpt>
      <trkpt lat="43.701871" lon="-7.972374">
        <ele>431.951</ele>
        <time>2016-09-26T09:02:32Z</time>
      </trkpt>
      <trkpt lat="43.701862" lon="-7.972380">
        <ele>432.001</ele>
        <time>2016-09-26T09:02:33Z</time>
      </trkpt>
      <trkpt lat="43.701853" lon="-7.972389">
        <ele>432.211</ele>
        <time>2016-09-26T09:02:34Z</time>
      </trkpt>
      <trkpt lat="43.701843" lon="-7.972397">
        <ele>432.408</ele>
        <time>2016-09-26T09:02:35Z</time>
      </trkpt>
      <trkpt lat="43.701835" lon="-7.972405">
        <ele>432.656</ele>
        <time>2016-09-26T09:02:36Z</time>
      </trkpt>
      <trkpt lat="43.701826" lon="-7.972414">
        <ele>432.931</ele>
        <time>2016-09-26T09:02:37Z</time>
      </trkpt>
      <trkpt lat="43.701817" lon="-7.972422">
        <ele>433.179</ele>
        <time>2016-09-26T09:02:38Z</time>
      </trkpt>
      <trkpt lat="43.701808" lon="-7.972430">
        <ele>433.255</ele>
        <time>2016-09-26T09:02:39Z</time>
      </trkpt>
      <trkpt lat="43.701800" lon="-7.972439">
        <ele>433.639</ele>
        <time>2016-09-26T09:02:40Z</time>
      </trkpt>
      <trkpt lat="43.701792" lon="-7.972448">
        <ele>433.881</ele>
        <time>2016-09-26T09:02:41Z</time>
      </trkpt>
      <trkpt lat="43.701783" lon="-7.972457">
        <ele>434.114</ele>
        <time>2016-09-26T09:02:42Z</time>
      </trkpt>
      <trkpt lat="43.701774" lon="-7.972465">
        <ele>434.132</ele>
        <time>2016-09-26T09:02:43Z</time>
      </trkpt>
      <trkpt lat="43.701766" lon="-7.972473">
        <ele>434.384</ele>
        <time>2016-09-26T09:02:44Z</time>
      </trkpt>
      <trkpt lat="43.701758" lon="-7.972481">
        <ele>434.407</ele>
        <time>2016-09-26T09:02:45Z</time>
      </trkpt>
      <trkpt lat="43.701749" lon="-7.972491">
        <ele>434.417</ele>
        <time>2016-09-26T09:02:46Z</time>
      </trkpt>
      <trkpt lat="43.701741" lon="-7.972499">
        <ele>434.408</ele>
        <time>2016-09-26T09:02:47Z</time>
      </trkpt>
      <trkpt lat="43.701734" lon="-7.972506">
        <ele>434.679</ele>
        <time>2016-09-26T09:02:48Z</time>
      </trkpt>
      <trkpt lat="43.701724" lon="-7.972510">
        <ele>434.864</ele>
        <time>2016-09-26T09:02:49Z</time>
      </trkpt>
      <trkpt lat="43.701714" lon="-7.972513">
        <ele>434.982</ele>
        <time>2016-09-26T09:02:50Z</time>
      </trkpt>
      <trkpt lat="43.701704" lon="-7.972516">
        <ele>435.018</ele>
        <time>2016-09-26T09:02:51Z</time>
      </trkpt>
      <trkpt lat="43.701695" lon="-7.972519">
        <ele>435.072</ele>
        <time>2016-09-26T09:02:52Z</time>
      </trkpt>
      <trkpt lat="43.701687" lon="-7.972523">
        <ele>435.114</ele>
        <time>2016-09-26T09:02:53Z</time>
      </trkpt>
      <trkpt lat="43.701676" lon="-7.972525">
        <ele>435.237</ele>
        <time>2016-09-26T09:02:54Z</time>
      </trkpt>
      <trkpt lat="43.701668" lon="-7.972529">
        <ele>435.445</ele>
        <time>2016-09-26T09:02:55Z</time>
      </trkpt>
      <trkpt lat="43.701660" lon="-7.972534">
        <ele>435.491</ele>
        <time>2016-09-26T09:02:56Z</time>
      </trkpt>
      <trkpt lat="43.701654" lon="-7.972540">
        <ele>435.881</ele>
        <time>2016-09-26T09:02:57Z</time>
      </trkpt>
      <trkpt lat="43.701644" lon="-7.972545">
        <ele>436.119</ele>
        <time>2016-09-26T09:02:58Z</time>
      </trkpt>
      <trkpt lat="43.701635" lon="-7.972549">
        <ele>436.308</ele>
        <time>2016-09-26T09:02:59Z</time>
      </trkpt>
      <trkpt lat="43.701624" lon="-7.972553">
        <ele>436.380</ele>
        <time>2016-09-26T09:03:00Z</time>
      </trkpt>
      <trkpt lat="43.701614" lon="-7.972558">
        <ele>436.445</ele>
        <time>2016-09-26T09:03:01Z</time>
      </trkpt>
      <trkpt lat="43.701605" lon="-7.972562">
        <ele>436.553</ele>
        <time>2016-09-26T09:03:02Z</time>
      </trkpt>
      <trkpt lat="43.701595" lon="-7.972566">
        <ele>436.729</ele>
        <time>2016-09-26T09:03:03Z</time>
      </trkpt>
      <trkpt lat="43.701588" lon="-7.972572">
        <ele>436.773</ele>
        <time>2016-09-26T09:03:04Z</time>
      </trkpt>
      <trkpt lat="43.701581" lon="-7.972579">
        <ele>437.065</ele>
        <time>2016-09-26T09:03:05Z</time>
      </trkpt>
      <trkpt lat="43.701573" lon="-7.972583">
        <ele>437.038</ele>
        <time>2016-09-26T09:03:06Z</time>
      </trkpt>
      <trkpt lat="43.701565" lon="-7.972587">
        <ele>437.376</ele>
        <time>2016-09-26T09:03:07Z</time>
      </trkpt>
      <trkpt lat="43.701556" lon="-7.972592">
        <ele>437.319</ele>
        <time>2016-09-26T09:03:08Z</time>
      </trkpt>
      <trkpt lat="43.701546" lon="-7.972599">
        <ele>437.509</ele>
        <time>2016-09-26T09:03:09Z</time>
      </trkpt>
      <trkpt lat="43.701536" lon="-7.972606">
        <ele>437.719</ele>
        <time>2016-09-26T09:03:10Z</time>
      </trkpt>
      <trkpt lat="43.701527" lon="-7.972611">
        <ele>437.908</ele>
        <time>2016-09-26T09:03:11Z</time>
      </trkpt>
      <trkpt lat="43.701515" lon="-7.972617">
        <ele>438.112</ele>
        <time>2016-09-26T09:03:12Z</time>
      </trkpt>
      <trkpt lat="43.701504" lon="-7.972623">
        <ele>438.017</ele>
        <time>2016-09-26T09:03:13Z</time>
      </trkpt>
      <trkpt lat="43.701492" lon="-7.972626">
        <ele>438.085</ele>
        <time>2016-09-26T09:03:14Z</time>
      </trkpt>
      <trkpt lat="43.701480" lon="-7.972626">
        <ele>438.191</ele>
        <time>2016-09-26T09:03:15Z</time>
      </trkpt>
      <trkpt lat="43.701470" lon="-7.972627">
        <ele>438.185</ele>
        <time>2016-09-26T09:03:16Z</time>
      </trkpt>
      <trkpt lat="43.701462" lon="-7.972628">
        <ele>438.257</ele>
        <time>2016-09-26T09:03:17Z</time>
      </trkpt>
      <trkpt lat="43.701458" lon="-7.972630">
        <ele>438.220</ele>
        <time>2016-09-26T09:03:18Z</time>
      </trkpt>
      <trkpt lat="43.701459" lon="-7.972632">
        <ele>438.188</ele>
        <time>2016-09-26T09:03:19Z</time>
      </trkpt>
      <trkpt lat="43.701461" lon="-7.972631">
        <ele>438.376</ele>
        <time>2016-09-26T09:03:20Z</time>
      </trkpt>
      <trkpt lat="43.701463" lon="-7.972630">
        <ele>438.490</ele>
        <time>2016-09-26T09:03:21Z</time>
      </trkpt>
      <trkpt lat="43.701463" lon="-7.972630">
        <ele>438.419</ele>
        <time>2016-09-26T09:03:21Z</time>
      </trkpt>
      <trkpt lat="43.701464" lon="-7.972632">
        <ele>438.208</ele>
        <time>2016-09-26T09:03:22Z</time>
      </trkpt>
      <trkpt lat="43.701464" lon="-7.972632">
        <ele>438.248</ele>
        <time>2016-09-26T09:03:22Z</time>
      </trkpt>
      <trkpt lat="43.701379" lon="-7.972682">
        <ele>438.463</ele>
        <time>2016-09-26T09:03:28Z</time>
      </trkpt>
      <trkpt lat="43.701361" lon="-7.972695">
        <ele>438.291</ele>
        <time>2016-09-26T09:03:29Z</time>
      </trkpt>
      <trkpt lat="43.701339" lon="-7.972710">
        <ele>438.257</ele>
        <time>2016-09-26T09:03:30Z</time>
      </trkpt>
      <trkpt lat="43.701316" lon="-7.972725">
        <ele>438.141</ele>
        <time>2016-09-26T09:03:31Z</time>
      </trkpt>
      <trkpt lat="43.701292" lon="-7.972741">
        <ele>438.053</ele>
        <time>2016-09-26T09:03:32Z</time>
      </trkpt>
      <trkpt lat="43.701265" lon="-7.972761">
        <ele>437.966</ele>
        <time>2016-09-26T09:03:33Z</time>
      </trkpt>
      <trkpt lat="43.701236" lon="-7.972779">
        <ele>437.654</ele>
        <time>2016-09-26T09:03:34Z</time>
      </trkpt>
      <trkpt lat="43.701205" lon="-7.972791">
        <ele>437.449</ele>
        <time>2016-09-26T09:03:35Z</time>
      </trkpt>
      <trkpt lat="43.701170" lon="-7.972807">
        <ele>437.402</ele>
        <time>2016-09-26T09:03:36Z</time>
      </trkpt>
      <trkpt lat="43.701133" lon="-7.972828">
        <ele>437.422</ele>
        <time>2016-09-26T09:03:37Z</time>
      </trkpt>
      <trkpt lat="43.701094" lon="-7.972856">
        <ele>437.308</ele>
        <time>2016-09-26T09:03:38Z</time>
      </trkpt>
      <trkpt lat="43.701061" lon="-7.972872">
        <ele>437.195</ele>
        <time>2016-09-26T09:03:39Z</time>
      </trkpt>
      <trkpt lat="43.701056" lon="-7.972894">
        <ele>437.040</ele>
        <time>2016-09-26T09:03:40Z</time>
      </trkpt>
      <trkpt lat="43.701051" lon="-7.972913">
        <ele>436.888</ele>
        <time>2016-09-26T09:03:41Z</time>
      </trkpt>
      <trkpt lat="43.701032" lon="-7.972922">
        <ele>436.784</ele>
        <time>2016-09-26T09:03:42Z</time>
      </trkpt>
      <trkpt lat="43.701002" lon="-7.972931">
        <ele>436.888</ele>
        <time>2016-09-26T09:03:43Z</time>
      </trkpt>
      <trkpt lat="43.700972" lon="-7.972939">
        <ele>436.550</ele>
        <time>2016-09-26T09:03:44Z</time>
      </trkpt>
      <trkpt lat="43.700935" lon="-7.972946">
        <ele>436.563</ele>
        <time>2016-09-26T09:03:45Z</time>
      </trkpt>
      <trkpt lat="43.700896" lon="-7.972958">
        <ele>436.411</ele>
        <time>2016-09-26T09:03:46Z</time>
      </trkpt>
      <trkpt lat="43.700857" lon="-7.972972">
        <ele>436.419</ele>
        <time>2016-09-26T09:03:47Z</time>
      </trkpt>
      <trkpt lat="43.700816" lon="-7.972981">
        <ele>436.609</ele>
        <time>2016-09-26T09:03:48Z</time>
      </trkpt>
      <trkpt lat="43.700781" lon="-7.972992">
        <ele>436.619</ele>
        <time>2016-09-26T09:03:49Z</time>
      </trkpt>
      <trkpt lat="43.700744" lon="-7.973005">
        <ele>436.708</ele>
        <time>2016-09-26T09:03:50Z</time>
      </trkpt>
      <trkpt lat="43.700710" lon="-7.973014">
        <ele>436.642</ele>
        <time>2016-09-26T09:03:51Z</time>
      </trkpt>
      <trkpt lat="43.700679" lon="-7.973023">
        <ele>436.627</ele>
        <time>2016-09-26T09:03:52Z</time>
      </trkpt>
      <trkpt lat="43.700650" lon="-7.973028">
        <ele>436.645</ele>
        <time>2016-09-26T09:03:53Z</time>
      </trkpt>
      <trkpt lat="43.700614" lon="-7.973037">
        <ele>436.561</ele>
        <time>2016-09-26T09:03:54Z</time>
      </trkpt>
      <trkpt lat="43.700582" lon="-7.973043">
        <ele>436.455</ele>
        <time>2016-09-26T09:03:55Z</time>
      </trkpt>
      <trkpt lat="43.700551" lon="-7.973049">
        <ele>436.417</ele>
        <time>2016-09-26T09:03:56Z</time>
      </trkpt>
      <trkpt lat="43.700517" lon="-7.973057">
        <ele>436.420</ele>
        <time>2016-09-26T09:03:57Z</time>
      </trkpt>
      <trkpt lat="43.700487" lon="-7.973060">
        <ele>436.468</ele>
        <time>2016-09-26T09:03:58Z</time>
      </trkpt>
      <trkpt lat="43.700452" lon="-7.973065">
        <ele>436.461</ele>
        <time>2016-09-26T09:03:59Z</time>
      </trkpt>
      <trkpt lat="43.700418" lon="-7.973069">
        <ele>436.321</ele>
        <time>2016-09-26T09:04:00Z</time>
      </trkpt>
      <trkpt lat="43.700391" lon="-7.973074">
        <ele>436.613</ele>
        <time>2016-09-26T09:04:01Z</time>
      </trkpt>
      <trkpt lat="43.700366" lon="-7.973083">
        <ele>436.808</ele>
        <time>2016-09-26T09:04:02Z</time>
      </trkpt>
      <trkpt lat="43.700346" lon="-7.973089">
        <ele>436.737</ele>
        <time>2016-09-26T09:04:03Z</time>
      </trkpt>
      <trkpt lat="43.700326" lon="-7.973103">
        <ele>436.552</ele>
        <time>2016-09-26T09:04:04Z</time>
      </trkpt>
      <trkpt lat="43.700295" lon="-7.973122">
        <ele>436.230</ele>
        <time>2016-09-26T09:04:05Z</time>
      </trkpt>
      <trkpt lat="43.700251" lon="-7.973137">
        <ele>436.166</ele>
        <time>2016-09-26T09:04:06Z</time>
      </trkpt>
      <trkpt lat="43.700212" lon="-7.973155">
        <ele>436.140</ele>
        <time>2016-09-26T09:04:07Z</time>
      </trkpt>
      <trkpt lat="43.700180" lon="-7.973178">
        <ele>435.952</ele>
        <time>2016-09-26T09:04:08Z</time>
      </trkpt>
      <trkpt lat="43.700140" lon="-7.973200">
        <ele>435.835</ele>
        <time>2016-09-26T09:04:09Z</time>
      </trkpt>
      <trkpt lat="43.700104" lon="-7.973225">
        <ele>435.883</ele>
        <time>2016-09-26T09:04:10Z</time>
      </trkpt>
      <trkpt lat="43.700070" lon="-7.973246">
        <ele>435.883</ele>
        <time>2016-09-26T09:04:11Z</time>
      </trkpt>
      <trkpt lat="43.700039" lon="-7.973273">
        <ele>435.625</ele>
        <time>2016-09-26T09:04:12Z</time>
      </trkpt>
      <trkpt lat="43.700001" lon="-7.973301">
        <ele>435.617</ele>
        <time>2016-09-26T09:04:13Z</time>
      </trkpt>
      <trkpt lat="43.699988" lon="-7.973326">
        <ele>435.408</ele>
        <time>2016-09-26T09:04:14Z</time>
      </trkpt>
      <trkpt lat="43.699960" lon="-7.973358">
        <ele>435.219</ele>
        <time>2016-09-26T09:04:15Z</time>
      </trkpt>
      <trkpt lat="43.699925" lon="-7.973396">
        <ele>435.034</ele>
        <time>2016-09-26T09:04:16Z</time>
      </trkpt>
      <trkpt lat="43.699898" lon="-7.973449">
        <ele>434.632</ele>
        <time>2016-09-26T09:04:17Z</time>
      </trkpt>
      <trkpt lat="43.699857" lon="-7.973516">
        <ele>434.468</ele>
        <time>2016-09-26T09:04:18Z</time>
      </trkpt>
      <trkpt lat="43.699823" lon="-7.973587">
        <ele>434.192</ele>
        <time>2016-09-26T09:04:19Z</time>
      </trkpt>
      <trkpt lat="43.699805" lon="-7.973665">
        <ele>433.864</ele>
        <time>2016-09-26T09:04:20Z</time>
      </trkpt>
      <trkpt lat="43.699787" lon="-7.973731">
        <ele>433.717</ele>
        <time>2016-09-26T09:04:21Z</time>
      </trkpt>
      <trkpt lat="43.699775" lon="-7.973789">
        <ele>433.455</ele>
        <time>2016-09-26T09:04:22Z</time>
      </trkpt>
      <trkpt lat="43.699765" lon="-7.973857">
        <ele>433.365</ele>
        <time>2016-09-26T09:04:23Z</time>
      </trkpt>
      <trkpt lat="43.699754" lon="-7.973924">
        <ele>433.268</ele>
        <time>2016-09-26T09:04:24Z</time>
      </trkpt>
      <trkpt lat="43.699747" lon="-7.973998">
        <ele>433.214</ele>
        <time>2016-09-26T09:04:25Z</time>
      </trkpt>
      <trkpt lat="43.699732" lon="-7.974064">
        <ele>433.208</ele>
        <time>2016-09-26T09:04:26Z</time>
      </trkpt>
      <trkpt lat="43.699708" lon="-7.974119">
        <ele>433.187</ele>
        <time>2016-09-26T09:04:27Z</time>
      </trkpt>
      <trkpt lat="43.699689" lon="-7.974164">
        <ele>433.132</ele>
        <time>2016-09-26T09:04:28Z</time>
      </trkpt>
      <trkpt lat="43.699671" lon="-7.974202">
        <ele>433.290</ele>
        <time>2016-09-26T09:04:29Z</time>
      </trkpt>
      <trkpt lat="43.699657" lon="-7.974247">
        <ele>433.396</ele>
        <time>2016-09-26T09:04:30Z</time>
      </trkpt>
      <trkpt lat="43.699646" lon="-7.974294">
        <ele>433.450</ele>
        <time>2016-09-26T09:04:31Z</time>
      </trkpt>
      <trkpt lat="43.699636" lon="-7.974328">
        <ele>433.352</ele>
        <time>2016-09-26T09:04:32Z</time>
      </trkpt>
      <trkpt lat="43.699633" lon="-7.974360">
        <ele>433.365</ele>
        <time>2016-09-26T09:04:33Z</time>
      </trkpt>
      <trkpt lat="43.699634" lon="-7.974393">
        <ele>433.543</ele>
        <time>2016-09-26T09:04:34Z</time>
      </trkpt>
      <trkpt lat="43.699631" lon="-7.974427">
        <ele>433.461</ele>
        <time>2016-09-26T09:04:35Z</time>
      </trkpt>
      <trkpt lat="43.699627" lon="-7.974464">
        <ele>433.521</ele>
        <time>2016-09-26T09:04:36Z</time>
      </trkpt>
      <trkpt lat="43.699621" lon="-7.974501">
        <ele>433.613</ele>
        <time>2016-09-26T09:04:37Z</time>
      </trkpt>
      <trkpt lat="43.699604" lon="-7.974537">
        <ele>433.708</ele>
        <time>2016-09-26T09:04:38Z</time>
      </trkpt>
      <trkpt lat="43.699584" lon="-7.974569">
        <ele>433.667</ele>
        <time>2016-09-26T09:04:39Z</time>
      </trkpt>
      <trkpt lat="43.699561" lon="-7.974592">
        <ele>433.742</ele>
        <time>2016-09-26T09:04:40Z</time>
      </trkpt>
      <trkpt lat="43.699535" lon="-7.974605">
        <ele>433.680</ele>
        <time>2016-09-26T09:04:41Z</time>
      </trkpt>
      <trkpt lat="43.699515" lon="-7.974613">
        <ele>433.876</ele>
        <time>2016-09-26T09:04:42Z</time>
      </trkpt>
      <trkpt lat="43.699506" lon="-7.974613">
        <ele>433.920</ele>
        <time>2016-09-26T09:04:43Z</time>
      </trkpt>
      <trkpt lat="43.699506" lon="-7.974615">
        <ele>434.082</ele>
        <time>2016-09-26T09:04:44Z</time>
      </trkpt>
      <trkpt lat="43.699501" lon="-7.974616">
        <ele>434.285</ele>
        <time>2016-09-26T09:04:45Z</time>
      </trkpt>
      <trkpt lat="43.699490" lon="-7.974618">
        <ele>434.343</ele>
        <time>2016-09-26T09:04:46Z</time>
      </trkpt>
      <trkpt lat="43.699479" lon="-7.974622">
        <ele>434.432</ele>
        <time>2016-09-26T09:04:47Z</time>
      </trkpt>
      <trkpt lat="43.699466" lon="-7.974627">
        <ele>434.592</ele>
        <time>2016-09-26T09:04:48Z</time>
      </trkpt>
      <trkpt lat="43.699454" lon="-7.974630">
        <ele>434.711</ele>
        <time>2016-09-26T09:04:49Z</time>
      </trkpt>
      <trkpt lat="43.699445" lon="-7.974629">
        <ele>434.808</ele>
        <time>2016-09-26T09:04:50Z</time>
      </trkpt>
      <trkpt lat="43.699435" lon="-7.974631">
        <ele>435.014</ele>
        <time>2016-09-26T09:04:51Z</time>
      </trkpt>
      <trkpt lat="43.699424" lon="-7.974630">
        <ele>435.069</ele>
        <time>2016-09-26T09:04:52Z</time>
      </trkpt>
      <trkpt lat="43.699416" lon="-7.974628">
        <ele>435.177</ele>
        <time>2016-09-26T09:04:53Z</time>
      </trkpt>
      <trkpt lat="43.699411" lon="-7.974627">
        <ele>435.243</ele>
        <time>2016-09-26T09:04:54Z</time>
      </trkpt>
      <trkpt lat="43.699406" lon="-7.974624">
        <ele>435.277</ele>
        <time>2016-09-26T09:04:55Z</time>
      </trkpt>
      <trkpt lat="43.699398" lon="-7.974622">
        <ele>435.529</ele>
        <time>2016-09-26T09:04:56Z</time>
      </trkpt>
      <trkpt lat="43.699391" lon="-7.974621">
        <ele>435.612</ele>
        <time>2016-09-26T09:04:57Z</time>
      </trkpt>
      <trkpt lat="43.699383" lon="-7.974621">
        <ele>436.010</ele>
        <time>2016-09-26T09:04:58Z</time>
      </trkpt>
      <trkpt lat="43.699377" lon="-7.974618">
        <ele>436.253</ele>
        <time>2016-09-26T09:04:59Z</time>
      </trkpt>
      <trkpt lat="43.699368" lon="-7.974616">
        <ele>436.404</ele>
        <time>2016-09-26T09:05:00Z</time>
      </trkpt>
      <trkpt lat="43.699358" lon="-7.974618">
        <ele>436.514</ele>
        <time>2016-09-26T09:05:01Z</time>
      </trkpt>
      <trkpt lat="43.699350" lon="-7.974617">
        <ele>436.708</ele>
        <time>2016-09-26T09:05:02Z</time>
      </trkpt>
      <trkpt lat="43.699344" lon="-7.974615">
        <ele>436.936</ele>
        <time>2016-09-26T09:05:03Z</time>
      </trkpt>
      <trkpt lat="43.699337" lon="-7.974611">
        <ele>437.071</ele>
        <time>2016-09-26T09:05:04Z</time>
      </trkpt>
      <trkpt lat="43.699334" lon="-7.974613">
        <ele>437.249</ele>
        <time>2016-09-26T09:05:05Z</time>
      </trkpt>
      <trkpt lat="43.699332" lon="-7.974612">
        <ele>437.295</ele>
        <time>2016-09-26T09:05:06Z</time>
      </trkpt>
      <trkpt lat="43.699325" lon="-7.974610">
        <ele>437.489</ele>
        <time>2016-09-26T09:05:07Z</time>
      </trkpt>
      <trkpt lat="43.699317" lon="-7.974610">
        <ele>437.591</ele>
        <time>2016-09-26T09:05:08Z</time>
      </trkpt>
      <trkpt lat="43.699317" lon="-7.974610">
        <ele>437.514</ele>
        <time>2016-09-26T09:05:08Z</time>
      </trkpt>
      <trkpt lat="43.699317" lon="-7.974610">
        <ele>437.562</ele>
        <time>2016-09-26T09:05:08Z</time>
      </trkpt>
      <trkpt lat="43.699298" lon="-7.974607">
        <ele>438.448</ele>
        <time>2016-09-26T09:05:11Z</time>
      </trkpt>
      <trkpt lat="43.699290" lon="-7.974604">
        <ele>438.561</ele>
        <time>2016-09-26T09:05:12Z</time>
      </trkpt>
      <trkpt lat="43.699282" lon="-7.974600">
        <ele>438.817</ele>
        <time>2016-09-26T09:05:13Z</time>
      </trkpt>
      <trkpt lat="43.699275" lon="-7.974601">
        <ele>438.908</ele>
        <time>2016-09-26T09:05:14Z</time>
      </trkpt>
      <trkpt lat="43.699268" lon="-7.974598">
        <ele>439.145</ele>
        <time>2016-09-26T09:05:15Z</time>
      </trkpt>
      <trkpt lat="43.699262" lon="-7.974598">
        <ele>439.450</ele>
        <time>2016-09-26T09:05:16Z</time>
      </trkpt>
      <trkpt lat="43.699255" lon="-7.974594">
        <ele>439.728</ele>
        <time>2016-09-26T09:05:17Z</time>
      </trkpt>
      <trkpt lat="43.699250" lon="-7.974593">
        <ele>440.084</ele>
        <time>2016-09-26T09:05:18Z</time>
      </trkpt>
      <trkpt lat="43.699244" lon="-7.974589">
        <ele>440.078</ele>
        <time>2016-09-26T09:05:19Z</time>
      </trkpt>
      <trkpt lat="43.699237" lon="-7.974586">
        <ele>440.370</ele>
        <time>2016-09-26T09:05:20Z</time>
      </trkpt>
      <trkpt lat="43.699232" lon="-7.974584">
        <ele>440.563</ele>
        <time>2016-09-26T09:05:21Z</time>
      </trkpt>
      <trkpt lat="43.699227" lon="-7.974580">
        <ele>440.891</ele>
        <time>2016-09-26T09:05:22Z</time>
      </trkpt>
      <trkpt lat="43.699220" lon="-7.974574">
        <ele>441.035</ele>
        <time>2016-09-26T09:05:23Z</time>
      </trkpt>
      <trkpt lat="43.699212" lon="-7.974568">
        <ele>441.286</ele>
        <time>2016-09-26T09:05:24Z</time>
      </trkpt>
      <trkpt lat="43.699203" lon="-7.974567">
        <ele>441.514</ele>
        <time>2016-09-26T09:05:25Z</time>
      </trkpt>
      <trkpt lat="43.699195" lon="-7.974567">
        <ele>441.808</ele>
        <time>2016-09-26T09:05:26Z</time>
      </trkpt>
      <trkpt lat="43.699186" lon="-7.974565">
        <ele>442.114</ele>
        <time>2016-09-26T09:05:27Z</time>
      </trkpt>
      <trkpt lat="43.699177" lon="-7.974561">
        <ele>442.389</ele>
        <time>2016-09-26T09:05:28Z</time>
      </trkpt>
      <trkpt lat="43.699170" lon="-7.974560">
        <ele>442.477</ele>
        <time>2016-09-26T09:05:29Z</time>
      </trkpt>
      <trkpt lat="43.699163" lon="-7.974558">
        <ele>442.763</ele>
        <time>2016-09-26T09:05:30Z</time>
      </trkpt>
      <trkpt lat="43.699155" lon="-7.974554">
        <ele>442.887</ele>
        <time>2016-09-26T09:05:31Z</time>
      </trkpt>
      <trkpt lat="43.699148" lon="-7.974549">
        <ele>443.119</ele>
        <time>2016-09-26T09:05:32Z</time>
      </trkpt>
      <trkpt lat="43.699144" lon="-7.974547">
        <ele>443.292</ele>
        <time>2016-09-26T09:05:33Z</time>
      </trkpt>
      <trkpt lat="43.699139" lon="-7.974543">
        <ele>443.540</ele>
        <time>2016-09-26T09:05:34Z</time>
      </trkpt>
      <trkpt lat="43.699133" lon="-7.974540">
        <ele>443.746</ele>
        <time>2016-09-26T09:05:35Z</time>
      </trkpt>
      <trkpt lat="43.699127" lon="-7.974539">
        <ele>443.788</ele>
        <time>2016-09-26T09:05:36Z</time>
      </trkpt>
      <trkpt lat="43.699121" lon="-7.974537">
        <ele>443.916</ele>
        <time>2016-09-26T09:05:37Z</time>
      </trkpt>
      <trkpt lat="43.699114" lon="-7.974533">
        <ele>443.808</ele>
        <time>2016-09-26T09:05:38Z</time>
      </trkpt>
      <trkpt lat="43.699106" lon="-7.974530">
        <ele>444.065</ele>
        <time>2016-09-26T09:05:39Z</time>
      </trkpt>
      <trkpt lat="43.699101" lon="-7.974528">
        <ele>444.350</ele>
        <time>2016-09-26T09:05:40Z</time>
      </trkpt>
      <trkpt lat="43.699096" lon="-7.974528">
        <ele>444.498</ele>
        <time>2016-09-26T09:05:41Z</time>
      </trkpt>
      <trkpt lat="43.699091" lon="-7.974529">
        <ele>444.784</ele>
        <time>2016-09-26T09:05:42Z</time>
      </trkpt>
      <trkpt lat="43.699085" lon="-7.974529">
        <ele>444.988</ele>
        <time>2016-09-26T09:05:43Z</time>
      </trkpt>
      <trkpt lat="43.699081" lon="-7.974529">
        <ele>445.010</ele>
        <time>2016-09-26T09:05:44Z</time>
      </trkpt>
      <trkpt lat="43.699077" lon="-7.974528">
        <ele>445.123</ele>
        <time>2016-09-26T09:05:45Z</time>
      </trkpt>
      <trkpt lat="43.699077" lon="-7.974528">
        <ele>445.151</ele>
        <time>2016-09-26T09:05:45Z</time>
      </trkpt>
      <trkpt lat="43.699077" lon="-7.974528">
        <ele>445.168</ele>
        <time>2016-09-26T09:05:45Z</time>
      </trkpt>
      <trkpt lat="43.699016" lon="-7.974517">
        <ele>446.842</ele>
        <time>2016-09-26T09:05:55Z</time>
      </trkpt>
      <trkpt lat="43.699004" lon="-7.974519">
        <ele>447.026</ele>
        <time>2016-09-26T09:05:56Z</time>
      </trkpt>
      <trkpt lat="43.698996" lon="-7.974520">
        <ele>447.308</ele>
        <time>2016-09-26T09:05:57Z</time>
      </trkpt>
      <trkpt lat="43.698988" lon="-7.974521">
        <ele>447.477</ele>
        <time>2016-09-26T09:05:58Z</time>
      </trkpt>
      <trkpt lat="43.698979" lon="-7.974523">
        <ele>447.592</ele>
        <time>2016-09-26T09:05:59Z</time>
      </trkpt>
      <trkpt lat="43.698972" lon="-7.974527">
        <ele>447.780</ele>
        <time>2016-09-26T09:06:00Z</time>
      </trkpt>
      <trkpt lat="43.698966" lon="-7.974530">
        <ele>448.036</ele>
        <time>2016-09-26T09:06:01Z</time>
      </trkpt>
      <trkpt lat="43.698961" lon="-7.974533">
        <ele>448.230</ele>
        <time>2016-09-26T09:06:02Z</time>
      </trkpt>
      <trkpt lat="43.698957" lon="-7.974536">
        <ele>448.342</ele>
        <time>2016-09-26T09:06:03Z</time>
      </trkpt>
      <trkpt lat="43.698951" lon="-7.974543">
        <ele>448.675</ele>
        <time>2016-09-26T09:06:04Z</time>
      </trkpt>
      <trkpt lat="43.698946" lon="-7.974548">
        <ele>448.913</ele>
        <time>2016-09-26T09:06:05Z</time>
      </trkpt>
      <trkpt lat="43.698939" lon="-7.974554">
        <ele>448.994</ele>
        <time>2016-09-26T09:06:06Z</time>
      </trkpt>
      <trkpt lat="43.698933" lon="-7.974558">
        <ele>449.057</ele>
        <time>2016-09-26T09:06:07Z</time>
      </trkpt>
      <trkpt lat="43.698927" lon="-7.974562">
        <ele>449.222</ele>
        <time>2016-09-26T09:06:08Z</time>
      </trkpt>
      <trkpt lat="43.698919" lon="-7.974566">
        <ele>449.608</ele>
        <time>2016-09-26T09:06:09Z</time>
      </trkpt>
      <trkpt lat="43.698910" lon="-7.974572">
        <ele>449.840</ele>
        <time>2016-09-26T09:06:10Z</time>
      </trkpt>
      <trkpt lat="43.698902" lon="-7.974576">
        <ele>450.025</ele>
        <time>2016-09-26T09:06:11Z</time>
      </trkpt>
      <trkpt lat="43.698895" lon="-7.974581">
        <ele>450.263</ele>
        <time>2016-09-26T09:06:12Z</time>
      </trkpt>
      <trkpt lat="43.698885" lon="-7.974587">
        <ele>450.479</ele>
        <time>2016-09-26T09:06:13Z</time>
      </trkpt>
      <trkpt lat="43.698877" lon="-7.974594">
        <ele>450.363</ele>
        <time>2016-09-26T09:06:14Z</time>
      </trkpt>
      <trkpt lat="43.698869" lon="-7.974601">
        <ele>450.535</ele>
        <time>2016-09-26T09:06:15Z</time>
      </trkpt>
      <trkpt lat="43.698863" lon="-7.974608">
        <ele>450.658</ele>
        <time>2016-09-26T09:06:16Z</time>
      </trkpt>
      <trkpt lat="43.698856" lon="-7.974614">
        <ele>450.886</ele>
        <time>2016-09-26T09:06:17Z</time>
      </trkpt>
      <trkpt lat="43.698847" lon="-7.974618">
        <ele>451.198</ele>
        <time>2016-09-26T09:06:18Z</time>
      </trkpt>
      <trkpt lat="43.698837" lon="-7.974624">
        <ele>451.315</ele>
        <time>2016-09-26T09:06:19Z</time>
      </trkpt>
      <trkpt lat="43.698829" lon="-7.974630">
        <ele>451.326</ele>
        <time>2016-09-26T09:06:20Z</time>
      </trkpt>
      <trkpt lat="43.698822" lon="-7.974635">
        <ele>451.508</ele>
        <time>2016-09-26T09:06:21Z</time>
      </trkpt>
      <trkpt lat="43.698813" lon="-7.974640">
        <ele>451.910</ele>
        <time>2016-09-26T09:06:22Z</time>
      </trkpt>
      <trkpt lat="43.698806" lon="-7.974647">
        <ele>452.095</ele>
        <time>2016-09-26T09:06:23Z</time>
      </trkpt>
      <trkpt lat="43.698797" lon="-7.974654">
        <ele>452.273</ele>
        <time>2016-09-26T09:06:24Z</time>
      </trkpt>
      <trkpt lat="43.698791" lon="-7.974661">
        <ele>452.599</ele>
        <time>2016-09-26T09:06:25Z</time>
      </trkpt>
      <trkpt lat="43.698784" lon="-7.974665">
        <ele>452.883</ele>
        <time>2016-09-26T09:06:26Z</time>
      </trkpt>
      <trkpt lat="43.698801" lon="-7.974684">
        <ele>453.075</ele>
        <time>2016-09-26T09:06:27Z</time>
      </trkpt>
      <trkpt lat="43.698804" lon="-7.974694">
        <ele>453.248</ele>
        <time>2016-09-26T09:06:28Z</time>
      </trkpt>
      <trkpt lat="43.698800" lon="-7.974700">
        <ele>453.226</ele>
        <time>2016-09-26T09:06:29Z</time>
      </trkpt>
      <trkpt lat="43.698797" lon="-7.974707">
        <ele>453.167</ele>
        <time>2016-09-26T09:06:30Z</time>
      </trkpt>
      <trkpt lat="43.698789" lon="-7.974711">
        <ele>453.581</ele>
        <time>2016-09-26T09:06:31Z</time>
      </trkpt>
      <trkpt lat="43.698781" lon="-7.974715">
        <ele>453.719</ele>
        <time>2016-09-26T09:06:32Z</time>
      </trkpt>
      <trkpt lat="43.698776" lon="-7.974717">
        <ele>453.808</ele>
        <time>2016-09-26T09:06:33Z</time>
      </trkpt>
      <trkpt lat="43.698769" lon="-7.974720">
        <ele>453.977</ele>
        <time>2016-09-26T09:06:34Z</time>
      </trkpt>
      <trkpt lat="43.698760" lon="-7.974723">
        <ele>454.212</ele>
        <time>2016-09-26T09:06:35Z</time>
      </trkpt>
      <trkpt lat="43.698752" lon="-7.974729">
        <ele>454.530</ele>
        <time>2016-09-26T09:06:36Z</time>
      </trkpt>
      <trkpt lat="43.698744" lon="-7.974733">
        <ele>454.646</ele>
        <time>2016-09-26T09:06:37Z</time>
      </trkpt>
      <trkpt lat="43.698734" lon="-7.974738">
        <ele>454.880</ele>
        <time>2016-09-26T09:06:38Z</time>
      </trkpt>
      <trkpt lat="43.698727" lon="-7.974744">
        <ele>455.032</ele>
        <time>2016-09-26T09:06:39Z</time>
      </trkpt>
      <trkpt lat="43.698719" lon="-7.974750">
        <ele>455.225</ele>
        <time>2016-09-26T09:06:40Z</time>
      </trkpt>
      <trkpt lat="43.698711" lon="-7.974757">
        <ele>455.233</ele>
        <time>2016-09-26T09:06:41Z</time>
      </trkpt>
      <trkpt lat="43.698700" lon="-7.974762">
        <ele>455.293</ele>
        <time>2016-09-26T09:06:42Z</time>
      </trkpt>
      <trkpt lat="43.698689" lon="-7.974769">
        <ele>455.365</ele>
        <time>2016-09-26T09:06:43Z</time>
      </trkpt>
      <trkpt lat="43.698681" lon="-7.974777">
        <ele>455.421</ele>
        <time>2016-09-26T09:06:44Z</time>
      </trkpt>
      <trkpt lat="43.698673" lon="-7.974785">
        <ele>455.508</ele>
        <time>2016-09-26T09:06:45Z</time>
      </trkpt>
      <trkpt lat="43.698667" lon="-7.974795">
        <ele>455.610</ele>
        <time>2016-09-26T09:06:46Z</time>
      </trkpt>
      <trkpt lat="43.698661" lon="-7.974806">
        <ele>455.665</ele>
        <time>2016-09-26T09:06:47Z</time>
      </trkpt>
      <trkpt lat="43.698650" lon="-7.974815">
        <ele>455.793</ele>
        <time>2016-09-26T09:06:48Z</time>
      </trkpt>
      <trkpt lat="43.698641" lon="-7.974826">
        <ele>456.019</ele>
        <time>2016-09-26T09:06:49Z</time>
      </trkpt>
      <trkpt lat="43.698633" lon="-7.974836">
        <ele>456.193</ele>
        <time>2016-09-26T09:06:50Z</time>
      </trkpt>
      <trkpt lat="43.698625" lon="-7.974847">
        <ele>456.375</ele>
        <time>2016-09-26T09:06:51Z</time>
      </trkpt>
      <trkpt lat="43.698618" lon="-7.974859">
        <ele>456.428</ele>
        <time>2016-09-26T09:06:52Z</time>
      </trkpt>
      <trkpt lat="43.698612" lon="-7.974870">
        <ele>456.556</ele>
        <time>2016-09-26T09:06:53Z</time>
      </trkpt>
      <trkpt lat="43.698606" lon="-7.974881">
        <ele>456.526</ele>
        <time>2016-09-26T09:06:54Z</time>
      </trkpt>
      <trkpt lat="43.698602" lon="-7.974894">
        <ele>456.747</ele>
        <time>2016-09-26T09:06:55Z</time>
      </trkpt>
      <trkpt lat="43.698596" lon="-7.974905">
        <ele>456.711</ele>
        <time>2016-09-26T09:06:56Z</time>
      </trkpt>
      <trkpt lat="43.698590" lon="-7.974917">
        <ele>456.708</ele>
        <time>2016-09-26T09:06:57Z</time>
      </trkpt>
      <trkpt lat="43.698585" lon="-7.974930">
        <ele>456.713</ele>
        <time>2016-09-26T09:06:58Z</time>
      </trkpt>
      <trkpt lat="43.698581" lon="-7.974944">
        <ele>457.048</ele>
        <time>2016-09-26T09:06:59Z</time>
      </trkpt>
      <trkpt lat="43.698578" lon="-7.974958">
        <ele>457.086</ele>
        <time>2016-09-26T09:07:00Z</time>
      </trkpt>
      <trkpt lat="43.698574" lon="-7.974973">
        <ele>457.362</ele>
        <time>2016-09-26T09:07:01Z</time>
      </trkpt>
      <trkpt lat="43.698571" lon="-7.974987">
        <ele>457.526</ele>
        <time>2016-09-26T09:07:02Z</time>
      </trkpt>
      <trkpt lat="43.698569" lon="-7.975002">
        <ele>457.388</ele>
        <time>2016-09-26T09:07:03Z</time>
      </trkpt>
      <trkpt lat="43.698569" lon="-7.975019">
        <ele>457.431</ele>
        <time>2016-09-26T09:07:04Z</time>
      </trkpt>
      <trkpt lat="43.698569" lon="-7.975034">
        <ele>457.429</ele>
        <time>2016-09-26T09:07:05Z</time>
      </trkpt>
      <trkpt lat="43.698571" lon="-7.975050">
        <ele>457.413</ele>
        <time>2016-09-26T09:07:06Z</time>
      </trkpt>
      <trkpt lat="43.698572" lon="-7.975067">
        <ele>457.443</ele>
        <time>2016-09-26T09:07:07Z</time>
      </trkpt>
      <trkpt lat="43.698576" lon="-7.975084">
        <ele>457.307</ele>
        <time>2016-09-26T09:07:08Z</time>
      </trkpt>
      <trkpt lat="43.698579" lon="-7.975100">
        <ele>457.308</ele>
        <time>2016-09-26T09:07:09Z</time>
      </trkpt>
      <trkpt lat="43.698584" lon="-7.975115">
        <ele>457.472</ele>
        <time>2016-09-26T09:07:10Z</time>
      </trkpt>
      <trkpt lat="43.698589" lon="-7.975130">
        <ele>457.567</ele>
        <time>2016-09-26T09:07:11Z</time>
      </trkpt>
      <trkpt lat="43.698594" lon="-7.975146">
        <ele>457.445</ele>
        <time>2016-09-26T09:07:12Z</time>
      </trkpt>
      <trkpt lat="43.698600" lon="-7.975161">
        <ele>457.371</ele>
        <time>2016-09-26T09:07:13Z</time>
      </trkpt>
      <trkpt lat="43.698606" lon="-7.975177">
        <ele>457.475</ele>
        <time>2016-09-26T09:07:14Z</time>
      </trkpt>
      <trkpt lat="43.698611" lon="-7.975192">
        <ele>457.537</ele>
        <time>2016-09-26T09:07:15Z</time>
      </trkpt>
      <trkpt lat="43.698615" lon="-7.975206">
        <ele>457.480</ele>
        <time>2016-09-26T09:07:16Z</time>
      </trkpt>
      <trkpt lat="43.698617" lon="-7.975220">
        <ele>457.598</ele>
        <time>2016-09-26T09:07:17Z</time>
      </trkpt>
      <trkpt lat="43.698620" lon="-7.975233">
        <ele>457.649</ele>
        <time>2016-09-26T09:07:18Z</time>
      </trkpt>
      <trkpt lat="43.698621" lon="-7.975244">
        <ele>457.702</ele>
        <time>2016-09-26T09:07:19Z</time>
      </trkpt>
      <trkpt lat="43.698624" lon="-7.975254">
        <ele>457.722</ele>
        <time>2016-09-26T09:07:20Z</time>
      </trkpt>
      <trkpt lat="43.698628" lon="-7.975264">
        <ele>457.808</ele>
        <time>2016-09-26T09:07:21Z</time>
      </trkpt>
      <trkpt lat="43.698631" lon="-7.975275">
        <ele>457.835</ele>
        <time>2016-09-26T09:07:22Z</time>
      </trkpt>
      <trkpt lat="43.698633" lon="-7.975285">
        <ele>457.850</ele>
        <time>2016-09-26T09:07:23Z</time>
      </trkpt>
      <trkpt lat="43.698635" lon="-7.975295">
        <ele>457.878</ele>
        <time>2016-09-26T09:07:24Z</time>
      </trkpt>
      <trkpt lat="43.698637" lon="-7.975303">
        <ele>457.814</ele>
        <time>2016-09-26T09:07:25Z</time>
      </trkpt>
      <trkpt lat="43.698639" lon="-7.975311">
        <ele>457.818</ele>
        <time>2016-09-26T09:07:26Z</time>
      </trkpt>
      <trkpt lat="43.698641" lon="-7.975319">
        <ele>458.030</ele>
        <time>2016-09-26T09:07:27Z</time>
      </trkpt>
      <trkpt lat="43.698643" lon="-7.975329">
        <ele>458.043</ele>
        <time>2016-09-26T09:07:28Z</time>
      </trkpt>
      <trkpt lat="43.698644" lon="-7.975340">
        <ele>457.921</ele>
        <time>2016-09-26T09:07:29Z</time>
      </trkpt>
      <trkpt lat="43.698646" lon="-7.975351">
        <ele>457.926</ele>
        <time>2016-09-26T09:07:30Z</time>
      </trkpt>
      <trkpt lat="43.698649" lon="-7.975360">
        <ele>458.047</ele>
        <time>2016-09-26T09:07:31Z</time>
      </trkpt>
      <trkpt lat="43.698649" lon="-7.975371">
        <ele>458.111</ele>
        <time>2016-09-26T09:07:32Z</time>
      </trkpt>
      <trkpt lat="43.698649" lon="-7.975383">
        <ele>458.108</ele>
        <time>2016-09-26T09:07:33Z</time>
      </trkpt>
      <trkpt lat="43.698648" lon="-7.975395">
        <ele>458.163</ele>
        <time>2016-09-26T09:07:34Z</time>
      </trkpt>
      <trkpt lat="43.698647" lon="-7.975408">
        <ele>458.048</ele>
        <time>2016-09-26T09:07:35Z</time>
      </trkpt>
      <trkpt lat="43.698645" lon="-7.975421">
        <ele>458.036</ele>
        <time>2016-09-26T09:07:36Z</time>
      </trkpt>
      <trkpt lat="43.698644" lon="-7.975433">
        <ele>458.362</ele>
        <time>2016-09-26T09:07:37Z</time>
      </trkpt>
      <trkpt lat="43.698642" lon="-7.975445">
        <ele>458.456</ele>
        <time>2016-09-26T09:07:38Z</time>
      </trkpt>
      <trkpt lat="43.698639" lon="-7.975456">
        <ele>458.418</ele>
        <time>2016-09-26T09:07:39Z</time>
      </trkpt>
      <trkpt lat="43.698637" lon="-7.975467">
        <ele>458.451</ele>
        <time>2016-09-26T09:07:40Z</time>
      </trkpt>
      <trkpt lat="43.698637" lon="-7.975478">
        <ele>458.579</ele>
        <time>2016-09-26T09:07:41Z</time>
      </trkpt>
      <trkpt lat="43.698637" lon="-7.975489">
        <ele>458.876</ele>
        <time>2016-09-26T09:07:42Z</time>
      </trkpt>
      <trkpt lat="43.698636" lon="-7.975500">
        <ele>459.090</ele>
        <time>2016-09-26T09:07:43Z</time>
      </trkpt>
      <trkpt lat="43.698635" lon="-7.975511">
        <ele>459.019</ele>
        <time>2016-09-26T09:07:44Z</time>
      </trkpt>
      <trkpt lat="43.698635" lon="-7.975522">
        <ele>459.008</ele>
        <time>2016-09-26T09:07:45Z</time>
      </trkpt>
      <trkpt lat="43.698634" lon="-7.975532">
        <ele>459.198</ele>
        <time>2016-09-26T09:07:46Z</time>
      </trkpt>
      <trkpt lat="43.698633" lon="-7.975542">
        <ele>459.473</ele>
        <time>2016-09-26T09:07:47Z</time>
      </trkpt>
      <trkpt lat="43.698632" lon="-7.975553">
        <ele>459.681</ele>
        <time>2016-09-26T09:07:48Z</time>
      </trkpt>
      <trkpt lat="43.698630" lon="-7.975566">
        <ele>459.727</ele>
        <time>2016-09-26T09:07:49Z</time>
      </trkpt>
      <trkpt lat="43.698628" lon="-7.975579">
        <ele>459.831</ele>
        <time>2016-09-26T09:07:50Z</time>
      </trkpt>
      <trkpt lat="43.698626" lon="-7.975591">
        <ele>459.873</ele>
        <time>2016-09-26T09:07:51Z</time>
      </trkpt>
      <trkpt lat="43.698624" lon="-7.975602">
        <ele>459.996</ele>
        <time>2016-09-26T09:07:52Z</time>
      </trkpt>
      <trkpt lat="43.698622" lon="-7.975614">
        <ele>460.094</ele>
        <time>2016-09-26T09:07:53Z</time>
      </trkpt>
      <trkpt lat="43.698621" lon="-7.975627">
        <ele>460.045</ele>
        <time>2016-09-26T09:07:54Z</time>
      </trkpt>
      <trkpt lat="43.698619" lon="-7.975638">
        <ele>460.047</ele>
        <time>2016-09-26T09:07:55Z</time>
      </trkpt>
      <trkpt lat="43.698617" lon="-7.975648">
        <ele>460.111</ele>
        <time>2016-09-26T09:07:56Z</time>
      </trkpt>
      <trkpt lat="43.698616" lon="-7.975661">
        <ele>460.108</ele>
        <time>2016-09-26T09:07:57Z</time>
      </trkpt>
      <trkpt lat="43.698613" lon="-7.975675">
        <ele>460.385</ele>
        <time>2016-09-26T09:07:58Z</time>
      </trkpt>
      <trkpt lat="43.698613" lon="-7.975690">
        <ele>460.340</ele>
        <time>2016-09-26T09:07:59Z</time>
      </trkpt>
      <trkpt lat="43.698613" lon="-7.975706">
        <ele>460.488</ele>
        <time>2016-09-26T09:08:00Z</time>
      </trkpt>
      <trkpt lat="43.698614" lon="-7.975723">
        <ele>460.434</ele>
        <time>2016-09-26T09:08:01Z</time>
      </trkpt>
      <trkpt lat="43.698614" lon="-7.975739">
        <ele>460.458</ele>
        <time>2016-09-26T09:08:02Z</time>
      </trkpt>
      <trkpt lat="43.698614" lon="-7.975755">
        <ele>460.360</ele>
        <time>2016-09-26T09:08:03Z</time>
      </trkpt>
      <trkpt lat="43.698617" lon="-7.975771">
        <ele>460.473</ele>
        <time>2016-09-26T09:08:04Z</time>
      </trkpt>
      <trkpt lat="43.698618" lon="-7.975787">
        <ele>460.631</ele>
        <time>2016-09-26T09:08:05Z</time>
      </trkpt>
      <trkpt lat="43.698619" lon="-7.975803">
        <ele>460.762</ele>
        <time>2016-09-26T09:08:06Z</time>
      </trkpt>
      <trkpt lat="43.698620" lon="-7.975820">
        <ele>460.883</ele>
        <time>2016-09-26T09:08:07Z</time>
      </trkpt>
      <trkpt lat="43.698620" lon="-7.975835">
        <ele>460.811</ele>
        <time>2016-09-26T09:08:08Z</time>
      </trkpt>
      <trkpt lat="43.698621" lon="-7.975848">
        <ele>460.708</ele>
        <time>2016-09-26T09:08:09Z</time>
      </trkpt>
      <trkpt lat="43.698622" lon="-7.975860">
        <ele>461.027</ele>
        <time>2016-09-26T09:08:10Z</time>
      </trkpt>
      <trkpt lat="43.698623" lon="-7.975864">
        <ele>461.152</ele>
        <time>2016-09-26T09:08:11Z</time>
      </trkpt>
      <trkpt lat="43.698625" lon="-7.975863">
        <ele>461.290</ele>
        <time>2016-09-26T09:08:12Z</time>
      </trkpt>
      <trkpt lat="43.698626" lon="-7.975862">
        <ele>461.216</ele>
        <time>2016-09-26T09:08:13Z</time>
      </trkpt>
      <trkpt lat="43.698627" lon="-7.975863">
        <ele>461.310</ele>
        <time>2016-09-26T09:08:14Z</time>
      </trkpt>
      <trkpt lat="43.698629" lon="-7.975871">
        <ele>461.352</ele>
        <time>2016-09-26T09:08:15Z</time>
      </trkpt>
      <trkpt lat="43.698629" lon="-7.975871">
        <ele>461.325</ele>
        <time>2016-09-26T09:08:15Z</time>
      </trkpt>
      <trkpt lat="43.698629" lon="-7.975871">
        <ele>461.393</ele>
        <time>2016-09-26T09:08:15Z</time>
      </trkpt>
      <trkpt lat="43.698648" lon="-7.976024">
        <ele>461.677</ele>
        <time>2016-09-26T09:08:22Z</time>
      </trkpt>
      <trkpt lat="43.698645" lon="-7.976048">
        <ele>461.861</ele>
        <time>2016-09-26T09:08:23Z</time>
      </trkpt>
      <trkpt lat="43.698645" lon="-7.976074">
        <ele>461.827</ele>
        <time>2016-09-26T09:08:24Z</time>
      </trkpt>
      <trkpt lat="43.698646" lon="-7.976102">
        <ele>462.008</ele>
        <time>2016-09-26T09:08:25Z</time>
      </trkpt>
      <trkpt lat="43.698651" lon="-7.976133">
        <ele>462.378</ele>
        <time>2016-09-26T09:08:26Z</time>
      </trkpt>
      <trkpt lat="43.698655" lon="-7.976167">
        <ele>462.543</ele>
        <time>2016-09-26T09:08:27Z</time>
      </trkpt>
      <trkpt lat="43.698657" lon="-7.976201">
        <ele>462.721</ele>
        <time>2016-09-26T09:08:28Z</time>
      </trkpt>
      <trkpt lat="43.698654" lon="-7.976234">
        <ele>463.037</ele>
        <time>2016-09-26T09:08:29Z</time>
      </trkpt>
      <trkpt lat="43.698650" lon="-7.976268">
        <ele>463.231</ele>
        <time>2016-09-26T09:08:30Z</time>
      </trkpt>
      <trkpt lat="43.698646" lon="-7.976303">
        <ele>463.673</ele>
        <time>2016-09-26T09:08:31Z</time>
      </trkpt>
      <trkpt lat="43.698640" lon="-7.976332">
        <ele>463.616</ele>
        <time>2016-09-26T09:08:32Z</time>
      </trkpt>
      <trkpt lat="43.698630" lon="-7.976360">
        <ele>463.734</ele>
        <time>2016-09-26T09:08:33Z</time>
      </trkpt>
      <trkpt lat="43.698615" lon="-7.976391">
        <ele>463.948</ele>
        <time>2016-09-26T09:08:34Z</time>
      </trkpt>
      <trkpt lat="43.698602" lon="-7.976418">
        <ele>464.061</ele>
        <time>2016-09-26T09:08:35Z</time>
      </trkpt>
      <trkpt lat="43.698591" lon="-7.976442">
        <ele>464.117</ele>
        <time>2016-09-26T09:08:36Z</time>
      </trkpt>
      <trkpt lat="43.698576" lon="-7.976469">
        <ele>464.408</ele>
        <time>2016-09-26T09:08:37Z</time>
      </trkpt>
      <trkpt lat="43.698563" lon="-7.976497">
        <ele>464.475</ele>
        <time>2016-09-26T09:08:38Z</time>
      </trkpt>
      <trkpt lat="43.698552" lon="-7.976527">
        <ele>464.640</ele>
        <time>2016-09-26T09:08:39Z</time>
      </trkpt>
      <trkpt lat="43.698539" lon="-7.976555">
        <ele>464.758</ele>
        <time>2016-09-26T09:08:40Z</time>
      </trkpt>
      <trkpt lat="43.698527" lon="-7.976579">
        <ele>464.894</ele>
        <time>2016-09-26T09:08:41Z</time>
      </trkpt>
      <trkpt lat="43.698515" lon="-7.976600">
        <ele>465.158</ele>
        <time>2016-09-26T09:08:42Z</time>
      </trkpt>
      <trkpt lat="43.698498" lon="-7.976622">
        <ele>465.170</ele>
        <time>2016-09-26T09:08:43Z</time>
      </trkpt>
      <trkpt lat="43.698481" lon="-7.976644">
        <ele>465.293</ele>
        <time>2016-09-26T09:08:44Z</time>
      </trkpt>
      <trkpt lat="43.698475" lon="-7.976668">
        <ele>465.431</ele>
        <time>2016-09-26T09:08:45Z</time>
      </trkpt>
      <trkpt lat="43.698469" lon="-7.976691">
        <ele>465.539</ele>
        <time>2016-09-26T09:08:46Z</time>
      </trkpt>
      <trkpt lat="43.698456" lon="-7.976714">
        <ele>465.501</ele>
        <time>2016-09-26T09:08:47Z</time>
      </trkpt>
      <trkpt lat="43.698438" lon="-7.976737">
        <ele>465.621</ele>
        <time>2016-09-26T09:08:48Z</time>
      </trkpt>
      <trkpt lat="43.698425" lon="-7.976762">
        <ele>465.808</ele>
        <time>2016-09-26T09:08:49Z</time>
      </trkpt>
      <trkpt lat="43.698409" lon="-7.976791">
        <ele>465.814</ele>
        <time>2016-09-26T09:08:50Z</time>
      </trkpt>
      <trkpt lat="43.698388" lon="-7.976822">
        <ele>465.899</ele>
        <time>2016-09-26T09:08:51Z</time>
      </trkpt>
      <trkpt lat="43.698369" lon="-7.976849">
        <ele>466.087</ele>
        <time>2016-09-26T09:08:52Z</time>
      </trkpt>
      <trkpt lat="43.698353" lon="-7.976875">
        <ele>466.253</ele>
        <time>2016-09-26T09:08:53Z</time>
      </trkpt>
      <trkpt lat="43.698338" lon="-7.976906">
        <ele>466.267</ele>
        <time>2016-09-26T09:08:54Z</time>
      </trkpt>
      <trkpt lat="43.698325" lon="-7.976933">
        <ele>466.059</ele>
        <time>2016-09-26T09:08:55Z</time>
      </trkpt>
      <trkpt lat="43.698318" lon="-7.976956">
        <ele>466.082</ele>
        <time>2016-09-26T09:08:56Z</time>
      </trkpt>
      <trkpt lat="43.698312" lon="-7.976979">
        <ele>466.040</ele>
        <time>2016-09-26T09:08:57Z</time>
      </trkpt>
      <trkpt lat="43.698301" lon="-7.977002">
        <ele>466.148</ele>
        <time>2016-09-26T09:08:58Z</time>
      </trkpt>
      <trkpt lat="43.698284" lon="-7.977027">
        <ele>466.061</ele>
        <time>2016-09-26T09:08:59Z</time>
      </trkpt>
      <trkpt lat="43.698267" lon="-7.977054">
        <ele>466.117</ele>
        <time>2016-09-26T09:09:00Z</time>
      </trkpt>
      <trkpt lat="43.698252" lon="-7.977081">
        <ele>466.208</ele>
        <time>2016-09-26T09:09:01Z</time>
      </trkpt>
      <trkpt lat="43.698243" lon="-7.977106">
        <ele>466.215</ele>
        <time>2016-09-26T09:09:02Z</time>
      </trkpt>
      <trkpt lat="43.698231" lon="-7.977133">
        <ele>466.310</ele>
        <time>2016-09-26T09:09:03Z</time>
      </trkpt>
      <trkpt lat="43.698220" lon="-7.977160">
        <ele>466.538</ele>
        <time>2016-09-26T09:09:04Z</time>
      </trkpt>
      <trkpt lat="43.698209" lon="-7.977189">
        <ele>466.324</ele>
        <time>2016-09-26T09:09:05Z</time>
      </trkpt>
      <trkpt lat="43.698198" lon="-7.977221">
        <ele>466.348</ele>
        <time>2016-09-26T09:09:06Z</time>
      </trkpt>
      <trkpt lat="43.698187" lon="-7.977252">
        <ele>466.380</ele>
        <time>2016-09-26T09:09:07Z</time>
      </trkpt>
      <trkpt lat="43.698176" lon="-7.977285">
        <ele>466.433</ele>
        <time>2016-09-26T09:09:08Z</time>
      </trkpt>
      <trkpt lat="43.698165" lon="-7.977318">
        <ele>466.741</ele>
        <time>2016-09-26T09:09:09Z</time>
      </trkpt>
      <trkpt lat="43.698151" lon="-7.977347">
        <ele>466.928</ele>
        <time>2016-09-26T09:09:10Z</time>
      </trkpt>
      <trkpt lat="43.698139" lon="-7.977376">
        <ele>466.989</ele>
        <time>2016-09-26T09:09:11Z</time>
      </trkpt>
      <trkpt lat="43.698133" lon="-7.977400">
        <ele>466.917</ele>
        <time>2016-09-26T09:09:12Z</time>
      </trkpt>
      <trkpt lat="43.698124" lon="-7.977428">
        <ele>467.008</ele>
        <time>2016-09-26T09:09:13Z</time>
      </trkpt>
      <trkpt lat="43.698113" lon="-7.977459">
        <ele>467.433</ele>
        <time>2016-09-26T09:09:14Z</time>
      </trkpt>
      <trkpt lat="43.698103" lon="-7.977485">
        <ele>467.678</ele>
        <time>2016-09-26T09:09:15Z</time>
      </trkpt>
      <trkpt lat="43.698097" lon="-7.977507">
        <ele>467.736</ele>
        <time>2016-09-26T09:09:16Z</time>
      </trkpt>
      <trkpt lat="43.698089" lon="-7.977528">
        <ele>467.862</ele>
        <time>2016-09-26T09:09:17Z</time>
      </trkpt>
      <trkpt lat="43.698080" lon="-7.977549">
        <ele>467.976</ele>
        <time>2016-09-26T09:09:18Z</time>
      </trkpt>
      <trkpt lat="43.698067" lon="-7.977572">
        <ele>467.998</ele>
        <time>2016-09-26T09:09:19Z</time>
      </trkpt>
      <trkpt lat="43.698055" lon="-7.977602">
        <ele>468.191</ele>
        <time>2016-09-26T09:09:20Z</time>
      </trkpt>
      <trkpt lat="43.698041" lon="-7.977632">
        <ele>468.199</ele>
        <time>2016-09-26T09:09:21Z</time>
      </trkpt>
      <trkpt lat="43.698030" lon="-7.977664">
        <ele>468.264</ele>
        <time>2016-09-26T09:09:22Z</time>
      </trkpt>
      <trkpt lat="43.698018" lon="-7.977695">
        <ele>468.306</ele>
        <time>2016-09-26T09:09:23Z</time>
      </trkpt>
      <trkpt lat="43.698010" lon="-7.977724">
        <ele>468.416</ele>
        <time>2016-09-26T09:09:24Z</time>
      </trkpt>
      <trkpt lat="43.698003" lon="-7.977755">
        <ele>468.408</ele>
        <time>2016-09-26T09:09:25Z</time>
      </trkpt>
      <trkpt lat="43.697996" lon="-7.977779">
        <ele>468.497</ele>
        <time>2016-09-26T09:09:26Z</time>
      </trkpt>
      <trkpt lat="43.697991" lon="-7.977807">
        <ele>468.532</ele>
        <time>2016-09-26T09:09:27Z</time>
      </trkpt>
      <trkpt lat="43.697991" lon="-7.977839">
        <ele>468.730</ele>
        <time>2016-09-26T09:09:28Z</time>
      </trkpt>
      <trkpt lat="43.697989" lon="-7.977869">
        <ele>468.956</ele>
        <time>2016-09-26T09:09:29Z</time>
      </trkpt>
      <trkpt lat="43.697986" lon="-7.977895">
        <ele>468.970</ele>
        <time>2016-09-26T09:09:30Z</time>
      </trkpt>
      <trkpt lat="43.697982" lon="-7.977921">
        <ele>469.262</ele>
        <time>2016-09-26T09:09:31Z</time>
      </trkpt>
      <trkpt lat="43.697978" lon="-7.977949">
        <ele>469.475</ele>
        <time>2016-09-26T09:09:32Z</time>
      </trkpt>
      <trkpt lat="43.697971" lon="-7.977976">
        <ele>469.873</ele>
        <time>2016-09-26T09:09:33Z</time>
      </trkpt>
      <trkpt lat="43.697962" lon="-7.978006">
        <ele>469.851</ele>
        <time>2016-09-26T09:09:34Z</time>
      </trkpt>
      <trkpt lat="43.697953" lon="-7.978034">
        <ele>470.001</ele>
        <time>2016-09-26T09:09:35Z</time>
      </trkpt>
      <trkpt lat="43.697945" lon="-7.978060">
        <ele>470.211</ele>
        <time>2016-09-26T09:09:36Z</time>
      </trkpt>
      <trkpt lat="43.697939" lon="-7.978085">
        <ele>470.208</ele>
        <time>2016-09-26T09:09:37Z</time>
      </trkpt>
      <trkpt lat="43.697929" lon="-7.978111">
        <ele>470.476</ele>
        <time>2016-09-26T09:09:38Z</time>
      </trkpt>
      <trkpt lat="43.697919" lon="-7.978137">
        <ele>470.651</ele>
        <time>2016-09-26T09:09:39Z</time>
      </trkpt>
      <trkpt lat="43.697913" lon="-7.978161">
        <ele>470.769</ele>
        <time>2016-09-26T09:09:40Z</time>
      </trkpt>
      <trkpt lat="43.697907" lon="-7.978186">
        <ele>470.625</ele>
        <time>2016-09-26T09:09:41Z</time>
      </trkpt>
      <trkpt lat="43.697898" lon="-7.978211">
        <ele>470.659</ele>
        <time>2016-09-26T09:09:42Z</time>
      </trkpt>
      <trkpt lat="43.697885" lon="-7.978236">
        <ele>470.931</ele>
        <time>2016-09-26T09:09:43Z</time>
      </trkpt>
      <trkpt lat="43.697875" lon="-7.978260">
        <ele>471.064</ele>
        <time>2016-09-26T09:09:44Z</time>
      </trkpt>
      <trkpt lat="43.697863" lon="-7.978284">
        <ele>471.352</ele>
        <time>2016-09-26T09:09:45Z</time>
      </trkpt>
      <trkpt lat="43.697849" lon="-7.978311">
        <ele>471.424</ele>
        <time>2016-09-26T09:09:46Z</time>
      </trkpt>
      <trkpt lat="43.697841" lon="-7.978334">
        <ele>471.604</ele>
        <time>2016-09-26T09:09:47Z</time>
      </trkpt>
      <trkpt lat="43.697838" lon="-7.978354">
        <ele>471.714</ele>
        <time>2016-09-26T09:09:48Z</time>
      </trkpt>
      <trkpt lat="43.697830" lon="-7.978375">
        <ele>471.908</ele>
        <time>2016-09-26T09:09:49Z</time>
      </trkpt>
      <trkpt lat="43.697818" lon="-7.978397">
        <ele>472.093</ele>
        <time>2016-09-26T09:09:50Z</time>
      </trkpt>
      <trkpt lat="43.697805" lon="-7.978425">
        <ele>472.178</ele>
        <time>2016-09-26T09:09:51Z</time>
      </trkpt>
      <trkpt lat="43.697798" lon="-7.978451">
        <ele>472.126</ele>
        <time>2016-09-26T09:09:52Z</time>
      </trkpt>
      <trkpt lat="43.697791" lon="-7.978472">
        <ele>472.462</ele>
        <time>2016-09-26T09:09:53Z</time>
      </trkpt>
      <trkpt lat="43.697782" lon="-7.978495">
        <ele>472.496</ele>
        <time>2016-09-26T09:09:54Z</time>
      </trkpt>
      <trkpt lat="43.697775" lon="-7.978519">
        <ele>472.428</ele>
        <time>2016-09-26T09:09:55Z</time>
      </trkpt>
      <trkpt lat="43.697768" lon="-7.978544">
        <ele>472.541</ele>
        <time>2016-09-26T09:09:56Z</time>
      </trkpt>
      <trkpt lat="43.697760" lon="-7.978569">
        <ele>472.689</ele>
        <time>2016-09-26T09:09:57Z</time>
      </trkpt>
      <trkpt lat="43.697746" lon="-7.978594">
        <ele>472.811</ele>
        <time>2016-09-26T09:09:58Z</time>
      </trkpt>
      <trkpt lat="43.697736" lon="-7.978621">
        <ele>472.821</ele>
        <time>2016-09-26T09:09:59Z</time>
      </trkpt>
      <trkpt lat="43.697730" lon="-7.978645">
        <ele>472.903</ele>
        <time>2016-09-26T09:10:00Z</time>
      </trkpt>
      <trkpt lat="43.697724" lon="-7.978665">
        <ele>473.008</ele>
        <time>2016-09-26T09:10:01Z</time>
      </trkpt>
      <trkpt lat="43.697716" lon="-7.978686">
        <ele>473.072</ele>
        <time>2016-09-26T09:10:02Z</time>
      </trkpt>
      <trkpt lat="43.697702" lon="-7.978716">
        <ele>473.147</ele>
        <time>2016-09-26T09:10:03Z</time>
      </trkpt>
      <trkpt lat="43.697684" lon="-7.978754">
        <ele>473.415</ele>
        <time>2016-09-26T09:10:04Z</time>
      </trkpt>
      <trkpt lat="43.697670" lon="-7.978789">
        <ele>473.611</ele>
        <time>2016-09-26T09:10:05Z</time>
      </trkpt>
      <trkpt lat="43.697654" lon="-7.978821">
        <ele>473.735</ele>
        <time>2016-09-26T09:10:06Z</time>
      </trkpt>
      <trkpt lat="43.697642" lon="-7.978849">
        <ele>473.817</ele>
        <time>2016-09-26T09:10:07Z</time>
      </trkpt>
      <trkpt lat="43.697630" lon="-7.978879">
        <ele>474.020</ele>
        <time>2016-09-26T09:10:08Z</time>
      </trkpt>
      <trkpt lat="43.697620" lon="-7.978908">
        <ele>474.218</ele>
        <time>2016-09-26T09:10:09Z</time>
      </trkpt>
      <trkpt lat="43.697610" lon="-7.978937">
        <ele>474.545</ele>
        <time>2016-09-26T09:10:10Z</time>
      </trkpt>
      <trkpt lat="43.697598" lon="-7.978965">
        <ele>474.547</ele>
        <time>2016-09-26T09:10:11Z</time>
      </trkpt>
      <trkpt lat="43.697587" lon="-7.978994">
        <ele>474.411</ele>
        <time>2016-09-26T09:10:12Z</time>
      </trkpt>
      <trkpt lat="43.697576" lon="-7.979022">
        <ele>474.608</ele>
        <time>2016-09-26T09:10:13Z</time>
      </trkpt>
      <trkpt lat="43.697564" lon="-7.979048">
        <ele>474.895</ele>
        <time>2016-09-26T09:10:14Z</time>
      </trkpt>
      <trkpt lat="43.697551" lon="-7.979074">
        <ele>474.830</ele>
        <time>2016-09-26T09:10:15Z</time>
      </trkpt>
      <trkpt lat="43.697539" lon="-7.979101">
        <ele>474.868</ele>
        <time>2016-09-26T09:10:16Z</time>
      </trkpt>
      <trkpt lat="43.697527" lon="-7.979129">
        <ele>475.084</ele>
        <time>2016-09-26T09:10:17Z</time>
      </trkpt>
      <trkpt lat="43.697515" lon="-7.979157">
        <ele>475.178</ele>
        <time>2016-09-26T09:10:18Z</time>
      </trkpt>
      <trkpt lat="43.697505" lon="-7.979186">
        <ele>475.410</ele>
        <time>2016-09-26T09:10:19Z</time>
      </trkpt>
      <trkpt lat="43.697495" lon="-7.979213">
        <ele>475.553</ele>
        <time>2016-09-26T09:10:20Z</time>
      </trkpt>
      <trkpt lat="43.697484" lon="-7.979238">
        <ele>475.661</ele>
        <time>2016-09-26T09:10:21Z</time>
      </trkpt>
      <trkpt lat="43.697472" lon="-7.979262">
        <ele>475.447</ele>
        <time>2016-09-26T09:10:22Z</time>
      </trkpt>
      <trkpt lat="43.697462" lon="-7.979289">
        <ele>475.529</ele>
        <time>2016-09-26T09:10:23Z</time>
      </trkpt>
      <trkpt lat="43.697449" lon="-7.979322">
        <ele>475.421</ele>
        <time>2016-09-26T09:10:24Z</time>
      </trkpt>
      <trkpt lat="43.697438" lon="-7.979356">
        <ele>475.408</ele>
        <time>2016-09-26T09:10:25Z</time>
      </trkpt>
      <trkpt lat="43.697429" lon="-7.979390">
        <ele>475.225</ele>
        <time>2016-09-26T09:10:26Z</time>
      </trkpt>
      <trkpt lat="43.697419" lon="-7.979425">
        <ele>475.150</ele>
        <time>2016-09-26T09:10:27Z</time>
      </trkpt>
      <trkpt lat="43.697409" lon="-7.979463">
        <ele>474.978</ele>
        <time>2016-09-26T09:10:28Z</time>
      </trkpt>
      <trkpt lat="43.697397" lon="-7.979503">
        <ele>474.944</ele>
        <time>2016-09-26T09:10:29Z</time>
      </trkpt>
      <trkpt lat="43.697386" lon="-7.979542">
        <ele>474.818</ele>
        <time>2016-09-26T09:10:30Z</time>
      </trkpt>
      <trkpt lat="43.697372" lon="-7.979579">
        <ele>474.710</ele>
        <time>2016-09-26T09:10:31Z</time>
      </trkpt>
      <trkpt lat="43.697358" lon="-7.979615">
        <ele>474.593</ele>
        <time>2016-09-26T09:10:32Z</time>
      </trkpt>
      <trkpt lat="43.697344" lon="-7.979651">
        <ele>474.321</ele>
        <time>2016-09-26T09:10:33Z</time>
      </trkpt>
      <trkpt lat="43.697329" lon="-7.979689">
        <ele>474.224</ele>
        <time>2016-09-26T09:10:34Z</time>
      </trkpt>
      <trkpt lat="43.697318" lon="-7.979730">
        <ele>473.904</ele>
        <time>2016-09-26T09:10:35Z</time>
      </trkpt>
      <trkpt lat="43.697306" lon="-7.979773">
        <ele>473.814</ele>
        <time>2016-09-26T09:10:36Z</time>
      </trkpt>
      <trkpt lat="43.697300" lon="-7.979816">
        <ele>473.708</ele>
        <time>2016-09-26T09:10:37Z</time>
      </trkpt>
      <trkpt lat="43.697296" lon="-7.979858">
        <ele>473.623</ele>
        <time>2016-09-26T09:10:38Z</time>
      </trkpt>
      <trkpt lat="43.697296" lon="-7.979901">
        <ele>473.318</ele>
        <time>2016-09-26T09:10:39Z</time>
      </trkpt>
      <trkpt lat="43.697290" lon="-7.979939">
        <ele>473.136</ele>
        <time>2016-09-26T09:10:40Z</time>
      </trkpt>
      <trkpt lat="43.697284" lon="-7.979978">
        <ele>472.872</ele>
        <time>2016-09-26T09:10:41Z</time>
      </trkpt>
      <trkpt lat="43.697278" lon="-7.980013">
        <ele>472.686</ele>
        <time>2016-09-26T09:10:42Z</time>
      </trkpt>
      <trkpt lat="43.697270" lon="-7.980046">
        <ele>472.548</ele>
        <time>2016-09-26T09:10:43Z</time>
      </trkpt>
      <trkpt lat="43.697269" lon="-7.980084">
        <ele>472.371</ele>
        <time>2016-09-26T09:10:44Z</time>
      </trkpt>
      <trkpt lat="43.697270" lon="-7.980122">
        <ele>472.169</ele>
        <time>2016-09-26T09:10:45Z</time>
      </trkpt>
      <trkpt lat="43.697273" lon="-7.980159">
        <ele>471.955</ele>
        <time>2016-09-26T09:10:46Z</time>
      </trkpt>
      <trkpt lat="43.697276" lon="-7.980195">
        <ele>471.807</ele>
        <time>2016-09-26T09:10:47Z</time>
      </trkpt>
      <trkpt lat="43.697274" lon="-7.980227">
        <ele>471.717</ele>
        <time>2016-09-26T09:10:48Z</time>
      </trkpt>
      <trkpt lat="43.697271" lon="-7.980259">
        <ele>471.608</ele>
        <time>2016-09-26T09:10:49Z</time>
      </trkpt>
      <trkpt lat="43.697266" lon="-7.980290">
        <ele>471.436</ele>
        <time>2016-09-26T09:10:50Z</time>
      </trkpt>
      <trkpt lat="43.697258" lon="-7.980319">
        <ele>471.171</ele>
        <time>2016-09-26T09:10:51Z</time>
      </trkpt>
      <trkpt lat="43.697263" lon="-7.980349">
        <ele>470.949</ele>
        <time>2016-09-26T09:10:52Z</time>
      </trkpt>
      <trkpt lat="43.697274" lon="-7.980379">
        <ele>470.535</ele>
        <time>2016-09-26T09:10:53Z</time>
      </trkpt>
      <trkpt lat="43.697280" lon="-7.980411">
        <ele>470.389</ele>
        <time>2016-09-26T09:10:54Z</time>
      </trkpt>
      <trkpt lat="43.697281" lon="-7.980449">
        <ele>470.031</ele>
        <time>2016-09-26T09:10:55Z</time>
      </trkpt>
      <trkpt lat="43.697277" lon="-7.980488">
        <ele>469.944</ele>
        <time>2016-09-26T09:10:56Z</time>
      </trkpt>
      <trkpt lat="43.697272" lon="-7.980528">
        <ele>469.842</ele>
        <time>2016-09-26T09:10:57Z</time>
      </trkpt>
      <trkpt lat="43.697269" lon="-7.980564">
        <ele>469.519</ele>
        <time>2016-09-26T09:10:58Z</time>
      </trkpt>
      <trkpt lat="43.697262" lon="-7.980598">
        <ele>469.109</ele>
        <time>2016-09-26T09:10:59Z</time>
      </trkpt>
      <trkpt lat="43.697261" lon="-7.980639">
        <ele>468.919</ele>
        <time>2016-09-26T09:11:00Z</time>
      </trkpt>
      <trkpt lat="43.697260" lon="-7.980682">
        <ele>468.608</ele>
        <time>2016-09-26T09:11:01Z</time>
      </trkpt>
      <trkpt lat="43.697259" lon="-7.980726">
        <ele>468.462</ele>
        <time>2016-09-26T09:11:02Z</time>
      </trkpt>
      <trkpt lat="43.697260" lon="-7.980777">
        <ele>468.347</ele>
        <time>2016-09-26T09:11:03Z</time>
      </trkpt>
      <trkpt lat="43.697260" lon="-7.980834">
        <ele>468.075</ele>
        <time>2016-09-26T09:11:04Z</time>
      </trkpt>
      <trkpt lat="43.697255" lon="-7.980895">
        <ele>467.811</ele>
        <time>2016-09-26T09:11:05Z</time>
      </trkpt>
      <trkpt lat="43.697246" lon="-7.980962">
        <ele>467.555</ele>
        <time>2016-09-26T09:11:06Z</time>
      </trkpt>
      <trkpt lat="43.697244" lon="-7.981027">
        <ele>467.417</ele>
        <time>2016-09-26T09:11:07Z</time>
      </trkpt>
      <trkpt lat="43.697239" lon="-7.981088">
        <ele>467.230</ele>
        <time>2016-09-26T09:11:08Z</time>
      </trkpt>
      <trkpt lat="43.697230" lon="-7.981149">
        <ele>466.618</ele>
        <time>2016-09-26T09:11:09Z</time>
      </trkpt>
      <trkpt lat="43.697221" lon="-7.981208">
        <ele>466.213</ele>
        <time>2016-09-26T09:11:10Z</time>
      </trkpt>
      <trkpt lat="43.697213" lon="-7.981271">
        <ele>466.043</ele>
        <time>2016-09-26T09:11:11Z</time>
      </trkpt>
      <trkpt lat="43.697205" lon="-7.981333">
        <ele>465.707</ele>
        <time>2016-09-26T09:11:12Z</time>
      </trkpt>
      <trkpt lat="43.697195" lon="-7.981397">
        <ele>465.408</ele>
        <time>2016-09-26T09:11:13Z</time>
      </trkpt>
      <trkpt lat="43.697181" lon="-7.981462">
        <ele>465.012</ele>
        <time>2016-09-26T09:11:14Z</time>
      </trkpt>
      <trkpt lat="43.697169" lon="-7.981521">
        <ele>464.537</ele>
        <time>2016-09-26T09:11:15Z</time>
      </trkpt>
      <trkpt lat="43.697154" lon="-7.981577">
        <ele>464.195</ele>
        <time>2016-09-26T09:11:16Z</time>
      </trkpt>
      <trkpt lat="43.697146" lon="-7.981635">
        <ele>463.541</ele>
        <time>2016-09-26T09:11:17Z</time>
      </trkpt>
      <trkpt lat="43.697144" lon="-7.981698">
        <ele>463.065</ele>
        <time>2016-09-26T09:11:18Z</time>
      </trkpt>
      <trkpt lat="43.697141" lon="-7.981762">
        <ele>462.717</ele>
        <time>2016-09-26T09:11:19Z</time>
      </trkpt>
      <trkpt lat="43.697135" lon="-7.981827">
        <ele>462.390</ele>
        <time>2016-09-26T09:11:20Z</time>
      </trkpt>
      <trkpt lat="43.697130" lon="-7.981885">
        <ele>461.818</ele>
        <time>2016-09-26T09:11:21Z</time>
      </trkpt>
      <trkpt lat="43.697124" lon="-7.981934">
        <ele>461.424</ele>
        <time>2016-09-26T09:11:22Z</time>
      </trkpt>
      <trkpt lat="43.697113" lon="-7.981972">
        <ele>461.004</ele>
        <time>2016-09-26T09:11:23Z</time>
      </trkpt>
      <trkpt lat="43.697106" lon="-7.982013">
        <ele>460.614</ele>
        <time>2016-09-26T09:11:24Z</time>
      </trkpt>
      <trkpt lat="43.697100" lon="-7.982065">
        <ele>460.408</ele>
        <time>2016-09-26T09:11:25Z</time>
      </trkpt>
      <trkpt lat="43.697093" lon="-7.982125">
        <ele>460.123</ele>
        <time>2016-09-26T09:11:26Z</time>
      </trkpt>
      <trkpt lat="43.697088" lon="-7.982186">
        <ele>459.568</ele>
        <time>2016-09-26T09:11:27Z</time>
      </trkpt>
      <trkpt lat="43.697083" lon="-7.982235">
        <ele>459.286</ele>
        <time>2016-09-26T09:11:28Z</time>
      </trkpt>
      <trkpt lat="43.697079" lon="-7.982274">
        <ele>458.832</ele>
        <time>2016-09-26T09:11:29Z</time>
      </trkpt>
      <trkpt lat="43.697077" lon="-7.982317">
        <ele>458.166</ele>
        <time>2016-09-26T09:11:30Z</time>
      </trkpt>
      <trkpt lat="43.697074" lon="-7.982363">
        <ele>457.868</ele>
        <time>2016-09-26T09:11:31Z</time>
      </trkpt>
      <trkpt lat="43.697072" lon="-7.982412">
        <ele>457.531</ele>
        <time>2016-09-26T09:11:32Z</time>
      </trkpt>
      <trkpt lat="43.697073" lon="-7.982460">
        <ele>457.289</ele>
        <time>2016-09-26T09:11:33Z</time>
      </trkpt>
      <trkpt lat="43.697069" lon="-7.982506">
        <ele>456.749</ele>
        <time>2016-09-26T09:11:34Z</time>
      </trkpt>
      <trkpt lat="43.697060" lon="-7.982554">
        <ele>456.502</ele>
        <time>2016-09-26T09:11:35Z</time>
      </trkpt>
      <trkpt lat="43.697054" lon="-7.982606">
        <ele>456.122</ele>
        <time>2016-09-26T09:11:36Z</time>
      </trkpt>
      <trkpt lat="43.697051" lon="-7.982662">
        <ele>455.808</ele>
        <time>2016-09-26T09:11:37Z</time>
      </trkpt>
      <trkpt lat="43.697045" lon="-7.982719">
        <ele>455.465</ele>
        <time>2016-09-26T09:11:38Z</time>
      </trkpt>
      <trkpt lat="43.697043" lon="-7.982778">
        <ele>455.140</ele>
        <time>2016-09-26T09:11:39Z</time>
      </trkpt>
      <trkpt lat="43.697040" lon="-7.982835">
        <ele>454.958</ele>
        <time>2016-09-26T09:11:40Z</time>
      </trkpt>
      <trkpt lat="43.697043" lon="-7.982895">
        <ele>454.744</ele>
        <time>2016-09-26T09:11:41Z</time>
      </trkpt>
      <trkpt lat="43.697049" lon="-7.982962">
        <ele>454.268</ele>
        <time>2016-09-26T09:11:42Z</time>
      </trkpt>
      <trkpt lat="43.697053" lon="-7.983029">
        <ele>454.080</ele>
        <time>2016-09-26T09:11:43Z</time>
      </trkpt>
      <trkpt lat="43.697056" lon="-7.983095">
        <ele>453.873</ele>
        <time>2016-09-26T09:11:44Z</time>
      </trkpt>
      <trkpt lat="43.697053" lon="-7.983157">
        <ele>453.741</ele>
        <time>2016-09-26T09:11:45Z</time>
      </trkpt>
      <trkpt lat="43.697050" lon="-7.983222">
        <ele>453.591</ele>
        <time>2016-09-26T09:11:46Z</time>
      </trkpt>
      <trkpt lat="43.697042" lon="-7.983289">
        <ele>453.081</ele>
        <time>2016-09-26T09:11:47Z</time>
      </trkpt>
      <trkpt lat="43.697040" lon="-7.983357">
        <ele>452.819</ele>
        <time>2016-09-26T09:11:48Z</time>
      </trkpt>
      <trkpt lat="43.697034" lon="-7.983422">
        <ele>452.308</ele>
        <time>2016-09-26T09:11:49Z</time>
      </trkpt>
      <trkpt lat="43.697028" lon="-7.983485">
        <ele>452.160</ele>
        <time>2016-09-26T09:11:50Z</time>
      </trkpt>
      <trkpt lat="43.697025" lon="-7.983549">
        <ele>451.755</ele>
        <time>2016-09-26T09:11:51Z</time>
      </trkpt>
      <trkpt lat="43.697016" lon="-7.983610">
        <ele>451.443</ele>
        <time>2016-09-26T09:11:52Z</time>
      </trkpt>
      <trkpt lat="43.697010" lon="-7.983676">
        <ele>451.019</ele>
        <time>2016-09-26T09:11:53Z</time>
      </trkpt>
      <trkpt lat="43.697005" lon="-7.983741">
        <ele>450.943</ele>
        <time>2016-09-26T09:11:54Z</time>
      </trkpt>
      <trkpt lat="43.697000" lon="-7.983800">
        <ele>450.785</ele>
        <time>2016-09-26T09:11:55Z</time>
      </trkpt>
      <trkpt lat="43.697000" lon="-7.983854">
        <ele>450.548</ele>
        <time>2016-09-26T09:11:56Z</time>
      </trkpt>
      <trkpt lat="43.697005" lon="-7.983909">
        <ele>449.976</ele>
        <time>2016-09-26T09:11:57Z</time>
      </trkpt>
      <trkpt lat="43.697005" lon="-7.983957">
        <ele>449.463</ele>
        <time>2016-09-26T09:11:58Z</time>
      </trkpt>
      <trkpt lat="43.697006" lon="-7.984006">
        <ele>449.144</ele>
        <time>2016-09-26T09:11:59Z</time>
      </trkpt>
      <trkpt lat="43.697006" lon="-7.984056">
        <ele>448.818</ele>
        <time>2016-09-26T09:12:00Z</time>
      </trkpt>
      <trkpt lat="43.697011" lon="-7.984110">
        <ele>448.408</ele>
        <time>2016-09-26T09:12:01Z</time>
      </trkpt>
      <trkpt lat="43.697019" lon="-7.984167">
        <ele>447.727</ele>
        <time>2016-09-26T09:12:02Z</time>
      </trkpt>
      <trkpt lat="43.697032" lon="-7.984232">
        <ele>447.272</ele>
        <time>2016-09-26T09:12:03Z</time>
      </trkpt>
      <trkpt lat="43.697048" lon="-7.984302">
        <ele>447.080</ele>
        <time>2016-09-26T09:12:04Z</time>
      </trkpt>
      <trkpt lat="43.697065" lon="-7.984379">
        <ele>446.786</ele>
        <time>2016-09-26T09:12:05Z</time>
      </trkpt>
      <trkpt lat="43.697080" lon="-7.984462">
        <ele>446.570</ele>
        <time>2016-09-26T09:12:06Z</time>
      </trkpt>
      <trkpt lat="43.697092" lon="-7.984552">
        <ele>446.032</ele>
        <time>2016-09-26T09:12:07Z</time>
      </trkpt>
      <trkpt lat="43.697102" lon="-7.984643">
        <ele>445.645</ele>
        <time>2016-09-26T09:12:08Z</time>
      </trkpt>
      <trkpt lat="43.697113" lon="-7.984736">
        <ele>445.293</ele>
        <time>2016-09-26T09:12:09Z</time>
      </trkpt>
      <trkpt lat="43.697128" lon="-7.984827">
        <ele>445.225</ele>
        <time>2016-09-26T09:12:10Z</time>
      </trkpt>
      <trkpt lat="43.697141" lon="-7.984916">
        <ele>444.926</ele>
        <time>2016-09-26T09:12:11Z</time>
      </trkpt>
      <trkpt lat="43.697156" lon="-7.985003">
        <ele>444.808</ele>
        <time>2016-09-26T09:12:12Z</time>
      </trkpt>
      <trkpt lat="43.697171" lon="-7.985083">
        <ele>444.308</ele>
        <time>2016-09-26T09:12:13Z</time>
      </trkpt>
      <trkpt lat="43.697183" lon="-7.985150">
        <ele>444.163</ele>
        <time>2016-09-26T09:12:14Z</time>
      </trkpt>
      <trkpt lat="43.697190" lon="-7.985203">
        <ele>443.858</ele>
        <time>2016-09-26T09:12:15Z</time>
      </trkpt>
      <trkpt lat="43.697196" lon="-7.985247">
        <ele>443.536</ele>
        <time>2016-09-26T09:12:16Z</time>
      </trkpt>
      <trkpt lat="43.697200" lon="-7.985288">
        <ele>443.462</ele>
        <time>2016-09-26T09:12:17Z</time>
      </trkpt>
      <trkpt lat="43.697205" lon="-7.985331">
        <ele>443.196</ele>
        <time>2016-09-26T09:12:18Z</time>
      </trkpt>
      <trkpt lat="43.697211" lon="-7.985376">
        <ele>443.058</ele>
        <time>2016-09-26T09:12:19Z</time>
      </trkpt>
      <trkpt lat="43.697216" lon="-7.985423">
        <ele>442.741</ele>
        <time>2016-09-26T09:12:20Z</time>
      </trkpt>
      <trkpt lat="43.697222" lon="-7.985472">
        <ele>442.749</ele>
        <time>2016-09-26T09:12:21Z</time>
      </trkpt>
      <trkpt lat="43.697227" lon="-7.985521">
        <ele>442.758</ele>
        <time>2016-09-26T09:12:22Z</time>
      </trkpt>
      <trkpt lat="43.697228" lon="-7.985573">
        <ele>442.652</ele>
        <time>2016-09-26T09:12:23Z</time>
      </trkpt>
      <trkpt lat="43.697223" lon="-7.985624">
        <ele>442.417</ele>
        <time>2016-09-26T09:12:24Z</time>
      </trkpt>
      <trkpt lat="43.697222" lon="-7.985671">
        <ele>442.408</ele>
        <time>2016-09-26T09:12:25Z</time>
      </trkpt>
      <trkpt lat="43.697222" lon="-7.985716">
        <ele>442.176</ele>
        <time>2016-09-26T09:12:26Z</time>
      </trkpt>
      <trkpt lat="43.697223" lon="-7.985763">
        <ele>441.961</ele>
        <time>2016-09-26T09:12:27Z</time>
      </trkpt>
      <trkpt lat="43.697225" lon="-7.985814">
        <ele>441.759</ele>
        <time>2016-09-26T09:12:28Z</time>
      </trkpt>
      <trkpt lat="43.697226" lon="-7.985870">
        <ele>441.675</ele>
        <time>2016-09-26T09:12:29Z</time>
      </trkpt>
      <trkpt lat="43.697226" lon="-7.985925">
        <ele>441.299</ele>
        <time>2016-09-26T09:12:30Z</time>
      </trkpt>
      <trkpt lat="43.697227" lon="-7.985979">
        <ele>440.891</ele>
        <time>2016-09-26T09:12:31Z</time>
      </trkpt>
      <trkpt lat="43.697227" lon="-7.986030">
        <ele>440.654</ele>
        <time>2016-09-26T09:12:32Z</time>
      </trkpt>
      <trkpt lat="43.697227" lon="-7.986082">
        <ele>440.212</ele>
        <time>2016-09-26T09:12:33Z</time>
      </trkpt>
      <trkpt lat="43.697227" lon="-7.986136">
        <ele>439.892</ele>
        <time>2016-09-26T09:12:34Z</time>
      </trkpt>
      <trkpt lat="43.697226" lon="-7.986191">
        <ele>439.373</ele>
        <time>2016-09-26T09:12:35Z</time>
      </trkpt>
      <trkpt lat="43.697223" lon="-7.986242">
        <ele>438.820</ele>
        <time>2016-09-26T09:12:36Z</time>
      </trkpt>
      <trkpt lat="43.697221" lon="-7.986290">
        <ele>438.308</ele>
        <time>2016-09-26T09:12:37Z</time>
      </trkpt>
      <trkpt lat="43.697221" lon="-7.986334">
        <ele>438.070</ele>
        <time>2016-09-26T09:12:38Z</time>
      </trkpt>
      <trkpt lat="43.697222" lon="-7.986373">
        <ele>437.545</ele>
        <time>2016-09-26T09:12:39Z</time>
      </trkpt>
      <trkpt lat="43.697219" lon="-7.986409">
        <ele>437.073</ele>
        <time>2016-09-26T09:12:40Z</time>
      </trkpt>
      <trkpt lat="43.697218" lon="-7.986444">
        <ele>436.779</ele>
        <time>2016-09-26T09:12:41Z</time>
      </trkpt>
      <trkpt lat="43.697221" lon="-7.986477">
        <ele>436.243</ele>
        <time>2016-09-26T09:12:42Z</time>
      </trkpt>
      <trkpt lat="43.697228" lon="-7.986508">
        <ele>435.815</ele>
        <time>2016-09-26T09:12:43Z</time>
      </trkpt>
      <trkpt lat="43.697237" lon="-7.986541">
        <ele>435.648</ele>
        <time>2016-09-26T09:12:44Z</time>
      </trkpt>
      <trkpt lat="43.697250" lon="-7.986572">
        <ele>435.146</ele>
        <time>2016-09-26T09:12:45Z</time>
      </trkpt>
      <trkpt lat="43.697269" lon="-7.986599">
        <ele>434.982</ele>
        <time>2016-09-26T09:12:46Z</time>
      </trkpt>
      <trkpt lat="43.697291" lon="-7.986621">
        <ele>434.743</ele>
        <time>2016-09-26T09:12:47Z</time>
      </trkpt>
      <trkpt lat="43.697314" lon="-7.986638">
        <ele>434.417</ele>
        <time>2016-09-26T09:12:48Z</time>
      </trkpt>
      <trkpt lat="43.697337" lon="-7.986651">
        <ele>434.208</ele>
        <time>2016-09-26T09:12:49Z</time>
      </trkpt>
      <trkpt lat="43.697362" lon="-7.986662">
        <ele>434.099</ele>
        <time>2016-09-26T09:12:50Z</time>
      </trkpt>
      <trkpt lat="43.697389" lon="-7.986666">
        <ele>433.714</ele>
        <time>2016-09-26T09:12:51Z</time>
      </trkpt>
      <trkpt lat="43.697419" lon="-7.986664">
        <ele>433.512</ele>
        <time>2016-09-26T09:12:52Z</time>
      </trkpt>
      <trkpt lat="43.697448" lon="-7.986659">
        <ele>433.058</ele>
        <time>2016-09-26T09:12:53Z</time>
      </trkpt>
      <trkpt lat="43.697478" lon="-7.986652">
        <ele>432.622</ele>
        <time>2016-09-26T09:12:54Z</time>
      </trkpt>
      <trkpt lat="43.697506" lon="-7.986641">
        <ele>432.374</ele>
        <time>2016-09-26T09:12:55Z</time>
      </trkpt>
      <trkpt lat="43.697531" lon="-7.986628">
        <ele>432.067</ele>
        <time>2016-09-26T09:12:56Z</time>
      </trkpt>
      <trkpt lat="43.697556" lon="-7.986613">
        <ele>431.785</ele>
        <time>2016-09-26T09:12:57Z</time>
      </trkpt>
      <trkpt lat="43.697579" lon="-7.986596">
        <ele>431.563</ele>
        <time>2016-09-26T09:12:58Z</time>
      </trkpt>
      <trkpt lat="43.697603" lon="-7.986579">
        <ele>431.244</ele>
        <time>2016-09-26T09:12:59Z</time>
      </trkpt>
      <trkpt lat="43.697627" lon="-7.986561">
        <ele>430.718</ele>
        <time>2016-09-26T09:13:00Z</time>
      </trkpt>
      <trkpt lat="43.697652" lon="-7.986545">
        <ele>430.508</ele>
        <time>2016-09-26T09:13:01Z</time>
      </trkpt>
      <trkpt lat="43.697680" lon="-7.986530">
        <ele>430.127</ele>
        <time>2016-09-26T09:13:02Z</time>
      </trkpt>
      <trkpt lat="43.697713" lon="-7.986513">
        <ele>429.782</ele>
        <time>2016-09-26T09:13:03Z</time>
      </trkpt>
      <trkpt lat="43.697746" lon="-7.986495">
        <ele>429.390</ele>
        <time>2016-09-26T09:13:04Z</time>
      </trkpt>
      <trkpt lat="43.697777" lon="-7.986479">
        <ele>429.186</ele>
        <time>2016-09-26T09:13:05Z</time>
      </trkpt>
      <trkpt lat="43.697803" lon="-7.986465">
        <ele>429.070</ele>
        <time>2016-09-26T09:13:06Z</time>
      </trkpt>
      <trkpt lat="43.697829" lon="-7.986453">
        <ele>428.682</ele>
        <time>2016-09-26T09:13:07Z</time>
      </trkpt>
      <trkpt lat="43.697853" lon="-7.986440">
        <ele>428.465</ele>
        <time>2016-09-26T09:13:08Z</time>
      </trkpt>
      <trkpt lat="43.697877" lon="-7.986427">
        <ele>428.353</ele>
        <time>2016-09-26T09:13:09Z</time>
      </trkpt>
      <trkpt lat="43.697900" lon="-7.986412">
        <ele>428.172</ele>
        <time>2016-09-26T09:13:10Z</time>
      </trkpt>
      <trkpt lat="43.697924" lon="-7.986392">
        <ele>427.713</ele>
        <time>2016-09-26T09:13:11Z</time>
      </trkpt>
      <trkpt lat="43.697951" lon="-7.986368">
        <ele>427.214</ele>
        <time>2016-09-26T09:13:12Z</time>
      </trkpt>
      <trkpt lat="43.697981" lon="-7.986341">
        <ele>427.108</ele>
        <time>2016-09-26T09:13:13Z</time>
      </trkpt>
      <trkpt lat="43.698013" lon="-7.986312">
        <ele>427.038</ele>
        <time>2016-09-26T09:13:14Z</time>
      </trkpt>
      <trkpt lat="43.698044" lon="-7.986282">
        <ele>426.953</ele>
        <time>2016-09-26T09:13:15Z</time>
      </trkpt>
      <trkpt lat="43.698074" lon="-7.986252">
        <ele>426.921</ele>
        <time>2016-09-26T09:13:16Z</time>
      </trkpt>
      <trkpt lat="43.698106" lon="-7.986220">
        <ele>426.357</ele>
        <time>2016-09-26T09:13:17Z</time>
      </trkpt>
      <trkpt lat="43.698137" lon="-7.986189">
        <ele>426.141</ele>
        <time>2016-09-26T09:13:18Z</time>
      </trkpt>
      <trkpt lat="43.698165" lon="-7.986162">
        <ele>425.943</ele>
        <time>2016-09-26T09:13:19Z</time>
      </trkpt>
      <trkpt lat="43.698192" lon="-7.986138">
        <ele>425.576</ele>
        <time>2016-09-26T09:13:20Z</time>
      </trkpt>
      <trkpt lat="43.698221" lon="-7.986112">
        <ele>425.324</ele>
        <time>2016-09-26T09:13:21Z</time>
      </trkpt>
      <trkpt lat="43.698254" lon="-7.986085">
        <ele>425.023</ele>
        <time>2016-09-26T09:13:22Z</time>
      </trkpt>
      <trkpt lat="43.698285" lon="-7.986065">
        <ele>424.583</ele>
        <time>2016-09-26T09:13:23Z</time>
      </trkpt>
      <trkpt lat="43.698316" lon="-7.986053">
        <ele>424.111</ele>
        <time>2016-09-26T09:13:24Z</time>
      </trkpt>
      <trkpt lat="43.698345" lon="-7.986047">
        <ele>423.908</ele>
        <time>2016-09-26T09:13:25Z</time>
      </trkpt>
      <trkpt lat="43.698379" lon="-7.986051">
        <ele>423.523</ele>
        <time>2016-09-26T09:13:26Z</time>
      </trkpt>
      <trkpt lat="43.698415" lon="-7.986064">
        <ele>423.268</ele>
        <time>2016-09-26T09:13:27Z</time>
      </trkpt>
      <trkpt lat="43.698443" lon="-7.986090">
        <ele>423.126</ele>
        <time>2016-09-26T09:13:28Z</time>
      </trkpt>
      <trkpt lat="43.698464" lon="-7.986127">
        <ele>423.062</ele>
        <time>2016-09-26T09:13:29Z</time>
      </trkpt>
      <trkpt lat="43.698477" lon="-7.986176">
        <ele>422.766</ele>
        <time>2016-09-26T09:13:30Z</time>
      </trkpt>
      <trkpt lat="43.698484" lon="-7.986232">
        <ele>422.598</ele>
        <time>2016-09-26T09:13:31Z</time>
      </trkpt>
      <trkpt lat="43.698481" lon="-7.986290">
        <ele>422.251</ele>
        <time>2016-09-26T09:13:32Z</time>
      </trkpt>
      <trkpt lat="43.698471" lon="-7.986349">
        <ele>421.869</ele>
        <time>2016-09-26T09:13:33Z</time>
      </trkpt>
      <trkpt lat="43.698447" lon="-7.986406">
        <ele>421.677</ele>
        <time>2016-09-26T09:13:34Z</time>
      </trkpt>
      <trkpt lat="43.698414" lon="-7.986458">
        <ele>421.661</ele>
        <time>2016-09-26T09:13:35Z</time>
      </trkpt>
      <trkpt lat="43.698381" lon="-7.986507">
        <ele>421.327</ele>
        <time>2016-09-26T09:13:36Z</time>
      </trkpt>
      <trkpt lat="43.698347" lon="-7.986558">
        <ele>421.008</ele>
        <time>2016-09-26T09:13:37Z</time>
      </trkpt>
      <trkpt lat="43.698315" lon="-7.986605">
        <ele>420.738</ele>
        <time>2016-09-26T09:13:38Z</time>
      </trkpt>
      <trkpt lat="43.698287" lon="-7.986644">
        <ele>420.443</ele>
        <time>2016-09-26T09:13:39Z</time>
      </trkpt>
      <trkpt lat="43.698260" lon="-7.986686">
        <ele>420.191</ele>
        <time>2016-09-26T09:13:40Z</time>
      </trkpt>
      <trkpt lat="43.698234" lon="-7.986728">
        <ele>419.957</ele>
        <time>2016-09-26T09:13:41Z</time>
      </trkpt>
      <trkpt lat="43.698205" lon="-7.986769">
        <ele>419.611</ele>
        <time>2016-09-26T09:13:42Z</time>
      </trkpt>
      <trkpt lat="43.698178" lon="-7.986810">
        <ele>419.343</ele>
        <time>2016-09-26T09:13:43Z</time>
      </trkpt>
      <trkpt lat="43.698151" lon="-7.986852">
        <ele>419.136</ele>
        <time>2016-09-26T09:13:44Z</time>
      </trkpt>
      <trkpt lat="43.698123" lon="-7.986890">
        <ele>418.754</ele>
        <time>2016-09-26T09:13:45Z</time>
      </trkpt>
      <trkpt lat="43.698096" lon="-7.986925">
        <ele>418.597</ele>
        <time>2016-09-26T09:13:46Z</time>
      </trkpt>
      <trkpt lat="43.698069" lon="-7.986963">
        <ele>418.323</ele>
        <time>2016-09-26T09:13:47Z</time>
      </trkpt>
      <trkpt lat="43.698040" lon="-7.987007">
        <ele>418.125</ele>
        <time>2016-09-26T09:13:48Z</time>
      </trkpt>
      <trkpt lat="43.698011" lon="-7.987051">
        <ele>417.908</ele>
        <time>2016-09-26T09:13:49Z</time>
      </trkpt>
      <trkpt lat="43.697978" lon="-7.987098">
        <ele>417.820</ele>
        <time>2016-09-26T09:13:50Z</time>
      </trkpt>
      <trkpt lat="43.697945" lon="-7.987144">
        <ele>417.715</ele>
        <time>2016-09-26T09:13:51Z</time>
      </trkpt>
      <trkpt lat="43.697915" lon="-7.987187">
        <ele>417.413</ele>
        <time>2016-09-26T09:13:52Z</time>
      </trkpt>
      <trkpt lat="43.697888" lon="-7.987228">
        <ele>417.049</ele>
        <time>2016-09-26T09:13:53Z</time>
      </trkpt>
      <trkpt lat="43.697863" lon="-7.987265">
        <ele>416.693</ele>
        <time>2016-09-26T09:13:54Z</time>
      </trkpt>
      <trkpt lat="43.697840" lon="-7.987299">
        <ele>416.355</ele>
        <time>2016-09-26T09:13:55Z</time>
      </trkpt>
      <trkpt lat="43.697820" lon="-7.987330">
        <ele>416.248</ele>
        <time>2016-09-26T09:13:56Z</time>
      </trkpt>
      <trkpt lat="43.697802" lon="-7.987362">
        <ele>415.986</ele>
        <time>2016-09-26T09:13:57Z</time>
      </trkpt>
      <trkpt lat="43.697783" lon="-7.987395">
        <ele>415.879</ele>
        <time>2016-09-26T09:13:58Z</time>
      </trkpt>
      <trkpt lat="43.697765" lon="-7.987425">
        <ele>415.405</ele>
        <time>2016-09-26T09:13:59Z</time>
      </trkpt>
      <trkpt lat="43.697747" lon="-7.987456">
        <ele>415.325</ele>
        <time>2016-09-26T09:14:00Z</time>
      </trkpt>
      <trkpt lat="43.697730" lon="-7.987486">
        <ele>415.108</ele>
        <time>2016-09-26T09:14:01Z</time>
      </trkpt>
      <trkpt lat="43.697711" lon="-7.987510">
        <ele>414.968</ele>
        <time>2016-09-26T09:14:02Z</time>
      </trkpt>
      <trkpt lat="43.697692" lon="-7.987536">
        <ele>414.773</ele>
        <time>2016-09-26T09:14:03Z</time>
      </trkpt>
      <trkpt lat="43.697674" lon="-7.987566">
        <ele>414.591</ele>
        <time>2016-09-26T09:14:04Z</time>
      </trkpt>
      <trkpt lat="43.697659" lon="-7.987594">
        <ele>414.467</ele>
        <time>2016-09-26T09:14:05Z</time>
      </trkpt>
      <trkpt lat="43.697645" lon="-7.987625">
        <ele>414.181</ele>
        <time>2016-09-26T09:14:06Z</time>
      </trkpt>
      <trkpt lat="43.697632" lon="-7.987659">
        <ele>413.823</ele>
        <time>2016-09-26T09:14:07Z</time>
      </trkpt>
      <trkpt lat="43.697627" lon="-7.987695">
        <ele>413.646</ele>
        <time>2016-09-26T09:14:08Z</time>
      </trkpt>
      <trkpt lat="43.697627" lon="-7.987727">
        <ele>413.264</ele>
        <time>2016-09-26T09:14:09Z</time>
      </trkpt>
      <trkpt lat="43.697633" lon="-7.987757">
        <ele>412.934</ele>
        <time>2016-09-26T09:14:10Z</time>
      </trkpt>
      <trkpt lat="43.697643" lon="-7.987785">
        <ele>412.655</ele>
        <time>2016-09-26T09:14:11Z</time>
      </trkpt>
      <trkpt lat="43.697655" lon="-7.987810">
        <ele>412.410</ele>
        <time>2016-09-26T09:14:12Z</time>
      </trkpt>
      <trkpt lat="43.697668" lon="-7.987830">
        <ele>412.208</ele>
        <time>2016-09-26T09:14:13Z</time>
      </trkpt>
      <trkpt lat="43.697687" lon="-7.987847">
        <ele>411.954</ele>
        <time>2016-09-26T09:14:14Z</time>
      </trkpt>
      <trkpt lat="43.697708" lon="-7.987862">
        <ele>411.699</ele>
        <time>2016-09-26T09:14:15Z</time>
      </trkpt>
      <trkpt lat="43.697731" lon="-7.987872">
        <ele>411.327</ele>
        <time>2016-09-26T09:14:16Z</time>
      </trkpt>
      <trkpt lat="43.697759" lon="-7.987877">
        <ele>410.963</ele>
        <time>2016-09-26T09:14:17Z</time>
      </trkpt>
      <trkpt lat="43.697788" lon="-7.987875">
        <ele>410.767</ele>
        <time>2016-09-26T09:14:18Z</time>
      </trkpt>
      <trkpt lat="43.697819" lon="-7.987874">
        <ele>410.419</ele>
        <time>2016-09-26T09:14:19Z</time>
      </trkpt>
      <trkpt lat="43.697849" lon="-7.987875">
        <ele>410.052</ele>
        <time>2016-09-26T09:14:20Z</time>
      </trkpt>
      <trkpt lat="43.697882" lon="-7.987877">
        <ele>409.610</ele>
        <time>2016-09-26T09:14:21Z</time>
      </trkpt>
      <trkpt lat="43.697917" lon="-7.987879">
        <ele>409.429</ele>
        <time>2016-09-26T09:14:22Z</time>
      </trkpt>
      <trkpt lat="43.697952" lon="-7.987881">
        <ele>409.300</ele>
        <time>2016-09-26T09:14:23Z</time>
      </trkpt>
      <trkpt lat="43.697988" lon="-7.987881">
        <ele>409.120</ele>
        <time>2016-09-26T09:14:24Z</time>
      </trkpt>
      <trkpt lat="43.698025" lon="-7.987881">
        <ele>409.108</ele>
        <time>2016-09-26T09:14:25Z</time>
      </trkpt>
      <trkpt lat="43.698068" lon="-7.987882">
        <ele>408.913</ele>
        <time>2016-09-26T09:14:26Z</time>
      </trkpt>
      <trkpt lat="43.698115" lon="-7.987882">
        <ele>408.758</ele>
        <time>2016-09-26T09:14:27Z</time>
      </trkpt>
      <trkpt lat="43.698165" lon="-7.987883">
        <ele>408.416</ele>
        <time>2016-09-26T09:14:28Z</time>
      </trkpt>
      <trkpt lat="43.698217" lon="-7.987886">
        <ele>408.252</ele>
        <time>2016-09-26T09:14:29Z</time>
      </trkpt>
      <trkpt lat="43.698267" lon="-7.987890">
        <ele>408.066</ele>
        <time>2016-09-26T09:14:30Z</time>
      </trkpt>
      <trkpt lat="43.698315" lon="-7.987894">
        <ele>407.678</ele>
        <time>2016-09-26T09:14:31Z</time>
      </trkpt>
      <trkpt lat="43.698356" lon="-7.987898">
        <ele>407.311</ele>
        <time>2016-09-26T09:14:32Z</time>
      </trkpt>
      <trkpt lat="43.698395" lon="-7.987898">
        <ele>407.149</ele>
        <time>2016-09-26T09:14:33Z</time>
      </trkpt>
      <trkpt lat="43.698435" lon="-7.987896">
        <ele>406.851</ele>
        <time>2016-09-26T09:14:34Z</time>
      </trkpt>
      <trkpt lat="43.698475" lon="-7.987895">
        <ele>406.401</ele>
        <time>2016-09-26T09:14:35Z</time>
      </trkpt>
      <trkpt lat="43.698517" lon="-7.987903">
        <ele>406.311</ele>
        <time>2016-09-26T09:14:36Z</time>
      </trkpt>
      <trkpt lat="43.698561" lon="-7.987916">
        <ele>406.208</ele>
        <time>2016-09-26T09:14:37Z</time>
      </trkpt>
      <trkpt lat="43.698600" lon="-7.987928">
        <ele>405.836</ele>
        <time>2016-09-26T09:14:38Z</time>
      </trkpt>
      <trkpt lat="43.698639" lon="-7.987941">
        <ele>405.641</ele>
        <time>2016-09-26T09:14:39Z</time>
      </trkpt>
      <trkpt lat="43.698676" lon="-7.987948">
        <ele>405.239</ele>
        <time>2016-09-26T09:14:40Z</time>
      </trkpt>
      <trkpt lat="43.698712" lon="-7.987951">
        <ele>405.075</ele>
        <time>2016-09-26T09:14:41Z</time>
      </trkpt>
      <trkpt lat="43.698749" lon="-7.987951">
        <ele>404.849</ele>
        <time>2016-09-26T09:14:42Z</time>
      </trkpt>
      <trkpt lat="43.698783" lon="-7.987953">
        <ele>404.691</ele>
        <time>2016-09-26T09:14:43Z</time>
      </trkpt>
      <trkpt lat="43.698816" lon="-7.987952">
        <ele>404.354</ele>
        <time>2016-09-26T09:14:44Z</time>
      </trkpt>
      <trkpt lat="43.698849" lon="-7.987952">
        <ele>403.922</ele>
        <time>2016-09-26T09:14:45Z</time>
      </trkpt>
      <trkpt lat="43.698874" lon="-7.987959">
        <ele>403.829</ele>
        <time>2016-09-26T09:14:46Z</time>
      </trkpt>
      <trkpt lat="43.698901" lon="-7.987970">
        <ele>403.500</ele>
        <time>2016-09-26T09:14:47Z</time>
      </trkpt>
      <trkpt lat="43.698933" lon="-7.987973">
        <ele>403.320</ele>
        <time>2016-09-26T09:14:48Z</time>
      </trkpt>
      <trkpt lat="43.698967" lon="-7.987970">
        <ele>403.308</ele>
        <time>2016-09-26T09:14:49Z</time>
      </trkpt>
      <trkpt lat="43.698995" lon="-7.987968">
        <ele>403.333</ele>
        <time>2016-09-26T09:14:50Z</time>
      </trkpt>
      <trkpt lat="43.699026" lon="-7.987968">
        <ele>403.298</ele>
        <time>2016-09-26T09:14:51Z</time>
      </trkpt>
      <trkpt lat="43.699057" lon="-7.987968">
        <ele>403.156</ele>
        <time>2016-09-26T09:14:52Z</time>
      </trkpt>
      <trkpt lat="43.699086" lon="-7.987964">
        <ele>403.022</ele>
        <time>2016-09-26T09:14:53Z</time>
      </trkpt>
      <trkpt lat="43.699112" lon="-7.987957">
        <ele>402.946</ele>
        <time>2016-09-26T09:14:54Z</time>
      </trkpt>
      <trkpt lat="43.699135" lon="-7.987951">
        <ele>402.938</ele>
        <time>2016-09-26T09:14:55Z</time>
      </trkpt>
      <trkpt lat="43.699154" lon="-7.987948">
        <ele>403.011</ele>
        <time>2016-09-26T09:14:56Z</time>
      </trkpt>
      <trkpt lat="43.699162" lon="-7.987946">
        <ele>403.059</ele>
        <time>2016-09-26T09:14:57Z</time>
      </trkpt>
      <trkpt lat="43.699163" lon="-7.987945">
        <ele>403.053</ele>
        <time>2016-09-26T09:14:58Z</time>
      </trkpt>
      <trkpt lat="43.699161" lon="-7.987948">
        <ele>403.204</ele>
        <time>2016-09-26T09:14:59Z</time>
      </trkpt>
      <trkpt lat="43.699160" lon="-7.987950">
        <ele>403.014</ele>
        <time>2016-09-26T09:15:00Z</time>
      </trkpt>
      <trkpt lat="43.699160" lon="-7.987950">
        <ele>403.008</ele>
        <time>2016-09-26T09:15:00Z</time>
      </trkpt>
      <trkpt lat="43.699160" lon="-7.987950">
        <ele>403.096</ele>
        <time>2016-09-26T09:15:00Z</time>
      </trkpt>
      <trkpt lat="43.699004" lon="-7.987993">
        <ele>402.731</ele>
        <time>2016-09-26T09:16:21Z</time>
      </trkpt>
      <trkpt lat="43.698987" lon="-7.988005">
        <ele>402.799</ele>
        <time>2016-09-26T09:16:22Z</time>
      </trkpt>
      <trkpt lat="43.698971" lon="-7.988018">
        <ele>402.765</ele>
        <time>2016-09-26T09:16:23Z</time>
      </trkpt>
      <trkpt lat="43.698950" lon="-7.988036">
        <ele>402.919</ele>
        <time>2016-09-26T09:16:24Z</time>
      </trkpt>
      <trkpt lat="43.698928" lon="-7.988064">
        <ele>402.841</ele>
        <time>2016-09-26T09:16:25Z</time>
      </trkpt>
      <trkpt lat="43.698903" lon="-7.988102">
        <ele>402.964</ele>
        <time>2016-09-26T09:16:26Z</time>
      </trkpt>
      <trkpt lat="43.698877" lon="-7.988143">
        <ele>402.922</ele>
        <time>2016-09-26T09:16:27Z</time>
      </trkpt>
      <trkpt lat="43.698850" lon="-7.988192">
        <ele>402.935</ele>
        <time>2016-09-26T09:16:28Z</time>
      </trkpt>
      <trkpt lat="43.698820" lon="-7.988247">
        <ele>402.786</ele>
        <time>2016-09-26T09:16:29Z</time>
      </trkpt>
      <trkpt lat="43.698788" lon="-7.988303">
        <ele>402.514</ele>
        <time>2016-09-26T09:16:30Z</time>
      </trkpt>
      <trkpt lat="43.698757" lon="-7.988361">
        <ele>402.408</ele>
        <time>2016-09-26T09:16:31Z</time>
      </trkpt>
      <trkpt lat="43.698725" lon="-7.988424">
        <ele>402.284</ele>
        <time>2016-09-26T09:16:32Z</time>
      </trkpt>
      <trkpt lat="43.698691" lon="-7.988491">
        <ele>402.029</ele>
        <time>2016-09-26T09:16:33Z</time>
      </trkpt>
      <trkpt lat="43.698654" lon="-7.988560">
        <ele>401.727</ele>
        <time>2016-09-26T09:16:34Z</time>
      </trkpt>
      <trkpt lat="43.698616" lon="-7.988634">
        <ele>401.593</ele>
        <time>2016-09-26T09:16:35Z</time>
      </trkpt>
      <trkpt lat="43.698576" lon="-7.988710">
        <ele>401.257</ele>
        <time>2016-09-26T09:16:36Z</time>
      </trkpt>
      <trkpt lat="43.698536" lon="-7.988788">
        <ele>400.979</ele>
        <time>2016-09-26T09:16:37Z</time>
      </trkpt>
      <trkpt lat="43.698497" lon="-7.988872">
        <ele>400.532</ele>
        <time>2016-09-26T09:16:38Z</time>
      </trkpt>
      <trkpt lat="43.698464" lon="-7.988962">
        <ele>400.350</ele>
        <time>2016-09-26T09:16:39Z</time>
      </trkpt>
      <trkpt lat="43.698445" lon="-7.989055">
        <ele>400.031</ele>
        <time>2016-09-26T09:16:40Z</time>
      </trkpt>
      <trkpt lat="43.698442" lon="-7.989145">
        <ele>399.661</ele>
        <time>2016-09-26T09:16:41Z</time>
      </trkpt>
      <trkpt lat="43.698459" lon="-7.989232">
        <ele>399.107</ele>
        <time>2016-09-26T09:16:42Z</time>
      </trkpt>
      <trkpt lat="43.698496" lon="-7.989313">
        <ele>398.608</ele>
        <time>2016-09-26T09:16:43Z</time>
      </trkpt>
      <trkpt lat="43.698547" lon="-7.989383">
        <ele>398.044</ele>
        <time>2016-09-26T09:16:44Z</time>
      </trkpt>
      <trkpt lat="43.698609" lon="-7.989440">
        <ele>397.449</ele>
        <time>2016-09-26T09:16:45Z</time>
      </trkpt>
      <trkpt lat="43.698679" lon="-7.989483">
        <ele>396.957</ele>
        <time>2016-09-26T09:16:46Z</time>
      </trkpt>
      <trkpt lat="43.698762" lon="-7.989505">
        <ele>396.313</ele>
        <time>2016-09-26T09:16:47Z</time>
      </trkpt>
      <trkpt lat="43.698848" lon="-7.989510">
        <ele>395.487</ele>
        <time>2016-09-26T09:16:48Z</time>
      </trkpt>
      <trkpt lat="43.698943" lon="-7.989505">
        <ele>394.629</ele>
        <time>2016-09-26T09:16:49Z</time>
      </trkpt>
      <trkpt lat="43.699047" lon="-7.989497">
        <ele>394.082</ele>
        <time>2016-09-26T09:16:50Z</time>
      </trkpt>
      <trkpt lat="43.699158" lon="-7.989486">
        <ele>393.140</ele>
        <time>2016-09-26T09:16:51Z</time>
      </trkpt>
      <trkpt lat="43.699273" lon="-7.989478">
        <ele>392.293</ele>
        <time>2016-09-26T09:16:52Z</time>
      </trkpt>
      <trkpt lat="43.699393" lon="-7.989472">
        <ele>391.365</ele>
        <time>2016-09-26T09:16:53Z</time>
      </trkpt>
      <trkpt lat="43.699518" lon="-7.989467">
        <ele>390.421</ele>
        <time>2016-09-26T09:16:54Z</time>
      </trkpt>
      <trkpt lat="43.699647" lon="-7.989457">
        <ele>389.308</ele>
        <time>2016-09-26T09:16:55Z</time>
      </trkpt>
      <trkpt lat="43.699781" lon="-7.989447">
        <ele>388.240</ele>
        <time>2016-09-26T09:16:56Z</time>
      </trkpt>
      <trkpt lat="43.699917" lon="-7.989437">
        <ele>387.115</ele>
        <time>2016-09-26T09:16:57Z</time>
      </trkpt>
      <trkpt lat="43.700053" lon="-7.989428">
        <ele>386.073</ele>
        <time>2016-09-26T09:16:58Z</time>
      </trkpt>
      <trkpt lat="43.700187" lon="-7.989419">
        <ele>384.879</ele>
        <time>2016-09-26T09:16:59Z</time>
      </trkpt>
      <trkpt lat="43.700318" lon="-7.989409">
        <ele>383.623</ele>
        <time>2016-09-26T09:17:00Z</time>
      </trkpt>
      <trkpt lat="43.700445" lon="-7.989401">
        <ele>382.545</ele>
        <time>2016-09-26T09:17:01Z</time>
      </trkpt>
      <trkpt lat="43.700569" lon="-7.989394">
        <ele>381.258</ele>
        <time>2016-09-26T09:17:02Z</time>
      </trkpt>
      <trkpt lat="43.700687" lon="-7.989387">
        <ele>380.056</ele>
        <time>2016-09-26T09:17:03Z</time>
      </trkpt>
      <trkpt lat="43.700800" lon="-7.989379">
        <ele>378.895</ele>
        <time>2016-09-26T09:17:04Z</time>
      </trkpt>
      <trkpt lat="43.700909" lon="-7.989371">
        <ele>377.949</ele>
        <time>2016-09-26T09:17:05Z</time>
      </trkpt>
      <trkpt lat="43.701014" lon="-7.989362">
        <ele>376.623</ele>
        <time>2016-09-26T09:17:06Z</time>
      </trkpt>
      <trkpt lat="43.701115" lon="-7.989353">
        <ele>375.508</ele>
        <time>2016-09-26T09:17:07Z</time>
      </trkpt>
      <trkpt lat="43.701211" lon="-7.989345">
        <ele>374.560</ele>
        <time>2016-09-26T09:17:08Z</time>
      </trkpt>
      <trkpt lat="43.701302" lon="-7.989340">
        <ele>373.645</ele>
        <time>2016-09-26T09:17:09Z</time>
      </trkpt>
      <trkpt lat="43.701387" lon="-7.989339">
        <ele>372.633</ele>
        <time>2016-09-26T09:17:10Z</time>
      </trkpt>
      <trkpt lat="43.701467" lon="-7.989343">
        <ele>371.319</ele>
        <time>2016-09-26T09:17:11Z</time>
      </trkpt>
      <trkpt lat="43.701540" lon="-7.989352">
        <ele>370.463</ele>
        <time>2016-09-26T09:17:12Z</time>
      </trkpt>
      <trkpt lat="43.701609" lon="-7.989369">
        <ele>369.595</ele>
        <time>2016-09-26T09:17:13Z</time>
      </trkpt>
      <trkpt lat="43.701675" lon="-7.989396">
        <ele>368.448</ele>
        <time>2016-09-26T09:17:14Z</time>
      </trkpt>
      <trkpt lat="43.701740" lon="-7.989438">
        <ele>367.756</ele>
        <time>2016-09-26T09:17:15Z</time>
      </trkpt>
      <trkpt lat="43.701804" lon="-7.989495">
        <ele>367.015</ele>
        <time>2016-09-26T09:17:16Z</time>
      </trkpt>
      <trkpt lat="43.701866" lon="-7.989567">
        <ele>366.265</ele>
        <time>2016-09-26T09:17:17Z</time>
      </trkpt>
      <trkpt lat="43.701921" lon="-7.989655">
        <ele>365.711</ele>
        <time>2016-09-26T09:17:18Z</time>
      </trkpt>
      <trkpt lat="43.701969" lon="-7.989752">
        <ele>365.208</ele>
        <time>2016-09-26T09:17:19Z</time>
      </trkpt>
      <trkpt lat="43.702005" lon="-7.989854">
        <ele>364.642</ele>
        <time>2016-09-26T09:17:20Z</time>
      </trkpt>
      <trkpt lat="43.702031" lon="-7.989959">
        <ele>364.017</ele>
        <time>2016-09-26T09:17:21Z</time>
      </trkpt>
      <trkpt lat="43.702048" lon="-7.990071">
        <ele>363.395</ele>
        <time>2016-09-26T09:17:22Z</time>
      </trkpt>
      <trkpt lat="43.702060" lon="-7.990186">
        <ele>362.711</ele>
        <time>2016-09-26T09:17:23Z</time>
      </trkpt>
      <trkpt lat="43.702068" lon="-7.990302">
        <ele>362.375</ele>
        <time>2016-09-26T09:17:24Z</time>
      </trkpt>
      <trkpt lat="43.702066" lon="-7.990415">
        <ele>361.677</ele>
        <time>2016-09-26T09:17:25Z</time>
      </trkpt>
      <trkpt lat="43.702054" lon="-7.990523">
        <ele>361.380</ele>
        <time>2016-09-26T09:17:26Z</time>
      </trkpt>
      <trkpt lat="43.702030" lon="-7.990620">
        <ele>361.078</ele>
        <time>2016-09-26T09:17:27Z</time>
      </trkpt>
      <trkpt lat="43.702003" lon="-7.990702">
        <ele>360.427</ele>
        <time>2016-09-26T09:17:28Z</time>
      </trkpt>
      <trkpt lat="43.701975" lon="-7.990767">
        <ele>360.068</ele>
        <time>2016-09-26T09:17:29Z</time>
      </trkpt>
      <trkpt lat="43.701952" lon="-7.990819">
        <ele>359.414</ele>
        <time>2016-09-26T09:17:30Z</time>
      </trkpt>
      <trkpt lat="43.701939" lon="-7.990867">
        <ele>359.108</ele>
        <time>2016-09-26T09:17:31Z</time>
      </trkpt>
      <trkpt lat="43.701932" lon="-7.990918">
        <ele>358.673</ele>
        <time>2016-09-26T09:17:32Z</time>
      </trkpt>
      <trkpt lat="43.701924" lon="-7.990969">
        <ele>358.118</ele>
        <time>2016-09-26T09:17:33Z</time>
      </trkpt>
      <trkpt lat="43.701916" lon="-7.991019">
        <ele>358.026</ele>
        <time>2016-09-26T09:17:34Z</time>
      </trkpt>
      <trkpt lat="43.701908" lon="-7.991069">
        <ele>357.672</ele>
        <time>2016-09-26T09:17:35Z</time>
      </trkpt>
      <trkpt lat="43.701900" lon="-7.991116">
        <ele>357.476</ele>
        <time>2016-09-26T09:17:36Z</time>
      </trkpt>
      <trkpt lat="43.701893" lon="-7.991161">
        <ele>357.218</ele>
        <time>2016-09-26T09:17:37Z</time>
      </trkpt>
      <trkpt lat="43.701890" lon="-7.991206">
        <ele>356.841</ele>
        <time>2016-09-26T09:17:38Z</time>
      </trkpt>
      <trkpt lat="43.701888" lon="-7.991246">
        <ele>356.549</ele>
        <time>2016-09-26T09:17:39Z</time>
      </trkpt>
      <trkpt lat="43.701884" lon="-7.991279">
        <ele>356.699</ele>
        <time>2016-09-26T09:17:40Z</time>
      </trkpt>
      <trkpt lat="43.701884" lon="-7.991311">
        <ele>356.507</ele>
        <time>2016-09-26T09:17:41Z</time>
      </trkpt>
      <trkpt lat="43.701884" lon="-7.991340">
        <ele>356.427</ele>
        <time>2016-09-26T09:17:42Z</time>
      </trkpt>
      <trkpt lat="43.701882" lon="-7.991370">
        <ele>356.008</ele>
        <time>2016-09-26T09:17:43Z</time>
      </trkpt>
      <trkpt lat="43.701876" lon="-7.991402">
        <ele>356.090</ele>
        <time>2016-09-26T09:17:44Z</time>
      </trkpt>
      <trkpt lat="43.701870" lon="-7.991437">
        <ele>355.915</ele>
        <time>2016-09-26T09:17:45Z</time>
      </trkpt>
      <trkpt lat="43.701865" lon="-7.991473">
        <ele>356.153</ele>
        <time>2016-09-26T09:17:46Z</time>
      </trkpt>
      <trkpt lat="43.701859" lon="-7.991510">
        <ele>356.079</ele>
        <time>2016-09-26T09:17:47Z</time>
      </trkpt>
      <trkpt lat="43.701852" lon="-7.991550">
        <ele>355.973</ele>
        <time>2016-09-26T09:17:48Z</time>
      </trkpt>
      <trkpt lat="43.701843" lon="-7.991591">
        <ele>355.885</ele>
        <time>2016-09-26T09:17:49Z</time>
      </trkpt>
      <trkpt lat="43.701834" lon="-7.991632">
        <ele>355.828</ele>
        <time>2016-09-26T09:17:50Z</time>
      </trkpt>
      <trkpt lat="43.701830" lon="-7.991675">
        <ele>355.886</ele>
        <time>2016-09-26T09:17:51Z</time>
      </trkpt>
      <trkpt lat="43.701830" lon="-7.991719">
        <ele>355.634</ele>
        <time>2016-09-26T09:17:52Z</time>
      </trkpt>
      <trkpt lat="43.701838" lon="-7.991761">
        <ele>355.555</ele>
        <time>2016-09-26T09:17:53Z</time>
      </trkpt>
      <trkpt lat="43.701848" lon="-7.991802">
        <ele>355.310</ele>
        <time>2016-09-26T09:17:54Z</time>
      </trkpt>
      <trkpt lat="43.701859" lon="-7.991842">
        <ele>355.308</ele>
        <time>2016-09-26T09:17:55Z</time>
      </trkpt>
      <trkpt lat="43.701871" lon="-7.991882">
        <ele>355.384</ele>
        <time>2016-09-26T09:17:56Z</time>
      </trkpt>
      <trkpt lat="43.701881" lon="-7.991922">
        <ele>355.349</ele>
        <time>2016-09-26T09:17:57Z</time>
      </trkpt>
      <trkpt lat="43.701890" lon="-7.991961">
        <ele>355.447</ele>
        <time>2016-09-26T09:17:58Z</time>
      </trkpt>
      <trkpt lat="43.701901" lon="-7.992001">
        <ele>355.493</ele>
        <time>2016-09-26T09:17:59Z</time>
      </trkpt>
      <trkpt lat="43.701914" lon="-7.992041">
        <ele>355.497</ele>
        <time>2016-09-26T09:18:00Z</time>
      </trkpt>
      <trkpt lat="43.701928" lon="-7.992080">
        <ele>355.349</ele>
        <time>2016-09-26T09:18:01Z</time>
      </trkpt>
      <trkpt lat="43.701941" lon="-7.992120">
        <ele>355.382</ele>
        <time>2016-09-26T09:18:02Z</time>
      </trkpt>
      <trkpt lat="43.701954" lon="-7.992157">
        <ele>355.540</ele>
        <time>2016-09-26T09:18:03Z</time>
      </trkpt>
      <trkpt lat="43.701969" lon="-7.992193">
        <ele>355.523</ele>
        <time>2016-09-26T09:18:04Z</time>
      </trkpt>
      <trkpt lat="43.701980" lon="-7.992230">
        <ele>355.683</ele>
        <time>2016-09-26T09:18:05Z</time>
      </trkpt>
      <trkpt lat="43.701990" lon="-7.992266">
        <ele>355.711</ele>
        <time>2016-09-26T09:18:06Z</time>
      </trkpt>
      <trkpt lat="43.702001" lon="-7.992303">
        <ele>355.808</ele>
        <time>2016-09-26T09:18:07Z</time>
      </trkpt>
      <trkpt lat="43.702011" lon="-7.992342">
        <ele>356.063</ele>
        <time>2016-09-26T09:18:08Z</time>
      </trkpt>
      <trkpt lat="43.702022" lon="-7.992381">
        <ele>356.078</ele>
        <time>2016-09-26T09:18:09Z</time>
      </trkpt>
      <trkpt lat="43.702032" lon="-7.992420">
        <ele>356.256</ele>
        <time>2016-09-26T09:18:10Z</time>
      </trkpt>
      <trkpt lat="43.702040" lon="-7.992459">
        <ele>356.422</ele>
        <time>2016-09-26T09:18:11Z</time>
      </trkpt>
      <trkpt lat="43.702042" lon="-7.992499">
        <ele>356.426</ele>
        <time>2016-09-26T09:18:12Z</time>
      </trkpt>
      <trkpt lat="43.702039" lon="-7.992540">
        <ele>356.448</ele>
        <time>2016-09-26T09:18:13Z</time>
      </trkpt>
      <trkpt lat="43.702036" lon="-7.992582">
        <ele>356.611</ele>
        <time>2016-09-26T09:18:14Z</time>
      </trkpt>
      <trkpt lat="43.702035" lon="-7.992624">
        <ele>356.659</ele>
        <time>2016-09-26T09:18:15Z</time>
      </trkpt>
      <trkpt lat="43.702038" lon="-7.992665">
        <ele>356.635</ele>
        <time>2016-09-26T09:18:16Z</time>
      </trkpt>
      <trkpt lat="43.702045" lon="-7.992701">
        <ele>356.786</ele>
        <time>2016-09-26T09:18:17Z</time>
      </trkpt>
      <trkpt lat="43.702051" lon="-7.992730">
        <ele>356.614</ele>
        <time>2016-09-26T09:18:18Z</time>
      </trkpt>
      <trkpt lat="43.702050" lon="-7.992756">
        <ele>356.608</ele>
        <time>2016-09-26T09:18:19Z</time>
      </trkpt>
      <trkpt lat="43.702051" lon="-7.992778">
        <ele>356.644</ele>
        <time>2016-09-26T09:18:20Z</time>
      </trkpt>
      <trkpt lat="43.702059" lon="-7.992796">
        <ele>356.689</ele>
        <time>2016-09-26T09:18:21Z</time>
      </trkpt>
      <trkpt lat="43.702069" lon="-7.992809">
        <ele>356.527</ele>
        <time>2016-09-26T09:18:22Z</time>
      </trkpt>
      <trkpt lat="43.702074" lon="-7.992815">
        <ele>356.583</ele>
        <time>2016-09-26T09:18:23Z</time>
      </trkpt>
      <trkpt lat="43.702075" lon="-7.992815">
        <ele>356.717</ele>
        <time>2016-09-26T09:18:24Z</time>
      </trkpt>
      <trkpt lat="43.702075" lon="-7.992814">
        <ele>356.799</ele>
        <time>2016-09-26T09:18:25Z</time>
      </trkpt>
      <trkpt lat="43.702076" lon="-7.992813">
        <ele>356.532</ele>
        <time>2016-09-26T09:18:26Z</time>
      </trkpt>
      <trkpt lat="43.702076" lon="-7.992813">
        <ele>356.560</ele>
        <time>2016-09-26T09:18:26Z</time>
      </trkpt>
      <trkpt lat="43.702076" lon="-7.992813">
        <ele>356.532</ele>
        <time>2016-09-26T09:18:26Z</time>
      </trkpt>
      <trkpt lat="43.702027" lon="-7.992700">
        <ele>356.392</ele>
        <time>2016-09-26T09:28:58Z</time>
      </trkpt>
      <trkpt lat="43.702027" lon="-7.992675">
        <ele>356.211</ele>
        <time>2016-09-26T09:28:59Z</time>
      </trkpt>
      <trkpt lat="43.702028" lon="-7.992648">
        <ele>356.208</ele>
        <time>2016-09-26T09:29:00Z</time>
      </trkpt>
      <trkpt lat="43.702025" lon="-7.992624">
        <ele>356.354</ele>
        <time>2016-09-26T09:29:01Z</time>
      </trkpt>
      <trkpt lat="43.702020" lon="-7.992602">
        <ele>356.329</ele>
        <time>2016-09-26T09:29:02Z</time>
      </trkpt>
      <trkpt lat="43.702018" lon="-7.992582">
        <ele>356.397</ele>
        <time>2016-09-26T09:29:03Z</time>
      </trkpt>
      <trkpt lat="43.702020" lon="-7.992562">
        <ele>356.383</ele>
        <time>2016-09-26T09:29:04Z</time>
      </trkpt>
      <trkpt lat="43.702023" lon="-7.992538">
        <ele>356.417</ele>
        <time>2016-09-26T09:29:05Z</time>
      </trkpt>
      <trkpt lat="43.702027" lon="-7.992510">
        <ele>356.329</ele>
        <time>2016-09-26T09:29:06Z</time>
      </trkpt>
      <trkpt lat="43.702033" lon="-7.992481">
        <ele>356.252</ele>
        <time>2016-09-26T09:29:07Z</time>
      </trkpt>
      <trkpt lat="43.702036" lon="-7.992452">
        <ele>356.220</ele>
        <time>2016-09-26T09:29:08Z</time>
      </trkpt>
      <trkpt lat="43.702032" lon="-7.992421">
        <ele>356.371</ele>
        <time>2016-09-26T09:29:09Z</time>
      </trkpt>
      <trkpt lat="43.702025" lon="-7.992392">
        <ele>356.341</ele>
        <time>2016-09-26T09:29:10Z</time>
      </trkpt>
      <trkpt lat="43.702018" lon="-7.992363">
        <ele>356.215</ele>
        <time>2016-09-26T09:29:11Z</time>
      </trkpt>
      <trkpt lat="43.702009" lon="-7.992333">
        <ele>356.508</ele>
        <time>2016-09-26T09:29:12Z</time>
      </trkpt>
      <trkpt lat="43.702001" lon="-7.992302">
        <ele>356.688</ele>
        <time>2016-09-26T09:29:13Z</time>
      </trkpt>
      <trkpt lat="43.701992" lon="-7.992268">
        <ele>356.693</ele>
        <time>2016-09-26T09:29:14Z</time>
      </trkpt>
      <trkpt lat="43.701982" lon="-7.992234">
        <ele>356.471</ele>
        <time>2016-09-26T09:29:15Z</time>
      </trkpt>
      <trkpt lat="43.701974" lon="-7.992199">
        <ele>356.487</ele>
        <time>2016-09-26T09:29:16Z</time>
      </trkpt>
      <trkpt lat="43.701963" lon="-7.992165">
        <ele>356.541</ele>
        <time>2016-09-26T09:29:17Z</time>
      </trkpt>
      <trkpt lat="43.701951" lon="-7.992132">
        <ele>356.583</ele>
        <time>2016-09-26T09:29:18Z</time>
      </trkpt>
      <trkpt lat="43.701940" lon="-7.992097">
        <ele>356.496</ele>
        <time>2016-09-26T09:29:19Z</time>
      </trkpt>
      <trkpt lat="43.701930" lon="-7.992064">
        <ele>356.564</ele>
        <time>2016-09-26T09:29:20Z</time>
      </trkpt>
      <trkpt lat="43.701920" lon="-7.992032">
        <ele>356.372</ele>
        <time>2016-09-26T09:29:21Z</time>
      </trkpt>
      <trkpt lat="43.701910" lon="-7.991998">
        <ele>356.413</ele>
        <time>2016-09-26T09:29:22Z</time>
      </trkpt>
      <trkpt lat="43.701899" lon="-7.991965">
        <ele>356.414</ele>
        <time>2016-09-26T09:29:23Z</time>
      </trkpt>
      <trkpt lat="43.701889" lon="-7.991934">
        <ele>356.508</ele>
        <time>2016-09-26T09:29:24Z</time>
      </trkpt>
      <trkpt lat="43.701881" lon="-7.991902">
        <ele>356.698</ele>
        <time>2016-09-26T09:29:25Z</time>
      </trkpt>
      <trkpt lat="43.701878" lon="-7.991870">
        <ele>356.533</ele>
        <time>2016-09-26T09:29:26Z</time>
      </trkpt>
      <trkpt lat="43.701878" lon="-7.991836">
        <ele>356.591</ele>
        <time>2016-09-26T09:29:27Z</time>
      </trkpt>
      <trkpt lat="43.701879" lon="-7.991803">
        <ele>356.277</ele>
        <time>2016-09-26T09:29:28Z</time>
      </trkpt>
      <trkpt lat="43.701879" lon="-7.991768">
        <ele>356.091</ele>
        <time>2016-09-26T09:29:29Z</time>
      </trkpt>
      <trkpt lat="43.701878" lon="-7.991734">
        <ele>356.093</ele>
        <time>2016-09-26T09:29:30Z</time>
      </trkpt>
      <trkpt lat="43.701875" lon="-7.991702">
        <ele>356.276</ele>
        <time>2016-09-26T09:29:31Z</time>
      </trkpt>
      <trkpt lat="43.701873" lon="-7.991674">
        <ele>356.194</ele>
        <time>2016-09-26T09:29:32Z</time>
      </trkpt>
      <trkpt lat="43.701870" lon="-7.991646">
        <ele>356.145</ele>
        <time>2016-09-26T09:29:33Z</time>
      </trkpt>
      <trkpt lat="43.701867" lon="-7.991616">
        <ele>356.247</ele>
        <time>2016-09-26T09:29:34Z</time>
      </trkpt>
      <trkpt lat="43.701866" lon="-7.991587">
        <ele>356.211</ele>
        <time>2016-09-26T09:29:35Z</time>
      </trkpt>
      <trkpt lat="43.701866" lon="-7.991556">
        <ele>356.108</ele>
        <time>2016-09-26T09:29:36Z</time>
      </trkpt>
      <trkpt lat="43.701866" lon="-7.991527">
        <ele>356.145</ele>
        <time>2016-09-26T09:29:37Z</time>
      </trkpt>
      <trkpt lat="43.701865" lon="-7.991500">
        <ele>356.190</ele>
        <time>2016-09-26T09:29:38Z</time>
      </trkpt>
      <trkpt lat="43.701865" lon="-7.991475">
        <ele>356.078</ele>
        <time>2016-09-26T09:29:39Z</time>
      </trkpt>
      <trkpt lat="43.701863" lon="-7.991449">
        <ele>355.994</ele>
        <time>2016-09-26T09:29:40Z</time>
      </trkpt>
      <trkpt lat="43.701861" lon="-7.991423">
        <ele>356.058</ele>
        <time>2016-09-26T09:29:41Z</time>
      </trkpt>
      <trkpt lat="43.701859" lon="-7.991395">
        <ele>356.090</ele>
        <time>2016-09-26T09:29:42Z</time>
      </trkpt>
      <trkpt lat="43.701860" lon="-7.991365">
        <ele>356.183</ele>
        <time>2016-09-26T09:29:43Z</time>
      </trkpt>
      <trkpt lat="43.701862" lon="-7.991335">
        <ele>356.111</ele>
        <time>2016-09-26T09:29:44Z</time>
      </trkpt>
      <trkpt lat="43.701863" lon="-7.991306">
        <ele>356.158</ele>
        <time>2016-09-26T09:29:45Z</time>
      </trkpt>
      <trkpt lat="43.701863" lon="-7.991277">
        <ele>356.152</ele>
        <time>2016-09-26T09:29:46Z</time>
      </trkpt>
      <trkpt lat="43.701862" lon="-7.991252">
        <ele>356.217</ele>
        <time>2016-09-26T09:29:47Z</time>
      </trkpt>
      <trkpt lat="43.701862" lon="-7.991226">
        <ele>356.208</ele>
        <time>2016-09-26T09:29:48Z</time>
      </trkpt>
      <trkpt lat="43.701863" lon="-7.991198">
        <ele>356.346</ele>
        <time>2016-09-26T09:29:49Z</time>
      </trkpt>
      <trkpt lat="43.701861" lon="-7.991170">
        <ele>356.381</ele>
        <time>2016-09-26T09:29:50Z</time>
      </trkpt>
      <trkpt lat="43.701856" lon="-7.991141">
        <ele>356.439</ele>
        <time>2016-09-26T09:29:51Z</time>
      </trkpt>
      <trkpt lat="43.701849" lon="-7.991112">
        <ele>356.445</ele>
        <time>2016-09-26T09:29:52Z</time>
      </trkpt>
      <trkpt lat="43.701842" lon="-7.991082">
        <ele>356.599</ele>
        <time>2016-09-26T09:29:53Z</time>
      </trkpt>
      <trkpt lat="43.701836" lon="-7.991053">
        <ele>356.551</ele>
        <time>2016-09-26T09:29:54Z</time>
      </trkpt>
      <trkpt lat="43.701832" lon="-7.991025">
        <ele>356.474</ele>
        <time>2016-09-26T09:29:55Z</time>
      </trkpt>
      <trkpt lat="43.701825" lon="-7.991001">
        <ele>356.232</ele>
        <time>2016-09-26T09:29:56Z</time>
      </trkpt>
      <trkpt lat="43.701817" lon="-7.990979">
        <ele>356.481</ele>
        <time>2016-09-26T09:29:57Z</time>
      </trkpt>
      <trkpt lat="43.701808" lon="-7.990961">
        <ele>356.461</ele>
        <time>2016-09-26T09:29:58Z</time>
      </trkpt>
      <trkpt lat="43.701795" lon="-7.990947">
        <ele>356.417</ele>
        <time>2016-09-26T09:29:59Z</time>
      </trkpt>
      <trkpt lat="43.701778" lon="-7.990945">
        <ele>356.608</ele>
        <time>2016-09-26T09:30:00Z</time>
      </trkpt>
      <trkpt lat="43.701761" lon="-7.990953">
        <ele>356.719</ele>
        <time>2016-09-26T09:30:01Z</time>
      </trkpt>
      <trkpt lat="43.701745" lon="-7.990967">
        <ele>356.754</ele>
        <time>2016-09-26T09:30:02Z</time>
      </trkpt>
      <trkpt lat="43.701730" lon="-7.990979">
        <ele>356.742</ele>
        <time>2016-09-26T09:30:03Z</time>
      </trkpt>
      <trkpt lat="43.701714" lon="-7.990991">
        <ele>356.758</ele>
        <time>2016-09-26T09:30:04Z</time>
      </trkpt>
      <trkpt lat="43.701691" lon="-7.991008">
        <ele>356.842</ele>
        <time>2016-09-26T09:30:05Z</time>
      </trkpt>
      <trkpt lat="43.701668" lon="-7.991026">
        <ele>356.834</ele>
        <time>2016-09-26T09:30:06Z</time>
      </trkpt>
      <trkpt lat="43.701641" lon="-7.991045">
        <ele>356.937</ele>
        <time>2016-09-26T09:30:07Z</time>
      </trkpt>
      <trkpt lat="43.701614" lon="-7.991065">
        <ele>356.955</ele>
        <time>2016-09-26T09:30:08Z</time>
      </trkpt>
      <trkpt lat="43.701588" lon="-7.991084">
        <ele>356.866</ele>
        <time>2016-09-26T09:30:09Z</time>
      </trkpt>
      <trkpt lat="43.701560" lon="-7.991106">
        <ele>356.829</ele>
        <time>2016-09-26T09:30:10Z</time>
      </trkpt>
      <trkpt lat="43.701528" lon="-7.991127">
        <ele>356.921</ele>
        <time>2016-09-26T09:30:11Z</time>
      </trkpt>
      <trkpt lat="43.701496" lon="-7.991148">
        <ele>356.708</ele>
        <time>2016-09-26T09:30:12Z</time>
      </trkpt>
      <trkpt lat="43.701466" lon="-7.991174">
        <ele>356.627</ele>
        <time>2016-09-26T09:30:13Z</time>
      </trkpt>
      <trkpt lat="43.701433" lon="-7.991200">
        <ele>356.562</ele>
        <time>2016-09-26T09:30:14Z</time>
      </trkpt>
      <trkpt lat="43.701405" lon="-7.991221">
        <ele>356.480</ele>
        <time>2016-09-26T09:30:15Z</time>
      </trkpt>
      <trkpt lat="43.701373" lon="-7.991245">
        <ele>356.316</ele>
        <time>2016-09-26T09:30:16Z</time>
      </trkpt>
      <trkpt lat="43.701339" lon="-7.991273">
        <ele>356.310</ele>
        <time>2016-09-26T09:30:17Z</time>
      </trkpt>
      <trkpt lat="43.701303" lon="-7.991300">
        <ele>356.482</ele>
        <time>2016-09-26T09:30:18Z</time>
      </trkpt>
      <trkpt lat="43.701266" lon="-7.991331">
        <ele>356.345</ele>
        <time>2016-09-26T09:30:19Z</time>
      </trkpt>
      <trkpt lat="43.701227" lon="-7.991360">
        <ele>356.013</ele>
        <time>2016-09-26T09:30:20Z</time>
      </trkpt>
      <trkpt lat="43.701185" lon="-7.991389">
        <ele>355.863</ele>
        <time>2016-09-26T09:30:21Z</time>
      </trkpt>
      <trkpt lat="43.701141" lon="-7.991417">
        <ele>355.644</ele>
        <time>2016-09-26T09:30:22Z</time>
      </trkpt>
      <trkpt lat="43.701096" lon="-7.991452">
        <ele>355.518</ele>
        <time>2016-09-26T09:30:23Z</time>
      </trkpt>
      <trkpt lat="43.701051" lon="-7.991487">
        <ele>355.308</ele>
        <time>2016-09-26T09:30:24Z</time>
      </trkpt>
      <trkpt lat="43.701006" lon="-7.991523">
        <ele>355.257</ele>
        <time>2016-09-26T09:30:25Z</time>
      </trkpt>
      <trkpt lat="43.700961" lon="-7.991559">
        <ele>355.242</ele>
        <time>2016-09-26T09:30:26Z</time>
      </trkpt>
      <trkpt lat="43.700912" lon="-7.991598">
        <ele>355.090</ele>
        <time>2016-09-26T09:30:27Z</time>
      </trkpt>
      <trkpt lat="43.700864" lon="-7.991640">
        <ele>355.076</ele>
        <time>2016-09-26T09:30:28Z</time>
      </trkpt>
      <trkpt lat="43.700817" lon="-7.991684">
        <ele>354.640</ele>
        <time>2016-09-26T09:30:29Z</time>
      </trkpt>
      <trkpt lat="43.700769" lon="-7.991722">
        <ele>354.572</ele>
        <time>2016-09-26T09:30:30Z</time>
      </trkpt>
      <trkpt lat="43.700720" lon="-7.991758">
        <ele>354.065</ele>
        <time>2016-09-26T09:30:31Z</time>
      </trkpt>
      <trkpt lat="43.700668" lon="-7.991795">
        <ele>353.833</ele>
        <time>2016-09-26T09:30:32Z</time>
      </trkpt>
      <trkpt lat="43.700615" lon="-7.991835">
        <ele>353.981</ele>
        <time>2016-09-26T09:30:33Z</time>
      </trkpt>
      <trkpt lat="43.700563" lon="-7.991879">
        <ele>353.661</ele>
        <time>2016-09-26T09:30:34Z</time>
      </trkpt>
      <trkpt lat="43.700509" lon="-7.991920">
        <ele>353.717</ele>
        <time>2016-09-26T09:30:35Z</time>
      </trkpt>
      <trkpt lat="43.700455" lon="-7.991957">
        <ele>353.308</ele>
        <time>2016-09-26T09:30:36Z</time>
      </trkpt>
      <trkpt lat="43.700398" lon="-7.991994">
        <ele>353.099</ele>
        <time>2016-09-26T09:30:37Z</time>
      </trkpt>
      <trkpt lat="43.700339" lon="-7.992035">
        <ele>352.784</ele>
        <time>2016-09-26T09:30:38Z</time>
      </trkpt>
      <trkpt lat="43.700280" lon="-7.992078">
        <ele>352.412</ele>
        <time>2016-09-26T09:30:39Z</time>
      </trkpt>
      <trkpt lat="43.700221" lon="-7.992124">
        <ele>352.228</ele>
        <time>2016-09-26T09:30:40Z</time>
      </trkpt>
      <trkpt lat="43.700160" lon="-7.992170">
        <ele>351.972</ele>
        <time>2016-09-26T09:30:41Z</time>
      </trkpt>
      <trkpt lat="43.700096" lon="-7.992217">
        <ele>351.714</ele>
        <time>2016-09-26T09:30:42Z</time>
      </trkpt>
      <trkpt lat="43.700030" lon="-7.992266">
        <ele>351.467</ele>
        <time>2016-09-26T09:30:43Z</time>
      </trkpt>
      <trkpt lat="43.699962" lon="-7.992315">
        <ele>351.025</ele>
        <time>2016-09-26T09:30:44Z</time>
      </trkpt>
      <trkpt lat="43.699890" lon="-7.992358">
        <ele>350.635</ele>
        <time>2016-09-26T09:30:45Z</time>
      </trkpt>
      <trkpt lat="43.699809" lon="-7.992395">
        <ele>350.386</ele>
        <time>2016-09-26T09:30:46Z</time>
      </trkpt>
      <trkpt lat="43.699725" lon="-7.992423">
        <ele>349.914</ele>
        <time>2016-09-26T09:30:47Z</time>
      </trkpt>
      <trkpt lat="43.699639" lon="-7.992445">
        <ele>349.508</ele>
        <time>2016-09-26T09:30:48Z</time>
      </trkpt>
      <trkpt lat="43.699550" lon="-7.992465">
        <ele>349.074</ele>
        <time>2016-09-26T09:30:49Z</time>
      </trkpt>
      <trkpt lat="43.699458" lon="-7.992484">
        <ele>348.349</ele>
        <time>2016-09-26T09:30:50Z</time>
      </trkpt>
      <trkpt lat="43.699366" lon="-7.992502">
        <ele>347.847</ele>
        <time>2016-09-26T09:30:51Z</time>
      </trkpt>
      <trkpt lat="43.699275" lon="-7.992521">
        <ele>347.393</ele>
        <time>2016-09-26T09:30:52Z</time>
      </trkpt>
      <trkpt lat="43.699184" lon="-7.992541">
        <ele>346.927</ele>
        <time>2016-09-26T09:30:53Z</time>
      </trkpt>
      <trkpt lat="43.699092" lon="-7.992561">
        <ele>346.479</ele>
        <time>2016-09-26T09:30:54Z</time>
      </trkpt>
      <trkpt lat="43.699001" lon="-7.992578">
        <ele>345.942</ele>
        <time>2016-09-26T09:30:55Z</time>
      </trkpt>
      <trkpt lat="43.698909" lon="-7.992599">
        <ele>345.450</ele>
        <time>2016-09-26T09:30:56Z</time>
      </trkpt>
      <trkpt lat="43.698819" lon="-7.992620">
        <ele>345.129</ele>
        <time>2016-09-26T09:30:57Z</time>
      </trkpt>
      <trkpt lat="43.698732" lon="-7.992638">
        <ele>344.600</ele>
        <time>2016-09-26T09:30:58Z</time>
      </trkpt>
      <trkpt lat="43.698643" lon="-7.992659">
        <ele>344.120</ele>
        <time>2016-09-26T09:30:59Z</time>
      </trkpt>
      <trkpt lat="43.698544" lon="-7.992699">
        <ele>343.608</ele>
        <time>2016-09-26T09:31:00Z</time>
      </trkpt>
      <trkpt lat="43.698450" lon="-7.992750">
        <ele>343.123</ele>
        <time>2016-09-26T09:31:01Z</time>
      </trkpt>
      <trkpt lat="43.698365" lon="-7.992822">
        <ele>342.728</ele>
        <time>2016-09-26T09:31:02Z</time>
      </trkpt>
      <trkpt lat="43.698290" lon="-7.992904">
        <ele>342.196</ele>
        <time>2016-09-26T09:31:03Z</time>
      </trkpt>
      <trkpt lat="43.698212" lon="-7.992993">
        <ele>341.482</ele>
        <time>2016-09-26T09:31:04Z</time>
      </trkpt>
      <trkpt lat="43.698132" lon="-7.993085">
        <ele>340.746</ele>
        <time>2016-09-26T09:31:05Z</time>
      </trkpt>
      <trkpt lat="43.698047" lon="-7.993181">
        <ele>339.928</ele>
        <time>2016-09-26T09:31:06Z</time>
      </trkpt>
      <trkpt lat="43.697962" lon="-7.993283">
        <ele>339.341</ele>
        <time>2016-09-26T09:31:07Z</time>
      </trkpt>
      <trkpt lat="43.697878" lon="-7.993384">
        <ele>338.359</ele>
        <time>2016-09-26T09:31:08Z</time>
      </trkpt>
      <trkpt lat="43.697792" lon="-7.993485">
        <ele>337.441</ele>
        <time>2016-09-26T09:31:09Z</time>
      </trkpt>
      <trkpt lat="43.697706" lon="-7.993587">
        <ele>336.581</ele>
        <time>2016-09-26T09:31:10Z</time>
      </trkpt>
      <trkpt lat="43.697615" lon="-7.993693">
        <ele>335.609</ele>
        <time>2016-09-26T09:31:11Z</time>
      </trkpt>
      <trkpt lat="43.697524" lon="-7.993802">
        <ele>334.608</ele>
        <time>2016-09-26T09:31:12Z</time>
      </trkpt>
      <trkpt lat="43.697431" lon="-7.993912">
        <ele>333.755</ele>
        <time>2016-09-26T09:31:13Z</time>
      </trkpt>
      <trkpt lat="43.697341" lon="-7.994019">
        <ele>332.620</ele>
        <time>2016-09-26T09:31:14Z</time>
      </trkpt>
      <trkpt lat="43.697248" lon="-7.994132">
        <ele>331.818</ele>
        <time>2016-09-26T09:31:15Z</time>
      </trkpt>
      <trkpt lat="43.697156" lon="-7.994241">
        <ele>330.834</ele>
        <time>2016-09-26T09:31:16Z</time>
      </trkpt>
      <trkpt lat="43.697061" lon="-7.994351">
        <ele>329.978</ele>
        <time>2016-09-26T09:31:17Z</time>
      </trkpt>
      <trkpt lat="43.696966" lon="-7.994466">
        <ele>329.040</ele>
        <time>2016-09-26T09:31:18Z</time>
      </trkpt>
      <trkpt lat="43.696871" lon="-7.994579">
        <ele>328.353</ele>
        <time>2016-09-26T09:31:19Z</time>
      </trkpt>
      <trkpt lat="43.696773" lon="-7.994691">
        <ele>327.381</ele>
        <time>2016-09-26T09:31:20Z</time>
      </trkpt>
      <trkpt lat="43.696675" lon="-7.994802">
        <ele>326.239</ele>
        <time>2016-09-26T09:31:21Z</time>
      </trkpt>
      <trkpt lat="43.696577" lon="-7.994912">
        <ele>325.401</ele>
        <time>2016-09-26T09:31:22Z</time>
      </trkpt>
      <trkpt lat="43.696480" lon="-7.995023">
        <ele>324.421</ele>
        <time>2016-09-26T09:31:23Z</time>
      </trkpt>
      <trkpt lat="43.696383" lon="-7.995132">
        <ele>323.308</ele>
        <time>2016-09-26T09:31:24Z</time>
      </trkpt>
      <trkpt lat="43.696287" lon="-7.995240">
        <ele>322.684</ele>
        <time>2016-09-26T09:31:25Z</time>
      </trkpt>
      <trkpt lat="43.696193" lon="-7.995341">
        <ele>322.079</ele>
        <time>2016-09-26T09:31:26Z</time>
      </trkpt>
      <trkpt lat="43.696105" lon="-7.995440">
        <ele>321.227</ele>
        <time>2016-09-26T09:31:27Z</time>
      </trkpt>
      <trkpt lat="43.696015" lon="-7.995542">
        <ele>320.413</ele>
        <time>2016-09-26T09:31:28Z</time>
      </trkpt>
      <trkpt lat="43.695928" lon="-7.995642">
        <ele>319.597</ele>
        <time>2016-09-26T09:31:29Z</time>
      </trkpt>
      <trkpt lat="43.695842" lon="-7.995740">
        <ele>318.749</ele>
        <time>2016-09-26T09:31:30Z</time>
      </trkpt>
      <trkpt lat="43.695756" lon="-7.995837">
        <ele>317.912</ele>
        <time>2016-09-26T09:31:31Z</time>
      </trkpt>
      <trkpt lat="43.695669" lon="-7.995937">
        <ele>317.160</ele>
        <time>2016-09-26T09:31:32Z</time>
      </trkpt>
      <trkpt lat="43.695583" lon="-7.996035">
        <ele>316.475</ele>
        <time>2016-09-26T09:31:33Z</time>
      </trkpt>
      <trkpt lat="43.695499" lon="-7.996128">
        <ele>315.528</ele>
        <time>2016-09-26T09:31:34Z</time>
      </trkpt>
      <trkpt lat="43.695415" lon="-7.996223">
        <ele>314.820</ele>
        <time>2016-09-26T09:31:35Z</time>
      </trkpt>
      <trkpt lat="43.695335" lon="-7.996315">
        <ele>314.108</ele>
        <time>2016-09-26T09:31:36Z</time>
      </trkpt>
      <trkpt lat="43.695258" lon="-7.996401">
        <ele>313.628</ele>
        <time>2016-09-26T09:31:37Z</time>
      </trkpt>
      <trkpt lat="43.695181" lon="-7.996484">
        <ele>312.913</ele>
        <time>2016-09-26T09:31:38Z</time>
      </trkpt>
      <trkpt lat="43.695105" lon="-7.996568">
        <ele>312.321</ele>
        <time>2016-09-26T09:31:39Z</time>
      </trkpt>
      <trkpt lat="43.695030" lon="-7.996654">
        <ele>311.827</ele>
        <time>2016-09-26T09:31:40Z</time>
      </trkpt>
      <trkpt lat="43.694953" lon="-7.996741">
        <ele>311.211</ele>
        <time>2016-09-26T09:31:41Z</time>
      </trkpt>
      <trkpt lat="43.694869" lon="-7.996825">
        <ele>310.643</ele>
        <time>2016-09-26T09:31:42Z</time>
      </trkpt>
      <trkpt lat="43.694791" lon="-7.996912">
        <ele>310.126</ele>
        <time>2016-09-26T09:31:43Z</time>
      </trkpt>
      <trkpt lat="43.694713" lon="-7.997005">
        <ele>309.594</ele>
        <time>2016-09-26T09:31:44Z</time>
      </trkpt>
      <trkpt lat="43.694638" lon="-7.997097">
        <ele>308.878</ele>
        <time>2016-09-26T09:31:45Z</time>
      </trkpt>
      <trkpt lat="43.694568" lon="-7.997196">
        <ele>308.233</ele>
        <time>2016-09-26T09:31:46Z</time>
      </trkpt>
      <trkpt lat="43.694510" lon="-7.997305">
        <ele>307.626</ele>
        <time>2016-09-26T09:31:47Z</time>
      </trkpt>
      <trkpt lat="43.694461" lon="-7.997432">
        <ele>306.808</ele>
        <time>2016-09-26T09:31:48Z</time>
      </trkpt>
      <trkpt lat="43.694419" lon="-7.997573">
        <ele>305.978</ele>
        <time>2016-09-26T09:31:49Z</time>
      </trkpt>
      <trkpt lat="43.694384" lon="-7.997719">
        <ele>305.143</ele>
        <time>2016-09-26T09:31:50Z</time>
      </trkpt>
      <trkpt lat="43.694354" lon="-7.997865">
        <ele>304.451</ele>
        <time>2016-09-26T09:31:51Z</time>
      </trkpt>
      <trkpt lat="43.694319" lon="-7.998013">
        <ele>303.857</ele>
        <time>2016-09-26T09:31:52Z</time>
      </trkpt>
      <trkpt lat="43.694279" lon="-7.998166">
        <ele>302.951</ele>
        <time>2016-09-26T09:31:53Z</time>
      </trkpt>
      <trkpt lat="43.694244" lon="-7.998316">
        <ele>302.483</ele>
        <time>2016-09-26T09:31:54Z</time>
      </trkpt>
      <trkpt lat="43.694212" lon="-7.998465">
        <ele>301.766</ele>
        <time>2016-09-26T09:31:55Z</time>
      </trkpt>
      <trkpt lat="43.694181" lon="-7.998613">
        <ele>300.954</ele>
        <time>2016-09-26T09:31:56Z</time>
      </trkpt>
      <trkpt lat="43.694150" lon="-7.998770">
        <ele>300.444</ele>
        <time>2016-09-26T09:31:57Z</time>
      </trkpt>
      <trkpt lat="43.694118" lon="-7.998926">
        <ele>299.705</ele>
        <time>2016-09-26T09:31:58Z</time>
      </trkpt>
      <trkpt lat="43.694088" lon="-7.999077">
        <ele>299.015</ele>
        <time>2016-09-26T09:31:59Z</time>
      </trkpt>
      <trkpt lat="43.694057" lon="-7.999226">
        <ele>298.308</ele>
        <time>2016-09-26T09:32:00Z</time>
      </trkpt>
      <trkpt lat="43.694027" lon="-7.999373">
        <ele>297.625</ele>
        <time>2016-09-26T09:32:01Z</time>
      </trkpt>
      <trkpt lat="43.693999" lon="-7.999515">
        <ele>296.910</ele>
        <time>2016-09-26T09:32:02Z</time>
      </trkpt>
      <trkpt lat="43.693968" lon="-7.999655">
        <ele>296.268</ele>
        <time>2016-09-26T09:32:03Z</time>
      </trkpt>
      <trkpt lat="43.693935" lon="-7.999799">
        <ele>295.684</ele>
        <time>2016-09-26T09:32:04Z</time>
      </trkpt>
      <trkpt lat="43.693905" lon="-7.999940">
        <ele>294.818</ele>
        <time>2016-09-26T09:32:05Z</time>
      </trkpt>
      <trkpt lat="43.693876" lon="-8.000082">
        <ele>294.030</ele>
        <time>2016-09-26T09:32:06Z</time>
      </trkpt>
      <trkpt lat="43.693846" lon="-8.000230">
        <ele>293.393</ele>
        <time>2016-09-26T09:32:07Z</time>
      </trkpt>
      <trkpt lat="43.693815" lon="-8.000384">
        <ele>292.671</ele>
        <time>2016-09-26T09:32:08Z</time>
      </trkpt>
      <trkpt lat="43.693784" lon="-8.000532">
        <ele>291.751</ele>
        <time>2016-09-26T09:32:09Z</time>
      </trkpt>
      <trkpt lat="43.693752" lon="-8.000677">
        <ele>290.701</ele>
        <time>2016-09-26T09:32:10Z</time>
      </trkpt>
      <trkpt lat="43.693719" lon="-8.000823">
        <ele>290.011</ele>
        <time>2016-09-26T09:32:11Z</time>
      </trkpt>
      <trkpt lat="43.693685" lon="-8.000969">
        <ele>289.308</ele>
        <time>2016-09-26T09:32:12Z</time>
      </trkpt>
      <trkpt lat="43.693653" lon="-8.001114">
        <ele>288.796</ele>
        <time>2016-09-26T09:32:13Z</time>
      </trkpt>
      <trkpt lat="43.693620" lon="-8.001258">
        <ele>288.121</ele>
        <time>2016-09-26T09:32:14Z</time>
      </trkpt>
      <trkpt lat="43.693587" lon="-8.001400">
        <ele>287.579</ele>
        <time>2016-09-26T09:32:15Z</time>
      </trkpt>
      <trkpt lat="43.693553" lon="-8.001539">
        <ele>287.085</ele>
        <time>2016-09-26T09:32:16Z</time>
      </trkpt>
      <trkpt lat="43.693519" lon="-8.001681">
        <ele>286.499</ele>
        <time>2016-09-26T09:32:17Z</time>
      </trkpt>
      <trkpt lat="43.693486" lon="-8.001819">
        <ele>285.991</ele>
        <time>2016-09-26T09:32:18Z</time>
      </trkpt>
      <trkpt lat="43.693453" lon="-8.001956">
        <ele>285.134</ele>
        <time>2016-09-26T09:32:19Z</time>
      </trkpt>
      <trkpt lat="43.693421" lon="-8.002093">
        <ele>284.582</ele>
        <time>2016-09-26T09:32:20Z</time>
      </trkpt>
      <trkpt lat="43.693391" lon="-8.002226">
        <ele>283.791</ele>
        <time>2016-09-26T09:32:21Z</time>
      </trkpt>
      <trkpt lat="43.693360" lon="-8.002361">
        <ele>283.281</ele>
        <time>2016-09-26T09:32:22Z</time>
      </trkpt>
      <trkpt lat="43.693327" lon="-8.002495">
        <ele>282.819</ele>
        <time>2016-09-26T09:32:23Z</time>
      </trkpt>
      <trkpt lat="43.693294" lon="-8.002628">
        <ele>282.408</ele>
        <time>2016-09-26T09:32:24Z</time>
      </trkpt>
      <trkpt lat="43.693263" lon="-8.002755">
        <ele>282.160</ele>
        <time>2016-09-26T09:32:25Z</time>
      </trkpt>
      <trkpt lat="43.693232" lon="-8.002884">
        <ele>281.555</ele>
        <time>2016-09-26T09:32:26Z</time>
      </trkpt>
      <trkpt lat="43.693200" lon="-8.003012">
        <ele>281.113</ele>
        <time>2016-09-26T09:32:27Z</time>
      </trkpt>
      <trkpt lat="43.693169" lon="-8.003136">
        <ele>280.559</ele>
        <time>2016-09-26T09:32:28Z</time>
      </trkpt>
      <trkpt lat="43.693139" lon="-8.003257">
        <ele>279.823</ele>
        <time>2016-09-26T09:32:29Z</time>
      </trkpt>
      <trkpt lat="43.693107" lon="-8.003376">
        <ele>279.665</ele>
        <time>2016-09-26T09:32:30Z</time>
      </trkpt>
      <trkpt lat="43.693076" lon="-8.003493">
        <ele>279.128</ele>
        <time>2016-09-26T09:32:31Z</time>
      </trkpt>
      <trkpt lat="43.693046" lon="-8.003606">
        <ele>278.616</ele>
        <time>2016-09-26T09:32:32Z</time>
      </trkpt>
      <trkpt lat="43.693018" lon="-8.003717">
        <ele>278.329</ele>
        <time>2016-09-26T09:32:33Z</time>
      </trkpt>
      <trkpt lat="43.692993" lon="-8.003824">
        <ele>277.900</ele>
        <time>2016-09-26T09:32:34Z</time>
      </trkpt>
      <trkpt lat="43.692971" lon="-8.003929">
        <ele>277.720</ele>
        <time>2016-09-26T09:32:35Z</time>
      </trkpt>
      <trkpt lat="43.692953" lon="-8.004033">
        <ele>277.508</ele>
        <time>2016-09-26T09:32:36Z</time>
      </trkpt>
      <trkpt lat="43.692938" lon="-8.004136">
        <ele>277.393</ele>
        <time>2016-09-26T09:32:37Z</time>
      </trkpt>
      <trkpt lat="43.692921" lon="-8.004239">
        <ele>277.168</ele>
        <time>2016-09-26T09:32:38Z</time>
      </trkpt>
      <trkpt lat="43.692906" lon="-8.004342">
        <ele>277.216</ele>
        <time>2016-09-26T09:32:39Z</time>
      </trkpt>
      <trkpt lat="43.692890" lon="-8.004448">
        <ele>277.272</ele>
        <time>2016-09-26T09:32:40Z</time>
      </trkpt>
      <trkpt lat="43.692869" lon="-8.004549">
        <ele>277.236</ele>
        <time>2016-09-26T09:32:41Z</time>
      </trkpt>
      <trkpt lat="43.692845" lon="-8.004643">
        <ele>277.028</ele>
        <time>2016-09-26T09:32:42Z</time>
      </trkpt>
      <trkpt lat="43.692813" lon="-8.004729">
        <ele>276.991</ele>
        <time>2016-09-26T09:32:43Z</time>
      </trkpt>
      <trkpt lat="43.692769" lon="-8.004805">
        <ele>276.919</ele>
        <time>2016-09-26T09:32:44Z</time>
      </trkpt>
      <trkpt lat="43.692717" lon="-8.004871">
        <ele>276.638</ele>
        <time>2016-09-26T09:32:45Z</time>
      </trkpt>
      <trkpt lat="43.692655" lon="-8.004931">
        <ele>276.270</ele>
        <time>2016-09-26T09:32:46Z</time>
      </trkpt>
      <trkpt lat="43.692584" lon="-8.004993">
        <ele>275.717</ele>
        <time>2016-09-26T09:32:47Z</time>
      </trkpt>
      <trkpt lat="43.692506" lon="-8.005052">
        <ele>275.308</ele>
        <time>2016-09-26T09:32:48Z</time>
      </trkpt>
      <trkpt lat="43.692421" lon="-8.005104">
        <ele>274.844</ele>
        <time>2016-09-26T09:32:49Z</time>
      </trkpt>
      <trkpt lat="43.692331" lon="-8.005159">
        <ele>274.189</ele>
        <time>2016-09-26T09:32:50Z</time>
      </trkpt>
      <trkpt lat="43.692241" lon="-8.005216">
        <ele>273.527</ele>
        <time>2016-09-26T09:32:51Z</time>
      </trkpt>
      <trkpt lat="43.692151" lon="-8.005273">
        <ele>272.963</ele>
        <time>2016-09-26T09:32:52Z</time>
      </trkpt>
      <trkpt lat="43.692061" lon="-8.005328">
        <ele>272.597</ele>
        <time>2016-09-26T09:32:53Z</time>
      </trkpt>
      <trkpt lat="43.691969" lon="-8.005383">
        <ele>271.869</ele>
        <time>2016-09-26T09:32:54Z</time>
      </trkpt>
      <trkpt lat="43.691880" lon="-8.005441">
        <ele>271.262</ele>
        <time>2016-09-26T09:32:55Z</time>
      </trkpt>
      <trkpt lat="43.691791" lon="-8.005496">
        <ele>270.820</ele>
        <time>2016-09-26T09:32:56Z</time>
      </trkpt>
      <trkpt lat="43.691703" lon="-8.005548">
        <ele>270.385</ele>
        <time>2016-09-26T09:32:57Z</time>
      </trkpt>
      <trkpt lat="43.691615" lon="-8.005602">
        <ele>269.989</ele>
        <time>2016-09-26T09:32:58Z</time>
      </trkpt>
      <trkpt lat="43.691529" lon="-8.005651">
        <ele>269.617</ele>
        <time>2016-09-26T09:32:59Z</time>
      </trkpt>
      <trkpt lat="43.691442" lon="-8.005701">
        <ele>269.108</ele>
        <time>2016-09-26T09:33:00Z</time>
      </trkpt>
      <trkpt lat="43.691358" lon="-8.005751">
        <ele>268.849</ele>
        <time>2016-09-26T09:33:01Z</time>
      </trkpt>
      <trkpt lat="43.691276" lon="-8.005802">
        <ele>268.464</ele>
        <time>2016-09-26T09:33:02Z</time>
      </trkpt>
      <trkpt lat="43.691195" lon="-8.005854">
        <ele>267.922</ele>
        <time>2016-09-26T09:33:03Z</time>
      </trkpt>
      <trkpt lat="43.691115" lon="-8.005905">
        <ele>267.378</ele>
        <time>2016-09-26T09:33:04Z</time>
      </trkpt>
      <trkpt lat="43.691037" lon="-8.005953">
        <ele>266.922</ele>
        <time>2016-09-26T09:33:05Z</time>
      </trkpt>
      <trkpt lat="43.690960" lon="-8.006001">
        <ele>266.794</ele>
        <time>2016-09-26T09:33:06Z</time>
      </trkpt>
      <trkpt lat="43.690882" lon="-8.006053">
        <ele>266.537</ele>
        <time>2016-09-26T09:33:07Z</time>
      </trkpt>
      <trkpt lat="43.690803" lon="-8.006104">
        <ele>266.355</ele>
        <time>2016-09-26T09:33:08Z</time>
      </trkpt>
      <trkpt lat="43.690726" lon="-8.006150">
        <ele>266.036</ele>
        <time>2016-09-26T09:33:09Z</time>
      </trkpt>
      <trkpt lat="43.690649" lon="-8.006196">
        <ele>265.617</ele>
        <time>2016-09-26T09:33:10Z</time>
      </trkpt>
      <trkpt lat="43.690572" lon="-8.006246">
        <ele>265.318</ele>
        <time>2016-09-26T09:33:11Z</time>
      </trkpt>
      <trkpt lat="43.690493" lon="-8.006291">
        <ele>265.008</ele>
        <time>2016-09-26T09:33:12Z</time>
      </trkpt>
      <trkpt lat="43.690413" lon="-8.006337">
        <ele>264.894</ele>
        <time>2016-09-26T09:33:13Z</time>
      </trkpt>
      <trkpt lat="43.690334" lon="-8.006383">
        <ele>264.589</ele>
        <time>2016-09-26T09:33:14Z</time>
      </trkpt>
      <trkpt lat="43.690255" lon="-8.006430">
        <ele>264.217</ele>
        <time>2016-09-26T09:33:15Z</time>
      </trkpt>
      <trkpt lat="43.690176" lon="-8.006475">
        <ele>264.143</ele>
        <time>2016-09-26T09:33:16Z</time>
      </trkpt>
      <trkpt lat="43.690104" lon="-8.006517">
        <ele>263.727</ele>
        <time>2016-09-26T09:33:17Z</time>
      </trkpt>
      <trkpt lat="43.690036" lon="-8.006558">
        <ele>263.169</ele>
        <time>2016-09-26T09:33:18Z</time>
      </trkpt>
      <trkpt lat="43.689970" lon="-8.006599">
        <ele>262.512</ele>
        <time>2016-09-26T09:33:19Z</time>
      </trkpt>
      <trkpt lat="43.689904" lon="-8.006644">
        <ele>262.160</ele>
        <time>2016-09-26T09:33:20Z</time>
      </trkpt>
      <trkpt lat="43.689836" lon="-8.006687">
        <ele>261.687</ele>
        <time>2016-09-26T09:33:21Z</time>
      </trkpt>
      <trkpt lat="43.689765" lon="-8.006731">
        <ele>261.142</ele>
        <time>2016-09-26T09:33:22Z</time>
      </trkpt>
      <trkpt lat="43.689691" lon="-8.006775">
        <ele>260.426</ele>
        <time>2016-09-26T09:33:23Z</time>
      </trkpt>
      <trkpt lat="43.689615" lon="-8.006819">
        <ele>260.108</ele>
        <time>2016-09-26T09:33:24Z</time>
      </trkpt>
      <trkpt lat="43.689536" lon="-8.006866">
        <ele>259.739</ele>
        <time>2016-09-26T09:33:25Z</time>
      </trkpt>
      <trkpt lat="43.689455" lon="-8.006914">
        <ele>259.214</ele>
        <time>2016-09-26T09:33:26Z</time>
      </trkpt>
      <trkpt lat="43.689371" lon="-8.006966">
        <ele>258.852</ele>
        <time>2016-09-26T09:33:27Z</time>
      </trkpt>
      <trkpt lat="43.689290" lon="-8.007022">
        <ele>258.218</ele>
        <time>2016-09-26T09:33:28Z</time>
      </trkpt>
      <trkpt lat="43.689213" lon="-8.007079">
        <ele>257.952</ele>
        <time>2016-09-26T09:33:29Z</time>
      </trkpt>
      <trkpt lat="43.689138" lon="-8.007136">
        <ele>257.844</ele>
        <time>2016-09-26T09:33:30Z</time>
      </trkpt>
      <trkpt lat="43.689067" lon="-8.007189">
        <ele>257.617</ele>
        <time>2016-09-26T09:33:31Z</time>
      </trkpt>
      <trkpt lat="43.688997" lon="-8.007237">
        <ele>257.495</ele>
        <time>2016-09-26T09:33:32Z</time>
      </trkpt>
      <trkpt lat="43.688932" lon="-8.007287">
        <ele>257.562</ele>
        <time>2016-09-26T09:33:33Z</time>
      </trkpt>
      <trkpt lat="43.688878" lon="-8.007333">
        <ele>257.583</ele>
        <time>2016-09-26T09:33:34Z</time>
      </trkpt>
      <trkpt lat="43.688830" lon="-8.007374">
        <ele>257.511</ele>
        <time>2016-09-26T09:33:35Z</time>
      </trkpt>
      <trkpt lat="43.688792" lon="-8.007410">
        <ele>257.608</ele>
        <time>2016-09-26T09:33:36Z</time>
      </trkpt>
      <trkpt lat="43.688758" lon="-8.007452">
        <ele>257.797</ele>
        <time>2016-09-26T09:33:37Z</time>
      </trkpt>
      <trkpt lat="43.688720" lon="-8.007501">
        <ele>257.762</ele>
        <time>2016-09-26T09:33:38Z</time>
      </trkpt>
      <trkpt lat="43.688683" lon="-8.007548">
        <ele>257.990</ele>
        <time>2016-09-26T09:33:39Z</time>
      </trkpt>
      <trkpt lat="43.688648" lon="-8.007598">
        <ele>258.096</ele>
        <time>2016-09-26T09:33:40Z</time>
      </trkpt>
      <trkpt lat="43.688610" lon="-8.007656">
        <ele>258.330</ele>
        <time>2016-09-26T09:33:41Z</time>
      </trkpt>
      <trkpt lat="43.688571" lon="-8.007716">
        <ele>258.582</ele>
        <time>2016-09-26T09:33:42Z</time>
      </trkpt>
      <trkpt lat="43.688535" lon="-8.007775">
        <ele>258.595</ele>
        <time>2016-09-26T09:33:43Z</time>
      </trkpt>
      <trkpt lat="43.688502" lon="-8.007833">
        <ele>258.713</ele>
        <time>2016-09-26T09:33:44Z</time>
      </trkpt>
      <trkpt lat="43.688465" lon="-8.007891">
        <ele>259.087</ele>
        <time>2016-09-26T09:33:45Z</time>
      </trkpt>
      <trkpt lat="43.688426" lon="-8.007948">
        <ele>259.242</ele>
        <time>2016-09-26T09:33:46Z</time>
      </trkpt>
      <trkpt lat="43.688386" lon="-8.008004">
        <ele>259.226</ele>
        <time>2016-09-26T09:33:47Z</time>
      </trkpt>
      <trkpt lat="43.688344" lon="-8.008061">
        <ele>259.308</ele>
        <time>2016-09-26T09:33:48Z</time>
      </trkpt>
      <trkpt lat="43.688301" lon="-8.008113">
        <ele>259.549</ele>
        <time>2016-09-26T09:33:49Z</time>
      </trkpt>
      <trkpt lat="43.688254" lon="-8.008165">
        <ele>259.414</ele>
        <time>2016-09-26T09:33:50Z</time>
      </trkpt>
      <trkpt lat="43.688202" lon="-8.008218">
        <ele>259.482</ele>
        <time>2016-09-26T09:33:51Z</time>
      </trkpt>
      <trkpt lat="43.688145" lon="-8.008265">
        <ele>259.488</ele>
        <time>2016-09-26T09:33:52Z</time>
      </trkpt>
      <trkpt lat="43.688079" lon="-8.008313">
        <ele>259.262</ele>
        <time>2016-09-26T09:33:53Z</time>
      </trkpt>
      <trkpt lat="43.688007" lon="-8.008349">
        <ele>259.014</ele>
        <time>2016-09-26T09:33:54Z</time>
      </trkpt>
      <trkpt lat="43.687927" lon="-8.008374">
        <ele>258.447</ele>
        <time>2016-09-26T09:33:55Z</time>
      </trkpt>
      <trkpt lat="43.687840" lon="-8.008392">
        <ele>258.095</ele>
        <time>2016-09-26T09:33:56Z</time>
      </trkpt>
      <trkpt lat="43.687746" lon="-8.008403">
        <ele>257.567</ele>
        <time>2016-09-26T09:33:57Z</time>
      </trkpt>
      <trkpt lat="43.687647" lon="-8.008402">
        <ele>256.981</ele>
        <time>2016-09-26T09:33:58Z</time>
      </trkpt>
      <trkpt lat="43.687544" lon="-8.008393">
        <ele>256.119</ele>
        <time>2016-09-26T09:33:59Z</time>
      </trkpt>
      <trkpt lat="43.687438" lon="-8.008376">
        <ele>255.308</ele>
        <time>2016-09-26T09:34:00Z</time>
      </trkpt>
      <trkpt lat="43.687337" lon="-8.008353">
        <ele>254.587</ele>
        <time>2016-09-26T09:34:01Z</time>
      </trkpt>
      <trkpt lat="43.687236" lon="-8.008336">
        <ele>253.692</ele>
        <time>2016-09-26T09:34:02Z</time>
      </trkpt>
      <trkpt lat="43.687130" lon="-8.008325">
        <ele>252.990</ele>
        <time>2016-09-26T09:34:03Z</time>
      </trkpt>
      <trkpt lat="43.687024" lon="-8.008325">
        <ele>252.126</ele>
        <time>2016-09-26T09:34:04Z</time>
      </trkpt>
      <trkpt lat="43.686926" lon="-8.008338">
        <ele>251.620</ele>
        <time>2016-09-26T09:34:05Z</time>
      </trkpt>
      <trkpt lat="43.686831" lon="-8.008362">
        <ele>250.772</ele>
        <time>2016-09-26T09:34:06Z</time>
      </trkpt>
      <trkpt lat="43.686730" lon="-8.008395">
        <ele>249.885</ele>
        <time>2016-09-26T09:34:07Z</time>
      </trkpt>
      <trkpt lat="43.686623" lon="-8.008429">
        <ele>249.083</ele>
        <time>2016-09-26T09:34:08Z</time>
      </trkpt>
      <trkpt lat="43.686503" lon="-8.008473">
        <ele>248.088</ele>
        <time>2016-09-26T09:34:09Z</time>
      </trkpt>
      <trkpt lat="43.686385" lon="-8.008539">
        <ele>247.024</ele>
        <time>2016-09-26T09:34:10Z</time>
      </trkpt>
      <trkpt lat="43.686286" lon="-8.008638">
        <ele>246.126</ele>
        <time>2016-09-26T09:34:11Z</time>
      </trkpt>
      <trkpt lat="43.686189" lon="-8.008743">
        <ele>245.308</ele>
        <time>2016-09-26T09:34:12Z</time>
      </trkpt>
      <trkpt lat="43.686088" lon="-8.008843">
        <ele>244.139</ele>
        <time>2016-09-26T09:34:13Z</time>
      </trkpt>
      <trkpt lat="43.685980" lon="-8.008945">
        <ele>243.124</ele>
        <time>2016-09-26T09:34:14Z</time>
      </trkpt>
      <trkpt lat="43.685870" lon="-8.009047">
        <ele>242.232</ele>
        <time>2016-09-26T09:34:15Z</time>
      </trkpt>
      <trkpt lat="43.685767" lon="-8.009146">
        <ele>241.078</ele>
        <time>2016-09-26T09:34:16Z</time>
      </trkpt>
      <trkpt lat="43.685667" lon="-8.009238">
        <ele>240.082</ele>
        <time>2016-09-26T09:34:17Z</time>
      </trkpt>
      <trkpt lat="43.685572" lon="-8.009323">
        <ele>238.814</ele>
        <time>2016-09-26T09:34:18Z</time>
      </trkpt>
      <trkpt lat="43.685474" lon="-8.009408">
        <ele>237.647</ele>
        <time>2016-09-26T09:34:19Z</time>
      </trkpt>
      <trkpt lat="43.685384" lon="-8.009489">
        <ele>236.525</ele>
        <time>2016-09-26T09:34:20Z</time>
      </trkpt>
      <trkpt lat="43.685303" lon="-8.009549">
        <ele>235.117</ele>
        <time>2016-09-26T09:34:21Z</time>
      </trkpt>
      <trkpt lat="43.685223" lon="-8.009594">
        <ele>234.287</ele>
        <time>2016-09-26T09:34:22Z</time>
      </trkpt>
      <trkpt lat="43.685147" lon="-8.009593">
        <ele>233.515</ele>
        <time>2016-09-26T09:34:23Z</time>
      </trkpt>
      <trkpt lat="43.685063" lon="-8.009573">
        <ele>232.608</ele>
        <time>2016-09-26T09:34:24Z</time>
      </trkpt>
      <trkpt lat="43.684988" lon="-8.009548">
        <ele>231.812</ele>
        <time>2016-09-26T09:34:25Z</time>
      </trkpt>
      <trkpt lat="43.684910" lon="-8.009501">
        <ele>231.097</ele>
        <time>2016-09-26T09:34:26Z</time>
      </trkpt>
      <trkpt lat="43.684822" lon="-8.009453">
        <ele>230.285</ele>
        <time>2016-09-26T09:34:27Z</time>
      </trkpt>
      <trkpt lat="43.684733" lon="-8.009403">
        <ele>229.261</ele>
        <time>2016-09-26T09:34:28Z</time>
      </trkpt>
      <trkpt lat="43.684644" lon="-8.009348">
        <ele>228.495</ele>
        <time>2016-09-26T09:34:29Z</time>
      </trkpt>
      <trkpt lat="43.684550" lon="-8.009292">
        <ele>227.847</ele>
        <time>2016-09-26T09:34:30Z</time>
      </trkpt>
      <trkpt lat="43.684454" lon="-8.009239">
        <ele>227.060</ele>
        <time>2016-09-26T09:34:31Z</time>
      </trkpt>
      <trkpt lat="43.684353" lon="-8.009192">
        <ele>226.588</ele>
        <time>2016-09-26T09:34:32Z</time>
      </trkpt>
      <trkpt lat="43.684253" lon="-8.009154">
        <ele>225.822</ele>
        <time>2016-09-26T09:34:33Z</time>
      </trkpt>
      <trkpt lat="43.684153" lon="-8.009118">
        <ele>225.362</ele>
        <time>2016-09-26T09:34:34Z</time>
      </trkpt>
      <trkpt lat="43.684059" lon="-8.009087">
        <ele>224.508</ele>
        <time>2016-09-26T09:34:35Z</time>
      </trkpt>
      <trkpt lat="43.683971" lon="-8.009063">
        <ele>223.808</ele>
        <time>2016-09-26T09:34:36Z</time>
      </trkpt>
      <trkpt lat="43.683875" lon="-8.009054">
        <ele>223.233</ele>
        <time>2016-09-26T09:34:37Z</time>
      </trkpt>
      <trkpt lat="43.683772" lon="-8.009050">
        <ele>222.828</ele>
        <time>2016-09-26T09:34:38Z</time>
      </trkpt>
      <trkpt lat="43.683667" lon="-8.009045">
        <ele>222.066</ele>
        <time>2016-09-26T09:34:39Z</time>
      </trkpt>
      <trkpt lat="43.683564" lon="-8.009041">
        <ele>221.232</ele>
        <time>2016-09-26T09:34:40Z</time>
      </trkpt>
      <trkpt lat="43.683463" lon="-8.009035">
        <ele>220.736</ele>
        <time>2016-09-26T09:34:41Z</time>
      </trkpt>
      <trkpt lat="43.683361" lon="-8.009030">
        <ele>220.118</ele>
        <time>2016-09-26T09:34:42Z</time>
      </trkpt>
      <trkpt lat="43.683251" lon="-8.009037">
        <ele>219.581</ele>
        <time>2016-09-26T09:34:43Z</time>
      </trkpt>
      <trkpt lat="43.683148" lon="-8.009051">
        <ele>218.859</ele>
        <time>2016-09-26T09:34:44Z</time>
      </trkpt>
      <trkpt lat="43.683046" lon="-8.009079">
        <ele>218.247</ele>
        <time>2016-09-26T09:34:45Z</time>
      </trkpt>
      <trkpt lat="43.682934" lon="-8.009120">
        <ele>217.329</ele>
        <time>2016-09-26T09:34:46Z</time>
      </trkpt>
      <trkpt lat="43.682818" lon="-8.009162">
        <ele>216.521</ele>
        <time>2016-09-26T09:34:47Z</time>
      </trkpt>
      <trkpt lat="43.682703" lon="-8.009211">
        <ele>215.808</ele>
        <time>2016-09-26T09:34:48Z</time>
      </trkpt>
      <trkpt lat="43.682588" lon="-8.009264">
        <ele>214.925</ele>
        <time>2016-09-26T09:34:49Z</time>
      </trkpt>
      <trkpt lat="43.682474" lon="-8.009315">
        <ele>214.190</ele>
        <time>2016-09-26T09:34:50Z</time>
      </trkpt>
      <trkpt lat="43.682357" lon="-8.009367">
        <ele>213.338</ele>
        <time>2016-09-26T09:34:51Z</time>
      </trkpt>
      <trkpt lat="43.682239" lon="-8.009424">
        <ele>212.434</ele>
        <time>2016-09-26T09:34:52Z</time>
      </trkpt>
      <trkpt lat="43.682132" lon="-8.009479">
        <ele>211.538</ele>
        <time>2016-09-26T09:34:53Z</time>
      </trkpt>
      <trkpt lat="43.682021" lon="-8.009551">
        <ele>210.710</ele>
        <time>2016-09-26T09:34:54Z</time>
      </trkpt>
      <trkpt lat="43.681930" lon="-8.009620">
        <ele>209.813</ele>
        <time>2016-09-26T09:34:55Z</time>
      </trkpt>
      <trkpt lat="43.681843" lon="-8.009713">
        <ele>208.951</ele>
        <time>2016-09-26T09:34:56Z</time>
      </trkpt>
      <trkpt lat="43.681776" lon="-8.009821">
        <ele>207.867</ele>
        <time>2016-09-26T09:34:57Z</time>
      </trkpt>
      <trkpt lat="43.681703" lon="-8.009945">
        <ele>206.981</ele>
        <time>2016-09-26T09:34:58Z</time>
      </trkpt>
      <trkpt lat="43.681639" lon="-8.010088">
        <ele>206.019</ele>
        <time>2016-09-26T09:34:59Z</time>
      </trkpt>
      <trkpt lat="43.681596" lon="-8.010247">
        <ele>205.208</ele>
        <time>2016-09-26T09:35:00Z</time>
      </trkpt>
      <trkpt lat="43.681567" lon="-8.010406">
        <ele>204.327</ele>
        <time>2016-09-26T09:35:01Z</time>
      </trkpt>
      <trkpt lat="43.681534" lon="-8.010562">
        <ele>203.572</ele>
        <time>2016-09-26T09:35:02Z</time>
      </trkpt>
      <trkpt lat="43.681509" lon="-8.010719">
        <ele>202.740</ele>
        <time>2016-09-26T09:35:03Z</time>
      </trkpt>
      <trkpt lat="43.681487" lon="-8.010872">
        <ele>202.256</ele>
        <time>2016-09-26T09:35:04Z</time>
      </trkpt>
      <trkpt lat="43.681460" lon="-8.011027">
        <ele>201.670</ele>
        <time>2016-09-26T09:35:05Z</time>
      </trkpt>
      <trkpt lat="43.681432" lon="-8.011179">
        <ele>200.992</ele>
        <time>2016-09-26T09:35:06Z</time>
      </trkpt>
      <trkpt lat="43.681400" lon="-8.011330">
        <ele>200.155</ele>
        <time>2016-09-26T09:35:07Z</time>
      </trkpt>
      <trkpt lat="43.681372" lon="-8.011483">
        <ele>199.433</ele>
        <time>2016-09-26T09:35:08Z</time>
      </trkpt>
      <trkpt lat="43.681344" lon="-8.011638">
        <ele>198.628</ele>
        <time>2016-09-26T09:35:09Z</time>
      </trkpt>
      <trkpt lat="43.681314" lon="-8.011801">
        <ele>197.989</ele>
        <time>2016-09-26T09:35:10Z</time>
      </trkpt>
      <trkpt lat="43.681287" lon="-8.011966">
        <ele>197.217</ele>
        <time>2016-09-26T09:35:11Z</time>
      </trkpt>
      <trkpt lat="43.681259" lon="-8.012131">
        <ele>196.208</ele>
        <time>2016-09-26T09:35:12Z</time>
      </trkpt>
      <trkpt lat="43.681230" lon="-8.012293">
        <ele>195.223</ele>
        <time>2016-09-26T09:35:13Z</time>
      </trkpt>
      <trkpt lat="43.681201" lon="-8.012448">
        <ele>194.288</ele>
        <time>2016-09-26T09:35:14Z</time>
      </trkpt>
      <trkpt lat="43.681174" lon="-8.012600">
        <ele>193.226</ele>
        <time>2016-09-26T09:35:15Z</time>
      </trkpt>
      <trkpt lat="43.681147" lon="-8.012749">
        <ele>192.422</ele>
        <time>2016-09-26T09:35:16Z</time>
      </trkpt>
      <trkpt lat="43.681120" lon="-8.012890">
        <ele>191.576</ele>
        <time>2016-09-26T09:35:17Z</time>
      </trkpt>
      <trkpt lat="43.681099" lon="-8.013022">
        <ele>190.988</ele>
        <time>2016-09-26T09:35:18Z</time>
      </trkpt>
      <trkpt lat="43.681068" lon="-8.013140">
        <ele>190.581</ele>
        <time>2016-09-26T09:35:19Z</time>
      </trkpt>
      <trkpt lat="43.681030" lon="-8.013247">
        <ele>190.119</ele>
        <time>2016-09-26T09:35:20Z</time>
      </trkpt>
      <trkpt lat="43.680983" lon="-8.013342">
        <ele>189.983</ele>
        <time>2016-09-26T09:35:21Z</time>
      </trkpt>
      <trkpt lat="43.680935" lon="-8.013433">
        <ele>189.425</ele>
        <time>2016-09-26T09:35:22Z</time>
      </trkpt>
      <trkpt lat="43.680888" lon="-8.013526">
        <ele>188.917</ele>
        <time>2016-09-26T09:35:23Z</time>
      </trkpt>
      <trkpt lat="43.680836" lon="-8.013619">
        <ele>188.208</ele>
        <time>2016-09-26T09:35:24Z</time>
      </trkpt>
      <trkpt lat="43.680783" lon="-8.013717">
        <ele>187.979</ele>
        <time>2016-09-26T09:35:25Z</time>
      </trkpt>
      <trkpt lat="43.680728" lon="-8.013820">
        <ele>187.554</ele>
        <time>2016-09-26T09:35:26Z</time>
      </trkpt>
      <trkpt lat="43.680668" lon="-8.013924">
        <ele>186.952</ele>
        <time>2016-09-26T09:35:27Z</time>
      </trkpt>
      <trkpt lat="43.680606" lon="-8.014036">
        <ele>186.278</ele>
        <time>2016-09-26T09:35:28Z</time>
      </trkpt>
      <trkpt lat="43.680545" lon="-8.014146">
        <ele>185.442</ele>
        <time>2016-09-26T09:35:29Z</time>
      </trkpt>
      <trkpt lat="43.680485" lon="-8.014254">
        <ele>184.724</ele>
        <time>2016-09-26T09:35:30Z</time>
      </trkpt>
      <trkpt lat="43.680425" lon="-8.014361">
        <ele>183.727</ele>
        <time>2016-09-26T09:35:31Z</time>
      </trkpt>
      <trkpt lat="43.680365" lon="-8.014463">
        <ele>182.845</ele>
        <time>2016-09-26T09:35:32Z</time>
      </trkpt>
      <trkpt lat="43.680307" lon="-8.014562">
        <ele>181.887</ele>
        <time>2016-09-26T09:35:33Z</time>
      </trkpt>
      <trkpt lat="43.680248" lon="-8.014658">
        <ele>180.642</ele>
        <time>2016-09-26T09:35:34Z</time>
      </trkpt>
      <trkpt lat="43.680186" lon="-8.014749">
        <ele>179.526</ele>
        <time>2016-09-26T09:35:35Z</time>
      </trkpt>
      <trkpt lat="43.680124" lon="-8.014829">
        <ele>178.208</ele>
        <time>2016-09-26T09:35:36Z</time>
      </trkpt>
      <trkpt lat="43.680057" lon="-8.014895">
        <ele>177.129</ele>
        <time>2016-09-26T09:35:37Z</time>
      </trkpt>
      <trkpt lat="43.679981" lon="-8.014945">
        <ele>175.814</ele>
        <time>2016-09-26T09:35:38Z</time>
      </trkpt>
      <trkpt lat="43.679900" lon="-8.014973">
        <ele>174.772</ele>
        <time>2016-09-26T09:35:39Z</time>
      </trkpt>
      <trkpt lat="43.679812" lon="-8.014975">
        <ele>173.578</ele>
        <time>2016-09-26T09:35:40Z</time>
      </trkpt>
      <trkpt lat="43.679722" lon="-8.014958">
        <ele>172.582</ele>
        <time>2016-09-26T09:35:41Z</time>
      </trkpt>
      <trkpt lat="43.679632" lon="-8.014930">
        <ele>171.414</ele>
        <time>2016-09-26T09:35:42Z</time>
      </trkpt>
      <trkpt lat="43.679540" lon="-8.014892">
        <ele>170.537</ele>
        <time>2016-09-26T09:35:43Z</time>
      </trkpt>
      <trkpt lat="43.679446" lon="-8.014854">
        <ele>169.855</ele>
        <time>2016-09-26T09:35:44Z</time>
      </trkpt>
      <trkpt lat="43.679350" lon="-8.014818">
        <ele>169.139</ele>
        <time>2016-09-26T09:35:45Z</time>
      </trkpt>
      <trkpt lat="43.679254" lon="-8.014780">
        <ele>168.601</ele>
        <time>2016-09-26T09:35:46Z</time>
      </trkpt>
      <trkpt lat="43.679158" lon="-8.014747">
        <ele>167.921</ele>
        <time>2016-09-26T09:35:47Z</time>
      </trkpt>
      <trkpt lat="43.679059" lon="-8.014720">
        <ele>167.208</ele>
        <time>2016-09-26T09:35:48Z</time>
      </trkpt>
      <trkpt lat="43.678955" lon="-8.014703">
        <ele>166.594</ele>
        <time>2016-09-26T09:35:49Z</time>
      </trkpt>
      <trkpt lat="43.678848" lon="-8.014691">
        <ele>165.969</ele>
        <time>2016-09-26T09:35:50Z</time>
      </trkpt>
      <trkpt lat="43.678741" lon="-8.014680">
        <ele>165.167</ele>
        <time>2016-09-26T09:35:51Z</time>
      </trkpt>
      <trkpt lat="43.678632" lon="-8.014672">
        <ele>164.363</ele>
        <time>2016-09-26T09:35:52Z</time>
      </trkpt>
      <trkpt lat="43.678524" lon="-8.014664">
        <ele>163.477</ele>
        <time>2016-09-26T09:35:53Z</time>
      </trkpt>
      <trkpt lat="43.678422" lon="-8.014653">
        <ele>162.589</ele>
        <time>2016-09-26T09:35:54Z</time>
      </trkpt>
      <trkpt lat="43.678316" lon="-8.014648">
        <ele>161.512</ele>
        <time>2016-09-26T09:35:55Z</time>
      </trkpt>
      <trkpt lat="43.678209" lon="-8.014655">
        <ele>160.890</ele>
        <time>2016-09-26T09:35:56Z</time>
      </trkpt>
      <trkpt lat="43.678106" lon="-8.014669">
        <ele>160.117</ele>
        <time>2016-09-26T09:35:57Z</time>
      </trkpt>
      <trkpt lat="43.678012" lon="-8.014685">
        <ele>159.187</ele>
        <time>2016-09-26T09:35:58Z</time>
      </trkpt>
      <trkpt lat="43.677936" lon="-8.014709">
        <ele>157.915</ele>
        <time>2016-09-26T09:35:59Z</time>
      </trkpt>
      <trkpt lat="43.677870" lon="-8.014750">
        <ele>156.908</ele>
        <time>2016-09-26T09:36:00Z</time>
      </trkpt>
      <trkpt lat="43.677810" lon="-8.014812">
        <ele>155.942</ele>
        <time>2016-09-26T09:36:01Z</time>
      </trkpt>
      <trkpt lat="43.677739" lon="-8.014900">
        <ele>154.767</ele>
        <time>2016-09-26T09:36:02Z</time>
      </trkpt>
      <trkpt lat="43.677667" lon="-8.014995">
        <ele>153.825</ele>
        <time>2016-09-26T09:36:03Z</time>
      </trkpt>
      <trkpt lat="43.677616" lon="-8.015109">
        <ele>152.971</ele>
        <time>2016-09-26T09:36:04Z</time>
      </trkpt>
      <trkpt lat="43.677563" lon="-8.015233">
        <ele>151.815</ele>
        <time>2016-09-26T09:36:05Z</time>
      </trkpt>
      <trkpt lat="43.677517" lon="-8.015362">
        <ele>150.867</ele>
        <time>2016-09-26T09:36:06Z</time>
      </trkpt>
      <trkpt lat="43.677476" lon="-8.015493">
        <ele>149.830</ele>
        <time>2016-09-26T09:36:07Z</time>
      </trkpt>
      <trkpt lat="43.677443" lon="-8.015626">
        <ele>148.728</ele>
        <time>2016-09-26T09:36:08Z</time>
      </trkpt>
      <trkpt lat="43.677412" lon="-8.015775">
        <ele>147.759</ele>
        <time>2016-09-26T09:36:09Z</time>
      </trkpt>
      <trkpt lat="43.677381" lon="-8.015934">
        <ele>146.703</ele>
        <time>2016-09-26T09:36:10Z</time>
      </trkpt>
      <trkpt lat="43.677341" lon="-8.016102">
        <ele>145.423</ele>
        <time>2016-09-26T09:36:11Z</time>
      </trkpt>
      <trkpt lat="43.677309" lon="-8.016265">
        <ele>144.408</ele>
        <time>2016-09-26T09:36:12Z</time>
      </trkpt>
      <trkpt lat="43.677278" lon="-8.016431">
        <ele>143.326</ele>
        <time>2016-09-26T09:36:13Z</time>
      </trkpt>
      <trkpt lat="43.677239" lon="-8.016598">
        <ele>142.261</ele>
        <time>2016-09-26T09:36:14Z</time>
      </trkpt>
      <trkpt lat="43.677196" lon="-8.016761">
        <ele>141.449</ele>
        <time>2016-09-26T09:36:15Z</time>
      </trkpt>
      <trkpt lat="43.677155" lon="-8.016924">
        <ele>140.465</ele>
        <time>2016-09-26T09:36:16Z</time>
      </trkpt>
      <trkpt lat="43.677113" lon="-8.017082">
        <ele>139.349</ele>
        <time>2016-09-26T09:36:17Z</time>
      </trkpt>
      <trkpt lat="43.677058" lon="-8.017220">
        <ele>138.421</ele>
        <time>2016-09-26T09:36:18Z</time>
      </trkpt>
      <trkpt lat="43.677006" lon="-8.017352">
        <ele>137.254</ele>
        <time>2016-09-26T09:36:19Z</time>
      </trkpt>
      <trkpt lat="43.676945" lon="-8.017482">
        <ele>136.222</ele>
        <time>2016-09-26T09:36:20Z</time>
      </trkpt>
      <trkpt lat="43.676879" lon="-8.017607">
        <ele>135.243</ele>
        <time>2016-09-26T09:36:21Z</time>
      </trkpt>
      <trkpt lat="43.676818" lon="-8.017735">
        <ele>134.264</ele>
        <time>2016-09-26T09:36:22Z</time>
      </trkpt>
      <trkpt lat="43.676754" lon="-8.017864">
        <ele>133.310</ele>
        <time>2016-09-26T09:36:23Z</time>
      </trkpt>
      <trkpt lat="43.676685" lon="-8.017987">
        <ele>132.308</ele>
        <time>2016-09-26T09:36:24Z</time>
      </trkpt>
      <trkpt lat="43.676607" lon="-8.018103">
        <ele>131.385</ele>
        <time>2016-09-26T09:36:25Z</time>
      </trkpt>
      <trkpt lat="43.676522" lon="-8.018208">
        <ele>130.350</ele>
        <time>2016-09-26T09:36:26Z</time>
      </trkpt>
      <trkpt lat="43.676430" lon="-8.018304">
        <ele>129.318</ele>
        <time>2016-09-26T09:36:27Z</time>
      </trkpt>
      <trkpt lat="43.676331" lon="-8.018397">
        <ele>128.244</ele>
        <time>2016-09-26T09:36:28Z</time>
      </trkpt>
      <trkpt lat="43.676231" lon="-8.018484">
        <ele>127.048</ele>
        <time>2016-09-26T09:36:29Z</time>
      </trkpt>
      <trkpt lat="43.676134" lon="-8.018571">
        <ele>126.070</ele>
        <time>2016-09-26T09:36:30Z</time>
      </trkpt>
      <trkpt lat="43.676040" lon="-8.018659">
        <ele>125.153</ele>
        <time>2016-09-26T09:36:31Z</time>
      </trkpt>
      <trkpt lat="43.675951" lon="-8.018743">
        <ele>124.481</ele>
        <time>2016-09-26T09:36:32Z</time>
      </trkpt>
      <trkpt lat="43.675871" lon="-8.018817">
        <ele>123.245</ele>
        <time>2016-09-26T09:36:33Z</time>
      </trkpt>
      <trkpt lat="43.675798" lon="-8.018884">
        <ele>122.247</ele>
        <time>2016-09-26T09:36:34Z</time>
      </trkpt>
      <trkpt lat="43.675738" lon="-8.018942">
        <ele>121.111</ele>
        <time>2016-09-26T09:36:35Z</time>
      </trkpt>
      <trkpt lat="43.675685" lon="-8.018994">
        <ele>120.108</ele>
        <time>2016-09-26T09:36:36Z</time>
      </trkpt>
      <trkpt lat="43.675629" lon="-8.019040">
        <ele>119.065</ele>
        <time>2016-09-26T09:36:37Z</time>
      </trkpt>
      <trkpt lat="43.675566" lon="-8.019066">
        <ele>118.010</ele>
        <time>2016-09-26T09:36:38Z</time>
      </trkpt>
      <trkpt lat="43.675502" lon="-8.019073">
        <ele>117.028</ele>
        <time>2016-09-26T09:36:39Z</time>
      </trkpt>
      <trkpt lat="43.675438" lon="-8.019061">
        <ele>115.944</ele>
        <time>2016-09-26T09:36:40Z</time>
      </trkpt>
      <trkpt lat="43.675374" lon="-8.019029">
        <ele>115.198</ele>
        <time>2016-09-26T09:36:41Z</time>
      </trkpt>
      <trkpt lat="43.675337" lon="-8.018964">
        <ele>114.310</ele>
        <time>2016-09-26T09:36:42Z</time>
      </trkpt>
      <trkpt lat="43.675368" lon="-8.018816">
        <ele>113.573</ele>
        <time>2016-09-26T09:36:43Z</time>
      </trkpt>
      <trkpt lat="43.675374" lon="-8.018700">
        <ele>112.721</ele>
        <time>2016-09-26T09:36:44Z</time>
      </trkpt>
      <trkpt lat="43.675382" lon="-8.018591">
        <ele>112.041</ele>
        <time>2016-09-26T09:36:45Z</time>
      </trkpt>
      <trkpt lat="43.675388" lon="-8.018495">
        <ele>111.281</ele>
        <time>2016-09-26T09:36:46Z</time>
      </trkpt>
      <trkpt lat="43.675391" lon="-8.018408">
        <ele>110.509</ele>
        <time>2016-09-26T09:36:47Z</time>
      </trkpt>
      <trkpt lat="43.675391" lon="-8.018315">
        <ele>109.908</ele>
        <time>2016-09-26T09:36:48Z</time>
      </trkpt>
      <trkpt lat="43.675390" lon="-8.018229">
        <ele>109.545</ele>
        <time>2016-09-26T09:36:49Z</time>
      </trkpt>
      <trkpt lat="43.675388" lon="-8.018138">
        <ele>108.830</ele>
        <time>2016-09-26T09:36:50Z</time>
      </trkpt>
      <trkpt lat="43.675378" lon="-8.018036">
        <ele>108.158</ele>
        <time>2016-09-26T09:36:51Z</time>
      </trkpt>
      <trkpt lat="43.675355" lon="-8.017953">
        <ele>107.584</ele>
        <time>2016-09-26T09:36:52Z</time>
      </trkpt>
      <trkpt lat="43.675322" lon="-8.017873">
        <ele>106.958</ele>
        <time>2016-09-26T09:36:53Z</time>
      </trkpt>
      <trkpt lat="43.675270" lon="-8.017805">
        <ele>106.350</ele>
        <time>2016-09-26T09:36:54Z</time>
      </trkpt>
      <trkpt lat="43.675212" lon="-8.017746">
        <ele>105.613</ele>
        <time>2016-09-26T09:36:55Z</time>
      </trkpt>
      <trkpt lat="43.675156" lon="-8.017696">
        <ele>105.061</ele>
        <time>2016-09-26T09:36:56Z</time>
      </trkpt>
      <trkpt lat="43.675101" lon="-8.017661">
        <ele>104.534</ele>
        <time>2016-09-26T09:36:57Z</time>
      </trkpt>
      <trkpt lat="43.675055" lon="-8.017654">
        <ele>103.755</ele>
        <time>2016-09-26T09:36:58Z</time>
      </trkpt>
      <trkpt lat="43.675014" lon="-8.017662">
        <ele>103.110</ele>
        <time>2016-09-26T09:36:59Z</time>
      </trkpt>
      <trkpt lat="43.674972" lon="-8.017711">
        <ele>102.508</ele>
        <time>2016-09-26T09:37:00Z</time>
      </trkpt>
      <trkpt lat="43.674931" lon="-8.017782">
        <ele>101.954</ele>
        <time>2016-09-26T09:37:01Z</time>
      </trkpt>
      <trkpt lat="43.674897" lon="-8.017859">
        <ele>101.329</ele>
        <time>2016-09-26T09:37:02Z</time>
      </trkpt>
      <trkpt lat="43.674875" lon="-8.017937">
        <ele>100.947</ele>
        <time>2016-09-26T09:37:03Z</time>
      </trkpt>
      <trkpt lat="43.674869" lon="-8.018028">
        <ele>100.413</ele>
        <time>2016-09-26T09:37:04Z</time>
      </trkpt>
      <trkpt lat="43.674861" lon="-8.018119">
        <ele>100.077</ele>
        <time>2016-09-26T09:37:05Z</time>
      </trkpt>
      <trkpt lat="43.674851" lon="-8.018214">
        <ele>99.769</ele>
        <time>2016-09-26T09:37:06Z</time>
      </trkpt>
      <trkpt lat="43.674839" lon="-8.018313">
        <ele>99.172</ele>
        <time>2016-09-26T09:37:07Z</time>
      </trkpt>
      <trkpt lat="43.674823" lon="-8.018418">
        <ele>98.730</ele>
        <time>2016-09-26T09:37:08Z</time>
      </trkpt>
      <trkpt lat="43.674803" lon="-8.018524">
        <ele>98.353</ele>
        <time>2016-09-26T09:37:09Z</time>
      </trkpt>
      <trkpt lat="43.674781" lon="-8.018627">
        <ele>97.904</ele>
        <time>2016-09-26T09:37:10Z</time>
      </trkpt>
      <trkpt lat="43.674753" lon="-8.018725">
        <ele>97.614</ele>
        <time>2016-09-26T09:37:11Z</time>
      </trkpt>
      <trkpt lat="43.674723" lon="-8.018823">
        <ele>97.108</ele>
        <time>2016-09-26T09:37:12Z</time>
      </trkpt>
      <trkpt lat="43.674693" lon="-8.018922">
        <ele>96.616</ele>
        <time>2016-09-26T09:37:13Z</time>
      </trkpt>
      <trkpt lat="43.674656" lon="-8.019019">
        <ele>96.181</ele>
        <time>2016-09-26T09:37:14Z</time>
      </trkpt>
      <trkpt lat="43.674617" lon="-8.019117">
        <ele>95.789</ele>
        <time>2016-09-26T09:37:15Z</time>
      </trkpt>
      <trkpt lat="43.674578" lon="-8.019217">
        <ele>95.345</ele>
        <time>2016-09-26T09:37:16Z</time>
      </trkpt>
      <trkpt lat="43.674540" lon="-8.019325">
        <ele>94.589</ele>
        <time>2016-09-26T09:37:17Z</time>
      </trkpt>
      <trkpt lat="43.674500" lon="-8.019432">
        <ele>94.011</ele>
        <time>2016-09-26T09:37:18Z</time>
      </trkpt>
      <trkpt lat="43.674459" lon="-8.019543">
        <ele>93.254</ele>
        <time>2016-09-26T09:37:19Z</time>
      </trkpt>
      <trkpt lat="43.674417" lon="-8.019653">
        <ele>92.652</ele>
        <time>2016-09-26T09:37:20Z</time>
      </trkpt>
      <trkpt lat="43.674378" lon="-8.019756">
        <ele>92.175</ele>
        <time>2016-09-26T09:37:21Z</time>
      </trkpt>
      <trkpt lat="43.674338" lon="-8.019856">
        <ele>91.228</ele>
        <time>2016-09-26T09:37:22Z</time>
      </trkpt>
      <trkpt lat="43.674301" lon="-8.019952">
        <ele>90.620</ele>
        <time>2016-09-26T09:37:23Z</time>
      </trkpt>
      <trkpt lat="43.674266" lon="-8.020041">
        <ele>89.808</ele>
        <time>2016-09-26T09:37:24Z</time>
      </trkpt>
      <trkpt lat="43.674224" lon="-8.020125">
        <ele>88.928</ele>
        <time>2016-09-26T09:37:25Z</time>
      </trkpt>
      <trkpt lat="43.674177" lon="-8.020200">
        <ele>88.123</ele>
        <time>2016-09-26T09:37:26Z</time>
      </trkpt>
      <trkpt lat="43.674128" lon="-8.020261">
        <ele>87.431</ele>
        <time>2016-09-26T09:37:27Z</time>
      </trkpt>
      <trkpt lat="43.674067" lon="-8.020318">
        <ele>86.627</ele>
        <time>2016-09-26T09:37:28Z</time>
      </trkpt>
      <trkpt lat="43.674002" lon="-8.020378">
        <ele>86.051</ele>
        <time>2016-09-26T09:37:29Z</time>
      </trkpt>
      <trkpt lat="43.673933" lon="-8.020440">
        <ele>85.263</ele>
        <time>2016-09-26T09:37:30Z</time>
      </trkpt>
      <trkpt lat="43.673862" lon="-8.020498">
        <ele>84.326</ele>
        <time>2016-09-26T09:37:31Z</time>
      </trkpt>
      <trkpt lat="43.673790" lon="-8.020551">
        <ele>83.574</ele>
        <time>2016-09-26T09:37:32Z</time>
      </trkpt>
      <trkpt lat="43.673719" lon="-8.020604">
        <ele>82.673</ele>
        <time>2016-09-26T09:37:33Z</time>
      </trkpt>
      <trkpt lat="43.673652" lon="-8.020653">
        <ele>81.885</ele>
        <time>2016-09-26T09:37:34Z</time>
      </trkpt>
      <trkpt lat="43.673587" lon="-8.020705">
        <ele>80.813</ele>
        <time>2016-09-26T09:37:35Z</time>
      </trkpt>
      <trkpt lat="43.673520" lon="-8.020762">
        <ele>79.708</ele>
        <time>2016-09-26T09:37:36Z</time>
      </trkpt>
      <trkpt lat="43.673455" lon="-8.020825">
        <ele>78.898</ele>
        <time>2016-09-26T09:37:37Z</time>
      </trkpt>
      <trkpt lat="43.673393" lon="-8.020900">
        <ele>77.943</ele>
        <time>2016-09-26T09:37:38Z</time>
      </trkpt>
      <trkpt lat="43.673339" lon="-8.020989">
        <ele>77.251</ele>
        <time>2016-09-26T09:37:39Z</time>
      </trkpt>
      <trkpt lat="43.673295" lon="-8.021080">
        <ele>76.567</ele>
        <time>2016-09-26T09:37:40Z</time>
      </trkpt>
      <trkpt lat="43.673256" lon="-8.021184">
        <ele>76.091</ele>
        <time>2016-09-26T09:37:41Z</time>
      </trkpt>
      <trkpt lat="43.673220" lon="-8.021294">
        <ele>75.343</ele>
        <time>2016-09-26T09:37:42Z</time>
      </trkpt>
      <trkpt lat="43.673183" lon="-8.021409">
        <ele>74.866</ele>
        <time>2016-09-26T09:37:43Z</time>
      </trkpt>
      <trkpt lat="43.673147" lon="-8.021520">
        <ele>74.244</ele>
        <time>2016-09-26T09:37:44Z</time>
      </trkpt>
      <trkpt lat="43.673111" lon="-8.021631">
        <ele>73.899</ele>
        <time>2016-09-26T09:37:45Z</time>
      </trkpt>
      <trkpt lat="43.673073" lon="-8.021747">
        <ele>73.207</ele>
        <time>2016-09-26T09:37:46Z</time>
      </trkpt>
      <trkpt lat="43.673036" lon="-8.021865">
        <ele>72.727</ele>
        <time>2016-09-26T09:37:47Z</time>
      </trkpt>
      <trkpt lat="43.672999" lon="-8.021987">
        <ele>72.208</ele>
        <time>2016-09-26T09:37:48Z</time>
      </trkpt>
      <trkpt lat="43.672963" lon="-8.022108">
        <ele>71.530</ele>
        <time>2016-09-26T09:37:49Z</time>
      </trkpt>
      <trkpt lat="43.672925" lon="-8.022229">
        <ele>71.035</ele>
        <time>2016-09-26T09:37:50Z</time>
      </trkpt>
      <trkpt lat="43.672894" lon="-8.022352">
        <ele>70.383</ele>
        <time>2016-09-26T09:37:51Z</time>
      </trkpt>
      <trkpt lat="43.672871" lon="-8.022468">
        <ele>69.569</ele>
        <time>2016-09-26T09:37:52Z</time>
      </trkpt>
      <trkpt lat="43.672854" lon="-8.022587">
        <ele>68.963</ele>
        <time>2016-09-26T09:37:53Z</time>
      </trkpt>
      <trkpt lat="43.672837" lon="-8.022713">
        <ele>68.225</ele>
        <time>2016-09-26T09:37:54Z</time>
      </trkpt>
      <trkpt lat="43.672823" lon="-8.022840">
        <ele>67.518</ele>
        <time>2016-09-26T09:37:55Z</time>
      </trkpt>
      <trkpt lat="43.672804" lon="-8.022968">
        <ele>66.846</ele>
        <time>2016-09-26T09:37:56Z</time>
      </trkpt>
      <trkpt lat="43.672790" lon="-8.023085">
        <ele>66.069</ele>
        <time>2016-09-26T09:37:57Z</time>
      </trkpt>
      <trkpt lat="43.672776" lon="-8.023189">
        <ele>65.104</ele>
        <time>2016-09-26T09:37:58Z</time>
      </trkpt>
      <trkpt lat="43.672766" lon="-8.023280">
        <ele>64.424</ele>
        <time>2016-09-26T09:37:59Z</time>
      </trkpt>
      <trkpt lat="43.672758" lon="-8.023362">
        <ele>63.608</ele>
        <time>2016-09-26T09:38:00Z</time>
      </trkpt>
      <trkpt lat="43.672751" lon="-8.023437">
        <ele>62.917</ele>
        <time>2016-09-26T09:38:01Z</time>
      </trkpt>
      <trkpt lat="43.672753" lon="-8.023509">
        <ele>62.292</ele>
        <time>2016-09-26T09:38:02Z</time>
      </trkpt>
      <trkpt lat="43.672769" lon="-8.023575">
        <ele>61.570</ele>
        <time>2016-09-26T09:38:03Z</time>
      </trkpt>
      <trkpt lat="43.672797" lon="-8.023635">
        <ele>60.956</ele>
        <time>2016-09-26T09:38:04Z</time>
      </trkpt>
      <trkpt lat="43.672845" lon="-8.023687">
        <ele>60.390</ele>
        <time>2016-09-26T09:38:05Z</time>
      </trkpt>
      <trkpt lat="43.672908" lon="-8.023720">
        <ele>59.812</ele>
        <time>2016-09-26T09:38:06Z</time>
      </trkpt>
      <trkpt lat="43.672985" lon="-8.023739">
        <ele>59.145</ele>
        <time>2016-09-26T09:38:07Z</time>
      </trkpt>
      <trkpt lat="43.673068" lon="-8.023750">
        <ele>58.453</ele>
        <time>2016-09-26T09:38:08Z</time>
      </trkpt>
      <trkpt lat="43.673154" lon="-8.023759">
        <ele>57.839</ele>
        <time>2016-09-26T09:38:09Z</time>
      </trkpt>
      <trkpt lat="43.673236" lon="-8.023766">
        <ele>57.001</ele>
        <time>2016-09-26T09:38:10Z</time>
      </trkpt>
      <trkpt lat="43.673308" lon="-8.023778">
        <ele>56.321</ele>
        <time>2016-09-26T09:38:11Z</time>
      </trkpt>
      <trkpt lat="43.673371" lon="-8.023800">
        <ele>55.608</ele>
        <time>2016-09-26T09:38:12Z</time>
      </trkpt>
      <trkpt lat="43.673433" lon="-8.023835">
        <ele>54.844</ele>
        <time>2016-09-26T09:38:13Z</time>
      </trkpt>
      <trkpt lat="43.673482" lon="-8.023886">
        <ele>54.059</ele>
        <time>2016-09-26T09:38:14Z</time>
      </trkpt>
      <trkpt lat="43.673509" lon="-8.023953">
        <ele>53.457</ele>
        <time>2016-09-26T09:38:15Z</time>
      </trkpt>
      <trkpt lat="43.673520" lon="-8.024028">
        <ele>53.173</ele>
        <time>2016-09-26T09:38:16Z</time>
      </trkpt>
      <trkpt lat="43.673511" lon="-8.024097">
        <ele>52.667</ele>
        <time>2016-09-26T09:38:17Z</time>
      </trkpt>
      <trkpt lat="43.673491" lon="-8.024155">
        <ele>52.529</ele>
        <time>2016-09-26T09:38:18Z</time>
      </trkpt>
      <trkpt lat="43.673467" lon="-8.024206">
        <ele>52.312</ele>
        <time>2016-09-26T09:38:19Z</time>
      </trkpt>
      <trkpt lat="43.673440" lon="-8.024259">
        <ele>52.220</ele>
        <time>2016-09-26T09:38:20Z</time>
      </trkpt>
      <trkpt lat="43.673416" lon="-8.024310">
        <ele>52.081</ele>
        <time>2016-09-26T09:38:21Z</time>
      </trkpt>
      <trkpt lat="43.673392" lon="-8.024364">
        <ele>52.061</ele>
        <time>2016-09-26T09:38:22Z</time>
      </trkpt>
      <trkpt lat="43.673366" lon="-8.024419">
        <ele>52.017</ele>
        <time>2016-09-26T09:38:23Z</time>
      </trkpt>
      <trkpt lat="43.673338" lon="-8.024470">
        <ele>52.208</ele>
        <time>2016-09-26T09:38:24Z</time>
      </trkpt>
      <trkpt lat="43.673311" lon="-8.024522">
        <ele>52.229</ele>
        <time>2016-09-26T09:38:25Z</time>
      </trkpt>
      <trkpt lat="43.673283" lon="-8.024571">
        <ele>52.234</ele>
        <time>2016-09-26T09:38:26Z</time>
      </trkpt>
      <trkpt lat="43.673252" lon="-8.024622">
        <ele>52.212</ele>
        <time>2016-09-26T09:38:27Z</time>
      </trkpt>
      <trkpt lat="43.673222" lon="-8.024671">
        <ele>52.448</ele>
        <time>2016-09-26T09:38:28Z</time>
      </trkpt>
      <trkpt lat="43.673194" lon="-8.024714">
        <ele>52.522</ele>
        <time>2016-09-26T09:38:29Z</time>
      </trkpt>
      <trkpt lat="43.673164" lon="-8.024757">
        <ele>52.664</ele>
        <time>2016-09-26T09:38:30Z</time>
      </trkpt>
      <trkpt lat="43.673136" lon="-8.024793">
        <ele>52.727</ele>
        <time>2016-09-26T09:38:31Z</time>
      </trkpt>
      <trkpt lat="43.673110" lon="-8.024835">
        <ele>53.075</ele>
        <time>2016-09-26T09:38:32Z</time>
      </trkpt>
      <trkpt lat="43.673088" lon="-8.024868">
        <ele>53.264</ele>
        <time>2016-09-26T09:38:33Z</time>
      </trkpt>
      <trkpt lat="43.673066" lon="-8.024910">
        <ele>53.206</ele>
        <time>2016-09-26T09:38:34Z</time>
      </trkpt>
      <trkpt lat="43.673045" lon="-8.024958">
        <ele>53.416</ele>
        <time>2016-09-26T09:38:35Z</time>
      </trkpt>
      <trkpt lat="43.673026" lon="-8.024999">
        <ele>53.308</ele>
        <time>2016-09-26T09:38:36Z</time>
      </trkpt>
      <trkpt lat="43.673013" lon="-8.025034">
        <ele>53.417</ele>
        <time>2016-09-26T09:38:37Z</time>
      </trkpt>
      <trkpt lat="43.672997" lon="-8.025071">
        <ele>53.622</ele>
        <time>2016-09-26T09:38:38Z</time>
      </trkpt>
      <trkpt lat="43.672978" lon="-8.025102">
        <ele>53.930</ele>
        <time>2016-09-26T09:38:39Z</time>
      </trkpt>
      <trkpt lat="43.672961" lon="-8.025128">
        <ele>54.196</ele>
        <time>2016-09-26T09:38:40Z</time>
      </trkpt>
      <trkpt lat="43.672945" lon="-8.025158">
        <ele>54.450</ele>
        <time>2016-09-26T09:38:41Z</time>
      </trkpt>
      <trkpt lat="43.672929" lon="-8.025196">
        <ele>54.662</ele>
        <time>2016-09-26T09:38:42Z</time>
      </trkpt>
      <trkpt lat="43.672912" lon="-8.025236">
        <ele>54.765</ele>
        <time>2016-09-26T09:38:43Z</time>
      </trkpt>
      <trkpt lat="43.672889" lon="-8.025280">
        <ele>54.613</ele>
        <time>2016-09-26T09:38:44Z</time>
      </trkpt>
      <trkpt lat="43.672867" lon="-8.025323">
        <ele>54.968</ele>
        <time>2016-09-26T09:38:45Z</time>
      </trkpt>
      <trkpt lat="43.672844" lon="-8.025367">
        <ele>54.742</ele>
        <time>2016-09-26T09:38:46Z</time>
      </trkpt>
      <trkpt lat="43.672818" lon="-8.025413">
        <ele>54.826</ele>
        <time>2016-09-26T09:38:47Z</time>
      </trkpt>
      <trkpt lat="43.672794" lon="-8.025461">
        <ele>54.708</ele>
        <time>2016-09-26T09:38:48Z</time>
      </trkpt>
      <trkpt lat="43.672768" lon="-8.025511">
        <ele>54.717</ele>
        <time>2016-09-26T09:38:49Z</time>
      </trkpt>
      <trkpt lat="43.672735" lon="-8.025563">
        <ele>54.752</ele>
        <time>2016-09-26T09:38:50Z</time>
      </trkpt>
      <trkpt lat="43.672703" lon="-8.025617">
        <ele>54.880</ele>
        <time>2016-09-26T09:38:51Z</time>
      </trkpt>
      <trkpt lat="43.672671" lon="-8.025671">
        <ele>54.946</ele>
        <time>2016-09-26T09:38:52Z</time>
      </trkpt>
      <trkpt lat="43.672637" lon="-8.025727">
        <ele>54.960</ele>
        <time>2016-09-26T09:38:53Z</time>
      </trkpt>
      <trkpt lat="43.672601" lon="-8.025784">
        <ele>54.562</ele>
        <time>2016-09-26T09:38:54Z</time>
      </trkpt>
      <trkpt lat="43.672568" lon="-8.025845">
        <ele>54.575</ele>
        <time>2016-09-26T09:38:55Z</time>
      </trkpt>
      <trkpt lat="43.672536" lon="-8.025908">
        <ele>54.373</ele>
        <time>2016-09-26T09:38:56Z</time>
      </trkpt>
      <trkpt lat="43.672502" lon="-8.025974">
        <ele>54.236</ele>
        <time>2016-09-26T09:38:57Z</time>
      </trkpt>
      <trkpt lat="43.672468" lon="-8.026043">
        <ele>54.017</ele>
        <time>2016-09-26T09:38:58Z</time>
      </trkpt>
      <trkpt lat="43.672437" lon="-8.026118">
        <ele>54.018</ele>
        <time>2016-09-26T09:38:59Z</time>
      </trkpt>
      <trkpt lat="43.672406" lon="-8.026204">
        <ele>53.608</ele>
        <time>2016-09-26T09:39:00Z</time>
      </trkpt>
      <trkpt lat="43.672375" lon="-8.026299">
        <ele>53.424</ele>
        <time>2016-09-26T09:39:01Z</time>
      </trkpt>
      <trkpt lat="43.672344" lon="-8.026402">
        <ele>53.299</ele>
        <time>2016-09-26T09:39:02Z</time>
      </trkpt>
      <trkpt lat="43.672316" lon="-8.026513">
        <ele>52.817</ele>
        <time>2016-09-26T09:39:03Z</time>
      </trkpt>
      <trkpt lat="43.672289" lon="-8.026631">
        <ele>52.593</ele>
        <time>2016-09-26T09:39:04Z</time>
      </trkpt>
      <trkpt lat="43.672261" lon="-8.026752">
        <ele>52.297</ele>
        <time>2016-09-26T09:39:05Z</time>
      </trkpt>
      <trkpt lat="43.672234" lon="-8.026873">
        <ele>51.919</ele>
        <time>2016-09-26T09:39:06Z</time>
      </trkpt>
      <trkpt lat="43.672206" lon="-8.026995">
        <ele>51.412</ele>
        <time>2016-09-26T09:39:07Z</time>
      </trkpt>
      <trkpt lat="43.672178" lon="-8.027115">
        <ele>50.990</ele>
        <time>2016-09-26T09:39:08Z</time>
      </trkpt>
      <trkpt lat="43.672151" lon="-8.027232">
        <ele>50.584</ele>
        <time>2016-09-26T09:39:09Z</time>
      </trkpt>
      <trkpt lat="43.672125" lon="-8.027343">
        <ele>50.207</ele>
        <time>2016-09-26T09:39:10Z</time>
      </trkpt>
      <trkpt lat="43.672101" lon="-8.027448">
        <ele>49.817</ele>
        <time>2016-09-26T09:39:11Z</time>
      </trkpt>
      <trkpt lat="43.672078" lon="-8.027543">
        <ele>49.608</ele>
        <time>2016-09-26T09:39:12Z</time>
      </trkpt>
      <trkpt lat="43.672055" lon="-8.027630">
        <ele>49.339</ele>
        <time>2016-09-26T09:39:13Z</time>
      </trkpt>
      <trkpt lat="43.672034" lon="-8.027716">
        <ele>48.894</ele>
        <time>2016-09-26T09:39:14Z</time>
      </trkpt>
      <trkpt lat="43.672014" lon="-8.027796">
        <ele>48.522</ele>
        <time>2016-09-26T09:39:15Z</time>
      </trkpt>
      <trkpt lat="43.671995" lon="-8.027872">
        <ele>48.138</ele>
        <time>2016-09-26T09:39:16Z</time>
      </trkpt>
      <trkpt lat="43.671979" lon="-8.027946">
        <ele>47.822</ele>
        <time>2016-09-26T09:39:17Z</time>
      </trkpt>
      <trkpt lat="43.671963" lon="-8.028018">
        <ele>47.674</ele>
        <time>2016-09-26T09:39:18Z</time>
      </trkpt>
      <trkpt lat="43.671946" lon="-8.028085">
        <ele>47.547</ele>
        <time>2016-09-26T09:39:19Z</time>
      </trkpt>
      <trkpt lat="43.671928" lon="-8.028150">
        <ele>47.355</ele>
        <time>2016-09-26T09:39:20Z</time>
      </trkpt>
      <trkpt lat="43.671912" lon="-8.028212">
        <ele>47.317</ele>
        <time>2016-09-26T09:39:21Z</time>
      </trkpt>
      <trkpt lat="43.671898" lon="-8.028266">
        <ele>47.387</ele>
        <time>2016-09-26T09:39:22Z</time>
      </trkpt>
      <trkpt lat="43.671881" lon="-8.028309">
        <ele>47.115</ele>
        <time>2016-09-26T09:39:23Z</time>
      </trkpt>
      <trkpt lat="43.671857" lon="-8.028335">
        <ele>47.008</ele>
        <time>2016-09-26T09:39:24Z</time>
      </trkpt>
      <trkpt lat="43.671826" lon="-8.028348">
        <ele>46.822</ele>
        <time>2016-09-26T09:39:25Z</time>
      </trkpt>
      <trkpt lat="43.671787" lon="-8.028346">
        <ele>46.517</ele>
        <time>2016-09-26T09:39:26Z</time>
      </trkpt>
      <trkpt lat="43.671744" lon="-8.028333">
        <ele>46.285</ele>
        <time>2016-09-26T09:39:27Z</time>
      </trkpt>
      <trkpt lat="43.671693" lon="-8.028316">
        <ele>45.711</ele>
        <time>2016-09-26T09:39:28Z</time>
      </trkpt>
      <trkpt lat="43.671635" lon="-8.028300">
        <ele>45.215</ele>
        <time>2016-09-26T09:39:29Z</time>
      </trkpt>
      <trkpt lat="43.671574" lon="-8.028282">
        <ele>44.757</ele>
        <time>2016-09-26T09:39:30Z</time>
      </trkpt>
      <trkpt lat="43.671512" lon="-8.028264">
        <ele>43.830</ele>
        <time>2016-09-26T09:39:31Z</time>
      </trkpt>
      <trkpt lat="43.671446" lon="-8.028245">
        <ele>43.188</ele>
        <time>2016-09-26T09:39:32Z</time>
      </trkpt>
      <trkpt lat="43.671382" lon="-8.028224">
        <ele>42.761</ele>
        <time>2016-09-26T09:39:33Z</time>
      </trkpt>
      <trkpt lat="43.671322" lon="-8.028204">
        <ele>42.221</ele>
        <time>2016-09-26T09:39:34Z</time>
      </trkpt>
      <trkpt lat="43.671267" lon="-8.028185">
        <ele>41.513</ele>
        <time>2016-09-26T09:39:35Z</time>
      </trkpt>
      <trkpt lat="43.671212" lon="-8.028167">
        <ele>40.808</ele>
        <time>2016-09-26T09:39:36Z</time>
      </trkpt>
      <trkpt lat="43.671161" lon="-8.028150">
        <ele>40.157</ele>
        <time>2016-09-26T09:39:37Z</time>
      </trkpt>
      <trkpt lat="43.671110" lon="-8.028131">
        <ele>39.212</ele>
        <time>2016-09-26T09:39:38Z</time>
      </trkpt>
      <trkpt lat="43.671060" lon="-8.028114">
        <ele>38.450</ele>
        <time>2016-09-26T09:39:39Z</time>
      </trkpt>
      <trkpt lat="43.671012" lon="-8.028104">
        <ele>37.576</ele>
        <time>2016-09-26T09:39:40Z</time>
      </trkpt>
      <trkpt lat="43.670966" lon="-8.028105">
        <ele>36.740</ele>
        <time>2016-09-26T09:39:41Z</time>
      </trkpt>
      <trkpt lat="43.670921" lon="-8.028123">
        <ele>36.142</ele>
        <time>2016-09-26T09:39:42Z</time>
      </trkpt>
      <trkpt lat="43.670879" lon="-8.028162">
        <ele>35.475</ele>
        <time>2016-09-26T09:39:43Z</time>
      </trkpt>
      <trkpt lat="43.670844" lon="-8.028218">
        <ele>34.723</ele>
        <time>2016-09-26T09:39:44Z</time>
      </trkpt>
      <trkpt lat="43.670818" lon="-8.028285">
        <ele>34.264</ele>
        <time>2016-09-26T09:39:45Z</time>
      </trkpt>
      <trkpt lat="43.670795" lon="-8.028358">
        <ele>33.806</ele>
        <time>2016-09-26T09:39:46Z</time>
      </trkpt>
      <trkpt lat="43.670777" lon="-8.028432">
        <ele>33.416</ele>
        <time>2016-09-26T09:39:47Z</time>
      </trkpt>
      <trkpt lat="43.670753" lon="-8.028505">
        <ele>33.108</ele>
        <time>2016-09-26T09:39:48Z</time>
      </trkpt>
      <trkpt lat="43.670725" lon="-8.028576">
        <ele>32.827</ele>
        <time>2016-09-26T09:39:49Z</time>
      </trkpt>
      <trkpt lat="43.670698" lon="-8.028646">
        <ele>32.572</ele>
        <time>2016-09-26T09:39:50Z</time>
      </trkpt>
      <trkpt lat="43.670672" lon="-8.028717">
        <ele>31.920</ele>
        <time>2016-09-26T09:39:51Z</time>
      </trkpt>
      <trkpt lat="43.670644" lon="-8.028789">
        <ele>31.826</ele>
        <time>2016-09-26T09:39:52Z</time>
      </trkpt>
      <trkpt lat="43.670615" lon="-8.028861">
        <ele>31.510</ele>
        <time>2016-09-26T09:39:53Z</time>
      </trkpt>
      <trkpt lat="43.670587" lon="-8.028934">
        <ele>31.592</ele>
        <time>2016-09-26T09:39:54Z</time>
      </trkpt>
      <trkpt lat="43.670560" lon="-8.029009">
        <ele>31.275</ele>
        <time>2016-09-26T09:39:55Z</time>
      </trkpt>
      <trkpt lat="43.670533" lon="-8.029089">
        <ele>31.223</ele>
        <time>2016-09-26T09:39:56Z</time>
      </trkpt>
      <trkpt lat="43.670504" lon="-8.029170">
        <ele>31.167</ele>
        <time>2016-09-26T09:39:57Z</time>
      </trkpt>
      <trkpt lat="43.670474" lon="-8.029255">
        <ele>30.781</ele>
        <time>2016-09-26T09:39:58Z</time>
      </trkpt>
      <trkpt lat="43.670442" lon="-8.029343">
        <ele>30.219</ele>
        <time>2016-09-26T09:39:59Z</time>
      </trkpt>
      <trkpt lat="43.670410" lon="-8.029435">
        <ele>29.808</ele>
        <time>2016-09-26T09:40:00Z</time>
      </trkpt>
      <trkpt lat="43.670376" lon="-8.029529">
        <ele>29.537</ele>
        <time>2016-09-26T09:40:01Z</time>
      </trkpt>
      <trkpt lat="43.670342" lon="-8.029625">
        <ele>29.062</ele>
        <time>2016-09-26T09:40:02Z</time>
      </trkpt>
      <trkpt lat="43.670309" lon="-8.029724">
        <ele>28.780</ele>
        <time>2016-09-26T09:40:03Z</time>
      </trkpt>
      <trkpt lat="43.670277" lon="-8.029828">
        <ele>28.576</ele>
        <time>2016-09-26T09:40:04Z</time>
      </trkpt>
      <trkpt lat="43.670245" lon="-8.029934">
        <ele>28.140</ele>
        <time>2016-09-26T09:40:05Z</time>
      </trkpt>
      <trkpt lat="43.670214" lon="-8.030042">
        <ele>27.952</ele>
        <time>2016-09-26T09:40:06Z</time>
      </trkpt>
      <trkpt lat="43.670184" lon="-8.030152">
        <ele>27.635</ele>
        <time>2016-09-26T09:40:07Z</time>
      </trkpt>
      <trkpt lat="43.670156" lon="-8.030261">
        <ele>27.373</ele>
        <time>2016-09-26T09:40:08Z</time>
      </trkpt>
      <trkpt lat="43.670129" lon="-8.030368">
        <ele>26.999</ele>
        <time>2016-09-26T09:40:09Z</time>
      </trkpt>
      <trkpt lat="43.670105" lon="-8.030475">
        <ele>26.707</ele>
        <time>2016-09-26T09:40:10Z</time>
      </trkpt>
      <trkpt lat="43.670083" lon="-8.030580">
        <ele>26.227</ele>
        <time>2016-09-26T09:40:11Z</time>
      </trkpt>
      <trkpt lat="43.670061" lon="-8.030682">
        <ele>25.808</ele>
        <time>2016-09-26T09:40:12Z</time>
      </trkpt>
      <trkpt lat="43.670039" lon="-8.030780">
        <ele>25.520</ele>
        <time>2016-09-26T09:40:13Z</time>
      </trkpt>
      <trkpt lat="43.670019" lon="-8.030876">
        <ele>25.145</ele>
        <time>2016-09-26T09:40:14Z</time>
      </trkpt>
      <trkpt lat="43.669999" lon="-8.030971">
        <ele>24.783</ele>
        <time>2016-09-26T09:40:15Z</time>
      </trkpt>
      <trkpt lat="43.669978" lon="-8.031063">
        <ele>24.549</ele>
        <time>2016-09-26T09:40:16Z</time>
      </trkpt>
      <trkpt lat="43.669956" lon="-8.031154">
        <ele>24.443</ele>
        <time>2016-09-26T09:40:17Z</time>
      </trkpt>
      <trkpt lat="43.669936" lon="-8.031241">
        <ele>24.145</ele>
        <time>2016-09-26T09:40:18Z</time>
      </trkpt>
      <trkpt lat="43.669917" lon="-8.031327">
        <ele>24.098</ele>
        <time>2016-09-26T09:40:19Z</time>
      </trkpt>
      <trkpt lat="43.669898" lon="-8.031412">
        <ele>23.836</ele>
        <time>2016-09-26T09:40:20Z</time>
      </trkpt>
      <trkpt lat="43.669878" lon="-8.031495">
        <ele>23.521</ele>
        <time>2016-09-26T09:40:21Z</time>
      </trkpt>
      <trkpt lat="43.669860" lon="-8.031578">
        <ele>23.541</ele>
        <time>2016-09-26T09:40:22Z</time>
      </trkpt>
      <trkpt lat="43.669843" lon="-8.031660">
        <ele>23.405</ele>
        <time>2016-09-26T09:40:23Z</time>
      </trkpt>
      <trkpt lat="43.669826" lon="-8.031740">
        <ele>23.308</ele>
        <time>2016-09-26T09:40:24Z</time>
      </trkpt>
      <trkpt lat="43.669808" lon="-8.031817">
        <ele>23.413</ele>
        <time>2016-09-26T09:40:25Z</time>
      </trkpt>
      <trkpt lat="43.669789" lon="-8.031894">
        <ele>23.378</ele>
        <time>2016-09-26T09:40:26Z</time>
      </trkpt>
      <trkpt lat="43.669772" lon="-8.031972">
        <ele>23.256</ele>
        <time>2016-09-26T09:40:27Z</time>
      </trkpt>
      <trkpt lat="43.669756" lon="-8.032052">
        <ele>23.082</ele>
        <time>2016-09-26T09:40:28Z</time>
      </trkpt>
      <trkpt lat="43.669739" lon="-8.032135">
        <ele>22.776</ele>
        <time>2016-09-26T09:40:29Z</time>
      </trkpt>
      <trkpt lat="43.669722" lon="-8.032220">
        <ele>22.588</ele>
        <time>2016-09-26T09:40:30Z</time>
      </trkpt>
      <trkpt lat="43.669705" lon="-8.032309">
        <ele>22.551</ele>
        <time>2016-09-26T09:40:31Z</time>
      </trkpt>
      <trkpt lat="43.669685" lon="-8.032396">
        <ele>22.439</ele>
        <time>2016-09-26T09:40:32Z</time>
      </trkpt>
      <trkpt lat="43.669665" lon="-8.032481">
        <ele>22.575</ele>
        <time>2016-09-26T09:40:33Z</time>
      </trkpt>
      <trkpt lat="43.669646" lon="-8.032565">
        <ele>22.428</ele>
        <time>2016-09-26T09:40:34Z</time>
      </trkpt>
      <trkpt lat="43.669626" lon="-8.032649">
        <ele>22.220</ele>
        <time>2016-09-26T09:40:35Z</time>
      </trkpt>
      <trkpt lat="43.669605" lon="-8.032731">
        <ele>21.908</ele>
        <time>2016-09-26T09:40:36Z</time>
      </trkpt>
      <trkpt lat="43.669584" lon="-8.032811">
        <ele>21.788</ele>
        <time>2016-09-26T09:40:37Z</time>
      </trkpt>
      <trkpt lat="43.669564" lon="-8.032893">
        <ele>21.643</ele>
        <time>2016-09-26T09:40:38Z</time>
      </trkpt>
      <trkpt lat="43.669548" lon="-8.032975">
        <ele>21.341</ele>
        <time>2016-09-26T09:40:39Z</time>
      </trkpt>
      <trkpt lat="43.669532" lon="-8.033054">
        <ele>21.417</ele>
        <time>2016-09-26T09:40:40Z</time>
      </trkpt>
      <trkpt lat="43.669517" lon="-8.033129">
        <ele>21.541</ele>
        <time>2016-09-26T09:40:41Z</time>
      </trkpt>
      <trkpt lat="43.669503" lon="-8.033203">
        <ele>21.413</ele>
        <time>2016-09-26T09:40:42Z</time>
      </trkpt>
      <trkpt lat="43.669494" lon="-8.033269">
        <ele>21.326</ele>
        <time>2016-09-26T09:40:43Z</time>
      </trkpt>
      <trkpt lat="43.669490" lon="-8.033327">
        <ele>21.494</ele>
        <time>2016-09-26T09:40:44Z</time>
      </trkpt>
      <trkpt lat="43.669487" lon="-8.033386">
        <ele>21.599</ele>
        <time>2016-09-26T09:40:45Z</time>
      </trkpt>
      <trkpt lat="43.669484" lon="-8.033442">
        <ele>21.507</ele>
        <time>2016-09-26T09:40:46Z</time>
      </trkpt>
      <trkpt lat="43.669497" lon="-8.033490">
        <ele>21.627</ele>
        <time>2016-09-26T09:40:47Z</time>
      </trkpt>
      <trkpt lat="43.669509" lon="-8.033543">
        <ele>21.508</ele>
        <time>2016-09-26T09:40:48Z</time>
      </trkpt>
      <trkpt lat="43.669518" lon="-8.033602">
        <ele>21.620</ele>
        <time>2016-09-26T09:40:49Z</time>
      </trkpt>
      <trkpt lat="43.669529" lon="-8.033657">
        <ele>21.755</ele>
        <time>2016-09-26T09:40:50Z</time>
      </trkpt>
      <trkpt lat="43.669541" lon="-8.033708">
        <ele>21.743</ele>
        <time>2016-09-26T09:40:51Z</time>
      </trkpt>
      <trkpt lat="43.669551" lon="-8.033755">
        <ele>21.829</ele>
        <time>2016-09-26T09:40:52Z</time>
      </trkpt>
      <trkpt lat="43.669563" lon="-8.033803">
        <ele>22.143</ele>
        <time>2016-09-26T09:40:53Z</time>
      </trkpt>
      <trkpt lat="43.669575" lon="-8.033852">
        <ele>22.115</ele>
        <time>2016-09-26T09:40:54Z</time>
      </trkpt>
      <trkpt lat="43.669589" lon="-8.033899">
        <ele>22.238</ele>
        <time>2016-09-26T09:40:55Z</time>
      </trkpt>
      <trkpt lat="43.669608" lon="-8.033944">
        <ele>22.336</ele>
        <time>2016-09-26T09:40:56Z</time>
      </trkpt>
      <trkpt lat="43.669629" lon="-8.033986">
        <ele>22.514</ele>
        <time>2016-09-26T09:40:57Z</time>
      </trkpt>
      <trkpt lat="43.669651" lon="-8.034028">
        <ele>22.654</ele>
        <time>2016-09-26T09:40:58Z</time>
      </trkpt>
      <trkpt lat="43.669674" lon="-8.034064">
        <ele>22.809</ele>
        <time>2016-09-26T09:40:59Z</time>
      </trkpt>
      <trkpt lat="43.669701" lon="-8.034095">
        <ele>23.008</ele>
        <time>2016-09-26T09:41:00Z</time>
      </trkpt>
      <trkpt lat="43.669729" lon="-8.034127">
        <ele>23.022</ele>
        <time>2016-09-26T09:41:01Z</time>
      </trkpt>
      <trkpt lat="43.669756" lon="-8.034161">
        <ele>23.437</ele>
        <time>2016-09-26T09:41:02Z</time>
      </trkpt>
      <trkpt lat="43.669781" lon="-8.034199">
        <ele>23.445</ele>
        <time>2016-09-26T09:41:03Z</time>
      </trkpt>
      <trkpt lat="43.669808" lon="-8.034241">
        <ele>23.621</ele>
        <time>2016-09-26T09:41:04Z</time>
      </trkpt>
      <trkpt lat="43.669830" lon="-8.034290">
        <ele>23.715</ele>
        <time>2016-09-26T09:41:05Z</time>
      </trkpt>
      <trkpt lat="43.669850" lon="-8.034343">
        <ele>23.737</ele>
        <time>2016-09-26T09:41:06Z</time>
      </trkpt>
      <trkpt lat="43.669872" lon="-8.034398">
        <ele>23.850</ele>
        <time>2016-09-26T09:41:07Z</time>
      </trkpt>
      <trkpt lat="43.669901" lon="-8.034452">
        <ele>23.818</ele>
        <time>2016-09-26T09:41:08Z</time>
      </trkpt>
      <trkpt lat="43.669928" lon="-8.034505">
        <ele>23.733</ele>
        <time>2016-09-26T09:41:09Z</time>
      </trkpt>
      <trkpt lat="43.669955" lon="-8.034554">
        <ele>23.523</ele>
        <time>2016-09-26T09:41:10Z</time>
      </trkpt>
      <trkpt lat="43.669981" lon="-8.034605">
        <ele>23.415</ele>
        <time>2016-09-26T09:41:11Z</time>
      </trkpt>
      <trkpt lat="43.670001" lon="-8.034664">
        <ele>23.308</ele>
        <time>2016-09-26T09:41:12Z</time>
      </trkpt>
      <trkpt lat="43.670018" lon="-8.034729">
        <ele>23.264</ele>
        <time>2016-09-26T09:41:13Z</time>
      </trkpt>
      <trkpt lat="43.670024" lon="-8.034802">
        <ele>23.339</ele>
        <time>2016-09-26T09:41:14Z</time>
      </trkpt>
      <trkpt lat="43.670035" lon="-8.034872">
        <ele>23.277</ele>
        <time>2016-09-26T09:41:15Z</time>
      </trkpt>
      <trkpt lat="43.670040" lon="-8.034945">
        <ele>22.913</ele>
        <time>2016-09-26T09:41:16Z</time>
      </trkpt>
      <trkpt lat="43.670036" lon="-8.035020">
        <ele>22.957</ele>
        <time>2016-09-26T09:41:17Z</time>
      </trkpt>
      <trkpt lat="43.670026" lon="-8.035093">
        <ele>22.999</ele>
        <time>2016-09-26T09:41:18Z</time>
      </trkpt>
      <trkpt lat="43.670004" lon="-8.035163">
        <ele>23.072</ele>
        <time>2016-09-26T09:41:19Z</time>
      </trkpt>
      <trkpt lat="43.669976" lon="-8.035230">
        <ele>22.790</ele>
        <time>2016-09-26T09:41:20Z</time>
      </trkpt>
      <trkpt lat="43.669945" lon="-8.035295">
        <ele>22.449</ele>
        <time>2016-09-26T09:41:21Z</time>
      </trkpt>
      <trkpt lat="43.669913" lon="-8.035359">
        <ele>22.502</ele>
        <time>2016-09-26T09:41:22Z</time>
      </trkpt>
      <trkpt lat="43.669878" lon="-8.035423">
        <ele>22.522</ele>
        <time>2016-09-26T09:41:23Z</time>
      </trkpt>
      <trkpt lat="43.669841" lon="-8.035485">
        <ele>22.508</ele>
        <time>2016-09-26T09:41:24Z</time>
      </trkpt>
      <trkpt lat="43.669806" lon="-8.035544">
        <ele>22.245</ele>
        <time>2016-09-26T09:41:25Z</time>
      </trkpt>
      <trkpt lat="43.669770" lon="-8.035605">
        <ele>22.090</ele>
        <time>2016-09-26T09:41:26Z</time>
      </trkpt>
      <trkpt lat="43.669738" lon="-8.035664">
        <ele>21.788</ele>
        <time>2016-09-26T09:41:27Z</time>
      </trkpt>
      <trkpt lat="43.669705" lon="-8.035723">
        <ele>21.724</ele>
        <time>2016-09-26T09:41:28Z</time>
      </trkpt>
      <trkpt lat="43.669671" lon="-8.035783">
        <ele>21.748</ele>
        <time>2016-09-26T09:41:29Z</time>
      </trkpt>
      <trkpt lat="43.669640" lon="-8.035848">
        <ele>21.610</ele>
        <time>2016-09-26T09:41:30Z</time>
      </trkpt>
      <trkpt lat="43.669619" lon="-8.035918">
        <ele>21.413</ele>
        <time>2016-09-26T09:41:31Z</time>
      </trkpt>
      <trkpt lat="43.669608" lon="-8.035985">
        <ele>21.381</ele>
        <time>2016-09-26T09:41:32Z</time>
      </trkpt>
      <trkpt lat="43.669610" lon="-8.036046">
        <ele>20.969</ele>
        <time>2016-09-26T09:41:33Z</time>
      </trkpt>
      <trkpt lat="43.669627" lon="-8.036108">
        <ele>20.504</ele>
        <time>2016-09-26T09:41:34Z</time>
      </trkpt>
      <trkpt lat="43.669649" lon="-8.036167">
        <ele>20.424</ele>
        <time>2016-09-26T09:41:35Z</time>
      </trkpt>
      <trkpt lat="43.669678" lon="-8.036229">
        <ele>20.408</ele>
        <time>2016-09-26T09:41:36Z</time>
      </trkpt>
      <trkpt lat="43.669709" lon="-8.036291">
        <ele>20.317</ele>
        <time>2016-09-26T09:41:37Z</time>
      </trkpt>
      <trkpt lat="43.669741" lon="-8.036350">
        <ele>20.332</ele>
        <time>2016-09-26T09:41:38Z</time>
      </trkpt>
      <trkpt lat="43.669762" lon="-8.036413">
        <ele>20.320</ele>
        <time>2016-09-26T09:41:39Z</time>
      </trkpt>
      <trkpt lat="43.669777" lon="-8.036483">
        <ele>20.116</ele>
        <time>2016-09-26T09:41:40Z</time>
      </trkpt>
      <trkpt lat="43.669778" lon="-8.036562">
        <ele>19.910</ele>
        <time>2016-09-26T09:41:41Z</time>
      </trkpt>
      <trkpt lat="43.669786" lon="-8.036635">
        <ele>19.742</ele>
        <time>2016-09-26T09:41:42Z</time>
      </trkpt>
      <trkpt lat="43.669790" lon="-8.036705">
        <ele>19.525</ele>
        <time>2016-09-26T09:41:43Z</time>
      </trkpt>
      <trkpt lat="43.669791" lon="-8.036771">
        <ele>19.453</ele>
        <time>2016-09-26T09:41:44Z</time>
      </trkpt>
      <trkpt lat="43.669795" lon="-8.036832">
        <ele>19.278</ele>
        <time>2016-09-26T09:41:45Z</time>
      </trkpt>
      <trkpt lat="43.669795" lon="-8.036891">
        <ele>18.833</ele>
        <time>2016-09-26T09:41:46Z</time>
      </trkpt>
      <trkpt lat="43.669799" lon="-8.036947">
        <ele>18.726</ele>
        <time>2016-09-26T09:41:47Z</time>
      </trkpt>
      <trkpt lat="43.669804" lon="-8.037002">
        <ele>18.508</ele>
        <time>2016-09-26T09:41:48Z</time>
      </trkpt>
      <trkpt lat="43.669810" lon="-8.037054">
        <ele>18.218</ele>
        <time>2016-09-26T09:41:49Z</time>
      </trkpt>
      <trkpt lat="43.669818" lon="-8.037102">
        <ele>18.033</ele>
        <time>2016-09-26T09:41:50Z</time>
      </trkpt>
      <trkpt lat="43.669822" lon="-8.037139">
        <ele>17.751</ele>
        <time>2016-09-26T09:41:51Z</time>
      </trkpt>
      <trkpt lat="43.669830" lon="-8.037167">
        <ele>17.517</ele>
        <time>2016-09-26T09:41:52Z</time>
      </trkpt>
      <trkpt lat="43.669835" lon="-8.037190">
        <ele>17.481</ele>
        <time>2016-09-26T09:41:53Z</time>
      </trkpt>
      <trkpt lat="43.669842" lon="-8.037206">
        <ele>17.283</ele>
        <time>2016-09-26T09:41:54Z</time>
      </trkpt>
      <trkpt lat="43.669849" lon="-8.037220">
        <ele>17.036</ele>
        <time>2016-09-26T09:41:55Z</time>
      </trkpt>
      <trkpt lat="43.669856" lon="-8.037239">
        <ele>17.024</ele>
        <time>2016-09-26T09:41:56Z</time>
      </trkpt>
      <trkpt lat="43.669860" lon="-8.037271">
        <ele>17.055</ele>
        <time>2016-09-26T09:41:57Z</time>
      </trkpt>
      <trkpt lat="43.669862" lon="-8.037305">
        <ele>16.907</ele>
        <time>2016-09-26T09:41:58Z</time>
      </trkpt>
      <trkpt lat="43.669859" lon="-8.037337">
        <ele>16.817</ele>
        <time>2016-09-26T09:41:59Z</time>
      </trkpt>
      <trkpt lat="43.669849" lon="-8.037369">
        <ele>16.708</ele>
        <time>2016-09-26T09:42:00Z</time>
      </trkpt>
      <trkpt lat="43.669838" lon="-8.037399">
        <ele>16.646</ele>
        <time>2016-09-26T09:42:01Z</time>
      </trkpt>
      <trkpt lat="43.669826" lon="-8.037425">
        <ele>16.491</ele>
        <time>2016-09-26T09:42:02Z</time>
      </trkpt>
      <trkpt lat="43.669810" lon="-8.037449">
        <ele>16.219</ele>
        <time>2016-09-26T09:42:03Z</time>
      </trkpt>
      <trkpt lat="43.669798" lon="-8.037467">
        <ele>16.035</ele>
        <time>2016-09-26T09:42:04Z</time>
      </trkpt>
      <trkpt lat="43.669786" lon="-8.037480">
        <ele>15.869</ele>
        <time>2016-09-26T09:42:05Z</time>
      </trkpt>
      <trkpt lat="43.669772" lon="-8.037496">
        <ele>15.761</ele>
        <time>2016-09-26T09:42:06Z</time>
      </trkpt>
      <trkpt lat="43.669752" lon="-8.037521">
        <ele>15.414</ele>
        <time>2016-09-26T09:42:07Z</time>
      </trkpt>
      <trkpt lat="43.669725" lon="-8.037550">
        <ele>15.432</ele>
        <time>2016-09-26T09:42:08Z</time>
      </trkpt>
      <trkpt lat="43.669690" lon="-8.037582">
        <ele>15.288</ele>
        <time>2016-09-26T09:42:09Z</time>
      </trkpt>
      <trkpt lat="43.669652" lon="-8.037617">
        <ele>14.924</ele>
        <time>2016-09-26T09:42:10Z</time>
      </trkpt>
      <trkpt lat="43.669618" lon="-8.037647">
        <ele>14.526</ele>
        <time>2016-09-26T09:42:11Z</time>
      </trkpt>
      <trkpt lat="43.669587" lon="-8.037675">
        <ele>14.208</ele>
        <time>2016-09-26T09:42:12Z</time>
      </trkpt>
      <trkpt lat="43.669552" lon="-8.037702">
        <ele>13.979</ele>
        <time>2016-09-26T09:42:13Z</time>
      </trkpt>
      <trkpt lat="43.669515" lon="-8.037725">
        <ele>13.644</ele>
        <time>2016-09-26T09:42:14Z</time>
      </trkpt>
      <trkpt lat="43.669470" lon="-8.037745">
        <ele>13.382</ele>
        <time>2016-09-26T09:42:15Z</time>
      </trkpt>
      <trkpt lat="43.669429" lon="-8.037763">
        <ele>13.198</ele>
        <time>2016-09-26T09:42:16Z</time>
      </trkpt>
      <trkpt lat="43.669390" lon="-8.037778">
        <ele>12.852</ele>
        <time>2016-09-26T09:42:17Z</time>
      </trkpt>
      <trkpt lat="43.669344" lon="-8.037797">
        <ele>12.654</ele>
        <time>2016-09-26T09:42:18Z</time>
      </trkpt>
      <trkpt lat="43.669303" lon="-8.037805">
        <ele>12.317</ele>
        <time>2016-09-26T09:42:19Z</time>
      </trkpt>
      <trkpt lat="43.669262" lon="-8.037809">
        <ele>12.115</ele>
        <time>2016-09-26T09:42:20Z</time>
      </trkpt>
      <trkpt lat="43.669216" lon="-8.037813">
        <ele>11.888</ele>
        <time>2016-09-26T09:42:21Z</time>
      </trkpt>
      <trkpt lat="43.669170" lon="-8.037814">
        <ele>11.524</ele>
        <time>2016-09-26T09:42:22Z</time>
      </trkpt>
      <trkpt lat="43.669121" lon="-8.037814">
        <ele>11.326</ele>
        <time>2016-09-26T09:42:23Z</time>
      </trkpt>
      <trkpt lat="43.669068" lon="-8.037819">
        <ele>11.308</ele>
        <time>2016-09-26T09:42:24Z</time>
      </trkpt>
      <trkpt lat="43.669016" lon="-8.037818">
        <ele>11.039</ele>
        <time>2016-09-26T09:42:25Z</time>
      </trkpt>
      <trkpt lat="43.668965" lon="-8.037820">
        <ele>10.854</ele>
        <time>2016-09-26T09:42:26Z</time>
      </trkpt>
      <trkpt lat="43.668924" lon="-8.037824">
        <ele>10.572</ele>
        <time>2016-09-26T09:42:27Z</time>
      </trkpt>
      <trkpt lat="43.668890" lon="-8.037834">
        <ele>10.298</ele>
        <time>2016-09-26T09:42:28Z</time>
      </trkpt>
      <trkpt lat="43.668861" lon="-8.037849">
        <ele>9.912</ele>
        <time>2016-09-26T09:42:29Z</time>
      </trkpt>
      <trkpt lat="43.668831" lon="-8.037872">
        <ele>9.654</ele>
        <time>2016-09-26T09:42:30Z</time>
      </trkpt>
      <trkpt lat="43.668801" lon="-8.037899">
        <ele>9.537</ele>
        <time>2016-09-26T09:42:31Z</time>
      </trkpt>
      <trkpt lat="43.668778" lon="-8.037932">
        <ele>9.355</ele>
        <time>2016-09-26T09:42:32Z</time>
      </trkpt>
      <trkpt lat="43.668757" lon="-8.037978">
        <ele>9.345</ele>
        <time>2016-09-26T09:42:33Z</time>
      </trkpt>
      <trkpt lat="43.668738" lon="-8.038027">
        <ele>9.347</ele>
        <time>2016-09-26T09:42:34Z</time>
      </trkpt>
      <trkpt lat="43.668720" lon="-8.038078">
        <ele>8.911</ele>
        <time>2016-09-26T09:42:35Z</time>
      </trkpt>
      <trkpt lat="43.668700" lon="-8.038132">
        <ele>8.908</ele>
        <time>2016-09-26T09:42:36Z</time>
      </trkpt>
      <trkpt lat="43.668682" lon="-8.038183">
        <ele>9.095</ele>
        <time>2016-09-26T09:42:37Z</time>
      </trkpt>
      <trkpt lat="43.668664" lon="-8.038236">
        <ele>8.890</ele>
        <time>2016-09-26T09:42:38Z</time>
      </trkpt>
      <trkpt lat="43.668648" lon="-8.038288">
        <ele>8.928</ele>
        <time>2016-09-26T09:42:39Z</time>
      </trkpt>
      <trkpt lat="43.668631" lon="-8.038339">
        <ele>9.054</ele>
        <time>2016-09-26T09:42:40Z</time>
      </trkpt>
      <trkpt lat="43.668613" lon="-8.038388">
        <ele>9.068</ele>
        <time>2016-09-26T09:42:41Z</time>
      </trkpt>
      <trkpt lat="43.668596" lon="-8.038439">
        <ele>8.950</ele>
        <time>2016-09-26T09:42:42Z</time>
      </trkpt>
      <trkpt lat="43.668580" lon="-8.038491">
        <ele>8.933</ele>
        <time>2016-09-26T09:42:43Z</time>
      </trkpt>
      <trkpt lat="43.668564" lon="-8.038542">
        <ele>8.871</ele>
        <time>2016-09-26T09:42:44Z</time>
      </trkpt>
      <trkpt lat="43.668547" lon="-8.038593">
        <ele>8.915</ele>
        <time>2016-09-26T09:42:45Z</time>
      </trkpt>
      <trkpt lat="43.668529" lon="-8.038642">
        <ele>8.965</ele>
        <time>2016-09-26T09:42:46Z</time>
      </trkpt>
      <trkpt lat="43.668508" lon="-8.038691">
        <ele>9.111</ele>
        <time>2016-09-26T09:42:47Z</time>
      </trkpt>
      <trkpt lat="43.668485" lon="-8.038737">
        <ele>9.208</ele>
        <time>2016-09-26T09:42:48Z</time>
      </trkpt>
      <trkpt lat="43.668461" lon="-8.038781">
        <ele>9.392</ele>
        <time>2016-09-26T09:42:49Z</time>
      </trkpt>
      <trkpt lat="43.668437" lon="-8.038827">
        <ele>9.237</ele>
        <time>2016-09-26T09:42:50Z</time>
      </trkpt>
      <trkpt lat="43.668413" lon="-8.038871">
        <ele>9.495</ele>
        <time>2016-09-26T09:42:51Z</time>
      </trkpt>
      <trkpt lat="43.668387" lon="-8.038915">
        <ele>9.571</ele>
        <time>2016-09-26T09:42:52Z</time>
      </trkpt>
      <trkpt lat="43.668364" lon="-8.038961">
        <ele>9.425</ele>
        <time>2016-09-26T09:42:53Z</time>
      </trkpt>
      <trkpt lat="43.668345" lon="-8.039008">
        <ele>9.677</ele>
        <time>2016-09-26T09:42:54Z</time>
      </trkpt>
      <trkpt lat="43.668326" lon="-8.039049">
        <ele>9.710</ele>
        <time>2016-09-26T09:42:55Z</time>
      </trkpt>
      <trkpt lat="43.668312" lon="-8.039094">
        <ele>9.758</ele>
        <time>2016-09-26T09:42:56Z</time>
      </trkpt>
      <trkpt lat="43.668301" lon="-8.039140">
        <ele>9.585</ele>
        <time>2016-09-26T09:42:57Z</time>
      </trkpt>
      <trkpt lat="43.668294" lon="-8.039190">
        <ele>9.389</ele>
        <time>2016-09-26T09:42:58Z</time>
      </trkpt>
      <trkpt lat="43.668286" lon="-8.039244">
        <ele>9.517</ele>
        <time>2016-09-26T09:42:59Z</time>
      </trkpt>
      <trkpt lat="43.668280" lon="-8.039301">
        <ele>9.408</ele>
        <time>2016-09-26T09:43:00Z</time>
      </trkpt>
      <trkpt lat="43.668275" lon="-8.039359">
        <ele>9.529</ele>
        <time>2016-09-26T09:43:01Z</time>
      </trkpt>
      <trkpt lat="43.668276" lon="-8.039413">
        <ele>9.554</ele>
        <time>2016-09-26T09:43:02Z</time>
      </trkpt>
      <trkpt lat="43.668279" lon="-8.039468">
        <ele>9.592</ele>
        <time>2016-09-26T09:43:03Z</time>
      </trkpt>
      <trkpt lat="43.668277" lon="-8.039529">
        <ele>9.778</ele>
        <time>2016-09-26T09:43:04Z</time>
      </trkpt>
      <trkpt lat="43.668272" lon="-8.039594">
        <ele>9.792</ele>
        <time>2016-09-26T09:43:05Z</time>
      </trkpt>
      <trkpt lat="43.668270" lon="-8.039658">
        <ele>9.794</ele>
        <time>2016-09-26T09:43:06Z</time>
      </trkpt>
      <trkpt lat="43.668268" lon="-8.039722">
        <ele>9.727</ele>
        <time>2016-09-26T09:43:07Z</time>
      </trkpt>
      <trkpt lat="43.668262" lon="-8.039787">
        <ele>9.935</ele>
        <time>2016-09-26T09:43:08Z</time>
      </trkpt>
      <trkpt lat="43.668258" lon="-8.039853">
        <ele>10.095</ele>
        <time>2016-09-26T09:43:09Z</time>
      </trkpt>
      <trkpt lat="43.668256" lon="-8.039916">
        <ele>10.049</ele>
        <time>2016-09-26T09:43:10Z</time>
      </trkpt>
      <trkpt lat="43.668254" lon="-8.039979">
        <ele>10.223</ele>
        <time>2016-09-26T09:43:11Z</time>
      </trkpt>
      <trkpt lat="43.668249" lon="-8.040044">
        <ele>10.208</ele>
        <time>2016-09-26T09:43:12Z</time>
      </trkpt>
      <trkpt lat="43.668243" lon="-8.040107">
        <ele>10.310</ele>
        <time>2016-09-26T09:43:13Z</time>
      </trkpt>
      <trkpt lat="43.668234" lon="-8.040170">
        <ele>10.625</ele>
        <time>2016-09-26T09:43:14Z</time>
      </trkpt>
      <trkpt lat="43.668220" lon="-8.040232">
        <ele>10.863</ele>
        <time>2016-09-26T09:43:15Z</time>
      </trkpt>
      <trkpt lat="43.668206" lon="-8.040293">
        <ele>10.829</ele>
        <time>2016-09-26T09:43:16Z</time>
      </trkpt>
      <trkpt lat="43.668188" lon="-8.040352">
        <ele>11.053</ele>
        <time>2016-09-26T09:43:17Z</time>
      </trkpt>
      <trkpt lat="43.668170" lon="-8.040410">
        <ele>10.835</ele>
        <time>2016-09-26T09:43:18Z</time>
      </trkpt>
      <trkpt lat="43.668153" lon="-8.040468">
        <ele>10.838</ele>
        <time>2016-09-26T09:43:19Z</time>
      </trkpt>
      <trkpt lat="43.668134" lon="-8.040525">
        <ele>11.076</ele>
        <time>2016-09-26T09:43:20Z</time>
      </trkpt>
      <trkpt lat="43.668114" lon="-8.040580">
        <ele>11.211</ele>
        <time>2016-09-26T09:43:21Z</time>
      </trkpt>
      <trkpt lat="43.668094" lon="-8.040639">
        <ele>11.321</ele>
        <time>2016-09-26T09:43:22Z</time>
      </trkpt>
      <trkpt lat="43.668075" lon="-8.040696">
        <ele>11.303</ele>
        <time>2016-09-26T09:43:23Z</time>
      </trkpt>
      <trkpt lat="43.668055" lon="-8.040751">
        <ele>11.408</ele>
        <time>2016-09-26T09:43:24Z</time>
      </trkpt>
      <trkpt lat="43.668036" lon="-8.040804">
        <ele>11.592</ele>
        <time>2016-09-26T09:43:25Z</time>
      </trkpt>
      <trkpt lat="43.668018" lon="-8.040856">
        <ele>11.517</ele>
        <time>2016-09-26T09:43:26Z</time>
      </trkpt>
      <trkpt lat="43.668001" lon="-8.040907">
        <ele>11.775</ele>
        <time>2016-09-26T09:43:27Z</time>
      </trkpt>
      <trkpt lat="43.667984" lon="-8.040956">
        <ele>11.841</ele>
        <time>2016-09-26T09:43:28Z</time>
      </trkpt>
      <trkpt lat="43.667964" lon="-8.041005">
        <ele>12.065</ele>
        <time>2016-09-26T09:43:29Z</time>
      </trkpt>
      <trkpt lat="43.667946" lon="-8.041055">
        <ele>12.087</ele>
        <time>2016-09-26T09:43:30Z</time>
      </trkpt>
      <trkpt lat="43.667930" lon="-8.041102">
        <ele>12.270</ele>
        <time>2016-09-26T09:43:31Z</time>
      </trkpt>
      <trkpt lat="43.667917" lon="-8.041147">
        <ele>12.458</ele>
        <time>2016-09-26T09:43:32Z</time>
      </trkpt>
      <trkpt lat="43.667903" lon="-8.041189">
        <ele>12.823</ele>
        <time>2016-09-26T09:43:33Z</time>
      </trkpt>
      <trkpt lat="43.667886" lon="-8.041231">
        <ele>12.883</ele>
        <time>2016-09-26T09:43:34Z</time>
      </trkpt>
      <trkpt lat="43.667873" lon="-8.041272">
        <ele>13.111</ele>
        <time>2016-09-26T09:43:35Z</time>
      </trkpt>
      <trkpt lat="43.667861" lon="-8.041306">
        <ele>13.108</ele>
        <time>2016-09-26T09:43:36Z</time>
      </trkpt>
      <trkpt lat="43.667844" lon="-8.041340">
        <ele>13.483</ele>
        <time>2016-09-26T09:43:37Z</time>
      </trkpt>
      <trkpt lat="43.667826" lon="-8.041378">
        <ele>13.758</ele>
        <time>2016-09-26T09:43:38Z</time>
      </trkpt>
      <trkpt lat="43.667808" lon="-8.041418">
        <ele>13.856</ele>
        <time>2016-09-26T09:43:39Z</time>
      </trkpt>
      <trkpt lat="43.667793" lon="-8.041457">
        <ele>14.052</ele>
        <time>2016-09-26T09:43:40Z</time>
      </trkpt>
      <trkpt lat="43.667778" lon="-8.041497">
        <ele>14.346</ele>
        <time>2016-09-26T09:43:41Z</time>
      </trkpt>
      <trkpt lat="43.667765" lon="-8.041535">
        <ele>14.738</ele>
        <time>2016-09-26T09:43:42Z</time>
      </trkpt>
      <trkpt lat="43.667751" lon="-8.041571">
        <ele>15.081</ele>
        <time>2016-09-26T09:43:43Z</time>
      </trkpt>
      <trkpt lat="43.667732" lon="-8.041608">
        <ele>15.339</ele>
        <time>2016-09-26T09:43:44Z</time>
      </trkpt>
      <trkpt lat="43.667713" lon="-8.041647">
        <ele>15.614</ele>
        <time>2016-09-26T09:43:45Z</time>
      </trkpt>
      <trkpt lat="43.667692" lon="-8.041682">
        <ele>15.954</ele>
        <time>2016-09-26T09:43:46Z</time>
      </trkpt>
      <trkpt lat="43.667670" lon="-8.041718">
        <ele>16.209</ele>
        <time>2016-09-26T09:43:47Z</time>
      </trkpt>
      <trkpt lat="43.667646" lon="-8.041755">
        <ele>16.408</ele>
        <time>2016-09-26T09:43:48Z</time>
      </trkpt>
      <trkpt lat="43.667621" lon="-8.041792">
        <ele>16.562</ele>
        <time>2016-09-26T09:43:49Z</time>
      </trkpt>
      <trkpt lat="43.667602" lon="-8.041828">
        <ele>16.747</ele>
        <time>2016-09-26T09:43:50Z</time>
      </trkpt>
      <trkpt lat="43.667575" lon="-8.041863">
        <ele>16.915</ele>
        <time>2016-09-26T09:43:51Z</time>
      </trkpt>
      <trkpt lat="43.667550" lon="-8.041894">
        <ele>17.221</ele>
        <time>2016-09-26T09:43:52Z</time>
      </trkpt>
      <trkpt lat="43.667529" lon="-8.041920">
        <ele>17.435</ele>
        <time>2016-09-26T09:43:53Z</time>
      </trkpt>
      <trkpt lat="43.667510" lon="-8.041945">
        <ele>17.727</ele>
        <time>2016-09-26T09:43:54Z</time>
      </trkpt>
      <trkpt lat="43.667487" lon="-8.041970">
        <ele>18.030</ele>
        <time>2016-09-26T09:43:55Z</time>
      </trkpt>
      <trkpt lat="43.667467" lon="-8.041993">
        <ele>18.228</ele>
        <time>2016-09-26T09:43:56Z</time>
      </trkpt>
      <trkpt lat="43.667451" lon="-8.042015">
        <ele>18.384</ele>
        <time>2016-09-26T09:43:57Z</time>
      </trkpt>
      <trkpt lat="43.667437" lon="-8.042036">
        <ele>18.407</ele>
        <time>2016-09-26T09:43:58Z</time>
      </trkpt>
      <trkpt lat="43.667421" lon="-8.042053">
        <ele>18.517</ele>
        <time>2016-09-26T09:43:59Z</time>
      </trkpt>
      <trkpt lat="43.667403" lon="-8.042068">
        <ele>18.608</ele>
        <time>2016-09-26T09:44:00Z</time>
      </trkpt>
      <trkpt lat="43.667383" lon="-8.042089">
        <ele>18.989</ele>
        <time>2016-09-26T09:44:01Z</time>
      </trkpt>
      <trkpt lat="43.667360" lon="-8.042117">
        <ele>18.894</ele>
        <time>2016-09-26T09:44:02Z</time>
      </trkpt>
      <trkpt lat="43.667339" lon="-8.042142">
        <ele>19.112</ele>
        <time>2016-09-26T09:44:03Z</time>
      </trkpt>
      <trkpt lat="43.667312" lon="-8.042167">
        <ele>19.438</ele>
        <time>2016-09-26T09:44:04Z</time>
      </trkpt>
      <trkpt lat="43.667289" lon="-8.042193">
        <ele>19.472</ele>
        <time>2016-09-26T09:44:05Z</time>
      </trkpt>
      <trkpt lat="43.667265" lon="-8.042218">
        <ele>19.744</ele>
        <time>2016-09-26T09:44:06Z</time>
      </trkpt>
      <trkpt lat="43.667239" lon="-8.042244">
        <ele>20.087</ele>
        <time>2016-09-26T09:44:07Z</time>
      </trkpt>
      <trkpt lat="43.667215" lon="-8.042270">
        <ele>20.225</ele>
        <time>2016-09-26T09:44:08Z</time>
      </trkpt>
      <trkpt lat="43.667187" lon="-8.042300">
        <ele>20.464</ele>
        <time>2016-09-26T09:44:09Z</time>
      </trkpt>
      <trkpt lat="43.667157" lon="-8.042333">
        <ele>20.406</ele>
        <time>2016-09-26T09:44:10Z</time>
      </trkpt>
      <trkpt lat="43.667127" lon="-8.042367">
        <ele>20.616</ele>
        <time>2016-09-26T09:44:11Z</time>
      </trkpt>
      <trkpt lat="43.667101" lon="-8.042394">
        <ele>20.808</ele>
        <time>2016-09-26T09:44:12Z</time>
      </trkpt>
      <trkpt lat="43.667072" lon="-8.042419">
        <ele>21.087</ele>
        <time>2016-09-26T09:44:13Z</time>
      </trkpt>
      <trkpt lat="43.667045" lon="-8.042447">
        <ele>21.142</ele>
        <time>2016-09-26T09:44:14Z</time>
      </trkpt>
      <trkpt lat="43.667023" lon="-8.042479">
        <ele>21.450</ele>
        <time>2016-09-26T09:44:15Z</time>
      </trkpt>
      <trkpt lat="43.667008" lon="-8.042504">
        <ele>21.546</ele>
        <time>2016-09-26T09:44:16Z</time>
      </trkpt>
      <trkpt lat="43.666988" lon="-8.042530">
        <ele>21.640</ele>
        <time>2016-09-26T09:44:17Z</time>
      </trkpt>
      <trkpt lat="43.666969" lon="-8.042560">
        <ele>21.552</ele>
        <time>2016-09-26T09:44:18Z</time>
      </trkpt>
      <trkpt lat="43.666943" lon="-8.042590">
        <ele>21.575</ele>
        <time>2016-09-26T09:44:19Z</time>
      </trkpt>
      <trkpt lat="43.666917" lon="-8.042621">
        <ele>21.643</ele>
        <time>2016-09-26T09:44:20Z</time>
      </trkpt>
      <trkpt lat="43.666891" lon="-8.042652">
        <ele>21.624</ele>
        <time>2016-09-26T09:44:21Z</time>
      </trkpt>
      <trkpt lat="43.666864" lon="-8.042682">
        <ele>21.704</ele>
        <time>2016-09-26T09:44:22Z</time>
      </trkpt>
      <trkpt lat="43.666832" lon="-8.042714">
        <ele>21.614</ele>
        <time>2016-09-26T09:44:23Z</time>
      </trkpt>
      <trkpt lat="43.666800" lon="-8.042746">
        <ele>21.708</ele>
        <time>2016-09-26T09:44:24Z</time>
      </trkpt>
      <trkpt lat="43.666766" lon="-8.042778">
        <ele>21.713</ele>
        <time>2016-09-26T09:44:25Z</time>
      </trkpt>
      <trkpt lat="43.666732" lon="-8.042814">
        <ele>21.798</ele>
        <time>2016-09-26T09:44:26Z</time>
      </trkpt>
      <trkpt lat="43.666695" lon="-8.042855">
        <ele>21.846</ele>
        <time>2016-09-26T09:44:27Z</time>
      </trkpt>
      <trkpt lat="43.666653" lon="-8.042896">
        <ele>21.892</ele>
        <time>2016-09-26T09:44:28Z</time>
      </trkpt>
      <trkpt lat="43.666613" lon="-8.042934">
        <ele>21.896</ele>
        <time>2016-09-26T09:44:29Z</time>
      </trkpt>
      <trkpt lat="43.666571" lon="-8.042973">
        <ele>21.828</ele>
        <time>2016-09-26T09:44:30Z</time>
      </trkpt>
      <trkpt lat="43.666530" lon="-8.043012">
        <ele>21.651</ele>
        <time>2016-09-26T09:44:31Z</time>
      </trkpt>
      <trkpt lat="43.666488" lon="-8.043051">
        <ele>21.729</ele>
        <time>2016-09-26T09:44:32Z</time>
      </trkpt>
      <trkpt lat="43.666448" lon="-8.043090">
        <ele>21.666</ele>
        <time>2016-09-26T09:44:33Z</time>
      </trkpt>
      <trkpt lat="43.666410" lon="-8.043128">
        <ele>21.629</ele>
        <time>2016-09-26T09:44:34Z</time>
      </trkpt>
      <trkpt lat="43.666371" lon="-8.043166">
        <ele>21.421</ele>
        <time>2016-09-26T09:44:35Z</time>
      </trkpt>
      <trkpt lat="43.666331" lon="-8.043204">
        <ele>21.408</ele>
        <time>2016-09-26T09:44:36Z</time>
      </trkpt>
      <trkpt lat="43.666287" lon="-8.043244">
        <ele>21.597</ele>
        <time>2016-09-26T09:44:37Z</time>
      </trkpt>
      <trkpt lat="43.666245" lon="-8.043280">
        <ele>21.512</ele>
        <time>2016-09-26T09:44:38Z</time>
      </trkpt>
      <trkpt lat="43.666203" lon="-8.043318">
        <ele>21.440</ele>
        <time>2016-09-26T09:44:39Z</time>
      </trkpt>
      <trkpt lat="43.666160" lon="-8.043356">
        <ele>21.416</ele>
        <time>2016-09-26T09:44:40Z</time>
      </trkpt>
      <trkpt lat="43.666116" lon="-8.043392">
        <ele>21.390</ele>
        <time>2016-09-26T09:44:41Z</time>
      </trkpt>
      <trkpt lat="43.666071" lon="-8.043426">
        <ele>21.242</ele>
        <time>2016-09-26T09:44:42Z</time>
      </trkpt>
      <trkpt lat="43.666023" lon="-8.043459">
        <ele>21.185</ele>
        <time>2016-09-26T09:44:43Z</time>
      </trkpt>
      <trkpt lat="43.665974" lon="-8.043492">
        <ele>21.083</ele>
        <time>2016-09-26T09:44:44Z</time>
      </trkpt>
      <trkpt lat="43.665923" lon="-8.043527">
        <ele>21.031</ele>
        <time>2016-09-26T09:44:45Z</time>
      </trkpt>
      <trkpt lat="43.665871" lon="-8.043563">
        <ele>20.961</ele>
        <time>2016-09-26T09:44:46Z</time>
      </trkpt>
      <trkpt lat="43.665815" lon="-8.043602">
        <ele>20.807</ele>
        <time>2016-09-26T09:44:47Z</time>
      </trkpt>
      <trkpt lat="43.665759" lon="-8.043645">
        <ele>20.608</ele>
        <time>2016-09-26T09:44:48Z</time>
      </trkpt>
      <trkpt lat="43.665701" lon="-8.043693">
        <ele>20.454</ele>
        <time>2016-09-26T09:44:49Z</time>
      </trkpt>
      <trkpt lat="43.665642" lon="-8.043742">
        <ele>20.099</ele>
        <time>2016-09-26T09:44:50Z</time>
      </trkpt>
      <trkpt lat="43.665584" lon="-8.043796">
        <ele>19.817</ele>
        <time>2016-09-26T09:44:51Z</time>
      </trkpt>
      <trkpt lat="43.665524" lon="-8.043862">
        <ele>19.743</ele>
        <time>2016-09-26T09:44:52Z</time>
      </trkpt>
      <trkpt lat="43.665469" lon="-8.043938">
        <ele>19.577</ele>
        <time>2016-09-26T09:44:53Z</time>
      </trkpt>
      <trkpt lat="43.665424" lon="-8.044022">
        <ele>19.339</ele>
        <time>2016-09-26T09:44:54Z</time>
      </trkpt>
      <trkpt lat="43.665387" lon="-8.044112">
        <ele>18.882</ele>
        <time>2016-09-26T09:44:55Z</time>
      </trkpt>
      <trkpt lat="43.665352" lon="-8.044209">
        <ele>18.620</ele>
        <time>2016-09-26T09:44:56Z</time>
      </trkpt>
      <trkpt lat="43.665319" lon="-8.044313">
        <ele>18.527</ele>
        <time>2016-09-26T09:44:57Z</time>
      </trkpt>
      <trkpt lat="43.665293" lon="-8.044419">
        <ele>18.368</ele>
        <time>2016-09-26T09:44:58Z</time>
      </trkpt>
      <trkpt lat="43.665274" lon="-8.044531">
        <ele>18.014</ele>
        <time>2016-09-26T09:44:59Z</time>
      </trkpt>
      <trkpt lat="43.665259" lon="-8.044645">
        <ele>17.808</ele>
        <time>2016-09-26T09:45:00Z</time>
      </trkpt>
      <trkpt lat="43.665254" lon="-8.044763">
        <ele>17.783</ele>
        <time>2016-09-26T09:45:01Z</time>
      </trkpt>
      <trkpt lat="43.665249" lon="-8.044882">
        <ele>17.318</ele>
        <time>2016-09-26T09:45:02Z</time>
      </trkpt>
      <trkpt lat="43.665247" lon="-8.045004">
        <ele>17.066</ele>
        <time>2016-09-26T09:45:03Z</time>
      </trkpt>
      <trkpt lat="43.665245" lon="-8.045127">
        <ele>16.872</ele>
        <time>2016-09-26T09:45:04Z</time>
      </trkpt>
      <trkpt lat="43.665244" lon="-8.045250">
        <ele>16.776</ele>
        <time>2016-09-26T09:45:05Z</time>
      </trkpt>
      <trkpt lat="43.665241" lon="-8.045374">
        <ele>16.268</ele>
        <time>2016-09-26T09:45:06Z</time>
      </trkpt>
      <trkpt lat="43.665238" lon="-8.045498">
        <ele>15.671</ele>
        <time>2016-09-26T09:45:07Z</time>
      </trkpt>
      <trkpt lat="43.665235" lon="-8.045621">
        <ele>15.239</ele>
        <time>2016-09-26T09:45:08Z</time>
      </trkpt>
      <trkpt lat="43.665232" lon="-8.045741">
        <ele>14.981</ele>
        <time>2016-09-26T09:45:09Z</time>
      </trkpt>
      <trkpt lat="43.665233" lon="-8.045857">
        <ele>14.561</ele>
        <time>2016-09-26T09:45:10Z</time>
      </trkpt>
      <trkpt lat="43.665232" lon="-8.045971">
        <ele>14.117</ele>
        <time>2016-09-26T09:45:11Z</time>
      </trkpt>
      <trkpt lat="43.665229" lon="-8.046080">
        <ele>13.908</ele>
        <time>2016-09-26T09:45:12Z</time>
      </trkpt>
      <trkpt lat="43.665226" lon="-8.046187">
        <ele>13.789</ele>
        <time>2016-09-26T09:45:13Z</time>
      </trkpt>
      <trkpt lat="43.665220" lon="-8.046291">
        <ele>13.494</ele>
        <time>2016-09-26T09:45:14Z</time>
      </trkpt>
      <trkpt lat="43.665213" lon="-8.046393">
        <ele>13.322</ele>
        <time>2016-09-26T09:45:15Z</time>
      </trkpt>
      <trkpt lat="43.665202" lon="-8.046493">
        <ele>13.238</ele>
        <time>2016-09-26T09:45:16Z</time>
      </trkpt>
      <trkpt lat="43.665188" lon="-8.046589">
        <ele>13.152</ele>
        <time>2016-09-26T09:45:17Z</time>
      </trkpt>
      <trkpt lat="43.665174" lon="-8.046675">
        <ele>12.954</ele>
        <time>2016-09-26T09:45:18Z</time>
      </trkpt>
      <trkpt lat="43.665157" lon="-8.046750">
        <ele>12.517</ele>
        <time>2016-09-26T09:45:19Z</time>
      </trkpt>
      <trkpt lat="43.665135" lon="-8.046825">
        <ele>12.225</ele>
        <time>2016-09-26T09:45:20Z</time>
      </trkpt>
      <trkpt lat="43.665112" lon="-8.046906">
        <ele>12.191</ele>
        <time>2016-09-26T09:45:21Z</time>
      </trkpt>
      <trkpt lat="43.665090" lon="-8.046991">
        <ele>12.181</ele>
        <time>2016-09-26T09:45:22Z</time>
      </trkpt>
      <trkpt lat="43.665066" lon="-8.047079">
        <ele>11.819</ele>
        <time>2016-09-26T09:45:23Z</time>
      </trkpt>
      <trkpt lat="43.665038" lon="-8.047165">
        <ele>11.608</ele>
        <time>2016-09-26T09:45:24Z</time>
      </trkpt>
      <trkpt lat="43.665008" lon="-8.047248">
        <ele>11.170</ele>
        <time>2016-09-26T09:45:25Z</time>
      </trkpt>
      <trkpt lat="43.664979" lon="-8.047330">
        <ele>10.885</ele>
        <time>2016-09-26T09:45:26Z</time>
      </trkpt>
      <trkpt lat="43.664949" lon="-8.047412">
        <ele>10.673</ele>
        <time>2016-09-26T09:45:27Z</time>
      </trkpt>
      <trkpt lat="43.664919" lon="-8.047494">
        <ele>10.629</ele>
        <time>2016-09-26T09:45:28Z</time>
      </trkpt>
      <trkpt lat="43.664888" lon="-8.047574">
        <ele>10.533</ele>
        <time>2016-09-26T09:45:29Z</time>
      </trkpt>
      <trkpt lat="43.664859" lon="-8.047654">
        <ele>10.395</ele>
        <time>2016-09-26T09:45:30Z</time>
      </trkpt>
      <trkpt lat="43.664832" lon="-8.047735">
        <ele>10.188</ele>
        <time>2016-09-26T09:45:31Z</time>
      </trkpt>
      <trkpt lat="43.664807" lon="-8.047816">
        <ele>9.996</ele>
        <time>2016-09-26T09:45:32Z</time>
      </trkpt>
      <trkpt lat="43.664781" lon="-8.047893">
        <ele>9.978</ele>
        <time>2016-09-26T09:45:33Z</time>
      </trkpt>
      <trkpt lat="43.664755" lon="-8.047966">
        <ele>9.933</ele>
        <time>2016-09-26T09:45:34Z</time>
      </trkpt>
      <trkpt lat="43.664730" lon="-8.048040">
        <ele>9.926</ele>
        <time>2016-09-26T09:45:35Z</time>
      </trkpt>
      <trkpt lat="43.664704" lon="-8.048114">
        <ele>9.808</ele>
        <time>2016-09-26T09:45:36Z</time>
      </trkpt>
      <trkpt lat="43.664679" lon="-8.048185">
        <ele>9.748</ele>
        <time>2016-09-26T09:45:37Z</time>
      </trkpt>
      <trkpt lat="43.664653" lon="-8.048256">
        <ele>9.643</ele>
        <time>2016-09-26T09:45:38Z</time>
      </trkpt>
      <trkpt lat="43.664629" lon="-8.048326">
        <ele>9.321</ele>
        <time>2016-09-26T09:45:39Z</time>
      </trkpt>
      <trkpt lat="43.664604" lon="-8.048395">
        <ele>9.387</ele>
        <time>2016-09-26T09:45:40Z</time>
      </trkpt>
      <trkpt lat="43.664580" lon="-8.048462">
        <ele>9.381</ele>
        <time>2016-09-26T09:45:41Z</time>
      </trkpt>
      <trkpt lat="43.664557" lon="-8.048528">
        <ele>9.173</ele>
        <time>2016-09-26T09:45:42Z</time>
      </trkpt>
      <trkpt lat="43.664533" lon="-8.048594">
        <ele>9.026</ele>
        <time>2016-09-26T09:45:43Z</time>
      </trkpt>
      <trkpt lat="43.664509" lon="-8.048661">
        <ele>9.054</ele>
        <time>2016-09-26T09:45:44Z</time>
      </trkpt>
      <trkpt lat="43.664485" lon="-8.048730">
        <ele>9.055</ele>
        <time>2016-09-26T09:45:45Z</time>
      </trkpt>
      <trkpt lat="43.664459" lon="-8.048801">
        <ele>8.907</ele>
        <time>2016-09-26T09:45:46Z</time>
      </trkpt>
      <trkpt lat="43.664433" lon="-8.048873">
        <ele>8.917</ele>
        <time>2016-09-26T09:45:47Z</time>
      </trkpt>
      <trkpt lat="43.664406" lon="-8.048948">
        <ele>9.008</ele>
        <time>2016-09-26T09:45:48Z</time>
      </trkpt>
      <trkpt lat="43.664381" lon="-8.049018">
        <ele>8.826</ele>
        <time>2016-09-26T09:45:49Z</time>
      </trkpt>
      <trkpt lat="43.664359" lon="-8.049077">
        <ele>8.871</ele>
        <time>2016-09-26T09:45:50Z</time>
      </trkpt>
      <trkpt lat="43.664343" lon="-8.049122">
        <ele>8.839</ele>
        <time>2016-09-26T09:45:51Z</time>
      </trkpt>
      <trkpt lat="43.664326" lon="-8.049162">
        <ele>8.645</ele>
        <time>2016-09-26T09:45:52Z</time>
      </trkpt>
      <trkpt lat="43.664311" lon="-8.049203">
        <ele>8.659</ele>
        <time>2016-09-26T09:45:53Z</time>
      </trkpt>
      <trkpt lat="43.664295" lon="-8.049249">
        <ele>8.531</ele>
        <time>2016-09-26T09:45:54Z</time>
      </trkpt>
      <trkpt lat="43.664278" lon="-8.049301">
        <ele>8.484</ele>
        <time>2016-09-26T09:45:55Z</time>
      </trkpt>
      <trkpt lat="43.664261" lon="-8.049358">
        <ele>8.492</ele>
        <time>2016-09-26T09:45:56Z</time>
      </trkpt>
      <trkpt lat="43.664242" lon="-8.049421">
        <ele>8.531</ele>
        <time>2016-09-26T09:45:57Z</time>
      </trkpt>
      <trkpt lat="43.664220" lon="-8.049486">
        <ele>8.561</ele>
        <time>2016-09-26T09:45:58Z</time>
      </trkpt>
      <trkpt lat="43.664195" lon="-8.049555">
        <ele>8.507</ele>
        <time>2016-09-26T09:45:59Z</time>
      </trkpt>
      <trkpt lat="43.664170" lon="-8.049625">
        <ele>8.508</ele>
        <time>2016-09-26T09:46:00Z</time>
      </trkpt>
      <trkpt lat="43.664143" lon="-8.049697">
        <ele>8.584</ele>
        <time>2016-09-26T09:46:01Z</time>
      </trkpt>
      <trkpt lat="43.664116" lon="-8.049771">
        <ele>8.429</ele>
        <time>2016-09-26T09:46:02Z</time>
      </trkpt>
      <trkpt lat="43.664091" lon="-8.049845">
        <ele>8.727</ele>
        <time>2016-09-26T09:46:03Z</time>
      </trkpt>
      <trkpt lat="43.664068" lon="-8.049916">
        <ele>8.653</ele>
        <time>2016-09-26T09:46:04Z</time>
      </trkpt>
      <trkpt lat="43.664038" lon="-8.049990">
        <ele>8.697</ele>
        <time>2016-09-26T09:46:05Z</time>
      </trkpt>
      <trkpt lat="43.664009" lon="-8.050061">
        <ele>8.679</ele>
        <time>2016-09-26T09:46:06Z</time>
      </trkpt>
      <trkpt lat="43.663983" lon="-8.050133">
        <ele>8.552</ele>
        <time>2016-09-26T09:46:07Z</time>
      </trkpt>
      <trkpt lat="43.663958" lon="-8.050204">
        <ele>8.570</ele>
        <time>2016-09-26T09:46:08Z</time>
      </trkpt>
      <trkpt lat="43.663933" lon="-8.050274">
        <ele>8.595</ele>
        <time>2016-09-26T09:46:09Z</time>
      </trkpt>
      <trkpt lat="43.663909" lon="-8.050342">
        <ele>8.549</ele>
        <time>2016-09-26T09:46:10Z</time>
      </trkpt>
      <trkpt lat="43.663885" lon="-8.050407">
        <ele>8.323</ele>
        <time>2016-09-26T09:46:11Z</time>
      </trkpt>
      <trkpt lat="43.663861" lon="-8.050474">
        <ele>8.208</ele>
        <time>2016-09-26T09:46:12Z</time>
      </trkpt>
      <trkpt lat="43.663839" lon="-8.050538">
        <ele>8.350</ele>
        <time>2016-09-26T09:46:13Z</time>
      </trkpt>
      <trkpt lat="43.663816" lon="-8.050602">
        <ele>8.235</ele>
        <time>2016-09-26T09:46:14Z</time>
      </trkpt>
      <trkpt lat="43.663792" lon="-8.050665">
        <ele>8.183</ele>
        <time>2016-09-26T09:46:15Z</time>
      </trkpt>
      <trkpt lat="43.663768" lon="-8.050728">
        <ele>8.199</ele>
        <time>2016-09-26T09:46:16Z</time>
      </trkpt>
      <trkpt lat="43.663745" lon="-8.050794">
        <ele>8.093</ele>
        <time>2016-09-26T09:46:17Z</time>
      </trkpt>
      <trkpt lat="43.663721" lon="-8.050861">
        <ele>7.935</ele>
        <time>2016-09-26T09:46:18Z</time>
      </trkpt>
      <trkpt lat="43.663699" lon="-8.050927">
        <ele>8.158</ele>
        <time>2016-09-26T09:46:19Z</time>
      </trkpt>
      <trkpt lat="43.663679" lon="-8.050996">
        <ele>8.246</ele>
        <time>2016-09-26T09:46:20Z</time>
      </trkpt>
      <trkpt lat="43.663659" lon="-8.051060">
        <ele>8.214</ele>
        <time>2016-09-26T09:46:21Z</time>
      </trkpt>
      <trkpt lat="43.663636" lon="-8.051122">
        <ele>8.154</ele>
        <time>2016-09-26T09:46:22Z</time>
      </trkpt>
      <trkpt lat="43.663609" lon="-8.051185">
        <ele>8.109</ele>
        <time>2016-09-26T09:46:23Z</time>
      </trkpt>
      <trkpt lat="43.663580" lon="-8.051249">
        <ele>7.908</ele>
        <time>2016-09-26T09:46:24Z</time>
      </trkpt>
      <trkpt lat="43.663550" lon="-8.051318">
        <ele>8.042</ele>
        <time>2016-09-26T09:46:25Z</time>
      </trkpt>
      <trkpt lat="43.663517" lon="-8.051386">
        <ele>8.167</ele>
        <time>2016-09-26T09:46:26Z</time>
      </trkpt>
      <trkpt lat="43.663477" lon="-8.051449">
        <ele>8.065</ele>
        <time>2016-09-26T09:46:27Z</time>
      </trkpt>
      <trkpt lat="43.663436" lon="-8.051506">
        <ele>8.291</ele>
        <time>2016-09-26T09:46:28Z</time>
      </trkpt>
      <trkpt lat="43.663393" lon="-8.051562">
        <ele>8.095</ele>
        <time>2016-09-26T09:46:29Z</time>
      </trkpt>
      <trkpt lat="43.663348" lon="-8.051616">
        <ele>7.977</ele>
        <time>2016-09-26T09:46:30Z</time>
      </trkpt>
      <trkpt lat="43.663303" lon="-8.051670">
        <ele>8.220</ele>
        <time>2016-09-26T09:46:31Z</time>
      </trkpt>
      <trkpt lat="43.663254" lon="-8.051727">
        <ele>8.068</ele>
        <time>2016-09-26T09:46:32Z</time>
      </trkpt>
      <trkpt lat="43.663202" lon="-8.051785">
        <ele>8.184</ele>
        <time>2016-09-26T09:46:33Z</time>
      </trkpt>
      <trkpt lat="43.663153" lon="-8.051840">
        <ele>7.907</ele>
        <time>2016-09-26T09:46:34Z</time>
      </trkpt>
      <trkpt lat="43.663110" lon="-8.051903">
        <ele>8.117</ele>
        <time>2016-09-26T09:46:35Z</time>
      </trkpt>
      <trkpt lat="43.663066" lon="-8.051954">
        <ele>8.008</ele>
        <time>2016-09-26T09:46:36Z</time>
      </trkpt>
      <trkpt lat="43.663019" lon="-8.051996">
        <ele>8.129</ele>
        <time>2016-09-26T09:46:37Z</time>
      </trkpt>
      <trkpt lat="43.662972" lon="-8.052040">
        <ele>8.014</ele>
        <time>2016-09-26T09:46:38Z</time>
      </trkpt>
      <trkpt lat="43.662930" lon="-8.052088">
        <ele>7.972</ele>
        <time>2016-09-26T09:46:39Z</time>
      </trkpt>
      <trkpt lat="43.662891" lon="-8.052137">
        <ele>7.778</ele>
        <time>2016-09-26T09:46:40Z</time>
      </trkpt>
      <trkpt lat="43.662849" lon="-8.052194">
        <ele>7.712</ele>
        <time>2016-09-26T09:46:41Z</time>
      </trkpt>
      <trkpt lat="43.662806" lon="-8.052247">
        <ele>7.854</ele>
        <time>2016-09-26T09:46:42Z</time>
      </trkpt>
      <trkpt lat="43.662764" lon="-8.052289">
        <ele>7.917</ele>
        <time>2016-09-26T09:46:43Z</time>
      </trkpt>
      <trkpt lat="43.662719" lon="-8.052336">
        <ele>7.945</ele>
        <time>2016-09-26T09:46:44Z</time>
      </trkpt>
      <trkpt lat="43.662669" lon="-8.052375">
        <ele>7.948</ele>
        <time>2016-09-26T09:46:45Z</time>
      </trkpt>
      <trkpt lat="43.662620" lon="-8.052419">
        <ele>7.961</ele>
        <time>2016-09-26T09:46:46Z</time>
      </trkpt>
      <trkpt lat="43.662590" lon="-8.052469">
        <ele>7.917</ele>
        <time>2016-09-26T09:46:47Z</time>
      </trkpt>
      <trkpt lat="43.662550" lon="-8.052505">
        <ele>7.908</ele>
        <time>2016-09-26T09:46:48Z</time>
      </trkpt>
      <trkpt lat="43.662526" lon="-8.052537">
        <ele>8.025</ele>
        <time>2016-09-26T09:46:49Z</time>
      </trkpt>
      <trkpt lat="43.662498" lon="-8.052566">
        <ele>8.020</ele>
        <time>2016-09-26T09:46:50Z</time>
      </trkpt>
      <trkpt lat="43.662473" lon="-8.052604">
        <ele>8.258</ele>
        <time>2016-09-26T09:46:51Z</time>
      </trkpt>
      <trkpt lat="43.662452" lon="-8.052625">
        <ele>8.224</ele>
        <time>2016-09-26T09:46:52Z</time>
      </trkpt>
      <trkpt lat="43.662441" lon="-8.052639">
        <ele>8.128</ele>
        <time>2016-09-26T09:46:53Z</time>
      </trkpt>
      <trkpt lat="43.662425" lon="-8.052654">
        <ele>8.080</ele>
        <time>2016-09-26T09:46:54Z</time>
      </trkpt>
      <trkpt lat="43.662404" lon="-8.052673">
        <ele>8.033</ele>
        <time>2016-09-26T09:46:55Z</time>
      </trkpt>
      <trkpt lat="43.662378" lon="-8.052701">
        <ele>7.951</ele>
        <time>2016-09-26T09:46:56Z</time>
      </trkpt>
      <trkpt lat="43.662359" lon="-8.052736">
        <ele>8.014</ele>
        <time>2016-09-26T09:46:57Z</time>
      </trkpt>
      <trkpt lat="43.662332" lon="-8.052774">
        <ele>7.954</ele>
        <time>2016-09-26T09:46:58Z</time>
      </trkpt>
      <trkpt lat="43.662304" lon="-8.052816">
        <ele>8.009</ele>
        <time>2016-09-26T09:46:59Z</time>
      </trkpt>
      <trkpt lat="43.662275" lon="-8.052863">
        <ele>8.008</ele>
        <time>2016-09-26T09:47:00Z</time>
      </trkpt>
      <trkpt lat="43.662233" lon="-8.052914">
        <ele>8.092</ele>
        <time>2016-09-26T09:47:01Z</time>
      </trkpt>
      <trkpt lat="43.662199" lon="-8.052954">
        <ele>8.267</ele>
        <time>2016-09-26T09:47:02Z</time>
      </trkpt>
      <trkpt lat="43.662167" lon="-8.052997">
        <ele>8.375</ele>
        <time>2016-09-26T09:47:03Z</time>
      </trkpt>
      <trkpt lat="43.662132" lon="-8.053045">
        <ele>8.321</ele>
        <time>2016-09-26T09:47:04Z</time>
      </trkpt>
      <trkpt lat="43.662104" lon="-8.053086">
        <ele>8.275</ele>
        <time>2016-09-26T09:47:05Z</time>
      </trkpt>
      <trkpt lat="43.662077" lon="-8.053125">
        <ele>8.287</ele>
        <time>2016-09-26T09:47:06Z</time>
      </trkpt>
      <trkpt lat="43.662050" lon="-8.053166">
        <ele>8.220</ele>
        <time>2016-09-26T09:47:07Z</time>
      </trkpt>
      <trkpt lat="43.662024" lon="-8.053208">
        <ele>8.368</ele>
        <time>2016-09-26T09:47:08Z</time>
      </trkpt>
      <trkpt lat="43.662004" lon="-8.053239">
        <ele>8.441</ele>
        <time>2016-09-26T09:47:09Z</time>
      </trkpt>
      <trkpt lat="43.661966" lon="-8.053287">
        <ele>8.381</ele>
        <time>2016-09-26T09:47:10Z</time>
      </trkpt>
      <trkpt lat="43.661926" lon="-8.053340">
        <ele>8.209</ele>
        <time>2016-09-26T09:47:11Z</time>
      </trkpt>
      <trkpt lat="43.661881" lon="-8.053392">
        <ele>8.208</ele>
        <time>2016-09-26T09:47:12Z</time>
      </trkpt>
      <trkpt lat="43.661832" lon="-8.053445">
        <ele>8.235</ele>
        <time>2016-09-26T09:47:13Z</time>
      </trkpt>
      <trkpt lat="43.661786" lon="-8.053480">
        <ele>8.260</ele>
        <time>2016-09-26T09:47:14Z</time>
      </trkpt>
      <trkpt lat="43.661742" lon="-8.053512">
        <ele>8.298</ele>
        <time>2016-09-26T09:47:15Z</time>
      </trkpt>
      <trkpt lat="43.661698" lon="-8.053538">
        <ele>8.224</ele>
        <time>2016-09-26T09:47:16Z</time>
      </trkpt>
      <trkpt lat="43.661653" lon="-8.053572">
        <ele>8.138</ele>
        <time>2016-09-26T09:47:17Z</time>
      </trkpt>
      <trkpt lat="43.661612" lon="-8.053600">
        <ele>8.280</ele>
        <time>2016-09-26T09:47:18Z</time>
      </trkpt>
      <trkpt lat="43.661574" lon="-8.053633">
        <ele>8.483</ele>
        <time>2016-09-26T09:47:19Z</time>
      </trkpt>
      <trkpt lat="43.661540" lon="-8.053664">
        <ele>8.691</ele>
        <time>2016-09-26T09:47:20Z</time>
      </trkpt>
      <trkpt lat="43.661499" lon="-8.053704">
        <ele>8.638</ele>
        <time>2016-09-26T09:47:21Z</time>
      </trkpt>
      <trkpt lat="43.661463" lon="-8.053739">
        <ele>8.670</ele>
        <time>2016-09-26T09:47:22Z</time>
      </trkpt>
      <trkpt lat="43.661432" lon="-8.053774">
        <ele>8.717</ele>
        <time>2016-09-26T09:47:23Z</time>
      </trkpt>
      <trkpt lat="43.661404" lon="-8.053807">
        <ele>8.808</ele>
        <time>2016-09-26T09:47:24Z</time>
      </trkpt>
      <trkpt lat="43.661379" lon="-8.053833">
        <ele>8.944</ele>
        <time>2016-09-26T09:47:25Z</time>
      </trkpt>
      <trkpt lat="43.661357" lon="-8.053855">
        <ele>8.989</ele>
        <time>2016-09-26T09:47:26Z</time>
      </trkpt>
      <trkpt lat="43.661330" lon="-8.053866">
        <ele>8.847</ele>
        <time>2016-09-26T09:47:27Z</time>
      </trkpt>
      <trkpt lat="43.661299" lon="-8.053874">
        <ele>8.833</ele>
        <time>2016-09-26T09:47:28Z</time>
      </trkpt>
      <trkpt lat="43.661273" lon="-8.053882">
        <ele>8.897</ele>
        <time>2016-09-26T09:47:29Z</time>
      </trkpt>
      <trkpt lat="43.661246" lon="-8.053895">
        <ele>8.849</ele>
        <time>2016-09-26T09:47:30Z</time>
      </trkpt>
      <trkpt lat="43.661228" lon="-8.053896">
        <ele>9.092</ele>
        <time>2016-09-26T09:47:31Z</time>
      </trkpt>
      <trkpt lat="43.661217" lon="-8.053887">
        <ele>8.940</ele>
        <time>2016-09-26T09:47:32Z</time>
      </trkpt>
      <trkpt lat="43.661202" lon="-8.053878">
        <ele>8.853</ele>
        <time>2016-09-26T09:47:33Z</time>
      </trkpt>
      <trkpt lat="43.661179" lon="-8.053876">
        <ele>8.904</ele>
        <time>2016-09-26T09:47:34Z</time>
      </trkpt>
      <trkpt lat="43.661153" lon="-8.053890">
        <ele>8.914</ele>
        <time>2016-09-26T09:47:35Z</time>
      </trkpt>
      <trkpt lat="43.661123" lon="-8.053904">
        <ele>9.008</ele>
        <time>2016-09-26T09:47:36Z</time>
      </trkpt>
      <trkpt lat="43.661082" lon="-8.053920">
        <ele>9.296</ele>
        <time>2016-09-26T09:47:37Z</time>
      </trkpt>
      <trkpt lat="43.661036" lon="-8.053940">
        <ele>9.271</ele>
        <time>2016-09-26T09:47:38Z</time>
      </trkpt>
      <trkpt lat="43.660979" lon="-8.053956">
        <ele>9.369</ele>
        <time>2016-09-26T09:47:39Z</time>
      </trkpt>
      <trkpt lat="43.660928" lon="-8.053945">
        <ele>9.565</ele>
        <time>2016-09-26T09:47:40Z</time>
      </trkpt>
      <trkpt lat="43.660884" lon="-8.053928">
        <ele>9.699</ele>
        <time>2016-09-26T09:47:41Z</time>
      </trkpt>
      <trkpt lat="43.660845" lon="-8.053906">
        <ele>9.671</ele>
        <time>2016-09-26T09:47:42Z</time>
      </trkpt>
      <trkpt lat="43.660814" lon="-8.053887">
        <ele>9.444</ele>
        <time>2016-09-26T09:47:43Z</time>
      </trkpt>
      <trkpt lat="43.660789" lon="-8.053876">
        <ele>9.382</ele>
        <time>2016-09-26T09:47:44Z</time>
      </trkpt>
      <trkpt lat="43.660762" lon="-8.053871">
        <ele>9.379</ele>
        <time>2016-09-26T09:47:45Z</time>
      </trkpt>
      <trkpt lat="43.660733" lon="-8.053871">
        <ele>9.405</ele>
        <time>2016-09-26T09:47:46Z</time>
      </trkpt>
      <trkpt lat="43.660701" lon="-8.053871">
        <ele>9.425</ele>
        <time>2016-09-26T09:47:47Z</time>
      </trkpt>
      <trkpt lat="43.660675" lon="-8.053870">
        <ele>9.408</ele>
        <time>2016-09-26T09:47:48Z</time>
      </trkpt>
      <trkpt lat="43.660652" lon="-8.053863">
        <ele>9.688</ele>
        <time>2016-09-26T09:47:49Z</time>
      </trkpt>
      <trkpt lat="43.660629" lon="-8.053857">
        <ele>9.623</ele>
        <time>2016-09-26T09:47:50Z</time>
      </trkpt>
      <trkpt lat="43.660604" lon="-8.053856">
        <ele>9.611</ele>
        <time>2016-09-26T09:47:51Z</time>
      </trkpt>
      <trkpt lat="43.660577" lon="-8.053856">
        <ele>9.797</ele>
        <time>2016-09-26T09:47:52Z</time>
      </trkpt>
      <trkpt lat="43.660551" lon="-8.053841">
        <ele>9.631</ele>
        <time>2016-09-26T09:47:53Z</time>
      </trkpt>
      <trkpt lat="43.660528" lon="-8.053818">
        <ele>9.713</ele>
        <time>2016-09-26T09:47:54Z</time>
      </trkpt>
      <trkpt lat="43.660502" lon="-8.053796">
        <ele>9.776</ele>
        <time>2016-09-26T09:47:55Z</time>
      </trkpt>
      <trkpt lat="43.660472" lon="-8.053781">
        <ele>9.864</ele>
        <time>2016-09-26T09:47:56Z</time>
      </trkpt>
      <trkpt lat="43.660439" lon="-8.053764">
        <ele>9.975</ele>
        <time>2016-09-26T09:47:57Z</time>
      </trkpt>
      <trkpt lat="43.660421" lon="-8.053705">
        <ele>9.828</ele>
        <time>2016-09-26T09:47:58Z</time>
      </trkpt>
      <trkpt lat="43.660390" lon="-8.053682">
        <ele>9.620</ele>
        <time>2016-09-26T09:47:59Z</time>
      </trkpt>
      <trkpt lat="43.660364" lon="-8.053647">
        <ele>9.508</ele>
        <time>2016-09-26T09:48:00Z</time>
      </trkpt>
      <trkpt lat="43.660342" lon="-8.053601">
        <ele>9.598</ele>
        <time>2016-09-26T09:48:01Z</time>
      </trkpt>
      <trkpt lat="43.660317" lon="-8.053560">
        <ele>9.523</ele>
        <time>2016-09-26T09:48:02Z</time>
      </trkpt>
      <trkpt lat="43.660292" lon="-8.053526">
        <ele>9.551</ele>
        <time>2016-09-26T09:48:03Z</time>
      </trkpt>
      <trkpt lat="43.660269" lon="-8.053490">
        <ele>9.357</ele>
        <time>2016-09-26T09:48:04Z</time>
      </trkpt>
      <trkpt lat="43.660242" lon="-8.053455">
        <ele>9.291</ele>
        <time>2016-09-26T09:48:05Z</time>
      </trkpt>
      <trkpt lat="43.660212" lon="-8.053423">
        <ele>9.163</ele>
        <time>2016-09-26T09:48:06Z</time>
      </trkpt>
      <trkpt lat="43.660183" lon="-8.053391">
        <ele>9.396</ele>
        <time>2016-09-26T09:48:07Z</time>
      </trkpt>
      <trkpt lat="43.660152" lon="-8.053363">
        <ele>9.334</ele>
        <time>2016-09-26T09:48:08Z</time>
      </trkpt>
      <trkpt lat="43.660123" lon="-8.053332">
        <ele>9.342</ele>
        <time>2016-09-26T09:48:09Z</time>
      </trkpt>
      <trkpt lat="43.660096" lon="-8.053309">
        <ele>9.422</ele>
        <time>2016-09-26T09:48:10Z</time>
      </trkpt>
      <trkpt lat="43.660071" lon="-8.053275">
        <ele>9.614</ele>
        <time>2016-09-26T09:48:11Z</time>
      </trkpt>
      <trkpt lat="43.660050" lon="-8.053231">
        <ele>9.308</ele>
        <time>2016-09-26T09:48:12Z</time>
      </trkpt>
      <trkpt lat="43.660027" lon="-8.053188">
        <ele>9.225</ele>
        <time>2016-09-26T09:48:13Z</time>
      </trkpt>
      <trkpt lat="43.660000" lon="-8.053149">
        <ele>9.430</ele>
        <time>2016-09-26T09:48:14Z</time>
      </trkpt>
      <trkpt lat="43.659975" lon="-8.053106">
        <ele>9.348</ele>
        <time>2016-09-26T09:48:15Z</time>
      </trkpt>
      <trkpt lat="43.659948" lon="-8.053067">
        <ele>9.334</ele>
        <time>2016-09-26T09:48:16Z</time>
      </trkpt>
      <trkpt lat="43.659924" lon="-8.053026">
        <ele>9.568</ele>
        <time>2016-09-26T09:48:17Z</time>
      </trkpt>
      <trkpt lat="43.659896" lon="-8.052989">
        <ele>9.660</ele>
        <time>2016-09-26T09:48:18Z</time>
      </trkpt>
      <trkpt lat="43.659867" lon="-8.052949">
        <ele>9.563</ele>
        <time>2016-09-26T09:48:19Z</time>
      </trkpt>
      <trkpt lat="43.659836" lon="-8.052910">
        <ele>9.531</ele>
        <time>2016-09-26T09:48:20Z</time>
      </trkpt>
      <trkpt lat="43.659804" lon="-8.052875">
        <ele>9.413</ele>
        <time>2016-09-26T09:48:21Z</time>
      </trkpt>
      <trkpt lat="43.659773" lon="-8.052841">
        <ele>9.243</ele>
        <time>2016-09-26T09:48:22Z</time>
      </trkpt>
      <trkpt lat="43.659745" lon="-8.052806">
        <ele>9.207</ele>
        <time>2016-09-26T09:48:23Z</time>
      </trkpt>
      <trkpt lat="43.659718" lon="-8.052775">
        <ele>9.408</ele>
        <time>2016-09-26T09:48:24Z</time>
      </trkpt>
      <trkpt lat="43.659694" lon="-8.052741">
        <ele>9.442</ele>
        <time>2016-09-26T09:48:25Z</time>
      </trkpt>
      <trkpt lat="43.659667" lon="-8.052709">
        <ele>9.387</ele>
        <time>2016-09-26T09:48:26Z</time>
      </trkpt>
      <trkpt lat="43.659638" lon="-8.052683">
        <ele>9.485</ele>
        <time>2016-09-26T09:48:27Z</time>
      </trkpt>
      <trkpt lat="43.659605" lon="-8.052663">
        <ele>9.381</ele>
        <time>2016-09-26T09:48:28Z</time>
      </trkpt>
      <trkpt lat="43.659568" lon="-8.052647">
        <ele>9.565</ele>
        <time>2016-09-26T09:48:29Z</time>
      </trkpt>
      <trkpt lat="43.659530" lon="-8.052633">
        <ele>9.597</ele>
        <time>2016-09-26T09:48:30Z</time>
      </trkpt>
      <trkpt lat="43.659499" lon="-8.052610">
        <ele>9.550</ele>
        <time>2016-09-26T09:48:31Z</time>
      </trkpt>
      <trkpt lat="43.659479" lon="-8.052570">
        <ele>9.368</ele>
        <time>2016-09-26T09:48:32Z</time>
      </trkpt>
      <trkpt lat="43.659463" lon="-8.052539">
        <ele>9.188</ele>
        <time>2016-09-26T09:48:33Z</time>
      </trkpt>
      <trkpt lat="43.659450" lon="-8.052516">
        <ele>9.024</ele>
        <time>2016-09-26T09:48:34Z</time>
      </trkpt>
      <trkpt lat="43.659441" lon="-8.052503">
        <ele>8.926</ele>
        <time>2016-09-26T09:48:35Z</time>
      </trkpt>
      <trkpt lat="43.659435" lon="-8.052497">
        <ele>8.808</ele>
        <time>2016-09-26T09:48:36Z</time>
      </trkpt>
      <trkpt lat="43.659432" lon="-8.052495">
        <ele>8.999</ele>
        <time>2016-09-26T09:48:37Z</time>
      </trkpt>
      <trkpt lat="43.659429" lon="-8.052493">
        <ele>8.974</ele>
        <time>2016-09-26T09:48:38Z</time>
      </trkpt>
      <trkpt lat="43.659431" lon="-8.052494">
        <ele>9.032</ele>
        <time>2016-09-26T09:48:39Z</time>
      </trkpt>
      <trkpt lat="43.659431" lon="-8.052494">
        <ele>9.068</ele>
        <time>2016-09-26T09:48:39Z</time>
      </trkpt>
      <trkpt lat="43.659431" lon="-8.052494">
        <ele>9.012</ele>
        <time>2016-09-26T09:48:39Z</time>
      </trkpt>
      <trkpt lat="43.659415" lon="-8.052415">
        <ele>9.024</ele>
        <time>2016-09-26T09:53:23Z</time>
      </trkpt>
      <trkpt lat="43.659413" lon="-8.052416">
        <ele>9.047</ele>
        <time>2016-09-26T09:53:24Z</time>
      </trkpt>
      <trkpt lat="43.659413" lon="-8.052416">
        <ele>9.025</ele>
        <time>2016-09-26T09:53:24Z</time>
      </trkpt>
      <trkpt lat="43.659413" lon="-8.052416">
        <ele>9.076</ele>
        <time>2016-09-26T09:53:24Z</time>
      </trkpt>
      <trkpt lat="43.659382" lon="-8.052406">
        <ele>8.890</ele>
        <time>2016-09-26T09:53:35Z</time>
      </trkpt>
      <trkpt lat="43.659381" lon="-8.052390">
        <ele>8.919</ele>
        <time>2016-09-26T09:53:36Z</time>
      </trkpt>
      <trkpt lat="43.659380" lon="-8.052379">
        <ele>8.908</ele>
        <time>2016-09-26T09:53:37Z</time>
      </trkpt>
      <trkpt lat="43.659377" lon="-8.052368">
        <ele>8.818</ele>
        <time>2016-09-26T09:53:38Z</time>
      </trkpt>
      <trkpt lat="43.659372" lon="-8.052355">
        <ele>8.863</ele>
        <time>2016-09-26T09:53:39Z</time>
      </trkpt>
      <trkpt lat="43.659363" lon="-8.052346">
        <ele>8.971</ele>
        <time>2016-09-26T09:53:40Z</time>
      </trkpt>
      <trkpt lat="43.659353" lon="-8.052337">
        <ele>8.837</ele>
        <time>2016-09-26T09:53:41Z</time>
      </trkpt>
      <trkpt lat="43.659342" lon="-8.052326">
        <ele>8.831</ele>
        <time>2016-09-26T09:53:42Z</time>
      </trkpt>
      <trkpt lat="43.659332" lon="-8.052315">
        <ele>8.863</ele>
        <time>2016-09-26T09:53:43Z</time>
      </trkpt>
      <trkpt lat="43.659324" lon="-8.052302">
        <ele>8.826</ele>
        <time>2016-09-26T09:53:44Z</time>
      </trkpt>
      <trkpt lat="43.659314" lon="-8.052289">
        <ele>8.774</ele>
        <time>2016-09-26T09:53:45Z</time>
      </trkpt>
      <trkpt lat="43.659304" lon="-8.052280">
        <ele>8.797</ele>
        <time>2016-09-26T09:53:46Z</time>
      </trkpt>
      <trkpt lat="43.659297" lon="-8.052270">
        <ele>8.923</ele>
        <time>2016-09-26T09:53:47Z</time>
      </trkpt>
      <trkpt lat="43.659289" lon="-8.052263">
        <ele>8.925</ele>
        <time>2016-09-26T09:53:48Z</time>
      </trkpt>
      <trkpt lat="43.659281" lon="-8.052257">
        <ele>8.808</ele>
        <time>2016-09-26T09:53:49Z</time>
      </trkpt>
      <trkpt lat="43.659276" lon="-8.052245">
        <ele>8.980</ele>
        <time>2016-09-26T09:53:50Z</time>
      </trkpt>
      <trkpt lat="43.659269" lon="-8.052233">
        <ele>8.985</ele>
        <time>2016-09-26T09:53:51Z</time>
      </trkpt>
      <trkpt lat="43.659258" lon="-8.052225">
        <ele>9.073</ele>
        <time>2016-09-26T09:53:52Z</time>
      </trkpt>
      <trkpt lat="43.659250" lon="-8.052214">
        <ele>8.949</ele>
        <time>2016-09-26T09:53:53Z</time>
      </trkpt>
      <trkpt lat="43.659242" lon="-8.052202">
        <ele>9.063</ele>
        <time>2016-09-26T09:53:54Z</time>
      </trkpt>
      <trkpt lat="43.659236" lon="-8.052191">
        <ele>9.045</ele>
        <time>2016-09-26T09:53:55Z</time>
      </trkpt>
      <trkpt lat="43.659230" lon="-8.052181">
        <ele>9.218</ele>
        <time>2016-09-26T09:53:56Z</time>
      </trkpt>
      <trkpt lat="43.659226" lon="-8.052166">
        <ele>9.196</ele>
        <time>2016-09-26T09:53:57Z</time>
      </trkpt>
      <trkpt lat="43.659219" lon="-8.052154">
        <ele>9.456</ele>
        <time>2016-09-26T09:53:58Z</time>
      </trkpt>
      <trkpt lat="43.659212" lon="-8.052142">
        <ele>9.359</ele>
        <time>2016-09-26T09:53:59Z</time>
      </trkpt>
      <trkpt lat="43.659203" lon="-8.052129">
        <ele>9.214</ele>
        <time>2016-09-26T09:54:00Z</time>
      </trkpt>
      <trkpt lat="43.659194" lon="-8.052118">
        <ele>9.108</ele>
        <time>2016-09-26T09:54:01Z</time>
      </trkpt>
      <trkpt lat="43.659185" lon="-8.052107">
        <ele>9.226</ele>
        <time>2016-09-26T09:54:02Z</time>
      </trkpt>
      <trkpt lat="43.659178" lon="-8.052097">
        <ele>9.361</ele>
        <time>2016-09-26T09:54:03Z</time>
      </trkpt>
      <trkpt lat="43.659167" lon="-8.052089">
        <ele>9.359</ele>
        <time>2016-09-26T09:54:04Z</time>
      </trkpt>
      <trkpt lat="43.659154" lon="-8.052078">
        <ele>9.235</ele>
        <time>2016-09-26T09:54:05Z</time>
      </trkpt>
      <trkpt lat="43.659144" lon="-8.052068">
        <ele>9.239</ele>
        <time>2016-09-26T09:54:06Z</time>
      </trkpt>
      <trkpt lat="43.659131" lon="-8.052061">
        <ele>9.311</ele>
        <time>2016-09-26T09:54:07Z</time>
      </trkpt>
      <trkpt lat="43.659121" lon="-8.052051">
        <ele>9.484</ele>
        <time>2016-09-26T09:54:08Z</time>
      </trkpt>
      <trkpt lat="43.659112" lon="-8.052040">
        <ele>9.542</ele>
        <time>2016-09-26T09:54:09Z</time>
      </trkpt>
      <trkpt lat="43.659103" lon="-8.052031">
        <ele>9.683</ele>
        <time>2016-09-26T09:54:10Z</time>
      </trkpt>
      <trkpt lat="43.659095" lon="-8.052024">
        <ele>9.825</ele>
        <time>2016-09-26T09:54:11Z</time>
      </trkpt>
      <trkpt lat="43.659094" lon="-8.052020">
        <ele>9.817</ele>
        <time>2016-09-26T09:54:12Z</time>
      </trkpt>
      <trkpt lat="43.659088" lon="-8.052022">
        <ele>9.808</ele>
        <time>2016-09-26T09:54:13Z</time>
      </trkpt>
      <trkpt lat="43.659079" lon="-8.052013">
        <ele>9.899</ele>
        <time>2016-09-26T09:54:14Z</time>
      </trkpt>
      <trkpt lat="43.659067" lon="-8.052009">
        <ele>9.684</ele>
        <time>2016-09-26T09:54:15Z</time>
      </trkpt>
      <trkpt lat="43.659057" lon="-8.052002">
        <ele>9.442</ele>
        <time>2016-09-26T09:54:16Z</time>
      </trkpt>
      <trkpt lat="43.659046" lon="-8.051995">
        <ele>9.638</ele>
        <time>2016-09-26T09:54:17Z</time>
      </trkpt>
      <trkpt lat="43.659028" lon="-8.051995">
        <ele>9.512</ele>
        <time>2016-09-26T09:54:18Z</time>
      </trkpt>
      <trkpt lat="43.659016" lon="-8.051987">
        <ele>9.414</ele>
        <time>2016-09-26T09:54:19Z</time>
      </trkpt>
      <trkpt lat="43.659010" lon="-8.051975">
        <ele>9.367</ele>
        <time>2016-09-26T09:54:20Z</time>
      </trkpt>
      <trkpt lat="43.659000" lon="-8.051965">
        <ele>9.215</ele>
        <time>2016-09-26T09:54:21Z</time>
      </trkpt>
      <trkpt lat="43.658997" lon="-8.051947">
        <ele>9.282</ele>
        <time>2016-09-26T09:54:22Z</time>
      </trkpt>
      <trkpt lat="43.658994" lon="-8.051934">
        <ele>9.343</ele>
        <time>2016-09-26T09:54:23Z</time>
      </trkpt>
      <trkpt lat="43.658990" lon="-8.051922">
        <ele>9.517</ele>
        <time>2016-09-26T09:54:24Z</time>
      </trkpt>
      <trkpt lat="43.658978" lon="-8.051914">
        <ele>9.408</ele>
        <time>2016-09-26T09:54:25Z</time>
      </trkpt>
      <trkpt lat="43.658972" lon="-8.051903">
        <ele>9.449</ele>
        <time>2016-09-26T09:54:26Z</time>
      </trkpt>
      <trkpt lat="43.658956" lon="-8.051899">
        <ele>9.424</ele>
        <time>2016-09-26T09:54:27Z</time>
      </trkpt>
      <trkpt lat="43.658944" lon="-8.051893">
        <ele>9.622</ele>
        <time>2016-09-26T09:54:28Z</time>
      </trkpt>
      <trkpt lat="43.658932" lon="-8.051885">
        <ele>9.568</ele>
        <time>2016-09-26T09:54:29Z</time>
      </trkpt>
      <trkpt lat="43.658921" lon="-8.051876">
        <ele>9.652</ele>
        <time>2016-09-26T09:54:30Z</time>
      </trkpt>
      <trkpt lat="43.658910" lon="-8.051869">
        <ele>9.544</ele>
        <time>2016-09-26T09:54:31Z</time>
      </trkpt>
      <trkpt lat="43.658903" lon="-8.051858">
        <ele>9.527</ele>
        <time>2016-09-26T09:54:32Z</time>
      </trkpt>
      <trkpt lat="43.658902" lon="-8.051838">
        <ele>9.445</ele>
        <time>2016-09-26T09:54:33Z</time>
      </trkpt>
      <trkpt lat="43.658892" lon="-8.051824">
        <ele>9.653</ele>
        <time>2016-09-26T09:54:34Z</time>
      </trkpt>
      <trkpt lat="43.658887" lon="-8.051814">
        <ele>9.404</ele>
        <time>2016-09-26T09:54:35Z</time>
      </trkpt>
      <trkpt lat="43.658888" lon="-8.051786">
        <ele>9.514</ele>
        <time>2016-09-26T09:54:36Z</time>
      </trkpt>
      <trkpt lat="43.658885" lon="-8.051773">
        <ele>9.508</ele>
        <time>2016-09-26T09:54:37Z</time>
      </trkpt>
      <trkpt lat="43.658877" lon="-8.051762">
        <ele>9.566</ele>
        <time>2016-09-26T09:54:38Z</time>
      </trkpt>
      <trkpt lat="43.658869" lon="-8.051754">
        <ele>9.521</ele>
        <time>2016-09-26T09:54:39Z</time>
      </trkpt>
      <trkpt lat="43.658854" lon="-8.051745">
        <ele>9.399</ele>
        <time>2016-09-26T09:54:40Z</time>
      </trkpt>
      <trkpt lat="43.658841" lon="-8.051739">
        <ele>9.455</ele>
        <time>2016-09-26T09:54:41Z</time>
      </trkpt>
      <trkpt lat="43.658833" lon="-8.051729">
        <ele>9.589</ele>
        <time>2016-09-26T09:54:42Z</time>
      </trkpt>
      <trkpt lat="43.658825" lon="-8.051727">
        <ele>9.461</ele>
        <time>2016-09-26T09:54:43Z</time>
      </trkpt>
      <trkpt lat="43.658819" lon="-8.051722">
        <ele>9.354</ele>
        <time>2016-09-26T09:54:44Z</time>
      </trkpt>
      <trkpt lat="43.658812" lon="-8.051715">
        <ele>9.322</ele>
        <time>2016-09-26T09:54:45Z</time>
      </trkpt>
      <trkpt lat="43.658807" lon="-8.051708">
        <ele>9.356</ele>
        <time>2016-09-26T09:54:46Z</time>
      </trkpt>
      <trkpt lat="43.658798" lon="-8.051703">
        <ele>9.459</ele>
        <time>2016-09-26T09:54:47Z</time>
      </trkpt>
      <trkpt lat="43.658787" lon="-8.051701">
        <ele>9.414</ele>
        <time>2016-09-26T09:54:48Z</time>
      </trkpt>
      <trkpt lat="43.658782" lon="-8.051694">
        <ele>9.708</ele>
        <time>2016-09-26T09:54:49Z</time>
      </trkpt>
      <trkpt lat="43.658770" lon="-8.051688">
        <ele>9.986</ele>
        <time>2016-09-26T09:54:50Z</time>
      </trkpt>
      <trkpt lat="43.658759" lon="-8.051680">
        <ele>9.731</ele>
        <time>2016-09-26T09:54:51Z</time>
      </trkpt>
      <trkpt lat="43.658754" lon="-8.051667">
        <ele>9.569</ele>
        <time>2016-09-26T09:54:52Z</time>
      </trkpt>
      <trkpt lat="43.658742" lon="-8.051655">
        <ele>9.565</ele>
        <time>2016-09-26T09:54:53Z</time>
      </trkpt>
      <trkpt lat="43.658740" lon="-8.051639">
        <ele>9.519</ele>
        <time>2016-09-26T09:54:54Z</time>
      </trkpt>
      <trkpt lat="43.658732" lon="-8.051621">
        <ele>9.641</ele>
        <time>2016-09-26T09:54:55Z</time>
      </trkpt>
      <trkpt lat="43.658726" lon="-8.051606">
        <ele>9.584</ele>
        <time>2016-09-26T09:54:56Z</time>
      </trkpt>
      <trkpt lat="43.658722" lon="-8.051592">
        <ele>9.422</ele>
        <time>2016-09-26T09:54:57Z</time>
      </trkpt>
      <trkpt lat="43.658716" lon="-8.051583">
        <ele>9.596</ele>
        <time>2016-09-26T09:54:58Z</time>
      </trkpt>
      <trkpt lat="43.658707" lon="-8.051575">
        <ele>9.531</ele>
        <time>2016-09-26T09:54:59Z</time>
      </trkpt>
      <trkpt lat="43.658699" lon="-8.051566">
        <ele>9.624</ele>
        <time>2016-09-26T09:55:00Z</time>
      </trkpt>
      <trkpt lat="43.658689" lon="-8.051556">
        <ele>9.708</ele>
        <time>2016-09-26T09:55:01Z</time>
      </trkpt>
      <trkpt lat="43.658686" lon="-8.051545">
        <ele>9.670</ele>
        <time>2016-09-26T09:55:02Z</time>
      </trkpt>
      <trkpt lat="43.658681" lon="-8.051538">
        <ele>9.695</ele>
        <time>2016-09-26T09:55:03Z</time>
      </trkpt>
      <trkpt lat="43.658672" lon="-8.051531">
        <ele>9.633</ele>
        <time>2016-09-26T09:55:04Z</time>
      </trkpt>
      <trkpt lat="43.658665" lon="-8.051523">
        <ele>9.629</ele>
        <time>2016-09-26T09:55:05Z</time>
      </trkpt>
      <trkpt lat="43.658657" lon="-8.051518">
        <ele>9.773</ele>
        <time>2016-09-26T09:55:06Z</time>
      </trkpt>
      <trkpt lat="43.658655" lon="-8.051510">
        <ele>9.795</ele>
        <time>2016-09-26T09:55:07Z</time>
      </trkpt>
      <trkpt lat="43.658649" lon="-8.051503">
        <ele>9.718</ele>
        <time>2016-09-26T09:55:08Z</time>
      </trkpt>
      <trkpt lat="43.658640" lon="-8.051496">
        <ele>9.726</ele>
        <time>2016-09-26T09:55:09Z</time>
      </trkpt>
      <trkpt lat="43.658634" lon="-8.051486">
        <ele>9.728</ele>
        <time>2016-09-26T09:55:10Z</time>
      </trkpt>
      <trkpt lat="43.658632" lon="-8.051480">
        <ele>9.889</ele>
        <time>2016-09-26T09:55:11Z</time>
      </trkpt>
      <trkpt lat="43.658629" lon="-8.051477">
        <ele>9.817</ele>
        <time>2016-09-26T09:55:12Z</time>
      </trkpt>
      <trkpt lat="43.658630" lon="-8.051469">
        <ele>9.908</ele>
        <time>2016-09-26T09:55:13Z</time>
      </trkpt>
      <trkpt lat="43.658628" lon="-8.051466">
        <ele>9.853</ele>
        <time>2016-09-26T09:55:14Z</time>
      </trkpt>
      <trkpt lat="43.658622" lon="-8.051464">
        <ele>9.868</ele>
        <time>2016-09-26T09:55:15Z</time>
      </trkpt>
      <trkpt lat="43.658621" lon="-8.051459">
        <ele>9.816</ele>
        <time>2016-09-26T09:55:16Z</time>
      </trkpt>
      <trkpt lat="43.658621" lon="-8.051459">
        <ele>9.822</ele>
        <time>2016-09-26T09:55:16Z</time>
      </trkpt>
      <trkpt lat="43.658621" lon="-8.051459">
        <ele>9.886</ele>
        <time>2016-09-26T09:55:16Z</time>
      </trkpt>
      <trkpt lat="43.658613" lon="-8.051432">
        <ele>9.968</ele>
        <time>2016-09-26T09:55:19Z</time>
      </trkpt>
      <trkpt lat="43.658610" lon="-8.051429">
        <ele>9.961</ele>
        <time>2016-09-26T09:55:20Z</time>
      </trkpt>
      <trkpt lat="43.658609" lon="-8.051423">
        <ele>9.839</ele>
        <time>2016-09-26T09:55:21Z</time>
      </trkpt>
      <trkpt lat="43.658606" lon="-8.051418">
        <ele>9.878</ele>
        <time>2016-09-26T09:55:22Z</time>
      </trkpt>
      <trkpt lat="43.658606" lon="-8.051418">
        <ele>9.833</ele>
        <time>2016-09-26T09:55:22Z</time>
      </trkpt>
      <trkpt lat="43.658606" lon="-8.051418">
        <ele>9.826</ele>
        <time>2016-09-26T09:55:22Z</time>
      </trkpt>
      <trkpt lat="43.658510" lon="-8.051306">
        <ele>9.608</ele>
        <time>2016-09-26T09:55:39Z</time>
      </trkpt>
      <trkpt lat="43.658498" lon="-8.051301">
        <ele>9.518</ele>
        <time>2016-09-26T09:55:40Z</time>
      </trkpt>
      <trkpt lat="43.658492" lon="-8.051289">
        <ele>9.793</ele>
        <time>2016-09-26T09:55:41Z</time>
      </trkpt>
      <trkpt lat="43.658479" lon="-8.051280">
        <ele>9.681</ele>
        <time>2016-09-26T09:55:42Z</time>
      </trkpt>
      <trkpt lat="43.658468" lon="-8.051267">
        <ele>9.677</ele>
        <time>2016-09-26T09:55:43Z</time>
      </trkpt>
      <trkpt lat="43.658447" lon="-8.051265">
        <ele>9.681</ele>
        <time>2016-09-26T09:55:44Z</time>
      </trkpt>
      <trkpt lat="43.658429" lon="-8.051262">
        <ele>9.763</ele>
        <time>2016-09-26T09:55:45Z</time>
      </trkpt>
      <trkpt lat="43.658415" lon="-8.051256">
        <ele>9.636</ele>
        <time>2016-09-26T09:55:46Z</time>
      </trkpt>
      <trkpt lat="43.658403" lon="-8.051244">
        <ele>9.684</ele>
        <time>2016-09-26T09:55:47Z</time>
      </trkpt>
      <trkpt lat="43.658392" lon="-8.051232">
        <ele>9.733</ele>
        <time>2016-09-26T09:55:48Z</time>
      </trkpt>
      <trkpt lat="43.658382" lon="-8.051222">
        <ele>9.723</ele>
        <time>2016-09-26T09:55:49Z</time>
      </trkpt>
      <trkpt lat="43.658374" lon="-8.051214">
        <ele>9.715</ele>
        <time>2016-09-26T09:55:50Z</time>
      </trkpt>
      <trkpt lat="43.658367" lon="-8.051206">
        <ele>10.008</ele>
        <time>2016-09-26T09:55:51Z</time>
      </trkpt>
      <trkpt lat="43.658359" lon="-8.051198">
        <ele>10.094</ele>
        <time>2016-09-26T09:55:52Z</time>
      </trkpt>
      <trkpt lat="43.658352" lon="-8.051193">
        <ele>10.059</ele>
        <time>2016-09-26T09:55:53Z</time>
      </trkpt>
      <trkpt lat="43.658349" lon="-8.051186">
        <ele>10.067</ele>
        <time>2016-09-26T09:55:54Z</time>
      </trkpt>
      <trkpt lat="43.658343" lon="-8.051180">
        <ele>9.843</ele>
        <time>2016-09-26T09:55:55Z</time>
      </trkpt>
      <trkpt lat="43.658335" lon="-8.051174">
        <ele>9.897</ele>
        <time>2016-09-26T09:55:56Z</time>
      </trkpt>
      <trkpt lat="43.658330" lon="-8.051163">
        <ele>9.889</ele>
        <time>2016-09-26T09:55:57Z</time>
      </trkpt>
      <trkpt lat="43.658326" lon="-8.051154">
        <ele>9.842</ele>
        <time>2016-09-26T09:55:58Z</time>
      </trkpt>
      <trkpt lat="43.658320" lon="-8.051144">
        <ele>9.840</ele>
        <time>2016-09-26T09:55:59Z</time>
      </trkpt>
      <trkpt lat="43.658314" lon="-8.051138">
        <ele>9.616</ele>
        <time>2016-09-26T09:56:00Z</time>
      </trkpt>
      <trkpt lat="43.658308" lon="-8.051127">
        <ele>9.776</ele>
        <time>2016-09-26T09:56:01Z</time>
      </trkpt>
      <trkpt lat="43.658304" lon="-8.051115">
        <ele>9.713</ele>
        <time>2016-09-26T09:56:02Z</time>
      </trkpt>
      <trkpt lat="43.658300" lon="-8.051091">
        <ele>9.708</ele>
        <time>2016-09-26T09:56:03Z</time>
      </trkpt>
      <trkpt lat="43.658297" lon="-8.051074">
        <ele>9.742</ele>
        <time>2016-09-26T09:56:04Z</time>
      </trkpt>
      <trkpt lat="43.658300" lon="-8.051067">
        <ele>9.767</ele>
        <time>2016-09-26T09:56:05Z</time>
      </trkpt>
      <trkpt lat="43.658303" lon="-8.051069">
        <ele>9.795</ele>
        <time>2016-09-26T09:56:06Z</time>
      </trkpt>
      <trkpt lat="43.658300" lon="-8.051073">
        <ele>9.811</ele>
        <time>2016-09-26T09:56:07Z</time>
      </trkpt>
      <trkpt lat="43.658300" lon="-8.051073">
        <ele>9.795</ele>
        <time>2016-09-26T09:56:08Z</time>
      </trkpt>
      <trkpt lat="43.658300" lon="-8.051073">
        <ele>9.777</ele>
        <time>2016-09-26T09:56:08Z</time>
      </trkpt>
      <trkpt lat="43.658300" lon="-8.051073">
        <ele>9.740</ele>
        <time>2016-09-26T09:56:08Z</time>
      </trkpt>
      <trkpt lat="43.658344" lon="-8.051033">
        <ele>10.098</ele>
        <time>2016-09-26T09:58:02Z</time>
      </trkpt>
      <trkpt lat="43.658351" lon="-8.051041">
        <ele>10.029</ele>
        <time>2016-09-26T09:58:03Z</time>
      </trkpt>
      <trkpt lat="43.658360" lon="-8.051051">
        <ele>10.100</ele>
        <time>2016-09-26T09:58:04Z</time>
      </trkpt>
      <trkpt lat="43.658368" lon="-8.051063">
        <ele>10.120</ele>
        <time>2016-09-26T09:58:05Z</time>
      </trkpt>
      <trkpt lat="43.658380" lon="-8.051075">
        <ele>10.008</ele>
        <time>2016-09-26T09:58:06Z</time>
      </trkpt>
      <trkpt lat="43.658391" lon="-8.051083">
        <ele>10.013</ele>
        <time>2016-09-26T09:58:07Z</time>
      </trkpt>
      <trkpt lat="43.658403" lon="-8.051091">
        <ele>9.838</ele>
        <time>2016-09-26T09:58:08Z</time>
      </trkpt>
      <trkpt lat="43.658415" lon="-8.051104">
        <ele>9.796</ele>
        <time>2016-09-26T09:58:09Z</time>
      </trkpt>
      <trkpt lat="43.658424" lon="-8.051122">
        <ele>9.932</ele>
        <time>2016-09-26T09:58:10Z</time>
      </trkpt>
      <trkpt lat="43.658433" lon="-8.051133">
        <ele>10.096</ele>
        <time>2016-09-26T09:58:11Z</time>
      </trkpt>
      <trkpt lat="43.658443" lon="-8.051139">
        <ele>10.048</ele>
        <time>2016-09-26T09:58:12Z</time>
      </trkpt>
      <trkpt lat="43.658454" lon="-8.051149">
        <ele>9.911</ele>
        <time>2016-09-26T09:58:13Z</time>
      </trkpt>
      <trkpt lat="43.658465" lon="-8.051162">
        <ele>10.249</ele>
        <time>2016-09-26T09:58:14Z</time>
      </trkpt>
      <trkpt lat="43.658473" lon="-8.051175">
        <ele>10.196</ele>
        <time>2016-09-26T09:58:15Z</time>
      </trkpt>
      <trkpt lat="43.658482" lon="-8.051188">
        <ele>10.131</ele>
        <time>2016-09-26T09:58:16Z</time>
      </trkpt>
      <trkpt lat="43.658493" lon="-8.051199">
        <ele>10.124</ele>
        <time>2016-09-26T09:58:17Z</time>
      </trkpt>
      <trkpt lat="43.658501" lon="-8.051211">
        <ele>10.008</ele>
        <time>2016-09-26T09:58:18Z</time>
      </trkpt>
      <trkpt lat="43.658506" lon="-8.051222">
        <ele>10.030</ele>
        <time>2016-09-26T09:58:19Z</time>
      </trkpt>
      <trkpt lat="43.658510" lon="-8.051233">
        <ele>9.935</ele>
        <time>2016-09-26T09:58:20Z</time>
      </trkpt>
      <trkpt lat="43.658517" lon="-8.051243">
        <ele>9.943</ele>
        <time>2016-09-26T09:58:21Z</time>
      </trkpt>
      <trkpt lat="43.658526" lon="-8.051247">
        <ele>9.899</ele>
        <time>2016-09-26T09:58:22Z</time>
      </trkpt>
      <trkpt lat="43.658526" lon="-8.051259">
        <ele>9.773</ele>
        <time>2016-09-26T09:58:23Z</time>
      </trkpt>
      <trkpt lat="43.658530" lon="-8.051268">
        <ele>9.895</ele>
        <time>2016-09-26T09:58:24Z</time>
      </trkpt>
      <trkpt lat="43.658535" lon="-8.051279">
        <ele>9.628</ele>
        <time>2016-09-26T09:58:25Z</time>
      </trkpt>
      <trkpt lat="43.658536" lon="-8.051291">
        <ele>9.826</ele>
        <time>2016-09-26T09:58:26Z</time>
      </trkpt>
      <trkpt lat="43.658548" lon="-8.051304">
        <ele>9.947</ele>
        <time>2016-09-26T09:58:27Z</time>
      </trkpt>
      <trkpt lat="43.658556" lon="-8.051312">
        <ele>10.029</ele>
        <time>2016-09-26T09:58:28Z</time>
      </trkpt>
      <trkpt lat="43.658564" lon="-8.051322">
        <ele>10.021</ele>
        <time>2016-09-26T09:58:29Z</time>
      </trkpt>
      <trkpt lat="43.658579" lon="-8.051320">
        <ele>10.008</ele>
        <time>2016-09-26T09:58:30Z</time>
      </trkpt>
      <trkpt lat="43.658590" lon="-8.051326">
        <ele>10.055</ele>
        <time>2016-09-26T09:58:31Z</time>
      </trkpt>
      <trkpt lat="43.658597" lon="-8.051330">
        <ele>9.910</ele>
        <time>2016-09-26T09:58:32Z</time>
      </trkpt>
      <trkpt lat="43.658606" lon="-8.051330">
        <ele>10.168</ele>
        <time>2016-09-26T09:58:33Z</time>
      </trkpt>
      <trkpt lat="43.658613" lon="-8.051327">
        <ele>10.184</ele>
        <time>2016-09-26T09:58:34Z</time>
      </trkpt>
      <trkpt lat="43.658614" lon="-8.051329">
        <ele>10.278</ele>
        <time>2016-09-26T09:58:35Z</time>
      </trkpt>
      <trkpt lat="43.658615" lon="-8.051331">
        <ele>10.220</ele>
        <time>2016-09-26T09:58:36Z</time>
      </trkpt>
      <trkpt lat="43.658615" lon="-8.051331">
        <ele>10.213</ele>
        <time>2016-09-26T09:58:36Z</time>
      </trkpt>
      <trkpt lat="43.658615" lon="-8.051331">
        <ele>10.281</ele>
        <time>2016-09-26T09:58:36Z</time>
      </trkpt>
      <trkpt lat="43.658642" lon="-8.051390">
        <ele>10.021</ele>
        <time>2016-09-26T09:58:48Z</time>
      </trkpt>
      <trkpt lat="43.658656" lon="-8.051399">
        <ele>9.841</ele>
        <time>2016-09-26T09:58:49Z</time>
      </trkpt>
      <trkpt lat="43.658657" lon="-8.051417">
        <ele>9.905</ele>
        <time>2016-09-26T09:58:50Z</time>
      </trkpt>
      <trkpt lat="43.658660" lon="-8.051427">
        <ele>9.908</ele>
        <time>2016-09-26T09:58:51Z</time>
      </trkpt>
      <trkpt lat="43.658655" lon="-8.051438">
        <ele>9.943</ele>
        <time>2016-09-26T09:58:52Z</time>
      </trkpt>
      <trkpt lat="43.658656" lon="-8.051441">
        <ele>10.158</ele>
        <time>2016-09-26T09:58:53Z</time>
      </trkpt>
      <trkpt lat="43.658657" lon="-8.051445">
        <ele>10.086</ele>
        <time>2016-09-26T09:58:54Z</time>
      </trkpt>
      <trkpt lat="43.658655" lon="-8.051448">
        <ele>10.252</ele>
        <time>2016-09-26T09:58:55Z</time>
      </trkpt>
      <trkpt lat="43.658655" lon="-8.051452">
        <ele>10.236</ele>
        <time>2016-09-26T09:58:56Z</time>
      </trkpt>
      <trkpt lat="43.658655" lon="-8.051452">
        <ele>10.278</ele>
        <time>2016-09-26T09:58:56Z</time>
      </trkpt>
      <trkpt lat="43.658655" lon="-8.051452">
        <ele>10.221</ele>
        <time>2016-09-26T09:58:56Z</time>
      </trkpt>
      <trkpt lat="43.658649" lon="-8.051390">
        <ele>9.619</ele>
        <time>2016-09-26T10:21:41Z</time>
      </trkpt>
      <trkpt lat="43.658630" lon="-8.051373">
        <ele>9.669</ele>
        <time>2016-09-26T10:21:42Z</time>
      </trkpt>
      <trkpt lat="43.658608" lon="-8.051353">
        <ele>9.604</ele>
        <time>2016-09-26T10:21:43Z</time>
      </trkpt>
      <trkpt lat="43.658588" lon="-8.051333">
        <ele>9.824</ele>
        <time>2016-09-26T10:21:44Z</time>
      </trkpt>
      <trkpt lat="43.658568" lon="-8.051307">
        <ele>9.808</ele>
        <time>2016-09-26T10:21:45Z</time>
      </trkpt>
      <trkpt lat="43.658547" lon="-8.051277">
        <ele>9.837</ele>
        <time>2016-09-26T10:21:46Z</time>
      </trkpt>
      <trkpt lat="43.658522" lon="-8.051245">
        <ele>9.952</ele>
        <time>2016-09-26T10:21:47Z</time>
      </trkpt>
      <trkpt lat="43.658496" lon="-8.051211">
        <ele>10.110</ele>
        <time>2016-09-26T10:21:48Z</time>
      </trkpt>
      <trkpt lat="43.658467" lon="-8.051176">
        <ele>10.276</ele>
        <time>2016-09-26T10:21:49Z</time>
      </trkpt>
      <trkpt lat="43.658436" lon="-8.051146">
        <ele>10.230</ele>
        <time>2016-09-26T10:21:50Z</time>
      </trkpt>
      <trkpt lat="43.658402" lon="-8.051118">
        <ele>10.182</ele>
        <time>2016-09-26T10:21:51Z</time>
      </trkpt>
      <trkpt lat="43.658370" lon="-8.051085">
        <ele>10.165</ele>
        <time>2016-09-26T10:21:52Z</time>
      </trkpt>
      <trkpt lat="43.658342" lon="-8.051053">
        <ele>10.153</ele>
        <time>2016-09-26T10:21:53Z</time>
      </trkpt>
      <trkpt lat="43.658313" lon="-8.051023">
        <ele>10.277</ele>
        <time>2016-09-26T10:21:54Z</time>
      </trkpt>
      <trkpt lat="43.658284" lon="-8.050990">
        <ele>10.361</ele>
        <time>2016-09-26T10:21:55Z</time>
      </trkpt>
      <trkpt lat="43.658254" lon="-8.050959">
        <ele>10.227</ele>
        <time>2016-09-26T10:21:56Z</time>
      </trkpt>
      <trkpt lat="43.658225" lon="-8.050929">
        <ele>10.308</ele>
        <time>2016-09-26T10:21:57Z</time>
      </trkpt>
      <trkpt lat="43.658196" lon="-8.050896">
        <ele>10.128</ele>
        <time>2016-09-26T10:21:58Z</time>
      </trkpt>
      <trkpt lat="43.658167" lon="-8.050860">
        <ele>10.023</ele>
        <time>2016-09-26T10:21:59Z</time>
      </trkpt>
      <trkpt lat="43.658136" lon="-8.050827">
        <ele>10.141</ele>
        <time>2016-09-26T10:22:00Z</time>
      </trkpt>
      <trkpt lat="43.658103" lon="-8.050796">
        <ele>10.147</ele>
        <time>2016-09-26T10:22:01Z</time>
      </trkpt>
      <trkpt lat="43.658075" lon="-8.050760">
        <ele>10.241</ele>
        <time>2016-09-26T10:22:02Z</time>
      </trkpt>
      <trkpt lat="43.658042" lon="-8.050732">
        <ele>10.263</ele>
        <time>2016-09-26T10:22:03Z</time>
      </trkpt>
      <trkpt lat="43.658009" lon="-8.050700">
        <ele>10.176</ele>
        <time>2016-09-26T10:22:04Z</time>
      </trkpt>
      <trkpt lat="43.657979" lon="-8.050662">
        <ele>10.124</ele>
        <time>2016-09-26T10:22:05Z</time>
      </trkpt>
      <trkpt lat="43.657947" lon="-8.050627">
        <ele>10.172</ele>
        <time>2016-09-26T10:22:06Z</time>
      </trkpt>
      <trkpt lat="43.657916" lon="-8.050589">
        <ele>10.313</ele>
        <time>2016-09-26T10:22:07Z</time>
      </trkpt>
      <trkpt lat="43.657887" lon="-8.050547">
        <ele>10.214</ele>
        <time>2016-09-26T10:22:08Z</time>
      </trkpt>
      <trkpt lat="43.657857" lon="-8.050508">
        <ele>10.208</ele>
        <time>2016-09-26T10:22:09Z</time>
      </trkpt>
      <trkpt lat="43.657830" lon="-8.050468">
        <ele>10.188</ele>
        <time>2016-09-26T10:22:10Z</time>
      </trkpt>
      <trkpt lat="43.657800" lon="-8.050430">
        <ele>10.353</ele>
        <time>2016-09-26T10:22:11Z</time>
      </trkpt>
      <trkpt lat="43.657768" lon="-8.050392">
        <ele>10.331</ele>
        <time>2016-09-26T10:22:12Z</time>
      </trkpt>
      <trkpt lat="43.657738" lon="-8.050349">
        <ele>10.257</ele>
        <time>2016-09-26T10:22:13Z</time>
      </trkpt>
      <trkpt lat="43.657705" lon="-8.050312">
        <ele>10.391</ele>
        <time>2016-09-26T10:22:14Z</time>
      </trkpt>
      <trkpt lat="43.657669" lon="-8.050276">
        <ele>10.343</ele>
        <time>2016-09-26T10:22:15Z</time>
      </trkpt>
      <trkpt lat="43.657636" lon="-8.050242">
        <ele>10.336</ele>
        <time>2016-09-26T10:22:16Z</time>
      </trkpt>
      <trkpt lat="43.657605" lon="-8.050206">
        <ele>10.324</ele>
        <time>2016-09-26T10:22:17Z</time>
      </trkpt>
      <trkpt lat="43.657572" lon="-8.050170">
        <ele>10.543</ele>
        <time>2016-09-26T10:22:18Z</time>
      </trkpt>
      <trkpt lat="43.657539" lon="-8.050137">
        <ele>10.364</ele>
        <time>2016-09-26T10:22:19Z</time>
      </trkpt>
      <trkpt lat="43.657507" lon="-8.050103">
        <ele>10.410</ele>
        <time>2016-09-26T10:22:20Z</time>
      </trkpt>
      <trkpt lat="43.657479" lon="-8.050063">
        <ele>10.508</ele>
        <time>2016-09-26T10:22:21Z</time>
      </trkpt>
      <trkpt lat="43.657451" lon="-8.050018">
        <ele>10.625</ele>
        <time>2016-09-26T10:22:22Z</time>
      </trkpt>
      <trkpt lat="43.657421" lon="-8.049975">
        <ele>10.710</ele>
        <time>2016-09-26T10:22:23Z</time>
      </trkpt>
      <trkpt lat="43.657390" lon="-8.049935">
        <ele>10.578</ele>
        <time>2016-09-26T10:22:24Z</time>
      </trkpt>
      <trkpt lat="43.657362" lon="-8.049893">
        <ele>10.434</ele>
        <time>2016-09-26T10:22:25Z</time>
      </trkpt>
      <trkpt lat="43.657333" lon="-8.049854">
        <ele>10.338</ele>
        <time>2016-09-26T10:22:26Z</time>
      </trkpt>
      <trkpt lat="43.657303" lon="-8.049815">
        <ele>10.390</ele>
        <time>2016-09-26T10:22:27Z</time>
      </trkpt>
      <trkpt lat="43.657273" lon="-8.049782">
        <ele>10.493</ele>
        <time>2016-09-26T10:22:28Z</time>
      </trkpt>
      <trkpt lat="43.657244" lon="-8.049746">
        <ele>10.381</ele>
        <time>2016-09-26T10:22:29Z</time>
      </trkpt>
      <trkpt lat="43.657216" lon="-8.049700">
        <ele>10.365</ele>
        <time>2016-09-26T10:22:30Z</time>
      </trkpt>
      <trkpt lat="43.657190" lon="-8.049649">
        <ele>10.068</ele>
        <time>2016-09-26T10:22:31Z</time>
      </trkpt>
      <trkpt lat="43.657165" lon="-8.049598">
        <ele>10.014</ele>
        <time>2016-09-26T10:22:32Z</time>
      </trkpt>
      <trkpt lat="43.657136" lon="-8.049559">
        <ele>10.008</ele>
        <time>2016-09-26T10:22:33Z</time>
      </trkpt>
      <trkpt lat="43.657106" lon="-8.049523">
        <ele>10.047</ele>
        <time>2016-09-26T10:22:34Z</time>
      </trkpt>
      <trkpt lat="43.657076" lon="-8.049491">
        <ele>10.112</ele>
        <time>2016-09-26T10:22:35Z</time>
      </trkpt>
      <trkpt lat="43.657047" lon="-8.049459">
        <ele>10.140</ele>
        <time>2016-09-26T10:22:36Z</time>
      </trkpt>
      <trkpt lat="43.657017" lon="-8.049425">
        <ele>10.156</ele>
        <time>2016-09-26T10:22:37Z</time>
      </trkpt>
      <trkpt lat="43.656989" lon="-8.049389">
        <ele>10.190</ele>
        <time>2016-09-26T10:22:38Z</time>
      </trkpt>
      <trkpt lat="43.656962" lon="-8.049350">
        <ele>10.092</ele>
        <time>2016-09-26T10:22:39Z</time>
      </trkpt>
      <trkpt lat="43.656932" lon="-8.049313">
        <ele>10.125</ele>
        <time>2016-09-26T10:22:40Z</time>
      </trkpt>
      <trkpt lat="43.656903" lon="-8.049272">
        <ele>10.073</ele>
        <time>2016-09-26T10:22:41Z</time>
      </trkpt>
      <trkpt lat="43.656870" lon="-8.049232">
        <ele>9.967</ele>
        <time>2016-09-26T10:22:42Z</time>
      </trkpt>
      <trkpt lat="43.656835" lon="-8.049197">
        <ele>9.981</ele>
        <time>2016-09-26T10:22:43Z</time>
      </trkpt>
      <trkpt lat="43.656802" lon="-8.049161">
        <ele>10.119</ele>
        <time>2016-09-26T10:22:44Z</time>
      </trkpt>
      <trkpt lat="43.656767" lon="-8.049128">
        <ele>10.008</ele>
        <time>2016-09-26T10:22:45Z</time>
      </trkpt>
      <trkpt lat="43.656731" lon="-8.049095">
        <ele>10.037</ele>
        <time>2016-09-26T10:22:46Z</time>
      </trkpt>
      <trkpt lat="43.656695" lon="-8.049055">
        <ele>10.072</ele>
        <time>2016-09-26T10:22:47Z</time>
      </trkpt>
      <trkpt lat="43.656658" lon="-8.049008">
        <ele>10.040</ele>
        <time>2016-09-26T10:22:48Z</time>
      </trkpt>
      <trkpt lat="43.656624" lon="-8.048961">
        <ele>10.096</ele>
        <time>2016-09-26T10:22:49Z</time>
      </trkpt>
      <trkpt lat="43.656589" lon="-8.048911">
        <ele>9.940</ele>
        <time>2016-09-26T10:22:50Z</time>
      </trkpt>
      <trkpt lat="43.656554" lon="-8.048863">
        <ele>9.992</ele>
        <time>2016-09-26T10:22:51Z</time>
      </trkpt>
      <trkpt lat="43.656523" lon="-8.048814">
        <ele>10.195</ele>
        <time>2016-09-26T10:22:52Z</time>
      </trkpt>
      <trkpt lat="43.656486" lon="-8.048767">
        <ele>10.023</ele>
        <time>2016-09-26T10:22:53Z</time>
      </trkpt>
      <trkpt lat="43.656448" lon="-8.048724">
        <ele>10.076</ele>
        <time>2016-09-26T10:22:54Z</time>
      </trkpt>
      <trkpt lat="43.656409" lon="-8.048683">
        <ele>10.290</ele>
        <time>2016-09-26T10:22:55Z</time>
      </trkpt>
      <trkpt lat="43.656372" lon="-8.048639">
        <ele>10.119</ele>
        <time>2016-09-26T10:22:56Z</time>
      </trkpt>
      <trkpt lat="43.656339" lon="-8.048594">
        <ele>10.108</ele>
        <time>2016-09-26T10:22:57Z</time>
      </trkpt>
      <trkpt lat="43.656301" lon="-8.048553">
        <ele>10.058</ele>
        <time>2016-09-26T10:22:58Z</time>
      </trkpt>
      <trkpt lat="43.656259" lon="-8.048519">
        <ele>10.133</ele>
        <time>2016-09-26T10:22:59Z</time>
      </trkpt>
      <trkpt lat="43.656217" lon="-8.048482">
        <ele>10.261</ele>
        <time>2016-09-26T10:23:00Z</time>
      </trkpt>
      <trkpt lat="43.656179" lon="-8.048441">
        <ele>10.217</ele>
        <time>2016-09-26T10:23:01Z</time>
      </trkpt>
      <trkpt lat="43.656140" lon="-8.048398">
        <ele>10.021</ele>
        <time>2016-09-26T10:23:02Z</time>
      </trkpt>
      <trkpt lat="43.656104" lon="-8.048351">
        <ele>10.223</ele>
        <time>2016-09-26T10:23:03Z</time>
      </trkpt>
      <trkpt lat="43.656072" lon="-8.048306">
        <ele>10.246</ele>
        <time>2016-09-26T10:23:04Z</time>
      </trkpt>
      <trkpt lat="43.656041" lon="-8.048262">
        <ele>10.144</ele>
        <time>2016-09-26T10:23:05Z</time>
      </trkpt>
      <trkpt lat="43.656007" lon="-8.048215">
        <ele>10.342</ele>
        <time>2016-09-26T10:23:06Z</time>
      </trkpt>
      <trkpt lat="43.655971" lon="-8.048169">
        <ele>10.222</ele>
        <time>2016-09-26T10:23:07Z</time>
      </trkpt>
      <trkpt lat="43.655932" lon="-8.048124">
        <ele>10.314</ele>
        <time>2016-09-26T10:23:08Z</time>
      </trkpt>
      <trkpt lat="43.655894" lon="-8.048084">
        <ele>10.408</ele>
        <time>2016-09-26T10:23:09Z</time>
      </trkpt>
      <trkpt lat="43.655855" lon="-8.048034">
        <ele>10.795</ele>
        <time>2016-09-26T10:23:10Z</time>
      </trkpt>
      <trkpt lat="43.655816" lon="-8.047982">
        <ele>10.750</ele>
        <time>2016-09-26T10:23:11Z</time>
      </trkpt>
      <trkpt lat="43.655778" lon="-8.047930">
        <ele>10.698</ele>
        <time>2016-09-26T10:23:12Z</time>
      </trkpt>
      <trkpt lat="43.655742" lon="-8.047882">
        <ele>10.684</ele>
        <time>2016-09-26T10:23:13Z</time>
      </trkpt>
      <trkpt lat="43.655705" lon="-8.047841">
        <ele>10.568</ele>
        <time>2016-09-26T10:23:14Z</time>
      </trkpt>
      <trkpt lat="43.655667" lon="-8.047802">
        <ele>10.420</ele>
        <time>2016-09-26T10:23:15Z</time>
      </trkpt>
      <trkpt lat="43.655633" lon="-8.047762">
        <ele>10.483</ele>
        <time>2016-09-26T10:23:16Z</time>
      </trkpt>
      <trkpt lat="43.655599" lon="-8.047716">
        <ele>10.431</ele>
        <time>2016-09-26T10:23:17Z</time>
      </trkpt>
      <trkpt lat="43.655566" lon="-8.047673">
        <ele>10.386</ele>
        <time>2016-09-26T10:23:18Z</time>
      </trkpt>
      <trkpt lat="43.655532" lon="-8.047630">
        <ele>10.260</ele>
        <time>2016-09-26T10:23:19Z</time>
      </trkpt>
      <trkpt lat="43.655496" lon="-8.047586">
        <ele>10.126</ele>
        <time>2016-09-26T10:23:20Z</time>
      </trkpt>
      <trkpt lat="43.655461" lon="-8.047544">
        <ele>10.108</ele>
        <time>2016-09-26T10:23:21Z</time>
      </trkpt>
      <trkpt lat="43.655425" lon="-8.047502">
        <ele>10.179</ele>
        <time>2016-09-26T10:23:22Z</time>
      </trkpt>
      <trkpt lat="43.655386" lon="-8.047460">
        <ele>10.014</ele>
        <time>2016-09-26T10:23:23Z</time>
      </trkpt>
      <trkpt lat="43.655351" lon="-8.047418">
        <ele>9.952</ele>
        <time>2016-09-26T10:23:24Z</time>
      </trkpt>
      <trkpt lat="43.655318" lon="-8.047376">
        <ele>9.748</ele>
        <time>2016-09-26T10:23:25Z</time>
      </trkpt>
      <trkpt lat="43.655286" lon="-8.047339">
        <ele>9.642</ele>
        <time>2016-09-26T10:23:26Z</time>
      </trkpt>
      <trkpt lat="43.655252" lon="-8.047297">
        <ele>9.684</ele>
        <time>2016-09-26T10:23:27Z</time>
      </trkpt>
      <trkpt lat="43.655215" lon="-8.047254">
        <ele>9.797</ele>
        <time>2016-09-26T10:23:28Z</time>
      </trkpt>
      <trkpt lat="43.655179" lon="-8.047211">
        <ele>9.775</ele>
        <time>2016-09-26T10:23:29Z</time>
      </trkpt>
      <trkpt lat="43.655143" lon="-8.047169">
        <ele>9.836</ele>
        <time>2016-09-26T10:23:30Z</time>
      </trkpt>
      <trkpt lat="43.655108" lon="-8.047126">
        <ele>9.917</ele>
        <time>2016-09-26T10:23:31Z</time>
      </trkpt>
      <trkpt lat="43.655075" lon="-8.047082">
        <ele>9.918</ele>
        <time>2016-09-26T10:23:32Z</time>
      </trkpt>
      <trkpt lat="43.655043" lon="-8.047041">
        <ele>9.908</ele>
        <time>2016-09-26T10:23:33Z</time>
      </trkpt>
      <trkpt lat="43.655014" lon="-8.046996">
        <ele>9.934</ele>
        <time>2016-09-26T10:23:34Z</time>
      </trkpt>
      <trkpt lat="43.654983" lon="-8.046951">
        <ele>9.959</ele>
        <time>2016-09-26T10:23:35Z</time>
      </trkpt>
      <trkpt lat="43.654950" lon="-8.046902">
        <ele>9.957</ele>
        <time>2016-09-26T10:23:36Z</time>
      </trkpt>
      <trkpt lat="43.654917" lon="-8.046858">
        <ele>9.973</ele>
        <time>2016-09-26T10:23:37Z</time>
      </trkpt>
      <trkpt lat="43.654882" lon="-8.046816">
        <ele>9.817</ele>
        <time>2016-09-26T10:23:38Z</time>
      </trkpt>
      <trkpt lat="43.654845" lon="-8.046776">
        <ele>9.829</ele>
        <time>2016-09-26T10:23:39Z</time>
      </trkpt>
      <trkpt lat="43.654809" lon="-8.046734">
        <ele>9.862</ele>
        <time>2016-09-26T10:23:40Z</time>
      </trkpt>
      <trkpt lat="43.654774" lon="-8.046693">
        <ele>9.810</ele>
        <time>2016-09-26T10:23:41Z</time>
      </trkpt>
      <trkpt lat="43.654737" lon="-8.046653">
        <ele>9.867</ele>
        <time>2016-09-26T10:23:42Z</time>
      </trkpt>
      <trkpt lat="43.654701" lon="-8.046612">
        <ele>10.081</ele>
        <time>2016-09-26T10:23:43Z</time>
      </trkpt>
      <trkpt lat="43.654666" lon="-8.046571">
        <ele>9.919</ele>
        <time>2016-09-26T10:23:44Z</time>
      </trkpt>
      <trkpt lat="43.654632" lon="-8.046530">
        <ele>9.808</ele>
        <time>2016-09-26T10:23:45Z</time>
      </trkpt>
      <trkpt lat="43.654598" lon="-8.046487">
        <ele>9.927</ele>
        <time>2016-09-26T10:23:46Z</time>
      </trkpt>
      <trkpt lat="43.654566" lon="-8.046445">
        <ele>10.062</ele>
        <time>2016-09-26T10:23:47Z</time>
      </trkpt>
      <trkpt lat="43.654530" lon="-8.046406">
        <ele>10.130</ele>
        <time>2016-09-26T10:23:48Z</time>
      </trkpt>
      <trkpt lat="43.654493" lon="-8.046366">
        <ele>10.186</ele>
        <time>2016-09-26T10:23:49Z</time>
      </trkpt>
      <trkpt lat="43.654455" lon="-8.046324">
        <ele>10.210</ele>
        <time>2016-09-26T10:23:50Z</time>
      </trkpt>
      <trkpt lat="43.654417" lon="-8.046281">
        <ele>10.262</ele>
        <time>2016-09-26T10:23:51Z</time>
      </trkpt>
      <trkpt lat="43.654380" lon="-8.046237">
        <ele>10.225</ele>
        <time>2016-09-26T10:23:52Z</time>
      </trkpt>
      <trkpt lat="43.654345" lon="-8.046192">
        <ele>10.333</ele>
        <time>2016-09-26T10:23:53Z</time>
      </trkpt>
      <trkpt lat="43.654310" lon="-8.046149">
        <ele>10.231</ele>
        <time>2016-09-26T10:23:54Z</time>
      </trkpt>
      <trkpt lat="43.654275" lon="-8.046106">
        <ele>10.161</ele>
        <time>2016-09-26T10:23:55Z</time>
      </trkpt>
      <trkpt lat="43.654240" lon="-8.046062">
        <ele>10.307</ele>
        <time>2016-09-26T10:23:56Z</time>
      </trkpt>
      <trkpt lat="43.654204" lon="-8.046016">
        <ele>10.308</ele>
        <time>2016-09-26T10:23:57Z</time>
      </trkpt>
      <trkpt lat="43.654172" lon="-8.045967">
        <ele>10.364</ele>
        <time>2016-09-26T10:23:58Z</time>
      </trkpt>
      <trkpt lat="43.654139" lon="-8.045917">
        <ele>10.219</ele>
        <time>2016-09-26T10:23:59Z</time>
      </trkpt>
      <trkpt lat="43.654105" lon="-8.045870">
        <ele>10.457</ele>
        <time>2016-09-26T10:24:00Z</time>
      </trkpt>
      <trkpt lat="43.654070" lon="-8.045825">
        <ele>10.453</ele>
        <time>2016-09-26T10:24:01Z</time>
      </trkpt>
      <trkpt lat="43.654032" lon="-8.045782">
        <ele>10.577</ele>
        <time>2016-09-26T10:24:02Z</time>
      </trkpt>
      <trkpt lat="43.653996" lon="-8.045743">
        <ele>10.569</ele>
        <time>2016-09-26T10:24:03Z</time>
      </trkpt>
      <trkpt lat="43.653963" lon="-8.045703">
        <ele>10.652</ele>
        <time>2016-09-26T10:24:04Z</time>
      </trkpt>
      <trkpt lat="43.653929" lon="-8.045662">
        <ele>10.640</ele>
        <time>2016-09-26T10:24:05Z</time>
      </trkpt>
      <trkpt lat="43.653892" lon="-8.045625">
        <ele>10.742</ele>
        <time>2016-09-26T10:24:06Z</time>
      </trkpt>
      <trkpt lat="43.653854" lon="-8.045586">
        <ele>10.522</ele>
        <time>2016-09-26T10:24:07Z</time>
      </trkpt>
      <trkpt lat="43.653820" lon="-8.045544">
        <ele>10.514</ele>
        <time>2016-09-26T10:24:08Z</time>
      </trkpt>
      <trkpt lat="43.653782" lon="-8.045507">
        <ele>10.308</ele>
        <time>2016-09-26T10:24:09Z</time>
      </trkpt>
      <trkpt lat="43.653738" lon="-8.045485">
        <ele>10.335</ele>
        <time>2016-09-26T10:24:10Z</time>
      </trkpt>
      <trkpt lat="43.653694" lon="-8.045470">
        <ele>10.360</ele>
        <time>2016-09-26T10:24:11Z</time>
      </trkpt>
      <trkpt lat="43.653653" lon="-8.045456">
        <ele>10.298</ele>
        <time>2016-09-26T10:24:12Z</time>
      </trkpt>
      <trkpt lat="43.653616" lon="-8.045444">
        <ele>10.164</ele>
        <time>2016-09-26T10:24:13Z</time>
      </trkpt>
      <trkpt lat="43.653588" lon="-8.045435">
        <ele>10.298</ele>
        <time>2016-09-26T10:24:14Z</time>
      </trkpt>
      <trkpt lat="43.653568" lon="-8.045431">
        <ele>10.440</ele>
        <time>2016-09-26T10:24:15Z</time>
      </trkpt>
      <trkpt lat="43.653556" lon="-8.045428">
        <ele>10.543</ele>
        <time>2016-09-26T10:24:16Z</time>
      </trkpt>
      <trkpt lat="43.653549" lon="-8.045427">
        <ele>10.511</ele>
        <time>2016-09-26T10:24:17Z</time>
      </trkpt>
      <trkpt lat="43.653547" lon="-8.045424">
        <ele>10.669</ele>
        <time>2016-09-26T10:24:18Z</time>
      </trkpt>
      <trkpt lat="43.653545" lon="-8.045421">
        <ele>10.704</ele>
        <time>2016-09-26T10:24:19Z</time>
      </trkpt>
      <trkpt lat="43.653543" lon="-8.045420">
        <ele>10.724</ele>
        <time>2016-09-26T10:24:20Z</time>
      </trkpt>
      <trkpt lat="43.653542" lon="-8.045419">
        <ele>10.608</ele>
        <time>2016-09-26T10:24:21Z</time>
      </trkpt>
      <trkpt lat="43.653542" lon="-8.045419">
        <ele>10.647</ele>
        <time>2016-09-26T10:24:21Z</time>
      </trkpt>
      <trkpt lat="43.653542" lon="-8.045419">
        <ele>10.692</ele>
        <time>2016-09-26T10:24:21Z</time>
      </trkpt>
      <trkpt lat="43.653412" lon="-8.045310">
        <ele>7.560</ele>
        <time>2016-09-26T10:34:20Z</time>
      </trkpt>
      <trkpt lat="43.653403" lon="-8.045299">
        <ele>7.616</ele>
        <time>2016-09-26T10:34:21Z</time>
      </trkpt>
      <trkpt lat="43.653393" lon="-8.045288">
        <ele>7.720</ele>
        <time>2016-09-26T10:34:22Z</time>
      </trkpt>
      <trkpt lat="43.653383" lon="-8.045274">
        <ele>7.582</ele>
        <time>2016-09-26T10:34:23Z</time>
      </trkpt>
      <trkpt lat="43.653372" lon="-8.045257">
        <ele>7.585</ele>
        <time>2016-09-26T10:34:24Z</time>
      </trkpt>
      <trkpt lat="43.653363" lon="-8.045240">
        <ele>7.573</ele>
        <time>2016-09-26T10:34:25Z</time>
      </trkpt>
      <trkpt lat="43.653352" lon="-8.045227">
        <ele>7.559</ele>
        <time>2016-09-26T10:34:26Z</time>
      </trkpt>
      <trkpt lat="43.653340" lon="-8.045207">
        <ele>7.503</ele>
        <time>2016-09-26T10:34:27Z</time>
      </trkpt>
      <trkpt lat="43.653328" lon="-8.045190">
        <ele>7.623</ele>
        <time>2016-09-26T10:34:28Z</time>
      </trkpt>
      <trkpt lat="43.653319" lon="-8.045175">
        <ele>7.608</ele>
        <time>2016-09-26T10:34:29Z</time>
      </trkpt>
      <trkpt lat="43.653309" lon="-8.045156">
        <ele>7.866</ele>
        <time>2016-09-26T10:34:30Z</time>
      </trkpt>
      <trkpt lat="43.653301" lon="-8.045140">
        <ele>7.931</ele>
        <time>2016-09-26T10:34:31Z</time>
      </trkpt>
      <trkpt lat="43.653292" lon="-8.045121">
        <ele>7.939</ele>
        <time>2016-09-26T10:34:32Z</time>
      </trkpt>
      <trkpt lat="43.653281" lon="-8.045107">
        <ele>7.925</ele>
        <time>2016-09-26T10:34:33Z</time>
      </trkpt>
      <trkpt lat="43.653276" lon="-8.045103">
        <ele>7.899</ele>
        <time>2016-09-26T10:34:34Z</time>
      </trkpt>
      <trkpt lat="43.653271" lon="-8.045099">
        <ele>7.841</ele>
        <time>2016-09-26T10:34:35Z</time>
      </trkpt>
      <trkpt lat="43.653269" lon="-8.045093">
        <ele>7.974</ele>
        <time>2016-09-26T10:34:36Z</time>
      </trkpt>
      <trkpt lat="43.653266" lon="-8.045087">
        <ele>8.182</ele>
        <time>2016-09-26T10:34:37Z</time>
      </trkpt>
      <trkpt lat="43.653265" lon="-8.045079">
        <ele>8.014</ele>
        <time>2016-09-26T10:34:38Z</time>
      </trkpt>
      <trkpt lat="43.653267" lon="-8.045068">
        <ele>7.954</ele>
        <time>2016-09-26T10:34:39Z</time>
      </trkpt>
      <trkpt lat="43.653267" lon="-8.045064">
        <ele>7.709</ele>
        <time>2016-09-26T10:34:40Z</time>
      </trkpt>
      <trkpt lat="43.653270" lon="-8.045051">
        <ele>7.608</ele>
        <time>2016-09-26T10:34:41Z</time>
      </trkpt>
      <trkpt lat="43.653273" lon="-8.045033">
        <ele>7.672</ele>
        <time>2016-09-26T10:34:42Z</time>
      </trkpt>
      <trkpt lat="43.653275" lon="-8.045014">
        <ele>7.777</ele>
        <time>2016-09-26T10:34:43Z</time>
      </trkpt>
      <trkpt lat="43.653274" lon="-8.045003">
        <ele>7.675</ele>
        <time>2016-09-26T10:34:44Z</time>
      </trkpt>
      <trkpt lat="43.653274" lon="-8.044986">
        <ele>7.741</ele>
        <time>2016-09-26T10:34:45Z</time>
      </trkpt>
      <trkpt lat="43.653268" lon="-8.044973">
        <ele>7.735</ele>
        <time>2016-09-26T10:34:46Z</time>
      </trkpt>
      <trkpt lat="43.653258" lon="-8.044969">
        <ele>7.847</ele>
        <time>2016-09-26T10:34:47Z</time>
      </trkpt>
      <trkpt lat="43.653251" lon="-8.044957">
        <ele>7.840</ele>
        <time>2016-09-26T10:34:48Z</time>
      </trkpt>
      <trkpt lat="43.653244" lon="-8.044951">
        <ele>7.838</ele>
        <time>2016-09-26T10:34:49Z</time>
      </trkpt>
      <trkpt lat="43.653238" lon="-8.044946">
        <ele>7.764</ele>
        <time>2016-09-26T10:34:50Z</time>
      </trkpt>
      <trkpt lat="43.653239" lon="-8.044945">
        <ele>7.706</ele>
        <time>2016-09-26T10:34:51Z</time>
      </trkpt>
      <trkpt lat="43.653241" lon="-8.044949">
        <ele>7.716</ele>
        <time>2016-09-26T10:34:52Z</time>
      </trkpt>
      <trkpt lat="43.653246" lon="-8.044948">
        <ele>7.808</ele>
        <time>2016-09-26T10:34:53Z</time>
      </trkpt>
      <trkpt lat="43.653246" lon="-8.044948">
        <ele>7.887</ele>
        <time>2016-09-26T10:34:53Z</time>
      </trkpt>
      <trkpt lat="43.653246" lon="-8.044948">
        <ele>7.862</ele>
        <time>2016-09-26T10:34:53Z</time>
      </trkpt>
      <trkpt lat="43.653200" lon="-8.044876">
        <ele>7.980</ele>
        <time>2016-09-26T10:35:10Z</time>
      </trkpt>
      <trkpt lat="43.653180" lon="-8.044850">
        <ele>8.156</ele>
        <time>2016-09-26T10:35:11Z</time>
      </trkpt>
      <trkpt lat="43.653160" lon="-8.044825">
        <ele>8.190</ele>
        <time>2016-09-26T10:35:12Z</time>
      </trkpt>
      <trkpt lat="43.653138" lon="-8.044798">
        <ele>8.362</ele>
        <time>2016-09-26T10:35:13Z</time>
      </trkpt>
      <trkpt lat="43.653117" lon="-8.044774">
        <ele>8.235</ele>
        <time>2016-09-26T10:35:14Z</time>
      </trkpt>
      <trkpt lat="43.653095" lon="-8.044749">
        <ele>8.473</ele>
        <time>2016-09-26T10:35:15Z</time>
      </trkpt>
      <trkpt lat="43.653072" lon="-8.044726">
        <ele>8.614</ele>
        <time>2016-09-26T10:35:16Z</time>
      </trkpt>
      <trkpt lat="43.653050" lon="-8.044703">
        <ele>8.854</ele>
        <time>2016-09-26T10:35:17Z</time>
      </trkpt>
      <trkpt lat="43.653029" lon="-8.044677">
        <ele>8.909</ele>
        <time>2016-09-26T10:35:18Z</time>
      </trkpt>
      <trkpt lat="43.653007" lon="-8.044654">
        <ele>9.008</ele>
        <time>2016-09-26T10:35:19Z</time>
      </trkpt>
      <trkpt lat="43.652985" lon="-8.044631">
        <ele>9.082</ele>
        <time>2016-09-26T10:35:20Z</time>
      </trkpt>
      <trkpt lat="43.652966" lon="-8.044609">
        <ele>9.057</ele>
        <time>2016-09-26T10:35:21Z</time>
      </trkpt>
      <trkpt lat="43.652945" lon="-8.044588">
        <ele>9.195</ele>
        <time>2016-09-26T10:35:22Z</time>
      </trkpt>
      <trkpt lat="43.652925" lon="-8.044564">
        <ele>9.371</ele>
        <time>2016-09-26T10:35:23Z</time>
      </trkpt>
      <trkpt lat="43.652904" lon="-8.044541">
        <ele>9.485</ele>
        <time>2016-09-26T10:35:24Z</time>
      </trkpt>
      <trkpt lat="43.652881" lon="-8.044517">
        <ele>9.457</ele>
        <time>2016-09-26T10:35:25Z</time>
      </trkpt>
      <trkpt lat="43.652859" lon="-8.044494">
        <ele>9.610</ele>
        <time>2016-09-26T10:35:26Z</time>
      </trkpt>
      <trkpt lat="43.652836" lon="-8.044475">
        <ele>9.618</ele>
        <time>2016-09-26T10:35:27Z</time>
      </trkpt>
      <trkpt lat="43.652813" lon="-8.044456">
        <ele>9.738</ele>
        <time>2016-09-26T10:35:28Z</time>
      </trkpt>
      <trkpt lat="43.652790" lon="-8.044437">
        <ele>9.870</ele>
        <time>2016-09-26T10:35:29Z</time>
      </trkpt>
      <trkpt lat="43.652767" lon="-8.044420">
        <ele>9.917</ele>
        <time>2016-09-26T10:35:30Z</time>
      </trkpt>
      <trkpt lat="43.652743" lon="-8.044401">
        <ele>10.008</ele>
        <time>2016-09-26T10:35:31Z</time>
      </trkpt>
      <trkpt lat="43.652718" lon="-8.044382">
        <ele>10.114</ele>
        <time>2016-09-26T10:35:32Z</time>
      </trkpt>
      <trkpt lat="43.652693" lon="-8.044363">
        <ele>10.299</ele>
        <time>2016-09-26T10:35:33Z</time>
      </trkpt>
      <trkpt lat="43.652669" lon="-8.044344">
        <ele>10.327</ele>
        <time>2016-09-26T10:35:34Z</time>
      </trkpt>
      <trkpt lat="43.652644" lon="-8.044326">
        <ele>10.423</ele>
        <time>2016-09-26T10:35:35Z</time>
      </trkpt>
      <trkpt lat="43.652619" lon="-8.044309">
        <ele>10.567</ele>
        <time>2016-09-26T10:35:36Z</time>
      </trkpt>
      <trkpt lat="43.652594" lon="-8.044292">
        <ele>10.659</ele>
        <time>2016-09-26T10:35:37Z</time>
      </trkpt>
      <trkpt lat="43.652570" lon="-8.044275">
        <ele>10.932</ele>
        <time>2016-09-26T10:35:38Z</time>
      </trkpt>
      <trkpt lat="43.652546" lon="-8.044259">
        <ele>10.970</ele>
        <time>2016-09-26T10:35:39Z</time>
      </trkpt>
      <trkpt lat="43.652522" lon="-8.044243">
        <ele>11.027</ele>
        <time>2016-09-26T10:35:40Z</time>
      </trkpt>
      <trkpt lat="43.652498" lon="-8.044227">
        <ele>11.268</ele>
        <time>2016-09-26T10:35:41Z</time>
      </trkpt>
      <trkpt lat="43.652474" lon="-8.044212">
        <ele>11.314</ele>
        <time>2016-09-26T10:35:42Z</time>
      </trkpt>
      <trkpt lat="43.652451" lon="-8.044196">
        <ele>11.508</ele>
        <time>2016-09-26T10:35:43Z</time>
      </trkpt>
      <trkpt lat="43.652428" lon="-8.044180">
        <ele>11.753</ele>
        <time>2016-09-26T10:35:44Z</time>
      </trkpt>
      <trkpt lat="43.652405" lon="-8.044165">
        <ele>11.878</ele>
        <time>2016-09-26T10:35:45Z</time>
      </trkpt>
      <trkpt lat="43.652383" lon="-8.044151">
        <ele>11.876</ele>
        <time>2016-09-26T10:35:46Z</time>
      </trkpt>
      <trkpt lat="43.652361" lon="-8.044136">
        <ele>12.052</ele>
        <time>2016-09-26T10:35:47Z</time>
      </trkpt>
      <trkpt lat="43.652339" lon="-8.044121">
        <ele>12.386</ele>
        <time>2016-09-26T10:35:48Z</time>
      </trkpt>
      <trkpt lat="43.652318" lon="-8.044106">
        <ele>12.358</ele>
        <time>2016-09-26T10:35:49Z</time>
      </trkpt>
      <trkpt lat="43.652297" lon="-8.044091">
        <ele>12.621</ele>
        <time>2016-09-26T10:35:50Z</time>
      </trkpt>
      <trkpt lat="43.652277" lon="-8.044076">
        <ele>12.859</ele>
        <time>2016-09-26T10:35:51Z</time>
      </trkpt>
      <trkpt lat="43.652257" lon="-8.044062">
        <ele>12.874</ele>
        <time>2016-09-26T10:35:52Z</time>
      </trkpt>
      <trkpt lat="43.652235" lon="-8.044047">
        <ele>12.956</ele>
        <time>2016-09-26T10:35:53Z</time>
      </trkpt>
      <trkpt lat="43.652212" lon="-8.044031">
        <ele>12.921</ele>
        <time>2016-09-26T10:35:54Z</time>
      </trkpt>
      <trkpt lat="43.652190" lon="-8.044015">
        <ele>13.108</ele>
        <time>2016-09-26T10:35:55Z</time>
      </trkpt>
      <trkpt lat="43.652167" lon="-8.043999">
        <ele>13.298</ele>
        <time>2016-09-26T10:35:56Z</time>
      </trkpt>
      <trkpt lat="43.652145" lon="-8.043982">
        <ele>13.343</ele>
        <time>2016-09-26T10:35:57Z</time>
      </trkpt>
      <trkpt lat="43.652122" lon="-8.043967">
        <ele>13.231</ele>
        <time>2016-09-26T10:35:58Z</time>
      </trkpt>
      <trkpt lat="43.652100" lon="-8.043952">
        <ele>13.377</ele>
        <time>2016-09-26T10:35:59Z</time>
      </trkpt>
      <trkpt lat="43.652076" lon="-8.043938">
        <ele>13.581</ele>
        <time>2016-09-26T10:36:00Z</time>
      </trkpt>
      <trkpt lat="43.652054" lon="-8.043923">
        <ele>13.633</ele>
        <time>2016-09-26T10:36:01Z</time>
      </trkpt>
      <trkpt lat="43.652032" lon="-8.043907">
        <ele>13.876</ele>
        <time>2016-09-26T10:36:02Z</time>
      </trkpt>
      <trkpt lat="43.652010" lon="-8.043890">
        <ele>14.044</ele>
        <time>2016-09-26T10:36:03Z</time>
      </trkpt>
      <trkpt lat="43.651988" lon="-8.043874">
        <ele>14.225</ele>
        <time>2016-09-26T10:36:04Z</time>
      </trkpt>
      <trkpt lat="43.651967" lon="-8.043859">
        <ele>14.426</ele>
        <time>2016-09-26T10:36:05Z</time>
      </trkpt>
      <trkpt lat="43.651945" lon="-8.043843">
        <ele>14.608</ele>
        <time>2016-09-26T10:36:06Z</time>
      </trkpt>
      <trkpt lat="43.651923" lon="-8.043825">
        <ele>14.808</ele>
        <time>2016-09-26T10:36:07Z</time>
      </trkpt>
      <trkpt lat="43.651900" lon="-8.043810">
        <ele>14.913</ele>
        <time>2016-09-26T10:36:08Z</time>
      </trkpt>
      <trkpt lat="43.651876" lon="-8.043794">
        <ele>15.018</ele>
        <time>2016-09-26T10:36:09Z</time>
      </trkpt>
      <trkpt lat="43.651853" lon="-8.043780">
        <ele>15.146</ele>
        <time>2016-09-26T10:36:10Z</time>
      </trkpt>
      <trkpt lat="43.651829" lon="-8.043766">
        <ele>15.332</ele>
        <time>2016-09-26T10:36:11Z</time>
      </trkpt>
      <trkpt lat="43.651804" lon="-8.043753">
        <ele>15.446</ele>
        <time>2016-09-26T10:36:12Z</time>
      </trkpt>
      <trkpt lat="43.651780" lon="-8.043740">
        <ele>15.498</ele>
        <time>2016-09-26T10:36:13Z</time>
      </trkpt>
      <trkpt lat="43.651758" lon="-8.043728">
        <ele>15.691</ele>
        <time>2016-09-26T10:36:14Z</time>
      </trkpt>
      <trkpt lat="43.651737" lon="-8.043714">
        <ele>15.739</ele>
        <time>2016-09-26T10:36:15Z</time>
      </trkpt>
      <trkpt lat="43.651713" lon="-8.043699">
        <ele>15.912</ele>
        <time>2016-09-26T10:36:16Z</time>
      </trkpt>
      <trkpt lat="43.651691" lon="-8.043685">
        <ele>15.932</ele>
        <time>2016-09-26T10:36:17Z</time>
      </trkpt>
      <trkpt lat="43.651668" lon="-8.043670">
        <ele>16.005</ele>
        <time>2016-09-26T10:36:18Z</time>
      </trkpt>
      <trkpt lat="43.651645" lon="-8.043656">
        <ele>16.008</ele>
        <time>2016-09-26T10:36:19Z</time>
      </trkpt>
      <trkpt lat="43.651624" lon="-8.043642">
        <ele>16.132</ele>
        <time>2016-09-26T10:36:20Z</time>
      </trkpt>
      <trkpt lat="43.651602" lon="-8.043627">
        <ele>16.277</ele>
        <time>2016-09-26T10:36:21Z</time>
      </trkpt>
      <trkpt lat="43.651580" lon="-8.043611">
        <ele>16.215</ele>
        <time>2016-09-26T10:36:22Z</time>
      </trkpt>
      <trkpt lat="43.651556" lon="-8.043596">
        <ele>16.341</ele>
        <time>2016-09-26T10:36:23Z</time>
      </trkpt>
      <trkpt lat="43.651533" lon="-8.043581">
        <ele>16.425</ele>
        <time>2016-09-26T10:36:24Z</time>
      </trkpt>
      <trkpt lat="43.651509" lon="-8.043569">
        <ele>16.777</ele>
        <time>2016-09-26T10:36:25Z</time>
      </trkpt>
      <trkpt lat="43.651485" lon="-8.043560">
        <ele>16.930</ele>
        <time>2016-09-26T10:36:26Z</time>
      </trkpt>
      <trkpt lat="43.651459" lon="-8.043556">
        <ele>17.018</ele>
        <time>2016-09-26T10:36:27Z</time>
      </trkpt>
      <trkpt lat="43.651433" lon="-8.043548">
        <ele>17.144</ele>
        <time>2016-09-26T10:36:28Z</time>
      </trkpt>
      <trkpt lat="43.651408" lon="-8.043539">
        <ele>17.305</ele>
        <time>2016-09-26T10:36:29Z</time>
      </trkpt>
      <trkpt lat="43.651384" lon="-8.043531">
        <ele>17.415</ele>
        <time>2016-09-26T10:36:30Z</time>
      </trkpt>
      <trkpt lat="43.651358" lon="-8.043524">
        <ele>17.508</ele>
        <time>2016-09-26T10:36:31Z</time>
      </trkpt>
      <trkpt lat="43.651334" lon="-8.043522">
        <ele>17.675</ele>
        <time>2016-09-26T10:36:32Z</time>
      </trkpt>
      <trkpt lat="43.651312" lon="-8.043519">
        <ele>17.780</ele>
        <time>2016-09-26T10:36:33Z</time>
      </trkpt>
      <trkpt lat="43.651290" lon="-8.043518">
        <ele>17.938</ele>
        <time>2016-09-26T10:36:34Z</time>
      </trkpt>
      <trkpt lat="43.651269" lon="-8.043518">
        <ele>18.114</ele>
        <time>2016-09-26T10:36:35Z</time>
      </trkpt>
      <trkpt lat="43.651247" lon="-8.043523">
        <ele>18.318</ele>
        <time>2016-09-26T10:36:36Z</time>
      </trkpt>
      <trkpt lat="43.651227" lon="-8.043532">
        <ele>18.460</ele>
        <time>2016-09-26T10:36:37Z</time>
      </trkpt>
      <trkpt lat="43.651208" lon="-8.043545">
        <ele>18.733</ele>
        <time>2016-09-26T10:36:38Z</time>
      </trkpt>
      <trkpt lat="43.651188" lon="-8.043560">
        <ele>18.581</ele>
        <time>2016-09-26T10:36:39Z</time>
      </trkpt>
      <trkpt lat="43.651168" lon="-8.043581">
        <ele>18.826</ele>
        <time>2016-09-26T10:36:40Z</time>
      </trkpt>
      <trkpt lat="43.651149" lon="-8.043603">
        <ele>18.847</ele>
        <time>2016-09-26T10:36:41Z</time>
      </trkpt>
      <trkpt lat="43.651130" lon="-8.043628">
        <ele>19.011</ele>
        <time>2016-09-26T10:36:42Z</time>
      </trkpt>
      <trkpt lat="43.651111" lon="-8.043654">
        <ele>19.308</ele>
        <time>2016-09-26T10:36:43Z</time>
      </trkpt>
      <trkpt lat="43.651094" lon="-8.043683">
        <ele>19.553</ele>
        <time>2016-09-26T10:36:44Z</time>
      </trkpt>
      <trkpt lat="43.651079" lon="-8.043712">
        <ele>19.678</ele>
        <time>2016-09-26T10:36:45Z</time>
      </trkpt>
      <trkpt lat="43.651065" lon="-8.043742">
        <ele>19.886</ele>
        <time>2016-09-26T10:36:46Z</time>
      </trkpt>
      <trkpt lat="43.651052" lon="-8.043773">
        <ele>20.062</ele>
        <time>2016-09-26T10:36:47Z</time>
      </trkpt>
      <trkpt lat="43.651039" lon="-8.043806">
        <ele>20.246</ele>
        <time>2016-09-26T10:36:48Z</time>
      </trkpt>
      <trkpt lat="43.651027" lon="-8.043835">
        <ele>20.498</ele>
        <time>2016-09-26T10:36:49Z</time>
      </trkpt>
      <trkpt lat="43.651016" lon="-8.043866">
        <ele>20.611</ele>
        <time>2016-09-26T10:36:50Z</time>
      </trkpt>
      <trkpt lat="43.651005" lon="-8.043897">
        <ele>20.769</ele>
        <time>2016-09-26T10:36:51Z</time>
      </trkpt>
      <trkpt lat="43.650995" lon="-8.043927">
        <ele>21.038</ele>
        <time>2016-09-26T10:36:52Z</time>
      </trkpt>
      <trkpt lat="43.650984" lon="-8.043957">
        <ele>21.470</ele>
        <time>2016-09-26T10:36:53Z</time>
      </trkpt>
      <trkpt lat="43.650973" lon="-8.043988">
        <ele>21.617</ele>
        <time>2016-09-26T10:36:54Z</time>
      </trkpt>
      <trkpt lat="43.650964" lon="-8.044019">
        <ele>21.808</ele>
        <time>2016-09-26T10:36:55Z</time>
      </trkpt>
      <trkpt lat="43.650954" lon="-8.044050">
        <ele>21.864</ele>
        <time>2016-09-26T10:36:56Z</time>
      </trkpt>
      <trkpt lat="43.650944" lon="-8.044080">
        <ele>22.029</ele>
        <time>2016-09-26T10:36:57Z</time>
      </trkpt>
      <trkpt lat="43.650935" lon="-8.044109">
        <ele>22.277</ele>
        <time>2016-09-26T10:36:58Z</time>
      </trkpt>
      <trkpt lat="43.650925" lon="-8.044139">
        <ele>22.433</ele>
        <time>2016-09-26T10:36:59Z</time>
      </trkpt>
      <trkpt lat="43.650914" lon="-8.044169">
        <ele>22.747</ele>
        <time>2016-09-26T10:37:00Z</time>
      </trkpt>
      <trkpt lat="43.650905" lon="-8.044201">
        <ele>22.889</ele>
        <time>2016-09-26T10:37:01Z</time>
      </trkpt>
      <trkpt lat="43.650895" lon="-8.044231">
        <ele>22.962</ele>
        <time>2016-09-26T10:37:02Z</time>
      </trkpt>
      <trkpt lat="43.650884" lon="-8.044261">
        <ele>23.030</ele>
        <time>2016-09-26T10:37:03Z</time>
      </trkpt>
      <trkpt lat="43.650873" lon="-8.044291">
        <ele>23.294</ele>
        <time>2016-09-26T10:37:04Z</time>
      </trkpt>
      <trkpt lat="43.650862" lon="-8.044321">
        <ele>23.257</ele>
        <time>2016-09-26T10:37:05Z</time>
      </trkpt>
      <trkpt lat="43.650850" lon="-8.044348">
        <ele>23.422</ele>
        <time>2016-09-26T10:37:06Z</time>
      </trkpt>
      <trkpt lat="43.650839" lon="-8.044374">
        <ele>23.508</ele>
        <time>2016-09-26T10:37:07Z</time>
      </trkpt>
      <trkpt lat="43.650827" lon="-8.044402">
        <ele>23.450</ele>
        <time>2016-09-26T10:37:08Z</time>
      </trkpt>
      <trkpt lat="43.650812" lon="-8.044429">
        <ele>23.715</ele>
        <time>2016-09-26T10:37:09Z</time>
      </trkpt>
      <trkpt lat="43.650798" lon="-8.044454">
        <ele>24.263</ele>
        <time>2016-09-26T10:37:10Z</time>
      </trkpt>
      <trkpt lat="43.650782" lon="-8.044478">
        <ele>24.389</ele>
        <time>2016-09-26T10:37:11Z</time>
      </trkpt>
      <trkpt lat="43.650767" lon="-8.044501">
        <ele>24.633</ele>
        <time>2016-09-26T10:37:12Z</time>
      </trkpt>
      <trkpt lat="43.650752" lon="-8.044526">
        <ele>24.755</ele>
        <time>2016-09-26T10:37:13Z</time>
      </trkpt>
      <trkpt lat="43.650736" lon="-8.044549">
        <ele>24.828</ele>
        <time>2016-09-26T10:37:14Z</time>
      </trkpt>
      <trkpt lat="43.650721" lon="-8.044568">
        <ele>25.066</ele>
        <time>2016-09-26T10:37:15Z</time>
      </trkpt>
      <trkpt lat="43.650703" lon="-8.044591">
        <ele>25.179</ele>
        <time>2016-09-26T10:37:16Z</time>
      </trkpt>
      <trkpt lat="43.650685" lon="-8.044613">
        <ele>25.205</ele>
        <time>2016-09-26T10:37:17Z</time>
      </trkpt>
      <trkpt lat="43.650669" lon="-8.044633">
        <ele>25.425</ele>
        <time>2016-09-26T10:37:18Z</time>
      </trkpt>
      <trkpt lat="43.650655" lon="-8.044654">
        <ele>25.608</ele>
        <time>2016-09-26T10:37:19Z</time>
      </trkpt>
      <trkpt lat="43.650637" lon="-8.044672">
        <ele>25.838</ele>
        <time>2016-09-26T10:37:20Z</time>
      </trkpt>
      <trkpt lat="43.650621" lon="-8.044687">
        <ele>25.993</ele>
        <time>2016-09-26T10:37:21Z</time>
      </trkpt>
      <trkpt lat="43.650605" lon="-8.044702">
        <ele>25.961</ele>
        <time>2016-09-26T10:37:22Z</time>
      </trkpt>
      <trkpt lat="43.650590" lon="-8.044719">
        <ele>26.157</ele>
        <time>2016-09-26T10:37:23Z</time>
      </trkpt>
      <trkpt lat="43.650575" lon="-8.044736">
        <ele>26.221</ele>
        <time>2016-09-26T10:37:24Z</time>
      </trkpt>
      <trkpt lat="43.650560" lon="-8.044753">
        <ele>26.283</ele>
        <time>2016-09-26T10:37:25Z</time>
      </trkpt>
      <trkpt lat="43.650542" lon="-8.044771">
        <ele>26.366</ele>
        <time>2016-09-26T10:37:26Z</time>
      </trkpt>
      <trkpt lat="43.650523" lon="-8.044789">
        <ele>26.674</ele>
        <time>2016-09-26T10:37:27Z</time>
      </trkpt>
      <trkpt lat="43.650501" lon="-8.044805">
        <ele>26.785</ele>
        <time>2016-09-26T10:37:28Z</time>
      </trkpt>
      <trkpt lat="43.650480" lon="-8.044824">
        <ele>26.989</ele>
        <time>2016-09-26T10:37:29Z</time>
      </trkpt>
      <trkpt lat="43.650457" lon="-8.044839">
        <ele>27.117</ele>
        <time>2016-09-26T10:37:30Z</time>
      </trkpt>
      <trkpt lat="43.650433" lon="-8.044856">
        <ele>27.308</ele>
        <time>2016-09-26T10:37:31Z</time>
      </trkpt>
      <trkpt lat="43.650411" lon="-8.044873">
        <ele>27.429</ele>
        <time>2016-09-26T10:37:32Z</time>
      </trkpt>
      <trkpt lat="43.650390" lon="-8.044892">
        <ele>27.594</ele>
        <time>2016-09-26T10:37:33Z</time>
      </trkpt>
      <trkpt lat="43.650372" lon="-8.044907">
        <ele>27.662</ele>
        <time>2016-09-26T10:37:34Z</time>
      </trkpt>
      <trkpt lat="43.650355" lon="-8.044920">
        <ele>27.748</ele>
        <time>2016-09-26T10:37:35Z</time>
      </trkpt>
      <trkpt lat="43.650333" lon="-8.044939">
        <ele>27.662</ele>
        <time>2016-09-26T10:37:36Z</time>
      </trkpt>
      <trkpt lat="43.650309" lon="-8.044960">
        <ele>27.864</ele>
        <time>2016-09-26T10:37:37Z</time>
      </trkpt>
      <trkpt lat="43.650285" lon="-8.044978">
        <ele>28.087</ele>
        <time>2016-09-26T10:37:38Z</time>
      </trkpt>
      <trkpt lat="43.650262" lon="-8.044994">
        <ele>28.125</ele>
        <time>2016-09-26T10:37:39Z</time>
      </trkpt>
      <trkpt lat="43.650238" lon="-8.045011">
        <ele>28.339</ele>
        <time>2016-09-26T10:37:40Z</time>
      </trkpt>
      <trkpt lat="43.650218" lon="-8.045028">
        <ele>28.501</ele>
        <time>2016-09-26T10:37:41Z</time>
      </trkpt>
      <trkpt lat="43.650196" lon="-8.045047">
        <ele>28.521</ele>
        <time>2016-09-26T10:37:42Z</time>
      </trkpt>
      <trkpt lat="43.650172" lon="-8.045062">
        <ele>28.608</ele>
        <time>2016-09-26T10:37:43Z</time>
      </trkpt>
      <trkpt lat="43.650152" lon="-8.045081">
        <ele>28.784</ele>
        <time>2016-09-26T10:37:44Z</time>
      </trkpt>
      <trkpt lat="43.650134" lon="-8.045098">
        <ele>28.829</ele>
        <time>2016-09-26T10:37:45Z</time>
      </trkpt>
      <trkpt lat="43.650114" lon="-8.045115">
        <ele>28.837</ele>
        <time>2016-09-26T10:37:46Z</time>
      </trkpt>
      <trkpt lat="43.650096" lon="-8.045130">
        <ele>29.293</ele>
        <time>2016-09-26T10:37:47Z</time>
      </trkpt>
      <trkpt lat="43.650077" lon="-8.045148">
        <ele>29.247</ele>
        <time>2016-09-26T10:37:48Z</time>
      </trkpt>
      <trkpt lat="43.650056" lon="-8.045163">
        <ele>29.539</ele>
        <time>2016-09-26T10:37:49Z</time>
      </trkpt>
      <trkpt lat="43.650036" lon="-8.045173">
        <ele>29.852</ele>
        <time>2016-09-26T10:37:50Z</time>
      </trkpt>
      <trkpt lat="43.650017" lon="-8.045185">
        <ele>30.080</ele>
        <time>2016-09-26T10:37:51Z</time>
      </trkpt>
      <trkpt lat="43.649998" lon="-8.045197">
        <ele>30.194</ele>
        <time>2016-09-26T10:37:52Z</time>
      </trkpt>
      <trkpt lat="43.649977" lon="-8.045207">
        <ele>30.257</ele>
        <time>2016-09-26T10:37:53Z</time>
      </trkpt>
      <trkpt lat="43.649955" lon="-8.045220">
        <ele>30.422</ele>
        <time>2016-09-26T10:37:54Z</time>
      </trkpt>
      <trkpt lat="43.649932" lon="-8.045233">
        <ele>30.408</ele>
        <time>2016-09-26T10:37:55Z</time>
      </trkpt>
      <trkpt lat="43.649907" lon="-8.045245">
        <ele>30.510</ele>
        <time>2016-09-26T10:37:56Z</time>
      </trkpt>
      <trkpt lat="43.649887" lon="-8.045255">
        <ele>30.645</ele>
        <time>2016-09-26T10:37:57Z</time>
      </trkpt>
      <trkpt lat="43.649867" lon="-8.045261">
        <ele>30.953</ele>
        <time>2016-09-26T10:37:58Z</time>
      </trkpt>
      <trkpt lat="43.649847" lon="-8.045268">
        <ele>31.219</ele>
        <time>2016-09-26T10:37:59Z</time>
      </trkpt>
      <trkpt lat="43.649825" lon="-8.045278">
        <ele>31.523</ele>
        <time>2016-09-26T10:38:00Z</time>
      </trkpt>
      <trkpt lat="43.649802" lon="-8.045286">
        <ele>31.515</ele>
        <time>2016-09-26T10:38:01Z</time>
      </trkpt>
      <trkpt lat="43.649781" lon="-8.045293">
        <ele>31.668</ele>
        <time>2016-09-26T10:38:02Z</time>
      </trkpt>
      <trkpt lat="43.649758" lon="-8.045301">
        <ele>31.876</ele>
        <time>2016-09-26T10:38:03Z</time>
      </trkpt>
      <trkpt lat="43.649735" lon="-8.045309">
        <ele>32.155</ele>
        <time>2016-09-26T10:38:04Z</time>
      </trkpt>
      <trkpt lat="43.649710" lon="-8.045316">
        <ele>32.007</ele>
        <time>2016-09-26T10:38:05Z</time>
      </trkpt>
      <trkpt lat="43.649687" lon="-8.045322">
        <ele>32.317</ele>
        <time>2016-09-26T10:38:06Z</time>
      </trkpt>
      <trkpt lat="43.649660" lon="-8.045328">
        <ele>32.508</ele>
        <time>2016-09-26T10:38:07Z</time>
      </trkpt>
      <trkpt lat="43.649634" lon="-8.045334">
        <ele>32.536</ele>
        <time>2016-09-26T10:38:08Z</time>
      </trkpt>
      <trkpt lat="43.649608" lon="-8.045339">
        <ele>32.681</ele>
        <time>2016-09-26T10:38:09Z</time>
      </trkpt>
      <trkpt lat="43.649583" lon="-8.045344">
        <ele>32.719</ele>
        <time>2016-09-26T10:38:10Z</time>
      </trkpt>
      <trkpt lat="43.649557" lon="-8.045347">
        <ele>32.975</ele>
        <time>2016-09-26T10:38:11Z</time>
      </trkpt>
      <trkpt lat="43.649532" lon="-8.045349">
        <ele>33.279</ele>
        <time>2016-09-26T10:38:12Z</time>
      </trkpt>
      <trkpt lat="43.649507" lon="-8.045350">
        <ele>33.221</ele>
        <time>2016-09-26T10:38:13Z</time>
      </trkpt>
      <trkpt lat="43.649483" lon="-8.045352">
        <ele>33.164</ele>
        <time>2016-09-26T10:38:14Z</time>
      </trkpt>
      <trkpt lat="43.649459" lon="-8.045354">
        <ele>33.312</ele>
        <time>2016-09-26T10:38:15Z</time>
      </trkpt>
      <trkpt lat="43.649435" lon="-8.045356">
        <ele>33.414</ele>
        <time>2016-09-26T10:38:16Z</time>
      </trkpt>
      <trkpt lat="43.649411" lon="-8.045357">
        <ele>33.754</ele>
        <time>2016-09-26T10:38:17Z</time>
      </trkpt>
      <trkpt lat="43.649386" lon="-8.045358">
        <ele>33.809</ele>
        <time>2016-09-26T10:38:18Z</time>
      </trkpt>
      <trkpt lat="43.649361" lon="-8.045358">
        <ele>33.808</ele>
        <time>2016-09-26T10:38:19Z</time>
      </trkpt>
      <trkpt lat="43.649337" lon="-8.045358">
        <ele>33.962</ele>
        <time>2016-09-26T10:38:20Z</time>
      </trkpt>
      <trkpt lat="43.649314" lon="-8.045357">
        <ele>34.137</ele>
        <time>2016-09-26T10:38:21Z</time>
      </trkpt>
      <trkpt lat="43.649289" lon="-8.045355">
        <ele>34.215</ele>
        <time>2016-09-26T10:38:22Z</time>
      </trkpt>
      <trkpt lat="43.649265" lon="-8.045352">
        <ele>34.341</ele>
        <time>2016-09-26T10:38:23Z</time>
      </trkpt>
      <trkpt lat="43.649240" lon="-8.045351">
        <ele>34.415</ele>
        <time>2016-09-26T10:38:24Z</time>
      </trkpt>
      <trkpt lat="43.649215" lon="-8.045349">
        <ele>34.557</ele>
        <time>2016-09-26T10:38:25Z</time>
      </trkpt>
      <trkpt lat="43.649191" lon="-8.045349">
        <ele>34.720</ele>
        <time>2016-09-26T10:38:26Z</time>
      </trkpt>
      <trkpt lat="43.649166" lon="-8.045348">
        <ele>34.978</ele>
        <time>2016-09-26T10:38:27Z</time>
      </trkpt>
      <trkpt lat="43.649141" lon="-8.045347">
        <ele>35.012</ele>
        <time>2016-09-26T10:38:28Z</time>
      </trkpt>
      <trkpt lat="43.649116" lon="-8.045346">
        <ele>34.932</ele>
        <time>2016-09-26T10:38:29Z</time>
      </trkpt>
      <trkpt lat="43.649092" lon="-8.045346">
        <ele>35.005</ele>
        <time>2016-09-26T10:38:30Z</time>
      </trkpt>
      <trkpt lat="43.649069" lon="-8.045346">
        <ele>35.108</ele>
        <time>2016-09-26T10:38:31Z</time>
      </trkpt>
      <trkpt lat="43.649044" lon="-8.045345">
        <ele>35.362</ele>
        <time>2016-09-26T10:38:32Z</time>
      </trkpt>
      <trkpt lat="43.649020" lon="-8.045342">
        <ele>35.497</ele>
        <time>2016-09-26T10:38:33Z</time>
      </trkpt>
      <trkpt lat="43.648995" lon="-8.045341">
        <ele>35.665</ele>
        <time>2016-09-26T10:38:34Z</time>
      </trkpt>
      <trkpt lat="43.648970" lon="-8.045342">
        <ele>35.841</ele>
        <time>2016-09-26T10:38:35Z</time>
      </trkpt>
      <trkpt lat="43.648945" lon="-8.045342">
        <ele>35.965</ele>
        <time>2016-09-26T10:38:36Z</time>
      </trkpt>
      <trkpt lat="43.648921" lon="-8.045341">
        <ele>36.097</ele>
        <time>2016-09-26T10:38:37Z</time>
      </trkpt>
      <trkpt lat="43.648897" lon="-8.045340">
        <ele>35.930</ele>
        <time>2016-09-26T10:38:38Z</time>
      </trkpt>
      <trkpt lat="43.648873" lon="-8.045337">
        <ele>36.168</ele>
        <time>2016-09-26T10:38:39Z</time>
      </trkpt>
      <trkpt lat="43.648848" lon="-8.045335">
        <ele>36.262</ele>
        <time>2016-09-26T10:38:40Z</time>
      </trkpt>
      <trkpt lat="43.648824" lon="-8.045332">
        <ele>36.383</ele>
        <time>2016-09-26T10:38:41Z</time>
      </trkpt>
      <trkpt lat="43.648800" lon="-8.045330">
        <ele>36.411</ele>
        <time>2016-09-26T10:38:42Z</time>
      </trkpt>
      <trkpt lat="43.648776" lon="-8.045328">
        <ele>36.608</ele>
        <time>2016-09-26T10:38:43Z</time>
      </trkpt>
      <trkpt lat="43.648753" lon="-8.045328">
        <ele>36.777</ele>
        <time>2016-09-26T10:38:44Z</time>
      </trkpt>
      <trkpt lat="43.648730" lon="-8.045327">
        <ele>36.822</ele>
        <time>2016-09-26T10:38:45Z</time>
      </trkpt>
      <trkpt lat="43.648706" lon="-8.045325">
        <ele>36.950</ele>
        <time>2016-09-26T10:38:46Z</time>
      </trkpt>
      <trkpt lat="43.648682" lon="-8.045322">
        <ele>37.146</ele>
        <time>2016-09-26T10:38:47Z</time>
      </trkpt>
      <trkpt lat="43.648660" lon="-8.045321">
        <ele>37.240</ele>
        <time>2016-09-26T10:38:48Z</time>
      </trkpt>
      <trkpt lat="43.648635" lon="-8.045319">
        <ele>37.552</ele>
        <time>2016-09-26T10:38:49Z</time>
      </trkpt>
      <trkpt lat="43.648611" lon="-8.045318">
        <ele>37.895</ele>
        <time>2016-09-26T10:38:50Z</time>
      </trkpt>
      <trkpt lat="43.648587" lon="-8.045317">
        <ele>37.863</ele>
        <time>2016-09-26T10:38:51Z</time>
      </trkpt>
      <trkpt lat="43.648562" lon="-8.045316">
        <ele>38.063</ele>
        <time>2016-09-26T10:38:52Z</time>
      </trkpt>
      <trkpt lat="43.648538" lon="-8.045316">
        <ele>38.244</ele>
        <time>2016-09-26T10:38:53Z</time>
      </trkpt>
      <trkpt lat="43.648513" lon="-8.045315">
        <ele>38.318</ele>
        <time>2016-09-26T10:38:54Z</time>
      </trkpt>
      <trkpt lat="43.648488" lon="-8.045313">
        <ele>38.408</ele>
        <time>2016-09-26T10:38:55Z</time>
      </trkpt>
      <trkpt lat="43.648463" lon="-8.045312">
        <ele>38.647</ele>
        <time>2016-09-26T10:38:56Z</time>
      </trkpt>
      <trkpt lat="43.648437" lon="-8.045311">
        <ele>38.942</ele>
        <time>2016-09-26T10:38:57Z</time>
      </trkpt>
      <trkpt lat="43.648412" lon="-8.045308">
        <ele>39.130</ele>
        <time>2016-09-26T10:38:58Z</time>
      </trkpt>
      <trkpt lat="43.648389" lon="-8.045305">
        <ele>39.216</ele>
        <time>2016-09-26T10:38:59Z</time>
      </trkpt>
      <trkpt lat="43.648365" lon="-8.045300">
        <ele>39.340</ele>
        <time>2016-09-26T10:39:00Z</time>
      </trkpt>
      <trkpt lat="43.648343" lon="-8.045292">
        <ele>39.522</ele>
        <time>2016-09-26T10:39:01Z</time>
      </trkpt>
      <trkpt lat="43.648318" lon="-8.045290">
        <ele>39.555</ele>
        <time>2016-09-26T10:39:02Z</time>
      </trkpt>
      <trkpt lat="43.648294" lon="-8.045289">
        <ele>39.563</ele>
        <time>2016-09-26T10:39:03Z</time>
      </trkpt>
      <trkpt lat="43.648269" lon="-8.045287">
        <ele>39.775</ele>
        <time>2016-09-26T10:39:04Z</time>
      </trkpt>
      <trkpt lat="43.648245" lon="-8.045284">
        <ele>39.928</ele>
        <time>2016-09-26T10:39:05Z</time>
      </trkpt>
      <trkpt lat="43.648221" lon="-8.045282">
        <ele>40.020</ele>
        <time>2016-09-26T10:39:06Z</time>
      </trkpt>
      <trkpt lat="43.648197" lon="-8.045286">
        <ele>40.008</ele>
        <time>2016-09-26T10:39:07Z</time>
      </trkpt>
      <trkpt lat="43.648172" lon="-8.045294">
        <ele>40.218</ele>
        <time>2016-09-26T10:39:08Z</time>
      </trkpt>
      <trkpt lat="43.648148" lon="-8.045301">
        <ele>40.333</ele>
        <time>2016-09-26T10:39:09Z</time>
      </trkpt>
      <trkpt lat="43.648123" lon="-8.045307">
        <ele>40.441</ele>
        <time>2016-09-26T10:39:10Z</time>
      </trkpt>
      <trkpt lat="43.648099" lon="-8.045312">
        <ele>40.437</ele>
        <time>2016-09-26T10:39:11Z</time>
      </trkpt>
      <trkpt lat="43.648075" lon="-8.045316">
        <ele>40.671</ele>
        <time>2016-09-26T10:39:12Z</time>
      </trkpt>
      <trkpt lat="43.648054" lon="-8.045320">
        <ele>40.763</ele>
        <time>2016-09-26T10:39:13Z</time>
      </trkpt>
      <trkpt lat="43.648034" lon="-8.045323">
        <ele>40.986</ele>
        <time>2016-09-26T10:39:14Z</time>
      </trkpt>
      <trkpt lat="43.648015" lon="-8.045329">
        <ele>41.094</ele>
        <time>2016-09-26T10:39:15Z</time>
      </trkpt>
      <trkpt lat="43.647992" lon="-8.045338">
        <ele>41.293</ele>
        <time>2016-09-26T10:39:16Z</time>
      </trkpt>
      <trkpt lat="43.647969" lon="-8.045350">
        <ele>41.365</ele>
        <time>2016-09-26T10:39:17Z</time>
      </trkpt>
      <trkpt lat="43.647949" lon="-8.045366">
        <ele>41.521</ele>
        <time>2016-09-26T10:39:18Z</time>
      </trkpt>
      <trkpt lat="43.647934" lon="-8.045382">
        <ele>41.808</ele>
        <time>2016-09-26T10:39:19Z</time>
      </trkpt>
      <trkpt lat="43.647918" lon="-8.045399">
        <ele>41.990</ele>
        <time>2016-09-26T10:39:20Z</time>
      </trkpt>
      <trkpt lat="43.647901" lon="-8.045416">
        <ele>42.175</ele>
        <time>2016-09-26T10:39:21Z</time>
      </trkpt>
      <trkpt lat="43.647882" lon="-8.045435">
        <ele>42.263</ele>
        <time>2016-09-26T10:39:22Z</time>
      </trkpt>
      <trkpt lat="43.647863" lon="-8.045455">
        <ele>42.129</ele>
        <time>2016-09-26T10:39:23Z</time>
      </trkpt>
      <trkpt lat="43.647843" lon="-8.045479">
        <ele>42.393</ele>
        <time>2016-09-26T10:39:24Z</time>
      </trkpt>
      <trkpt lat="43.647825" lon="-8.045503">
        <ele>42.415</ele>
        <time>2016-09-26T10:39:25Z</time>
      </trkpt>
      <trkpt lat="43.647806" lon="-8.045529">
        <ele>42.568</ele>
        <time>2016-09-26T10:39:26Z</time>
      </trkpt>
      <trkpt lat="43.647787" lon="-8.045552">
        <ele>42.846</ele>
        <time>2016-09-26T10:39:27Z</time>
      </trkpt>
      <trkpt lat="43.647769" lon="-8.045574">
        <ele>42.921</ele>
        <time>2016-09-26T10:39:28Z</time>
      </trkpt>
      <trkpt lat="43.647752" lon="-8.045599">
        <ele>43.241</ele>
        <time>2016-09-26T10:39:29Z</time>
      </trkpt>
      <trkpt lat="43.647735" lon="-8.045626">
        <ele>43.205</ele>
        <time>2016-09-26T10:39:30Z</time>
      </trkpt>
      <trkpt lat="43.647721" lon="-8.045654">
        <ele>43.508</ele>
        <time>2016-09-26T10:39:31Z</time>
      </trkpt>
      <trkpt lat="43.647709" lon="-8.045682">
        <ele>43.793</ele>
        <time>2016-09-26T10:39:32Z</time>
      </trkpt>
      <trkpt lat="43.647697" lon="-8.045713">
        <ele>43.858</ele>
        <time>2016-09-26T10:39:33Z</time>
      </trkpt>
      <trkpt lat="43.647684" lon="-8.045739">
        <ele>44.016</ele>
        <time>2016-09-26T10:39:34Z</time>
      </trkpt>
      <trkpt lat="43.647670" lon="-8.045767">
        <ele>44.152</ele>
        <time>2016-09-26T10:39:35Z</time>
      </trkpt>
      <trkpt lat="43.647657" lon="-8.045794">
        <ele>44.316</ele>
        <time>2016-09-26T10:39:36Z</time>
      </trkpt>
      <trkpt lat="43.647644" lon="-8.045823">
        <ele>44.528</ele>
        <time>2016-09-26T10:39:37Z</time>
      </trkpt>
      <trkpt lat="43.647633" lon="-8.045853">
        <ele>44.671</ele>
        <time>2016-09-26T10:39:38Z</time>
      </trkpt>
      <trkpt lat="43.647622" lon="-8.045882">
        <ele>44.989</ele>
        <time>2016-09-26T10:39:39Z</time>
      </trkpt>
      <trkpt lat="43.647613" lon="-8.045912">
        <ele>45.064</ele>
        <time>2016-09-26T10:39:40Z</time>
      </trkpt>
      <trkpt lat="43.647603" lon="-8.045941">
        <ele>45.206</ele>
        <time>2016-09-26T10:39:41Z</time>
      </trkpt>
      <trkpt lat="43.647596" lon="-8.045971">
        <ele>45.316</ele>
        <time>2016-09-26T10:39:42Z</time>
      </trkpt>
      <trkpt lat="43.647586" lon="-8.046001">
        <ele>45.508</ele>
        <time>2016-09-26T10:39:43Z</time>
      </trkpt>
      <trkpt lat="43.647576" lon="-8.046030">
        <ele>45.727</ele>
        <time>2016-09-26T10:39:44Z</time>
      </trkpt>
      <trkpt lat="43.647565" lon="-8.046060">
        <ele>45.892</ele>
        <time>2016-09-26T10:39:45Z</time>
      </trkpt>
      <trkpt lat="43.647555" lon="-8.046091">
        <ele>46.060</ele>
        <time>2016-09-26T10:39:46Z</time>
      </trkpt>
      <trkpt lat="43.647545" lon="-8.046121">
        <ele>46.176</ele>
        <time>2016-09-26T10:39:47Z</time>
      </trkpt>
      <trkpt lat="43.647534" lon="-8.046151">
        <ele>46.190</ele>
        <time>2016-09-26T10:39:48Z</time>
      </trkpt>
      <trkpt lat="43.647524" lon="-8.046181">
        <ele>46.382</ele>
        <time>2016-09-26T10:39:49Z</time>
      </trkpt>
      <trkpt lat="43.647514" lon="-8.046211">
        <ele>46.545</ele>
        <time>2016-09-26T10:39:50Z</time>
      </trkpt>
      <trkpt lat="43.647505" lon="-8.046241">
        <ele>46.873</ele>
        <time>2016-09-26T10:39:51Z</time>
      </trkpt>
      <trkpt lat="43.647496" lon="-8.046271">
        <ele>46.932</ele>
        <time>2016-09-26T10:39:52Z</time>
      </trkpt>
      <trkpt lat="43.647486" lon="-8.046300">
        <ele>46.992</ele>
        <time>2016-09-26T10:39:53Z</time>
      </trkpt>
      <trkpt lat="43.647476" lon="-8.046328">
        <ele>47.011</ele>
        <time>2016-09-26T10:39:54Z</time>
      </trkpt>
      <trkpt lat="43.647468" lon="-8.046357">
        <ele>47.108</ele>
        <time>2016-09-26T10:39:55Z</time>
      </trkpt>
      <trkpt lat="43.647459" lon="-8.046388">
        <ele>47.214</ele>
        <time>2016-09-26T10:39:56Z</time>
      </trkpt>
      <trkpt lat="43.647451" lon="-8.046418">
        <ele>47.389</ele>
        <time>2016-09-26T10:39:57Z</time>
      </trkpt>
      <trkpt lat="43.647441" lon="-8.046446">
        <ele>47.567</ele>
        <time>2016-09-26T10:39:58Z</time>
      </trkpt>
      <trkpt lat="43.647431" lon="-8.046474">
        <ele>47.743</ele>
        <time>2016-09-26T10:39:59Z</time>
      </trkpt>
      <trkpt lat="43.647422" lon="-8.046502">
        <ele>47.797</ele>
        <time>2016-09-26T10:40:00Z</time>
      </trkpt>
      <trkpt lat="43.647412" lon="-8.046531">
        <ele>47.949</ele>
        <time>2016-09-26T10:40:01Z</time>
      </trkpt>
      <trkpt lat="43.647402" lon="-8.046561">
        <ele>48.152</ele>
        <time>2016-09-26T10:40:02Z</time>
      </trkpt>
      <trkpt lat="43.647394" lon="-8.046591">
        <ele>48.270</ele>
        <time>2016-09-26T10:40:03Z</time>
      </trkpt>
      <trkpt lat="43.647385" lon="-8.046622">
        <ele>48.473</ele>
        <time>2016-09-26T10:40:04Z</time>
      </trkpt>
      <trkpt lat="43.647374" lon="-8.046652">
        <ele>48.685</ele>
        <time>2016-09-26T10:40:05Z</time>
      </trkpt>
      <trkpt lat="43.647365" lon="-8.046680">
        <ele>48.813</ele>
        <time>2016-09-26T10:40:06Z</time>
      </trkpt>
      <trkpt lat="43.647356" lon="-8.046709">
        <ele>48.908</ele>
        <time>2016-09-26T10:40:07Z</time>
      </trkpt>
      <trkpt lat="43.647347" lon="-8.046737">
        <ele>49.038</ele>
        <time>2016-09-26T10:40:08Z</time>
      </trkpt>
      <trkpt lat="43.647337" lon="-8.046766">
        <ele>49.093</ele>
        <time>2016-09-26T10:40:09Z</time>
      </trkpt>
      <trkpt lat="43.647328" lon="-8.046796">
        <ele>49.241</ele>
        <time>2016-09-26T10:40:10Z</time>
      </trkpt>
      <trkpt lat="43.647319" lon="-8.046826">
        <ele>49.347</ele>
        <time>2016-09-26T10:40:11Z</time>
      </trkpt>
      <trkpt lat="43.647309" lon="-8.046855">
        <ele>49.481</ele>
        <time>2016-09-26T10:40:12Z</time>
      </trkpt>
      <trkpt lat="43.647301" lon="-8.046884">
        <ele>49.633</ele>
        <time>2016-09-26T10:40:13Z</time>
      </trkpt>
      <trkpt lat="43.647293" lon="-8.046912">
        <ele>50.066</ele>
        <time>2016-09-26T10:40:14Z</time>
      </trkpt>
      <trkpt lat="43.647283" lon="-8.046941">
        <ele>50.144</ele>
        <time>2016-09-26T10:40:15Z</time>
      </trkpt>
      <trkpt lat="43.647273" lon="-8.046970">
        <ele>50.236</ele>
        <time>2016-09-26T10:40:16Z</time>
      </trkpt>
      <trkpt lat="43.647263" lon="-8.046997">
        <ele>50.317</ele>
        <time>2016-09-26T10:40:17Z</time>
      </trkpt>
      <trkpt lat="43.647254" lon="-8.047023">
        <ele>50.618</ele>
        <time>2016-09-26T10:40:18Z</time>
      </trkpt>
      <trkpt lat="43.647244" lon="-8.047049">
        <ele>50.708</ele>
        <time>2016-09-26T10:40:19Z</time>
      </trkpt>
      <trkpt lat="43.647234" lon="-8.047078">
        <ele>50.734</ele>
        <time>2016-09-26T10:40:20Z</time>
      </trkpt>
      <trkpt lat="43.647222" lon="-8.047106">
        <ele>51.049</ele>
        <time>2016-09-26T10:40:21Z</time>
      </trkpt>
      <trkpt lat="43.647211" lon="-8.047133">
        <ele>51.197</ele>
        <time>2016-09-26T10:40:22Z</time>
      </trkpt>
      <trkpt lat="43.647201" lon="-8.047161">
        <ele>51.263</ele>
        <time>2016-09-26T10:40:23Z</time>
      </trkpt>
      <trkpt lat="43.647192" lon="-8.047192">
        <ele>51.697</ele>
        <time>2016-09-26T10:40:24Z</time>
      </trkpt>
      <trkpt lat="43.647182" lon="-8.047223">
        <ele>51.879</ele>
        <time>2016-09-26T10:40:25Z</time>
      </trkpt>
      <trkpt lat="43.647173" lon="-8.047253">
        <ele>52.032</ele>
        <time>2016-09-26T10:40:26Z</time>
      </trkpt>
      <trkpt lat="43.647165" lon="-8.047284">
        <ele>52.260</ele>
        <time>2016-09-26T10:40:27Z</time>
      </trkpt>
      <trkpt lat="43.647156" lon="-8.047314">
        <ele>52.318</ele>
        <time>2016-09-26T10:40:28Z</time>
      </trkpt>
      <trkpt lat="43.647147" lon="-8.047343">
        <ele>52.298</ele>
        <time>2016-09-26T10:40:29Z</time>
      </trkpt>
      <trkpt lat="43.647137" lon="-8.047371">
        <ele>52.617</ele>
        <time>2016-09-26T10:40:30Z</time>
      </trkpt>
      <trkpt lat="43.647128" lon="-8.047402">
        <ele>52.808</ele>
        <time>2016-09-26T10:40:31Z</time>
      </trkpt>
      <trkpt lat="43.647116" lon="-8.047431">
        <ele>52.832</ele>
        <time>2016-09-26T10:40:32Z</time>
      </trkpt>
      <trkpt lat="43.647105" lon="-8.047459">
        <ele>53.087</ele>
        <time>2016-09-26T10:40:33Z</time>
      </trkpt>
      <trkpt lat="43.647096" lon="-8.047487">
        <ele>53.025</ele>
        <time>2016-09-26T10:40:34Z</time>
      </trkpt>
      <trkpt lat="43.647085" lon="-8.047514">
        <ele>53.261</ele>
        <time>2016-09-26T10:40:35Z</time>
      </trkpt>
      <trkpt lat="43.647074" lon="-8.047543">
        <ele>53.475</ele>
        <time>2016-09-26T10:40:36Z</time>
      </trkpt>
      <trkpt lat="43.647063" lon="-8.047573">
        <ele>53.497</ele>
        <time>2016-09-26T10:40:37Z</time>
      </trkpt>
      <trkpt lat="43.647054" lon="-8.047602">
        <ele>53.650</ele>
        <time>2016-09-26T10:40:38Z</time>
      </trkpt>
      <trkpt lat="43.647044" lon="-8.047631">
        <ele>53.828</ele>
        <time>2016-09-26T10:40:39Z</time>
      </trkpt>
      <trkpt lat="43.647033" lon="-8.047659">
        <ele>53.884</ele>
        <time>2016-09-26T10:40:40Z</time>
      </trkpt>
      <trkpt lat="43.647023" lon="-8.047687">
        <ele>54.107</ele>
        <time>2016-09-26T10:40:41Z</time>
      </trkpt>
      <trkpt lat="43.647014" lon="-8.047717">
        <ele>54.217</ele>
        <time>2016-09-26T10:40:42Z</time>
      </trkpt>
      <trkpt lat="43.647005" lon="-8.047747">
        <ele>54.308</ele>
        <time>2016-09-26T10:40:43Z</time>
      </trkpt>
      <trkpt lat="43.646996" lon="-8.047779">
        <ele>54.419</ele>
        <time>2016-09-26T10:40:44Z</time>
      </trkpt>
      <trkpt lat="43.646987" lon="-8.047810">
        <ele>54.514</ele>
        <time>2016-09-26T10:40:45Z</time>
      </trkpt>
      <trkpt lat="43.646977" lon="-8.047841">
        <ele>54.752</ele>
        <time>2016-09-26T10:40:46Z</time>
      </trkpt>
      <trkpt lat="43.646966" lon="-8.047869">
        <ele>54.948</ele>
        <time>2016-09-26T10:40:47Z</time>
      </trkpt>
      <trkpt lat="43.646955" lon="-8.047899">
        <ele>55.272</ele>
        <time>2016-09-26T10:40:48Z</time>
      </trkpt>
      <trkpt lat="43.646945" lon="-8.047929">
        <ele>55.434</ele>
        <time>2016-09-26T10:40:49Z</time>
      </trkpt>
      <trkpt lat="43.646934" lon="-8.047958">
        <ele>55.697</ele>
        <time>2016-09-26T10:40:50Z</time>
      </trkpt>
      <trkpt lat="43.646923" lon="-8.047987">
        <ele>55.795</ele>
        <time>2016-09-26T10:40:51Z</time>
      </trkpt>
      <trkpt lat="43.646914" lon="-8.048020">
        <ele>55.786</ele>
        <time>2016-09-26T10:40:52Z</time>
      </trkpt>
      <trkpt lat="43.646904" lon="-8.048050">
        <ele>55.860</ele>
        <time>2016-09-26T10:40:53Z</time>
      </trkpt>
      <trkpt lat="43.646893" lon="-8.048079">
        <ele>55.926</ele>
        <time>2016-09-26T10:40:54Z</time>
      </trkpt>
      <trkpt lat="43.646882" lon="-8.048107">
        <ele>56.108</ele>
        <time>2016-09-26T10:40:55Z</time>
      </trkpt>
      <trkpt lat="43.646870" lon="-8.048134">
        <ele>56.169</ele>
        <time>2016-09-26T10:40:56Z</time>
      </trkpt>
      <trkpt lat="43.646858" lon="-8.048162">
        <ele>56.314</ele>
        <time>2016-09-26T10:40:57Z</time>
      </trkpt>
      <trkpt lat="43.646848" lon="-8.048190">
        <ele>56.422</ele>
        <time>2016-09-26T10:40:58Z</time>
      </trkpt>
      <trkpt lat="43.646836" lon="-8.048216">
        <ele>56.518</ele>
        <time>2016-09-26T10:40:59Z</time>
      </trkpt>
      <trkpt lat="43.646824" lon="-8.048244">
        <ele>56.652</ele>
        <time>2016-09-26T10:41:00Z</time>
      </trkpt>
      <trkpt lat="43.646812" lon="-8.048271">
        <ele>57.094</ele>
        <time>2016-09-26T10:41:01Z</time>
      </trkpt>
      <trkpt lat="43.646801" lon="-8.048298">
        <ele>57.377</ele>
        <time>2016-09-26T10:41:02Z</time>
      </trkpt>
      <trkpt lat="43.646789" lon="-8.048326">
        <ele>57.435</ele>
        <time>2016-09-26T10:41:03Z</time>
      </trkpt>
      <trkpt lat="43.646777" lon="-8.048353">
        <ele>57.417</ele>
        <time>2016-09-26T10:41:04Z</time>
      </trkpt>
      <trkpt lat="43.646765" lon="-8.048381">
        <ele>57.587</ele>
        <time>2016-09-26T10:41:05Z</time>
      </trkpt>
      <trkpt lat="43.646751" lon="-8.048408">
        <ele>57.715</ele>
        <time>2016-09-26T10:41:06Z</time>
      </trkpt>
      <trkpt lat="43.646739" lon="-8.048436">
        <ele>57.908</ele>
        <time>2016-09-26T10:41:07Z</time>
      </trkpt>
      <trkpt lat="43.646726" lon="-8.048464">
        <ele>57.872</ele>
        <time>2016-09-26T10:41:08Z</time>
      </trkpt>
      <trkpt lat="43.646713" lon="-8.048491">
        <ele>58.037</ele>
        <time>2016-09-26T10:41:09Z</time>
      </trkpt>
      <trkpt lat="43.646699" lon="-8.048517">
        <ele>57.985</ele>
        <time>2016-09-26T10:41:10Z</time>
      </trkpt>
      <trkpt lat="43.646685" lon="-8.048542">
        <ele>58.251</ele>
        <time>2016-09-26T10:41:11Z</time>
      </trkpt>
      <trkpt lat="43.646670" lon="-8.048567">
        <ele>58.275</ele>
        <time>2016-09-26T10:41:12Z</time>
      </trkpt>
      <trkpt lat="43.646657" lon="-8.048592">
        <ele>58.317</ele>
        <time>2016-09-26T10:41:13Z</time>
      </trkpt>
      <trkpt lat="43.646643" lon="-8.048619">
        <ele>58.660</ele>
        <time>2016-09-26T10:41:14Z</time>
      </trkpt>
      <trkpt lat="43.646629" lon="-8.048645">
        <ele>58.848</ele>
        <time>2016-09-26T10:41:15Z</time>
      </trkpt>
      <trkpt lat="43.646614" lon="-8.048671">
        <ele>59.048</ele>
        <time>2016-09-26T10:41:16Z</time>
      </trkpt>
      <trkpt lat="43.646601" lon="-8.048695">
        <ele>58.961</ele>
        <time>2016-09-26T10:41:17Z</time>
      </trkpt>
      <trkpt lat="43.646587" lon="-8.048720">
        <ele>59.117</ele>
        <time>2016-09-26T10:41:18Z</time>
      </trkpt>
      <trkpt lat="43.646571" lon="-8.048745">
        <ele>59.208</ele>
        <time>2016-09-26T10:41:19Z</time>
      </trkpt>
      <trkpt lat="43.646555" lon="-8.048768">
        <ele>59.545</ele>
        <time>2016-09-26T10:41:20Z</time>
      </trkpt>
      <trkpt lat="43.646539" lon="-8.048790">
        <ele>59.760</ele>
        <time>2016-09-26T10:41:21Z</time>
      </trkpt>
      <trkpt lat="43.646523" lon="-8.048811">
        <ele>59.738</ele>
        <time>2016-09-26T10:41:22Z</time>
      </trkpt>
      <trkpt lat="43.646506" lon="-8.048831">
        <ele>59.934</ele>
        <time>2016-09-26T10:41:23Z</time>
      </trkpt>
      <trkpt lat="43.646488" lon="-8.048851">
        <ele>60.218</ele>
        <time>2016-09-26T10:41:24Z</time>
      </trkpt>
      <trkpt lat="43.646470" lon="-8.048868">
        <ele>60.420</ele>
        <time>2016-09-26T10:41:25Z</time>
      </trkpt>
      <trkpt lat="43.646451" lon="-8.048884">
        <ele>60.523</ele>
        <time>2016-09-26T10:41:26Z</time>
      </trkpt>
      <trkpt lat="43.646430" lon="-8.048901">
        <ele>60.791</ele>
        <time>2016-09-26T10:41:27Z</time>
      </trkpt>
      <trkpt lat="43.646409" lon="-8.048918">
        <ele>60.863</ele>
        <time>2016-09-26T10:41:28Z</time>
      </trkpt>
      <trkpt lat="43.646390" lon="-8.048935">
        <ele>60.844</ele>
        <time>2016-09-26T10:41:29Z</time>
      </trkpt>
      <trkpt lat="43.646370" lon="-8.048951">
        <ele>60.918</ele>
        <time>2016-09-26T10:41:30Z</time>
      </trkpt>
      <trkpt lat="43.646350" lon="-8.048965">
        <ele>61.208</ele>
        <time>2016-09-26T10:41:31Z</time>
      </trkpt>
      <trkpt lat="43.646330" lon="-8.048978">
        <ele>61.287</ele>
        <time>2016-09-26T10:41:32Z</time>
      </trkpt>
      <trkpt lat="43.646311" lon="-8.048992">
        <ele>61.332</ele>
        <time>2016-09-26T10:41:33Z</time>
      </trkpt>
      <trkpt lat="43.646290" lon="-8.049007">
        <ele>61.440</ele>
        <time>2016-09-26T10:41:34Z</time>
      </trkpt>
      <trkpt lat="43.646270" lon="-8.049021">
        <ele>61.486</ele>
        <time>2016-09-26T10:41:35Z</time>
      </trkpt>
      <trkpt lat="43.646250" lon="-8.049037">
        <ele>61.430</ele>
        <time>2016-09-26T10:41:36Z</time>
      </trkpt>
      <trkpt lat="43.646228" lon="-8.049053">
        <ele>61.472</ele>
        <time>2016-09-26T10:41:37Z</time>
      </trkpt>
      <trkpt lat="43.646205" lon="-8.049067">
        <ele>61.585</ele>
        <time>2016-09-26T10:41:38Z</time>
      </trkpt>
      <trkpt lat="43.646183" lon="-8.049081">
        <ele>61.793</ele>
        <time>2016-09-26T10:41:39Z</time>
      </trkpt>
      <trkpt lat="43.646162" lon="-8.049095">
        <ele>62.013</ele>
        <time>2016-09-26T10:41:40Z</time>
      </trkpt>
      <trkpt lat="43.646141" lon="-8.049111">
        <ele>61.943</ele>
        <time>2016-09-26T10:41:41Z</time>
      </trkpt>
      <trkpt lat="43.646121" lon="-8.049126">
        <ele>62.107</ele>
        <time>2016-09-26T10:41:42Z</time>
      </trkpt>
      <trkpt lat="43.646102" lon="-8.049141">
        <ele>62.208</ele>
        <time>2016-09-26T10:41:43Z</time>
      </trkpt>
      <trkpt lat="43.646082" lon="-8.049154">
        <ele>62.322</ele>
        <time>2016-09-26T10:41:44Z</time>
      </trkpt>
      <trkpt lat="43.646061" lon="-8.049166">
        <ele>62.467</ele>
        <time>2016-09-26T10:41:45Z</time>
      </trkpt>
      <trkpt lat="43.646041" lon="-8.049179">
        <ele>62.595</ele>
        <time>2016-09-26T10:41:46Z</time>
      </trkpt>
      <trkpt lat="43.646021" lon="-8.049194">
        <ele>62.791</ele>
        <time>2016-09-26T10:41:47Z</time>
      </trkpt>
      <trkpt lat="43.646000" lon="-8.049208">
        <ele>62.845</ele>
        <time>2016-09-26T10:41:48Z</time>
      </trkpt>
      <trkpt lat="43.645980" lon="-8.049222">
        <ele>62.867</ele>
        <time>2016-09-26T10:41:49Z</time>
      </trkpt>
      <trkpt lat="43.645962" lon="-8.049236">
        <ele>63.050</ele>
        <time>2016-09-26T10:41:50Z</time>
      </trkpt>
      <trkpt lat="43.645945" lon="-8.049248">
        <ele>63.218</ele>
        <time>2016-09-26T10:41:51Z</time>
      </trkpt>
      <trkpt lat="43.645929" lon="-8.049258">
        <ele>63.326</ele>
        <time>2016-09-26T10:41:52Z</time>
      </trkpt>
      <trkpt lat="43.645909" lon="-8.049272">
        <ele>63.547</ele>
        <time>2016-09-26T10:41:53Z</time>
      </trkpt>
      <trkpt lat="43.645886" lon="-8.049288">
        <ele>63.711</ele>
        <time>2016-09-26T10:41:54Z</time>
      </trkpt>
      <trkpt lat="43.645864" lon="-8.049303">
        <ele>63.608</ele>
        <time>2016-09-26T10:41:55Z</time>
      </trkpt>
      <trkpt lat="43.645843" lon="-8.049316">
        <ele>63.923</ele>
        <time>2016-09-26T10:41:56Z</time>
      </trkpt>
      <trkpt lat="43.645823" lon="-8.049329">
        <ele>64.118</ele>
        <time>2016-09-26T10:41:57Z</time>
      </trkpt>
      <trkpt lat="43.645803" lon="-8.049344">
        <ele>64.226</ele>
        <time>2016-09-26T10:41:58Z</time>
      </trkpt>
      <trkpt lat="43.645782" lon="-8.049360">
        <ele>64.342</ele>
        <time>2016-09-26T10:41:59Z</time>
      </trkpt>
      <trkpt lat="43.645763" lon="-8.049374">
        <ele>64.516</ele>
        <time>2016-09-26T10:42:00Z</time>
      </trkpt>
      <trkpt lat="43.645741" lon="-8.049388">
        <ele>64.688</ele>
        <time>2016-09-26T10:42:01Z</time>
      </trkpt>
      <trkpt lat="43.645718" lon="-8.049405">
        <ele>64.841</ele>
        <time>2016-09-26T10:42:02Z</time>
      </trkpt>
      <trkpt lat="43.645698" lon="-8.049421">
        <ele>65.159</ele>
        <time>2016-09-26T10:42:03Z</time>
      </trkpt>
      <trkpt lat="43.645677" lon="-8.049438">
        <ele>65.264</ele>
        <time>2016-09-26T10:42:04Z</time>
      </trkpt>
      <trkpt lat="43.645658" lon="-8.049455">
        <ele>65.306</ele>
        <time>2016-09-26T10:42:05Z</time>
      </trkpt>
      <trkpt lat="43.645642" lon="-8.049472">
        <ele>65.416</ele>
        <time>2016-09-26T10:42:06Z</time>
      </trkpt>
      <trkpt lat="43.645625" lon="-8.049491">
        <ele>65.508</ele>
        <time>2016-09-26T10:42:07Z</time>
      </trkpt>
      <trkpt lat="43.645610" lon="-8.049512">
        <ele>65.627</ele>
        <time>2016-09-26T10:42:08Z</time>
      </trkpt>
      <trkpt lat="43.645595" lon="-8.049531">
        <ele>65.932</ele>
        <time>2016-09-26T10:42:09Z</time>
      </trkpt>
      <trkpt lat="43.645577" lon="-8.049550">
        <ele>65.850</ele>
        <time>2016-09-26T10:42:10Z</time>
      </trkpt>
      <trkpt lat="43.645557" lon="-8.049567">
        <ele>66.286</ele>
        <time>2016-09-26T10:42:11Z</time>
      </trkpt>
      <trkpt lat="43.645537" lon="-8.049585">
        <ele>66.390</ele>
        <time>2016-09-26T10:42:12Z</time>
      </trkpt>
      <trkpt lat="43.645518" lon="-8.049604">
        <ele>66.492</ele>
        <time>2016-09-26T10:42:13Z</time>
      </trkpt>
      <trkpt lat="43.645499" lon="-8.049622">
        <ele>66.635</ele>
        <time>2016-09-26T10:42:14Z</time>
      </trkpt>
      <trkpt lat="43.645481" lon="-8.049641">
        <ele>66.783</ele>
        <time>2016-09-26T10:42:15Z</time>
      </trkpt>
      <trkpt lat="43.645460" lon="-8.049660">
        <ele>66.839</ele>
        <time>2016-09-26T10:42:16Z</time>
      </trkpt>
      <trkpt lat="43.645441" lon="-8.049680">
        <ele>66.901</ele>
        <time>2016-09-26T10:42:17Z</time>
      </trkpt>
      <trkpt lat="43.645424" lon="-8.049699">
        <ele>67.121</ele>
        <time>2016-09-26T10:42:18Z</time>
      </trkpt>
      <trkpt lat="43.645406" lon="-8.049718">
        <ele>67.308</ele>
        <time>2016-09-26T10:42:19Z</time>
      </trkpt>
      <trkpt lat="43.645387" lon="-8.049737">
        <ele>67.514</ele>
        <time>2016-09-26T10:42:20Z</time>
      </trkpt>
      <trkpt lat="43.645368" lon="-8.049756">
        <ele>67.629</ele>
        <time>2016-09-26T10:42:21Z</time>
      </trkpt>
      <trkpt lat="43.645347" lon="-8.049775">
        <ele>67.637</ele>
        <time>2016-09-26T10:42:22Z</time>
      </trkpt>
      <trkpt lat="43.645331" lon="-8.049796">
        <ele>67.893</ele>
        <time>2016-09-26T10:42:23Z</time>
      </trkpt>
      <trkpt lat="43.645318" lon="-8.049819">
        <ele>68.167</ele>
        <time>2016-09-26T10:42:24Z</time>
      </trkpt>
      <trkpt lat="43.645305" lon="-8.049843">
        <ele>68.249</ele>
        <time>2016-09-26T10:42:25Z</time>
      </trkpt>
      <trkpt lat="43.645288" lon="-8.049865">
        <ele>68.312</ele>
        <time>2016-09-26T10:42:26Z</time>
      </trkpt>
      <trkpt lat="43.645269" lon="-8.049887">
        <ele>68.570</ele>
        <time>2016-09-26T10:42:27Z</time>
      </trkpt>
      <trkpt lat="43.645251" lon="-8.049910">
        <ele>68.742</ele>
        <time>2016-09-26T10:42:28Z</time>
      </trkpt>
      <trkpt lat="43.645232" lon="-8.049932">
        <ele>68.922</ele>
        <time>2016-09-26T10:42:29Z</time>
      </trkpt>
      <trkpt lat="43.645213" lon="-8.049954">
        <ele>69.114</ele>
        <time>2016-09-26T10:42:30Z</time>
      </trkpt>
      <trkpt lat="43.645194" lon="-8.049976">
        <ele>69.308</ele>
        <time>2016-09-26T10:42:31Z</time>
      </trkpt>
      <trkpt lat="43.645176" lon="-8.049999">
        <ele>69.435</ele>
        <time>2016-09-26T10:42:32Z</time>
      </trkpt>
      <trkpt lat="43.645160" lon="-8.050023">
        <ele>69.660</ele>
        <time>2016-09-26T10:42:33Z</time>
      </trkpt>
      <trkpt lat="43.645142" lon="-8.050046">
        <ele>69.888</ele>
        <time>2016-09-26T10:42:34Z</time>
      </trkpt>
      <trkpt lat="43.645125" lon="-8.050071">
        <ele>70.084</ele>
        <time>2016-09-26T10:42:35Z</time>
      </trkpt>
      <trkpt lat="43.645109" lon="-8.050097">
        <ele>70.248</ele>
        <time>2016-09-26T10:42:36Z</time>
      </trkpt>
      <trkpt lat="43.645092" lon="-8.050122">
        <ele>70.390</ele>
        <time>2016-09-26T10:42:37Z</time>
      </trkpt>
      <trkpt lat="43.645076" lon="-8.050147">
        <ele>70.443</ele>
        <time>2016-09-26T10:42:38Z</time>
      </trkpt>
      <trkpt lat="43.645059" lon="-8.050173">
        <ele>70.531</ele>
        <time>2016-09-26T10:42:39Z</time>
      </trkpt>
      <trkpt lat="43.645042" lon="-8.050199">
        <ele>70.777</ele>
        <time>2016-09-26T10:42:40Z</time>
      </trkpt>
      <trkpt lat="43.645024" lon="-8.050225">
        <ele>70.761</ele>
        <time>2016-09-26T10:42:41Z</time>
      </trkpt>
      <trkpt lat="43.645008" lon="-8.050249">
        <ele>70.827</ele>
        <time>2016-09-26T10:42:42Z</time>
      </trkpt>
      <trkpt lat="43.644992" lon="-8.050275">
        <ele>71.008</ele>
        <time>2016-09-26T10:42:43Z</time>
      </trkpt>
      <trkpt lat="43.644976" lon="-8.050300">
        <ele>71.298</ele>
        <time>2016-09-26T10:42:44Z</time>
      </trkpt>
      <trkpt lat="43.644961" lon="-8.050325">
        <ele>71.343</ele>
        <time>2016-09-26T10:42:45Z</time>
      </trkpt>
      <trkpt lat="43.644947" lon="-8.050350">
        <ele>71.411</ele>
        <time>2016-09-26T10:42:46Z</time>
      </trkpt>
      <trkpt lat="43.644932" lon="-8.050374">
        <ele>71.357</ele>
        <time>2016-09-26T10:42:47Z</time>
      </trkpt>
      <trkpt lat="43.644915" lon="-8.050400">
        <ele>71.531</ele>
        <time>2016-09-26T10:42:48Z</time>
      </trkpt>
      <trkpt lat="43.644899" lon="-8.050426">
        <ele>71.753</ele>
        <time>2016-09-26T10:42:49Z</time>
      </trkpt>
      <trkpt lat="43.644885" lon="-8.050453">
        <ele>71.836</ele>
        <time>2016-09-26T10:42:50Z</time>
      </trkpt>
      <trkpt lat="43.644870" lon="-8.050479">
        <ele>72.264</ele>
        <time>2016-09-26T10:42:51Z</time>
      </trkpt>
      <trkpt lat="43.644855" lon="-8.050506">
        <ele>72.116</ele>
        <time>2016-09-26T10:42:52Z</time>
      </trkpt>
      <trkpt lat="43.644841" lon="-8.050531">
        <ele>72.476</ele>
        <time>2016-09-26T10:42:53Z</time>
      </trkpt>
      <trkpt lat="43.644828" lon="-8.050557">
        <ele>72.713</ele>
        <time>2016-09-26T10:42:54Z</time>
      </trkpt>
      <trkpt lat="43.644812" lon="-8.050580">
        <ele>73.008</ele>
        <time>2016-09-26T10:42:55Z</time>
      </trkpt>
      <trkpt lat="43.644797" lon="-8.050605">
        <ele>73.222</ele>
        <time>2016-09-26T10:42:56Z</time>
      </trkpt>
      <trkpt lat="43.644783" lon="-8.050628">
        <ele>73.357</ele>
        <time>2016-09-26T10:42:57Z</time>
      </trkpt>
      <trkpt lat="43.644768" lon="-8.050653">
        <ele>73.415</ele>
        <time>2016-09-26T10:42:58Z</time>
      </trkpt>
      <trkpt lat="43.644754" lon="-8.050678">
        <ele>73.561</ele>
        <time>2016-09-26T10:42:59Z</time>
      </trkpt>
      <trkpt lat="43.644741" lon="-8.050701">
        <ele>73.645</ele>
        <time>2016-09-26T10:43:00Z</time>
      </trkpt>
      <trkpt lat="43.644729" lon="-8.050724">
        <ele>73.777</ele>
        <time>2016-09-26T10:43:01Z</time>
      </trkpt>
      <trkpt lat="43.644716" lon="-8.050746">
        <ele>73.920</ele>
        <time>2016-09-26T10:43:02Z</time>
      </trkpt>
      <trkpt lat="43.644702" lon="-8.050770">
        <ele>74.038</ele>
        <time>2016-09-26T10:43:03Z</time>
      </trkpt>
      <trkpt lat="43.644687" lon="-8.050795">
        <ele>74.364</ele>
        <time>2016-09-26T10:43:04Z</time>
      </trkpt>
      <trkpt lat="43.644672" lon="-8.050820">
        <ele>74.306</ele>
        <time>2016-09-26T10:43:05Z</time>
      </trkpt>
      <trkpt lat="43.644658" lon="-8.050844">
        <ele>74.316</ele>
        <time>2016-09-26T10:43:06Z</time>
      </trkpt>
      <trkpt lat="43.644646" lon="-8.050867">
        <ele>74.508</ele>
        <time>2016-09-26T10:43:07Z</time>
      </trkpt>
      <trkpt lat="43.644633" lon="-8.050894">
        <ele>74.767</ele>
        <time>2016-09-26T10:43:08Z</time>
      </trkpt>
      <trkpt lat="43.644620" lon="-8.050920">
        <ele>74.872</ele>
        <time>2016-09-26T10:43:09Z</time>
      </trkpt>
      <trkpt lat="43.644608" lon="-8.050941">
        <ele>75.070</ele>
        <time>2016-09-26T10:43:10Z</time>
      </trkpt>
      <trkpt lat="43.644599" lon="-8.050963">
        <ele>75.276</ele>
        <time>2016-09-26T10:43:11Z</time>
      </trkpt>
      <trkpt lat="43.644586" lon="-8.050986">
        <ele>75.460</ele>
        <time>2016-09-26T10:43:12Z</time>
      </trkpt>
      <trkpt lat="43.644574" lon="-8.051007">
        <ele>75.432</ele>
        <time>2016-09-26T10:43:13Z</time>
      </trkpt>
      <trkpt lat="43.644562" lon="-8.051024">
        <ele>75.435</ele>
        <time>2016-09-26T10:43:14Z</time>
      </trkpt>
      <trkpt lat="43.644548" lon="-8.051042">
        <ele>75.513</ele>
        <time>2016-09-26T10:43:15Z</time>
      </trkpt>
      <trkpt lat="43.644539" lon="-8.051066">
        <ele>75.566</ele>
        <time>2016-09-26T10:43:16Z</time>
      </trkpt>
      <trkpt lat="43.644535" lon="-8.051087">
        <ele>75.629</ele>
        <time>2016-09-26T10:43:17Z</time>
      </trkpt>
      <trkpt lat="43.644530" lon="-8.051100">
        <ele>75.821</ele>
        <time>2016-09-26T10:43:18Z</time>
      </trkpt>
      <trkpt lat="43.644527" lon="-8.051111">
        <ele>75.808</ele>
        <time>2016-09-26T10:43:19Z</time>
      </trkpt>
      <trkpt lat="43.644525" lon="-8.051114">
        <ele>75.927</ele>
        <time>2016-09-26T10:43:20Z</time>
      </trkpt>
      <trkpt lat="43.644523" lon="-8.051119">
        <ele>75.712</ele>
        <time>2016-09-26T10:43:21Z</time>
      </trkpt>
      <trkpt lat="43.644519" lon="-8.051122">
        <ele>75.850</ele>
        <time>2016-09-26T10:43:22Z</time>
      </trkpt>
      <trkpt lat="43.644511" lon="-8.051130">
        <ele>75.826</ele>
        <time>2016-09-26T10:43:23Z</time>
      </trkpt>
      <trkpt lat="43.644508" lon="-8.051134">
        <ele>76.010</ele>
        <time>2016-09-26T10:43:24Z</time>
      </trkpt>
      <trkpt lat="43.644508" lon="-8.051134">
        <ele>76.022</ele>
        <time>2016-09-26T10:43:24Z</time>
      </trkpt>
      <trkpt lat="43.644508" lon="-8.051134">
        <ele>76.035</ele>
        <time>2016-09-26T10:43:24Z</time>
      </trkpt>
      <trkpt lat="43.644455" lon="-8.051251">
        <ele>75.913</ele>
        <time>2016-09-26T10:44:25Z</time>
      </trkpt>
      <trkpt lat="43.644426" lon="-8.051258">
        <ele>75.927</ele>
        <time>2016-09-26T10:44:26Z</time>
      </trkpt>
      <trkpt lat="43.644403" lon="-8.051273">
        <ele>75.968</ele>
        <time>2016-09-26T10:44:27Z</time>
      </trkpt>
      <trkpt lat="43.644384" lon="-8.051296">
        <ele>76.114</ele>
        <time>2016-09-26T10:44:28Z</time>
      </trkpt>
      <trkpt lat="43.644364" lon="-8.051320">
        <ele>76.108</ele>
        <time>2016-09-26T10:44:29Z</time>
      </trkpt>
      <trkpt lat="43.644342" lon="-8.051346">
        <ele>76.063</ele>
        <time>2016-09-26T10:44:30Z</time>
      </trkpt>
      <trkpt lat="43.644321" lon="-8.051369">
        <ele>76.148</ele>
        <time>2016-09-26T10:44:31Z</time>
      </trkpt>
      <trkpt lat="43.644300" lon="-8.051393">
        <ele>76.266</ele>
        <time>2016-09-26T10:44:32Z</time>
      </trkpt>
      <trkpt lat="43.644278" lon="-8.051418">
        <ele>76.352</ele>
        <time>2016-09-26T10:44:33Z</time>
      </trkpt>
      <trkpt lat="43.644260" lon="-8.051445">
        <ele>76.296</ele>
        <time>2016-09-26T10:44:34Z</time>
      </trkpt>
      <trkpt lat="43.644242" lon="-8.051471">
        <ele>76.238</ele>
        <time>2016-09-26T10:44:35Z</time>
      </trkpt>
      <trkpt lat="43.644222" lon="-8.051494">
        <ele>76.211</ele>
        <time>2016-09-26T10:44:36Z</time>
      </trkpt>
      <trkpt lat="43.644203" lon="-8.051518">
        <ele>76.219</ele>
        <time>2016-09-26T10:44:37Z</time>
      </trkpt>
      <trkpt lat="43.644182" lon="-8.051542">
        <ele>76.378</ele>
        <time>2016-09-26T10:44:38Z</time>
      </trkpt>
      <trkpt lat="43.644160" lon="-8.051559">
        <ele>76.233</ele>
        <time>2016-09-26T10:44:39Z</time>
      </trkpt>
      <trkpt lat="43.644136" lon="-8.051577">
        <ele>76.126</ele>
        <time>2016-09-26T10:44:40Z</time>
      </trkpt>
      <trkpt lat="43.644110" lon="-8.051591">
        <ele>76.108</ele>
        <time>2016-09-26T10:44:41Z</time>
      </trkpt>
      <trkpt lat="43.644079" lon="-8.051601">
        <ele>76.278</ele>
        <time>2016-09-26T10:44:42Z</time>
      </trkpt>
      <trkpt lat="43.644044" lon="-8.051606">
        <ele>76.053</ele>
        <time>2016-09-26T10:44:43Z</time>
      </trkpt>
      <trkpt lat="43.644005" lon="-8.051609">
        <ele>75.921</ele>
        <time>2016-09-26T10:44:44Z</time>
      </trkpt>
      <trkpt lat="43.643962" lon="-8.051609">
        <ele>76.167</ele>
        <time>2016-09-26T10:44:45Z</time>
      </trkpt>
      <trkpt lat="43.643918" lon="-8.051604">
        <ele>76.081</ele>
        <time>2016-09-26T10:44:46Z</time>
      </trkpt>
      <trkpt lat="43.643870" lon="-8.051592">
        <ele>75.993</ele>
        <time>2016-09-26T10:44:47Z</time>
      </trkpt>
      <trkpt lat="43.643822" lon="-8.051571">
        <ele>75.616</ele>
        <time>2016-09-26T10:44:48Z</time>
      </trkpt>
      <trkpt lat="43.643774" lon="-8.051542">
        <ele>75.664</ele>
        <time>2016-09-26T10:44:49Z</time>
      </trkpt>
      <trkpt lat="43.643726" lon="-8.051504">
        <ele>75.478</ele>
        <time>2016-09-26T10:44:50Z</time>
      </trkpt>
      <trkpt lat="43.643680" lon="-8.051456">
        <ele>75.233</ele>
        <time>2016-09-26T10:44:51Z</time>
      </trkpt>
      <trkpt lat="43.643640" lon="-8.051395">
        <ele>75.226</ele>
        <time>2016-09-26T10:44:52Z</time>
      </trkpt>
      <trkpt lat="43.643603" lon="-8.051321">
        <ele>74.908</ele>
        <time>2016-09-26T10:44:53Z</time>
      </trkpt>
      <trkpt lat="43.643567" lon="-8.051239">
        <ele>74.738</ele>
        <time>2016-09-26T10:44:54Z</time>
      </trkpt>
      <trkpt lat="43.643530" lon="-8.051149">
        <ele>74.493</ele>
        <time>2016-09-26T10:44:55Z</time>
      </trkpt>
      <trkpt lat="43.643492" lon="-8.051054">
        <ele>74.251</ele>
        <time>2016-09-26T10:44:56Z</time>
      </trkpt>
      <trkpt lat="43.643453" lon="-8.050954">
        <ele>73.977</ele>
        <time>2016-09-26T10:44:57Z</time>
      </trkpt>
      <trkpt lat="43.643413" lon="-8.050850">
        <ele>73.541</ele>
        <time>2016-09-26T10:44:58Z</time>
      </trkpt>
      <trkpt lat="43.643375" lon="-8.050744">
        <ele>73.263</ele>
        <time>2016-09-26T10:44:59Z</time>
      </trkpt>
      <trkpt lat="43.643336" lon="-8.050636">
        <ele>72.696</ele>
        <time>2016-09-26T10:45:00Z</time>
      </trkpt>
      <trkpt lat="43.643297" lon="-8.050529">
        <ele>72.164</ele>
        <time>2016-09-26T10:45:01Z</time>
      </trkpt>
      <trkpt lat="43.643257" lon="-8.050421">
        <ele>71.394</ele>
        <time>2016-09-26T10:45:02Z</time>
      </trkpt>
      <trkpt lat="43.643209" lon="-8.050310">
        <ele>70.957</ele>
        <time>2016-09-26T10:45:03Z</time>
      </trkpt>
      <trkpt lat="43.643161" lon="-8.050195">
        <ele>70.222</ele>
        <time>2016-09-26T10:45:04Z</time>
      </trkpt>
      <trkpt lat="43.643115" lon="-8.050076">
        <ele>69.808</ele>
        <time>2016-09-26T10:45:05Z</time>
      </trkpt>
      <trkpt lat="43.643067" lon="-8.049955">
        <ele>69.250</ele>
        <time>2016-09-26T10:45:06Z</time>
      </trkpt>
      <trkpt lat="43.643021" lon="-8.049834">
        <ele>68.655</ele>
        <time>2016-09-26T10:45:07Z</time>
      </trkpt>
      <trkpt lat="43.642976" lon="-8.049712">
        <ele>68.023</ele>
        <time>2016-09-26T10:45:08Z</time>
      </trkpt>
      <trkpt lat="43.642932" lon="-8.049589">
        <ele>67.499</ele>
        <time>2016-09-26T10:45:09Z</time>
      </trkpt>
      <trkpt lat="43.642891" lon="-8.049464">
        <ele>66.823</ele>
        <time>2016-09-26T10:45:10Z</time>
      </trkpt>
      <trkpt lat="43.642854" lon="-8.049335">
        <ele>66.115</ele>
        <time>2016-09-26T10:45:11Z</time>
      </trkpt>
      <trkpt lat="43.642821" lon="-8.049202">
        <ele>65.328</ele>
        <time>2016-09-26T10:45:12Z</time>
      </trkpt>
      <trkpt lat="43.642795" lon="-8.049066">
        <ele>64.746</ele>
        <time>2016-09-26T10:45:13Z</time>
      </trkpt>
      <trkpt lat="43.642776" lon="-8.048929">
        <ele>64.266</ele>
        <time>2016-09-26T10:45:14Z</time>
      </trkpt>
      <trkpt lat="43.642765" lon="-8.048791">
        <ele>63.629</ele>
        <time>2016-09-26T10:45:15Z</time>
      </trkpt>
      <trkpt lat="43.642762" lon="-8.048650">
        <ele>62.921</ele>
        <time>2016-09-26T10:45:16Z</time>
      </trkpt>
      <trkpt lat="43.642768" lon="-8.048505">
        <ele>62.408</ele>
        <time>2016-09-26T10:45:17Z</time>
      </trkpt>
      <trkpt lat="43.642779" lon="-8.048358">
        <ele>61.857</ele>
        <time>2016-09-26T10:45:18Z</time>
      </trkpt>
      <trkpt lat="43.642793" lon="-8.048209">
        <ele>61.392</ele>
        <time>2016-09-26T10:45:19Z</time>
      </trkpt>
      <trkpt lat="43.642811" lon="-8.048058">
        <ele>60.630</ele>
        <time>2016-09-26T10:45:20Z</time>
      </trkpt>
      <trkpt lat="43.642832" lon="-8.047906">
        <ele>60.296</ele>
        <time>2016-09-26T10:45:21Z</time>
      </trkpt>
      <trkpt lat="43.642853" lon="-8.047754">
        <ele>59.540</ele>
        <time>2016-09-26T10:45:22Z</time>
      </trkpt>
      <trkpt lat="43.642872" lon="-8.047610">
        <ele>59.062</ele>
        <time>2016-09-26T10:45:23Z</time>
      </trkpt>
      <trkpt lat="43.642888" lon="-8.047478">
        <ele>58.145</ele>
        <time>2016-09-26T10:45:24Z</time>
      </trkpt>
      <trkpt lat="43.642901" lon="-8.047352">
        <ele>57.113</ele>
        <time>2016-09-26T10:45:25Z</time>
      </trkpt>
      <trkpt lat="43.642903" lon="-8.047232">
        <ele>56.142</ele>
        <time>2016-09-26T10:45:26Z</time>
      </trkpt>
      <trkpt lat="43.642889" lon="-8.047116">
        <ele>55.022</ele>
        <time>2016-09-26T10:45:27Z</time>
      </trkpt>
      <trkpt lat="43.642861" lon="-8.047002">
        <ele>54.214</ele>
        <time>2016-09-26T10:45:28Z</time>
      </trkpt>
      <trkpt lat="43.642817" lon="-8.046896">
        <ele>53.508</ele>
        <time>2016-09-26T10:45:29Z</time>
      </trkpt>
      <trkpt lat="43.642769" lon="-8.046795">
        <ele>52.975</ele>
        <time>2016-09-26T10:45:30Z</time>
      </trkpt>
      <trkpt lat="43.642720" lon="-8.046694">
        <ele>52.210</ele>
        <time>2016-09-26T10:45:31Z</time>
      </trkpt>
      <trkpt lat="43.642677" lon="-8.046589">
        <ele>51.638</ele>
        <time>2016-09-26T10:45:32Z</time>
      </trkpt>
      <trkpt lat="43.642643" lon="-8.046476">
        <ele>50.844</ele>
        <time>2016-09-26T10:45:33Z</time>
      </trkpt>
      <trkpt lat="43.642617" lon="-8.046356">
        <ele>50.248</ele>
        <time>2016-09-26T10:45:34Z</time>
      </trkpt>
      <trkpt lat="43.642597" lon="-8.046228">
        <ele>49.510</ele>
        <time>2016-09-26T10:45:35Z</time>
      </trkpt>
      <trkpt lat="43.642576" lon="-8.046094">
        <ele>49.013</ele>
        <time>2016-09-26T10:45:36Z</time>
      </trkpt>
      <trkpt lat="43.642551" lon="-8.045956">
        <ele>48.271</ele>
        <time>2016-09-26T10:45:37Z</time>
      </trkpt>
      <trkpt lat="43.642528" lon="-8.045816">
        <ele>47.645</ele>
        <time>2016-09-26T10:45:38Z</time>
      </trkpt>
      <trkpt lat="43.642501" lon="-8.045679">
        <ele>46.947</ele>
        <time>2016-09-26T10:45:39Z</time>
      </trkpt>
      <trkpt lat="43.642468" lon="-8.045540">
        <ele>46.311</ele>
        <time>2016-09-26T10:45:40Z</time>
      </trkpt>
      <trkpt lat="43.642429" lon="-8.045403">
        <ele>45.608</ele>
        <time>2016-09-26T10:45:41Z</time>
      </trkpt>
      <trkpt lat="43.642384" lon="-8.045270">
        <ele>45.185</ele>
        <time>2016-09-26T10:45:42Z</time>
      </trkpt>
      <trkpt lat="43.642336" lon="-8.045144">
        <ele>44.430</ele>
        <time>2016-09-26T10:45:43Z</time>
      </trkpt>
      <trkpt lat="43.642286" lon="-8.045024">
        <ele>43.748</ele>
        <time>2016-09-26T10:45:44Z</time>
      </trkpt>
      <trkpt lat="43.642232" lon="-8.044912">
        <ele>43.094</ele>
        <time>2016-09-26T10:45:45Z</time>
      </trkpt>
      <trkpt lat="43.642173" lon="-8.044807">
        <ele>42.248</ele>
        <time>2016-09-26T10:45:46Z</time>
      </trkpt>
      <trkpt lat="43.642110" lon="-8.044707">
        <ele>41.540</ele>
        <time>2016-09-26T10:45:47Z</time>
      </trkpt>
      <trkpt lat="43.642043" lon="-8.044612">
        <ele>41.083</ele>
        <time>2016-09-26T10:45:48Z</time>
      </trkpt>
      <trkpt lat="43.641973" lon="-8.044520">
        <ele>40.641</ele>
        <time>2016-09-26T10:45:49Z</time>
      </trkpt>
      <trkpt lat="43.641900" lon="-8.044433">
        <ele>40.156</ele>
        <time>2016-09-26T10:45:50Z</time>
      </trkpt>
      <trkpt lat="43.641823" lon="-8.044350">
        <ele>39.659</ele>
        <time>2016-09-26T10:45:51Z</time>
      </trkpt>
      <trkpt lat="43.641742" lon="-8.044273">
        <ele>39.114</ele>
        <time>2016-09-26T10:45:52Z</time>
      </trkpt>
      <trkpt lat="43.641658" lon="-8.044200">
        <ele>38.908</ele>
        <time>2016-09-26T10:45:53Z</time>
      </trkpt>
      <trkpt lat="43.641569" lon="-8.044137">
        <ele>38.416</ele>
        <time>2016-09-26T10:45:54Z</time>
      </trkpt>
      <trkpt lat="43.641478" lon="-8.044080">
        <ele>38.171</ele>
        <time>2016-09-26T10:45:55Z</time>
      </trkpt>
      <trkpt lat="43.641384" lon="-8.044028">
        <ele>37.889</ele>
        <time>2016-09-26T10:45:56Z</time>
      </trkpt>
      <trkpt lat="43.641288" lon="-8.043983">
        <ele>37.425</ele>
        <time>2016-09-26T10:45:57Z</time>
      </trkpt>
      <trkpt lat="43.641192" lon="-8.043947">
        <ele>36.829</ele>
        <time>2016-09-26T10:45:58Z</time>
      </trkpt>
      <trkpt lat="43.641093" lon="-8.043915">
        <ele>36.121</ele>
        <time>2016-09-26T10:45:59Z</time>
      </trkpt>
      <trkpt lat="43.640995" lon="-8.043889">
        <ele>35.994</ele>
        <time>2016-09-26T10:46:00Z</time>
      </trkpt>
      <trkpt lat="43.640896" lon="-8.043869">
        <ele>35.332</ele>
        <time>2016-09-26T10:46:01Z</time>
      </trkpt>
      <trkpt lat="43.640797" lon="-8.043858">
        <ele>35.195</ele>
        <time>2016-09-26T10:46:02Z</time>
      </trkpt>
      <trkpt lat="43.640698" lon="-8.043856">
        <ele>34.649</ele>
        <time>2016-09-26T10:46:03Z</time>
      </trkpt>
      <trkpt lat="43.640599" lon="-8.043859">
        <ele>34.223</ele>
        <time>2016-09-26T10:46:04Z</time>
      </trkpt>
      <trkpt lat="43.640501" lon="-8.043868">
        <ele>33.508</ele>
        <time>2016-09-26T10:46:05Z</time>
      </trkpt>
      <trkpt lat="43.640405" lon="-8.043885">
        <ele>33.090</ele>
        <time>2016-09-26T10:46:06Z</time>
      </trkpt>
      <trkpt lat="43.640310" lon="-8.043910">
        <ele>32.545</ele>
        <time>2016-09-26T10:46:07Z</time>
      </trkpt>
      <trkpt lat="43.640216" lon="-8.043942">
        <ele>31.943</ele>
        <time>2016-09-26T10:46:08Z</time>
      </trkpt>
      <trkpt lat="43.640123" lon="-8.043981">
        <ele>31.339</ele>
        <time>2016-09-26T10:46:09Z</time>
      </trkpt>
      <trkpt lat="43.640032" lon="-8.044025">
        <ele>30.923</ele>
        <time>2016-09-26T10:46:10Z</time>
      </trkpt>
      <trkpt lat="43.639944" lon="-8.044075">
        <ele>30.555</ele>
        <time>2016-09-26T10:46:11Z</time>
      </trkpt>
      <trkpt lat="43.639857" lon="-8.044132">
        <ele>30.218</ele>
        <time>2016-09-26T10:46:12Z</time>
      </trkpt>
      <trkpt lat="43.639773" lon="-8.044193">
        <ele>29.996</ele>
        <time>2016-09-26T10:46:13Z</time>
      </trkpt>
      <trkpt lat="43.639690" lon="-8.044259">
        <ele>29.393</ele>
        <time>2016-09-26T10:46:14Z</time>
      </trkpt>
      <trkpt lat="43.639610" lon="-8.044330">
        <ele>29.065</ele>
        <time>2016-09-26T10:46:15Z</time>
      </trkpt>
      <trkpt lat="43.639535" lon="-8.044408">
        <ele>28.521</ele>
        <time>2016-09-26T10:46:16Z</time>
      </trkpt>
      <trkpt lat="43.639462" lon="-8.044494">
        <ele>28.008</ele>
        <time>2016-09-26T10:46:17Z</time>
      </trkpt>
      <trkpt lat="43.639392" lon="-8.044585">
        <ele>27.790</ele>
        <time>2016-09-26T10:46:18Z</time>
      </trkpt>
      <trkpt lat="43.639326" lon="-8.044678">
        <ele>27.495</ele>
        <time>2016-09-26T10:46:19Z</time>
      </trkpt>
      <trkpt lat="43.639263" lon="-8.044773">
        <ele>27.133</ele>
        <time>2016-09-26T10:46:20Z</time>
      </trkpt>
      <trkpt lat="43.639206" lon="-8.044869">
        <ele>26.899</ele>
        <time>2016-09-26T10:46:21Z</time>
      </trkpt>
      <trkpt lat="43.639154" lon="-8.044967">
        <ele>26.583</ele>
        <time>2016-09-26T10:46:22Z</time>
      </trkpt>
      <trkpt lat="43.639104" lon="-8.045064">
        <ele>26.385</ele>
        <time>2016-09-26T10:46:23Z</time>
      </trkpt>
      <trkpt lat="43.639058" lon="-8.045162">
        <ele>26.028</ele>
        <time>2016-09-26T10:46:24Z</time>
      </trkpt>
      <trkpt lat="43.639014" lon="-8.045258">
        <ele>25.766</ele>
        <time>2016-09-26T10:46:25Z</time>
      </trkpt>
      <trkpt lat="43.638977" lon="-8.045358">
        <ele>25.496</ele>
        <time>2016-09-26T10:46:26Z</time>
      </trkpt>
      <trkpt lat="43.638945" lon="-8.045458">
        <ele>25.231</ele>
        <time>2016-09-26T10:46:27Z</time>
      </trkpt>
      <trkpt lat="43.638912" lon="-8.045552">
        <ele>25.124</ele>
        <time>2016-09-26T10:46:28Z</time>
      </trkpt>
      <trkpt lat="43.638886" lon="-8.045649">
        <ele>24.808</ele>
        <time>2016-09-26T10:46:29Z</time>
      </trkpt>
      <trkpt lat="43.638864" lon="-8.045744">
        <ele>24.810</ele>
        <time>2016-09-26T10:46:30Z</time>
      </trkpt>
      <trkpt lat="43.638844" lon="-8.045838">
        <ele>24.725</ele>
        <time>2016-09-26T10:46:31Z</time>
      </trkpt>
      <trkpt lat="43.638824" lon="-8.045927">
        <ele>24.873</ele>
        <time>2016-09-26T10:46:32Z</time>
      </trkpt>
      <trkpt lat="43.638810" lon="-8.046020">
        <ele>24.769</ele>
        <time>2016-09-26T10:46:33Z</time>
      </trkpt>
      <trkpt lat="43.638800" lon="-8.046111">
        <ele>24.633</ele>
        <time>2016-09-26T10:46:34Z</time>
      </trkpt>
      <trkpt lat="43.638789" lon="-8.046203">
        <ele>24.545</ele>
        <time>2016-09-26T10:46:35Z</time>
      </trkpt>
      <trkpt lat="43.638777" lon="-8.046293">
        <ele>24.548</ele>
        <time>2016-09-26T10:46:36Z</time>
      </trkpt>
      <trkpt lat="43.638769" lon="-8.046384">
        <ele>24.516</ele>
        <time>2016-09-26T10:46:37Z</time>
      </trkpt>
      <trkpt lat="43.638760" lon="-8.046472">
        <ele>24.582</ele>
        <time>2016-09-26T10:46:38Z</time>
      </trkpt>
      <trkpt lat="43.638752" lon="-8.046570">
        <ele>24.643</ele>
        <time>2016-09-26T10:46:39Z</time>
      </trkpt>
      <trkpt lat="43.638744" lon="-8.046662">
        <ele>24.717</ele>
        <time>2016-09-26T10:46:40Z</time>
      </trkpt>
      <trkpt lat="43.638739" lon="-8.046755">
        <ele>24.608</ele>
        <time>2016-09-26T10:46:41Z</time>
      </trkpt>
      <trkpt lat="43.638738" lon="-8.046853">
        <ele>24.649</ele>
        <time>2016-09-26T10:46:42Z</time>
      </trkpt>
      <trkpt lat="43.638732" lon="-8.046948">
        <ele>24.434</ele>
        <time>2016-09-26T10:46:43Z</time>
      </trkpt>
      <trkpt lat="43.638722" lon="-8.047041">
        <ele>24.412</ele>
        <time>2016-09-26T10:46:44Z</time>
      </trkpt>
      <trkpt lat="43.638712" lon="-8.047140">
        <ele>24.358</ele>
        <time>2016-09-26T10:46:45Z</time>
      </trkpt>
      <trkpt lat="43.638704" lon="-8.047239">
        <ele>24.392</ele>
        <time>2016-09-26T10:46:46Z</time>
      </trkpt>
      <trkpt lat="43.638698" lon="-8.047335">
        <ele>24.434</ele>
        <time>2016-09-26T10:46:47Z</time>
      </trkpt>
      <trkpt lat="43.638694" lon="-8.047433">
        <ele>24.447</ele>
        <time>2016-09-26T10:46:48Z</time>
      </trkpt>
      <trkpt lat="43.638688" lon="-8.047527">
        <ele>24.475</ele>
        <time>2016-09-26T10:46:49Z</time>
      </trkpt>
      <trkpt lat="43.638679" lon="-8.047616">
        <ele>24.293</ele>
        <time>2016-09-26T10:46:50Z</time>
      </trkpt>
      <trkpt lat="43.638671" lon="-8.047703">
        <ele>24.365</ele>
        <time>2016-09-26T10:46:51Z</time>
      </trkpt>
      <trkpt lat="43.638663" lon="-8.047790">
        <ele>24.121</ele>
        <time>2016-09-26T10:46:52Z</time>
      </trkpt>
      <trkpt lat="43.638661" lon="-8.047872">
        <ele>24.008</ele>
        <time>2016-09-26T10:46:53Z</time>
      </trkpt>
      <trkpt lat="43.638657" lon="-8.047960">
        <ele>24.110</ele>
        <time>2016-09-26T10:46:54Z</time>
      </trkpt>
      <trkpt lat="43.638650" lon="-8.048048">
        <ele>24.135</ele>
        <time>2016-09-26T10:46:55Z</time>
      </trkpt>
      <trkpt lat="43.638641" lon="-8.048134">
        <ele>24.163</ele>
        <time>2016-09-26T10:46:56Z</time>
      </trkpt>
      <trkpt lat="43.638633" lon="-8.048223">
        <ele>24.099</ele>
        <time>2016-09-26T10:46:57Z</time>
      </trkpt>
      <trkpt lat="43.638625" lon="-8.048309">
        <ele>24.393</ele>
        <time>2016-09-26T10:46:58Z</time>
      </trkpt>
      <trkpt lat="43.638615" lon="-8.048388">
        <ele>24.425</ele>
        <time>2016-09-26T10:46:59Z</time>
      </trkpt>
      <trkpt lat="43.638606" lon="-8.048468">
        <ele>24.338</ele>
        <time>2016-09-26T10:47:00Z</time>
      </trkpt>
      <trkpt lat="43.638599" lon="-8.048547">
        <ele>24.466</ele>
        <time>2016-09-26T10:47:01Z</time>
      </trkpt>
      <trkpt lat="43.638590" lon="-8.048623">
        <ele>24.593</ele>
        <time>2016-09-26T10:47:02Z</time>
      </trkpt>
      <trkpt lat="43.638578" lon="-8.048701">
        <ele>24.565</ele>
        <time>2016-09-26T10:47:03Z</time>
      </trkpt>
      <trkpt lat="43.638563" lon="-8.048777">
        <ele>24.421</ele>
        <time>2016-09-26T10:47:04Z</time>
      </trkpt>
      <trkpt lat="43.638545" lon="-8.048851">
        <ele>24.208</ele>
        <time>2016-09-26T10:47:05Z</time>
      </trkpt>
      <trkpt lat="43.638525" lon="-8.048926">
        <ele>24.460</ele>
        <time>2016-09-26T10:47:06Z</time>
      </trkpt>
      <trkpt lat="43.638502" lon="-8.049000">
        <ele>24.375</ele>
        <time>2016-09-26T10:47:07Z</time>
      </trkpt>
      <trkpt lat="43.638479" lon="-8.049075">
        <ele>24.353</ele>
        <time>2016-09-26T10:47:08Z</time>
      </trkpt>
      <trkpt lat="43.638456" lon="-8.049150">
        <ele>24.439</ele>
        <time>2016-09-26T10:47:09Z</time>
      </trkpt>
      <trkpt lat="43.638434" lon="-8.049226">
        <ele>24.333</ele>
        <time>2016-09-26T10:47:10Z</time>
      </trkpt>
      <trkpt lat="43.638411" lon="-8.049299">
        <ele>24.115</ele>
        <time>2016-09-26T10:47:11Z</time>
      </trkpt>
      <trkpt lat="43.638390" lon="-8.049374">
        <ele>24.218</ele>
        <time>2016-09-26T10:47:12Z</time>
      </trkpt>
      <trkpt lat="43.638371" lon="-8.049451">
        <ele>24.096</ele>
        <time>2016-09-26T10:47:13Z</time>
      </trkpt>
      <trkpt lat="43.638356" lon="-8.049530">
        <ele>24.126</ele>
        <time>2016-09-26T10:47:14Z</time>
      </trkpt>
      <trkpt lat="43.638346" lon="-8.049610">
        <ele>24.147</ele>
        <time>2016-09-26T10:47:15Z</time>
      </trkpt>
      <trkpt lat="43.638339" lon="-8.049688">
        <ele>24.211</ele>
        <time>2016-09-26T10:47:16Z</time>
      </trkpt>
      <trkpt lat="43.638335" lon="-8.049765">
        <ele>24.308</ele>
        <time>2016-09-26T10:47:17Z</time>
      </trkpt>
      <trkpt lat="43.638334" lon="-8.049839">
        <ele>24.483</ele>
        <time>2016-09-26T10:47:18Z</time>
      </trkpt>
      <trkpt lat="43.638335" lon="-8.049914">
        <ele>24.548</ele>
        <time>2016-09-26T10:47:19Z</time>
      </trkpt>
      <trkpt lat="43.638336" lon="-8.049985">
        <ele>24.696</ele>
        <time>2016-09-26T10:47:20Z</time>
      </trkpt>
      <trkpt lat="43.638341" lon="-8.050057">
        <ele>24.672</ele>
        <time>2016-09-26T10:47:21Z</time>
      </trkpt>
      <trkpt lat="43.638346" lon="-8.050128">
        <ele>24.756</ele>
        <time>2016-09-26T10:47:22Z</time>
      </trkpt>
      <trkpt lat="43.638350" lon="-8.050199">
        <ele>24.978</ele>
        <time>2016-09-26T10:47:23Z</time>
      </trkpt>
      <trkpt lat="43.638350" lon="-8.050270">
        <ele>25.031</ele>
        <time>2016-09-26T10:47:24Z</time>
      </trkpt>
      <trkpt lat="43.638351" lon="-8.050340">
        <ele>25.199</ele>
        <time>2016-09-26T10:47:25Z</time>
      </trkpt>
      <trkpt lat="43.638351" lon="-8.050410">
        <ele>25.292</ele>
        <time>2016-09-26T10:47:26Z</time>
      </trkpt>
      <trkpt lat="43.638347" lon="-8.050478">
        <ele>25.473</ele>
        <time>2016-09-26T10:47:27Z</time>
      </trkpt>
      <trkpt lat="43.638338" lon="-8.050538">
        <ele>25.420</ele>
        <time>2016-09-26T10:47:28Z</time>
      </trkpt>
      <trkpt lat="43.638327" lon="-8.050608">
        <ele>25.308</ele>
        <time>2016-09-26T10:47:29Z</time>
      </trkpt>
      <trkpt lat="43.638314" lon="-8.050676">
        <ele>25.320</ele>
        <time>2016-09-26T10:47:30Z</time>
      </trkpt>
      <trkpt lat="43.638299" lon="-8.050741">
        <ele>25.255</ele>
        <time>2016-09-26T10:47:31Z</time>
      </trkpt>
      <trkpt lat="43.638281" lon="-8.050804">
        <ele>25.433</ele>
        <time>2016-09-26T10:47:32Z</time>
      </trkpt>
      <trkpt lat="43.638258" lon="-8.050863">
        <ele>25.579</ele>
        <time>2016-09-26T10:47:33Z</time>
      </trkpt>
      <trkpt lat="43.638234" lon="-8.050922">
        <ele>25.633</ele>
        <time>2016-09-26T10:47:34Z</time>
      </trkpt>
      <trkpt lat="43.638207" lon="-8.050979">
        <ele>25.735</ele>
        <time>2016-09-26T10:47:35Z</time>
      </trkpt>
      <trkpt lat="43.638179" lon="-8.051039">
        <ele>25.768</ele>
        <time>2016-09-26T10:47:36Z</time>
      </trkpt>
      <trkpt lat="43.638148" lon="-8.051096">
        <ele>25.756</ele>
        <time>2016-09-26T10:47:37Z</time>
      </trkpt>
      <trkpt lat="43.638116" lon="-8.051150">
        <ele>25.731</ele>
        <time>2016-09-26T10:47:38Z</time>
      </trkpt>
      <trkpt lat="43.638082" lon="-8.051205">
        <ele>25.861</ele>
        <time>2016-09-26T10:47:39Z</time>
      </trkpt>
      <trkpt lat="43.638044" lon="-8.051260">
        <ele>25.807</ele>
        <time>2016-09-26T10:47:40Z</time>
      </trkpt>
      <trkpt lat="43.638006" lon="-8.051311">
        <ele>25.808</ele>
        <time>2016-09-26T10:47:41Z</time>
      </trkpt>
      <trkpt lat="43.637966" lon="-8.051358">
        <ele>25.614</ele>
        <time>2016-09-26T10:47:42Z</time>
      </trkpt>
      <trkpt lat="43.637921" lon="-8.051405">
        <ele>25.459</ele>
        <time>2016-09-26T10:47:43Z</time>
      </trkpt>
      <trkpt lat="43.637878" lon="-8.051451">
        <ele>25.497</ele>
        <time>2016-09-26T10:47:44Z</time>
      </trkpt>
      <trkpt lat="43.637834" lon="-8.051494">
        <ele>25.343</ele>
        <time>2016-09-26T10:47:45Z</time>
      </trkpt>
      <trkpt lat="43.637790" lon="-8.051539">
        <ele>25.377</ele>
        <time>2016-09-26T10:47:46Z</time>
      </trkpt>
      <trkpt lat="43.637745" lon="-8.051582">
        <ele>25.389</ele>
        <time>2016-09-26T10:47:47Z</time>
      </trkpt>
      <trkpt lat="43.637703" lon="-8.051624">
        <ele>25.272</ele>
        <time>2016-09-26T10:47:48Z</time>
      </trkpt>
      <trkpt lat="43.637660" lon="-8.051664">
        <ele>25.290</ele>
        <time>2016-09-26T10:47:49Z</time>
      </trkpt>
      <trkpt lat="43.637614" lon="-8.051702">
        <ele>25.073</ele>
        <time>2016-09-26T10:47:50Z</time>
      </trkpt>
      <trkpt lat="43.637567" lon="-8.051736">
        <ele>25.085</ele>
        <time>2016-09-26T10:47:51Z</time>
      </trkpt>
      <trkpt lat="43.637519" lon="-8.051768">
        <ele>24.813</ele>
        <time>2016-09-26T10:47:52Z</time>
      </trkpt>
      <trkpt lat="43.637473" lon="-8.051799">
        <ele>24.708</ele>
        <time>2016-09-26T10:47:53Z</time>
      </trkpt>
      <trkpt lat="43.637425" lon="-8.051826">
        <ele>24.788</ele>
        <time>2016-09-26T10:47:54Z</time>
      </trkpt>
      <trkpt lat="43.637377" lon="-8.051853">
        <ele>24.813</ele>
        <time>2016-09-26T10:47:55Z</time>
      </trkpt>
      <trkpt lat="43.637330" lon="-8.051879">
        <ele>24.851</ele>
        <time>2016-09-26T10:47:56Z</time>
      </trkpt>
      <trkpt lat="43.637282" lon="-8.051899">
        <ele>24.847</ele>
        <time>2016-09-26T10:47:57Z</time>
      </trkpt>
      <trkpt lat="43.637232" lon="-8.051914">
        <ele>24.851</ele>
        <time>2016-09-26T10:47:58Z</time>
      </trkpt>
      <trkpt lat="43.637183" lon="-8.051929">
        <ele>24.973</ele>
        <time>2016-09-26T10:47:59Z</time>
      </trkpt>
      <trkpt lat="43.637133" lon="-8.051941">
        <ele>25.096</ele>
        <time>2016-09-26T10:48:00Z</time>
      </trkpt>
      <trkpt lat="43.637084" lon="-8.051950">
        <ele>24.964</ele>
        <time>2016-09-26T10:48:01Z</time>
      </trkpt>
      <trkpt lat="43.637034" lon="-8.051955">
        <ele>25.177</ele>
        <time>2016-09-26T10:48:02Z</time>
      </trkpt>
      <trkpt lat="43.636983" lon="-8.051956">
        <ele>25.361</ele>
        <time>2016-09-26T10:48:03Z</time>
      </trkpt>
      <trkpt lat="43.636933" lon="-8.051952">
        <ele>25.227</ele>
        <time>2016-09-26T10:48:04Z</time>
      </trkpt>
      <trkpt lat="43.636883" lon="-8.051942">
        <ele>25.208</ele>
        <time>2016-09-26T10:48:05Z</time>
      </trkpt>
      <trkpt lat="43.636833" lon="-8.051924">
        <ele>25.118</ele>
        <time>2016-09-26T10:48:06Z</time>
      </trkpt>
      <trkpt lat="43.636786" lon="-8.051899">
        <ele>25.273</ele>
        <time>2016-09-26T10:48:07Z</time>
      </trkpt>
      <trkpt lat="43.636742" lon="-8.051867">
        <ele>25.261</ele>
        <time>2016-09-26T10:48:08Z</time>
      </trkpt>
      <trkpt lat="43.636699" lon="-8.051827">
        <ele>25.237</ele>
        <time>2016-09-26T10:48:09Z</time>
      </trkpt>
      <trkpt lat="43.636659" lon="-8.051780">
        <ele>25.281</ele>
        <time>2016-09-26T10:48:10Z</time>
      </trkpt>
      <trkpt lat="43.636624" lon="-8.051723">
        <ele>25.253</ele>
        <time>2016-09-26T10:48:11Z</time>
      </trkpt>
      <trkpt lat="43.636591" lon="-8.051657">
        <ele>25.276</ele>
        <time>2016-09-26T10:48:12Z</time>
      </trkpt>
      <trkpt lat="43.636564" lon="-8.051583">
        <ele>25.034</ele>
        <time>2016-09-26T10:48:13Z</time>
      </trkpt>
      <trkpt lat="43.636547" lon="-8.051501">
        <ele>24.949</ele>
        <time>2016-09-26T10:48:14Z</time>
      </trkpt>
      <trkpt lat="43.636539" lon="-8.051418">
        <ele>24.802</ele>
        <time>2016-09-26T10:48:15Z</time>
      </trkpt>
      <trkpt lat="43.636539" lon="-8.051327">
        <ele>24.622</ele>
        <time>2016-09-26T10:48:16Z</time>
      </trkpt>
      <trkpt lat="43.636544" lon="-8.051230">
        <ele>24.308</ele>
        <time>2016-09-26T10:48:17Z</time>
      </trkpt>
      <trkpt lat="43.636554" lon="-8.051128">
        <ele>23.975</ele>
        <time>2016-09-26T10:48:18Z</time>
      </trkpt>
      <trkpt lat="43.636566" lon="-8.051024">
        <ele>23.640</ele>
        <time>2016-09-26T10:48:19Z</time>
      </trkpt>
      <trkpt lat="43.636581" lon="-8.050913">
        <ele>23.328</ele>
        <time>2016-09-26T10:48:20Z</time>
      </trkpt>
      <trkpt lat="43.636596" lon="-8.050797">
        <ele>22.914</ele>
        <time>2016-09-26T10:48:21Z</time>
      </trkpt>
      <trkpt lat="43.636608" lon="-8.050680">
        <ele>22.688</ele>
        <time>2016-09-26T10:48:22Z</time>
      </trkpt>
      <trkpt lat="43.636617" lon="-8.050559">
        <ele>22.440</ele>
        <time>2016-09-26T10:48:23Z</time>
      </trkpt>
      <trkpt lat="43.636617" lon="-8.050435">
        <ele>22.193</ele>
        <time>2016-09-26T10:48:24Z</time>
      </trkpt>
      <trkpt lat="43.636614" lon="-8.050310">
        <ele>21.821</ele>
        <time>2016-09-26T10:48:25Z</time>
      </trkpt>
      <trkpt lat="43.636608" lon="-8.050184">
        <ele>21.524</ele>
        <time>2016-09-26T10:48:26Z</time>
      </trkpt>
      <trkpt lat="43.636599" lon="-8.050057">
        <ele>21.104</ele>
        <time>2016-09-26T10:48:27Z</time>
      </trkpt>
      <trkpt lat="43.636586" lon="-8.049930">
        <ele>20.714</ele>
        <time>2016-09-26T10:48:28Z</time>
      </trkpt>
      <trkpt lat="43.636564" lon="-8.049803">
        <ele>20.508</ele>
        <time>2016-09-26T10:48:29Z</time>
      </trkpt>
      <trkpt lat="43.636539" lon="-8.049678">
        <ele>20.233</ele>
        <time>2016-09-26T10:48:30Z</time>
      </trkpt>
      <trkpt lat="43.636514" lon="-8.049550">
        <ele>19.958</ele>
        <time>2016-09-26T10:48:31Z</time>
      </trkpt>
      <trkpt lat="43.636482" lon="-8.049421">
        <ele>19.646</ele>
        <time>2016-09-26T10:48:32Z</time>
      </trkpt>
      <trkpt lat="43.636449" lon="-8.049292">
        <ele>19.332</ele>
        <time>2016-09-26T10:48:33Z</time>
      </trkpt>
      <trkpt lat="43.636411" lon="-8.049166">
        <ele>18.836</ele>
        <time>2016-09-26T10:48:34Z</time>
      </trkpt>
      <trkpt lat="43.636363" lon="-8.049045">
        <ele>18.398</ele>
        <time>2016-09-26T10:48:35Z</time>
      </trkpt>
      <trkpt lat="43.636314" lon="-8.048924">
        <ele>17.961</ele>
        <time>2016-09-26T10:48:36Z</time>
      </trkpt>
      <trkpt lat="43.636260" lon="-8.048797">
        <ele>17.619</ele>
        <time>2016-09-26T10:48:37Z</time>
      </trkpt>
      <trkpt lat="43.636204" lon="-8.048675">
        <ele>17.133</ele>
        <time>2016-09-26T10:48:38Z</time>
      </trkpt>
      <trkpt lat="43.636139" lon="-8.048561">
        <ele>16.723</ele>
        <time>2016-09-26T10:48:39Z</time>
      </trkpt>
      <trkpt lat="43.636068" lon="-8.048455">
        <ele>16.115</ele>
        <time>2016-09-26T10:48:40Z</time>
      </trkpt>
      <trkpt lat="43.636000" lon="-8.048356">
        <ele>15.608</ele>
        <time>2016-09-26T10:48:41Z</time>
      </trkpt>
      <trkpt lat="43.635934" lon="-8.048262">
        <ele>15.314</ele>
        <time>2016-09-26T10:48:42Z</time>
      </trkpt>
      <trkpt lat="43.635856" lon="-8.048179">
        <ele>14.869</ele>
        <time>2016-09-26T10:48:43Z</time>
      </trkpt>
      <trkpt lat="43.635776" lon="-8.048105">
        <ele>14.247</ele>
        <time>2016-09-26T10:48:44Z</time>
      </trkpt>
      <trkpt lat="43.635691" lon="-8.048046">
        <ele>13.853</ele>
        <time>2016-09-26T10:48:45Z</time>
      </trkpt>
      <trkpt lat="43.635606" lon="-8.048002">
        <ele>13.437</ele>
        <time>2016-09-26T10:48:46Z</time>
      </trkpt>
      <trkpt lat="43.635519" lon="-8.047974">
        <ele>12.929</ele>
        <time>2016-09-26T10:48:47Z</time>
      </trkpt>
      <trkpt lat="43.635425" lon="-8.047977">
        <ele>12.542</ele>
        <time>2016-09-26T10:48:48Z</time>
      </trkpt>
      <trkpt lat="43.635339" lon="-8.047998">
        <ele>12.250</ele>
        <time>2016-09-26T10:48:49Z</time>
      </trkpt>
      <trkpt lat="43.635258" lon="-8.048035">
        <ele>11.817</ele>
        <time>2016-09-26T10:48:50Z</time>
      </trkpt>
      <trkpt lat="43.635177" lon="-8.048086">
        <ele>11.587</ele>
        <time>2016-09-26T10:48:51Z</time>
      </trkpt>
      <trkpt lat="43.635103" lon="-8.048149">
        <ele>11.215</ele>
        <time>2016-09-26T10:48:52Z</time>
      </trkpt>
      <trkpt lat="43.635034" lon="-8.048213">
        <ele>10.908</ele>
        <time>2016-09-26T10:48:53Z</time>
      </trkpt>
      <trkpt lat="43.634974" lon="-8.048271">
        <ele>10.592</ele>
        <time>2016-09-26T10:48:54Z</time>
      </trkpt>
      <trkpt lat="43.634915" lon="-8.048327">
        <ele>10.387</ele>
        <time>2016-09-26T10:48:55Z</time>
      </trkpt>
      <trkpt lat="43.634859" lon="-8.048379">
        <ele>10.215</ele>
        <time>2016-09-26T10:48:56Z</time>
      </trkpt>
      <trkpt lat="43.634802" lon="-8.048435">
        <ele>10.051</ele>
        <time>2016-09-26T10:48:57Z</time>
      </trkpt>
      <trkpt lat="43.634741" lon="-8.048490">
        <ele>10.035</ele>
        <time>2016-09-26T10:48:58Z</time>
      </trkpt>
      <trkpt lat="43.634682" lon="-8.048547">
        <ele>10.067</ele>
        <time>2016-09-26T10:48:59Z</time>
      </trkpt>
      <trkpt lat="43.634627" lon="-8.048599">
        <ele>10.110</ele>
        <time>2016-09-26T10:49:00Z</time>
      </trkpt>
      <trkpt lat="43.634574" lon="-8.048651">
        <ele>10.198</ele>
        <time>2016-09-26T10:49:01Z</time>
      </trkpt>
      <trkpt lat="43.634519" lon="-8.048703">
        <ele>10.071</ele>
        <time>2016-09-26T10:49:02Z</time>
      </trkpt>
      <trkpt lat="43.634461" lon="-8.048757">
        <ele>9.941</ele>
        <time>2016-09-26T10:49:03Z</time>
      </trkpt>
      <trkpt lat="43.634402" lon="-8.048810">
        <ele>9.915</ele>
        <time>2016-09-26T10:49:04Z</time>
      </trkpt>
      <trkpt lat="43.634343" lon="-8.048862">
        <ele>9.808</ele>
        <time>2016-09-26T10:49:05Z</time>
      </trkpt>
      <trkpt lat="43.634285" lon="-8.048912">
        <ele>9.718</ele>
        <time>2016-09-26T10:49:06Z</time>
      </trkpt>
      <trkpt lat="43.634227" lon="-8.048963">
        <ele>9.793</ele>
        <time>2016-09-26T10:49:07Z</time>
      </trkpt>
      <trkpt lat="43.634167" lon="-8.049016">
        <ele>9.811</ele>
        <time>2016-09-26T10:49:08Z</time>
      </trkpt>
      <trkpt lat="43.634110" lon="-8.049069">
        <ele>9.877</ele>
        <time>2016-09-26T10:49:09Z</time>
      </trkpt>
      <trkpt lat="43.634054" lon="-8.049121">
        <ele>9.871</ele>
        <time>2016-09-26T10:49:10Z</time>
      </trkpt>
      <trkpt lat="43.633998" lon="-8.049173">
        <ele>9.683</ele>
        <time>2016-09-26T10:49:11Z</time>
      </trkpt>
      <trkpt lat="43.633942" lon="-8.049224">
        <ele>9.646</ele>
        <time>2016-09-26T10:49:12Z</time>
      </trkpt>
      <trkpt lat="43.633885" lon="-8.049276">
        <ele>9.244</ele>
        <time>2016-09-26T10:49:13Z</time>
      </trkpt>
      <trkpt lat="43.633831" lon="-8.049331">
        <ele>9.149</ele>
        <time>2016-09-26T10:49:14Z</time>
      </trkpt>
      <trkpt lat="43.633774" lon="-8.049382">
        <ele>9.102</ele>
        <time>2016-09-26T10:49:15Z</time>
      </trkpt>
      <trkpt lat="43.633717" lon="-8.049432">
        <ele>8.822</ele>
        <time>2016-09-26T10:49:16Z</time>
      </trkpt>
      <trkpt lat="43.633660" lon="-8.049481">
        <ele>8.708</ele>
        <time>2016-09-26T10:49:17Z</time>
      </trkpt>
      <trkpt lat="43.633601" lon="-8.049528">
        <ele>8.675</ele>
        <time>2016-09-26T10:49:18Z</time>
      </trkpt>
      <trkpt lat="43.633545" lon="-8.049575">
        <ele>8.690</ele>
        <time>2016-09-26T10:49:19Z</time>
      </trkpt>
      <trkpt lat="43.633490" lon="-8.049621">
        <ele>8.548</ele>
        <time>2016-09-26T10:49:20Z</time>
      </trkpt>
      <trkpt lat="43.633435" lon="-8.049666">
        <ele>8.774</ele>
        <time>2016-09-26T10:49:21Z</time>
      </trkpt>
      <trkpt lat="43.633380" lon="-8.049711">
        <ele>8.848</ele>
        <time>2016-09-26T10:49:22Z</time>
      </trkpt>
      <trkpt lat="43.633326" lon="-8.049757">
        <ele>8.790</ele>
        <time>2016-09-26T10:49:23Z</time>
      </trkpt>
      <trkpt lat="43.633274" lon="-8.049802">
        <ele>8.653</ele>
        <time>2016-09-26T10:49:24Z</time>
      </trkpt>
      <trkpt lat="43.633224" lon="-8.049850">
        <ele>8.681</ele>
        <time>2016-09-26T10:49:25Z</time>
      </trkpt>
      <trkpt lat="43.633175" lon="-8.049901">
        <ele>8.649</ele>
        <time>2016-09-26T10:49:26Z</time>
      </trkpt>
      <trkpt lat="43.633128" lon="-8.049952">
        <ele>8.802</ele>
        <time>2016-09-26T10:49:27Z</time>
      </trkpt>
      <trkpt lat="43.633084" lon="-8.050001">
        <ele>8.822</ele>
        <time>2016-09-26T10:49:28Z</time>
      </trkpt>
      <trkpt lat="43.633041" lon="-8.050046">
        <ele>8.908</ele>
        <time>2016-09-26T10:49:29Z</time>
      </trkpt>
      <trkpt lat="43.633004" lon="-8.050083">
        <ele>8.655</ele>
        <time>2016-09-26T10:49:30Z</time>
      </trkpt>
      <trkpt lat="43.632972" lon="-8.050120">
        <ele>8.780</ele>
        <time>2016-09-26T10:49:31Z</time>
      </trkpt>
      <trkpt lat="43.632932" lon="-8.050168">
        <ele>9.018</ele>
        <time>2016-09-26T10:49:32Z</time>
      </trkpt>
      <trkpt lat="43.632893" lon="-8.050214">
        <ele>9.044</ele>
        <time>2016-09-26T10:49:33Z</time>
      </trkpt>
      <trkpt lat="43.632856" lon="-8.050256">
        <ele>9.068</ele>
        <time>2016-09-26T10:49:34Z</time>
      </trkpt>
      <trkpt lat="43.632829" lon="-8.050292">
        <ele>9.110</ele>
        <time>2016-09-26T10:49:35Z</time>
      </trkpt>
      <trkpt lat="43.632807" lon="-8.050327">
        <ele>9.283</ele>
        <time>2016-09-26T10:49:36Z</time>
      </trkpt>
      <trkpt lat="43.632784" lon="-8.050365">
        <ele>9.311</ele>
        <time>2016-09-26T10:49:37Z</time>
      </trkpt>
      <trkpt lat="43.632755" lon="-8.050405">
        <ele>9.481</ele>
        <time>2016-09-26T10:49:38Z</time>
      </trkpt>
      <trkpt lat="43.632726" lon="-8.050438">
        <ele>9.561</ele>
        <time>2016-09-26T10:49:39Z</time>
      </trkpt>
      <trkpt lat="43.632704" lon="-8.050472">
        <ele>9.717</ele>
        <time>2016-09-26T10:49:40Z</time>
      </trkpt>
      <trkpt lat="43.632685" lon="-8.050501">
        <ele>9.908</ele>
        <time>2016-09-26T10:49:41Z</time>
      </trkpt>
      <trkpt lat="43.632665" lon="-8.050534">
        <ele>10.199</ele>
        <time>2016-09-26T10:49:42Z</time>
      </trkpt>
      <trkpt lat="43.632646" lon="-8.050569">
        <ele>10.374</ele>
        <time>2016-09-26T10:49:43Z</time>
      </trkpt>
      <trkpt lat="43.632630" lon="-8.050599">
        <ele>10.292</ele>
        <time>2016-09-26T10:49:44Z</time>
      </trkpt>
      <trkpt lat="43.632618" lon="-8.050637">
        <ele>10.298</ele>
        <time>2016-09-26T10:49:45Z</time>
      </trkpt>
      <trkpt lat="43.632596" lon="-8.050683">
        <ele>10.312</ele>
        <time>2016-09-26T10:49:46Z</time>
      </trkpt>
      <trkpt lat="43.632575" lon="-8.050730">
        <ele>10.434</ele>
        <time>2016-09-26T10:49:47Z</time>
      </trkpt>
      <trkpt lat="43.632559" lon="-8.050775">
        <ele>10.647</ele>
        <time>2016-09-26T10:49:48Z</time>
      </trkpt>
      <trkpt lat="43.632541" lon="-8.050831">
        <ele>10.825</ele>
        <time>2016-09-26T10:49:49Z</time>
      </trkpt>
      <trkpt lat="43.632524" lon="-8.050886">
        <ele>10.945</ele>
        <time>2016-09-26T10:49:50Z</time>
      </trkpt>
      <trkpt lat="43.632503" lon="-8.050942">
        <ele>11.047</ele>
        <time>2016-09-26T10:49:51Z</time>
      </trkpt>
      <trkpt lat="43.632488" lon="-8.050994">
        <ele>11.111</ele>
        <time>2016-09-26T10:49:52Z</time>
      </trkpt>
      <trkpt lat="43.632475" lon="-8.051050">
        <ele>11.008</ele>
        <time>2016-09-26T10:49:53Z</time>
      </trkpt>
      <trkpt lat="43.632457" lon="-8.051111">
        <ele>11.155</ele>
        <time>2016-09-26T10:49:54Z</time>
      </trkpt>
      <trkpt lat="43.632444" lon="-8.051161">
        <ele>11.220</ele>
        <time>2016-09-26T10:49:55Z</time>
      </trkpt>
      <trkpt lat="43.632430" lon="-8.051212">
        <ele>11.438</ele>
        <time>2016-09-26T10:49:56Z</time>
      </trkpt>
      <trkpt lat="43.632417" lon="-8.051260">
        <ele>11.534</ele>
        <time>2016-09-26T10:49:57Z</time>
      </trkpt>
      <trkpt lat="43.632401" lon="-8.051311">
        <ele>11.418</ele>
        <time>2016-09-26T10:49:58Z</time>
      </trkpt>
      <trkpt lat="43.632391" lon="-8.051362">
        <ele>11.510</ele>
        <time>2016-09-26T10:49:59Z</time>
      </trkpt>
      <trkpt lat="43.632377" lon="-8.051416">
        <ele>11.683</ele>
        <time>2016-09-26T10:50:00Z</time>
      </trkpt>
      <trkpt lat="43.632369" lon="-8.051471">
        <ele>11.841</ele>
        <time>2016-09-26T10:50:01Z</time>
      </trkpt>
      <trkpt lat="43.632361" lon="-8.051524">
        <ele>11.989</ele>
        <time>2016-09-26T10:50:02Z</time>
      </trkpt>
      <trkpt lat="43.632355" lon="-8.051572">
        <ele>11.906</ele>
        <time>2016-09-26T10:50:03Z</time>
      </trkpt>
      <trkpt lat="43.632347" lon="-8.051632">
        <ele>12.126</ele>
        <time>2016-09-26T10:50:04Z</time>
      </trkpt>
      <trkpt lat="43.632339" lon="-8.051695">
        <ele>12.208</ele>
        <time>2016-09-26T10:50:05Z</time>
      </trkpt>
      <trkpt lat="43.632335" lon="-8.051750">
        <ele>12.249</ele>
        <time>2016-09-26T10:50:06Z</time>
      </trkpt>
      <trkpt lat="43.632332" lon="-8.051800">
        <ele>12.324</ele>
        <time>2016-09-26T10:50:07Z</time>
      </trkpt>
      <trkpt lat="43.632330" lon="-8.051853">
        <ele>12.362</ele>
        <time>2016-09-26T10:50:08Z</time>
      </trkpt>
      <trkpt lat="43.632322" lon="-8.051916">
        <ele>12.498</ele>
        <time>2016-09-26T10:50:09Z</time>
      </trkpt>
      <trkpt lat="43.632308" lon="-8.051975">
        <ele>12.472</ele>
        <time>2016-09-26T10:50:10Z</time>
      </trkpt>
      <trkpt lat="43.632295" lon="-8.052035">
        <ele>12.714</ele>
        <time>2016-09-26T10:50:11Z</time>
      </trkpt>
      <trkpt lat="43.632273" lon="-8.052095">
        <ele>12.657</ele>
        <time>2016-09-26T10:50:12Z</time>
      </trkpt>
      <trkpt lat="43.632250" lon="-8.052148">
        <ele>12.855</ele>
        <time>2016-09-26T10:50:13Z</time>
      </trkpt>
      <trkpt lat="43.632232" lon="-8.052196">
        <ele>12.888</ele>
        <time>2016-09-26T10:50:14Z</time>
      </trkpt>
      <trkpt lat="43.632216" lon="-8.052249">
        <ele>12.824</ele>
        <time>2016-09-26T10:50:15Z</time>
      </trkpt>
      <trkpt lat="43.632198" lon="-8.052302">
        <ele>12.726</ele>
        <time>2016-09-26T10:50:16Z</time>
      </trkpt>
      <trkpt lat="43.632171" lon="-8.052352">
        <ele>12.708</ele>
        <time>2016-09-26T10:50:17Z</time>
      </trkpt>
      <trkpt lat="43.632148" lon="-8.052399">
        <ele>12.769</ele>
        <time>2016-09-26T10:50:18Z</time>
      </trkpt>
      <trkpt lat="43.632118" lon="-8.052442">
        <ele>12.724</ele>
        <time>2016-09-26T10:50:19Z</time>
      </trkpt>
      <trkpt lat="43.632081" lon="-8.052493">
        <ele>12.782</ele>
        <time>2016-09-26T10:50:20Z</time>
      </trkpt>
      <trkpt lat="43.632039" lon="-8.052548">
        <ele>12.918</ele>
        <time>2016-09-26T10:50:21Z</time>
      </trkpt>
      <trkpt lat="43.632005" lon="-8.052599">
        <ele>12.892</ele>
        <time>2016-09-26T10:50:22Z</time>
      </trkpt>
      <trkpt lat="43.631968" lon="-8.052646">
        <ele>13.024</ele>
        <time>2016-09-26T10:50:23Z</time>
      </trkpt>
      <trkpt lat="43.631930" lon="-8.052699">
        <ele>13.057</ele>
        <time>2016-09-26T10:50:24Z</time>
      </trkpt>
      <trkpt lat="43.631916" lon="-8.052754">
        <ele>13.135</ele>
        <time>2016-09-26T10:50:25Z</time>
      </trkpt>
      <trkpt lat="43.631912" lon="-8.052803">
        <ele>13.122</ele>
        <time>2016-09-26T10:50:26Z</time>
      </trkpt>
      <trkpt lat="43.631901" lon="-8.052859">
        <ele>13.362</ele>
        <time>2016-09-26T10:50:27Z</time>
      </trkpt>
      <trkpt lat="43.631898" lon="-8.052926">
        <ele>13.408</ele>
        <time>2016-09-26T10:50:28Z</time>
      </trkpt>
      <trkpt lat="43.631907" lon="-8.052989">
        <ele>13.408</ele>
        <time>2016-09-26T10:50:29Z</time>
      </trkpt>
      <trkpt lat="43.631913" lon="-8.053059">
        <ele>13.553</ele>
        <time>2016-09-26T10:50:30Z</time>
      </trkpt>
      <trkpt lat="43.631914" lon="-8.053127">
        <ele>13.658</ele>
        <time>2016-09-26T10:50:31Z</time>
      </trkpt>
      <trkpt lat="43.631927" lon="-8.053183">
        <ele>13.896</ele>
        <time>2016-09-26T10:50:32Z</time>
      </trkpt>
      <trkpt lat="43.631942" lon="-8.053231">
        <ele>13.912</ele>
        <time>2016-09-26T10:50:33Z</time>
      </trkpt>
      <trkpt lat="43.631950" lon="-8.053281">
        <ele>14.046</ele>
        <time>2016-09-26T10:50:34Z</time>
      </trkpt>
      <trkpt lat="43.631961" lon="-8.053336">
        <ele>14.048</ele>
        <time>2016-09-26T10:50:35Z</time>
      </trkpt>
      <trkpt lat="43.631967" lon="-8.053400">
        <ele>14.211</ele>
        <time>2016-09-26T10:50:36Z</time>
      </trkpt>
      <trkpt lat="43.631973" lon="-8.053463">
        <ele>14.359</ele>
        <time>2016-09-26T10:50:37Z</time>
      </trkpt>
      <trkpt lat="43.631977" lon="-8.053526">
        <ele>14.585</ele>
        <time>2016-09-26T10:50:38Z</time>
      </trkpt>
      <trkpt lat="43.631977" lon="-8.053590">
        <ele>14.589</ele>
        <time>2016-09-26T10:50:39Z</time>
      </trkpt>
      <trkpt lat="43.631977" lon="-8.053648">
        <ele>14.617</ele>
        <time>2016-09-26T10:50:40Z</time>
      </trkpt>
      <trkpt lat="43.631980" lon="-8.053702">
        <ele>14.808</ele>
        <time>2016-09-26T10:50:41Z</time>
      </trkpt>
      <trkpt lat="43.631982" lon="-8.053750">
        <ele>15.149</ele>
        <time>2016-09-26T10:50:42Z</time>
      </trkpt>
      <trkpt lat="43.631976" lon="-8.053803">
        <ele>15.284</ele>
        <time>2016-09-26T10:50:43Z</time>
      </trkpt>
      <trkpt lat="43.631971" lon="-8.053854">
        <ele>15.312</ele>
        <time>2016-09-26T10:50:44Z</time>
      </trkpt>
      <trkpt lat="43.631965" lon="-8.053907">
        <ele>15.448</ele>
        <time>2016-09-26T10:50:45Z</time>
      </trkpt>
      <trkpt lat="43.631957" lon="-8.053956">
        <ele>15.732</ele>
        <time>2016-09-26T10:50:46Z</time>
      </trkpt>
      <trkpt lat="43.631953" lon="-8.054003">
        <ele>15.914</ele>
        <time>2016-09-26T10:50:47Z</time>
      </trkpt>
      <trkpt lat="43.631946" lon="-8.054047">
        <ele>15.847</ele>
        <time>2016-09-26T10:50:48Z</time>
      </trkpt>
      <trkpt lat="43.631939" lon="-8.054085">
        <ele>15.995</ele>
        <time>2016-09-26T10:50:49Z</time>
      </trkpt>
      <trkpt lat="43.631932" lon="-8.054129">
        <ele>16.014</ele>
        <time>2016-09-26T10:50:50Z</time>
      </trkpt>
      <trkpt lat="43.631920" lon="-8.054172">
        <ele>16.254</ele>
        <time>2016-09-26T10:50:51Z</time>
      </trkpt>
      <trkpt lat="43.631904" lon="-8.054218">
        <ele>16.209</ele>
        <time>2016-09-26T10:50:52Z</time>
      </trkpt>
      <trkpt lat="43.631886" lon="-8.054263">
        <ele>16.308</ele>
        <time>2016-09-26T10:50:53Z</time>
      </trkpt>
      <trkpt lat="43.631866" lon="-8.054307">
        <ele>16.492</ele>
        <time>2016-09-26T10:50:54Z</time>
      </trkpt>
      <trkpt lat="43.631845" lon="-8.054351">
        <ele>16.547</ele>
        <time>2016-09-26T10:50:55Z</time>
      </trkpt>
      <trkpt lat="43.631829" lon="-8.054397">
        <ele>16.595</ele>
        <time>2016-09-26T10:50:56Z</time>
      </trkpt>
      <trkpt lat="43.631814" lon="-8.054434">
        <ele>16.661</ele>
        <time>2016-09-26T10:50:57Z</time>
      </trkpt>
      <trkpt lat="43.631801" lon="-8.054468">
        <ele>16.795</ele>
        <time>2016-09-26T10:50:58Z</time>
      </trkpt>
      <trkpt lat="43.631785" lon="-8.054506">
        <ele>16.817</ele>
        <time>2016-09-26T10:50:59Z</time>
      </trkpt>
      <trkpt lat="43.631765" lon="-8.054559">
        <ele>16.730</ele>
        <time>2016-09-26T10:51:00Z</time>
      </trkpt>
      <trkpt lat="43.631742" lon="-8.054616">
        <ele>16.978</ele>
        <time>2016-09-26T10:51:01Z</time>
      </trkpt>
      <trkpt lat="43.631722" lon="-8.054667">
        <ele>17.086</ele>
        <time>2016-09-26T10:51:02Z</time>
      </trkpt>
      <trkpt lat="43.631708" lon="-8.054706">
        <ele>17.160</ele>
        <time>2016-09-26T10:51:03Z</time>
      </trkpt>
      <trkpt lat="43.631695" lon="-8.054744">
        <ele>17.326</ele>
        <time>2016-09-26T10:51:04Z</time>
      </trkpt>
      <trkpt lat="43.631681" lon="-8.054788">
        <ele>17.308</ele>
        <time>2016-09-26T10:51:05Z</time>
      </trkpt>
      <trkpt lat="43.631670" lon="-8.054840">
        <ele>17.399</ele>
        <time>2016-09-26T10:51:06Z</time>
      </trkpt>
      <trkpt lat="43.631662" lon="-8.054885">
        <ele>17.574</ele>
        <time>2016-09-26T10:51:07Z</time>
      </trkpt>
      <trkpt lat="43.631655" lon="-8.054933">
        <ele>17.552</ele>
        <time>2016-09-26T10:51:08Z</time>
      </trkpt>
      <trkpt lat="43.631647" lon="-8.054975">
        <ele>17.678</ele>
        <time>2016-09-26T10:51:09Z</time>
      </trkpt>
      <trkpt lat="43.631643" lon="-8.055022">
        <ele>17.782</ele>
        <time>2016-09-26T10:51:10Z</time>
      </trkpt>
      <trkpt lat="43.631645" lon="-8.055074">
        <ele>17.874</ele>
        <time>2016-09-26T10:51:11Z</time>
      </trkpt>
      <trkpt lat="43.631643" lon="-8.055134">
        <ele>17.927</ele>
        <time>2016-09-26T10:51:12Z</time>
      </trkpt>
      <trkpt lat="43.631647" lon="-8.055197">
        <ele>17.825</ele>
        <time>2016-09-26T10:51:13Z</time>
      </trkpt>
      <trkpt lat="43.631645" lon="-8.055256">
        <ele>17.842</ele>
        <time>2016-09-26T10:51:14Z</time>
      </trkpt>
      <trkpt lat="43.631642" lon="-8.055312">
        <ele>17.822</ele>
        <time>2016-09-26T10:51:15Z</time>
      </trkpt>
      <trkpt lat="43.631644" lon="-8.055373">
        <ele>18.014</ele>
        <time>2016-09-26T10:51:16Z</time>
      </trkpt>
      <trkpt lat="43.631645" lon="-8.055434">
        <ele>18.108</ele>
        <time>2016-09-26T10:51:17Z</time>
      </trkpt>
      <trkpt lat="43.631644" lon="-8.055494">
        <ele>18.495</ele>
        <time>2016-09-26T10:51:18Z</time>
      </trkpt>
      <trkpt lat="43.631645" lon="-8.055554">
        <ele>18.430</ele>
        <time>2016-09-26T10:51:19Z</time>
      </trkpt>
      <trkpt lat="43.631646" lon="-8.055616">
        <ele>18.448</ele>
        <time>2016-09-26T10:51:20Z</time>
      </trkpt>
      <trkpt lat="43.631644" lon="-8.055684">
        <ele>18.534</ele>
        <time>2016-09-26T10:51:21Z</time>
      </trkpt>
      <trkpt lat="43.631646" lon="-8.055749">
        <ele>18.418</ele>
        <time>2016-09-26T10:51:22Z</time>
      </trkpt>
      <trkpt lat="43.631653" lon="-8.055814">
        <ele>18.440</ele>
        <time>2016-09-26T10:51:23Z</time>
      </trkpt>
      <trkpt lat="43.631661" lon="-8.055876">
        <ele>18.233</ele>
        <time>2016-09-26T10:51:24Z</time>
      </trkpt>
      <trkpt lat="43.631671" lon="-8.055942">
        <ele>18.111</ele>
        <time>2016-09-26T10:51:25Z</time>
      </trkpt>
      <trkpt lat="43.631674" lon="-8.056019">
        <ele>18.182</ele>
        <time>2016-09-26T10:51:26Z</time>
      </trkpt>
      <trkpt lat="43.631675" lon="-8.056094">
        <ele>18.143</ele>
        <time>2016-09-26T10:51:27Z</time>
      </trkpt>
      <trkpt lat="43.631682" lon="-8.056177">
        <ele>18.017</ele>
        <time>2016-09-26T10:51:28Z</time>
      </trkpt>
      <trkpt lat="43.631694" lon="-8.056264">
        <ele>18.108</ele>
        <time>2016-09-26T10:51:29Z</time>
      </trkpt>
      <trkpt lat="43.631704" lon="-8.056348">
        <ele>18.059</ele>
        <time>2016-09-26T10:51:30Z</time>
      </trkpt>
      <trkpt lat="43.631712" lon="-8.056435">
        <ele>18.014</ele>
        <time>2016-09-26T10:51:31Z</time>
      </trkpt>
      <trkpt lat="43.631723" lon="-8.056525">
        <ele>18.032</ele>
        <time>2016-09-26T10:51:32Z</time>
      </trkpt>
      <trkpt lat="43.631737" lon="-8.056618">
        <ele>18.128</ele>
        <time>2016-09-26T10:51:33Z</time>
      </trkpt>
      <trkpt lat="43.631757" lon="-8.056705">
        <ele>17.952</ele>
        <time>2016-09-26T10:51:34Z</time>
      </trkpt>
      <trkpt lat="43.631775" lon="-8.056793">
        <ele>17.744</ele>
        <time>2016-09-26T10:51:35Z</time>
      </trkpt>
      <trkpt lat="43.631795" lon="-8.056878">
        <ele>17.627</ele>
        <time>2016-09-26T10:51:36Z</time>
      </trkpt>
      <trkpt lat="43.631818" lon="-8.056965">
        <ele>17.715</ele>
        <time>2016-09-26T10:51:37Z</time>
      </trkpt>
      <trkpt lat="43.631838" lon="-8.057051">
        <ele>17.624</ele>
        <time>2016-09-26T10:51:38Z</time>
      </trkpt>
      <trkpt lat="43.631856" lon="-8.057136">
        <ele>17.604</ele>
        <time>2016-09-26T10:51:39Z</time>
      </trkpt>
      <trkpt lat="43.631873" lon="-8.057221">
        <ele>17.414</ele>
        <time>2016-09-26T10:51:40Z</time>
      </trkpt>
      <trkpt lat="43.631895" lon="-8.057304">
        <ele>17.308</ele>
        <time>2016-09-26T10:51:41Z</time>
      </trkpt>
      <trkpt lat="43.631918" lon="-8.057383">
        <ele>17.273</ele>
        <time>2016-09-26T10:51:42Z</time>
      </trkpt>
      <trkpt lat="43.631943" lon="-8.057471">
        <ele>17.128</ele>
        <time>2016-09-26T10:51:43Z</time>
      </trkpt>
      <trkpt lat="43.631971" lon="-8.057561">
        <ele>17.096</ele>
        <time>2016-09-26T10:51:44Z</time>
      </trkpt>
      <trkpt lat="43.631996" lon="-8.057646">
        <ele>16.962</ele>
        <time>2016-09-26T10:51:45Z</time>
      </trkpt>
      <trkpt lat="43.632019" lon="-8.057729">
        <ele>16.846</ele>
        <time>2016-09-26T10:51:46Z</time>
      </trkpt>
      <trkpt lat="43.632045" lon="-8.057817">
        <ele>16.878</ele>
        <time>2016-09-26T10:51:47Z</time>
      </trkpt>
      <trkpt lat="43.632076" lon="-8.057902">
        <ele>16.771</ele>
        <time>2016-09-26T10:51:48Z</time>
      </trkpt>
      <trkpt lat="43.632105" lon="-8.057985">
        <ele>16.679</ele>
        <time>2016-09-26T10:51:49Z</time>
      </trkpt>
      <trkpt lat="43.632132" lon="-8.058068">
        <ele>16.735</ele>
        <time>2016-09-26T10:51:50Z</time>
      </trkpt>
      <trkpt lat="43.632160" lon="-8.058149">
        <ele>16.686</ele>
        <time>2016-09-26T10:51:51Z</time>
      </trkpt>
      <trkpt lat="43.632191" lon="-8.058227">
        <ele>16.514</ele>
        <time>2016-09-26T10:51:52Z</time>
      </trkpt>
      <trkpt lat="43.632215" lon="-8.058308">
        <ele>16.408</ele>
        <time>2016-09-26T10:51:53Z</time>
      </trkpt>
      <trkpt lat="43.632236" lon="-8.058394">
        <ele>16.364</ele>
        <time>2016-09-26T10:51:54Z</time>
      </trkpt>
      <trkpt lat="43.632267" lon="-8.058479">
        <ele>16.469</ele>
        <time>2016-09-26T10:51:55Z</time>
      </trkpt>
      <trkpt lat="43.632296" lon="-8.058560">
        <ele>16.347</ele>
        <time>2016-09-26T10:51:56Z</time>
      </trkpt>
      <trkpt lat="43.632319" lon="-8.058640">
        <ele>16.393</ele>
        <time>2016-09-26T10:51:57Z</time>
      </trkpt>
      <trkpt lat="43.632338" lon="-8.058714">
        <ele>16.167</ele>
        <time>2016-09-26T10:51:58Z</time>
      </trkpt>
      <trkpt lat="43.632343" lon="-8.058779">
        <ele>16.259</ele>
        <time>2016-09-26T10:51:59Z</time>
      </trkpt>
      <trkpt lat="43.632362" lon="-8.058843">
        <ele>16.162</ele>
        <time>2016-09-26T10:52:00Z</time>
      </trkpt>
      <trkpt lat="43.632381" lon="-8.058904">
        <ele>15.910</ele>
        <time>2016-09-26T10:52:01Z</time>
      </trkpt>
      <trkpt lat="43.632400" lon="-8.058966">
        <ele>15.917</ele>
        <time>2016-09-26T10:52:02Z</time>
      </trkpt>
      <trkpt lat="43.632424" lon="-8.059029">
        <ele>15.987</ele>
        <time>2016-09-26T10:52:03Z</time>
      </trkpt>
      <trkpt lat="43.632457" lon="-8.059089">
        <ele>16.015</ele>
        <time>2016-09-26T10:52:04Z</time>
      </trkpt>
      <trkpt lat="43.632499" lon="-8.059149">
        <ele>16.008</ele>
        <time>2016-09-26T10:52:05Z</time>
      </trkpt>
      <trkpt lat="43.632538" lon="-8.059206">
        <ele>15.972</ele>
        <time>2016-09-26T10:52:06Z</time>
      </trkpt>
      <trkpt lat="43.632570" lon="-8.059261">
        <ele>16.087</ele>
        <time>2016-09-26T10:52:07Z</time>
      </trkpt>
      <trkpt lat="43.632602" lon="-8.059315">
        <ele>16.315</ele>
        <time>2016-09-26T10:52:08Z</time>
      </trkpt>
      <trkpt lat="43.632633" lon="-8.059371">
        <ele>16.471</ele>
        <time>2016-09-26T10:52:09Z</time>
      </trkpt>
      <trkpt lat="43.632670" lon="-8.059428">
        <ele>16.495</ele>
        <time>2016-09-26T10:52:10Z</time>
      </trkpt>
      <trkpt lat="43.632705" lon="-8.059483">
        <ele>16.547</ele>
        <time>2016-09-26T10:52:11Z</time>
      </trkpt>
      <trkpt lat="43.632731" lon="-8.059539">
        <ele>16.520</ele>
        <time>2016-09-26T10:52:12Z</time>
      </trkpt>
      <trkpt lat="43.632760" lon="-8.059598">
        <ele>16.668</ele>
        <time>2016-09-26T10:52:13Z</time>
      </trkpt>
      <trkpt lat="43.632795" lon="-8.059657">
        <ele>16.694</ele>
        <time>2016-09-26T10:52:14Z</time>
      </trkpt>
      <trkpt lat="43.632828" lon="-8.059711">
        <ele>16.657</ele>
        <time>2016-09-26T10:52:15Z</time>
      </trkpt>
      <trkpt lat="43.632862" lon="-8.059764">
        <ele>16.622</ele>
        <time>2016-09-26T10:52:16Z</time>
      </trkpt>
      <trkpt lat="43.632902" lon="-8.059817">
        <ele>16.608</ele>
        <time>2016-09-26T10:52:17Z</time>
      </trkpt>
      <trkpt lat="43.632936" lon="-8.059875">
        <ele>16.630</ele>
        <time>2016-09-26T10:52:18Z</time>
      </trkpt>
      <trkpt lat="43.632961" lon="-8.059931">
        <ele>16.755</ele>
        <time>2016-09-26T10:52:19Z</time>
      </trkpt>
      <trkpt lat="43.632990" lon="-8.059992">
        <ele>16.763</ele>
        <time>2016-09-26T10:52:20Z</time>
      </trkpt>
      <trkpt lat="43.633020" lon="-8.060059">
        <ele>16.739</ele>
        <time>2016-09-26T10:52:21Z</time>
      </trkpt>
      <trkpt lat="43.633048" lon="-8.060120">
        <ele>16.863</ele>
        <time>2016-09-26T10:52:22Z</time>
      </trkpt>
      <trkpt lat="43.633080" lon="-8.060182">
        <ele>17.295</ele>
        <time>2016-09-26T10:52:23Z</time>
      </trkpt>
      <trkpt lat="43.633113" lon="-8.060236">
        <ele>17.128</ele>
        <time>2016-09-26T10:52:24Z</time>
      </trkpt>
      <trkpt lat="43.633144" lon="-8.060292">
        <ele>17.166</ele>
        <time>2016-09-26T10:52:25Z</time>
      </trkpt>
      <trkpt lat="43.633171" lon="-8.060343">
        <ele>17.183</ele>
        <time>2016-09-26T10:52:26Z</time>
      </trkpt>
      <trkpt lat="43.633194" lon="-8.060396">
        <ele>17.225</ele>
        <time>2016-09-26T10:52:27Z</time>
      </trkpt>
      <trkpt lat="43.633227" lon="-8.060444">
        <ele>17.217</ele>
        <time>2016-09-26T10:52:28Z</time>
      </trkpt>
      <trkpt lat="43.633254" lon="-8.060487">
        <ele>17.308</ele>
        <time>2016-09-26T10:52:29Z</time>
      </trkpt>
      <trkpt lat="43.633282" lon="-8.060529">
        <ele>17.479</ele>
        <time>2016-09-26T10:52:30Z</time>
      </trkpt>
      <trkpt lat="43.633305" lon="-8.060573">
        <ele>17.544</ele>
        <time>2016-09-26T10:52:31Z</time>
      </trkpt>
      <trkpt lat="43.633336" lon="-8.060611">
        <ele>17.372</ele>
        <time>2016-09-26T10:52:32Z</time>
      </trkpt>
      <trkpt lat="43.633374" lon="-8.060646">
        <ele>17.468</ele>
        <time>2016-09-26T10:52:33Z</time>
      </trkpt>
      <trkpt lat="43.633412" lon="-8.060675">
        <ele>17.512</ele>
        <time>2016-09-26T10:52:34Z</time>
      </trkpt>
      <trkpt lat="43.633459" lon="-8.060708">
        <ele>17.494</ele>
        <time>2016-09-26T10:52:35Z</time>
      </trkpt>
      <trkpt lat="43.633496" lon="-8.060748">
        <ele>17.647</ele>
        <time>2016-09-26T10:52:36Z</time>
      </trkpt>
      <trkpt lat="43.633543" lon="-8.060788">
        <ele>17.715</ele>
        <time>2016-09-26T10:52:37Z</time>
      </trkpt>
      <trkpt lat="43.633579" lon="-8.060827">
        <ele>17.857</ele>
        <time>2016-09-26T10:52:38Z</time>
      </trkpt>
      <trkpt lat="43.633618" lon="-8.060877">
        <ele>17.900</ele>
        <time>2016-09-26T10:52:39Z</time>
      </trkpt>
      <trkpt lat="43.633657" lon="-8.060929">
        <ele>17.920</ele>
        <time>2016-09-26T10:52:40Z</time>
      </trkpt>
      <trkpt lat="43.633695" lon="-8.060990">
        <ele>18.108</ele>
        <time>2016-09-26T10:52:41Z</time>
      </trkpt>
      <trkpt lat="43.633739" lon="-8.061049">
        <ele>18.266</ele>
        <time>2016-09-26T10:52:42Z</time>
      </trkpt>
      <trkpt lat="43.633772" lon="-8.061113">
        <ele>18.451</ele>
        <time>2016-09-26T10:52:43Z</time>
      </trkpt>
      <trkpt lat="43.633802" lon="-8.061173">
        <ele>18.459</ele>
        <time>2016-09-26T10:52:44Z</time>
      </trkpt>
      <trkpt lat="43.633829" lon="-8.061231">
        <ele>18.455</ele>
        <time>2016-09-26T10:52:45Z</time>
      </trkpt>
      <trkpt lat="43.633850" lon="-8.061297">
        <ele>18.499</ele>
        <time>2016-09-26T10:52:46Z</time>
      </trkpt>
      <trkpt lat="43.633872" lon="-8.061362">
        <ele>18.531</ele>
        <time>2016-09-26T10:52:47Z</time>
      </trkpt>
      <trkpt lat="43.633898" lon="-8.061430">
        <ele>18.824</ele>
        <time>2016-09-26T10:52:48Z</time>
      </trkpt>
      <trkpt lat="43.633924" lon="-8.061498">
        <ele>18.752</ele>
        <time>2016-09-26T10:52:49Z</time>
      </trkpt>
      <trkpt lat="43.633948" lon="-8.061566">
        <ele>18.822</ele>
        <time>2016-09-26T10:52:50Z</time>
      </trkpt>
      <trkpt lat="43.633968" lon="-8.061633">
        <ele>18.962</ele>
        <time>2016-09-26T10:52:51Z</time>
      </trkpt>
      <trkpt lat="43.633984" lon="-8.061704">
        <ele>18.908</ele>
        <time>2016-09-26T10:52:52Z</time>
      </trkpt>
      <trkpt lat="43.633995" lon="-8.061778">
        <ele>18.808</ele>
        <time>2016-09-26T10:52:53Z</time>
      </trkpt>
      <trkpt lat="43.634004" lon="-8.061853">
        <ele>18.713</ele>
        <time>2016-09-26T10:52:54Z</time>
      </trkpt>
      <trkpt lat="43.634011" lon="-8.061929">
        <ele>18.758</ele>
        <time>2016-09-26T10:52:55Z</time>
      </trkpt>
      <trkpt lat="43.634016" lon="-8.062003">
        <ele>18.756</ele>
        <time>2016-09-26T10:52:56Z</time>
      </trkpt>
      <trkpt lat="43.634022" lon="-8.062080">
        <ele>18.742</ele>
        <time>2016-09-26T10:52:57Z</time>
      </trkpt>
      <trkpt lat="43.634025" lon="-8.062156">
        <ele>18.676</ele>
        <time>2016-09-26T10:52:58Z</time>
      </trkpt>
      <trkpt lat="43.634033" lon="-8.062228">
        <ele>18.588</ele>
        <time>2016-09-26T10:52:59Z</time>
      </trkpt>
      <trkpt lat="43.634047" lon="-8.062300">
        <ele>18.611</ele>
        <time>2016-09-26T10:53:00Z</time>
      </trkpt>
      <trkpt lat="43.634064" lon="-8.062374">
        <ele>18.649</ele>
        <time>2016-09-26T10:53:01Z</time>
      </trkpt>
      <trkpt lat="43.634085" lon="-8.062444">
        <ele>18.717</ele>
        <time>2016-09-26T10:53:02Z</time>
      </trkpt>
      <trkpt lat="43.634113" lon="-8.062507">
        <ele>18.787</ele>
        <time>2016-09-26T10:53:03Z</time>
      </trkpt>
      <trkpt lat="43.634139" lon="-8.062568">
        <ele>18.715</ele>
        <time>2016-09-26T10:53:04Z</time>
      </trkpt>
      <trkpt lat="43.634165" lon="-8.062629">
        <ele>18.908</ele>
        <time>2016-09-26T10:53:05Z</time>
      </trkpt>
      <trkpt lat="43.634198" lon="-8.062688">
        <ele>19.052</ele>
        <time>2016-09-26T10:53:06Z</time>
      </trkpt>
      <trkpt lat="43.634239" lon="-8.062744">
        <ele>19.097</ele>
        <time>2016-09-26T10:53:07Z</time>
      </trkpt>
      <trkpt lat="43.634280" lon="-8.062801">
        <ele>18.825</ele>
        <time>2016-09-26T10:53:08Z</time>
      </trkpt>
      <trkpt lat="43.634317" lon="-8.062858">
        <ele>18.831</ele>
        <time>2016-09-26T10:53:09Z</time>
      </trkpt>
      <trkpt lat="43.634354" lon="-8.062915">
        <ele>19.025</ele>
        <time>2016-09-26T10:53:10Z</time>
      </trkpt>
      <trkpt lat="43.634383" lon="-8.062972">
        <ele>18.987</ele>
        <time>2016-09-26T10:53:11Z</time>
      </trkpt>
      <trkpt lat="43.634406" lon="-8.063028">
        <ele>18.930</ele>
        <time>2016-09-26T10:53:12Z</time>
      </trkpt>
      <trkpt lat="43.634426" lon="-8.063085">
        <ele>19.058</ele>
        <time>2016-09-26T10:53:13Z</time>
      </trkpt>
      <trkpt lat="43.634440" lon="-8.063142">
        <ele>19.116</ele>
        <time>2016-09-26T10:53:14Z</time>
      </trkpt>
      <trkpt lat="43.634457" lon="-8.063202">
        <ele>19.276</ele>
        <time>2016-09-26T10:53:15Z</time>
      </trkpt>
      <trkpt lat="43.634472" lon="-8.063263">
        <ele>19.213</ele>
        <time>2016-09-26T10:53:16Z</time>
      </trkpt>
      <trkpt lat="43.634488" lon="-8.063321">
        <ele>19.408</ele>
        <time>2016-09-26T10:53:17Z</time>
      </trkpt>
      <trkpt lat="43.634508" lon="-8.063379">
        <ele>19.452</ele>
        <time>2016-09-26T10:53:18Z</time>
      </trkpt>
      <trkpt lat="43.634525" lon="-8.063440">
        <ele>19.347</ele>
        <time>2016-09-26T10:53:19Z</time>
      </trkpt>
      <trkpt lat="43.634540" lon="-8.063504">
        <ele>19.325</ele>
        <time>2016-09-26T10:53:20Z</time>
      </trkpt>
      <trkpt lat="43.634549" lon="-8.063571">
        <ele>19.431</ele>
        <time>2016-09-26T10:53:21Z</time>
      </trkpt>
      <trkpt lat="43.634553" lon="-8.063645">
        <ele>19.375</ele>
        <time>2016-09-26T10:53:22Z</time>
      </trkpt>
      <trkpt lat="43.634555" lon="-8.063720">
        <ele>19.497</ele>
        <time>2016-09-26T10:53:23Z</time>
      </trkpt>
      <trkpt lat="43.634557" lon="-8.063793">
        <ele>19.480</ele>
        <time>2016-09-26T10:53:24Z</time>
      </trkpt>
      <trkpt lat="43.634555" lon="-8.063867">
        <ele>19.488</ele>
        <time>2016-09-26T10:53:25Z</time>
      </trkpt>
      <trkpt lat="43.634557" lon="-8.063942">
        <ele>19.494</ele>
        <time>2016-09-26T10:53:26Z</time>
      </trkpt>
      <trkpt lat="43.634557" lon="-8.064020">
        <ele>19.457</ele>
        <time>2016-09-26T10:53:27Z</time>
      </trkpt>
      <trkpt lat="43.634553" lon="-8.064097">
        <ele>19.522</ele>
        <time>2016-09-26T10:53:28Z</time>
      </trkpt>
      <trkpt lat="43.634550" lon="-8.064176">
        <ele>19.408</ele>
        <time>2016-09-26T10:53:29Z</time>
      </trkpt>
      <trkpt lat="43.634548" lon="-8.064255">
        <ele>19.490</ele>
        <time>2016-09-26T10:53:30Z</time>
      </trkpt>
      <trkpt lat="43.634546" lon="-8.064333">
        <ele>19.515</ele>
        <time>2016-09-26T10:53:31Z</time>
      </trkpt>
      <trkpt lat="43.634543" lon="-8.064405">
        <ele>19.443</ele>
        <time>2016-09-26T10:53:32Z</time>
      </trkpt>
      <trkpt lat="43.634543" lon="-8.064474">
        <ele>19.339</ele>
        <time>2016-09-26T10:53:33Z</time>
      </trkpt>
      <trkpt lat="43.634541" lon="-8.064553">
        <ele>19.393</ele>
        <time>2016-09-26T10:53:34Z</time>
      </trkpt>
      <trkpt lat="43.634547" lon="-8.064634">
        <ele>19.365</ele>
        <time>2016-09-26T10:53:35Z</time>
      </trkpt>
      <trkpt lat="43.634554" lon="-8.064715">
        <ele>19.298</ele>
        <time>2016-09-26T10:53:36Z</time>
      </trkpt>
      <trkpt lat="43.634562" lon="-8.064797">
        <ele>19.266</ele>
        <time>2016-09-26T10:53:37Z</time>
      </trkpt>
      <trkpt lat="43.634571" lon="-8.064875">
        <ele>19.271</ele>
        <time>2016-09-26T10:53:38Z</time>
      </trkpt>
      <trkpt lat="43.634581" lon="-8.064952">
        <ele>19.041</ele>
        <time>2016-09-26T10:53:39Z</time>
      </trkpt>
      <trkpt lat="43.634587" lon="-8.065023">
        <ele>18.915</ele>
        <time>2016-09-26T10:53:40Z</time>
      </trkpt>
      <trkpt lat="43.634600" lon="-8.065093">
        <ele>18.808</ele>
        <time>2016-09-26T10:53:41Z</time>
      </trkpt>
      <trkpt lat="43.634611" lon="-8.065160">
        <ele>18.858</ele>
        <time>2016-09-26T10:53:42Z</time>
      </trkpt>
      <trkpt lat="43.634621" lon="-8.065229">
        <ele>18.823</ele>
        <time>2016-09-26T10:53:43Z</time>
      </trkpt>
      <trkpt lat="43.634633" lon="-8.065298">
        <ele>18.851</ele>
        <time>2016-09-26T10:53:44Z</time>
      </trkpt>
      <trkpt lat="43.634647" lon="-8.065362">
        <ele>18.697</ele>
        <time>2016-09-26T10:53:45Z</time>
      </trkpt>
      <trkpt lat="43.634662" lon="-8.065426">
        <ele>18.741</ele>
        <time>2016-09-26T10:53:46Z</time>
      </trkpt>
      <trkpt lat="43.634672" lon="-8.065490">
        <ele>18.833</ele>
        <time>2016-09-26T10:53:47Z</time>
      </trkpt>
      <trkpt lat="43.634681" lon="-8.065550">
        <ele>18.846</ele>
        <time>2016-09-26T10:53:48Z</time>
      </trkpt>
      <trkpt lat="43.634697" lon="-8.065612">
        <ele>18.974</ele>
        <time>2016-09-26T10:53:49Z</time>
      </trkpt>
      <trkpt lat="43.634719" lon="-8.065672">
        <ele>18.997</ele>
        <time>2016-09-26T10:53:50Z</time>
      </trkpt>
      <trkpt lat="43.634734" lon="-8.065738">
        <ele>18.923</ele>
        <time>2016-09-26T10:53:51Z</time>
      </trkpt>
      <trkpt lat="43.634741" lon="-8.065809">
        <ele>18.925</ele>
        <time>2016-09-26T10:53:52Z</time>
      </trkpt>
      <trkpt lat="43.634746" lon="-8.065885">
        <ele>19.008</ele>
        <time>2016-09-26T10:53:53Z</time>
      </trkpt>
      <trkpt lat="43.634750" lon="-8.065960">
        <ele>18.930</ele>
        <time>2016-09-26T10:53:54Z</time>
      </trkpt>
      <trkpt lat="43.634750" lon="-8.066036">
        <ele>19.085</ele>
        <time>2016-09-26T10:53:55Z</time>
      </trkpt>
      <trkpt lat="43.634757" lon="-8.066114">
        <ele>18.933</ele>
        <time>2016-09-26T10:53:56Z</time>
      </trkpt>
      <trkpt lat="43.634763" lon="-8.066188">
        <ele>18.649</ele>
        <time>2016-09-26T10:53:57Z</time>
      </trkpt>
      <trkpt lat="43.634772" lon="-8.066260">
        <ele>18.683</ele>
        <time>2016-09-26T10:53:58Z</time>
      </trkpt>
      <trkpt lat="43.634782" lon="-8.066325">
        <ele>18.565</ele>
        <time>2016-09-26T10:53:59Z</time>
      </trkpt>
      <trkpt lat="43.634797" lon="-8.066388">
        <ele>18.548</ele>
        <time>2016-09-26T10:54:00Z</time>
      </trkpt>
      <trkpt lat="43.634819" lon="-8.066450">
        <ele>18.646</ele>
        <time>2016-09-26T10:54:01Z</time>
      </trkpt>
      <trkpt lat="43.634849" lon="-8.066517">
        <ele>18.741</ele>
        <time>2016-09-26T10:54:02Z</time>
      </trkpt>
      <trkpt lat="43.634882" lon="-8.066577">
        <ele>18.681</ele>
        <time>2016-09-26T10:54:03Z</time>
      </trkpt>
      <trkpt lat="43.634913" lon="-8.066632">
        <ele>18.809</ele>
        <time>2016-09-26T10:54:04Z</time>
      </trkpt>
      <trkpt lat="43.634943" lon="-8.066685">
        <ele>18.708</ele>
        <time>2016-09-26T10:54:05Z</time>
      </trkpt>
      <trkpt lat="43.634970" lon="-8.066730">
        <ele>18.835</ele>
        <time>2016-09-26T10:54:06Z</time>
      </trkpt>
      <trkpt lat="43.635005" lon="-8.066773">
        <ele>18.840</ele>
        <time>2016-09-26T10:54:07Z</time>
      </trkpt>
      <trkpt lat="43.635040" lon="-8.066817">
        <ele>18.858</ele>
        <time>2016-09-26T10:54:08Z</time>
      </trkpt>
      <trkpt lat="43.635084" lon="-8.066864">
        <ele>18.954</ele>
        <time>2016-09-26T10:54:09Z</time>
      </trkpt>
      <trkpt lat="43.635123" lon="-8.066906">
        <ele>18.978</ele>
        <time>2016-09-26T10:54:10Z</time>
      </trkpt>
      <trkpt lat="43.635161" lon="-8.066952">
        <ele>18.990</ele>
        <time>2016-09-26T10:54:11Z</time>
      </trkpt>
      <trkpt lat="43.635205" lon="-8.066999">
        <ele>18.883</ele>
        <time>2016-09-26T10:54:12Z</time>
      </trkpt>
      <trkpt lat="43.635246" lon="-8.067050">
        <ele>19.031</ele>
        <time>2016-09-26T10:54:13Z</time>
      </trkpt>
      <trkpt lat="43.635281" lon="-8.067107">
        <ele>19.198</ele>
        <time>2016-09-26T10:54:14Z</time>
      </trkpt>
      <trkpt lat="43.635316" lon="-8.067171">
        <ele>19.015</ele>
        <time>2016-09-26T10:54:15Z</time>
      </trkpt>
      <trkpt lat="43.635347" lon="-8.067240">
        <ele>19.026</ele>
        <time>2016-09-26T10:54:16Z</time>
      </trkpt>
      <trkpt lat="43.635370" lon="-8.067315">
        <ele>19.008</ele>
        <time>2016-09-26T10:54:17Z</time>
      </trkpt>
      <trkpt lat="43.635388" lon="-8.067388">
        <ele>19.140</ele>
        <time>2016-09-26T10:54:18Z</time>
      </trkpt>
      <trkpt lat="43.635409" lon="-8.067465">
        <ele>18.995</ele>
        <time>2016-09-26T10:54:19Z</time>
      </trkpt>
      <trkpt lat="43.635426" lon="-8.067538">
        <ele>18.983</ele>
        <time>2016-09-26T10:54:20Z</time>
      </trkpt>
      <trkpt lat="43.635443" lon="-8.067613">
        <ele>18.949</ele>
        <time>2016-09-26T10:54:21Z</time>
      </trkpt>
      <trkpt lat="43.635456" lon="-8.067687">
        <ele>19.173</ele>
        <time>2016-09-26T10:54:22Z</time>
      </trkpt>
      <trkpt lat="43.635471" lon="-8.067767">
        <ele>18.975</ele>
        <time>2016-09-26T10:54:23Z</time>
      </trkpt>
      <trkpt lat="43.635493" lon="-8.067845">
        <ele>18.718</ele>
        <time>2016-09-26T10:54:24Z</time>
      </trkpt>
      <trkpt lat="43.635516" lon="-8.067920">
        <ele>18.846</ele>
        <time>2016-09-26T10:54:25Z</time>
      </trkpt>
      <trkpt lat="43.635534" lon="-8.067993">
        <ele>18.954</ele>
        <time>2016-09-26T10:54:26Z</time>
      </trkpt>
      <trkpt lat="43.635559" lon="-8.068058">
        <ele>19.056</ele>
        <time>2016-09-26T10:54:27Z</time>
      </trkpt>
      <trkpt lat="43.635583" lon="-8.068120">
        <ele>19.011</ele>
        <time>2016-09-26T10:54:28Z</time>
      </trkpt>
      <trkpt lat="43.635609" lon="-8.068184">
        <ele>18.908</ele>
        <time>2016-09-26T10:54:29Z</time>
      </trkpt>
      <trkpt lat="43.635642" lon="-8.068245">
        <ele>18.966</ele>
        <time>2016-09-26T10:54:30Z</time>
      </trkpt>
      <trkpt lat="43.635667" lon="-8.068303">
        <ele>19.181</ele>
        <time>2016-09-26T10:54:31Z</time>
      </trkpt>
      <trkpt lat="43.635693" lon="-8.068362">
        <ele>19.229</ele>
        <time>2016-09-26T10:54:32Z</time>
      </trkpt>
      <trkpt lat="43.635722" lon="-8.068421">
        <ele>19.325</ele>
        <time>2016-09-26T10:54:33Z</time>
      </trkpt>
      <trkpt lat="43.635748" lon="-8.068482">
        <ele>19.129</ele>
        <time>2016-09-26T10:54:34Z</time>
      </trkpt>
      <trkpt lat="43.635776" lon="-8.068543">
        <ele>19.131</ele>
        <time>2016-09-26T10:54:35Z</time>
      </trkpt>
      <trkpt lat="43.635802" lon="-8.068606">
        <ele>19.054</ele>
        <time>2016-09-26T10:54:36Z</time>
      </trkpt>
      <trkpt lat="43.635826" lon="-8.068668">
        <ele>19.022</ele>
        <time>2016-09-26T10:54:37Z</time>
      </trkpt>
      <trkpt lat="43.635852" lon="-8.068730">
        <ele>19.255</ele>
        <time>2016-09-26T10:54:38Z</time>
      </trkpt>
      <trkpt lat="43.635871" lon="-8.068799">
        <ele>19.207</ele>
        <time>2016-09-26T10:54:39Z</time>
      </trkpt>
      <trkpt lat="43.635895" lon="-8.068865">
        <ele>19.317</ele>
        <time>2016-09-26T10:54:40Z</time>
      </trkpt>
      <trkpt lat="43.635923" lon="-8.068928">
        <ele>19.308</ele>
        <time>2016-09-26T10:54:41Z</time>
      </trkpt>
      <trkpt lat="43.635950" lon="-8.068990">
        <ele>19.336</ele>
        <time>2016-09-26T10:54:42Z</time>
      </trkpt>
      <trkpt lat="43.635980" lon="-8.069052">
        <ele>19.491</ele>
        <time>2016-09-26T10:54:43Z</time>
      </trkpt>
      <trkpt lat="43.636005" lon="-8.069114">
        <ele>19.419</ele>
        <time>2016-09-26T10:54:44Z</time>
      </trkpt>
      <trkpt lat="43.636016" lon="-8.069185">
        <ele>19.385</ele>
        <time>2016-09-26T10:54:45Z</time>
      </trkpt>
      <trkpt lat="43.636023" lon="-8.069259">
        <ele>19.229</ele>
        <time>2016-09-26T10:54:46Z</time>
      </trkpt>
      <trkpt lat="43.636028" lon="-8.069338">
        <ele>19.051</ele>
        <time>2016-09-26T10:54:47Z</time>
      </trkpt>
      <trkpt lat="43.636032" lon="-8.069416">
        <ele>19.044</ele>
        <time>2016-09-26T10:54:48Z</time>
      </trkpt>
      <trkpt lat="43.636039" lon="-8.069498">
        <ele>19.162</ele>
        <time>2016-09-26T10:54:49Z</time>
      </trkpt>
      <trkpt lat="43.636045" lon="-8.069581">
        <ele>19.196</ele>
        <time>2016-09-26T10:54:50Z</time>
      </trkpt>
      <trkpt lat="43.636054" lon="-8.069662">
        <ele>18.931</ele>
        <time>2016-09-26T10:54:51Z</time>
      </trkpt>
      <trkpt lat="43.636067" lon="-8.069742">
        <ele>18.724</ele>
        <time>2016-09-26T10:54:52Z</time>
      </trkpt>
      <trkpt lat="43.636087" lon="-8.069818">
        <ele>18.708</ele>
        <time>2016-09-26T10:54:53Z</time>
      </trkpt>
      <trkpt lat="43.636113" lon="-8.069888">
        <ele>18.570</ele>
        <time>2016-09-26T10:54:54Z</time>
      </trkpt>
      <trkpt lat="43.636137" lon="-8.069955">
        <ele>18.335</ele>
        <time>2016-09-26T10:54:55Z</time>
      </trkpt>
      <trkpt lat="43.636165" lon="-8.070019">
        <ele>18.273</ele>
        <time>2016-09-26T10:54:56Z</time>
      </trkpt>
      <trkpt lat="43.636193" lon="-8.070078">
        <ele>18.159</ele>
        <time>2016-09-26T10:54:57Z</time>
      </trkpt>
      <trkpt lat="43.636222" lon="-8.070133">
        <ele>18.223</ele>
        <time>2016-09-26T10:54:58Z</time>
      </trkpt>
      <trkpt lat="43.636254" lon="-8.070186">
        <ele>18.255</ele>
        <time>2016-09-26T10:54:59Z</time>
      </trkpt>
      <trkpt lat="43.636280" lon="-8.070239">
        <ele>18.168</ele>
        <time>2016-09-26T10:55:00Z</time>
      </trkpt>
      <trkpt lat="43.636305" lon="-8.070295">
        <ele>18.336</ele>
        <time>2016-09-26T10:55:01Z</time>
      </trkpt>
      <trkpt lat="43.636332" lon="-8.070355">
        <ele>18.339</ele>
        <time>2016-09-26T10:55:02Z</time>
      </trkpt>
      <trkpt lat="43.636358" lon="-8.070416">
        <ele>18.401</ele>
        <time>2016-09-26T10:55:03Z</time>
      </trkpt>
      <trkpt lat="43.636382" lon="-8.070479">
        <ele>18.521</ele>
        <time>2016-09-26T10:55:04Z</time>
      </trkpt>
      <trkpt lat="43.636413" lon="-8.070542">
        <ele>18.608</ele>
        <time>2016-09-26T10:55:05Z</time>
      </trkpt>
      <trkpt lat="43.636441" lon="-8.070605">
        <ele>18.614</ele>
        <time>2016-09-26T10:55:06Z</time>
      </trkpt>
      <trkpt lat="43.636463" lon="-8.070670">
        <ele>18.889</ele>
        <time>2016-09-26T10:55:07Z</time>
      </trkpt>
      <trkpt lat="43.636486" lon="-8.070740">
        <ele>18.877</ele>
        <time>2016-09-26T10:55:08Z</time>
      </trkpt>
      <trkpt lat="43.636507" lon="-8.070813">
        <ele>18.853</ele>
        <time>2016-09-26T10:55:09Z</time>
      </trkpt>
      <trkpt lat="43.636528" lon="-8.070886">
        <ele>18.877</ele>
        <time>2016-09-26T10:55:10Z</time>
      </trkpt>
      <trkpt lat="43.636548" lon="-8.070958">
        <ele>18.999</ele>
        <time>2016-09-26T10:55:11Z</time>
      </trkpt>
      <trkpt lat="43.636571" lon="-8.071029">
        <ele>18.982</ele>
        <time>2016-09-26T10:55:12Z</time>
      </trkpt>
      <trkpt lat="43.636590" lon="-8.071096">
        <ele>19.050</ele>
        <time>2016-09-26T10:55:13Z</time>
      </trkpt>
      <trkpt lat="43.636607" lon="-8.071163">
        <ele>19.147</ele>
        <time>2016-09-26T10:55:14Z</time>
      </trkpt>
      <trkpt lat="43.636624" lon="-8.071229">
        <ele>19.229</ele>
        <time>2016-09-26T10:55:15Z</time>
      </trkpt>
      <trkpt lat="43.636641" lon="-8.071291">
        <ele>19.221</ele>
        <time>2016-09-26T10:55:16Z</time>
      </trkpt>
      <trkpt lat="43.636663" lon="-8.071354">
        <ele>19.208</ele>
        <time>2016-09-26T10:55:17Z</time>
      </trkpt>
      <trkpt lat="43.636683" lon="-8.071416">
        <ele>19.135</ele>
        <time>2016-09-26T10:55:18Z</time>
      </trkpt>
      <trkpt lat="43.636702" lon="-8.071477">
        <ele>19.240</ele>
        <time>2016-09-26T10:55:19Z</time>
      </trkpt>
      <trkpt lat="43.636722" lon="-8.071539">
        <ele>19.178</ele>
        <time>2016-09-26T10:55:20Z</time>
      </trkpt>
      <trkpt lat="43.636740" lon="-8.071598">
        <ele>19.254</ele>
        <time>2016-09-26T10:55:21Z</time>
      </trkpt>
      <trkpt lat="43.636759" lon="-8.071654">
        <ele>19.258</ele>
        <time>2016-09-26T10:55:22Z</time>
      </trkpt>
      <trkpt lat="43.636777" lon="-8.071710">
        <ele>19.180</ele>
        <time>2016-09-26T10:55:23Z</time>
      </trkpt>
      <trkpt lat="43.636795" lon="-8.071765">
        <ele>19.373</ele>
        <time>2016-09-26T10:55:24Z</time>
      </trkpt>
      <trkpt lat="43.636813" lon="-8.071820">
        <ele>19.451</ele>
        <time>2016-09-26T10:55:25Z</time>
      </trkpt>
      <trkpt lat="43.636831" lon="-8.071872">
        <ele>19.432</ele>
        <time>2016-09-26T10:55:26Z</time>
      </trkpt>
      <trkpt lat="43.636848" lon="-8.071923">
        <ele>19.492</ele>
        <time>2016-09-26T10:55:27Z</time>
      </trkpt>
      <trkpt lat="43.636866" lon="-8.071974">
        <ele>19.411</ele>
        <time>2016-09-26T10:55:28Z</time>
      </trkpt>
      <trkpt lat="43.636884" lon="-8.072026">
        <ele>19.808</ele>
        <time>2016-09-26T10:55:29Z</time>
      </trkpt>
      <trkpt lat="43.636902" lon="-8.072078">
        <ele>19.994</ele>
        <time>2016-09-26T10:55:30Z</time>
      </trkpt>
      <trkpt lat="43.636919" lon="-8.072128">
        <ele>20.149</ele>
        <time>2016-09-26T10:55:31Z</time>
      </trkpt>
      <trkpt lat="43.636935" lon="-8.072179">
        <ele>20.117</ele>
        <time>2016-09-26T10:55:32Z</time>
      </trkpt>
      <trkpt lat="43.636952" lon="-8.072231">
        <ele>20.083</ele>
        <time>2016-09-26T10:55:33Z</time>
      </trkpt>
      <trkpt lat="43.636969" lon="-8.072282">
        <ele>20.247</ele>
        <time>2016-09-26T10:55:34Z</time>
      </trkpt>
      <trkpt lat="43.636987" lon="-8.072332">
        <ele>20.429</ele>
        <time>2016-09-26T10:55:35Z</time>
      </trkpt>
      <trkpt lat="43.637006" lon="-8.072382">
        <ele>20.872</ele>
        <time>2016-09-26T10:55:36Z</time>
      </trkpt>
      <trkpt lat="43.637025" lon="-8.072433">
        <ele>20.970</ele>
        <time>2016-09-26T10:55:37Z</time>
      </trkpt>
      <trkpt lat="43.637044" lon="-8.072484">
        <ele>21.051</ele>
        <time>2016-09-26T10:55:38Z</time>
      </trkpt>
      <trkpt lat="43.637060" lon="-8.072535">
        <ele>21.101</ele>
        <time>2016-09-26T10:55:39Z</time>
      </trkpt>
      <trkpt lat="43.637077" lon="-8.072584">
        <ele>21.311</ele>
        <time>2016-09-26T10:55:40Z</time>
      </trkpt>
      <trkpt lat="43.637095" lon="-8.072637">
        <ele>21.508</ele>
        <time>2016-09-26T10:55:41Z</time>
      </trkpt>
      <trkpt lat="43.637112" lon="-8.072687">
        <ele>21.656</ele>
        <time>2016-09-26T10:55:42Z</time>
      </trkpt>
      <trkpt lat="43.637130" lon="-8.072738">
        <ele>21.911</ele>
        <time>2016-09-26T10:55:43Z</time>
      </trkpt>
      <trkpt lat="43.637149" lon="-8.072788">
        <ele>22.219</ele>
        <time>2016-09-26T10:55:44Z</time>
      </trkpt>
      <trkpt lat="43.637171" lon="-8.072836">
        <ele>22.275</ele>
        <time>2016-09-26T10:55:45Z</time>
      </trkpt>
      <trkpt lat="43.637190" lon="-8.072882">
        <ele>22.319</ele>
        <time>2016-09-26T10:55:46Z</time>
      </trkpt>
      <trkpt lat="43.637208" lon="-8.072930">
        <ele>22.491</ele>
        <time>2016-09-26T10:55:47Z</time>
      </trkpt>
      <trkpt lat="43.637227" lon="-8.072979">
        <ele>22.514</ele>
        <time>2016-09-26T10:55:48Z</time>
      </trkpt>
      <trkpt lat="43.637245" lon="-8.073026">
        <ele>22.542</ele>
        <time>2016-09-26T10:55:49Z</time>
      </trkpt>
      <trkpt lat="43.637265" lon="-8.073075">
        <ele>22.739</ele>
        <time>2016-09-26T10:55:50Z</time>
      </trkpt>
      <trkpt lat="43.637286" lon="-8.073124">
        <ele>23.001</ele>
        <time>2016-09-26T10:55:51Z</time>
      </trkpt>
      <trkpt lat="43.637307" lon="-8.073171">
        <ele>22.921</ele>
        <time>2016-09-26T10:55:52Z</time>
      </trkpt>
      <trkpt lat="43.637328" lon="-8.073217">
        <ele>23.008</ele>
        <time>2016-09-26T10:55:53Z</time>
      </trkpt>
      <trkpt lat="43.637349" lon="-8.073262">
        <ele>23.184</ele>
        <time>2016-09-26T10:55:54Z</time>
      </trkpt>
      <trkpt lat="43.637372" lon="-8.073304">
        <ele>23.389</ele>
        <time>2016-09-26T10:55:55Z</time>
      </trkpt>
      <trkpt lat="43.637398" lon="-8.073347">
        <ele>23.567</ele>
        <time>2016-09-26T10:55:56Z</time>
      </trkpt>
      <trkpt lat="43.637426" lon="-8.073389">
        <ele>23.673</ele>
        <time>2016-09-26T10:55:57Z</time>
      </trkpt>
      <trkpt lat="43.637454" lon="-8.073429">
        <ele>23.527</ele>
        <time>2016-09-26T10:55:58Z</time>
      </trkpt>
      <trkpt lat="43.637482" lon="-8.073467">
        <ele>23.689</ele>
        <time>2016-09-26T10:55:59Z</time>
      </trkpt>
      <trkpt lat="43.637511" lon="-8.073504">
        <ele>23.752</ele>
        <time>2016-09-26T10:56:00Z</time>
      </trkpt>
      <trkpt lat="43.637542" lon="-8.073539">
        <ele>23.930</ele>
        <time>2016-09-26T10:56:01Z</time>
      </trkpt>
      <trkpt lat="43.637572" lon="-8.073571">
        <ele>24.037</ele>
        <time>2016-09-26T10:56:02Z</time>
      </trkpt>
      <trkpt lat="43.637606" lon="-8.073599">
        <ele>24.049</ele>
        <time>2016-09-26T10:56:03Z</time>
      </trkpt>
      <trkpt lat="43.637640" lon="-8.073625">
        <ele>24.113</ele>
        <time>2016-09-26T10:56:04Z</time>
      </trkpt>
      <trkpt lat="43.637675" lon="-8.073651">
        <ele>24.308</ele>
        <time>2016-09-26T10:56:05Z</time>
      </trkpt>
      <trkpt lat="43.637710" lon="-8.073676">
        <ele>24.514</ele>
        <time>2016-09-26T10:56:06Z</time>
      </trkpt>
      <trkpt lat="43.637743" lon="-8.073703">
        <ele>24.779</ele>
        <time>2016-09-26T10:56:07Z</time>
      </trkpt>
      <trkpt lat="43.637777" lon="-8.073730">
        <ele>24.917</ele>
        <time>2016-09-26T10:56:08Z</time>
      </trkpt>
      <trkpt lat="43.637810" lon="-8.073753">
        <ele>25.143</ele>
        <time>2016-09-26T10:56:09Z</time>
      </trkpt>
      <trkpt lat="43.637841" lon="-8.073776">
        <ele>25.327</ele>
        <time>2016-09-26T10:56:10Z</time>
      </trkpt>
      <trkpt lat="43.637874" lon="-8.073799">
        <ele>25.429</ele>
        <time>2016-09-26T10:56:11Z</time>
      </trkpt>
      <trkpt lat="43.637907" lon="-8.073820">
        <ele>25.532</ele>
        <time>2016-09-26T10:56:12Z</time>
      </trkpt>
      <trkpt lat="43.637938" lon="-8.073842">
        <ele>25.620</ele>
        <time>2016-09-26T10:56:13Z</time>
      </trkpt>
      <trkpt lat="43.637969" lon="-8.073863">
        <ele>25.816</ele>
        <time>2016-09-26T10:56:14Z</time>
      </trkpt>
      <trkpt lat="43.638001" lon="-8.073884">
        <ele>26.076</ele>
        <time>2016-09-26T10:56:15Z</time>
      </trkpt>
      <trkpt lat="43.638034" lon="-8.073906">
        <ele>26.113</ele>
        <time>2016-09-26T10:56:16Z</time>
      </trkpt>
      <trkpt lat="43.638067" lon="-8.073929">
        <ele>26.208</ele>
        <time>2016-09-26T10:56:17Z</time>
      </trkpt>
      <trkpt lat="43.638098" lon="-8.073952">
        <ele>26.362</ele>
        <time>2016-09-26T10:56:18Z</time>
      </trkpt>
      <trkpt lat="43.638133" lon="-8.073976">
        <ele>26.537</ele>
        <time>2016-09-26T10:56:19Z</time>
      </trkpt>
      <trkpt lat="43.638166" lon="-8.073998">
        <ele>26.545</ele>
        <time>2016-09-26T10:56:20Z</time>
      </trkpt>
      <trkpt lat="43.638200" lon="-8.074021">
        <ele>26.751</ele>
        <time>2016-09-26T10:56:21Z</time>
      </trkpt>
      <trkpt lat="43.638236" lon="-8.074043">
        <ele>26.635</ele>
        <time>2016-09-26T10:56:22Z</time>
      </trkpt>
      <trkpt lat="43.638272" lon="-8.074066">
        <ele>26.767</ele>
        <time>2016-09-26T10:56:23Z</time>
      </trkpt>
      <trkpt lat="43.638308" lon="-8.074090">
        <ele>26.810</ele>
        <time>2016-09-26T10:56:24Z</time>
      </trkpt>
      <trkpt lat="43.638342" lon="-8.074113">
        <ele>27.038</ele>
        <time>2016-09-26T10:56:25Z</time>
      </trkpt>
      <trkpt lat="43.638376" lon="-8.074136">
        <ele>27.015</ele>
        <time>2016-09-26T10:56:26Z</time>
      </trkpt>
      <trkpt lat="43.638413" lon="-8.074157">
        <ele>27.165</ele>
        <time>2016-09-26T10:56:27Z</time>
      </trkpt>
      <trkpt lat="43.638452" lon="-8.074179">
        <ele>27.211</ele>
        <time>2016-09-26T10:56:28Z</time>
      </trkpt>
      <trkpt lat="43.638487" lon="-8.074202">
        <ele>27.308</ele>
        <time>2016-09-26T10:56:29Z</time>
      </trkpt>
      <trkpt lat="43.638522" lon="-8.074225">
        <ele>27.362</ele>
        <time>2016-09-26T10:56:30Z</time>
      </trkpt>
      <trkpt lat="43.638558" lon="-8.074246">
        <ele>27.557</ele>
        <time>2016-09-26T10:56:31Z</time>
      </trkpt>
      <trkpt lat="43.638594" lon="-8.074269">
        <ele>27.695</ele>
        <time>2016-09-26T10:56:32Z</time>
      </trkpt>
      <trkpt lat="43.638630" lon="-8.074293">
        <ele>27.741</ele>
        <time>2016-09-26T10:56:33Z</time>
      </trkpt>
      <trkpt lat="43.638666" lon="-8.074318">
        <ele>28.065</ele>
        <time>2016-09-26T10:56:34Z</time>
      </trkpt>
      <trkpt lat="43.638701" lon="-8.074341">
        <ele>28.187</ele>
        <time>2016-09-26T10:56:35Z</time>
      </trkpt>
      <trkpt lat="43.638737" lon="-8.074365">
        <ele>28.270</ele>
        <time>2016-09-26T10:56:36Z</time>
      </trkpt>
      <trkpt lat="43.638773" lon="-8.074388">
        <ele>28.278</ele>
        <time>2016-09-26T10:56:37Z</time>
      </trkpt>
      <trkpt lat="43.638810" lon="-8.074413">
        <ele>28.122</ele>
        <time>2016-09-26T10:56:38Z</time>
      </trkpt>
      <trkpt lat="43.638846" lon="-8.074439">
        <ele>28.162</ele>
        <time>2016-09-26T10:56:39Z</time>
      </trkpt>
      <trkpt lat="43.638882" lon="-8.074465">
        <ele>27.908</ele>
        <time>2016-09-26T10:56:40Z</time>
      </trkpt>
      <trkpt lat="43.638919" lon="-8.074489">
        <ele>28.008</ele>
        <time>2016-09-26T10:56:41Z</time>
      </trkpt>
      <trkpt lat="43.638955" lon="-8.074514">
        <ele>28.093</ele>
        <time>2016-09-26T10:56:42Z</time>
      </trkpt>
      <trkpt lat="43.638992" lon="-8.074539">
        <ele>28.038</ele>
        <time>2016-09-26T10:56:43Z</time>
      </trkpt>
      <trkpt lat="43.639031" lon="-8.074563">
        <ele>28.156</ele>
        <time>2016-09-26T10:56:44Z</time>
      </trkpt>
      <trkpt lat="43.639068" lon="-8.074589">
        <ele>28.192</ele>
        <time>2016-09-26T10:56:45Z</time>
      </trkpt>
      <trkpt lat="43.639105" lon="-8.074614">
        <ele>28.286</ele>
        <time>2016-09-26T10:56:46Z</time>
      </trkpt>
      <trkpt lat="43.639144" lon="-8.074640">
        <ele>28.538</ele>
        <time>2016-09-26T10:56:47Z</time>
      </trkpt>
      <trkpt lat="43.639182" lon="-8.074666">
        <ele>28.341</ele>
        <time>2016-09-26T10:56:48Z</time>
      </trkpt>
      <trkpt lat="43.639221" lon="-8.074692">
        <ele>28.339</ele>
        <time>2016-09-26T10:56:49Z</time>
      </trkpt>
      <trkpt lat="43.639260" lon="-8.074718">
        <ele>28.168</ele>
        <time>2016-09-26T10:56:50Z</time>
      </trkpt>
      <trkpt lat="43.639301" lon="-8.074746">
        <ele>28.242</ele>
        <time>2016-09-26T10:56:51Z</time>
      </trkpt>
      <trkpt lat="43.639341" lon="-8.074772">
        <ele>28.126</ele>
        <time>2016-09-26T10:56:52Z</time>
      </trkpt>
      <trkpt lat="43.639380" lon="-8.074800">
        <ele>28.208</ele>
        <time>2016-09-26T10:56:53Z</time>
      </trkpt>
      <trkpt lat="43.639416" lon="-8.074832">
        <ele>28.467</ele>
        <time>2016-09-26T10:56:54Z</time>
      </trkpt>
      <trkpt lat="43.639452" lon="-8.074864">
        <ele>28.442</ele>
        <time>2016-09-26T10:56:55Z</time>
      </trkpt>
      <trkpt lat="43.639485" lon="-8.074896">
        <ele>28.750</ele>
        <time>2016-09-26T10:56:56Z</time>
      </trkpt>
      <trkpt lat="43.639520" lon="-8.074926">
        <ele>28.596</ele>
        <time>2016-09-26T10:56:57Z</time>
      </trkpt>
      <trkpt lat="43.639557" lon="-8.074953">
        <ele>28.650</ele>
        <time>2016-09-26T10:56:58Z</time>
      </trkpt>
      <trkpt lat="43.639593" lon="-8.074981">
        <ele>28.762</ele>
        <time>2016-09-26T10:56:59Z</time>
      </trkpt>
      <trkpt lat="43.639628" lon="-8.075012">
        <ele>28.765</ele>
        <time>2016-09-26T10:57:00Z</time>
      </trkpt>
      <trkpt lat="43.639662" lon="-8.075044">
        <ele>28.533</ele>
        <time>2016-09-26T10:57:01Z</time>
      </trkpt>
      <trkpt lat="43.639695" lon="-8.075077">
        <ele>28.613</ele>
        <time>2016-09-26T10:57:02Z</time>
      </trkpt>
      <trkpt lat="43.639725" lon="-8.075112">
        <ele>28.743</ele>
        <time>2016-09-26T10:57:03Z</time>
      </trkpt>
      <trkpt lat="43.639751" lon="-8.075151">
        <ele>28.807</ele>
        <time>2016-09-26T10:57:04Z</time>
      </trkpt>
      <trkpt lat="43.639775" lon="-8.075197">
        <ele>28.908</ele>
        <time>2016-09-26T10:57:05Z</time>
      </trkpt>
      <trkpt lat="43.639801" lon="-8.075244">
        <ele>29.092</ele>
        <time>2016-09-26T10:57:06Z</time>
      </trkpt>
      <trkpt lat="43.639829" lon="-8.075292">
        <ele>29.067</ele>
        <time>2016-09-26T10:57:07Z</time>
      </trkpt>
      <trkpt lat="43.639857" lon="-8.075342">
        <ele>29.075</ele>
        <time>2016-09-26T10:57:08Z</time>
      </trkpt>
      <trkpt lat="43.639881" lon="-8.075395">
        <ele>28.861</ele>
        <time>2016-09-26T10:57:09Z</time>
      </trkpt>
      <trkpt lat="43.639903" lon="-8.075451">
        <ele>28.845</ele>
        <time>2016-09-26T10:57:10Z</time>
      </trkpt>
      <trkpt lat="43.639922" lon="-8.075508">
        <ele>28.847</ele>
        <time>2016-09-26T10:57:11Z</time>
      </trkpt>
      <trkpt lat="43.639939" lon="-8.075566">
        <ele>28.870</ele>
        <time>2016-09-26T10:57:12Z</time>
      </trkpt>
      <trkpt lat="43.639955" lon="-8.075627">
        <ele>28.828</ele>
        <time>2016-09-26T10:57:13Z</time>
      </trkpt>
      <trkpt lat="43.639966" lon="-8.075687">
        <ele>28.765</ele>
        <time>2016-09-26T10:57:14Z</time>
      </trkpt>
      <trkpt lat="43.639976" lon="-8.075749">
        <ele>28.768</ele>
        <time>2016-09-26T10:57:15Z</time>
      </trkpt>
      <trkpt lat="43.639985" lon="-8.075812">
        <ele>28.714</ele>
        <time>2016-09-26T10:57:16Z</time>
      </trkpt>
      <trkpt lat="43.639997" lon="-8.075879">
        <ele>28.708</ele>
        <time>2016-09-26T10:57:17Z</time>
      </trkpt>
      <trkpt lat="43.640003" lon="-8.075944">
        <ele>28.537</ele>
        <time>2016-09-26T10:57:18Z</time>
      </trkpt>
      <trkpt lat="43.640011" lon="-8.076012">
        <ele>28.792</ele>
        <time>2016-09-26T10:57:19Z</time>
      </trkpt>
      <trkpt lat="43.640015" lon="-8.076079">
        <ele>28.950</ele>
        <time>2016-09-26T10:57:20Z</time>
      </trkpt>
      <trkpt lat="43.640017" lon="-8.076144">
        <ele>28.766</ele>
        <time>2016-09-26T10:57:21Z</time>
      </trkpt>
      <trkpt lat="43.640016" lon="-8.076207">
        <ele>28.620</ele>
        <time>2016-09-26T10:57:22Z</time>
      </trkpt>
      <trkpt lat="43.640006" lon="-8.076265">
        <ele>28.862</ele>
        <time>2016-09-26T10:57:23Z</time>
      </trkpt>
      <trkpt lat="43.639993" lon="-8.076322">
        <ele>28.775</ele>
        <time>2016-09-26T10:57:24Z</time>
      </trkpt>
      <trkpt lat="43.639978" lon="-8.076381">
        <ele>28.813</ele>
        <time>2016-09-26T10:57:25Z</time>
      </trkpt>
      <trkpt lat="43.639961" lon="-8.076440">
        <ele>28.726</ele>
        <time>2016-09-26T10:57:26Z</time>
      </trkpt>
      <trkpt lat="43.639940" lon="-8.076494">
        <ele>28.747</ele>
        <time>2016-09-26T10:57:27Z</time>
      </trkpt>
      <trkpt lat="43.639926" lon="-8.076550">
        <ele>28.711</ele>
        <time>2016-09-26T10:57:28Z</time>
      </trkpt>
      <trkpt lat="43.639912" lon="-8.076607">
        <ele>28.808</ele>
        <time>2016-09-26T10:57:29Z</time>
      </trkpt>
      <trkpt lat="43.639896" lon="-8.076661">
        <ele>28.993</ele>
        <time>2016-09-26T10:57:30Z</time>
      </trkpt>
      <trkpt lat="43.639870" lon="-8.076711">
        <ele>28.868</ele>
        <time>2016-09-26T10:57:31Z</time>
      </trkpt>
      <trkpt lat="43.639842" lon="-8.076760">
        <ele>28.776</ele>
        <time>2016-09-26T10:57:32Z</time>
      </trkpt>
      <trkpt lat="43.639810" lon="-8.076807">
        <ele>28.642</ele>
        <time>2016-09-26T10:57:33Z</time>
      </trkpt>
      <trkpt lat="43.639778" lon="-8.076855">
        <ele>28.676</ele>
        <time>2016-09-26T10:57:34Z</time>
      </trkpt>
      <trkpt lat="43.639746" lon="-8.076905">
        <ele>28.738</ele>
        <time>2016-09-26T10:57:35Z</time>
      </trkpt>
      <trkpt lat="43.639708" lon="-8.076949">
        <ele>28.831</ele>
        <time>2016-09-26T10:57:36Z</time>
      </trkpt>
      <trkpt lat="43.639661" lon="-8.076987">
        <ele>28.649</ele>
        <time>2016-09-26T10:57:37Z</time>
      </trkpt>
      <trkpt lat="43.639614" lon="-8.077024">
        <ele>28.719</ele>
        <time>2016-09-26T10:57:38Z</time>
      </trkpt>
      <trkpt lat="43.639566" lon="-8.077060">
        <ele>28.609</ele>
        <time>2016-09-26T10:57:39Z</time>
      </trkpt>
      <trkpt lat="43.639520" lon="-8.077099">
        <ele>28.619</ele>
        <time>2016-09-26T10:57:40Z</time>
      </trkpt>
      <trkpt lat="43.639471" lon="-8.077139">
        <ele>28.608</ele>
        <time>2016-09-26T10:57:41Z</time>
      </trkpt>
      <trkpt lat="43.639422" lon="-8.077175">
        <ele>28.522</ele>
        <time>2016-09-26T10:57:42Z</time>
      </trkpt>
      <trkpt lat="43.639374" lon="-8.077211">
        <ele>28.277</ele>
        <time>2016-09-26T10:57:43Z</time>
      </trkpt>
      <trkpt lat="43.639324" lon="-8.077246">
        <ele>28.015</ele>
        <time>2016-09-26T10:57:44Z</time>
      </trkpt>
      <trkpt lat="43.639279" lon="-8.077288">
        <ele>27.921</ele>
        <time>2016-09-26T10:57:45Z</time>
      </trkpt>
      <trkpt lat="43.639232" lon="-8.077327">
        <ele>28.035</ele>
        <time>2016-09-26T10:57:46Z</time>
      </trkpt>
      <trkpt lat="43.639184" lon="-8.077368">
        <ele>27.827</ele>
        <time>2016-09-26T10:57:47Z</time>
      </trkpt>
      <trkpt lat="43.639138" lon="-8.077417">
        <ele>27.930</ele>
        <time>2016-09-26T10:57:48Z</time>
      </trkpt>
      <trkpt lat="43.639089" lon="-8.077461">
        <ele>27.658</ele>
        <time>2016-09-26T10:57:49Z</time>
      </trkpt>
      <trkpt lat="43.639044" lon="-8.077502">
        <ele>27.393</ele>
        <time>2016-09-26T10:57:50Z</time>
      </trkpt>
      <trkpt lat="43.638998" lon="-8.077545">
        <ele>27.265</ele>
        <time>2016-09-26T10:57:51Z</time>
      </trkpt>
      <trkpt lat="43.638951" lon="-8.077588">
        <ele>27.521</ele>
        <time>2016-09-26T10:57:52Z</time>
      </trkpt>
      <trkpt lat="43.638907" lon="-8.077632">
        <ele>27.408</ele>
        <time>2016-09-26T10:57:53Z</time>
      </trkpt>
      <trkpt lat="43.638859" lon="-8.077678">
        <ele>27.580</ele>
        <time>2016-09-26T10:57:54Z</time>
      </trkpt>
      <trkpt lat="43.638812" lon="-8.077724">
        <ele>27.635</ele>
        <time>2016-09-26T10:57:55Z</time>
      </trkpt>
      <trkpt lat="43.638767" lon="-8.077771">
        <ele>27.673</ele>
        <time>2016-09-26T10:57:56Z</time>
      </trkpt>
      <trkpt lat="43.638722" lon="-8.077819">
        <ele>27.899</ele>
        <time>2016-09-26T10:57:57Z</time>
      </trkpt>
      <trkpt lat="43.638676" lon="-8.077867">
        <ele>27.953</ele>
        <time>2016-09-26T10:57:58Z</time>
      </trkpt>
      <trkpt lat="43.638630" lon="-8.077910">
        <ele>27.975</ele>
        <time>2016-09-26T10:57:59Z</time>
      </trkpt>
      <trkpt lat="43.638583" lon="-8.077954">
        <ele>27.968</ele>
        <time>2016-09-26T10:58:00Z</time>
      </trkpt>
      <trkpt lat="43.638536" lon="-8.077994">
        <ele>27.966</ele>
        <time>2016-09-26T10:58:01Z</time>
      </trkpt>
      <trkpt lat="43.638491" lon="-8.078038">
        <ele>27.841</ele>
        <time>2016-09-26T10:58:02Z</time>
      </trkpt>
      <trkpt lat="43.638444" lon="-8.078080">
        <ele>27.881</ele>
        <time>2016-09-26T10:58:03Z</time>
      </trkpt>
      <trkpt lat="43.638398" lon="-8.078122">
        <ele>27.609</ele>
        <time>2016-09-26T10:58:04Z</time>
      </trkpt>
      <trkpt lat="43.638352" lon="-8.078167">
        <ele>27.708</ele>
        <time>2016-09-26T10:58:05Z</time>
      </trkpt>
      <trkpt lat="43.638306" lon="-8.078208">
        <ele>27.925</ele>
        <time>2016-09-26T10:58:06Z</time>
      </trkpt>
      <trkpt lat="43.638258" lon="-8.078245">
        <ele>27.860</ele>
        <time>2016-09-26T10:58:07Z</time>
      </trkpt>
      <trkpt lat="43.638209" lon="-8.078282">
        <ele>27.868</ele>
        <time>2016-09-26T10:58:08Z</time>
      </trkpt>
      <trkpt lat="43.638158" lon="-8.078317">
        <ele>27.854</ele>
        <time>2016-09-26T10:58:09Z</time>
      </trkpt>
      <trkpt lat="43.638108" lon="-8.078348">
        <ele>27.828</ele>
        <time>2016-09-26T10:58:10Z</time>
      </trkpt>
      <trkpt lat="43.638055" lon="-8.078378">
        <ele>27.970</ele>
        <time>2016-09-26T10:58:11Z</time>
      </trkpt>
      <trkpt lat="43.638001" lon="-8.078405">
        <ele>27.983</ele>
        <time>2016-09-26T10:58:12Z</time>
      </trkpt>
      <trkpt lat="43.637947" lon="-8.078430">
        <ele>27.841</ele>
        <time>2016-09-26T10:58:13Z</time>
      </trkpt>
      <trkpt lat="43.637893" lon="-8.078455">
        <ele>27.814</ele>
        <time>2016-09-26T10:58:14Z</time>
      </trkpt>
      <trkpt lat="43.637838" lon="-8.078483">
        <ele>27.854</ele>
        <time>2016-09-26T10:58:15Z</time>
      </trkpt>
      <trkpt lat="43.637784" lon="-8.078513">
        <ele>27.709</ele>
        <time>2016-09-26T10:58:16Z</time>
      </trkpt>
      <trkpt lat="43.637729" lon="-8.078539">
        <ele>27.708</ele>
        <time>2016-09-26T10:58:17Z</time>
      </trkpt>
      <trkpt lat="43.637672" lon="-8.078558">
        <ele>27.722</ele>
        <time>2016-09-26T10:58:18Z</time>
      </trkpt>
      <trkpt lat="43.637616" lon="-8.078583">
        <ele>27.637</ele>
        <time>2016-09-26T10:58:19Z</time>
      </trkpt>
      <trkpt lat="43.637561" lon="-8.078609">
        <ele>27.765</ele>
        <time>2016-09-26T10:58:20Z</time>
      </trkpt>
      <trkpt lat="43.637506" lon="-8.078634">
        <ele>27.681</ele>
        <time>2016-09-26T10:58:21Z</time>
      </trkpt>
      <trkpt lat="43.637452" lon="-8.078658">
        <ele>27.545</ele>
        <time>2016-09-26T10:58:22Z</time>
      </trkpt>
      <trkpt lat="43.637397" lon="-8.078683">
        <ele>27.267</ele>
        <time>2016-09-26T10:58:23Z</time>
      </trkpt>
      <trkpt lat="43.637342" lon="-8.078707">
        <ele>27.190</ele>
        <time>2016-09-26T10:58:24Z</time>
      </trkpt>
      <trkpt lat="43.637286" lon="-8.078732">
        <ele>27.368</ele>
        <time>2016-09-26T10:58:25Z</time>
      </trkpt>
      <trkpt lat="43.637231" lon="-8.078758">
        <ele>27.455</ele>
        <time>2016-09-26T10:58:26Z</time>
      </trkpt>
      <trkpt lat="43.637175" lon="-8.078786">
        <ele>27.107</ele>
        <time>2016-09-26T10:58:27Z</time>
      </trkpt>
      <trkpt lat="43.637120" lon="-8.078815">
        <ele>27.217</ele>
        <time>2016-09-26T10:58:28Z</time>
      </trkpt>
      <trkpt lat="43.637064" lon="-8.078846">
        <ele>27.308</ele>
        <time>2016-09-26T10:58:29Z</time>
      </trkpt>
      <trkpt lat="43.637006" lon="-8.078876">
        <ele>27.236</ele>
        <time>2016-09-26T10:58:30Z</time>
      </trkpt>
      <trkpt lat="43.636947" lon="-8.078907">
        <ele>27.131</ele>
        <time>2016-09-26T10:58:31Z</time>
      </trkpt>
      <trkpt lat="43.636887" lon="-8.078939">
        <ele>27.059</ele>
        <time>2016-09-26T10:58:32Z</time>
      </trkpt>
      <trkpt lat="43.636826" lon="-8.078971">
        <ele>26.935</ele>
        <time>2016-09-26T10:58:33Z</time>
      </trkpt>
      <trkpt lat="43.636762" lon="-8.079001">
        <ele>26.989</ele>
        <time>2016-09-26T10:58:34Z</time>
      </trkpt>
      <trkpt lat="43.636696" lon="-8.079029">
        <ele>26.741</ele>
        <time>2016-09-26T10:58:35Z</time>
      </trkpt>
      <trkpt lat="43.636632" lon="-8.079061">
        <ele>26.514</ele>
        <time>2016-09-26T10:58:36Z</time>
      </trkpt>
      <trkpt lat="43.636569" lon="-8.079095">
        <ele>26.282</ele>
        <time>2016-09-26T10:58:37Z</time>
      </trkpt>
      <trkpt lat="43.636506" lon="-8.079131">
        <ele>26.176</ele>
        <time>2016-09-26T10:58:38Z</time>
      </trkpt>
      <trkpt lat="43.636443" lon="-8.079169">
        <ele>25.890</ele>
        <time>2016-09-26T10:58:39Z</time>
      </trkpt>
      <trkpt lat="43.636379" lon="-8.079207">
        <ele>25.519</ele>
        <time>2016-09-26T10:58:40Z</time>
      </trkpt>
      <trkpt lat="43.636314" lon="-8.079245">
        <ele>25.208</ele>
        <time>2016-09-26T10:58:41Z</time>
      </trkpt>
      <trkpt lat="43.636252" lon="-8.079285">
        <ele>25.058</ele>
        <time>2016-09-26T10:58:42Z</time>
      </trkpt>
      <trkpt lat="43.636186" lon="-8.079327">
        <ele>24.773</ele>
        <time>2016-09-26T10:58:43Z</time>
      </trkpt>
      <trkpt lat="43.636115" lon="-8.079374">
        <ele>24.441</ele>
        <time>2016-09-26T10:58:44Z</time>
      </trkpt>
      <trkpt lat="43.636055" lon="-8.079427">
        <ele>24.197</ele>
        <time>2016-09-26T10:58:45Z</time>
      </trkpt>
      <trkpt lat="43.635995" lon="-8.079481">
        <ele>23.971</ele>
        <time>2016-09-26T10:58:46Z</time>
      </trkpt>
      <trkpt lat="43.635929" lon="-8.079531">
        <ele>23.453</ele>
        <time>2016-09-26T10:58:47Z</time>
      </trkpt>
      <trkpt lat="43.635858" lon="-8.079581">
        <ele>23.066</ele>
        <time>2016-09-26T10:58:48Z</time>
      </trkpt>
      <trkpt lat="43.635788" lon="-8.079636">
        <ele>22.894</ele>
        <time>2016-09-26T10:58:49Z</time>
      </trkpt>
      <trkpt lat="43.635725" lon="-8.079699">
        <ele>22.554</ele>
        <time>2016-09-26T10:58:50Z</time>
      </trkpt>
      <trkpt lat="43.635657" lon="-8.079763">
        <ele>22.456</ele>
        <time>2016-09-26T10:58:51Z</time>
      </trkpt>
      <trkpt lat="43.635588" lon="-8.079818">
        <ele>22.311</ele>
        <time>2016-09-26T10:58:52Z</time>
      </trkpt>
      <trkpt lat="43.635515" lon="-8.079879">
        <ele>22.008</ele>
        <time>2016-09-26T10:58:53Z</time>
      </trkpt>
      <trkpt lat="43.635439" lon="-8.079940">
        <ele>21.986</ele>
        <time>2016-09-26T10:58:54Z</time>
      </trkpt>
      <trkpt lat="43.635362" lon="-8.080001">
        <ele>21.941</ele>
        <time>2016-09-26T10:58:55Z</time>
      </trkpt>
      <trkpt lat="43.635289" lon="-8.080064">
        <ele>21.729</ele>
        <time>2016-09-26T10:58:56Z</time>
      </trkpt>
      <trkpt lat="43.635218" lon="-8.080132">
        <ele>21.515</ele>
        <time>2016-09-26T10:58:57Z</time>
      </trkpt>
      <trkpt lat="43.635148" lon="-8.080202">
        <ele>21.149</ele>
        <time>2016-09-26T10:58:58Z</time>
      </trkpt>
      <trkpt lat="43.635078" lon="-8.080273">
        <ele>20.861</ele>
        <time>2016-09-26T10:58:59Z</time>
      </trkpt>
      <trkpt lat="43.635008" lon="-8.080356">
        <ele>20.524</ele>
        <time>2016-09-26T10:59:00Z</time>
      </trkpt>
      <trkpt lat="43.634941" lon="-8.080441">
        <ele>20.322</ele>
        <time>2016-09-26T10:59:01Z</time>
      </trkpt>
      <trkpt lat="43.634880" lon="-8.080526">
        <ele>19.986</ele>
        <time>2016-09-26T10:59:02Z</time>
      </trkpt>
      <trkpt lat="43.634827" lon="-8.080622">
        <ele>19.760</ele>
        <time>2016-09-26T10:59:03Z</time>
      </trkpt>
      <trkpt lat="43.634776" lon="-8.080720">
        <ele>19.226</ele>
        <time>2016-09-26T10:59:04Z</time>
      </trkpt>
      <trkpt lat="43.634732" lon="-8.080823">
        <ele>19.008</ele>
        <time>2016-09-26T10:59:05Z</time>
      </trkpt>
      <trkpt lat="43.634697" lon="-8.080928">
        <ele>18.739</ele>
        <time>2016-09-26T10:59:06Z</time>
      </trkpt>
      <trkpt lat="43.634667" lon="-8.081032">
        <ele>18.414</ele>
        <time>2016-09-26T10:59:07Z</time>
      </trkpt>
      <trkpt lat="43.634648" lon="-8.081137">
        <ele>18.482</ele>
        <time>2016-09-26T10:59:08Z</time>
      </trkpt>
      <trkpt lat="43.634640" lon="-8.081240">
        <ele>18.488</ele>
        <time>2016-09-26T10:59:09Z</time>
      </trkpt>
      <trkpt lat="43.634638" lon="-8.081338">
        <ele>18.512</ele>
        <time>2016-09-26T10:59:10Z</time>
      </trkpt>
      <trkpt lat="43.634639" lon="-8.081432">
        <ele>18.574</ele>
        <time>2016-09-26T10:59:11Z</time>
      </trkpt>
      <trkpt lat="43.634645" lon="-8.081521">
        <ele>18.567</ele>
        <time>2016-09-26T10:59:12Z</time>
      </trkpt>
      <trkpt lat="43.634652" lon="-8.081600">
        <ele>18.655</ele>
        <time>2016-09-26T10:59:13Z</time>
      </trkpt>
      <trkpt lat="43.634664" lon="-8.081672">
        <ele>18.778</ele>
        <time>2016-09-26T10:59:14Z</time>
      </trkpt>
      <trkpt lat="43.634674" lon="-8.081735">
        <ele>18.933</ele>
        <time>2016-09-26T10:59:15Z</time>
      </trkpt>
      <trkpt lat="43.634688" lon="-8.081801">
        <ele>19.226</ele>
        <time>2016-09-26T10:59:16Z</time>
      </trkpt>
      <trkpt lat="43.634701" lon="-8.081860">
        <ele>19.408</ele>
        <time>2016-09-26T10:59:17Z</time>
      </trkpt>
      <trkpt lat="43.634717" lon="-8.081906">
        <ele>19.578</ele>
        <time>2016-09-26T10:59:18Z</time>
      </trkpt>
      <trkpt lat="43.634735" lon="-8.081944">
        <ele>19.783</ele>
        <time>2016-09-26T10:59:19Z</time>
      </trkpt>
      <trkpt lat="43.634754" lon="-8.081980">
        <ele>19.871</ele>
        <time>2016-09-26T10:59:20Z</time>
      </trkpt>
      <trkpt lat="43.634775" lon="-8.082019">
        <ele>20.137</ele>
        <time>2016-09-26T10:59:21Z</time>
      </trkpt>
      <trkpt lat="43.634792" lon="-8.082061">
        <ele>20.451</ele>
        <time>2016-09-26T10:59:22Z</time>
      </trkpt>
      <trkpt lat="43.634810" lon="-8.082101">
        <ele>20.523</ele>
        <time>2016-09-26T10:59:23Z</time>
      </trkpt>
      <trkpt lat="43.634826" lon="-8.082135">
        <ele>20.936</ele>
        <time>2016-09-26T10:59:24Z</time>
      </trkpt>
      <trkpt lat="43.634844" lon="-8.082164">
        <ele>21.144</ele>
        <time>2016-09-26T10:59:25Z</time>
      </trkpt>
      <trkpt lat="43.634862" lon="-8.082187">
        <ele>21.574</ele>
        <time>2016-09-26T10:59:26Z</time>
      </trkpt>
      <trkpt lat="43.634876" lon="-8.082215">
        <ele>21.756</ele>
        <time>2016-09-26T10:59:27Z</time>
      </trkpt>
      <trkpt lat="43.634894" lon="-8.082244">
        <ele>21.921</ele>
        <time>2016-09-26T10:59:28Z</time>
      </trkpt>
      <trkpt lat="43.634919" lon="-8.082266">
        <ele>22.208</ele>
        <time>2016-09-26T10:59:29Z</time>
      </trkpt>
      <trkpt lat="43.634946" lon="-8.082289">
        <ele>22.718</ele>
        <time>2016-09-26T10:59:30Z</time>
      </trkpt>
      <trkpt lat="43.634968" lon="-8.082313">
        <ele>23.093</ele>
        <time>2016-09-26T10:59:31Z</time>
      </trkpt>
      <trkpt lat="43.634992" lon="-8.082337">
        <ele>23.291</ele>
        <time>2016-09-26T10:59:32Z</time>
      </trkpt>
      <trkpt lat="43.635007" lon="-8.082365">
        <ele>23.527</ele>
        <time>2016-09-26T10:59:33Z</time>
      </trkpt>
      <trkpt lat="43.635020" lon="-8.082392">
        <ele>23.881</ele>
        <time>2016-09-26T10:59:34Z</time>
      </trkpt>
      <trkpt lat="43.635036" lon="-8.082417">
        <ele>23.923</ele>
        <time>2016-09-26T10:59:35Z</time>
      </trkpt>
      <trkpt lat="43.635055" lon="-8.082442">
        <ele>24.056</ele>
        <time>2016-09-26T10:59:36Z</time>
      </trkpt>
      <trkpt lat="43.635078" lon="-8.082465">
        <ele>24.314</ele>
        <time>2016-09-26T10:59:37Z</time>
      </trkpt>
      <trkpt lat="43.635106" lon="-8.082486">
        <ele>24.356</ele>
        <time>2016-09-26T10:59:38Z</time>
      </trkpt>
      <trkpt lat="43.635131" lon="-8.082507">
        <ele>24.559</ele>
        <time>2016-09-26T10:59:39Z</time>
      </trkpt>
      <trkpt lat="43.635157" lon="-8.082529">
        <ele>25.114</ele>
        <time>2016-09-26T10:59:40Z</time>
      </trkpt>
      <trkpt lat="43.635180" lon="-8.082547">
        <ele>25.308</ele>
        <time>2016-09-26T10:59:41Z</time>
      </trkpt>
      <trkpt lat="43.635204" lon="-8.082565">
        <ele>25.586</ele>
        <time>2016-09-26T10:59:42Z</time>
      </trkpt>
      <trkpt lat="43.635230" lon="-8.082579">
        <ele>26.041</ele>
        <time>2016-09-26T10:59:43Z</time>
      </trkpt>
      <trkpt lat="43.635250" lon="-8.082593">
        <ele>26.249</ele>
        <time>2016-09-26T10:59:44Z</time>
      </trkpt>
      <trkpt lat="43.635267" lon="-8.082609">
        <ele>26.575</ele>
        <time>2016-09-26T10:59:45Z</time>
      </trkpt>
      <trkpt lat="43.635284" lon="-8.082619">
        <ele>26.769</ele>
        <time>2016-09-26T10:59:46Z</time>
      </trkpt>
      <trkpt lat="43.635311" lon="-8.082628">
        <ele>26.971</ele>
        <time>2016-09-26T10:59:47Z</time>
      </trkpt>
      <trkpt lat="43.635339" lon="-8.082640">
        <ele>27.284</ele>
        <time>2016-09-26T10:59:48Z</time>
      </trkpt>
      <trkpt lat="43.635363" lon="-8.082653">
        <ele>27.222</ele>
        <time>2016-09-26T10:59:49Z</time>
      </trkpt>
      <trkpt lat="43.635386" lon="-8.082667">
        <ele>27.482</ele>
        <time>2016-09-26T10:59:50Z</time>
      </trkpt>
      <trkpt lat="43.635413" lon="-8.082679">
        <ele>27.743</ele>
        <time>2016-09-26T10:59:51Z</time>
      </trkpt>
      <trkpt lat="43.635439" lon="-8.082693">
        <ele>28.017</ele>
        <time>2016-09-26T10:59:52Z</time>
      </trkpt>
      <trkpt lat="43.635461" lon="-8.082704">
        <ele>28.208</ele>
        <time>2016-09-26T10:59:53Z</time>
      </trkpt>
      <trkpt lat="43.635482" lon="-8.082718">
        <ele>28.489</ele>
        <time>2016-09-26T10:59:54Z</time>
      </trkpt>
      <trkpt lat="43.635504" lon="-8.082729">
        <ele>28.564</ele>
        <time>2016-09-26T10:59:55Z</time>
      </trkpt>
      <trkpt lat="43.635523" lon="-8.082744">
        <ele>28.752</ele>
        <time>2016-09-26T10:59:56Z</time>
      </trkpt>
      <trkpt lat="43.635546" lon="-8.082762">
        <ele>28.978</ele>
        <time>2016-09-26T10:59:57Z</time>
      </trkpt>
      <trkpt lat="43.635569" lon="-8.082777">
        <ele>29.182</ele>
        <time>2016-09-26T10:59:58Z</time>
      </trkpt>
      <trkpt lat="43.635591" lon="-8.082793">
        <ele>29.414</ele>
        <time>2016-09-26T10:59:59Z</time>
      </trkpt>
      <trkpt lat="43.635607" lon="-8.082813">
        <ele>29.557</ele>
        <time>2016-09-26T11:00:00Z</time>
      </trkpt>
      <trkpt lat="43.635622" lon="-8.082832">
        <ele>29.625</ele>
        <time>2016-09-26T11:00:01Z</time>
      </trkpt>
      <trkpt lat="43.635640" lon="-8.082848">
        <ele>29.598</ele>
        <time>2016-09-26T11:00:02Z</time>
      </trkpt>
      <trkpt lat="43.635661" lon="-8.082868">
        <ele>29.715</ele>
        <time>2016-09-26T11:00:03Z</time>
      </trkpt>
      <trkpt lat="43.635684" lon="-8.082887">
        <ele>29.826</ele>
        <time>2016-09-26T11:00:04Z</time>
      </trkpt>
      <trkpt lat="43.635713" lon="-8.082903">
        <ele>29.808</ele>
        <time>2016-09-26T11:00:05Z</time>
      </trkpt>
      <trkpt lat="43.635734" lon="-8.082921">
        <ele>30.120</ele>
        <time>2016-09-26T11:00:06Z</time>
      </trkpt>
      <trkpt lat="43.635754" lon="-8.082942">
        <ele>30.275</ele>
        <time>2016-09-26T11:00:07Z</time>
      </trkpt>
      <trkpt lat="43.635773" lon="-8.082961">
        <ele>30.323</ele>
        <time>2016-09-26T11:00:08Z</time>
      </trkpt>
      <trkpt lat="43.635787" lon="-8.082984">
        <ele>30.699</ele>
        <time>2016-09-26T11:00:09Z</time>
      </trkpt>
      <trkpt lat="43.635800" lon="-8.083008">
        <ele>30.713</ele>
        <time>2016-09-26T11:00:10Z</time>
      </trkpt>
      <trkpt lat="43.635810" lon="-8.083033">
        <ele>31.065</ele>
        <time>2016-09-26T11:00:11Z</time>
      </trkpt>
      <trkpt lat="43.635820" lon="-8.083058">
        <ele>31.158</ele>
        <time>2016-09-26T11:00:12Z</time>
      </trkpt>
      <trkpt lat="43.635832" lon="-8.083085">
        <ele>31.376</ele>
        <time>2016-09-26T11:00:13Z</time>
      </trkpt>
      <trkpt lat="43.635844" lon="-8.083105">
        <ele>31.351</ele>
        <time>2016-09-26T11:00:14Z</time>
      </trkpt>
      <trkpt lat="43.635855" lon="-8.083122">
        <ele>31.601</ele>
        <time>2016-09-26T11:00:15Z</time>
      </trkpt>
      <trkpt lat="43.635866" lon="-8.083145">
        <ele>31.811</ele>
        <time>2016-09-26T11:00:16Z</time>
      </trkpt>
      <trkpt lat="43.635879" lon="-8.083164">
        <ele>32.008</ele>
        <time>2016-09-26T11:00:17Z</time>
      </trkpt>
      <trkpt lat="43.635891" lon="-8.083178">
        <ele>32.426</ele>
        <time>2016-09-26T11:00:18Z</time>
      </trkpt>
      <trkpt lat="43.635900" lon="-8.083199">
        <ele>32.411</ele>
        <time>2016-09-26T11:00:19Z</time>
      </trkpt>
      <trkpt lat="43.635905" lon="-8.083225">
        <ele>32.579</ele>
        <time>2016-09-26T11:00:20Z</time>
      </trkpt>
      <trkpt lat="43.635914" lon="-8.083250">
        <ele>32.675</ele>
        <time>2016-09-26T11:00:21Z</time>
      </trkpt>
      <trkpt lat="43.635923" lon="-8.083279">
        <ele>32.669</ele>
        <time>2016-09-26T11:00:22Z</time>
      </trkpt>
      <trkpt lat="43.635929" lon="-8.083313">
        <ele>32.991</ele>
        <time>2016-09-26T11:00:23Z</time>
      </trkpt>
      <trkpt lat="43.635935" lon="-8.083336">
        <ele>32.924</ele>
        <time>2016-09-26T11:00:24Z</time>
      </trkpt>
      <trkpt lat="43.635934" lon="-8.083363">
        <ele>33.162</ele>
        <time>2016-09-26T11:00:25Z</time>
      </trkpt>
      <trkpt lat="43.635935" lon="-8.083391">
        <ele>33.277</ele>
        <time>2016-09-26T11:00:26Z</time>
      </trkpt>
      <trkpt lat="43.635935" lon="-8.083418">
        <ele>33.361</ele>
        <time>2016-09-26T11:00:27Z</time>
      </trkpt>
      <trkpt lat="43.635938" lon="-8.083448">
        <ele>33.427</ele>
        <time>2016-09-26T11:00:28Z</time>
      </trkpt>
      <trkpt lat="43.635945" lon="-8.083476">
        <ele>33.608</ele>
        <time>2016-09-26T11:00:29Z</time>
      </trkpt>
      <trkpt lat="43.635949" lon="-8.083505">
        <ele>33.838</ele>
        <time>2016-09-26T11:00:30Z</time>
      </trkpt>
      <trkpt lat="43.635955" lon="-8.083530">
        <ele>34.033</ele>
        <time>2016-09-26T11:00:31Z</time>
      </trkpt>
      <trkpt lat="43.635958" lon="-8.083553">
        <ele>34.081</ele>
        <time>2016-09-26T11:00:32Z</time>
      </trkpt>
      <trkpt lat="43.635963" lon="-8.083574">
        <ele>34.217</ele>
        <time>2016-09-26T11:00:33Z</time>
      </trkpt>
      <trkpt lat="43.635967" lon="-8.083596">
        <ele>34.381</ele>
        <time>2016-09-26T11:00:34Z</time>
      </trkpt>
      <trkpt lat="43.635976" lon="-8.083624">
        <ele>34.383</ele>
        <time>2016-09-26T11:00:35Z</time>
      </trkpt>
      <trkpt lat="43.635988" lon="-8.083649">
        <ele>34.596</ele>
        <time>2016-09-26T11:00:36Z</time>
      </trkpt>
      <trkpt lat="43.635994" lon="-8.083678">
        <ele>34.674</ele>
        <time>2016-09-26T11:00:37Z</time>
      </trkpt>
      <trkpt lat="43.635994" lon="-8.083703">
        <ele>34.875</ele>
        <time>2016-09-26T11:00:38Z</time>
      </trkpt>
      <trkpt lat="43.636000" lon="-8.083728">
        <ele>34.928</ele>
        <time>2016-09-26T11:00:39Z</time>
      </trkpt>
      <trkpt lat="43.636009" lon="-8.083759">
        <ele>35.020</ele>
        <time>2016-09-26T11:00:40Z</time>
      </trkpt>
      <trkpt lat="43.636017" lon="-8.083797">
        <ele>35.008</ele>
        <time>2016-09-26T11:00:41Z</time>
      </trkpt>
      <trkpt lat="43.636023" lon="-8.083828">
        <ele>35.568</ele>
        <time>2016-09-26T11:00:42Z</time>
      </trkpt>
      <trkpt lat="43.636027" lon="-8.083849">
        <ele>35.513</ele>
        <time>2016-09-26T11:00:43Z</time>
      </trkpt>
      <trkpt lat="43.636031" lon="-8.083867">
        <ele>35.591</ele>
        <time>2016-09-26T11:00:44Z</time>
      </trkpt>
      <trkpt lat="43.636040" lon="-8.083890">
        <ele>35.837</ele>
        <time>2016-09-26T11:00:45Z</time>
      </trkpt>
      <trkpt lat="43.636048" lon="-8.083921">
        <ele>35.821</ele>
        <time>2016-09-26T11:00:46Z</time>
      </trkpt>
      <trkpt lat="43.636058" lon="-8.083956">
        <ele>36.033</ele>
        <time>2016-09-26T11:00:47Z</time>
      </trkpt>
      <trkpt lat="43.636071" lon="-8.083983">
        <ele>36.176</ele>
        <time>2016-09-26T11:00:48Z</time>
      </trkpt>
      <trkpt lat="43.636076" lon="-8.084020">
        <ele>36.174</ele>
        <time>2016-09-26T11:00:49Z</time>
      </trkpt>
      <trkpt lat="43.636090" lon="-8.084056">
        <ele>36.226</ele>
        <time>2016-09-26T11:00:50Z</time>
      </trkpt>
      <trkpt lat="43.636099" lon="-8.084089">
        <ele>36.347</ele>
        <time>2016-09-26T11:00:51Z</time>
      </trkpt>
      <trkpt lat="43.636106" lon="-8.084130">
        <ele>36.611</ele>
        <time>2016-09-26T11:00:52Z</time>
      </trkpt>
      <trkpt lat="43.636116" lon="-8.084164">
        <ele>36.808</ele>
        <time>2016-09-26T11:00:53Z</time>
      </trkpt>
      <trkpt lat="43.636121" lon="-8.084202">
        <ele>36.853</ele>
        <time>2016-09-26T11:00:54Z</time>
      </trkpt>
      <trkpt lat="43.636127" lon="-8.084240">
        <ele>37.088</ele>
        <time>2016-09-26T11:00:55Z</time>
      </trkpt>
      <trkpt lat="43.636133" lon="-8.084281">
        <ele>37.136</ele>
        <time>2016-09-26T11:00:56Z</time>
      </trkpt>
      <trkpt lat="43.636141" lon="-8.084326">
        <ele>37.362</ele>
        <time>2016-09-26T11:00:57Z</time>
      </trkpt>
      <trkpt lat="43.636157" lon="-8.084369">
        <ele>37.566</ele>
        <time>2016-09-26T11:00:58Z</time>
      </trkpt>
      <trkpt lat="43.636166" lon="-8.084419">
        <ele>37.748</ele>
        <time>2016-09-26T11:00:59Z</time>
      </trkpt>
      <trkpt lat="43.636165" lon="-8.084466">
        <ele>37.871</ele>
        <time>2016-09-26T11:01:00Z</time>
      </trkpt>
      <trkpt lat="43.636174" lon="-8.084504">
        <ele>38.029</ele>
        <time>2016-09-26T11:01:01Z</time>
      </trkpt>
      <trkpt lat="43.636186" lon="-8.084536">
        <ele>38.075</ele>
        <time>2016-09-26T11:01:02Z</time>
      </trkpt>
      <trkpt lat="43.636199" lon="-8.084565">
        <ele>38.228</ele>
        <time>2016-09-26T11:01:03Z</time>
      </trkpt>
      <trkpt lat="43.636219" lon="-8.084592">
        <ele>38.420</ele>
        <time>2016-09-26T11:01:04Z</time>
      </trkpt>
      <trkpt lat="43.636241" lon="-8.084615">
        <ele>38.408</ele>
        <time>2016-09-26T11:01:05Z</time>
      </trkpt>
      <trkpt lat="43.636269" lon="-8.084639">
        <ele>38.588</ele>
        <time>2016-09-26T11:01:06Z</time>
      </trkpt>
      <trkpt lat="43.636294" lon="-8.084659">
        <ele>38.613</ele>
        <time>2016-09-26T11:01:07Z</time>
      </trkpt>
      <trkpt lat="43.636317" lon="-8.084679">
        <ele>38.731</ele>
        <time>2016-09-26T11:01:08Z</time>
      </trkpt>
      <trkpt lat="43.636334" lon="-8.084697">
        <ele>38.947</ele>
        <time>2016-09-26T11:01:09Z</time>
      </trkpt>
      <trkpt lat="43.636347" lon="-8.084720">
        <ele>39.061</ele>
        <time>2016-09-26T11:01:10Z</time>
      </trkpt>
      <trkpt lat="43.636369" lon="-8.084743">
        <ele>39.353</ele>
        <time>2016-09-26T11:01:11Z</time>
      </trkpt>
      <trkpt lat="43.636391" lon="-8.084762">
        <ele>39.426</ele>
        <time>2016-09-26T11:01:12Z</time>
      </trkpt>
      <trkpt lat="43.636404" lon="-8.084785">
        <ele>39.584</ele>
        <time>2016-09-26T11:01:13Z</time>
      </trkpt>
      <trkpt lat="43.636419" lon="-8.084809">
        <ele>39.739</ele>
        <time>2016-09-26T11:01:14Z</time>
      </trkpt>
      <trkpt lat="43.636439" lon="-8.084825">
        <ele>39.901</ele>
        <time>2016-09-26T11:01:15Z</time>
      </trkpt>
      <trkpt lat="43.636457" lon="-8.084843">
        <ele>40.021</ele>
        <time>2016-09-26T11:01:16Z</time>
      </trkpt>
      <trkpt lat="43.636479" lon="-8.084860">
        <ele>40.308</ele>
        <time>2016-09-26T11:01:17Z</time>
      </trkpt>
      <trkpt lat="43.636494" lon="-8.084885">
        <ele>40.474</ele>
        <time>2016-09-26T11:01:18Z</time>
      </trkpt>
      <trkpt lat="43.636516" lon="-8.084908">
        <ele>40.519</ele>
        <time>2016-09-26T11:01:19Z</time>
      </trkpt>
      <trkpt lat="43.636539" lon="-8.084935">
        <ele>40.687</ele>
        <time>2016-09-26T11:01:20Z</time>
      </trkpt>
      <trkpt lat="43.636559" lon="-8.084958">
        <ele>40.663</ele>
        <time>2016-09-26T11:01:21Z</time>
      </trkpt>
      <trkpt lat="43.636572" lon="-8.084981">
        <ele>40.857</ele>
        <time>2016-09-26T11:01:22Z</time>
      </trkpt>
      <trkpt lat="43.636582" lon="-8.085005">
        <ele>41.139</ele>
        <time>2016-09-26T11:01:23Z</time>
      </trkpt>
      <trkpt lat="43.636596" lon="-8.085028">
        <ele>41.372</ele>
        <time>2016-09-26T11:01:24Z</time>
      </trkpt>
      <trkpt lat="43.636612" lon="-8.085053">
        <ele>41.430</ele>
        <time>2016-09-26T11:01:25Z</time>
      </trkpt>
      <trkpt lat="43.636636" lon="-8.085074">
        <ele>41.523</ele>
        <time>2016-09-26T11:01:26Z</time>
      </trkpt>
      <trkpt lat="43.636650" lon="-8.085096">
        <ele>41.583</ele>
        <time>2016-09-26T11:01:27Z</time>
      </trkpt>
      <trkpt lat="43.636667" lon="-8.085117">
        <ele>41.611</ele>
        <time>2016-09-26T11:01:28Z</time>
      </trkpt>
      <trkpt lat="43.636684" lon="-8.085139">
        <ele>41.708</ele>
        <time>2016-09-26T11:01:29Z</time>
      </trkpt>
      <trkpt lat="43.636708" lon="-8.085161">
        <ele>41.953</ele>
        <time>2016-09-26T11:01:30Z</time>
      </trkpt>
      <trkpt lat="43.636724" lon="-8.085188">
        <ele>42.098</ele>
        <time>2016-09-26T11:01:31Z</time>
      </trkpt>
      <trkpt lat="43.636742" lon="-8.085219">
        <ele>42.036</ele>
        <time>2016-09-26T11:01:32Z</time>
      </trkpt>
      <trkpt lat="43.636764" lon="-8.085243">
        <ele>42.282</ele>
        <time>2016-09-26T11:01:33Z</time>
      </trkpt>
      <trkpt lat="43.636775" lon="-8.085266">
        <ele>42.186</ele>
        <time>2016-09-26T11:01:34Z</time>
      </trkpt>
      <trkpt lat="43.636794" lon="-8.085296">
        <ele>42.188</ele>
        <time>2016-09-26T11:01:35Z</time>
      </trkpt>
      <trkpt lat="43.636809" lon="-8.085331">
        <ele>42.361</ele>
        <time>2016-09-26T11:01:36Z</time>
      </trkpt>
      <trkpt lat="43.636825" lon="-8.085364">
        <ele>42.579</ele>
        <time>2016-09-26T11:01:37Z</time>
      </trkpt>
      <trkpt lat="43.636854" lon="-8.085388">
        <ele>42.785</ele>
        <time>2016-09-26T11:01:38Z</time>
      </trkpt>
      <trkpt lat="43.636877" lon="-8.085414">
        <ele>42.789</ele>
        <time>2016-09-26T11:01:39Z</time>
      </trkpt>
      <trkpt lat="43.636899" lon="-8.085440">
        <ele>42.717</ele>
        <time>2016-09-26T11:01:40Z</time>
      </trkpt>
      <trkpt lat="43.636922" lon="-8.085470">
        <ele>42.908</ele>
        <time>2016-09-26T11:01:41Z</time>
      </trkpt>
      <trkpt lat="43.636942" lon="-8.085493">
        <ele>43.049</ele>
        <time>2016-09-26T11:01:42Z</time>
      </trkpt>
      <trkpt lat="43.636957" lon="-8.085520">
        <ele>43.054</ele>
        <time>2016-09-26T11:01:43Z</time>
      </trkpt>
      <trkpt lat="43.636970" lon="-8.085548">
        <ele>43.162</ele>
        <time>2016-09-26T11:01:44Z</time>
      </trkpt>
      <trkpt lat="43.636983" lon="-8.085573">
        <ele>43.398</ele>
        <time>2016-09-26T11:01:45Z</time>
      </trkpt>
      <trkpt lat="43.636995" lon="-8.085597">
        <ele>43.572</ele>
        <time>2016-09-26T11:01:46Z</time>
      </trkpt>
      <trkpt lat="43.637008" lon="-8.085623">
        <ele>43.824</ele>
        <time>2016-09-26T11:01:47Z</time>
      </trkpt>
      <trkpt lat="43.637019" lon="-8.085653">
        <ele>44.187</ele>
        <time>2016-09-26T11:01:48Z</time>
      </trkpt>
      <trkpt lat="43.637030" lon="-8.085684">
        <ele>44.235</ele>
        <time>2016-09-26T11:01:49Z</time>
      </trkpt>
      <trkpt lat="43.637047" lon="-8.085716">
        <ele>44.497</ele>
        <time>2016-09-26T11:01:50Z</time>
      </trkpt>
      <trkpt lat="43.637060" lon="-8.085746">
        <ele>44.623</ele>
        <time>2016-09-26T11:01:51Z</time>
      </trkpt>
      <trkpt lat="43.637083" lon="-8.085781">
        <ele>44.525</ele>
        <time>2016-09-26T11:01:52Z</time>
      </trkpt>
      <trkpt lat="43.637102" lon="-8.085814">
        <ele>44.608</ele>
        <time>2016-09-26T11:01:53Z</time>
      </trkpt>
      <trkpt lat="43.637120" lon="-8.085843">
        <ele>44.640</ele>
        <time>2016-09-26T11:01:54Z</time>
      </trkpt>
      <trkpt lat="43.637135" lon="-8.085872">
        <ele>44.745</ele>
        <time>2016-09-26T11:01:55Z</time>
      </trkpt>
      <trkpt lat="43.637151" lon="-8.085904">
        <ele>44.953</ele>
        <time>2016-09-26T11:01:56Z</time>
      </trkpt>
      <trkpt lat="43.637171" lon="-8.085939">
        <ele>45.069</ele>
        <time>2016-09-26T11:01:57Z</time>
      </trkpt>
      <trkpt lat="43.637189" lon="-8.085978">
        <ele>45.023</ele>
        <time>2016-09-26T11:01:58Z</time>
      </trkpt>
      <trkpt lat="43.637202" lon="-8.086009">
        <ele>45.335</ele>
        <time>2016-09-26T11:01:59Z</time>
      </trkpt>
      <trkpt lat="43.637207" lon="-8.086042">
        <ele>45.428</ele>
        <time>2016-09-26T11:02:00Z</time>
      </trkpt>
      <trkpt lat="43.637218" lon="-8.086079">
        <ele>45.516</ele>
        <time>2016-09-26T11:02:01Z</time>
      </trkpt>
      <trkpt lat="43.637222" lon="-8.086115">
        <ele>45.815</ele>
        <time>2016-09-26T11:02:02Z</time>
      </trkpt>
      <trkpt lat="43.637226" lon="-8.086153">
        <ele>45.965</ele>
        <time>2016-09-26T11:02:03Z</time>
      </trkpt>
      <trkpt lat="43.637229" lon="-8.086189">
        <ele>46.111</ele>
        <time>2016-09-26T11:02:04Z</time>
      </trkpt>
      <trkpt lat="43.637230" lon="-8.086223">
        <ele>46.208</ele>
        <time>2016-09-26T11:02:05Z</time>
      </trkpt>
      <trkpt lat="43.637235" lon="-8.086273">
        <ele>46.492</ele>
        <time>2016-09-26T11:02:06Z</time>
      </trkpt>
      <trkpt lat="43.637245" lon="-8.086318">
        <ele>46.657</ele>
        <time>2016-09-26T11:02:07Z</time>
      </trkpt>
      <trkpt lat="43.637249" lon="-8.086357">
        <ele>46.885</ele>
        <time>2016-09-26T11:02:08Z</time>
      </trkpt>
      <trkpt lat="43.637248" lon="-8.086399">
        <ele>46.931</ele>
        <time>2016-09-26T11:02:09Z</time>
      </trkpt>
      <trkpt lat="43.637247" lon="-8.086443">
        <ele>47.065</ele>
        <time>2016-09-26T11:02:10Z</time>
      </trkpt>
      <trkpt lat="43.637245" lon="-8.086488">
        <ele>47.117</ele>
        <time>2016-09-26T11:02:11Z</time>
      </trkpt>
      <trkpt lat="43.637243" lon="-8.086531">
        <ele>47.310</ele>
        <time>2016-09-26T11:02:12Z</time>
      </trkpt>
      <trkpt lat="43.637246" lon="-8.086576">
        <ele>47.478</ele>
        <time>2016-09-26T11:02:13Z</time>
      </trkpt>
      <trkpt lat="43.637247" lon="-8.086620">
        <ele>47.465</ele>
        <time>2016-09-26T11:02:14Z</time>
      </trkpt>
      <trkpt lat="43.637244" lon="-8.086663">
        <ele>47.468</ele>
        <time>2016-09-26T11:02:15Z</time>
      </trkpt>
      <trkpt lat="43.637243" lon="-8.086709">
        <ele>47.514</ele>
        <time>2016-09-26T11:02:16Z</time>
      </trkpt>
      <trkpt lat="43.637249" lon="-8.086750">
        <ele>47.708</ele>
        <time>2016-09-26T11:02:17Z</time>
      </trkpt>
      <trkpt lat="43.637259" lon="-8.086795">
        <ele>47.747</ele>
        <time>2016-09-26T11:02:18Z</time>
      </trkpt>
      <trkpt lat="43.637266" lon="-8.086834">
        <ele>47.882</ele>
        <time>2016-09-26T11:02:19Z</time>
      </trkpt>
      <trkpt lat="43.637274" lon="-8.086871">
        <ele>47.860</ele>
        <time>2016-09-26T11:02:20Z</time>
      </trkpt>
      <trkpt lat="43.637285" lon="-8.086909">
        <ele>47.956</ele>
        <time>2016-09-26T11:02:21Z</time>
      </trkpt>
      <trkpt lat="43.637291" lon="-8.086945">
        <ele>48.060</ele>
        <time>2016-09-26T11:02:22Z</time>
      </trkpt>
      <trkpt lat="43.637298" lon="-8.086973">
        <ele>48.152</ele>
        <time>2016-09-26T11:02:23Z</time>
      </trkpt>
      <trkpt lat="43.637307" lon="-8.086998">
        <ele>48.275</ele>
        <time>2016-09-26T11:02:24Z</time>
      </trkpt>
      <trkpt lat="43.637317" lon="-8.087026">
        <ele>48.183</ele>
        <time>2016-09-26T11:02:25Z</time>
      </trkpt>
      <trkpt lat="43.637331" lon="-8.087055">
        <ele>48.267</ele>
        <time>2016-09-26T11:02:26Z</time>
      </trkpt>
      <trkpt lat="43.637343" lon="-8.087083">
        <ele>48.581</ele>
        <time>2016-09-26T11:02:27Z</time>
      </trkpt>
      <trkpt lat="43.637358" lon="-8.087108">
        <ele>48.419</ele>
        <time>2016-09-26T11:02:28Z</time>
      </trkpt>
      <trkpt lat="43.637370" lon="-8.087136">
        <ele>48.508</ele>
        <time>2016-09-26T11:02:29Z</time>
      </trkpt>
      <trkpt lat="43.637376" lon="-8.087162">
        <ele>48.647</ele>
        <time>2016-09-26T11:02:30Z</time>
      </trkpt>
      <trkpt lat="43.637381" lon="-8.087189">
        <ele>48.862</ele>
        <time>2016-09-26T11:02:31Z</time>
      </trkpt>
      <trkpt lat="43.637395" lon="-8.087215">
        <ele>49.090</ele>
        <time>2016-09-26T11:02:32Z</time>
      </trkpt>
      <trkpt lat="43.637408" lon="-8.087246">
        <ele>49.236</ele>
        <time>2016-09-26T11:02:33Z</time>
      </trkpt>
      <trkpt lat="43.637426" lon="-8.087279">
        <ele>49.430</ele>
        <time>2016-09-26T11:02:34Z</time>
      </trkpt>
      <trkpt lat="43.637440" lon="-8.087311">
        <ele>49.422</ele>
        <time>2016-09-26T11:02:35Z</time>
      </trkpt>
      <trkpt lat="43.637453" lon="-8.087343">
        <ele>49.545</ele>
        <time>2016-09-26T11:02:36Z</time>
      </trkpt>
      <trkpt lat="43.637470" lon="-8.087372">
        <ele>49.683</ele>
        <time>2016-09-26T11:02:37Z</time>
      </trkpt>
      <trkpt lat="43.637487" lon="-8.087398">
        <ele>49.653</ele>
        <time>2016-09-26T11:02:38Z</time>
      </trkpt>
      <trkpt lat="43.637503" lon="-8.087428">
        <ele>49.804</ele>
        <time>2016-09-26T11:02:39Z</time>
      </trkpt>
      <trkpt lat="43.637525" lon="-8.087459">
        <ele>50.014</ele>
        <time>2016-09-26T11:02:40Z</time>
      </trkpt>
      <trkpt lat="43.637546" lon="-8.087490">
        <ele>50.008</ele>
        <time>2016-09-26T11:02:41Z</time>
      </trkpt>
      <trkpt lat="43.637566" lon="-8.087524">
        <ele>50.246</ele>
        <time>2016-09-26T11:02:42Z</time>
      </trkpt>
      <trkpt lat="43.637583" lon="-8.087551">
        <ele>50.461</ele>
        <time>2016-09-26T11:02:43Z</time>
      </trkpt>
      <trkpt lat="43.637597" lon="-8.087580">
        <ele>50.569</ele>
        <time>2016-09-26T11:02:44Z</time>
      </trkpt>
      <trkpt lat="43.637614" lon="-8.087611">
        <ele>50.475</ele>
        <time>2016-09-26T11:02:45Z</time>
      </trkpt>
      <trkpt lat="43.637628" lon="-8.087651">
        <ele>50.479</ele>
        <time>2016-09-26T11:02:46Z</time>
      </trkpt>
      <trkpt lat="43.637647" lon="-8.087693">
        <ele>50.671</ele>
        <time>2016-09-26T11:02:47Z</time>
      </trkpt>
      <trkpt lat="43.637663" lon="-8.087731">
        <ele>50.744</ele>
        <time>2016-09-26T11:02:48Z</time>
      </trkpt>
      <trkpt lat="43.637677" lon="-8.087767">
        <ele>50.912</ele>
        <time>2016-09-26T11:02:49Z</time>
      </trkpt>
      <trkpt lat="43.637688" lon="-8.087801">
        <ele>51.197</ele>
        <time>2016-09-26T11:02:50Z</time>
      </trkpt>
      <trkpt lat="43.637695" lon="-8.087835">
        <ele>51.123</ele>
        <time>2016-09-26T11:02:51Z</time>
      </trkpt>
      <trkpt lat="43.637703" lon="-8.087867">
        <ele>51.325</ele>
        <time>2016-09-26T11:02:52Z</time>
      </trkpt>
      <trkpt lat="43.637720" lon="-8.087898">
        <ele>51.108</ele>
        <time>2016-09-26T11:02:53Z</time>
      </trkpt>
      <trkpt lat="43.637737" lon="-8.087929">
        <ele>51.350</ele>
        <time>2016-09-26T11:02:54Z</time>
      </trkpt>
      <trkpt lat="43.637753" lon="-8.087960">
        <ele>51.315</ele>
        <time>2016-09-26T11:02:55Z</time>
      </trkpt>
      <trkpt lat="43.637775" lon="-8.087993">
        <ele>51.253</ele>
        <time>2016-09-26T11:02:56Z</time>
      </trkpt>
      <trkpt lat="43.637797" lon="-8.088032">
        <ele>51.499</ele>
        <time>2016-09-26T11:02:57Z</time>
      </trkpt>
      <trkpt lat="43.637816" lon="-8.088060">
        <ele>51.653</ele>
        <time>2016-09-26T11:02:58Z</time>
      </trkpt>
      <trkpt lat="43.637834" lon="-8.088090">
        <ele>51.615</ele>
        <time>2016-09-26T11:02:59Z</time>
      </trkpt>
      <trkpt lat="43.637856" lon="-8.088129">
        <ele>51.628</ele>
        <time>2016-09-26T11:03:00Z</time>
      </trkpt>
      <trkpt lat="43.637876" lon="-8.088167">
        <ele>51.656</ele>
        <time>2016-09-26T11:03:01Z</time>
      </trkpt>
      <trkpt lat="43.637894" lon="-8.088198">
        <ele>51.889</ele>
        <time>2016-09-26T11:03:02Z</time>
      </trkpt>
      <trkpt lat="43.637908" lon="-8.088228">
        <ele>51.806</ele>
        <time>2016-09-26T11:03:03Z</time>
      </trkpt>
      <trkpt lat="43.637922" lon="-8.088259">
        <ele>51.926</ele>
        <time>2016-09-26T11:03:04Z</time>
      </trkpt>
      <trkpt lat="43.637938" lon="-8.088286">
        <ele>52.108</ele>
        <time>2016-09-26T11:03:05Z</time>
      </trkpt>
      <trkpt lat="43.637951" lon="-8.088315">
        <ele>52.289</ele>
        <time>2016-09-26T11:03:06Z</time>
      </trkpt>
      <trkpt lat="43.637967" lon="-8.088351">
        <ele>52.424</ele>
        <time>2016-09-26T11:03:07Z</time>
      </trkpt>
      <trkpt lat="43.637982" lon="-8.088388">
        <ele>52.662</ele>
        <time>2016-09-26T11:03:08Z</time>
      </trkpt>
      <trkpt lat="43.637999" lon="-8.088423">
        <ele>52.738</ele>
        <time>2016-09-26T11:03:09Z</time>
      </trkpt>
      <trkpt lat="43.638017" lon="-8.088456">
        <ele>52.972</ele>
        <time>2016-09-26T11:03:10Z</time>
      </trkpt>
      <trkpt lat="43.638034" lon="-8.088490">
        <ele>53.044</ele>
        <time>2016-09-26T11:03:11Z</time>
      </trkpt>
      <trkpt lat="43.638050" lon="-8.088520">
        <ele>53.187</ele>
        <time>2016-09-26T11:03:12Z</time>
      </trkpt>
      <trkpt lat="43.638064" lon="-8.088549">
        <ele>53.395</ele>
        <time>2016-09-26T11:03:13Z</time>
      </trkpt>
      <trkpt lat="43.638077" lon="-8.088579">
        <ele>53.574</ele>
        <time>2016-09-26T11:03:14Z</time>
      </trkpt>
      <trkpt lat="43.638095" lon="-8.088614">
        <ele>53.856</ele>
        <time>2016-09-26T11:03:15Z</time>
      </trkpt>
      <trkpt lat="43.638110" lon="-8.088645">
        <ele>54.021</ele>
        <time>2016-09-26T11:03:16Z</time>
      </trkpt>
      <trkpt lat="43.638128" lon="-8.088680">
        <ele>54.208</ele>
        <time>2016-09-26T11:03:17Z</time>
      </trkpt>
      <trkpt lat="43.638147" lon="-8.088715">
        <ele>54.388</ele>
        <time>2016-09-26T11:03:18Z</time>
      </trkpt>
      <trkpt lat="43.638163" lon="-8.088748">
        <ele>54.443</ele>
        <time>2016-09-26T11:03:19Z</time>
      </trkpt>
      <trkpt lat="43.638178" lon="-8.088781">
        <ele>54.581</ele>
        <time>2016-09-26T11:03:20Z</time>
      </trkpt>
      <trkpt lat="43.638198" lon="-8.088821">
        <ele>54.717</ele>
        <time>2016-09-26T11:03:21Z</time>
      </trkpt>
      <trkpt lat="43.638214" lon="-8.088854">
        <ele>54.731</ele>
        <time>2016-09-26T11:03:22Z</time>
      </trkpt>
      <trkpt lat="43.638232" lon="-8.088886">
        <ele>54.863</ele>
        <time>2016-09-26T11:03:23Z</time>
      </trkpt>
      <trkpt lat="43.638250" lon="-8.088918">
        <ele>55.026</ele>
        <time>2016-09-26T11:03:24Z</time>
      </trkpt>
      <trkpt lat="43.638267" lon="-8.088951">
        <ele>55.184</ele>
        <time>2016-09-26T11:03:25Z</time>
      </trkpt>
      <trkpt lat="43.638283" lon="-8.088982">
        <ele>55.367</ele>
        <time>2016-09-26T11:03:26Z</time>
      </trkpt>
      <trkpt lat="43.638301" lon="-8.089014">
        <ele>55.481</ele>
        <time>2016-09-26T11:03:27Z</time>
      </trkpt>
      <trkpt lat="43.638317" lon="-8.089047">
        <ele>55.519</ele>
        <time>2016-09-26T11:03:28Z</time>
      </trkpt>
      <trkpt lat="43.638331" lon="-8.089078">
        <ele>55.508</ele>
        <time>2016-09-26T11:03:29Z</time>
      </trkpt>
      <trkpt lat="43.638346" lon="-8.089108">
        <ele>55.687</ele>
        <time>2016-09-26T11:03:30Z</time>
      </trkpt>
      <trkpt lat="43.638361" lon="-8.089138">
        <ele>55.782</ele>
        <time>2016-09-26T11:03:31Z</time>
      </trkpt>
      <trkpt lat="43.638378" lon="-8.089167">
        <ele>55.990</ele>
        <time>2016-09-26T11:03:32Z</time>
      </trkpt>
      <trkpt lat="43.638394" lon="-8.089195">
        <ele>55.956</ele>
        <time>2016-09-26T11:03:33Z</time>
      </trkpt>
      <trkpt lat="43.638408" lon="-8.089224">
        <ele>56.080</ele>
        <time>2016-09-26T11:03:34Z</time>
      </trkpt>
      <trkpt lat="43.638423" lon="-8.089253">
        <ele>56.122</ele>
        <time>2016-09-26T11:03:35Z</time>
      </trkpt>
      <trkpt lat="43.638439" lon="-8.089286">
        <ele>56.225</ele>
        <time>2016-09-26T11:03:36Z</time>
      </trkpt>
      <trkpt lat="43.638455" lon="-8.089316">
        <ele>56.483</ele>
        <time>2016-09-26T11:03:37Z</time>
      </trkpt>
      <trkpt lat="43.638471" lon="-8.089347">
        <ele>56.539</ele>
        <time>2016-09-26T11:03:38Z</time>
      </trkpt>
      <trkpt lat="43.638491" lon="-8.089380">
        <ele>56.601</ele>
        <time>2016-09-26T11:03:39Z</time>
      </trkpt>
      <trkpt lat="43.638510" lon="-8.089412">
        <ele>56.921</ele>
        <time>2016-09-26T11:03:40Z</time>
      </trkpt>
      <trkpt lat="43.638528" lon="-8.089444">
        <ele>56.908</ele>
        <time>2016-09-26T11:03:41Z</time>
      </trkpt>
      <trkpt lat="43.638547" lon="-8.089475">
        <ele>57.184</ele>
        <time>2016-09-26T11:03:42Z</time>
      </trkpt>
      <trkpt lat="43.638566" lon="-8.089504">
        <ele>57.099</ele>
        <time>2016-09-26T11:03:43Z</time>
      </trkpt>
      <trkpt lat="43.638585" lon="-8.089532">
        <ele>57.137</ele>
        <time>2016-09-26T11:03:44Z</time>
      </trkpt>
      <trkpt lat="43.638603" lon="-8.089559">
        <ele>57.163</ele>
        <time>2016-09-26T11:03:45Z</time>
      </trkpt>
      <trkpt lat="43.638623" lon="-8.089588">
        <ele>57.397</ele>
        <time>2016-09-26T11:03:46Z</time>
      </trkpt>
      <trkpt lat="43.638643" lon="-8.089616">
        <ele>57.629</ele>
        <time>2016-09-26T11:03:47Z</time>
      </trkpt>
      <trkpt lat="43.638666" lon="-8.089645">
        <ele>57.672</ele>
        <time>2016-09-26T11:03:48Z</time>
      </trkpt>
      <trkpt lat="43.638687" lon="-8.089674">
        <ele>57.740</ele>
        <time>2016-09-26T11:03:49Z</time>
      </trkpt>
      <trkpt lat="43.638708" lon="-8.089701">
        <ele>57.869</ele>
        <time>2016-09-26T11:03:50Z</time>
      </trkpt>
      <trkpt lat="43.638727" lon="-8.089725">
        <ele>57.804</ele>
        <time>2016-09-26T11:03:51Z</time>
      </trkpt>
      <trkpt lat="43.638749" lon="-8.089749">
        <ele>57.724</ele>
        <time>2016-09-26T11:03:52Z</time>
      </trkpt>
      <trkpt lat="43.638772" lon="-8.089774">
        <ele>58.008</ele>
        <time>2016-09-26T11:03:53Z</time>
      </trkpt>
      <trkpt lat="43.638795" lon="-8.089801">
        <ele>58.177</ele>
        <time>2016-09-26T11:03:54Z</time>
      </trkpt>
      <trkpt lat="43.638818" lon="-8.089827">
        <ele>58.382</ele>
        <time>2016-09-26T11:03:55Z</time>
      </trkpt>
      <trkpt lat="43.638843" lon="-8.089851">
        <ele>58.380</ele>
        <time>2016-09-26T11:03:56Z</time>
      </trkpt>
      <trkpt lat="43.638866" lon="-8.089876">
        <ele>58.366</ele>
        <time>2016-09-26T11:03:57Z</time>
      </trkpt>
      <trkpt lat="43.638888" lon="-8.089902">
        <ele>58.470</ele>
        <time>2016-09-26T11:03:58Z</time>
      </trkpt>
      <trkpt lat="43.638911" lon="-8.089924">
        <ele>58.622</ele>
        <time>2016-09-26T11:03:59Z</time>
      </trkpt>
      <trkpt lat="43.638934" lon="-8.089945">
        <ele>58.745</ele>
        <time>2016-09-26T11:04:00Z</time>
      </trkpt>
      <trkpt lat="43.638957" lon="-8.089966">
        <ele>58.873</ele>
        <time>2016-09-26T11:04:01Z</time>
      </trkpt>
      <trkpt lat="43.638981" lon="-8.089988">
        <ele>58.849</ele>
        <time>2016-09-26T11:04:02Z</time>
      </trkpt>
      <trkpt lat="43.639007" lon="-8.090008">
        <ele>59.002</ele>
        <time>2016-09-26T11:04:03Z</time>
      </trkpt>
      <trkpt lat="43.639031" lon="-8.090026">
        <ele>59.322</ele>
        <time>2016-09-26T11:04:04Z</time>
      </trkpt>
      <trkpt lat="43.639058" lon="-8.090043">
        <ele>59.308</ele>
        <time>2016-09-26T11:04:05Z</time>
      </trkpt>
      <trkpt lat="43.639081" lon="-8.090061">
        <ele>59.565</ele>
        <time>2016-09-26T11:04:06Z</time>
      </trkpt>
      <trkpt lat="43.639102" lon="-8.090078">
        <ele>59.710</ele>
        <time>2016-09-26T11:04:07Z</time>
      </trkpt>
      <trkpt lat="43.639125" lon="-8.090095">
        <ele>59.848</ele>
        <time>2016-09-26T11:04:08Z</time>
      </trkpt>
      <trkpt lat="43.639148" lon="-8.090112">
        <ele>59.974</ele>
        <time>2016-09-26T11:04:09Z</time>
      </trkpt>
      <trkpt lat="43.639172" lon="-8.090127">
        <ele>59.928</ele>
        <time>2016-09-26T11:04:10Z</time>
      </trkpt>
      <trkpt lat="43.639197" lon="-8.090141">
        <ele>60.040</ele>
        <time>2016-09-26T11:04:11Z</time>
      </trkpt>
      <trkpt lat="43.639223" lon="-8.090156">
        <ele>60.133</ele>
        <time>2016-09-26T11:04:12Z</time>
      </trkpt>
      <trkpt lat="43.639248" lon="-8.090169">
        <ele>60.351</ele>
        <time>2016-09-26T11:04:13Z</time>
      </trkpt>
      <trkpt lat="43.639276" lon="-8.090180">
        <ele>60.575</ele>
        <time>2016-09-26T11:04:14Z</time>
      </trkpt>
      <trkpt lat="43.639305" lon="-8.090190">
        <ele>60.728</ele>
        <time>2016-09-26T11:04:15Z</time>
      </trkpt>
      <trkpt lat="43.639335" lon="-8.090199">
        <ele>60.720</ele>
        <time>2016-09-26T11:04:16Z</time>
      </trkpt>
      <trkpt lat="43.639364" lon="-8.090207">
        <ele>61.008</ele>
        <time>2016-09-26T11:04:17Z</time>
      </trkpt>
      <trkpt lat="43.639392" lon="-8.090214">
        <ele>61.148</ele>
        <time>2016-09-26T11:04:18Z</time>
      </trkpt>
      <trkpt lat="43.639423" lon="-8.090224">
        <ele>61.293</ele>
        <time>2016-09-26T11:04:19Z</time>
      </trkpt>
      <trkpt lat="43.639453" lon="-8.090232">
        <ele>61.541</ele>
        <time>2016-09-26T11:04:20Z</time>
      </trkpt>
      <trkpt lat="43.639481" lon="-8.090239">
        <ele>61.517</ele>
        <time>2016-09-26T11:04:21Z</time>
      </trkpt>
      <trkpt lat="43.639510" lon="-8.090245">
        <ele>61.971</ele>
        <time>2016-09-26T11:04:22Z</time>
      </trkpt>
      <trkpt lat="43.639540" lon="-8.090250">
        <ele>62.093</ele>
        <time>2016-09-26T11:04:23Z</time>
      </trkpt>
      <trkpt lat="43.639571" lon="-8.090254">
        <ele>62.276</ele>
        <time>2016-09-26T11:04:24Z</time>
      </trkpt>
      <trkpt lat="43.639597" lon="-8.090255">
        <ele>62.234</ele>
        <time>2016-09-26T11:04:25Z</time>
      </trkpt>
      <trkpt lat="43.639621" lon="-8.090258">
        <ele>62.426</ele>
        <time>2016-09-26T11:04:26Z</time>
      </trkpt>
      <trkpt lat="43.639648" lon="-8.090262">
        <ele>62.547</ele>
        <time>2016-09-26T11:04:27Z</time>
      </trkpt>
      <trkpt lat="43.639675" lon="-8.090269">
        <ele>62.511</ele>
        <time>2016-09-26T11:04:28Z</time>
      </trkpt>
      <trkpt lat="43.639700" lon="-8.090275">
        <ele>62.708</ele>
        <time>2016-09-26T11:04:29Z</time>
      </trkpt>
      <trkpt lat="43.639726" lon="-8.090282">
        <ele>62.863</ele>
        <time>2016-09-26T11:04:30Z</time>
      </trkpt>
      <trkpt lat="43.639751" lon="-8.090289">
        <ele>62.958</ele>
        <time>2016-09-26T11:04:31Z</time>
      </trkpt>
      <trkpt lat="43.639776" lon="-8.090299">
        <ele>63.196</ele>
        <time>2016-09-26T11:04:32Z</time>
      </trkpt>
      <trkpt lat="43.639801" lon="-8.090311">
        <ele>63.322</ele>
        <time>2016-09-26T11:04:33Z</time>
      </trkpt>
      <trkpt lat="43.639827" lon="-8.090323">
        <ele>63.576</ele>
        <time>2016-09-26T11:04:34Z</time>
      </trkpt>
      <trkpt lat="43.639853" lon="-8.090335">
        <ele>63.528</ele>
        <time>2016-09-26T11:04:35Z</time>
      </trkpt>
      <trkpt lat="43.639877" lon="-8.090349">
        <ele>63.891</ele>
        <time>2016-09-26T11:04:36Z</time>
      </trkpt>
      <trkpt lat="43.639901" lon="-8.090363">
        <ele>63.919</ele>
        <time>2016-09-26T11:04:37Z</time>
      </trkpt>
      <trkpt lat="43.639926" lon="-8.090378">
        <ele>63.959</ele>
        <time>2016-09-26T11:04:38Z</time>
      </trkpt>
      <trkpt lat="43.639952" lon="-8.090392">
        <ele>64.103</ele>
        <time>2016-09-26T11:04:39Z</time>
      </trkpt>
      <trkpt lat="43.639976" lon="-8.090410">
        <ele>63.923</ele>
        <time>2016-09-26T11:04:40Z</time>
      </trkpt>
      <trkpt lat="43.639999" lon="-8.090428">
        <ele>64.108</ele>
        <time>2016-09-26T11:04:41Z</time>
      </trkpt>
      <trkpt lat="43.640021" lon="-8.090446">
        <ele>64.276</ele>
        <time>2016-09-26T11:04:42Z</time>
      </trkpt>
      <trkpt lat="43.640046" lon="-8.090466">
        <ele>64.261</ele>
        <time>2016-09-26T11:04:43Z</time>
      </trkpt>
      <trkpt lat="43.640072" lon="-8.090485">
        <ele>64.349</ele>
        <time>2016-09-26T11:04:44Z</time>
      </trkpt>
      <trkpt lat="43.640099" lon="-8.090505">
        <ele>64.345</ele>
        <time>2016-09-26T11:04:45Z</time>
      </trkpt>
      <trkpt lat="43.640124" lon="-8.090525">
        <ele>64.399</ele>
        <time>2016-09-26T11:04:46Z</time>
      </trkpt>
      <trkpt lat="43.640150" lon="-8.090544">
        <ele>64.361</ele>
        <time>2016-09-26T11:04:47Z</time>
      </trkpt>
      <trkpt lat="43.640178" lon="-8.090561">
        <ele>64.474</ele>
        <time>2016-09-26T11:04:48Z</time>
      </trkpt>
      <trkpt lat="43.640207" lon="-8.090573">
        <ele>64.522</ele>
        <time>2016-09-26T11:04:49Z</time>
      </trkpt>
      <trkpt lat="43.640238" lon="-8.090583">
        <ele>64.558</ele>
        <time>2016-09-26T11:04:50Z</time>
      </trkpt>
      <trkpt lat="43.640268" lon="-8.090592">
        <ele>64.652</ele>
        <time>2016-09-26T11:04:51Z</time>
      </trkpt>
      <trkpt lat="43.640298" lon="-8.090602">
        <ele>64.717</ele>
        <time>2016-09-26T11:04:52Z</time>
      </trkpt>
      <trkpt lat="43.640328" lon="-8.090608">
        <ele>64.808</ele>
        <time>2016-09-26T11:04:53Z</time>
      </trkpt>
      <trkpt lat="43.640360" lon="-8.090614">
        <ele>65.096</ele>
        <time>2016-09-26T11:04:54Z</time>
      </trkpt>
      <trkpt lat="43.640393" lon="-8.090619">
        <ele>65.081</ele>
        <time>2016-09-26T11:04:55Z</time>
      </trkpt>
      <trkpt lat="43.640425" lon="-8.090624">
        <ele>65.259</ele>
        <time>2016-09-26T11:04:56Z</time>
      </trkpt>
      <trkpt lat="43.640457" lon="-8.090628">
        <ele>65.455</ele>
        <time>2016-09-26T11:04:57Z</time>
      </trkpt>
      <trkpt lat="43.640487" lon="-8.090633">
        <ele>65.389</ele>
        <time>2016-09-26T11:04:58Z</time>
      </trkpt>
      <trkpt lat="43.640517" lon="-8.090633">
        <ele>65.561</ele>
        <time>2016-09-26T11:04:59Z</time>
      </trkpt>
      <trkpt lat="43.640547" lon="-8.090634">
        <ele>65.754</ele>
        <time>2016-09-26T11:05:00Z</time>
      </trkpt>
      <trkpt lat="43.640577" lon="-8.090636">
        <ele>65.792</ele>
        <time>2016-09-26T11:05:01Z</time>
      </trkpt>
      <trkpt lat="43.640605" lon="-8.090635">
        <ele>65.828</ele>
        <time>2016-09-26T11:05:02Z</time>
      </trkpt>
      <trkpt lat="43.640632" lon="-8.090637">
        <ele>65.889</ele>
        <time>2016-09-26T11:05:03Z</time>
      </trkpt>
      <trkpt lat="43.640660" lon="-8.090639">
        <ele>65.917</ele>
        <time>2016-09-26T11:05:04Z</time>
      </trkpt>
      <trkpt lat="43.640688" lon="-8.090641">
        <ele>65.908</ele>
        <time>2016-09-26T11:05:05Z</time>
      </trkpt>
      <trkpt lat="43.640716" lon="-8.090641">
        <ele>66.183</ele>
        <time>2016-09-26T11:05:06Z</time>
      </trkpt>
      <trkpt lat="43.640743" lon="-8.090641">
        <ele>66.238</ele>
        <time>2016-09-26T11:05:07Z</time>
      </trkpt>
      <trkpt lat="43.640770" lon="-8.090641">
        <ele>66.426</ele>
        <time>2016-09-26T11:05:08Z</time>
      </trkpt>
      <trkpt lat="43.640799" lon="-8.090643">
        <ele>66.592</ele>
        <time>2016-09-26T11:05:09Z</time>
      </trkpt>
      <trkpt lat="43.640828" lon="-8.090644">
        <ele>66.716</ele>
        <time>2016-09-26T11:05:10Z</time>
      </trkpt>
      <trkpt lat="43.640857" lon="-8.090646">
        <ele>66.828</ele>
        <time>2016-09-26T11:05:11Z</time>
      </trkpt>
      <trkpt lat="43.640883" lon="-8.090653">
        <ele>67.071</ele>
        <time>2016-09-26T11:05:12Z</time>
      </trkpt>
      <trkpt lat="43.640911" lon="-8.090660">
        <ele>67.139</ele>
        <time>2016-09-26T11:05:13Z</time>
      </trkpt>
      <trkpt lat="43.640938" lon="-8.090669">
        <ele>67.181</ele>
        <time>2016-09-26T11:05:14Z</time>
      </trkpt>
      <trkpt lat="43.640965" lon="-8.090681">
        <ele>67.161</ele>
        <time>2016-09-26T11:05:15Z</time>
      </trkpt>
      <trkpt lat="43.640993" lon="-8.090693">
        <ele>67.217</ele>
        <time>2016-09-26T11:05:16Z</time>
      </trkpt>
      <trkpt lat="43.641020" lon="-8.090710">
        <ele>67.408</ele>
        <time>2016-09-26T11:05:17Z</time>
      </trkpt>
      <trkpt lat="43.641049" lon="-8.090728">
        <ele>67.579</ele>
        <time>2016-09-26T11:05:18Z</time>
      </trkpt>
      <trkpt lat="43.641079" lon="-8.090745">
        <ele>67.584</ele>
        <time>2016-09-26T11:05:19Z</time>
      </trkpt>
      <trkpt lat="43.641108" lon="-8.090763">
        <ele>67.652</ele>
        <time>2016-09-26T11:05:20Z</time>
      </trkpt>
      <trkpt lat="43.641139" lon="-8.090781">
        <ele>67.888</ele>
        <time>2016-09-26T11:05:21Z</time>
      </trkpt>
      <trkpt lat="43.641170" lon="-8.090801">
        <ele>67.812</ele>
        <time>2016-09-26T11:05:22Z</time>
      </trkpt>
      <trkpt lat="43.641199" lon="-8.090823">
        <ele>67.714</ele>
        <time>2016-09-26T11:05:23Z</time>
      </trkpt>
      <trkpt lat="43.641227" lon="-8.090846">
        <ele>67.997</ele>
        <time>2016-09-26T11:05:24Z</time>
      </trkpt>
      <trkpt lat="43.641253" lon="-8.090866">
        <ele>68.035</ele>
        <time>2016-09-26T11:05:25Z</time>
      </trkpt>
      <trkpt lat="43.641280" lon="-8.090887">
        <ele>68.195</ele>
        <time>2016-09-26T11:05:26Z</time>
      </trkpt>
      <trkpt lat="43.641304" lon="-8.090907">
        <ele>68.449</ele>
        <time>2016-09-26T11:05:27Z</time>
      </trkpt>
      <trkpt lat="43.641327" lon="-8.090929">
        <ele>68.423</ele>
        <time>2016-09-26T11:05:28Z</time>
      </trkpt>
      <trkpt lat="43.641353" lon="-8.090950">
        <ele>68.408</ele>
        <time>2016-09-26T11:05:29Z</time>
      </trkpt>
      <trkpt lat="43.641381" lon="-8.090970">
        <ele>68.560</ele>
        <time>2016-09-26T11:05:30Z</time>
      </trkpt>
      <trkpt lat="43.641407" lon="-8.090991">
        <ele>68.625</ele>
        <time>2016-09-26T11:05:31Z</time>
      </trkpt>
      <trkpt lat="43.641434" lon="-8.091013">
        <ele>68.813</ele>
        <time>2016-09-26T11:05:32Z</time>
      </trkpt>
      <trkpt lat="43.641460" lon="-8.091035">
        <ele>69.059</ele>
        <time>2016-09-26T11:05:33Z</time>
      </trkpt>
      <trkpt lat="43.641486" lon="-8.091057">
        <ele>69.113</ele>
        <time>2016-09-26T11:05:34Z</time>
      </trkpt>
      <trkpt lat="43.641511" lon="-8.091078">
        <ele>69.315</ele>
        <time>2016-09-26T11:05:35Z</time>
      </trkpt>
      <trkpt lat="43.641535" lon="-8.091100">
        <ele>69.418</ele>
        <time>2016-09-26T11:05:36Z</time>
      </trkpt>
      <trkpt lat="43.641558" lon="-8.091119">
        <ele>69.696</ele>
        <time>2016-09-26T11:05:37Z</time>
      </trkpt>
      <trkpt lat="43.641581" lon="-8.091140">
        <ele>69.892</ele>
        <time>2016-09-26T11:05:38Z</time>
      </trkpt>
      <trkpt lat="43.641605" lon="-8.091161">
        <ele>70.073</ele>
        <time>2016-09-26T11:05:39Z</time>
      </trkpt>
      <trkpt lat="43.641629" lon="-8.091181">
        <ele>70.120</ele>
        <time>2016-09-26T11:05:40Z</time>
      </trkpt>
      <trkpt lat="43.641655" lon="-8.091203">
        <ele>70.408</ele>
        <time>2016-09-26T11:05:41Z</time>
      </trkpt>
      <trkpt lat="43.641681" lon="-8.091222">
        <ele>70.570</ele>
        <time>2016-09-26T11:05:42Z</time>
      </trkpt>
      <trkpt lat="43.641708" lon="-8.091242">
        <ele>70.635</ele>
        <time>2016-09-26T11:05:43Z</time>
      </trkpt>
      <trkpt lat="43.641733" lon="-8.091262">
        <ele>70.953</ele>
        <time>2016-09-26T11:05:44Z</time>
      </trkpt>
      <trkpt lat="43.641758" lon="-8.091285">
        <ele>71.299</ele>
        <time>2016-09-26T11:05:45Z</time>
      </trkpt>
      <trkpt lat="43.641782" lon="-8.091307">
        <ele>71.353</ele>
        <time>2016-09-26T11:05:46Z</time>
      </trkpt>
      <trkpt lat="43.641806" lon="-8.091328">
        <ele>71.565</ele>
        <time>2016-09-26T11:05:47Z</time>
      </trkpt>
      <trkpt lat="43.641830" lon="-8.091347">
        <ele>71.818</ele>
        <time>2016-09-26T11:05:48Z</time>
      </trkpt>
      <trkpt lat="43.641855" lon="-8.091365">
        <ele>72.096</ele>
        <time>2016-09-26T11:05:49Z</time>
      </trkpt>
      <trkpt lat="43.641881" lon="-8.091387">
        <ele>72.027</ele>
        <time>2016-09-26T11:05:50Z</time>
      </trkpt>
      <trkpt lat="43.641906" lon="-8.091408">
        <ele>72.268</ele>
        <time>2016-09-26T11:05:51Z</time>
      </trkpt>
      <trkpt lat="43.641931" lon="-8.091427">
        <ele>72.414</ele>
        <time>2016-09-26T11:05:52Z</time>
      </trkpt>
      <trkpt lat="43.641955" lon="-8.091448">
        <ele>72.408</ele>
        <time>2016-09-26T11:05:53Z</time>
      </trkpt>
      <trkpt lat="43.641979" lon="-8.091469">
        <ele>72.683</ele>
        <time>2016-09-26T11:05:54Z</time>
      </trkpt>
      <trkpt lat="43.642003" lon="-8.091488">
        <ele>72.788</ele>
        <time>2016-09-26T11:05:55Z</time>
      </trkpt>
      <trkpt lat="43.642027" lon="-8.091508">
        <ele>72.926</ele>
        <time>2016-09-26T11:05:56Z</time>
      </trkpt>
      <trkpt lat="43.642050" lon="-8.091526">
        <ele>72.972</ele>
        <time>2016-09-26T11:05:57Z</time>
      </trkpt>
      <trkpt lat="43.642074" lon="-8.091544">
        <ele>73.116</ele>
        <time>2016-09-26T11:05:58Z</time>
      </trkpt>
      <trkpt lat="43.642097" lon="-8.091564">
        <ele>73.548</ele>
        <time>2016-09-26T11:05:59Z</time>
      </trkpt>
      <trkpt lat="43.642124" lon="-8.091584">
        <ele>73.751</ele>
        <time>2016-09-26T11:06:00Z</time>
      </trkpt>
      <trkpt lat="43.642148" lon="-8.091600">
        <ele>73.879</ele>
        <time>2016-09-26T11:06:01Z</time>
      </trkpt>
      <trkpt lat="43.642170" lon="-8.091617">
        <ele>73.828</ele>
        <time>2016-09-26T11:06:02Z</time>
      </trkpt>
      <trkpt lat="43.642191" lon="-8.091636">
        <ele>73.889</ele>
        <time>2016-09-26T11:06:03Z</time>
      </trkpt>
      <trkpt lat="43.642212" lon="-8.091655">
        <ele>74.017</ele>
        <time>2016-09-26T11:06:04Z</time>
      </trkpt>
      <trkpt lat="43.642236" lon="-8.091674">
        <ele>74.008</ele>
        <time>2016-09-26T11:06:05Z</time>
      </trkpt>
      <trkpt lat="43.642257" lon="-8.091693">
        <ele>74.173</ele>
        <time>2016-09-26T11:06:06Z</time>
      </trkpt>
      <trkpt lat="43.642274" lon="-8.091711">
        <ele>74.348</ele>
        <time>2016-09-26T11:06:07Z</time>
      </trkpt>
      <trkpt lat="43.642292" lon="-8.091727">
        <ele>74.576</ele>
        <time>2016-09-26T11:06:08Z</time>
      </trkpt>
      <trkpt lat="43.642312" lon="-8.091742">
        <ele>74.842</ele>
        <time>2016-09-26T11:06:09Z</time>
      </trkpt>
      <trkpt lat="43.642329" lon="-8.091759">
        <ele>75.126</ele>
        <time>2016-09-26T11:06:10Z</time>
      </trkpt>
      <trkpt lat="43.642348" lon="-8.091778">
        <ele>75.158</ele>
        <time>2016-09-26T11:06:11Z</time>
      </trkpt>
      <trkpt lat="43.642368" lon="-8.091795">
        <ele>75.241</ele>
        <time>2016-09-26T11:06:12Z</time>
      </trkpt>
      <trkpt lat="43.642391" lon="-8.091810">
        <ele>75.519</ele>
        <time>2016-09-26T11:06:13Z</time>
      </trkpt>
      <trkpt lat="43.642414" lon="-8.091826">
        <ele>75.798</ele>
        <time>2016-09-26T11:06:14Z</time>
      </trkpt>
      <trkpt lat="43.642438" lon="-8.091841">
        <ele>75.915</ele>
        <time>2016-09-26T11:06:15Z</time>
      </trkpt>
      <trkpt lat="43.642460" lon="-8.091858">
        <ele>76.126</ele>
        <time>2016-09-26T11:06:16Z</time>
      </trkpt>
      <trkpt lat="43.642484" lon="-8.091876">
        <ele>76.308</ele>
        <time>2016-09-26T11:06:17Z</time>
      </trkpt>
      <trkpt lat="43.642506" lon="-8.091894">
        <ele>76.320</ele>
        <time>2016-09-26T11:06:18Z</time>
      </trkpt>
      <trkpt lat="43.642527" lon="-8.091910">
        <ele>76.565</ele>
        <time>2016-09-26T11:06:19Z</time>
      </trkpt>
      <trkpt lat="43.642549" lon="-8.091928">
        <ele>76.623</ele>
        <time>2016-09-26T11:06:20Z</time>
      </trkpt>
      <trkpt lat="43.642572" lon="-8.091945">
        <ele>76.889</ele>
        <time>2016-09-26T11:06:21Z</time>
      </trkpt>
      <trkpt lat="43.642594" lon="-8.091963">
        <ele>76.943</ele>
        <time>2016-09-26T11:06:22Z</time>
      </trkpt>
      <trkpt lat="43.642615" lon="-8.091982">
        <ele>77.055</ele>
        <time>2016-09-26T11:06:23Z</time>
      </trkpt>
      <trkpt lat="43.642637" lon="-8.091999">
        <ele>77.288</ele>
        <time>2016-09-26T11:06:24Z</time>
      </trkpt>
      <trkpt lat="43.642658" lon="-8.092019">
        <ele>77.486</ele>
        <time>2016-09-26T11:06:25Z</time>
      </trkpt>
      <trkpt lat="43.642680" lon="-8.092038">
        <ele>77.559</ele>
        <time>2016-09-26T11:06:26Z</time>
      </trkpt>
      <trkpt lat="43.642702" lon="-8.092054">
        <ele>77.703</ele>
        <time>2016-09-26T11:06:27Z</time>
      </trkpt>
      <trkpt lat="43.642723" lon="-8.092067">
        <ele>78.023</ele>
        <time>2016-09-26T11:06:28Z</time>
      </trkpt>
      <trkpt lat="43.642747" lon="-8.092080">
        <ele>78.108</ele>
        <time>2016-09-26T11:06:29Z</time>
      </trkpt>
      <trkpt lat="43.642770" lon="-8.092093">
        <ele>78.376</ele>
        <time>2016-09-26T11:06:30Z</time>
      </trkpt>
      <trkpt lat="43.642793" lon="-8.092104">
        <ele>78.491</ele>
        <time>2016-09-26T11:06:31Z</time>
      </trkpt>
      <trkpt lat="43.642815" lon="-8.092113">
        <ele>78.519</ele>
        <time>2016-09-26T11:06:32Z</time>
      </trkpt>
      <trkpt lat="43.642838" lon="-8.092119">
        <ele>78.655</ele>
        <time>2016-09-26T11:06:33Z</time>
      </trkpt>
      <trkpt lat="43.642863" lon="-8.092121">
        <ele>78.749</ele>
        <time>2016-09-26T11:06:34Z</time>
      </trkpt>
      <trkpt lat="43.642888" lon="-8.092125">
        <ele>78.941</ele>
        <time>2016-09-26T11:06:35Z</time>
      </trkpt>
      <trkpt lat="43.642912" lon="-8.092130">
        <ele>78.934</ele>
        <time>2016-09-26T11:06:36Z</time>
      </trkpt>
      <trkpt lat="43.642937" lon="-8.092136">
        <ele>79.142</ele>
        <time>2016-09-26T11:06:37Z</time>
      </trkpt>
      <trkpt lat="43.642964" lon="-8.092141">
        <ele>79.139</ele>
        <time>2016-09-26T11:06:38Z</time>
      </trkpt>
      <trkpt lat="43.642992" lon="-8.092146">
        <ele>79.101</ele>
        <time>2016-09-26T11:06:39Z</time>
      </trkpt>
      <trkpt lat="43.643022" lon="-8.092153">
        <ele>79.221</ele>
        <time>2016-09-26T11:06:40Z</time>
      </trkpt>
      <trkpt lat="43.643052" lon="-8.092159">
        <ele>79.408</ele>
        <time>2016-09-26T11:06:41Z</time>
      </trkpt>
      <trkpt lat="43.643082" lon="-8.092165">
        <ele>79.554</ele>
        <time>2016-09-26T11:06:42Z</time>
      </trkpt>
      <trkpt lat="43.643111" lon="-8.092172">
        <ele>79.569</ele>
        <time>2016-09-26T11:06:43Z</time>
      </trkpt>
      <trkpt lat="43.643139" lon="-8.092177">
        <ele>79.657</ele>
        <time>2016-09-26T11:06:44Z</time>
      </trkpt>
      <trkpt lat="43.643166" lon="-8.092182">
        <ele>79.883</ele>
        <time>2016-09-26T11:06:45Z</time>
      </trkpt>
      <trkpt lat="43.643194" lon="-8.092185">
        <ele>79.947</ele>
        <time>2016-09-26T11:06:46Z</time>
      </trkpt>
      <trkpt lat="43.643220" lon="-8.092182">
        <ele>80.039</ele>
        <time>2016-09-26T11:06:47Z</time>
      </trkpt>
      <trkpt lat="43.643247" lon="-8.092174">
        <ele>80.062</ele>
        <time>2016-09-26T11:06:48Z</time>
      </trkpt>
      <trkpt lat="43.643274" lon="-8.092164">
        <ele>80.260</ele>
        <time>2016-09-26T11:06:49Z</time>
      </trkpt>
      <trkpt lat="43.643302" lon="-8.092153">
        <ele>80.458</ele>
        <time>2016-09-26T11:06:50Z</time>
      </trkpt>
      <trkpt lat="43.643333" lon="-8.092138">
        <ele>80.452</ele>
        <time>2016-09-26T11:06:51Z</time>
      </trkpt>
      <trkpt lat="43.643370" lon="-8.092122">
        <ele>80.517</ele>
        <time>2016-09-26T11:06:52Z</time>
      </trkpt>
      <trkpt lat="43.643412" lon="-8.092099">
        <ele>80.508</ele>
        <time>2016-09-26T11:06:53Z</time>
      </trkpt>
      <trkpt lat="43.643460" lon="-8.092075">
        <ele>80.456</ele>
        <time>2016-09-26T11:06:54Z</time>
      </trkpt>
      <trkpt lat="43.643512" lon="-8.092047">
        <ele>80.251</ele>
        <time>2016-09-26T11:06:55Z</time>
      </trkpt>
      <trkpt lat="43.643563" lon="-8.092015">
        <ele>80.139</ele>
        <time>2016-09-26T11:06:56Z</time>
      </trkpt>
      <trkpt lat="43.643613" lon="-8.091979">
        <ele>79.865</ele>
        <time>2016-09-26T11:06:57Z</time>
      </trkpt>
      <trkpt lat="43.643663" lon="-8.091939">
        <ele>79.599</ele>
        <time>2016-09-26T11:06:58Z</time>
      </trkpt>
      <trkpt lat="43.643712" lon="-8.091896">
        <ele>79.451</ele>
        <time>2016-09-26T11:06:59Z</time>
      </trkpt>
      <trkpt lat="43.643763" lon="-8.091853">
        <ele>79.384</ele>
        <time>2016-09-26T11:07:00Z</time>
      </trkpt>
      <trkpt lat="43.643815" lon="-8.091813">
        <ele>79.252</ele>
        <time>2016-09-26T11:07:01Z</time>
      </trkpt>
      <trkpt lat="43.643865" lon="-8.091772">
        <ele>79.033</ele>
        <time>2016-09-26T11:07:02Z</time>
      </trkpt>
      <trkpt lat="43.643913" lon="-8.091728">
        <ele>78.923</ele>
        <time>2016-09-26T11:07:03Z</time>
      </trkpt>
      <trkpt lat="43.643957" lon="-8.091686">
        <ele>78.915</ele>
        <time>2016-09-26T11:07:04Z</time>
      </trkpt>
      <trkpt lat="43.644000" lon="-8.091642">
        <ele>78.808</ele>
        <time>2016-09-26T11:07:05Z</time>
      </trkpt>
      <trkpt lat="43.644039" lon="-8.091597">
        <ele>78.734</ele>
        <time>2016-09-26T11:07:06Z</time>
      </trkpt>
      <trkpt lat="43.644077" lon="-8.091554">
        <ele>78.999</ele>
        <time>2016-09-26T11:07:07Z</time>
      </trkpt>
      <trkpt lat="43.644112" lon="-8.091512">
        <ele>79.017</ele>
        <time>2016-09-26T11:07:08Z</time>
      </trkpt>
      <trkpt lat="43.644146" lon="-8.091470">
        <ele>79.123</ele>
        <time>2016-09-26T11:07:09Z</time>
      </trkpt>
      <trkpt lat="43.644177" lon="-8.091430">
        <ele>79.027</ele>
        <time>2016-09-26T11:07:10Z</time>
      </trkpt>
      <trkpt lat="43.644206" lon="-8.091389">
        <ele>79.229</ele>
        <time>2016-09-26T11:07:11Z</time>
      </trkpt>
      <trkpt lat="43.644233" lon="-8.091350">
        <ele>79.362</ele>
        <time>2016-09-26T11:07:12Z</time>
      </trkpt>
      <trkpt lat="43.644259" lon="-8.091312">
        <ele>79.110</ele>
        <time>2016-09-26T11:07:13Z</time>
      </trkpt>
      <trkpt lat="43.644283" lon="-8.091276">
        <ele>79.257</ele>
        <time>2016-09-26T11:07:14Z</time>
      </trkpt>
      <trkpt lat="43.644306" lon="-8.091240">
        <ele>79.200</ele>
        <time>2016-09-26T11:07:15Z</time>
      </trkpt>
      <trkpt lat="43.644328" lon="-8.091204">
        <ele>79.020</ele>
        <time>2016-09-26T11:07:16Z</time>
      </trkpt>
      <trkpt lat="43.644351" lon="-8.091167">
        <ele>79.108</ele>
        <time>2016-09-26T11:07:17Z</time>
      </trkpt>
      <trkpt lat="43.644373" lon="-8.091127">
        <ele>79.146</ele>
        <time>2016-09-26T11:07:18Z</time>
      </trkpt>
      <trkpt lat="43.644396" lon="-8.091089">
        <ele>79.121</ele>
        <time>2016-09-26T11:07:19Z</time>
      </trkpt>
      <trkpt lat="43.644420" lon="-8.091051">
        <ele>79.299</ele>
        <time>2016-09-26T11:07:20Z</time>
      </trkpt>
      <trkpt lat="43.644445" lon="-8.091012">
        <ele>79.325</ele>
        <time>2016-09-26T11:07:21Z</time>
      </trkpt>
      <trkpt lat="43.644470" lon="-8.090971">
        <ele>79.369</ele>
        <time>2016-09-26T11:07:22Z</time>
      </trkpt>
      <trkpt lat="43.644496" lon="-8.090934">
        <ele>79.321</ele>
        <time>2016-09-26T11:07:23Z</time>
      </trkpt>
      <trkpt lat="43.644526" lon="-8.090897">
        <ele>79.454</ele>
        <time>2016-09-26T11:07:24Z</time>
      </trkpt>
      <trkpt lat="43.644561" lon="-8.090855">
        <ele>79.482</ele>
        <time>2016-09-26T11:07:25Z</time>
      </trkpt>
      <trkpt lat="43.644600" lon="-8.090815">
        <ele>79.271</ele>
        <time>2016-09-26T11:07:26Z</time>
      </trkpt>
      <trkpt lat="43.644637" lon="-8.090776">
        <ele>79.141</ele>
        <time>2016-09-26T11:07:27Z</time>
      </trkpt>
      <trkpt lat="43.644672" lon="-8.090736">
        <ele>79.115</ele>
        <time>2016-09-26T11:07:28Z</time>
      </trkpt>
      <trkpt lat="43.644707" lon="-8.090695">
        <ele>79.108</ele>
        <time>2016-09-26T11:07:29Z</time>
      </trkpt>
      <trkpt lat="43.644741" lon="-8.090659">
        <ele>79.048</ele>
        <time>2016-09-26T11:07:30Z</time>
      </trkpt>
      <trkpt lat="43.644773" lon="-8.090623">
        <ele>78.983</ele>
        <time>2016-09-26T11:07:31Z</time>
      </trkpt>
      <trkpt lat="43.644806" lon="-8.090590">
        <ele>79.091</ele>
        <time>2016-09-26T11:07:32Z</time>
      </trkpt>
      <trkpt lat="43.644836" lon="-8.090558">
        <ele>79.137</ele>
        <time>2016-09-26T11:07:33Z</time>
      </trkpt>
      <trkpt lat="43.644867" lon="-8.090527">
        <ele>79.231</ele>
        <time>2016-09-26T11:07:34Z</time>
      </trkpt>
      <trkpt lat="43.644893" lon="-8.090498">
        <ele>79.463</ele>
        <time>2016-09-26T11:07:35Z</time>
      </trkpt>
      <trkpt lat="43.644918" lon="-8.090471">
        <ele>79.516</ele>
        <time>2016-09-26T11:07:36Z</time>
      </trkpt>
      <trkpt lat="43.644946" lon="-8.090450">
        <ele>79.794</ele>
        <time>2016-09-26T11:07:37Z</time>
      </trkpt>
      <trkpt lat="43.644974" lon="-8.090430">
        <ele>79.933</ele>
        <time>2016-09-26T11:07:38Z</time>
      </trkpt>
      <trkpt lat="43.645001" lon="-8.090404">
        <ele>80.123</ele>
        <time>2016-09-26T11:07:39Z</time>
      </trkpt>
      <trkpt lat="43.645029" lon="-8.090377">
        <ele>80.215</ele>
        <time>2016-09-26T11:07:40Z</time>
      </trkpt>
      <trkpt lat="43.645058" lon="-8.090355">
        <ele>80.308</ele>
        <time>2016-09-26T11:07:41Z</time>
      </trkpt>
      <trkpt lat="43.645084" lon="-8.090330">
        <ele>80.384</ele>
        <time>2016-09-26T11:07:42Z</time>
      </trkpt>
      <trkpt lat="43.645109" lon="-8.090301">
        <ele>80.679</ele>
        <time>2016-09-26T11:07:43Z</time>
      </trkpt>
      <trkpt lat="43.645133" lon="-8.090264">
        <ele>80.737</ele>
        <time>2016-09-26T11:07:44Z</time>
      </trkpt>
      <trkpt lat="43.645158" lon="-8.090229">
        <ele>80.983</ele>
        <time>2016-09-26T11:07:45Z</time>
      </trkpt>
      <trkpt lat="43.645183" lon="-8.090191">
        <ele>81.267</ele>
        <time>2016-09-26T11:07:46Z</time>
      </trkpt>
      <trkpt lat="43.645207" lon="-8.090158">
        <ele>81.469</ele>
        <time>2016-09-26T11:07:47Z</time>
      </trkpt>
      <trkpt lat="43.645233" lon="-8.090126">
        <ele>81.632</ele>
        <time>2016-09-26T11:07:48Z</time>
      </trkpt>
      <trkpt lat="43.645261" lon="-8.090091">
        <ele>81.990</ele>
        <time>2016-09-26T11:07:49Z</time>
      </trkpt>
      <trkpt lat="43.645289" lon="-8.090054">
        <ele>81.965</ele>
        <time>2016-09-26T11:07:50Z</time>
      </trkpt>
      <trkpt lat="43.645318" lon="-8.090017">
        <ele>81.968</ele>
        <time>2016-09-26T11:07:51Z</time>
      </trkpt>
      <trkpt lat="43.645344" lon="-8.089978">
        <ele>81.814</ele>
        <time>2016-09-26T11:07:52Z</time>
      </trkpt>
      <trkpt lat="43.645370" lon="-8.089940">
        <ele>81.808</ele>
        <time>2016-09-26T11:07:53Z</time>
      </trkpt>
      <trkpt lat="43.645399" lon="-8.089897">
        <ele>81.837</ele>
        <time>2016-09-26T11:07:54Z</time>
      </trkpt>
      <trkpt lat="43.645428" lon="-8.089854">
        <ele>81.792</ele>
        <time>2016-09-26T11:07:55Z</time>
      </trkpt>
      <trkpt lat="43.645457" lon="-8.089809">
        <ele>81.750</ele>
        <time>2016-09-26T11:07:56Z</time>
      </trkpt>
      <trkpt lat="43.645485" lon="-8.089765">
        <ele>81.716</ele>
        <time>2016-09-26T11:07:57Z</time>
      </trkpt>
      <trkpt lat="43.645513" lon="-8.089724">
        <ele>81.760</ele>
        <time>2016-09-26T11:07:58Z</time>
      </trkpt>
      <trkpt lat="43.645537" lon="-8.089679">
        <ele>81.722</ele>
        <time>2016-09-26T11:07:59Z</time>
      </trkpt>
      <trkpt lat="43.645557" lon="-8.089629">
        <ele>81.615</ele>
        <time>2016-09-26T11:08:00Z</time>
      </trkpt>
      <trkpt lat="43.645575" lon="-8.089573">
        <ele>81.533</ele>
        <time>2016-09-26T11:08:01Z</time>
      </trkpt>
      <trkpt lat="43.645591" lon="-8.089516">
        <ele>81.654</ele>
        <time>2016-09-26T11:08:02Z</time>
      </trkpt>
      <trkpt lat="43.645603" lon="-8.089455">
        <ele>81.556</ele>
        <time>2016-09-26T11:08:03Z</time>
      </trkpt>
      <trkpt lat="43.645613" lon="-8.089388">
        <ele>81.111</ele>
        <time>2016-09-26T11:08:04Z</time>
      </trkpt>
      <trkpt lat="43.645625" lon="-8.089319">
        <ele>81.308</ele>
        <time>2016-09-26T11:08:05Z</time>
      </trkpt>
      <trkpt lat="43.645639" lon="-8.089249">
        <ele>81.246</ele>
        <time>2016-09-26T11:08:06Z</time>
      </trkpt>
      <trkpt lat="43.645656" lon="-8.089174">
        <ele>81.131</ele>
        <time>2016-09-26T11:08:07Z</time>
      </trkpt>
      <trkpt lat="43.645675" lon="-8.089094">
        <ele>80.929</ele>
        <time>2016-09-26T11:08:08Z</time>
      </trkpt>
      <trkpt lat="43.645697" lon="-8.089006">
        <ele>80.875</ele>
        <time>2016-09-26T11:08:09Z</time>
      </trkpt>
      <trkpt lat="43.645720" lon="-8.088909">
        <ele>80.519</ele>
        <time>2016-09-26T11:08:10Z</time>
      </trkpt>
      <trkpt lat="43.645744" lon="-8.088804">
        <ele>80.191</ele>
        <time>2016-09-26T11:08:11Z</time>
      </trkpt>
      <trkpt lat="43.645766" lon="-8.088689">
        <ele>79.854</ele>
        <time>2016-09-26T11:08:12Z</time>
      </trkpt>
      <trkpt lat="43.645785" lon="-8.088570">
        <ele>79.552</ele>
        <time>2016-09-26T11:08:13Z</time>
      </trkpt>
      <trkpt lat="43.645798" lon="-8.088447">
        <ele>79.254</ele>
        <time>2016-09-26T11:08:14Z</time>
      </trkpt>
      <trkpt lat="43.645809" lon="-8.088326">
        <ele>78.956</ele>
        <time>2016-09-26T11:08:15Z</time>
      </trkpt>
      <trkpt lat="43.645820" lon="-8.088204">
        <ele>78.611</ele>
        <time>2016-09-26T11:08:16Z</time>
      </trkpt>
      <trkpt lat="43.645834" lon="-8.088085">
        <ele>78.308</ele>
        <time>2016-09-26T11:08:17Z</time>
      </trkpt>
      <trkpt lat="43.645854" lon="-8.087967">
        <ele>78.286</ele>
        <time>2016-09-26T11:08:18Z</time>
      </trkpt>
      <trkpt lat="43.645878" lon="-8.087855">
        <ele>77.811</ele>
        <time>2016-09-26T11:08:19Z</time>
      </trkpt>
      <trkpt lat="43.645906" lon="-8.087749">
        <ele>77.649</ele>
        <time>2016-09-26T11:08:20Z</time>
      </trkpt>
      <trkpt lat="43.645931" lon="-8.087645">
        <ele>77.645</ele>
        <time>2016-09-26T11:08:21Z</time>
      </trkpt>
      <trkpt lat="43.645953" lon="-8.087544">
        <ele>77.689</ele>
        <time>2016-09-26T11:08:22Z</time>
      </trkpt>
      <trkpt lat="43.645977" lon="-8.087452">
        <ele>77.371</ele>
        <time>2016-09-26T11:08:23Z</time>
      </trkpt>
      <trkpt lat="43.645997" lon="-8.087370">
        <ele>77.274</ele>
        <time>2016-09-26T11:08:24Z</time>
      </trkpt>
      <trkpt lat="43.646011" lon="-8.087293">
        <ele>77.122</ele>
        <time>2016-09-26T11:08:25Z</time>
      </trkpt>
      <trkpt lat="43.646031" lon="-8.087223">
        <ele>77.211</ele>
        <time>2016-09-26T11:08:26Z</time>
      </trkpt>
      <trkpt lat="43.646048" lon="-8.087154">
        <ele>77.221</ele>
        <time>2016-09-26T11:08:27Z</time>
      </trkpt>
      <trkpt lat="43.646067" lon="-8.087085">
        <ele>77.103</ele>
        <time>2016-09-26T11:08:28Z</time>
      </trkpt>
      <trkpt lat="43.646086" lon="-8.087012">
        <ele>76.908</ele>
        <time>2016-09-26T11:08:29Z</time>
      </trkpt>
      <trkpt lat="43.646104" lon="-8.086933">
        <ele>76.872</ele>
        <time>2016-09-26T11:08:30Z</time>
      </trkpt>
      <trkpt lat="43.646127" lon="-8.086854">
        <ele>76.687</ele>
        <time>2016-09-26T11:08:31Z</time>
      </trkpt>
      <trkpt lat="43.646148" lon="-8.086759">
        <ele>76.495</ele>
        <time>2016-09-26T11:08:32Z</time>
      </trkpt>
      <trkpt lat="43.646159" lon="-8.086661">
        <ele>76.261</ele>
        <time>2016-09-26T11:08:33Z</time>
      </trkpt>
      <trkpt lat="43.646172" lon="-8.086555">
        <ele>75.895</ele>
        <time>2016-09-26T11:08:34Z</time>
      </trkpt>
      <trkpt lat="43.646192" lon="-8.086453">
        <ele>75.387</ele>
        <time>2016-09-26T11:08:35Z</time>
      </trkpt>
      <trkpt lat="43.646213" lon="-8.086352">
        <ele>74.710</ele>
        <time>2016-09-26T11:08:36Z</time>
      </trkpt>
      <trkpt lat="43.646234" lon="-8.086235">
        <ele>74.098</ele>
        <time>2016-09-26T11:08:37Z</time>
      </trkpt>
      <trkpt lat="43.646258" lon="-8.086123">
        <ele>73.542</ele>
        <time>2016-09-26T11:08:38Z</time>
      </trkpt>
      <trkpt lat="43.646285" lon="-8.086003">
        <ele>72.822</ele>
        <time>2016-09-26T11:08:39Z</time>
      </trkpt>
      <trkpt lat="43.646321" lon="-8.085898">
        <ele>71.914</ele>
        <time>2016-09-26T11:08:40Z</time>
      </trkpt>
      <trkpt lat="43.646351" lon="-8.085766">
        <ele>70.908</ele>
        <time>2016-09-26T11:08:41Z</time>
      </trkpt>
      <trkpt lat="43.646403" lon="-8.085665">
        <ele>69.725</ele>
        <time>2016-09-26T11:08:42Z</time>
      </trkpt>
      <trkpt lat="43.646454" lon="-8.085549">
        <ele>68.680</ele>
        <time>2016-09-26T11:08:43Z</time>
      </trkpt>
      <trkpt lat="43.646511" lon="-8.085423">
        <ele>67.598</ele>
        <time>2016-09-26T11:08:44Z</time>
      </trkpt>
      <trkpt lat="43.646575" lon="-8.085304">
        <ele>66.184</ele>
        <time>2016-09-26T11:08:45Z</time>
      </trkpt>
      <trkpt lat="43.646644" lon="-8.085189">
        <ele>65.788</ele>
        <time>2016-09-26T11:08:46Z</time>
      </trkpt>
      <trkpt lat="43.646719" lon="-8.085085">
        <ele>65.320</ele>
        <time>2016-09-26T11:08:47Z</time>
      </trkpt>
      <trkpt lat="43.646797" lon="-8.084989">
        <ele>64.823</ele>
        <time>2016-09-26T11:08:48Z</time>
      </trkpt>
      <trkpt lat="43.646871" lon="-8.084892">
        <ele>64.411</ele>
        <time>2016-09-26T11:08:49Z</time>
      </trkpt>
      <trkpt lat="43.646942" lon="-8.084805">
        <ele>64.285</ele>
        <time>2016-09-26T11:08:50Z</time>
      </trkpt>
      <trkpt lat="43.647010" lon="-8.084723">
        <ele>63.889</ele>
        <time>2016-09-26T11:08:51Z</time>
      </trkpt>
      <trkpt lat="43.647078" lon="-8.084645">
        <ele>63.517</ele>
        <time>2016-09-26T11:08:52Z</time>
      </trkpt>
      <trkpt lat="43.647145" lon="-8.084570">
        <ele>63.108</ele>
        <time>2016-09-26T11:08:53Z</time>
      </trkpt>
      <trkpt lat="43.647217" lon="-8.084508">
        <ele>62.849</ele>
        <time>2016-09-26T11:08:54Z</time>
      </trkpt>
      <trkpt lat="43.647288" lon="-8.084460">
        <ele>62.884</ele>
        <time>2016-09-26T11:08:55Z</time>
      </trkpt>
      <trkpt lat="43.647352" lon="-8.084401">
        <ele>62.732</ele>
        <time>2016-09-26T11:08:56Z</time>
      </trkpt>
      <trkpt lat="43.647412" lon="-8.084350">
        <ele>62.628</ele>
        <time>2016-09-26T11:08:57Z</time>
      </trkpt>
      <trkpt lat="43.647471" lon="-8.084307">
        <ele>62.522</ele>
        <time>2016-09-26T11:08:58Z</time>
      </trkpt>
      <trkpt lat="43.647525" lon="-8.084273">
        <ele>62.564</ele>
        <time>2016-09-26T11:08:59Z</time>
      </trkpt>
      <trkpt lat="43.647573" lon="-8.084242">
        <ele>62.657</ele>
        <time>2016-09-26T11:09:00Z</time>
      </trkpt>
      <trkpt lat="43.647620" lon="-8.084210">
        <ele>62.735</ele>
        <time>2016-09-26T11:09:01Z</time>
      </trkpt>
      <trkpt lat="43.647666" lon="-8.084183">
        <ele>62.888</ele>
        <time>2016-09-26T11:09:02Z</time>
      </trkpt>
      <trkpt lat="43.647711" lon="-8.084165">
        <ele>63.024</ele>
        <time>2016-09-26T11:09:03Z</time>
      </trkpt>
      <trkpt lat="43.647752" lon="-8.084153">
        <ele>63.426</ele>
        <time>2016-09-26T11:09:04Z</time>
      </trkpt>
      <trkpt lat="43.647790" lon="-8.084141">
        <ele>64.008</ele>
        <time>2016-09-26T11:09:05Z</time>
      </trkpt>
      <trkpt lat="43.647825" lon="-8.084133">
        <ele>64.349</ele>
        <time>2016-09-26T11:09:06Z</time>
      </trkpt>
      <trkpt lat="43.647853" lon="-8.084128">
        <ele>64.474</ele>
        <time>2016-09-26T11:09:07Z</time>
      </trkpt>
      <trkpt lat="43.647874" lon="-8.084118">
        <ele>64.752</ele>
        <time>2016-09-26T11:09:08Z</time>
      </trkpt>
      <trkpt lat="43.647903" lon="-8.084111">
        <ele>65.098</ele>
        <time>2016-09-26T11:09:09Z</time>
      </trkpt>
      <trkpt lat="43.647931" lon="-8.084100">
        <ele>65.372</ele>
        <time>2016-09-26T11:09:10Z</time>
      </trkpt>
      <trkpt lat="43.647961" lon="-8.084088">
        <ele>65.644</ele>
        <time>2016-09-26T11:09:11Z</time>
      </trkpt>
      <trkpt lat="43.647990" lon="-8.084092">
        <ele>65.887</ele>
        <time>2016-09-26T11:09:12Z</time>
      </trkpt>
      <trkpt lat="43.648016" lon="-8.084091">
        <ele>66.585</ele>
        <time>2016-09-26T11:09:13Z</time>
      </trkpt>
      <trkpt lat="43.648037" lon="-8.084083">
        <ele>66.962</ele>
        <time>2016-09-26T11:09:14Z</time>
      </trkpt>
      <trkpt lat="43.648063" lon="-8.084082">
        <ele>67.483</ele>
        <time>2016-09-26T11:09:15Z</time>
      </trkpt>
      <trkpt lat="43.648082" lon="-8.084081">
        <ele>67.611</ele>
        <time>2016-09-26T11:09:16Z</time>
      </trkpt>
      <trkpt lat="43.648102" lon="-8.084075">
        <ele>68.008</ele>
        <time>2016-09-26T11:09:17Z</time>
      </trkpt>
      <trkpt lat="43.648127" lon="-8.084067">
        <ele>68.437</ele>
        <time>2016-09-26T11:09:18Z</time>
      </trkpt>
      <trkpt lat="43.648155" lon="-8.084057">
        <ele>68.912</ele>
        <time>2016-09-26T11:09:19Z</time>
      </trkpt>
      <trkpt lat="43.648186" lon="-8.084048">
        <ele>69.330</ele>
        <time>2016-09-26T11:09:20Z</time>
      </trkpt>
      <trkpt lat="43.648213" lon="-8.084035">
        <ele>69.586</ele>
        <time>2016-09-26T11:09:21Z</time>
      </trkpt>
      <trkpt lat="43.648244" lon="-8.084023">
        <ele>69.810</ele>
        <time>2016-09-26T11:09:22Z</time>
      </trkpt>
      <trkpt lat="43.648276" lon="-8.084013">
        <ele>70.182</ele>
        <time>2016-09-26T11:09:23Z</time>
      </trkpt>
      <trkpt lat="43.648304" lon="-8.083997">
        <ele>70.425</ele>
        <time>2016-09-26T11:09:24Z</time>
      </trkpt>
      <trkpt lat="43.648331" lon="-8.083978">
        <ele>70.523</ele>
        <time>2016-09-26T11:09:25Z</time>
      </trkpt>
      <trkpt lat="43.648359" lon="-8.083970">
        <ele>70.627</ele>
        <time>2016-09-26T11:09:26Z</time>
      </trkpt>
      <trkpt lat="43.648384" lon="-8.083962">
        <ele>70.968</ele>
        <time>2016-09-26T11:09:27Z</time>
      </trkpt>
      <trkpt lat="43.648411" lon="-8.083950">
        <ele>71.214</ele>
        <time>2016-09-26T11:09:28Z</time>
      </trkpt>
      <trkpt lat="43.648433" lon="-8.083938">
        <ele>71.408</ele>
        <time>2016-09-26T11:09:29Z</time>
      </trkpt>
      <trkpt lat="43.648455" lon="-8.083926">
        <ele>71.543</ele>
        <time>2016-09-26T11:09:30Z</time>
      </trkpt>
      <trkpt lat="43.648478" lon="-8.083917">
        <ele>71.788</ele>
        <time>2016-09-26T11:09:31Z</time>
      </trkpt>
      <trkpt lat="43.648505" lon="-8.083907">
        <ele>71.686</ele>
        <time>2016-09-26T11:09:32Z</time>
      </trkpt>
      <trkpt lat="43.648529" lon="-8.083899">
        <ele>71.822</ele>
        <time>2016-09-26T11:09:33Z</time>
      </trkpt>
      <trkpt lat="43.648559" lon="-8.083897">
        <ele>72.036</ele>
        <time>2016-09-26T11:09:34Z</time>
      </trkpt>
      <trkpt lat="43.648585" lon="-8.083891">
        <ele>72.088</ele>
        <time>2016-09-26T11:09:35Z</time>
      </trkpt>
      <trkpt lat="43.648609" lon="-8.083890">
        <ele>71.991</ele>
        <time>2016-09-26T11:09:36Z</time>
      </trkpt>
      <trkpt lat="43.648638" lon="-8.083888">
        <ele>72.059</ele>
        <time>2016-09-26T11:09:37Z</time>
      </trkpt>
      <trkpt lat="43.648674" lon="-8.083884">
        <ele>72.231</ele>
        <time>2016-09-26T11:09:38Z</time>
      </trkpt>
      <trkpt lat="43.648703" lon="-8.083876">
        <ele>72.361</ele>
        <time>2016-09-26T11:09:39Z</time>
      </trkpt>
      <trkpt lat="43.648733" lon="-8.083872">
        <ele>72.407</ele>
        <time>2016-09-26T11:09:40Z</time>
      </trkpt>
      <trkpt lat="43.648761" lon="-8.083868">
        <ele>72.508</ele>
        <time>2016-09-26T11:09:41Z</time>
      </trkpt>
      <trkpt lat="43.648777" lon="-8.083863">
        <ele>72.724</ele>
        <time>2016-09-26T11:09:42Z</time>
      </trkpt>
      <trkpt lat="43.648802" lon="-8.083855">
        <ele>72.939</ele>
        <time>2016-09-26T11:09:43Z</time>
      </trkpt>
      <trkpt lat="43.648827" lon="-8.083844">
        <ele>73.187</ele>
        <time>2016-09-26T11:09:44Z</time>
      </trkpt>
      <trkpt lat="43.648855" lon="-8.083837">
        <ele>73.133</ele>
        <time>2016-09-26T11:09:45Z</time>
      </trkpt>
      <trkpt lat="43.648883" lon="-8.083825">
        <ele>73.157</ele>
        <time>2016-09-26T11:09:46Z</time>
      </trkpt>
      <trkpt lat="43.648906" lon="-8.083821">
        <ele>73.449</ele>
        <time>2016-09-26T11:09:47Z</time>
      </trkpt>
      <trkpt lat="43.648929" lon="-8.083813">
        <ele>73.712</ele>
        <time>2016-09-26T11:09:48Z</time>
      </trkpt>
      <trkpt lat="43.648956" lon="-8.083812">
        <ele>73.760</ele>
        <time>2016-09-26T11:09:49Z</time>
      </trkpt>
      <trkpt lat="43.648975" lon="-8.083805">
        <ele>74.026</ele>
        <time>2016-09-26T11:09:50Z</time>
      </trkpt>
      <trkpt lat="43.648991" lon="-8.083801">
        <ele>74.147</ele>
        <time>2016-09-26T11:09:51Z</time>
      </trkpt>
      <trkpt lat="43.649012" lon="-8.083795">
        <ele>74.311</ele>
        <time>2016-09-26T11:09:52Z</time>
      </trkpt>
      <trkpt lat="43.649033" lon="-8.083788">
        <ele>74.408</ele>
        <time>2016-09-26T11:09:53Z</time>
      </trkpt>
      <trkpt lat="43.649050" lon="-8.083787">
        <ele>74.623</ele>
        <time>2016-09-26T11:09:54Z</time>
      </trkpt>
      <trkpt lat="43.649075" lon="-8.083777">
        <ele>74.968</ele>
        <time>2016-09-26T11:09:55Z</time>
      </trkpt>
      <trkpt lat="43.649093" lon="-8.083768">
        <ele>75.166</ele>
        <time>2016-09-26T11:09:56Z</time>
      </trkpt>
      <trkpt lat="43.649110" lon="-8.083760">
        <ele>75.352</ele>
        <time>2016-09-26T11:09:57Z</time>
      </trkpt>
      <trkpt lat="43.649131" lon="-8.083757">
        <ele>75.536</ele>
        <time>2016-09-26T11:09:58Z</time>
      </trkpt>
      <trkpt lat="43.649160" lon="-8.083753">
        <ele>75.858</ele>
        <time>2016-09-26T11:09:59Z</time>
      </trkpt>
      <trkpt lat="43.649187" lon="-8.083748">
        <ele>75.991</ele>
        <time>2016-09-26T11:10:00Z</time>
      </trkpt>
      <trkpt lat="43.649213" lon="-8.083744">
        <ele>76.189</ele>
        <time>2016-09-26T11:10:01Z</time>
      </trkpt>
      <trkpt lat="43.649236" lon="-8.083736">
        <ele>76.685</ele>
        <time>2016-09-26T11:10:02Z</time>
      </trkpt>
      <trkpt lat="43.649250" lon="-8.083727">
        <ele>77.089</ele>
        <time>2016-09-26T11:10:03Z</time>
      </trkpt>
      <trkpt lat="43.649263" lon="-8.083723">
        <ele>77.117</ele>
        <time>2016-09-26T11:10:04Z</time>
      </trkpt>
      <trkpt lat="43.649280" lon="-8.083722">
        <ele>77.408</ele>
        <time>2016-09-26T11:10:05Z</time>
      </trkpt>
      <trkpt lat="43.649294" lon="-8.083728">
        <ele>77.679</ele>
        <time>2016-09-26T11:10:06Z</time>
      </trkpt>
      <trkpt lat="43.649311" lon="-8.083727">
        <ele>77.944</ele>
        <time>2016-09-26T11:10:07Z</time>
      </trkpt>
      <trkpt lat="43.649328" lon="-8.083735">
        <ele>78.242</ele>
        <time>2016-09-26T11:10:08Z</time>
      </trkpt>
      <trkpt lat="43.649346" lon="-8.083736">
        <ele>78.328</ele>
        <time>2016-09-26T11:10:09Z</time>
      </trkpt>
      <trkpt lat="43.649371" lon="-8.083735">
        <ele>78.372</ele>
        <time>2016-09-26T11:10:10Z</time>
      </trkpt>
      <trkpt lat="43.649395" lon="-8.083729">
        <ele>78.434</ele>
        <time>2016-09-26T11:10:11Z</time>
      </trkpt>
      <trkpt lat="43.649420" lon="-8.083727">
        <ele>78.687</ele>
        <time>2016-09-26T11:10:12Z</time>
      </trkpt>
      <trkpt lat="43.649436" lon="-8.083726">
        <ele>78.865</ele>
        <time>2016-09-26T11:10:13Z</time>
      </trkpt>
      <trkpt lat="43.649464" lon="-8.083722">
        <ele>78.922</ele>
        <time>2016-09-26T11:10:14Z</time>
      </trkpt>
      <trkpt lat="43.649483" lon="-8.083717">
        <ele>79.162</ele>
        <time>2016-09-26T11:10:15Z</time>
      </trkpt>
      <trkpt lat="43.649507" lon="-8.083717">
        <ele>79.208</ele>
        <time>2016-09-26T11:10:16Z</time>
      </trkpt>
      <trkpt lat="43.649527" lon="-8.083714">
        <ele>79.308</ele>
        <time>2016-09-26T11:10:17Z</time>
      </trkpt>
      <trkpt lat="43.649552" lon="-8.083715">
        <ele>79.363</ele>
        <time>2016-09-26T11:10:18Z</time>
      </trkpt>
      <trkpt lat="43.649578" lon="-8.083714">
        <ele>79.578</ele>
        <time>2016-09-26T11:10:19Z</time>
      </trkpt>
      <trkpt lat="43.649608" lon="-8.083714">
        <ele>79.556</ele>
        <time>2016-09-26T11:10:20Z</time>
      </trkpt>
      <trkpt lat="43.649636" lon="-8.083715">
        <ele>79.672</ele>
        <time>2016-09-26T11:10:21Z</time>
      </trkpt>
      <trkpt lat="43.649670" lon="-8.083715">
        <ele>79.726</ele>
        <time>2016-09-26T11:10:22Z</time>
      </trkpt>
      <trkpt lat="43.649706" lon="-8.083711">
        <ele>79.758</ele>
        <time>2016-09-26T11:10:23Z</time>
      </trkpt>
      <trkpt lat="43.649742" lon="-8.083705">
        <ele>79.491</ele>
        <time>2016-09-26T11:10:24Z</time>
      </trkpt>
      <trkpt lat="43.649770" lon="-8.083702">
        <ele>79.329</ele>
        <time>2016-09-26T11:10:25Z</time>
      </trkpt>
      <trkpt lat="43.649794" lon="-8.083702">
        <ele>79.218</ele>
        <time>2016-09-26T11:10:26Z</time>
      </trkpt>
      <trkpt lat="43.649824" lon="-8.083712">
        <ele>79.398</ele>
        <time>2016-09-26T11:10:27Z</time>
      </trkpt>
      <trkpt lat="43.649862" lon="-8.083722">
        <ele>79.217</ele>
        <time>2016-09-26T11:10:28Z</time>
      </trkpt>
      <trkpt lat="43.649917" lon="-8.083731">
        <ele>79.208</ele>
        <time>2016-09-26T11:10:29Z</time>
      </trkpt>
      <trkpt lat="43.649966" lon="-8.083740">
        <ele>79.282</ele>
        <time>2016-09-26T11:10:30Z</time>
      </trkpt>
      <trkpt lat="43.650015" lon="-8.083758">
        <ele>79.127</ele>
        <time>2016-09-26T11:10:31Z</time>
      </trkpt>
      <trkpt lat="43.650072" lon="-8.083769">
        <ele>79.145</ele>
        <time>2016-09-26T11:10:32Z</time>
      </trkpt>
      <trkpt lat="43.650135" lon="-8.083783">
        <ele>79.061</ele>
        <time>2016-09-26T11:10:33Z</time>
      </trkpt>
      <trkpt lat="43.650208" lon="-8.083797">
        <ele>78.915</ele>
        <time>2016-09-26T11:10:34Z</time>
      </trkpt>
      <trkpt lat="43.650278" lon="-8.083800">
        <ele>78.947</ele>
        <time>2016-09-26T11:10:35Z</time>
      </trkpt>
      <trkpt lat="43.650350" lon="-8.083801">
        <ele>78.730</ele>
        <time>2016-09-26T11:10:36Z</time>
      </trkpt>
      <trkpt lat="43.650415" lon="-8.083811">
        <ele>78.598</ele>
        <time>2016-09-26T11:10:37Z</time>
      </trkpt>
      <trkpt lat="43.650477" lon="-8.083795">
        <ele>78.217</ele>
        <time>2016-09-26T11:10:38Z</time>
      </trkpt>
      <trkpt lat="43.650533" lon="-8.083789">
        <ele>78.187</ele>
        <time>2016-09-26T11:10:39Z</time>
      </trkpt>
      <trkpt lat="43.650583" lon="-8.083774">
        <ele>78.015</ele>
        <time>2016-09-26T11:10:40Z</time>
      </trkpt>
      <trkpt lat="43.650638" lon="-8.083771">
        <ele>77.808</ele>
        <time>2016-09-26T11:10:41Z</time>
      </trkpt>
      <trkpt lat="43.650688" lon="-8.083775">
        <ele>77.722</ele>
        <time>2016-09-26T11:10:42Z</time>
      </trkpt>
      <trkpt lat="43.650746" lon="-8.083785">
        <ele>77.647</ele>
        <time>2016-09-26T11:10:43Z</time>
      </trkpt>
      <trkpt lat="43.650807" lon="-8.083799">
        <ele>77.415</ele>
        <time>2016-09-26T11:10:44Z</time>
      </trkpt>
      <trkpt lat="43.650871" lon="-8.083821">
        <ele>77.341</ele>
        <time>2016-09-26T11:10:45Z</time>
      </trkpt>
      <trkpt lat="43.650933" lon="-8.083837">
        <ele>77.245</ele>
        <time>2016-09-26T11:10:46Z</time>
      </trkpt>
      <trkpt lat="43.650990" lon="-8.083853">
        <ele>77.267</ele>
        <time>2016-09-26T11:10:47Z</time>
      </trkpt>
      <trkpt lat="43.651044" lon="-8.083878">
        <ele>77.050</ele>
        <time>2016-09-26T11:10:48Z</time>
      </trkpt>
      <trkpt lat="43.651102" lon="-8.083894">
        <ele>76.968</ele>
        <time>2016-09-26T11:10:49Z</time>
      </trkpt>
      <trkpt lat="43.651167" lon="-8.083910">
        <ele>76.742</ele>
        <time>2016-09-26T11:10:50Z</time>
      </trkpt>
      <trkpt lat="43.651224" lon="-8.083919">
        <ele>76.722</ele>
        <time>2016-09-26T11:10:51Z</time>
      </trkpt>
      <trkpt lat="43.651281" lon="-8.083926">
        <ele>76.614</ele>
        <time>2016-09-26T11:10:52Z</time>
      </trkpt>
      <trkpt lat="43.651328" lon="-8.083929">
        <ele>76.508</ele>
        <time>2016-09-26T11:10:53Z</time>
      </trkpt>
      <trkpt lat="43.651397" lon="-8.083948">
        <ele>76.635</ele>
        <time>2016-09-26T11:10:54Z</time>
      </trkpt>
      <trkpt lat="43.651467" lon="-8.083978">
        <ele>76.650</ele>
        <time>2016-09-26T11:10:55Z</time>
      </trkpt>
      <trkpt lat="43.651537" lon="-8.084014">
        <ele>76.748</ele>
        <time>2016-09-26T11:10:56Z</time>
      </trkpt>
      <trkpt lat="43.651605" lon="-8.084056">
        <ele>76.724</ele>
        <time>2016-09-26T11:10:57Z</time>
      </trkpt>
      <trkpt lat="43.651675" lon="-8.084110">
        <ele>76.648</ele>
        <time>2016-09-26T11:10:58Z</time>
      </trkpt>
      <trkpt lat="43.651739" lon="-8.084161">
        <ele>76.570</ele>
        <time>2016-09-26T11:10:59Z</time>
      </trkpt>
      <trkpt lat="43.651799" lon="-8.084204">
        <ele>76.713</ele>
        <time>2016-09-26T11:11:00Z</time>
      </trkpt>
      <trkpt lat="43.651857" lon="-8.084248">
        <ele>76.761</ele>
        <time>2016-09-26T11:11:01Z</time>
      </trkpt>
      <trkpt lat="43.651895" lon="-8.084277">
        <ele>77.074</ele>
        <time>2016-09-26T11:11:02Z</time>
      </trkpt>
      <trkpt lat="43.651930" lon="-8.084299">
        <ele>77.156</ele>
        <time>2016-09-26T11:11:03Z</time>
      </trkpt>
      <trkpt lat="43.651971" lon="-8.084321">
        <ele>77.321</ele>
        <time>2016-09-26T11:11:04Z</time>
      </trkpt>
      <trkpt lat="43.652021" lon="-8.084342">
        <ele>77.608</ele>
        <time>2016-09-26T11:11:05Z</time>
      </trkpt>
      <trkpt lat="43.652065" lon="-8.084355">
        <ele>77.958</ele>
        <time>2016-09-26T11:11:06Z</time>
      </trkpt>
      <trkpt lat="43.652097" lon="-8.084368">
        <ele>78.343</ele>
        <time>2016-09-26T11:11:07Z</time>
      </trkpt>
      <trkpt lat="43.652124" lon="-8.084377">
        <ele>78.521</ele>
        <time>2016-09-26T11:11:08Z</time>
      </trkpt>
      <trkpt lat="43.652152" lon="-8.084393">
        <ele>78.847</ele>
        <time>2016-09-26T11:11:09Z</time>
      </trkpt>
      <trkpt lat="43.652182" lon="-8.084415">
        <ele>79.121</ele>
        <time>2016-09-26T11:11:10Z</time>
      </trkpt>
      <trkpt lat="43.652207" lon="-8.084436">
        <ele>79.573</ele>
        <time>2016-09-26T11:11:11Z</time>
      </trkpt>
      <trkpt lat="43.652231" lon="-8.084462">
        <ele>79.536</ele>
        <time>2016-09-26T11:11:12Z</time>
      </trkpt>
      <trkpt lat="43.652258" lon="-8.084489">
        <ele>79.644</ele>
        <time>2016-09-26T11:11:13Z</time>
      </trkpt>
      <trkpt lat="43.652284" lon="-8.084521">
        <ele>79.812</ele>
        <time>2016-09-26T11:11:14Z</time>
      </trkpt>
      <trkpt lat="43.652309" lon="-8.084554">
        <ele>79.932</ele>
        <time>2016-09-26T11:11:15Z</time>
      </trkpt>
      <trkpt lat="43.652344" lon="-8.084590">
        <ele>79.905</ele>
        <time>2016-09-26T11:11:16Z</time>
      </trkpt>
      <trkpt lat="43.652365" lon="-8.084629">
        <ele>80.208</ele>
        <time>2016-09-26T11:11:17Z</time>
      </trkpt>
      <trkpt lat="43.652382" lon="-8.084667">
        <ele>80.262</ele>
        <time>2016-09-26T11:11:18Z</time>
      </trkpt>
      <trkpt lat="43.652400" lon="-8.084705">
        <ele>80.427</ele>
        <time>2016-09-26T11:11:19Z</time>
      </trkpt>
      <trkpt lat="43.652417" lon="-8.084743">
        <ele>80.475</ele>
        <time>2016-09-26T11:11:20Z</time>
      </trkpt>
      <trkpt lat="43.652436" lon="-8.084781">
        <ele>80.761</ele>
        <time>2016-09-26T11:11:21Z</time>
      </trkpt>
      <trkpt lat="43.652457" lon="-8.084819">
        <ele>80.795</ele>
        <time>2016-09-26T11:11:22Z</time>
      </trkpt>
      <trkpt lat="43.652475" lon="-8.084855">
        <ele>80.967</ele>
        <time>2016-09-26T11:11:23Z</time>
      </trkpt>
      <trkpt lat="43.652498" lon="-8.084887">
        <ele>81.270</ele>
        <time>2016-09-26T11:11:24Z</time>
      </trkpt>
      <trkpt lat="43.652512" lon="-8.084921">
        <ele>81.448</ele>
        <time>2016-09-26T11:11:25Z</time>
      </trkpt>
      <trkpt lat="43.652532" lon="-8.084960">
        <ele>81.514</ele>
        <time>2016-09-26T11:11:26Z</time>
      </trkpt>
      <trkpt lat="43.652549" lon="-8.084995">
        <ele>81.654</ele>
        <time>2016-09-26T11:11:27Z</time>
      </trkpt>
      <trkpt lat="43.652572" lon="-8.085026">
        <ele>82.009</ele>
        <time>2016-09-26T11:11:28Z</time>
      </trkpt>
      <trkpt lat="43.652590" lon="-8.085052">
        <ele>82.108</ele>
        <time>2016-09-26T11:11:29Z</time>
      </trkpt>
      <trkpt lat="43.652606" lon="-8.085076">
        <ele>82.282</ele>
        <time>2016-09-26T11:11:30Z</time>
      </trkpt>
      <trkpt lat="43.652615" lon="-8.085099">
        <ele>82.347</ele>
        <time>2016-09-26T11:11:31Z</time>
      </trkpt>
      <trkpt lat="43.652634" lon="-8.085122">
        <ele>82.485</ele>
        <time>2016-09-26T11:11:32Z</time>
      </trkpt>
      <trkpt lat="43.652654" lon="-8.085150">
        <ele>82.411</ele>
        <time>2016-09-26T11:11:33Z</time>
      </trkpt>
      <trkpt lat="43.652674" lon="-8.085182">
        <ele>82.685</ele>
        <time>2016-09-26T11:11:34Z</time>
      </trkpt>
      <trkpt lat="43.652689" lon="-8.085216">
        <ele>82.767</ele>
        <time>2016-09-26T11:11:35Z</time>
      </trkpt>
      <trkpt lat="43.652708" lon="-8.085253">
        <ele>82.940</ele>
        <time>2016-09-26T11:11:36Z</time>
      </trkpt>
      <trkpt lat="43.652719" lon="-8.085286">
        <ele>82.898</ele>
        <time>2016-09-26T11:11:37Z</time>
      </trkpt>
      <trkpt lat="43.652736" lon="-8.085316">
        <ele>82.934</ele>
        <time>2016-09-26T11:11:38Z</time>
      </trkpt>
      <trkpt lat="43.652748" lon="-8.085347">
        <ele>83.055</ele>
        <time>2016-09-26T11:11:39Z</time>
      </trkpt>
      <trkpt lat="43.652765" lon="-8.085380">
        <ele>83.110</ele>
        <time>2016-09-26T11:11:40Z</time>
      </trkpt>
      <trkpt lat="43.652781" lon="-8.085416">
        <ele>83.208</ele>
        <time>2016-09-26T11:11:41Z</time>
      </trkpt>
      <trkpt lat="43.652792" lon="-8.085448">
        <ele>83.474</ele>
        <time>2016-09-26T11:11:42Z</time>
      </trkpt>
      <trkpt lat="43.652807" lon="-8.085483">
        <ele>83.519</ele>
        <time>2016-09-26T11:11:43Z</time>
      </trkpt>
      <trkpt lat="43.652814" lon="-8.085515">
        <ele>83.647</ele>
        <time>2016-09-26T11:11:44Z</time>
      </trkpt>
      <trkpt lat="43.652819" lon="-8.085548">
        <ele>83.813</ele>
        <time>2016-09-26T11:11:45Z</time>
      </trkpt>
      <trkpt lat="43.652823" lon="-8.085582">
        <ele>83.987</ele>
        <time>2016-09-26T11:11:46Z</time>
      </trkpt>
      <trkpt lat="43.652831" lon="-8.085613">
        <ele>84.029</ele>
        <time>2016-09-26T11:11:47Z</time>
      </trkpt>
      <trkpt lat="43.652845" lon="-8.085644">
        <ele>84.352</ele>
        <time>2016-09-26T11:11:48Z</time>
      </trkpt>
      <trkpt lat="43.652853" lon="-8.085672">
        <ele>84.690</ele>
        <time>2016-09-26T11:11:49Z</time>
      </trkpt>
      <trkpt lat="43.652862" lon="-8.085702">
        <ele>84.747</ele>
        <time>2016-09-26T11:11:50Z</time>
      </trkpt>
      <trkpt lat="43.652870" lon="-8.085730">
        <ele>85.029</ele>
        <time>2016-09-26T11:11:51Z</time>
      </trkpt>
      <trkpt lat="43.652882" lon="-8.085761">
        <ele>85.121</ele>
        <time>2016-09-26T11:11:52Z</time>
      </trkpt>
      <trkpt lat="43.652890" lon="-8.085793">
        <ele>85.408</ele>
        <time>2016-09-26T11:11:53Z</time>
      </trkpt>
      <trkpt lat="43.652896" lon="-8.085819">
        <ele>85.595</ele>
        <time>2016-09-26T11:11:54Z</time>
      </trkpt>
      <trkpt lat="43.652895" lon="-8.085842">
        <ele>85.880</ele>
        <time>2016-09-26T11:11:55Z</time>
      </trkpt>
      <trkpt lat="43.652900" lon="-8.085867">
        <ele>86.138</ele>
        <time>2016-09-26T11:11:56Z</time>
      </trkpt>
      <trkpt lat="43.652902" lon="-8.085897">
        <ele>86.374</ele>
        <time>2016-09-26T11:11:57Z</time>
      </trkpt>
      <trkpt lat="43.652906" lon="-8.085923">
        <ele>86.798</ele>
        <time>2016-09-26T11:11:58Z</time>
      </trkpt>
      <trkpt lat="43.652909" lon="-8.085950">
        <ele>86.950</ele>
        <time>2016-09-26T11:11:59Z</time>
      </trkpt>
      <trkpt lat="43.652916" lon="-8.085979">
        <ele>87.053</ele>
        <time>2016-09-26T11:12:00Z</time>
      </trkpt>
      <trkpt lat="43.652920" lon="-8.086003">
        <ele>87.461</ele>
        <time>2016-09-26T11:12:01Z</time>
      </trkpt>
      <trkpt lat="43.652919" lon="-8.086023">
        <ele>87.768</ele>
        <time>2016-09-26T11:12:02Z</time>
      </trkpt>
      <trkpt lat="43.652922" lon="-8.086045">
        <ele>88.042</ele>
        <time>2016-09-26T11:12:03Z</time>
      </trkpt>
      <trkpt lat="43.652930" lon="-8.086066">
        <ele>88.226</ele>
        <time>2016-09-26T11:12:04Z</time>
      </trkpt>
      <trkpt lat="43.652931" lon="-8.086086">
        <ele>88.408</ele>
        <time>2016-09-26T11:12:05Z</time>
      </trkpt>
      <trkpt lat="43.652931" lon="-8.086113">
        <ele>88.447</ele>
        <time>2016-09-26T11:12:06Z</time>
      </trkpt>
      <trkpt lat="43.652935" lon="-8.086140">
        <ele>88.752</ele>
        <time>2016-09-26T11:12:07Z</time>
      </trkpt>
      <trkpt lat="43.652939" lon="-8.086167">
        <ele>89.190</ele>
        <time>2016-09-26T11:12:08Z</time>
      </trkpt>
      <trkpt lat="43.652935" lon="-8.086191">
        <ele>89.336</ele>
        <time>2016-09-26T11:12:09Z</time>
      </trkpt>
      <trkpt lat="43.652931" lon="-8.086216">
        <ele>89.580</ele>
        <time>2016-09-26T11:12:10Z</time>
      </trkpt>
      <trkpt lat="43.652922" lon="-8.086234">
        <ele>89.832</ele>
        <time>2016-09-26T11:12:11Z</time>
      </trkpt>
      <trkpt lat="43.652923" lon="-8.086253">
        <ele>90.175</ele>
        <time>2016-09-26T11:12:12Z</time>
      </trkpt>
      <trkpt lat="43.652915" lon="-8.086275">
        <ele>90.323</ele>
        <time>2016-09-26T11:12:13Z</time>
      </trkpt>
      <trkpt lat="43.652918" lon="-8.086303">
        <ele>90.669</ele>
        <time>2016-09-26T11:12:14Z</time>
      </trkpt>
      <trkpt lat="43.652914" lon="-8.086326">
        <ele>90.904</ele>
        <time>2016-09-26T11:12:15Z</time>
      </trkpt>
      <trkpt lat="43.652915" lon="-8.086353">
        <ele>91.024</ele>
        <time>2016-09-26T11:12:16Z</time>
      </trkpt>
      <trkpt lat="43.652925" lon="-8.086382">
        <ele>91.108</ele>
        <time>2016-09-26T11:12:17Z</time>
      </trkpt>
      <trkpt lat="43.652929" lon="-8.086415">
        <ele>91.397</ele>
        <time>2016-09-26T11:12:18Z</time>
      </trkpt>
      <trkpt lat="43.652936" lon="-8.086444">
        <ele>91.682</ele>
        <time>2016-09-26T11:12:19Z</time>
      </trkpt>
      <trkpt lat="43.652944" lon="-8.086474">
        <ele>91.710</ele>
        <time>2016-09-26T11:12:20Z</time>
      </trkpt>
      <trkpt lat="43.652957" lon="-8.086500">
        <ele>92.026</ele>
        <time>2016-09-26T11:12:21Z</time>
      </trkpt>
      <trkpt lat="43.652961" lon="-8.086532">
        <ele>92.590</ele>
        <time>2016-09-26T11:12:22Z</time>
      </trkpt>
      <trkpt lat="43.652958" lon="-8.086562">
        <ele>92.842</ele>
        <time>2016-09-26T11:12:23Z</time>
      </trkpt>
      <trkpt lat="43.652955" lon="-8.086592">
        <ele>93.035</ele>
        <time>2016-09-26T11:12:24Z</time>
      </trkpt>
      <trkpt lat="43.652960" lon="-8.086620">
        <ele>93.183</ele>
        <time>2016-09-26T11:12:25Z</time>
      </trkpt>
      <trkpt lat="43.652963" lon="-8.086640">
        <ele>93.578</ele>
        <time>2016-09-26T11:12:26Z</time>
      </trkpt>
      <trkpt lat="43.652961" lon="-8.086661">
        <ele>93.633</ele>
        <time>2016-09-26T11:12:27Z</time>
      </trkpt>
      <trkpt lat="43.652959" lon="-8.086684">
        <ele>93.926</ele>
        <time>2016-09-26T11:12:28Z</time>
      </trkpt>
      <trkpt lat="43.652956" lon="-8.086706">
        <ele>94.008</ele>
        <time>2016-09-26T11:12:29Z</time>
      </trkpt>
      <trkpt lat="43.652951" lon="-8.086728">
        <ele>94.168</ele>
        <time>2016-09-26T11:12:30Z</time>
      </trkpt>
      <trkpt lat="43.652960" lon="-8.086750">
        <ele>94.363</ele>
        <time>2016-09-26T11:12:31Z</time>
      </trkpt>
      <trkpt lat="43.652962" lon="-8.086774">
        <ele>94.671</ele>
        <time>2016-09-26T11:12:32Z</time>
      </trkpt>
      <trkpt lat="43.652966" lon="-8.086800">
        <ele>94.737</ele>
        <time>2016-09-26T11:12:33Z</time>
      </trkpt>
      <trkpt lat="43.652967" lon="-8.086822">
        <ele>95.011</ele>
        <time>2016-09-26T11:12:34Z</time>
      </trkpt>
      <trkpt lat="43.652969" lon="-8.086845">
        <ele>95.153</ele>
        <time>2016-09-26T11:12:35Z</time>
      </trkpt>
      <trkpt lat="43.652972" lon="-8.086867">
        <ele>95.266</ele>
        <time>2016-09-26T11:12:36Z</time>
      </trkpt>
      <trkpt lat="43.652971" lon="-8.086891">
        <ele>95.414</ele>
        <time>2016-09-26T11:12:37Z</time>
      </trkpt>
      <trkpt lat="43.652975" lon="-8.086914">
        <ele>95.562</ele>
        <time>2016-09-26T11:12:38Z</time>
      </trkpt>
      <trkpt lat="43.652979" lon="-8.086936">
        <ele>95.483</ele>
        <time>2016-09-26T11:12:39Z</time>
      </trkpt>
      <trkpt lat="43.652984" lon="-8.086963">
        <ele>95.711</ele>
        <time>2016-09-26T11:12:40Z</time>
      </trkpt>
      <trkpt lat="43.652976" lon="-8.086987">
        <ele>95.708</ele>
        <time>2016-09-26T11:12:41Z</time>
      </trkpt>
      <trkpt lat="43.652973" lon="-8.087011">
        <ele>95.827</ele>
        <time>2016-09-26T11:12:42Z</time>
      </trkpt>
      <trkpt lat="43.652974" lon="-8.087036">
        <ele>95.942</ele>
        <time>2016-09-26T11:12:43Z</time>
      </trkpt>
      <trkpt lat="43.652973" lon="-8.087061">
        <ele>96.130</ele>
        <time>2016-09-26T11:12:44Z</time>
      </trkpt>
      <trkpt lat="43.652968" lon="-8.087089">
        <ele>96.056</ele>
        <time>2016-09-26T11:12:45Z</time>
      </trkpt>
      <trkpt lat="43.652965" lon="-8.087114">
        <ele>96.060</ele>
        <time>2016-09-26T11:12:46Z</time>
      </trkpt>
      <trkpt lat="43.652963" lon="-8.087139">
        <ele>96.282</ele>
        <time>2016-09-26T11:12:47Z</time>
      </trkpt>
      <trkpt lat="43.652962" lon="-8.087173">
        <ele>96.215</ele>
        <time>2016-09-26T11:12:48Z</time>
      </trkpt>
      <trkpt lat="43.652955" lon="-8.087209">
        <ele>96.163</ele>
        <time>2016-09-26T11:12:49Z</time>
      </trkpt>
      <trkpt lat="43.652960" lon="-8.087249">
        <ele>96.224</ele>
        <time>2016-09-26T11:12:50Z</time>
      </trkpt>
      <trkpt lat="43.652961" lon="-8.087285">
        <ele>96.104</ele>
        <time>2016-09-26T11:12:51Z</time>
      </trkpt>
      <trkpt lat="43.652960" lon="-8.087319">
        <ele>96.114</ele>
        <time>2016-09-26T11:12:52Z</time>
      </trkpt>
      <trkpt lat="43.652960" lon="-8.087363">
        <ele>96.108</ele>
        <time>2016-09-26T11:12:53Z</time>
      </trkpt>
      <trkpt lat="43.652963" lon="-8.087399">
        <ele>96.243</ele>
        <time>2016-09-26T11:12:54Z</time>
      </trkpt>
      <trkpt lat="43.652967" lon="-8.087430">
        <ele>96.468</ele>
        <time>2016-09-26T11:12:55Z</time>
      </trkpt>
      <trkpt lat="43.652968" lon="-8.087461">
        <ele>96.786</ele>
        <time>2016-09-26T11:12:56Z</time>
      </trkpt>
      <trkpt lat="43.652973" lon="-8.087492">
        <ele>96.762</ele>
        <time>2016-09-26T11:12:57Z</time>
      </trkpt>
      <trkpt lat="43.652972" lon="-8.087531">
        <ele>96.816</ele>
        <time>2016-09-26T11:12:58Z</time>
      </trkpt>
      <trkpt lat="43.652980" lon="-8.087566">
        <ele>96.918</ele>
        <time>2016-09-26T11:12:59Z</time>
      </trkpt>
      <trkpt lat="43.652983" lon="-8.087601">
        <ele>96.931</ele>
        <time>2016-09-26T11:13:00Z</time>
      </trkpt>
      <trkpt lat="43.652992" lon="-8.087637">
        <ele>97.099</ele>
        <time>2016-09-26T11:13:01Z</time>
      </trkpt>
      <trkpt lat="43.652993" lon="-8.087671">
        <ele>97.116</ele>
        <time>2016-09-26T11:13:02Z</time>
      </trkpt>
      <trkpt lat="43.652993" lon="-8.087700">
        <ele>97.376</ele>
        <time>2016-09-26T11:13:03Z</time>
      </trkpt>
      <trkpt lat="43.652990" lon="-8.087732">
        <ele>97.413</ele>
        <time>2016-09-26T11:13:04Z</time>
      </trkpt>
      <trkpt lat="43.652991" lon="-8.087760">
        <ele>97.408</ele>
        <time>2016-09-26T11:13:05Z</time>
      </trkpt>
      <trkpt lat="43.652992" lon="-8.087791">
        <ele>97.552</ele>
        <time>2016-09-26T11:13:06Z</time>
      </trkpt>
      <trkpt lat="43.652991" lon="-8.087822">
        <ele>97.757</ele>
        <time>2016-09-26T11:13:07Z</time>
      </trkpt>
      <trkpt lat="43.652995" lon="-8.087851">
        <ele>97.845</ele>
        <time>2016-09-26T11:13:08Z</time>
      </trkpt>
      <trkpt lat="43.653012" lon="-8.087883">
        <ele>98.181</ele>
        <time>2016-09-26T11:13:09Z</time>
      </trkpt>
      <trkpt lat="43.653019" lon="-8.087917">
        <ele>98.345</ele>
        <time>2016-09-26T11:13:10Z</time>
      </trkpt>
      <trkpt lat="43.653027" lon="-8.087949">
        <ele>98.667</ele>
        <time>2016-09-26T11:13:11Z</time>
      </trkpt>
      <trkpt lat="43.653043" lon="-8.087984">
        <ele>98.830</ele>
        <time>2016-09-26T11:13:12Z</time>
      </trkpt>
      <trkpt lat="43.653052" lon="-8.088015">
        <ele>98.978</ele>
        <time>2016-09-26T11:13:13Z</time>
      </trkpt>
      <trkpt lat="43.653059" lon="-8.088048">
        <ele>99.112</ele>
        <time>2016-09-26T11:13:14Z</time>
      </trkpt>
      <trkpt lat="43.653065" lon="-8.088073">
        <ele>99.132</ele>
        <time>2016-09-26T11:13:15Z</time>
      </trkpt>
      <trkpt lat="43.653071" lon="-8.088110">
        <ele>99.405</ele>
        <time>2016-09-26T11:13:16Z</time>
      </trkpt>
      <trkpt lat="43.653077" lon="-8.088144">
        <ele>99.608</ele>
        <time>2016-09-26T11:13:17Z</time>
      </trkpt>
      <trkpt lat="43.653082" lon="-8.088176">
        <ele>99.762</ele>
        <time>2016-09-26T11:13:18Z</time>
      </trkpt>
      <trkpt lat="43.653082" lon="-8.088203">
        <ele>99.837</ele>
        <time>2016-09-26T11:13:19Z</time>
      </trkpt>
      <trkpt lat="43.653079" lon="-8.088225">
        <ele>100.215</ele>
        <time>2016-09-26T11:13:20Z</time>
      </trkpt>
      <trkpt lat="43.653079" lon="-8.088246">
        <ele>100.451</ele>
        <time>2016-09-26T11:13:21Z</time>
      </trkpt>
      <trkpt lat="43.653079" lon="-8.088270">
        <ele>100.535</ele>
        <time>2016-09-26T11:13:22Z</time>
      </trkpt>
      <trkpt lat="43.653073" lon="-8.088286">
        <ele>100.817</ele>
        <time>2016-09-26T11:13:23Z</time>
      </trkpt>
      <trkpt lat="43.653071" lon="-8.088304">
        <ele>100.950</ele>
        <time>2016-09-26T11:13:24Z</time>
      </trkpt>
      <trkpt lat="43.653072" lon="-8.088323">
        <ele>101.138</ele>
        <time>2016-09-26T11:13:25Z</time>
      </trkpt>
      <trkpt lat="43.653069" lon="-8.088345">
        <ele>101.444</ele>
        <time>2016-09-26T11:13:26Z</time>
      </trkpt>
      <trkpt lat="43.653065" lon="-8.088361">
        <ele>101.605</ele>
        <time>2016-09-26T11:13:27Z</time>
      </trkpt>
      <trkpt lat="43.653067" lon="-8.088381">
        <ele>101.815</ele>
        <time>2016-09-26T11:13:28Z</time>
      </trkpt>
      <trkpt lat="43.653071" lon="-8.088400">
        <ele>101.908</ele>
        <time>2016-09-26T11:13:29Z</time>
      </trkpt>
      <trkpt lat="43.653074" lon="-8.088427">
        <ele>102.415</ele>
        <time>2016-09-26T11:13:30Z</time>
      </trkpt>
      <trkpt lat="43.653080" lon="-8.088448">
        <ele>102.620</ele>
        <time>2016-09-26T11:13:31Z</time>
      </trkpt>
      <trkpt lat="43.653080" lon="-8.088470">
        <ele>102.818</ele>
        <time>2016-09-26T11:13:32Z</time>
      </trkpt>
      <trkpt lat="43.653077" lon="-8.088499">
        <ele>103.014</ele>
        <time>2016-09-26T11:13:33Z</time>
      </trkpt>
      <trkpt lat="43.653084" lon="-8.088530">
        <ele>103.328</ele>
        <time>2016-09-26T11:13:34Z</time>
      </trkpt>
      <trkpt lat="43.653088" lon="-8.088561">
        <ele>103.540</ele>
        <time>2016-09-26T11:13:35Z</time>
      </trkpt>
      <trkpt lat="43.653087" lon="-8.088595">
        <ele>103.723</ele>
        <time>2016-09-26T11:13:36Z</time>
      </trkpt>
      <trkpt lat="43.653089" lon="-8.088629">
        <ele>104.011</ele>
        <time>2016-09-26T11:13:37Z</time>
      </trkpt>
      <trkpt lat="43.653090" lon="-8.088661">
        <ele>104.261</ele>
        <time>2016-09-26T11:13:38Z</time>
      </trkpt>
      <trkpt lat="43.653091" lon="-8.088690">
        <ele>104.421</ele>
        <time>2016-09-26T11:13:39Z</time>
      </trkpt>
      <trkpt lat="43.653091" lon="-8.088719">
        <ele>104.713</ele>
        <time>2016-09-26T11:13:40Z</time>
      </trkpt>
      <trkpt lat="43.653090" lon="-8.088746">
        <ele>105.008</ele>
        <time>2016-09-26T11:13:41Z</time>
      </trkpt>
      <trkpt lat="43.653090" lon="-8.088775">
        <ele>105.327</ele>
        <time>2016-09-26T11:13:42Z</time>
      </trkpt>
      <trkpt lat="43.653088" lon="-8.088799">
        <ele>105.442</ele>
        <time>2016-09-26T11:13:43Z</time>
      </trkpt>
      <trkpt lat="43.653088" lon="-8.088825">
        <ele>105.520</ele>
        <time>2016-09-26T11:13:44Z</time>
      </trkpt>
      <trkpt lat="43.653087" lon="-8.088844">
        <ele>105.726</ele>
        <time>2016-09-26T11:13:45Z</time>
      </trkpt>
      <trkpt lat="43.653091" lon="-8.088858">
        <ele>106.090</ele>
        <time>2016-09-26T11:13:46Z</time>
      </trkpt>
      <trkpt lat="43.653100" lon="-8.088874">
        <ele>106.192</ele>
        <time>2016-09-26T11:13:47Z</time>
      </trkpt>
      <trkpt lat="43.653104" lon="-8.088891">
        <ele>106.175</ele>
        <time>2016-09-26T11:13:48Z</time>
      </trkpt>
      <trkpt lat="43.653109" lon="-8.088910">
        <ele>106.253</ele>
        <time>2016-09-26T11:13:49Z</time>
      </trkpt>
      <trkpt lat="43.653104" lon="-8.088936">
        <ele>106.375</ele>
        <time>2016-09-26T11:13:50Z</time>
      </trkpt>
      <trkpt lat="43.653098" lon="-8.088951">
        <ele>106.428</ele>
        <time>2016-09-26T11:13:51Z</time>
      </trkpt>
      <trkpt lat="43.653094" lon="-8.088976">
        <ele>106.720</ele>
        <time>2016-09-26T11:13:52Z</time>
      </trkpt>
      <trkpt lat="43.653091" lon="-8.088998">
        <ele>106.908</ele>
        <time>2016-09-26T11:13:53Z</time>
      </trkpt>
      <trkpt lat="43.653095" lon="-8.089026">
        <ele>107.178</ele>
        <time>2016-09-26T11:13:54Z</time>
      </trkpt>
      <trkpt lat="43.653093" lon="-8.089049">
        <ele>107.273</ele>
        <time>2016-09-26T11:13:55Z</time>
      </trkpt>
      <trkpt lat="43.653099" lon="-8.089074">
        <ele>107.351</ele>
        <time>2016-09-26T11:13:56Z</time>
      </trkpt>
      <trkpt lat="43.653102" lon="-8.089096">
        <ele>107.567</ele>
        <time>2016-09-26T11:13:57Z</time>
      </trkpt>
      <trkpt lat="43.653107" lon="-8.089112">
        <ele>107.531</ele>
        <time>2016-09-26T11:13:58Z</time>
      </trkpt>
      <trkpt lat="43.653112" lon="-8.089128">
        <ele>107.813</ele>
        <time>2016-09-26T11:13:59Z</time>
      </trkpt>
      <trkpt lat="43.653114" lon="-8.089152">
        <ele>107.816</ele>
        <time>2016-09-26T11:14:00Z</time>
      </trkpt>
      <trkpt lat="43.653119" lon="-8.089180">
        <ele>108.064</ele>
        <time>2016-09-26T11:14:01Z</time>
      </trkpt>
      <trkpt lat="43.653121" lon="-8.089206">
        <ele>108.186</ele>
        <time>2016-09-26T11:14:02Z</time>
      </trkpt>
      <trkpt lat="43.653119" lon="-8.089232">
        <ele>108.260</ele>
        <time>2016-09-26T11:14:03Z</time>
      </trkpt>
      <trkpt lat="43.653117" lon="-8.089259">
        <ele>108.326</ele>
        <time>2016-09-26T11:14:04Z</time>
      </trkpt>
      <trkpt lat="43.653117" lon="-8.089282">
        <ele>108.408</ele>
        <time>2016-09-26T11:14:05Z</time>
      </trkpt>
      <trkpt lat="43.653113" lon="-8.089307">
        <ele>108.679</ele>
        <time>2016-09-26T11:14:06Z</time>
      </trkpt>
      <trkpt lat="43.653109" lon="-8.089331">
        <ele>109.134</ele>
        <time>2016-09-26T11:14:07Z</time>
      </trkpt>
      <trkpt lat="43.653110" lon="-8.089358">
        <ele>109.322</ele>
        <time>2016-09-26T11:14:08Z</time>
      </trkpt>
      <trkpt lat="43.653108" lon="-8.089383">
        <ele>109.548</ele>
        <time>2016-09-26T11:14:09Z</time>
      </trkpt>
      <trkpt lat="43.653104" lon="-8.089409">
        <ele>109.732</ele>
        <time>2016-09-26T11:14:10Z</time>
      </trkpt>
      <trkpt lat="43.653106" lon="-8.089437">
        <ele>110.054</ele>
        <time>2016-09-26T11:14:11Z</time>
      </trkpt>
      <trkpt lat="43.653116" lon="-8.089467">
        <ele>110.237</ele>
        <time>2016-09-26T11:14:12Z</time>
      </trkpt>
      <trkpt lat="43.653119" lon="-8.089491">
        <ele>110.455</ele>
        <time>2016-09-26T11:14:13Z</time>
      </trkpt>
      <trkpt lat="43.653124" lon="-8.089515">
        <ele>110.535</ele>
        <time>2016-09-26T11:14:14Z</time>
      </trkpt>
      <trkpt lat="43.653121" lon="-8.089539">
        <ele>110.786</ele>
        <time>2016-09-26T11:14:15Z</time>
      </trkpt>
      <trkpt lat="43.653120" lon="-8.089559">
        <ele>111.114</ele>
        <time>2016-09-26T11:14:16Z</time>
      </trkpt>
      <trkpt lat="43.653118" lon="-8.089581">
        <ele>111.408</ele>
        <time>2016-09-26T11:14:17Z</time>
      </trkpt>
      <trkpt lat="43.653116" lon="-8.089604">
        <ele>111.654</ele>
        <time>2016-09-26T11:14:18Z</time>
      </trkpt>
      <trkpt lat="43.653109" lon="-8.089624">
        <ele>111.859</ele>
        <time>2016-09-26T11:14:19Z</time>
      </trkpt>
      <trkpt lat="43.653104" lon="-8.089644">
        <ele>111.977</ele>
        <time>2016-09-26T11:14:20Z</time>
      </trkpt>
      <trkpt lat="43.653098" lon="-8.089663">
        <ele>112.063</ele>
        <time>2016-09-26T11:14:21Z</time>
      </trkpt>
      <trkpt lat="43.653095" lon="-8.089686">
        <ele>112.157</ele>
        <time>2016-09-26T11:14:22Z</time>
      </trkpt>
      <trkpt lat="43.653090" lon="-8.089709">
        <ele>112.289</ele>
        <time>2016-09-26T11:14:23Z</time>
      </trkpt>
      <trkpt lat="43.653084" lon="-8.089732">
        <ele>112.482</ele>
        <time>2016-09-26T11:14:24Z</time>
      </trkpt>
      <trkpt lat="43.653076" lon="-8.089753">
        <ele>112.560</ele>
        <time>2016-09-26T11:14:25Z</time>
      </trkpt>
      <trkpt lat="43.653076" lon="-8.089776">
        <ele>112.769</ele>
        <time>2016-09-26T11:14:26Z</time>
      </trkpt>
      <trkpt lat="43.653077" lon="-8.089799">
        <ele>112.804</ele>
        <time>2016-09-26T11:14:27Z</time>
      </trkpt>
      <trkpt lat="43.653078" lon="-8.089824">
        <ele>113.124</ele>
        <time>2016-09-26T11:14:28Z</time>
      </trkpt>
      <trkpt lat="43.653077" lon="-8.089847">
        <ele>113.308</ele>
        <time>2016-09-26T11:14:29Z</time>
      </trkpt>
      <trkpt lat="43.653077" lon="-8.089870">
        <ele>113.317</ele>
        <time>2016-09-26T11:14:30Z</time>
      </trkpt>
      <trkpt lat="43.653074" lon="-8.089896">
        <ele>113.482</ele>
        <time>2016-09-26T11:14:31Z</time>
      </trkpt>
      <trkpt lat="43.653067" lon="-8.089922">
        <ele>113.480</ele>
        <time>2016-09-26T11:14:32Z</time>
      </trkpt>
      <trkpt lat="43.653063" lon="-8.089950">
        <ele>113.436</ele>
        <time>2016-09-26T11:14:33Z</time>
      </trkpt>
      <trkpt lat="43.653061" lon="-8.089976">
        <ele>113.580</ele>
        <time>2016-09-26T11:14:34Z</time>
      </trkpt>
      <trkpt lat="43.653062" lon="-8.090002">
        <ele>113.672</ele>
        <time>2016-09-26T11:14:35Z</time>
      </trkpt>
      <trkpt lat="43.653057" lon="-8.090028">
        <ele>113.715</ele>
        <time>2016-09-26T11:14:36Z</time>
      </trkpt>
      <trkpt lat="43.653056" lon="-8.090056">
        <ele>113.953</ele>
        <time>2016-09-26T11:14:37Z</time>
      </trkpt>
      <trkpt lat="43.653057" lon="-8.090082">
        <ele>114.168</ele>
        <time>2016-09-26T11:14:38Z</time>
      </trkpt>
      <trkpt lat="43.653057" lon="-8.090109">
        <ele>114.142</ele>
        <time>2016-09-26T11:14:39Z</time>
      </trkpt>
      <trkpt lat="43.653055" lon="-8.090135">
        <ele>114.026</ele>
        <time>2016-09-26T11:14:40Z</time>
      </trkpt>
      <trkpt lat="43.653054" lon="-8.090160">
        <ele>114.208</ele>
        <time>2016-09-26T11:14:41Z</time>
      </trkpt>
      <trkpt lat="43.653054" lon="-8.090188">
        <ele>114.367</ele>
        <time>2016-09-26T11:14:42Z</time>
      </trkpt>
      <trkpt lat="43.653044" lon="-8.090211">
        <ele>114.362</ele>
        <time>2016-09-26T11:14:43Z</time>
      </trkpt>
      <trkpt lat="43.653041" lon="-8.090240">
        <ele>114.550</ele>
        <time>2016-09-26T11:14:44Z</time>
      </trkpt>
      <trkpt lat="43.653032" lon="-8.090268">
        <ele>114.746</ele>
        <time>2016-09-26T11:14:45Z</time>
      </trkpt>
      <trkpt lat="43.653027" lon="-8.090298">
        <ele>114.760</ele>
        <time>2016-09-26T11:14:46Z</time>
      </trkpt>
      <trkpt lat="43.653027" lon="-8.090326">
        <ele>114.842</ele>
        <time>2016-09-26T11:14:47Z</time>
      </trkpt>
      <trkpt lat="43.653026" lon="-8.090354">
        <ele>114.995</ele>
        <time>2016-09-26T11:14:48Z</time>
      </trkpt>
      <trkpt lat="43.653021" lon="-8.090382">
        <ele>115.063</ele>
        <time>2016-09-26T11:14:49Z</time>
      </trkpt>
      <trkpt lat="43.653016" lon="-8.090410">
        <ele>115.139</ele>
        <time>2016-09-26T11:14:50Z</time>
      </trkpt>
      <trkpt lat="43.653008" lon="-8.090439">
        <ele>115.301</ele>
        <time>2016-09-26T11:14:51Z</time>
      </trkpt>
      <trkpt lat="43.652997" lon="-8.090467">
        <ele>115.421</ele>
        <time>2016-09-26T11:14:52Z</time>
      </trkpt>
      <trkpt lat="43.652988" lon="-8.090498">
        <ele>115.508</ele>
        <time>2016-09-26T11:14:53Z</time>
      </trkpt>
      <trkpt lat="43.652983" lon="-8.090522">
        <ele>115.774</ele>
        <time>2016-09-26T11:14:54Z</time>
      </trkpt>
      <trkpt lat="43.652980" lon="-8.090547">
        <ele>115.889</ele>
        <time>2016-09-26T11:14:55Z</time>
      </trkpt>
      <trkpt lat="43.652975" lon="-8.090577">
        <ele>116.077</ele>
        <time>2016-09-26T11:14:56Z</time>
      </trkpt>
      <trkpt lat="43.652971" lon="-8.090610">
        <ele>116.173</ele>
        <time>2016-09-26T11:14:57Z</time>
      </trkpt>
      <trkpt lat="43.652964" lon="-8.090643">
        <ele>116.267</ele>
        <time>2016-09-26T11:14:58Z</time>
      </trkpt>
      <trkpt lat="43.652958" lon="-8.090673">
        <ele>116.329</ele>
        <time>2016-09-26T11:14:59Z</time>
      </trkpt>
      <trkpt lat="43.652955" lon="-8.090702">
        <ele>116.342</ele>
        <time>2016-09-26T11:15:00Z</time>
      </trkpt>
      <trkpt lat="43.652951" lon="-8.090733">
        <ele>116.460</ele>
        <time>2016-09-26T11:15:01Z</time>
      </trkpt>
      <trkpt lat="43.652947" lon="-8.090761">
        <ele>116.459</ele>
        <time>2016-09-26T11:15:02Z</time>
      </trkpt>
      <trkpt lat="43.652941" lon="-8.090789">
        <ele>116.503</ele>
        <time>2016-09-26T11:15:03Z</time>
      </trkpt>
      <trkpt lat="43.652938" lon="-8.090817">
        <ele>116.623</ele>
        <time>2016-09-26T11:15:04Z</time>
      </trkpt>
      <trkpt lat="43.652932" lon="-8.090846">
        <ele>116.708</ele>
        <time>2016-09-26T11:15:05Z</time>
      </trkpt>
      <trkpt lat="43.652928" lon="-8.090875">
        <ele>116.996</ele>
        <time>2016-09-26T11:15:06Z</time>
      </trkpt>
      <trkpt lat="43.652924" lon="-8.090903">
        <ele>116.841</ele>
        <time>2016-09-26T11:15:07Z</time>
      </trkpt>
      <trkpt lat="43.652919" lon="-8.090930">
        <ele>117.149</ele>
        <time>2016-09-26T11:15:08Z</time>
      </trkpt>
      <trkpt lat="43.652915" lon="-8.090959">
        <ele>117.395</ele>
        <time>2016-09-26T11:15:09Z</time>
      </trkpt>
      <trkpt lat="43.652910" lon="-8.090988">
        <ele>117.589</ele>
        <time>2016-09-26T11:15:10Z</time>
      </trkpt>
      <trkpt lat="43.652904" lon="-8.091019">
        <ele>117.721</ele>
        <time>2016-09-26T11:15:11Z</time>
      </trkpt>
      <trkpt lat="43.652897" lon="-8.091045">
        <ele>117.974</ele>
        <time>2016-09-26T11:15:12Z</time>
      </trkpt>
      <trkpt lat="43.652891" lon="-8.091075">
        <ele>118.132</ele>
        <time>2016-09-26T11:15:13Z</time>
      </trkpt>
      <trkpt lat="43.652884" lon="-8.091101">
        <ele>118.336</ele>
        <time>2016-09-26T11:15:14Z</time>
      </trkpt>
      <trkpt lat="43.652877" lon="-8.091128">
        <ele>118.517</ele>
        <time>2016-09-26T11:15:15Z</time>
      </trkpt>
      <trkpt lat="43.652872" lon="-8.091157">
        <ele>118.718</ele>
        <time>2016-09-26T11:15:16Z</time>
      </trkpt>
      <trkpt lat="43.652865" lon="-8.091182">
        <ele>118.908</ele>
        <time>2016-09-26T11:15:17Z</time>
      </trkpt>
      <trkpt lat="43.652859" lon="-8.091206">
        <ele>119.144</ele>
        <time>2016-09-26T11:15:18Z</time>
      </trkpt>
      <trkpt lat="43.652849" lon="-8.091231">
        <ele>119.439</ele>
        <time>2016-09-26T11:15:19Z</time>
      </trkpt>
      <trkpt lat="43.652839" lon="-8.091253">
        <ele>119.457</ele>
        <time>2016-09-26T11:15:20Z</time>
      </trkpt>
      <trkpt lat="43.652830" lon="-8.091277">
        <ele>119.443</ele>
        <time>2016-09-26T11:15:21Z</time>
      </trkpt>
      <trkpt lat="43.652820" lon="-8.091299">
        <ele>119.527</ele>
        <time>2016-09-26T11:15:22Z</time>
      </trkpt>
      <trkpt lat="43.652811" lon="-8.091324">
        <ele>119.589</ele>
        <time>2016-09-26T11:15:23Z</time>
      </trkpt>
      <trkpt lat="43.652803" lon="-8.091348">
        <ele>119.692</ele>
        <time>2016-09-26T11:15:24Z</time>
      </trkpt>
      <trkpt lat="43.652797" lon="-8.091371">
        <ele>119.790</ele>
        <time>2016-09-26T11:15:25Z</time>
      </trkpt>
      <trkpt lat="43.652793" lon="-8.091395">
        <ele>119.821</ele>
        <time>2016-09-26T11:15:26Z</time>
      </trkpt>
      <trkpt lat="43.652786" lon="-8.091418">
        <ele>120.041</ele>
        <time>2016-09-26T11:15:27Z</time>
      </trkpt>
      <trkpt lat="43.652781" lon="-8.091442">
        <ele>120.205</ele>
        <time>2016-09-26T11:15:28Z</time>
      </trkpt>
      <trkpt lat="43.652779" lon="-8.091465">
        <ele>120.208</ele>
        <time>2016-09-26T11:15:29Z</time>
      </trkpt>
      <trkpt lat="43.652776" lon="-8.091489">
        <ele>120.433</ele>
        <time>2016-09-26T11:15:30Z</time>
      </trkpt>
      <trkpt lat="43.652773" lon="-8.091514">
        <ele>120.388</ele>
        <time>2016-09-26T11:15:31Z</time>
      </trkpt>
      <trkpt lat="43.652773" lon="-8.091538">
        <ele>120.246</ele>
        <time>2016-09-26T11:15:32Z</time>
      </trkpt>
      <trkpt lat="43.652779" lon="-8.091572">
        <ele>120.382</ele>
        <time>2016-09-26T11:15:33Z</time>
      </trkpt>
      <trkpt lat="43.652785" lon="-8.091609">
        <ele>120.116</ele>
        <time>2016-09-26T11:15:34Z</time>
      </trkpt>
      <trkpt lat="43.652789" lon="-8.091645">
        <ele>120.138</ele>
        <time>2016-09-26T11:15:35Z</time>
      </trkpt>
      <trkpt lat="43.652792" lon="-8.091681">
        <ele>120.131</ele>
        <time>2016-09-26T11:15:36Z</time>
      </trkpt>
      <trkpt lat="43.652793" lon="-8.091722">
        <ele>120.269</ele>
        <time>2016-09-26T11:15:37Z</time>
      </trkpt>
      <trkpt lat="43.652792" lon="-8.091763">
        <ele>120.011</ele>
        <time>2016-09-26T11:15:38Z</time>
      </trkpt>
      <trkpt lat="43.652794" lon="-8.091810">
        <ele>119.821</ele>
        <time>2016-09-26T11:15:39Z</time>
      </trkpt>
      <trkpt lat="43.652795" lon="-8.091856">
        <ele>119.603</ele>
        <time>2016-09-26T11:15:40Z</time>
      </trkpt>
      <trkpt lat="43.652798" lon="-8.091905">
        <ele>119.308</ele>
        <time>2016-09-26T11:15:41Z</time>
      </trkpt>
      <trkpt lat="43.652803" lon="-8.091959">
        <ele>119.352</ele>
        <time>2016-09-26T11:15:42Z</time>
      </trkpt>
      <trkpt lat="43.652805" lon="-8.092015">
        <ele>119.057</ele>
        <time>2016-09-26T11:15:43Z</time>
      </trkpt>
      <trkpt lat="43.652809" lon="-8.092076">
        <ele>118.875</ele>
        <time>2016-09-26T11:15:44Z</time>
      </trkpt>
      <trkpt lat="43.652815" lon="-8.092142">
        <ele>118.391</ele>
        <time>2016-09-26T11:15:45Z</time>
      </trkpt>
      <trkpt lat="43.652821" lon="-8.092213">
        <ele>118.185</ele>
        <time>2016-09-26T11:15:46Z</time>
      </trkpt>
      <trkpt lat="43.652828" lon="-8.092290">
        <ele>118.047</ele>
        <time>2016-09-26T11:15:47Z</time>
      </trkpt>
      <trkpt lat="43.652833" lon="-8.092372">
        <ele>117.850</ele>
        <time>2016-09-26T11:15:48Z</time>
      </trkpt>
      <trkpt lat="43.652837" lon="-8.092457">
        <ele>117.518</ele>
        <time>2016-09-26T11:15:49Z</time>
      </trkpt>
      <trkpt lat="43.652838" lon="-8.092547">
        <ele>117.585</ele>
        <time>2016-09-26T11:15:50Z</time>
      </trkpt>
      <trkpt lat="43.652837" lon="-8.092637">
        <ele>117.289</ele>
        <time>2016-09-26T11:15:51Z</time>
      </trkpt>
      <trkpt lat="43.652835" lon="-8.092728">
        <ele>116.917</ele>
        <time>2016-09-26T11:15:52Z</time>
      </trkpt>
      <trkpt lat="43.652830" lon="-8.092819">
        <ele>116.608</ele>
        <time>2016-09-26T11:15:53Z</time>
      </trkpt>
      <trkpt lat="43.652823" lon="-8.092908">
        <ele>116.549</ele>
        <time>2016-09-26T11:15:54Z</time>
      </trkpt>
      <trkpt lat="43.652808" lon="-8.092989">
        <ele>116.414</ele>
        <time>2016-09-26T11:15:55Z</time>
      </trkpt>
      <trkpt lat="43.652786" lon="-8.093062">
        <ele>116.362</ele>
        <time>2016-09-26T11:15:56Z</time>
      </trkpt>
      <trkpt lat="43.652757" lon="-8.093127">
        <ele>116.348</ele>
        <time>2016-09-26T11:15:57Z</time>
      </trkpt>
      <trkpt lat="43.652721" lon="-8.093182">
        <ele>116.242</ele>
        <time>2016-09-26T11:15:58Z</time>
      </trkpt>
      <trkpt lat="43.652685" lon="-8.093230">
        <ele>116.144</ele>
        <time>2016-09-26T11:15:59Z</time>
      </trkpt>
      <trkpt lat="43.652650" lon="-8.093268">
        <ele>116.097</ele>
        <time>2016-09-26T11:16:00Z</time>
      </trkpt>
      <trkpt lat="43.652620" lon="-8.093299">
        <ele>116.045</ele>
        <time>2016-09-26T11:16:01Z</time>
      </trkpt>
      <trkpt lat="43.652595" lon="-8.093325">
        <ele>115.881</ele>
        <time>2016-09-26T11:16:02Z</time>
      </trkpt>
      <trkpt lat="43.652573" lon="-8.093348">
        <ele>115.761</ele>
        <time>2016-09-26T11:16:03Z</time>
      </trkpt>
      <trkpt lat="43.652552" lon="-8.093367">
        <ele>115.817</ele>
        <time>2016-09-26T11:16:04Z</time>
      </trkpt>
      <trkpt lat="43.652529" lon="-8.093385">
        <ele>115.808</ele>
        <time>2016-09-26T11:16:05Z</time>
      </trkpt>
      <trkpt lat="43.652505" lon="-8.093402">
        <ele>115.939</ele>
        <time>2016-09-26T11:16:06Z</time>
      </trkpt>
      <trkpt lat="43.652481" lon="-8.093419">
        <ele>116.014</ele>
        <time>2016-09-26T11:16:07Z</time>
      </trkpt>
      <trkpt lat="43.652459" lon="-8.093437">
        <ele>116.162</ele>
        <time>2016-09-26T11:16:08Z</time>
      </trkpt>
      <trkpt lat="43.652437" lon="-8.093456">
        <ele>116.218</ele>
        <time>2016-09-26T11:16:09Z</time>
      </trkpt>
      <trkpt lat="43.652415" lon="-8.093473">
        <ele>116.312</ele>
        <time>2016-09-26T11:16:10Z</time>
      </trkpt>
      <trkpt lat="43.652391" lon="-8.093489">
        <ele>116.584</ele>
        <time>2016-09-26T11:16:11Z</time>
      </trkpt>
      <trkpt lat="43.652368" lon="-8.093505">
        <ele>116.717</ele>
        <time>2016-09-26T11:16:12Z</time>
      </trkpt>
      <trkpt lat="43.652343" lon="-8.093526">
        <ele>116.625</ele>
        <time>2016-09-26T11:16:13Z</time>
      </trkpt>
      <trkpt lat="43.652317" lon="-8.093553">
        <ele>116.736</ele>
        <time>2016-09-26T11:16:14Z</time>
      </trkpt>
      <trkpt lat="43.652290" lon="-8.093586">
        <ele>116.917</ele>
        <time>2016-09-26T11:16:15Z</time>
      </trkpt>
      <trkpt lat="43.652258" lon="-8.093618">
        <ele>116.918</ele>
        <time>2016-09-26T11:16:16Z</time>
      </trkpt>
      <trkpt lat="43.652219" lon="-8.093652">
        <ele>116.708</ele>
        <time>2016-09-26T11:16:17Z</time>
      </trkpt>
      <trkpt lat="43.652175" lon="-8.093686">
        <ele>116.754</ele>
        <time>2016-09-26T11:16:18Z</time>
      </trkpt>
      <trkpt lat="43.652124" lon="-8.093716">
        <ele>116.569</ele>
        <time>2016-09-26T11:16:19Z</time>
      </trkpt>
      <trkpt lat="43.652064" lon="-8.093741">
        <ele>116.447</ele>
        <time>2016-09-26T11:16:20Z</time>
      </trkpt>
      <trkpt lat="43.652001" lon="-8.093762">
        <ele>116.173</ele>
        <time>2016-09-26T11:16:21Z</time>
      </trkpt>
      <trkpt lat="43.651934" lon="-8.093777">
        <ele>115.857</ele>
        <time>2016-09-26T11:16:22Z</time>
      </trkpt>
      <trkpt lat="43.651862" lon="-8.093790">
        <ele>115.759</ele>
        <time>2016-09-26T11:16:23Z</time>
      </trkpt>
      <trkpt lat="43.651787" lon="-8.093802">
        <ele>115.632</ele>
        <time>2016-09-26T11:16:24Z</time>
      </trkpt>
      <trkpt lat="43.651710" lon="-8.093813">
        <ele>115.050</ele>
        <time>2016-09-26T11:16:25Z</time>
      </trkpt>
      <trkpt lat="43.651629" lon="-8.093824">
        <ele>114.566</ele>
        <time>2016-09-26T11:16:26Z</time>
      </trkpt>
      <trkpt lat="43.651548" lon="-8.093838">
        <ele>114.429</ele>
        <time>2016-09-26T11:16:27Z</time>
      </trkpt>
      <trkpt lat="43.651467" lon="-8.093856">
        <ele>114.121</ele>
        <time>2016-09-26T11:16:28Z</time>
      </trkpt>
      <trkpt lat="43.651385" lon="-8.093879">
        <ele>113.908</ele>
        <time>2016-09-26T11:16:29Z</time>
      </trkpt>
      <trkpt lat="43.651301" lon="-8.093906">
        <ele>113.727</ele>
        <time>2016-09-26T11:16:30Z</time>
      </trkpt>
      <trkpt lat="43.651218" lon="-8.093938">
        <ele>113.042</ele>
        <time>2016-09-26T11:16:31Z</time>
      </trkpt>
      <trkpt lat="43.651134" lon="-8.093978">
        <ele>112.510</ele>
        <time>2016-09-26T11:16:32Z</time>
      </trkpt>
      <trkpt lat="43.651051" lon="-8.094028">
        <ele>112.026</ele>
        <time>2016-09-26T11:16:33Z</time>
      </trkpt>
      <trkpt lat="43.650970" lon="-8.094089">
        <ele>111.540</ele>
        <time>2016-09-26T11:16:34Z</time>
      </trkpt>
      <trkpt lat="43.650892" lon="-8.094160">
        <ele>111.022</ele>
        <time>2016-09-26T11:16:35Z</time>
      </trkpt>
      <trkpt lat="43.650818" lon="-8.094233">
        <ele>110.585</ele>
        <time>2016-09-26T11:16:36Z</time>
      </trkpt>
      <trkpt lat="43.650752" lon="-8.094312">
        <ele>110.293</ele>
        <time>2016-09-26T11:16:37Z</time>
      </trkpt>
      <trkpt lat="43.650687" lon="-8.094398">
        <ele>109.673</ele>
        <time>2016-09-26T11:16:38Z</time>
      </trkpt>
      <trkpt lat="43.650625" lon="-8.094490">
        <ele>109.185</ele>
        <time>2016-09-26T11:16:39Z</time>
      </trkpt>
      <trkpt lat="43.650570" lon="-8.094595">
        <ele>108.213</ele>
        <time>2016-09-26T11:16:40Z</time>
      </trkpt>
      <trkpt lat="43.650527" lon="-8.094719">
        <ele>107.308</ele>
        <time>2016-09-26T11:16:41Z</time>
      </trkpt>
      <trkpt lat="43.650469" lon="-8.094848">
        <ele>106.428</ele>
        <time>2016-09-26T11:16:42Z</time>
      </trkpt>
      <trkpt lat="43.650427" lon="-8.094981">
        <ele>105.853</ele>
        <time>2016-09-26T11:16:43Z</time>
      </trkpt>
      <trkpt lat="43.650387" lon="-8.095112">
        <ele>105.061</ele>
        <time>2016-09-26T11:16:44Z</time>
      </trkpt>
      <trkpt lat="43.650349" lon="-8.095243">
        <ele>104.187</ele>
        <time>2016-09-26T11:16:45Z</time>
      </trkpt>
      <trkpt lat="43.650308" lon="-8.095370">
        <ele>103.471</ele>
        <time>2016-09-26T11:16:46Z</time>
      </trkpt>
      <trkpt lat="43.650276" lon="-8.095498">
        <ele>102.543</ele>
        <time>2016-09-26T11:16:47Z</time>
      </trkpt>
      <trkpt lat="43.650250" lon="-8.095628">
        <ele>102.196</ele>
        <time>2016-09-26T11:16:48Z</time>
      </trkpt>
      <trkpt lat="43.650232" lon="-8.095760">
        <ele>101.694</ele>
        <time>2016-09-26T11:16:49Z</time>
      </trkpt>
      <trkpt lat="43.650222" lon="-8.095892">
        <ele>100.955</ele>
        <time>2016-09-26T11:16:50Z</time>
      </trkpt>
      <trkpt lat="43.650208" lon="-8.096015">
        <ele>100.407</ele>
        <time>2016-09-26T11:16:51Z</time>
      </trkpt>
      <trkpt lat="43.650195" lon="-8.096133">
        <ele>100.317</ele>
        <time>2016-09-26T11:16:52Z</time>
      </trkpt>
      <trkpt lat="43.650186" lon="-8.096245">
        <ele>99.808</ele>
        <time>2016-09-26T11:16:53Z</time>
      </trkpt>
      <trkpt lat="43.650174" lon="-8.096352">
        <ele>99.996</ele>
        <time>2016-09-26T11:16:54Z</time>
      </trkpt>
      <trkpt lat="43.650161" lon="-8.096454">
        <ele>99.841</ele>
        <time>2016-09-26T11:16:55Z</time>
      </trkpt>
      <trkpt lat="43.650152" lon="-8.096555">
        <ele>99.549</ele>
        <time>2016-09-26T11:16:56Z</time>
      </trkpt>
      <trkpt lat="43.650153" lon="-8.096661">
        <ele>99.375</ele>
        <time>2016-09-26T11:16:57Z</time>
      </trkpt>
      <trkpt lat="43.650153" lon="-8.096769">
        <ele>99.089</ele>
        <time>2016-09-26T11:16:58Z</time>
      </trkpt>
      <trkpt lat="43.650150" lon="-8.096875">
        <ele>98.751</ele>
        <time>2016-09-26T11:16:59Z</time>
      </trkpt>
      <trkpt lat="43.650146" lon="-8.096989">
        <ele>98.344</ele>
        <time>2016-09-26T11:17:00Z</time>
      </trkpt>
      <trkpt lat="43.650143" lon="-8.097115">
        <ele>97.752</ele>
        <time>2016-09-26T11:17:01Z</time>
      </trkpt>
      <trkpt lat="43.650147" lon="-8.097248">
        <ele>97.226</ele>
        <time>2016-09-26T11:17:02Z</time>
      </trkpt>
      <trkpt lat="43.650157" lon="-8.097375">
        <ele>96.847</ele>
        <time>2016-09-26T11:17:03Z</time>
      </trkpt>
      <trkpt lat="43.650171" lon="-8.097509">
        <ele>96.211</ele>
        <time>2016-09-26T11:17:04Z</time>
      </trkpt>
      <trkpt lat="43.650186" lon="-8.097647">
        <ele>95.608</ele>
        <time>2016-09-26T11:17:05Z</time>
      </trkpt>
      <trkpt lat="43.650193" lon="-8.097778">
        <ele>94.643</ele>
        <time>2016-09-26T11:17:06Z</time>
      </trkpt>
      <trkpt lat="43.650199" lon="-8.097905">
        <ele>93.538</ele>
        <time>2016-09-26T11:17:07Z</time>
      </trkpt>
      <trkpt lat="43.650204" lon="-8.098040">
        <ele>92.676</ele>
        <time>2016-09-26T11:17:08Z</time>
      </trkpt>
      <trkpt lat="43.650207" lon="-8.098190">
        <ele>91.852</ele>
        <time>2016-09-26T11:17:09Z</time>
      </trkpt>
      <trkpt lat="43.650209" lon="-8.098344">
        <ele>90.586</ele>
        <time>2016-09-26T11:17:10Z</time>
      </trkpt>
      <trkpt lat="43.650208" lon="-8.098494">
        <ele>89.328</ele>
        <time>2016-09-26T11:17:11Z</time>
      </trkpt>
      <trkpt lat="43.650205" lon="-8.098633">
        <ele>87.791</ele>
        <time>2016-09-26T11:17:12Z</time>
      </trkpt>
      <trkpt lat="43.650202" lon="-8.098761">
        <ele>86.359</ele>
        <time>2016-09-26T11:17:13Z</time>
      </trkpt>
      <trkpt lat="43.650199" lon="-8.098878">
        <ele>85.187</ele>
        <time>2016-09-26T11:17:14Z</time>
      </trkpt>
      <trkpt lat="43.650198" lon="-8.098990">
        <ele>84.042</ele>
        <time>2016-09-26T11:17:15Z</time>
      </trkpt>
      <trkpt lat="43.650200" lon="-8.099097">
        <ele>82.826</ele>
        <time>2016-09-26T11:17:16Z</time>
      </trkpt>
      <trkpt lat="43.650202" lon="-8.099199">
        <ele>81.608</ele>
        <time>2016-09-26T11:17:17Z</time>
      </trkpt>
      <trkpt lat="43.650206" lon="-8.099296">
        <ele>80.719</ele>
        <time>2016-09-26T11:17:18Z</time>
      </trkpt>
      <trkpt lat="43.650214" lon="-8.099389">
        <ele>79.544</ele>
        <time>2016-09-26T11:17:19Z</time>
      </trkpt>
      <trkpt lat="43.650223" lon="-8.099476">
        <ele>78.422</ele>
        <time>2016-09-26T11:17:20Z</time>
      </trkpt>
      <trkpt lat="43.650233" lon="-8.099560">
        <ele>77.568</ele>
        <time>2016-09-26T11:17:21Z</time>
      </trkpt>
      <trkpt lat="43.650240" lon="-8.099633">
        <ele>76.672</ele>
        <time>2016-09-26T11:17:22Z</time>
      </trkpt>
      <trkpt lat="43.650247" lon="-8.099698">
        <ele>75.964</ele>
        <time>2016-09-26T11:17:23Z</time>
      </trkpt>
      <trkpt lat="43.650257" lon="-8.099751">
        <ele>75.217</ele>
        <time>2016-09-26T11:17:24Z</time>
      </trkpt>
      <trkpt lat="43.650275" lon="-8.099797">
        <ele>74.895</ele>
        <time>2016-09-26T11:17:25Z</time>
      </trkpt>
      <trkpt lat="43.650297" lon="-8.099842">
        <ele>74.296</ele>
        <time>2016-09-26T11:17:26Z</time>
      </trkpt>
      <trkpt lat="43.650323" lon="-8.099885">
        <ele>73.631</ele>
        <time>2016-09-26T11:17:27Z</time>
      </trkpt>
      <trkpt lat="43.650354" lon="-8.099927">
        <ele>72.924</ele>
        <time>2016-09-26T11:17:28Z</time>
      </trkpt>
      <trkpt lat="43.650388" lon="-8.099965">
        <ele>72.208</ele>
        <time>2016-09-26T11:17:29Z</time>
      </trkpt>
      <trkpt lat="43.650419" lon="-8.099998">
        <ele>71.940</ele>
        <time>2016-09-26T11:17:30Z</time>
      </trkpt>
      <trkpt lat="43.650447" lon="-8.100027">
        <ele>71.545</ele>
        <time>2016-09-26T11:17:31Z</time>
      </trkpt>
      <trkpt lat="43.650469" lon="-8.100053">
        <ele>71.083</ele>
        <time>2016-09-26T11:17:32Z</time>
      </trkpt>
      <trkpt lat="43.650488" lon="-8.100075">
        <ele>70.889</ele>
        <time>2016-09-26T11:17:33Z</time>
      </trkpt>
      <trkpt lat="43.650504" lon="-8.100095">
        <ele>70.683</ele>
        <time>2016-09-26T11:17:34Z</time>
      </trkpt>
      <trkpt lat="43.650516" lon="-8.100111">
        <ele>70.485</ele>
        <time>2016-09-26T11:17:35Z</time>
      </trkpt>
      <trkpt lat="43.650521" lon="-8.100117">
        <ele>70.478</ele>
        <time>2016-09-26T11:17:36Z</time>
      </trkpt>
      <trkpt lat="43.650520" lon="-8.100116">
        <ele>70.356</ele>
        <time>2016-09-26T11:17:37Z</time>
      </trkpt>
      <trkpt lat="43.650520" lon="-8.100114">
        <ele>70.396</ele>
        <time>2016-09-26T11:17:38Z</time>
      </trkpt>
      <trkpt lat="43.650520" lon="-8.100111">
        <ele>70.031</ele>
        <time>2016-09-26T11:17:39Z</time>
      </trkpt>
      <trkpt lat="43.650523" lon="-8.100114">
        <ele>69.924</ele>
        <time>2016-09-26T11:17:40Z</time>
      </trkpt>
      <trkpt lat="43.650521" lon="-8.100115">
        <ele>69.708</ele>
        <time>2016-09-26T11:17:41Z</time>
      </trkpt>
      <trkpt lat="43.650521" lon="-8.100115">
        <ele>69.740</ele>
        <time>2016-09-26T11:17:41Z</time>
      </trkpt>
      <trkpt lat="43.650521" lon="-8.100115">
        <ele>69.795</ele>
        <time>2016-09-26T11:17:41Z</time>
      </trkpt>
      <trkpt lat="43.650444" lon="-8.099990">
        <ele>66.413</ele>
        <time>2016-09-26T11:22:57Z</time>
      </trkpt>
      <trkpt lat="43.650426" lon="-8.099970">
        <ele>66.439</ele>
        <time>2016-09-26T11:22:58Z</time>
      </trkpt>
      <trkpt lat="43.650406" lon="-8.099952">
        <ele>66.393</ele>
        <time>2016-09-26T11:22:59Z</time>
      </trkpt>
      <trkpt lat="43.650388" lon="-8.099934">
        <ele>66.445</ele>
        <time>2016-09-26T11:23:00Z</time>
      </trkpt>
      <trkpt lat="43.650369" lon="-8.099919">
        <ele>66.488</ele>
        <time>2016-09-26T11:23:01Z</time>
      </trkpt>
      <trkpt lat="43.650352" lon="-8.099907">
        <ele>66.856</ele>
        <time>2016-09-26T11:23:02Z</time>
      </trkpt>
      <trkpt lat="43.650336" lon="-8.099899">
        <ele>67.086</ele>
        <time>2016-09-26T11:23:03Z</time>
      </trkpt>
      <trkpt lat="43.650322" lon="-8.099893">
        <ele>67.160</ele>
        <time>2016-09-26T11:23:04Z</time>
      </trkpt>
      <trkpt lat="43.650309" lon="-8.099887">
        <ele>67.126</ele>
        <time>2016-09-26T11:23:05Z</time>
      </trkpt>
      <trkpt lat="43.650295" lon="-8.099884">
        <ele>67.108</ele>
        <time>2016-09-26T11:23:06Z</time>
      </trkpt>
      <trkpt lat="43.650278" lon="-8.099884">
        <ele>67.039</ele>
        <time>2016-09-26T11:23:07Z</time>
      </trkpt>
      <trkpt lat="43.650261" lon="-8.099889">
        <ele>66.954</ele>
        <time>2016-09-26T11:23:08Z</time>
      </trkpt>
      <trkpt lat="43.650244" lon="-8.099901">
        <ele>66.862</ele>
        <time>2016-09-26T11:23:09Z</time>
      </trkpt>
      <trkpt lat="43.650227" lon="-8.099918">
        <ele>66.688</ele>
        <time>2016-09-26T11:23:10Z</time>
      </trkpt>
      <trkpt lat="43.650210" lon="-8.099943">
        <ele>66.692</ele>
        <time>2016-09-26T11:23:11Z</time>
      </trkpt>
      <trkpt lat="43.650191" lon="-8.099976">
        <ele>66.684</ele>
        <time>2016-09-26T11:23:12Z</time>
      </trkpt>
      <trkpt lat="43.650173" lon="-8.100007">
        <ele>66.567</ele>
        <time>2016-09-26T11:23:13Z</time>
      </trkpt>
      <trkpt lat="43.650156" lon="-8.100036">
        <ele>66.535</ele>
        <time>2016-09-26T11:23:14Z</time>
      </trkpt>
      <trkpt lat="43.650137" lon="-8.100063">
        <ele>66.432</ele>
        <time>2016-09-26T11:23:15Z</time>
      </trkpt>
      <trkpt lat="43.650115" lon="-8.100089">
        <ele>66.492</ele>
        <time>2016-09-26T11:23:16Z</time>
      </trkpt>
      <trkpt lat="43.650087" lon="-8.100115">
        <ele>66.211</ele>
        <time>2016-09-26T11:23:17Z</time>
      </trkpt>
      <trkpt lat="43.650055" lon="-8.100146">
        <ele>65.908</ele>
        <time>2016-09-26T11:23:18Z</time>
      </trkpt>
      <trkpt lat="43.650019" lon="-8.100178">
        <ele>65.894</ele>
        <time>2016-09-26T11:23:19Z</time>
      </trkpt>
      <trkpt lat="43.649981" lon="-8.100208">
        <ele>65.489</ele>
        <time>2016-09-26T11:23:20Z</time>
      </trkpt>
      <trkpt lat="43.649939" lon="-8.100236">
        <ele>65.017</ele>
        <time>2016-09-26T11:23:21Z</time>
      </trkpt>
      <trkpt lat="43.649895" lon="-8.100265">
        <ele>64.893</ele>
        <time>2016-09-26T11:23:22Z</time>
      </trkpt>
      <trkpt lat="43.649847" lon="-8.100292">
        <ele>64.487</ele>
        <time>2016-09-26T11:23:23Z</time>
      </trkpt>
      <trkpt lat="43.649794" lon="-8.100319">
        <ele>63.979</ele>
        <time>2016-09-26T11:23:24Z</time>
      </trkpt>
      <trkpt lat="43.649739" lon="-8.100344">
        <ele>63.362</ele>
        <time>2016-09-26T11:23:25Z</time>
      </trkpt>
      <trkpt lat="43.649681" lon="-8.100369">
        <ele>62.870</ele>
        <time>2016-09-26T11:23:26Z</time>
      </trkpt>
      <trkpt lat="43.649624" lon="-8.100391">
        <ele>62.419</ele>
        <time>2016-09-26T11:23:27Z</time>
      </trkpt>
      <trkpt lat="43.649566" lon="-8.100411">
        <ele>61.809</ele>
        <time>2016-09-26T11:23:28Z</time>
      </trkpt>
      <trkpt lat="43.649505" lon="-8.100430">
        <ele>61.019</ele>
        <time>2016-09-26T11:23:29Z</time>
      </trkpt>
      <trkpt lat="43.649443" lon="-8.100448">
        <ele>60.408</ele>
        <time>2016-09-26T11:23:30Z</time>
      </trkpt>
      <trkpt lat="43.649380" lon="-8.100464">
        <ele>59.712</ele>
        <time>2016-09-26T11:23:31Z</time>
      </trkpt>
      <trkpt lat="43.649318" lon="-8.100475">
        <ele>59.027</ele>
        <time>2016-09-26T11:23:32Z</time>
      </trkpt>
      <trkpt lat="43.649255" lon="-8.100478">
        <ele>58.365</ele>
        <time>2016-09-26T11:23:33Z</time>
      </trkpt>
      <trkpt lat="43.649194" lon="-8.100472">
        <ele>57.671</ele>
        <time>2016-09-26T11:23:34Z</time>
      </trkpt>
      <trkpt lat="43.649130" lon="-8.100458">
        <ele>57.065</ele>
        <time>2016-09-26T11:23:35Z</time>
      </trkpt>
      <trkpt lat="43.649067" lon="-8.100431">
        <ele>56.537</ele>
        <time>2016-09-26T11:23:36Z</time>
      </trkpt>
      <trkpt lat="43.648999" lon="-8.100395">
        <ele>55.940</ele>
        <time>2016-09-26T11:23:37Z</time>
      </trkpt>
      <trkpt lat="43.648925" lon="-8.100351">
        <ele>55.458</ele>
        <time>2016-09-26T11:23:38Z</time>
      </trkpt>
      <trkpt lat="43.648844" lon="-8.100301">
        <ele>54.765</ele>
        <time>2016-09-26T11:23:39Z</time>
      </trkpt>
      <trkpt lat="43.648757" lon="-8.100247">
        <ele>54.068</ele>
        <time>2016-09-26T11:23:40Z</time>
      </trkpt>
      <trkpt lat="43.648664" lon="-8.100190">
        <ele>53.214</ele>
        <time>2016-09-26T11:23:41Z</time>
      </trkpt>
      <trkpt lat="43.648567" lon="-8.100132">
        <ele>52.308</ele>
        <time>2016-09-26T11:23:42Z</time>
      </trkpt>
      <trkpt lat="43.648468" lon="-8.100071">
        <ele>51.717</ele>
        <time>2016-09-26T11:23:43Z</time>
      </trkpt>
      <trkpt lat="43.648368" lon="-8.100008">
        <ele>50.952</ele>
        <time>2016-09-26T11:23:44Z</time>
      </trkpt>
      <trkpt lat="43.648267" lon="-8.099944">
        <ele>50.380</ele>
        <time>2016-09-26T11:23:45Z</time>
      </trkpt>
      <trkpt lat="43.648169" lon="-8.099877">
        <ele>49.426</ele>
        <time>2016-09-26T11:23:46Z</time>
      </trkpt>
      <trkpt lat="43.648074" lon="-8.099809">
        <ele>48.550</ele>
        <time>2016-09-26T11:23:47Z</time>
      </trkpt>
      <trkpt lat="43.647982" lon="-8.099736">
        <ele>47.952</ele>
        <time>2016-09-26T11:23:48Z</time>
      </trkpt>
      <trkpt lat="43.647894" lon="-8.099663">
        <ele>47.115</ele>
        <time>2016-09-26T11:23:49Z</time>
      </trkpt>
      <trkpt lat="43.647812" lon="-8.099587">
        <ele>46.823</ele>
        <time>2016-09-26T11:23:50Z</time>
      </trkpt>
      <trkpt lat="43.647735" lon="-8.099511">
        <ele>46.449</ele>
        <time>2016-09-26T11:23:51Z</time>
      </trkpt>
      <trkpt lat="43.647661" lon="-8.099440">
        <ele>46.102</ele>
        <time>2016-09-26T11:23:52Z</time>
      </trkpt>
      <trkpt lat="43.647586" lon="-8.099379">
        <ele>45.822</ele>
        <time>2016-09-26T11:23:53Z</time>
      </trkpt>
      <trkpt lat="43.647507" lon="-8.099331">
        <ele>45.408</ele>
        <time>2016-09-26T11:23:54Z</time>
      </trkpt>
      <trkpt lat="43.647424" lon="-8.099297">
        <ele>45.145</ele>
        <time>2016-09-26T11:23:55Z</time>
      </trkpt>
      <trkpt lat="43.647340" lon="-8.099277">
        <ele>44.990</ele>
        <time>2016-09-26T11:23:56Z</time>
      </trkpt>
      <trkpt lat="43.647254" lon="-8.099264">
        <ele>44.648</ele>
        <time>2016-09-26T11:23:57Z</time>
      </trkpt>
      <trkpt lat="43.647171" lon="-8.099251">
        <ele>43.944</ele>
        <time>2016-09-26T11:23:58Z</time>
      </trkpt>
      <trkpt lat="43.647090" lon="-8.099236">
        <ele>43.428</ele>
        <time>2016-09-26T11:23:59Z</time>
      </trkpt>
      <trkpt lat="43.647018" lon="-8.099217">
        <ele>42.960</ele>
        <time>2016-09-26T11:24:00Z</time>
      </trkpt>
      <trkpt lat="43.646953" lon="-8.099200">
        <ele>42.373</ele>
        <time>2016-09-26T11:24:01Z</time>
      </trkpt>
      <trkpt lat="43.646897" lon="-8.099192">
        <ele>41.771</ele>
        <time>2016-09-26T11:24:02Z</time>
      </trkpt>
      <trkpt lat="43.646851" lon="-8.099201">
        <ele>41.146</ele>
        <time>2016-09-26T11:24:03Z</time>
      </trkpt>
      <trkpt lat="43.646811" lon="-8.099223">
        <ele>40.488</ele>
        <time>2016-09-26T11:24:04Z</time>
      </trkpt>
      <trkpt lat="43.646775" lon="-8.099252">
        <ele>39.816</ele>
        <time>2016-09-26T11:24:05Z</time>
      </trkpt>
      <trkpt lat="43.646740" lon="-8.099289">
        <ele>39.108</ele>
        <time>2016-09-26T11:24:06Z</time>
      </trkpt>
      <trkpt lat="43.646701" lon="-8.099335">
        <ele>38.535</ele>
        <time>2016-09-26T11:24:07Z</time>
      </trkpt>
      <trkpt lat="43.646655" lon="-8.099390">
        <ele>37.730</ele>
        <time>2016-09-26T11:24:08Z</time>
      </trkpt>
      <trkpt lat="43.646598" lon="-8.099454">
        <ele>36.928</ele>
        <time>2016-09-26T11:24:09Z</time>
      </trkpt>
      <trkpt lat="43.646533" lon="-8.099525">
        <ele>36.234</ele>
        <time>2016-09-26T11:24:10Z</time>
      </trkpt>
      <trkpt lat="43.646462" lon="-8.099606">
        <ele>35.448</ele>
        <time>2016-09-26T11:24:11Z</time>
      </trkpt>
      <trkpt lat="43.646386" lon="-8.099694">
        <ele>34.740</ele>
        <time>2016-09-26T11:24:12Z</time>
      </trkpt>
      <trkpt lat="43.646306" lon="-8.099788">
        <ele>33.873</ele>
        <time>2016-09-26T11:24:13Z</time>
      </trkpt>
      <trkpt lat="43.646222" lon="-8.099884">
        <ele>32.971</ele>
        <time>2016-09-26T11:24:14Z</time>
      </trkpt>
      <trkpt lat="43.646136" lon="-8.099982">
        <ele>31.934</ele>
        <time>2016-09-26T11:24:15Z</time>
      </trkpt>
      <trkpt lat="43.646051" lon="-8.100078">
        <ele>31.055</ele>
        <time>2016-09-26T11:24:16Z</time>
      </trkpt>
      <trkpt lat="43.645969" lon="-8.100165">
        <ele>30.310</ele>
        <time>2016-09-26T11:24:17Z</time>
      </trkpt>
      <trkpt lat="43.645887" lon="-8.100241">
        <ele>29.608</ele>
        <time>2016-09-26T11:24:18Z</time>
      </trkpt>
      <trkpt lat="43.645801" lon="-8.100296">
        <ele>28.714</ele>
        <time>2016-09-26T11:24:19Z</time>
      </trkpt>
      <trkpt lat="43.645711" lon="-8.100333">
        <ele>27.959</ele>
        <time>2016-09-26T11:24:20Z</time>
      </trkpt>
      <trkpt lat="43.645621" lon="-8.100350">
        <ele>27.167</ele>
        <time>2016-09-26T11:24:21Z</time>
      </trkpt>
      <trkpt lat="43.645531" lon="-8.100352">
        <ele>26.723</ele>
        <time>2016-09-26T11:24:22Z</time>
      </trkpt>
      <trkpt lat="43.645445" lon="-8.100346">
        <ele>26.167</ele>
        <time>2016-09-26T11:24:23Z</time>
      </trkpt>
      <trkpt lat="43.645363" lon="-8.100332">
        <ele>25.779</ele>
        <time>2016-09-26T11:24:24Z</time>
      </trkpt>
      <trkpt lat="43.645284" lon="-8.100315">
        <ele>25.312</ele>
        <time>2016-09-26T11:24:25Z</time>
      </trkpt>
      <trkpt lat="43.645205" lon="-8.100297">
        <ele>25.110</ele>
        <time>2016-09-26T11:24:26Z</time>
      </trkpt>
      <trkpt lat="43.645128" lon="-8.100280">
        <ele>24.769</ele>
        <time>2016-09-26T11:24:27Z</time>
      </trkpt>
      <trkpt lat="43.645048" lon="-8.100260">
        <ele>24.304</ele>
        <time>2016-09-26T11:24:28Z</time>
      </trkpt>
      <trkpt lat="43.644964" lon="-8.100237">
        <ele>23.924</ele>
        <time>2016-09-26T11:24:29Z</time>
      </trkpt>
      <trkpt lat="43.644877" lon="-8.100211">
        <ele>23.308</ele>
        <time>2016-09-26T11:24:30Z</time>
      </trkpt>
      <trkpt lat="43.644786" lon="-8.100189">
        <ele>23.167</ele>
        <time>2016-09-26T11:24:31Z</time>
      </trkpt>
      <trkpt lat="43.644692" lon="-8.100178">
        <ele>22.512</ele>
        <time>2016-09-26T11:24:32Z</time>
      </trkpt>
      <trkpt lat="43.644595" lon="-8.100179">
        <ele>22.010</ele>
        <time>2016-09-26T11:24:33Z</time>
      </trkpt>
      <trkpt lat="43.644500" lon="-8.100192">
        <ele>21.556</ele>
        <time>2016-09-26T11:24:34Z</time>
      </trkpt>
      <trkpt lat="43.644415" lon="-8.100225">
        <ele>21.070</ele>
        <time>2016-09-26T11:24:35Z</time>
      </trkpt>
      <trkpt lat="43.644348" lon="-8.100302">
        <ele>20.592</ele>
        <time>2016-09-26T11:24:36Z</time>
      </trkpt>
      <trkpt lat="43.644292" lon="-8.100390">
        <ele>20.315</ele>
        <time>2016-09-26T11:24:37Z</time>
      </trkpt>
      <trkpt lat="43.644244" lon="-8.100475">
        <ele>20.043</ele>
        <time>2016-09-26T11:24:38Z</time>
      </trkpt>
      <trkpt lat="43.644206" lon="-8.100554">
        <ele>19.848</ele>
        <time>2016-09-26T11:24:39Z</time>
      </trkpt>
      <trkpt lat="43.644177" lon="-8.100628">
        <ele>19.761</ele>
        <time>2016-09-26T11:24:40Z</time>
      </trkpt>
      <trkpt lat="43.644153" lon="-8.100694">
        <ele>19.717</ele>
        <time>2016-09-26T11:24:41Z</time>
      </trkpt>
      <trkpt lat="43.644131" lon="-8.100751">
        <ele>19.708</ele>
        <time>2016-09-26T11:24:42Z</time>
      </trkpt>
      <trkpt lat="43.644110" lon="-8.100800">
        <ele>19.775</ele>
        <time>2016-09-26T11:24:43Z</time>
      </trkpt>
      <trkpt lat="43.644092" lon="-8.100846">
        <ele>20.020</ele>
        <time>2016-09-26T11:24:44Z</time>
      </trkpt>
      <trkpt lat="43.644076" lon="-8.100888">
        <ele>20.258</ele>
        <time>2016-09-26T11:24:45Z</time>
      </trkpt>
      <trkpt lat="43.644060" lon="-8.100928">
        <ele>20.384</ele>
        <time>2016-09-26T11:24:46Z</time>
      </trkpt>
      <trkpt lat="43.644046" lon="-8.100968">
        <ele>20.368</ele>
        <time>2016-09-26T11:24:47Z</time>
      </trkpt>
      <trkpt lat="43.644033" lon="-8.101005">
        <ele>20.430</ele>
        <time>2016-09-26T11:24:48Z</time>
      </trkpt>
      <trkpt lat="43.644018" lon="-8.101039">
        <ele>20.893</ele>
        <time>2016-09-26T11:24:49Z</time>
      </trkpt>
      <trkpt lat="43.644002" lon="-8.101068">
        <ele>21.141</ele>
        <time>2016-09-26T11:24:50Z</time>
      </trkpt>
      <trkpt lat="43.643989" lon="-8.101099">
        <ele>21.411</ele>
        <time>2016-09-26T11:24:51Z</time>
      </trkpt>
      <trkpt lat="43.643977" lon="-8.101131">
        <ele>21.721</ele>
        <time>2016-09-26T11:24:52Z</time>
      </trkpt>
      <trkpt lat="43.643965" lon="-8.101165">
        <ele>21.903</ele>
        <time>2016-09-26T11:24:53Z</time>
      </trkpt>
      <trkpt lat="43.643952" lon="-8.101198">
        <ele>22.208</ele>
        <time>2016-09-26T11:24:54Z</time>
      </trkpt>
      <trkpt lat="43.643939" lon="-8.101230">
        <ele>22.572</ele>
        <time>2016-09-26T11:24:55Z</time>
      </trkpt>
      <trkpt lat="43.643922" lon="-8.101256">
        <ele>22.787</ele>
        <time>2016-09-26T11:24:56Z</time>
      </trkpt>
      <trkpt lat="43.643909" lon="-8.101285">
        <ele>23.145</ele>
        <time>2016-09-26T11:24:57Z</time>
      </trkpt>
      <trkpt lat="43.643897" lon="-8.101313">
        <ele>23.261</ele>
        <time>2016-09-26T11:24:58Z</time>
      </trkpt>
      <trkpt lat="43.643886" lon="-8.101342">
        <ele>23.415</ele>
        <time>2016-09-26T11:24:59Z</time>
      </trkpt>
      <trkpt lat="43.643873" lon="-8.101371">
        <ele>23.657</ele>
        <time>2016-09-26T11:25:00Z</time>
      </trkpt>
      <trkpt lat="43.643860" lon="-8.101400">
        <ele>23.910</ele>
        <time>2016-09-26T11:25:01Z</time>
      </trkpt>
      <trkpt lat="43.643849" lon="-8.101432">
        <ele>24.368</ele>
        <time>2016-09-26T11:25:02Z</time>
      </trkpt>
      <trkpt lat="43.643838" lon="-8.101460">
        <ele>24.637</ele>
        <time>2016-09-26T11:25:03Z</time>
      </trkpt>
      <trkpt lat="43.643829" lon="-8.101486">
        <ele>24.849</ele>
        <time>2016-09-26T11:25:04Z</time>
      </trkpt>
      <trkpt lat="43.643821" lon="-8.101512">
        <ele>25.013</ele>
        <time>2016-09-26T11:25:05Z</time>
      </trkpt>
      <trkpt lat="43.643811" lon="-8.101535">
        <ele>25.208</ele>
        <time>2016-09-26T11:25:06Z</time>
      </trkpt>
      <trkpt lat="43.643801" lon="-8.101557">
        <ele>25.444</ele>
        <time>2016-09-26T11:25:07Z</time>
      </trkpt>
      <trkpt lat="43.643788" lon="-8.101577">
        <ele>25.719</ele>
        <time>2016-09-26T11:25:08Z</time>
      </trkpt>
      <trkpt lat="43.643778" lon="-8.101601">
        <ele>25.817</ele>
        <time>2016-09-26T11:25:09Z</time>
      </trkpt>
      <trkpt lat="43.643764" lon="-8.101621">
        <ele>26.113</ele>
        <time>2016-09-26T11:25:10Z</time>
      </trkpt>
      <trkpt lat="43.643753" lon="-8.101644">
        <ele>26.277</ele>
        <time>2016-09-26T11:25:11Z</time>
      </trkpt>
      <trkpt lat="43.643739" lon="-8.101663">
        <ele>26.479</ele>
        <time>2016-09-26T11:25:12Z</time>
      </trkpt>
      <trkpt lat="43.643724" lon="-8.101681">
        <ele>26.732</ele>
        <time>2016-09-26T11:25:13Z</time>
      </trkpt>
      <trkpt lat="43.643711" lon="-8.101701">
        <ele>26.820</ele>
        <time>2016-09-26T11:25:14Z</time>
      </trkpt>
      <trkpt lat="43.643699" lon="-8.101725">
        <ele>26.918</ele>
        <time>2016-09-26T11:25:15Z</time>
      </trkpt>
      <trkpt lat="43.643683" lon="-8.101746">
        <ele>27.098</ele>
        <time>2016-09-26T11:25:16Z</time>
      </trkpt>
      <trkpt lat="43.643668" lon="-8.101768">
        <ele>27.117</ele>
        <time>2016-09-26T11:25:17Z</time>
      </trkpt>
      <trkpt lat="43.643655" lon="-8.101789">
        <ele>27.308</ele>
        <time>2016-09-26T11:25:18Z</time>
      </trkpt>
      <trkpt lat="43.643642" lon="-8.101807">
        <ele>27.452</ele>
        <time>2016-09-26T11:25:19Z</time>
      </trkpt>
      <trkpt lat="43.643630" lon="-8.101824">
        <ele>27.637</ele>
        <time>2016-09-26T11:25:20Z</time>
      </trkpt>
      <trkpt lat="43.643618" lon="-8.101847">
        <ele>27.885</ele>
        <time>2016-09-26T11:25:21Z</time>
      </trkpt>
      <trkpt lat="43.643606" lon="-8.101868">
        <ele>28.111</ele>
        <time>2016-09-26T11:25:22Z</time>
      </trkpt>
      <trkpt lat="43.643593" lon="-8.101889">
        <ele>28.275</ele>
        <time>2016-09-26T11:25:23Z</time>
      </trkpt>
      <trkpt lat="43.643579" lon="-8.101912">
        <ele>28.427</ele>
        <time>2016-09-26T11:25:24Z</time>
      </trkpt>
      <trkpt lat="43.643565" lon="-8.101933">
        <ele>28.580</ele>
        <time>2016-09-26T11:25:25Z</time>
      </trkpt>
      <trkpt lat="43.643552" lon="-8.101953">
        <ele>28.528</ele>
        <time>2016-09-26T11:25:26Z</time>
      </trkpt>
      <trkpt lat="43.643540" lon="-8.101974">
        <ele>28.749</ele>
        <time>2016-09-26T11:25:27Z</time>
      </trkpt>
      <trkpt lat="43.643527" lon="-8.101994">
        <ele>29.102</ele>
        <time>2016-09-26T11:25:28Z</time>
      </trkpt>
      <trkpt lat="43.643515" lon="-8.102013">
        <ele>29.322</ele>
        <time>2016-09-26T11:25:29Z</time>
      </trkpt>
      <trkpt lat="43.643503" lon="-8.102034">
        <ele>29.508</ele>
        <time>2016-09-26T11:25:30Z</time>
      </trkpt>
      <trkpt lat="43.643491" lon="-8.102054">
        <ele>29.675</ele>
        <time>2016-09-26T11:25:31Z</time>
      </trkpt>
      <trkpt lat="43.643479" lon="-8.102075">
        <ele>29.770</ele>
        <time>2016-09-26T11:25:32Z</time>
      </trkpt>
      <trkpt lat="43.643466" lon="-8.102093">
        <ele>29.828</ele>
        <time>2016-09-26T11:25:33Z</time>
      </trkpt>
      <trkpt lat="43.643453" lon="-8.102111">
        <ele>29.934</ele>
        <time>2016-09-26T11:25:34Z</time>
      </trkpt>
      <trkpt lat="43.643441" lon="-8.102133">
        <ele>30.018</ele>
        <time>2016-09-26T11:25:35Z</time>
      </trkpt>
      <trkpt lat="43.643430" lon="-8.102154">
        <ele>30.160</ele>
        <time>2016-09-26T11:25:36Z</time>
      </trkpt>
      <trkpt lat="43.643418" lon="-8.102173">
        <ele>30.463</ele>
        <time>2016-09-26T11:25:37Z</time>
      </trkpt>
      <trkpt lat="43.643407" lon="-8.102193">
        <ele>30.851</ele>
        <time>2016-09-26T11:25:38Z</time>
      </trkpt>
      <trkpt lat="43.643395" lon="-8.102214">
        <ele>31.022</ele>
        <time>2016-09-26T11:25:39Z</time>
      </trkpt>
      <trkpt lat="43.643384" lon="-8.102232">
        <ele>31.262</ele>
        <time>2016-09-26T11:25:40Z</time>
      </trkpt>
      <trkpt lat="43.643373" lon="-8.102247">
        <ele>31.508</ele>
        <time>2016-09-26T11:25:41Z</time>
      </trkpt>
      <trkpt lat="43.643363" lon="-8.102260">
        <ele>31.708</ele>
        <time>2016-09-26T11:25:42Z</time>
      </trkpt>
      <trkpt lat="43.643356" lon="-8.102275">
        <ele>31.913</ele>
        <time>2016-09-26T11:25:43Z</time>
      </trkpt>
      <trkpt lat="43.643348" lon="-8.102288">
        <ele>31.918</ele>
        <time>2016-09-26T11:25:44Z</time>
      </trkpt>
      <trkpt lat="43.643341" lon="-8.102304">
        <ele>32.366</ele>
        <time>2016-09-26T11:25:45Z</time>
      </trkpt>
      <trkpt lat="43.643331" lon="-8.102323">
        <ele>32.632</ele>
        <time>2016-09-26T11:25:46Z</time>
      </trkpt>
      <trkpt lat="43.643323" lon="-8.102342">
        <ele>32.836</ele>
        <time>2016-09-26T11:25:47Z</time>
      </trkpt>
      <trkpt lat="43.643315" lon="-8.102360">
        <ele>33.038</ele>
        <time>2016-09-26T11:25:48Z</time>
      </trkpt>
      <trkpt lat="43.643305" lon="-8.102378">
        <ele>33.371</ele>
        <time>2016-09-26T11:25:49Z</time>
      </trkpt>
      <trkpt lat="43.643297" lon="-8.102397">
        <ele>33.389</ele>
        <time>2016-09-26T11:25:50Z</time>
      </trkpt>
      <trkpt lat="43.643291" lon="-8.102417">
        <ele>33.566</ele>
        <time>2016-09-26T11:25:51Z</time>
      </trkpt>
      <trkpt lat="43.643284" lon="-8.102434">
        <ele>33.729</ele>
        <time>2016-09-26T11:25:52Z</time>
      </trkpt>
      <trkpt lat="43.643275" lon="-8.102451">
        <ele>33.721</ele>
        <time>2016-09-26T11:25:53Z</time>
      </trkpt>
      <trkpt lat="43.643266" lon="-8.102469">
        <ele>33.908</ele>
        <time>2016-09-26T11:25:54Z</time>
      </trkpt>
      <trkpt lat="43.643258" lon="-8.102489">
        <ele>34.017</ele>
        <time>2016-09-26T11:25:55Z</time>
      </trkpt>
      <trkpt lat="43.643249" lon="-8.102507">
        <ele>34.172</ele>
        <time>2016-09-26T11:25:56Z</time>
      </trkpt>
      <trkpt lat="43.643241" lon="-8.102525">
        <ele>34.330</ele>
        <time>2016-09-26T11:25:57Z</time>
      </trkpt>
      <trkpt lat="43.643232" lon="-8.102543">
        <ele>34.546</ele>
        <time>2016-09-26T11:25:58Z</time>
      </trkpt>
      <trkpt lat="43.643224" lon="-8.102559">
        <ele>34.790</ele>
        <time>2016-09-26T11:25:59Z</time>
      </trkpt>
      <trkpt lat="43.643213" lon="-8.102576">
        <ele>34.892</ele>
        <time>2016-09-26T11:26:00Z</time>
      </trkpt>
      <trkpt lat="43.643202" lon="-8.102595">
        <ele>35.195</ele>
        <time>2016-09-26T11:26:01Z</time>
      </trkpt>
      <trkpt lat="43.643193" lon="-8.102615">
        <ele>35.393</ele>
        <time>2016-09-26T11:26:02Z</time>
      </trkpt>
      <trkpt lat="43.643181" lon="-8.102633">
        <ele>35.411</ele>
        <time>2016-09-26T11:26:03Z</time>
      </trkpt>
      <trkpt lat="43.643170" lon="-8.102650">
        <ele>35.421</ele>
        <time>2016-09-26T11:26:04Z</time>
      </trkpt>
      <trkpt lat="43.643158" lon="-8.102667">
        <ele>35.703</ele>
        <time>2016-09-26T11:26:05Z</time>
      </trkpt>
      <trkpt lat="43.643147" lon="-8.102686">
        <ele>35.908</ele>
        <time>2016-09-26T11:26:06Z</time>
      </trkpt>
      <trkpt lat="43.643137" lon="-8.102705">
        <ele>36.082</ele>
        <time>2016-09-26T11:26:07Z</time>
      </trkpt>
      <trkpt lat="43.643128" lon="-8.102722">
        <ele>36.357</ele>
        <time>2016-09-26T11:26:08Z</time>
      </trkpt>
      <trkpt lat="43.643120" lon="-8.102742">
        <ele>36.565</ele>
        <time>2016-09-26T11:26:09Z</time>
      </trkpt>
      <trkpt lat="43.643113" lon="-8.102761">
        <ele>36.761</ele>
        <time>2016-09-26T11:26:10Z</time>
      </trkpt>
      <trkpt lat="43.643103" lon="-8.102781">
        <ele>36.815</ele>
        <time>2016-09-26T11:26:11Z</time>
      </trkpt>
      <trkpt lat="43.643094" lon="-8.102801">
        <ele>36.937</ele>
        <time>2016-09-26T11:26:12Z</time>
      </trkpt>
      <trkpt lat="43.643083" lon="-8.102820">
        <ele>37.280</ele>
        <time>2016-09-26T11:26:13Z</time>
      </trkpt>
      <trkpt lat="43.643073" lon="-8.102838">
        <ele>37.378</ele>
        <time>2016-09-26T11:26:14Z</time>
      </trkpt>
      <trkpt lat="43.643061" lon="-8.102855">
        <ele>37.391</ele>
        <time>2016-09-26T11:26:15Z</time>
      </trkpt>
      <trkpt lat="43.643050" lon="-8.102872">
        <ele>37.581</ele>
        <time>2016-09-26T11:26:16Z</time>
      </trkpt>
      <trkpt lat="43.643038" lon="-8.102889">
        <ele>37.819</ele>
        <time>2016-09-26T11:26:17Z</time>
      </trkpt>
      <trkpt lat="43.643026" lon="-8.102906">
        <ele>37.908</ele>
        <time>2016-09-26T11:26:18Z</time>
      </trkpt>
      <trkpt lat="43.643013" lon="-8.102922">
        <ele>38.070</ele>
        <time>2016-09-26T11:26:19Z</time>
      </trkpt>
      <trkpt lat="43.643001" lon="-8.102937">
        <ele>38.095</ele>
        <time>2016-09-26T11:26:20Z</time>
      </trkpt>
      <trkpt lat="43.642990" lon="-8.102956">
        <ele>37.983</ele>
        <time>2016-09-26T11:26:21Z</time>
      </trkpt>
      <trkpt lat="43.642980" lon="-8.102973">
        <ele>38.029</ele>
        <time>2016-09-26T11:26:22Z</time>
      </trkpt>
      <trkpt lat="43.642970" lon="-8.102992">
        <ele>38.153</ele>
        <time>2016-09-26T11:26:23Z</time>
      </trkpt>
      <trkpt lat="43.642958" lon="-8.103012">
        <ele>38.245</ele>
        <time>2016-09-26T11:26:24Z</time>
      </trkpt>
      <trkpt lat="43.642947" lon="-8.103031">
        <ele>38.318</ele>
        <time>2016-09-26T11:26:25Z</time>
      </trkpt>
      <trkpt lat="43.642936" lon="-8.103051">
        <ele>38.516</ele>
        <time>2016-09-26T11:26:26Z</time>
      </trkpt>
      <trkpt lat="43.642923" lon="-8.103074">
        <ele>38.991</ele>
        <time>2016-09-26T11:26:27Z</time>
      </trkpt>
      <trkpt lat="43.642909" lon="-8.103093">
        <ele>39.081</ele>
        <time>2016-09-26T11:26:28Z</time>
      </trkpt>
      <trkpt lat="43.642895" lon="-8.103107">
        <ele>39.419</ele>
        <time>2016-09-26T11:26:29Z</time>
      </trkpt>
      <trkpt lat="43.642883" lon="-8.103125">
        <ele>39.508</ele>
        <time>2016-09-26T11:26:30Z</time>
      </trkpt>
      <trkpt lat="43.642872" lon="-8.103142">
        <ele>39.650</ele>
        <time>2016-09-26T11:26:31Z</time>
      </trkpt>
      <trkpt lat="43.642862" lon="-8.103160">
        <ele>39.895</ele>
        <time>2016-09-26T11:26:32Z</time>
      </trkpt>
      <trkpt lat="43.642854" lon="-8.103176">
        <ele>39.813</ele>
        <time>2016-09-26T11:26:33Z</time>
      </trkpt>
      <trkpt lat="43.642847" lon="-8.103193">
        <ele>39.929</ele>
        <time>2016-09-26T11:26:34Z</time>
      </trkpt>
      <trkpt lat="43.642838" lon="-8.103207">
        <ele>40.133</ele>
        <time>2016-09-26T11:26:35Z</time>
      </trkpt>
      <trkpt lat="43.642825" lon="-8.103221">
        <ele>40.375</ele>
        <time>2016-09-26T11:26:36Z</time>
      </trkpt>
      <trkpt lat="43.642813" lon="-8.103233">
        <ele>40.448</ele>
        <time>2016-09-26T11:26:37Z</time>
      </trkpt>
      <trkpt lat="43.642804" lon="-8.103246">
        <ele>40.636</ele>
        <time>2016-09-26T11:26:38Z</time>
      </trkpt>
      <trkpt lat="43.642792" lon="-8.103262">
        <ele>40.862</ele>
        <time>2016-09-26T11:26:39Z</time>
      </trkpt>
      <trkpt lat="43.642780" lon="-8.103277">
        <ele>40.983</ele>
        <time>2016-09-26T11:26:40Z</time>
      </trkpt>
      <trkpt lat="43.642772" lon="-8.103298">
        <ele>41.111</ele>
        <time>2016-09-26T11:26:41Z</time>
      </trkpt>
      <trkpt lat="43.642760" lon="-8.103315">
        <ele>41.408</ele>
        <time>2016-09-26T11:26:42Z</time>
      </trkpt>
      <trkpt lat="43.642749" lon="-8.103333">
        <ele>41.567</ele>
        <time>2016-09-26T11:26:43Z</time>
      </trkpt>
      <trkpt lat="43.642742" lon="-8.103352">
        <ele>41.682</ele>
        <time>2016-09-26T11:26:44Z</time>
      </trkpt>
      <trkpt lat="43.642734" lon="-8.103373">
        <ele>41.750</ele>
        <time>2016-09-26T11:26:45Z</time>
      </trkpt>
      <trkpt lat="43.642721" lon="-8.103392">
        <ele>41.916</ele>
        <time>2016-09-26T11:26:46Z</time>
      </trkpt>
      <trkpt lat="43.642711" lon="-8.103412">
        <ele>42.150</ele>
        <time>2016-09-26T11:26:47Z</time>
      </trkpt>
      <trkpt lat="43.642699" lon="-8.103432">
        <ele>42.222</ele>
        <time>2016-09-26T11:26:48Z</time>
      </trkpt>
      <trkpt lat="43.642689" lon="-8.103454">
        <ele>42.335</ele>
        <time>2016-09-26T11:26:49Z</time>
      </trkpt>
      <trkpt lat="43.642682" lon="-8.103478">
        <ele>42.493</ele>
        <time>2016-09-26T11:26:50Z</time>
      </trkpt>
      <trkpt lat="43.642671" lon="-8.103498">
        <ele>42.767</ele>
        <time>2016-09-26T11:26:51Z</time>
      </trkpt>
      <trkpt lat="43.642660" lon="-8.103521">
        <ele>42.881</ele>
        <time>2016-09-26T11:26:52Z</time>
      </trkpt>
      <trkpt lat="43.642651" lon="-8.103543">
        <ele>43.119</ele>
        <time>2016-09-26T11:26:53Z</time>
      </trkpt>
      <trkpt lat="43.642643" lon="-8.103565">
        <ele>43.408</ele>
        <time>2016-09-26T11:26:54Z</time>
      </trkpt>
      <trkpt lat="43.642632" lon="-8.103585">
        <ele>43.667</ele>
        <time>2016-09-26T11:26:55Z</time>
      </trkpt>
      <trkpt lat="43.642621" lon="-8.103602">
        <ele>43.782</ele>
        <time>2016-09-26T11:26:56Z</time>
      </trkpt>
      <trkpt lat="43.642610" lon="-8.103619">
        <ele>43.740</ele>
        <time>2016-09-26T11:26:57Z</time>
      </trkpt>
      <trkpt lat="43.642598" lon="-8.103634">
        <ele>43.996</ele>
        <time>2016-09-26T11:26:58Z</time>
      </trkpt>
      <trkpt lat="43.642585" lon="-8.103648">
        <ele>44.190</ele>
        <time>2016-09-26T11:26:59Z</time>
      </trkpt>
      <trkpt lat="43.642573" lon="-8.103662">
        <ele>44.232</ele>
        <time>2016-09-26T11:27:00Z</time>
      </trkpt>
      <trkpt lat="43.642561" lon="-8.103674">
        <ele>44.595</ele>
        <time>2016-09-26T11:27:01Z</time>
      </trkpt>
      <trkpt lat="43.642550" lon="-8.103688">
        <ele>44.843</ele>
        <time>2016-09-26T11:27:02Z</time>
      </trkpt>
      <trkpt lat="43.642538" lon="-8.103699">
        <ele>44.915</ele>
        <time>2016-09-26T11:27:03Z</time>
      </trkpt>
      <trkpt lat="43.642524" lon="-8.103712">
        <ele>45.265</ele>
        <time>2016-09-26T11:27:04Z</time>
      </trkpt>
      <trkpt lat="43.642511" lon="-8.103722">
        <ele>45.411</ele>
        <time>2016-09-26T11:27:05Z</time>
      </trkpt>
      <trkpt lat="43.642498" lon="-8.103733">
        <ele>45.608</ele>
        <time>2016-09-26T11:27:06Z</time>
      </trkpt>
      <trkpt lat="43.642484" lon="-8.103745">
        <ele>45.962</ele>
        <time>2016-09-26T11:27:07Z</time>
      </trkpt>
      <trkpt lat="43.642468" lon="-8.103757">
        <ele>46.147</ele>
        <time>2016-09-26T11:27:08Z</time>
      </trkpt>
      <trkpt lat="43.642453" lon="-8.103770">
        <ele>46.275</ele>
        <time>2016-09-26T11:27:09Z</time>
      </trkpt>
      <trkpt lat="43.642439" lon="-8.103782">
        <ele>46.371</ele>
        <time>2016-09-26T11:27:10Z</time>
      </trkpt>
      <trkpt lat="43.642422" lon="-8.103794">
        <ele>46.555</ele>
        <time>2016-09-26T11:27:11Z</time>
      </trkpt>
      <trkpt lat="43.642404" lon="-8.103808">
        <ele>46.537</ele>
        <time>2016-09-26T11:27:12Z</time>
      </trkpt>
      <trkpt lat="43.642387" lon="-8.103819">
        <ele>46.670</ele>
        <time>2016-09-26T11:27:13Z</time>
      </trkpt>
      <trkpt lat="43.642370" lon="-8.103830">
        <ele>46.998</ele>
        <time>2016-09-26T11:27:14Z</time>
      </trkpt>
      <trkpt lat="43.642353" lon="-8.103841">
        <ele>46.976</ele>
        <time>2016-09-26T11:27:15Z</time>
      </trkpt>
      <trkpt lat="43.642336" lon="-8.103852">
        <ele>46.990</ele>
        <time>2016-09-26T11:27:16Z</time>
      </trkpt>
      <trkpt lat="43.642318" lon="-8.103864">
        <ele>47.219</ele>
        <time>2016-09-26T11:27:17Z</time>
      </trkpt>
      <trkpt lat="43.642298" lon="-8.103873">
        <ele>47.308</ele>
        <time>2016-09-26T11:27:18Z</time>
      </trkpt>
      <trkpt lat="43.642280" lon="-8.103885">
        <ele>47.548</ele>
        <time>2016-09-26T11:27:19Z</time>
      </trkpt>
      <trkpt lat="43.642262" lon="-8.103898">
        <ele>47.593</ele>
        <time>2016-09-26T11:27:20Z</time>
      </trkpt>
      <trkpt lat="43.642241" lon="-8.103909">
        <ele>47.721</ele>
        <time>2016-09-26T11:27:21Z</time>
      </trkpt>
      <trkpt lat="43.642220" lon="-8.103921">
        <ele>47.757</ele>
        <time>2016-09-26T11:27:22Z</time>
      </trkpt>
      <trkpt lat="43.642199" lon="-8.103934">
        <ele>47.821</ele>
        <time>2016-09-26T11:27:23Z</time>
      </trkpt>
      <trkpt lat="43.642178" lon="-8.103947">
        <ele>47.813</ele>
        <time>2016-09-26T11:27:24Z</time>
      </trkpt>
      <trkpt lat="43.642155" lon="-8.103959">
        <ele>47.756</ele>
        <time>2016-09-26T11:27:25Z</time>
      </trkpt>
      <trkpt lat="43.642133" lon="-8.103971">
        <ele>47.924</ele>
        <time>2016-09-26T11:27:26Z</time>
      </trkpt>
      <trkpt lat="43.642110" lon="-8.103985">
        <ele>48.195</ele>
        <time>2016-09-26T11:27:27Z</time>
      </trkpt>
      <trkpt lat="43.642088" lon="-8.104000">
        <ele>48.349</ele>
        <time>2016-09-26T11:27:28Z</time>
      </trkpt>
      <trkpt lat="43.642064" lon="-8.104017">
        <ele>48.323</ele>
        <time>2016-09-26T11:27:29Z</time>
      </trkpt>
      <trkpt lat="43.642040" lon="-8.104037">
        <ele>48.408</ele>
        <time>2016-09-26T11:27:30Z</time>
      </trkpt>
      <trkpt lat="43.642017" lon="-8.104054">
        <ele>48.490</ele>
        <time>2016-09-26T11:27:31Z</time>
      </trkpt>
      <trkpt lat="43.641993" lon="-8.104072">
        <ele>48.325</ele>
        <time>2016-09-26T11:27:32Z</time>
      </trkpt>
      <trkpt lat="43.641970" lon="-8.104091">
        <ele>48.333</ele>
        <time>2016-09-26T11:27:33Z</time>
      </trkpt>
      <trkpt lat="43.641948" lon="-8.104111">
        <ele>48.469</ele>
        <time>2016-09-26T11:27:34Z</time>
      </trkpt>
      <trkpt lat="43.641926" lon="-8.104132">
        <ele>48.383</ele>
        <time>2016-09-26T11:27:35Z</time>
      </trkpt>
      <trkpt lat="43.641903" lon="-8.104152">
        <ele>48.425</ele>
        <time>2016-09-26T11:27:36Z</time>
      </trkpt>
      <trkpt lat="43.641881" lon="-8.104173">
        <ele>48.548</ele>
        <time>2016-09-26T11:27:37Z</time>
      </trkpt>
      <trkpt lat="43.641857" lon="-8.104196">
        <ele>48.436</ele>
        <time>2016-09-26T11:27:38Z</time>
      </trkpt>
      <trkpt lat="43.641832" lon="-8.104218">
        <ele>48.685</ele>
        <time>2016-09-26T11:27:39Z</time>
      </trkpt>
      <trkpt lat="43.641807" lon="-8.104242">
        <ele>48.789</ele>
        <time>2016-09-26T11:27:40Z</time>
      </trkpt>
      <trkpt lat="43.641783" lon="-8.104266">
        <ele>48.717</ele>
        <time>2016-09-26T11:27:41Z</time>
      </trkpt>
      <trkpt lat="43.641758" lon="-8.104292">
        <ele>48.708</ele>
        <time>2016-09-26T11:27:42Z</time>
      </trkpt>
      <trkpt lat="43.641733" lon="-8.104317">
        <ele>48.739</ele>
        <time>2016-09-26T11:27:43Z</time>
      </trkpt>
      <trkpt lat="43.641708" lon="-8.104342">
        <ele>48.764</ele>
        <time>2016-09-26T11:27:44Z</time>
      </trkpt>
      <trkpt lat="43.641682" lon="-8.104367">
        <ele>48.912</ele>
        <time>2016-09-26T11:27:45Z</time>
      </trkpt>
      <trkpt lat="43.641656" lon="-8.104393">
        <ele>49.258</ele>
        <time>2016-09-26T11:27:46Z</time>
      </trkpt>
      <trkpt lat="43.641630" lon="-8.104420">
        <ele>49.252</ele>
        <time>2016-09-26T11:27:47Z</time>
      </trkpt>
      <trkpt lat="43.641601" lon="-8.104446">
        <ele>49.294</ele>
        <time>2016-09-26T11:27:48Z</time>
      </trkpt>
      <trkpt lat="43.641572" lon="-8.104470">
        <ele>49.117</ele>
        <time>2016-09-26T11:27:49Z</time>
      </trkpt>
      <trkpt lat="43.641544" lon="-8.104495">
        <ele>49.115</ele>
        <time>2016-09-26T11:27:50Z</time>
      </trkpt>
      <trkpt lat="43.641517" lon="-8.104517">
        <ele>49.235</ele>
        <time>2016-09-26T11:27:51Z</time>
      </trkpt>
      <trkpt lat="43.641492" lon="-8.104536">
        <ele>49.186</ele>
        <time>2016-09-26T11:27:52Z</time>
      </trkpt>
      <trkpt lat="43.641469" lon="-8.104554">
        <ele>49.114</ele>
        <time>2016-09-26T11:27:53Z</time>
      </trkpt>
      <trkpt lat="43.641449" lon="-8.104571">
        <ele>49.108</ele>
        <time>2016-09-26T11:27:54Z</time>
      </trkpt>
      <trkpt lat="43.641430" lon="-8.104591">
        <ele>49.334</ele>
        <time>2016-09-26T11:27:55Z</time>
      </trkpt>
      <trkpt lat="43.641412" lon="-8.104618">
        <ele>49.329</ele>
        <time>2016-09-26T11:27:56Z</time>
      </trkpt>
      <trkpt lat="43.641394" lon="-8.104663">
        <ele>49.237</ele>
        <time>2016-09-26T11:27:57Z</time>
      </trkpt>
      <trkpt lat="43.641368" lon="-8.104714">
        <ele>48.893</ele>
        <time>2016-09-26T11:27:58Z</time>
      </trkpt>
      <trkpt lat="43.641334" lon="-8.104757">
        <ele>48.657</ele>
        <time>2016-09-26T11:27:59Z</time>
      </trkpt>
      <trkpt lat="43.641291" lon="-8.104783">
        <ele>48.449</ele>
        <time>2016-09-26T11:28:00Z</time>
      </trkpt>
      <trkpt lat="43.641238" lon="-8.104791">
        <ele>48.162</ele>
        <time>2016-09-26T11:28:01Z</time>
      </trkpt>
      <trkpt lat="43.641182" lon="-8.104786">
        <ele>47.950</ele>
        <time>2016-09-26T11:28:02Z</time>
      </trkpt>
      <trkpt lat="43.641121" lon="-8.104773">
        <ele>47.483</ele>
        <time>2016-09-26T11:28:03Z</time>
      </trkpt>
      <trkpt lat="43.641054" lon="-8.104762">
        <ele>47.125</ele>
        <time>2016-09-26T11:28:04Z</time>
      </trkpt>
      <trkpt lat="43.640983" lon="-8.104754">
        <ele>46.617</ele>
        <time>2016-09-26T11:28:05Z</time>
      </trkpt>
      <trkpt lat="43.640910" lon="-8.104760">
        <ele>45.908</ele>
        <time>2016-09-26T11:28:06Z</time>
      </trkpt>
      <trkpt lat="43.640839" lon="-8.104778">
        <ele>45.229</ele>
        <time>2016-09-26T11:28:07Z</time>
      </trkpt>
      <trkpt lat="43.640766" lon="-8.104811">
        <ele>44.774</ele>
        <time>2016-09-26T11:28:08Z</time>
      </trkpt>
      <trkpt lat="43.640689" lon="-8.104856">
        <ele>44.172</ele>
        <time>2016-09-26T11:28:09Z</time>
      </trkpt>
      <trkpt lat="43.640610" lon="-8.104913">
        <ele>43.628</ele>
        <time>2016-09-26T11:28:10Z</time>
      </trkpt>
      <trkpt lat="43.640537" lon="-8.104969">
        <ele>42.982</ele>
        <time>2016-09-26T11:28:11Z</time>
      </trkpt>
      <trkpt lat="43.640460" lon="-8.105022">
        <ele>42.454</ele>
        <time>2016-09-26T11:28:12Z</time>
      </trkpt>
      <trkpt lat="43.640379" lon="-8.105073">
        <ele>41.717</ele>
        <time>2016-09-26T11:28:13Z</time>
      </trkpt>
      <trkpt lat="43.640295" lon="-8.105123">
        <ele>41.375</ele>
        <time>2016-09-26T11:28:14Z</time>
      </trkpt>
      <trkpt lat="43.640213" lon="-8.105167">
        <ele>40.643</ele>
        <time>2016-09-26T11:28:15Z</time>
      </trkpt>
      <trkpt lat="43.640126" lon="-8.105218">
        <ele>40.164</ele>
        <time>2016-09-26T11:28:16Z</time>
      </trkpt>
      <trkpt lat="43.640038" lon="-8.105267">
        <ele>39.610</ele>
        <time>2016-09-26T11:28:17Z</time>
      </trkpt>
      <trkpt lat="43.639946" lon="-8.105319">
        <ele>38.708</ele>
        <time>2016-09-26T11:28:18Z</time>
      </trkpt>
      <trkpt lat="43.639859" lon="-8.105366">
        <ele>38.255</ele>
        <time>2016-09-26T11:28:19Z</time>
      </trkpt>
      <trkpt lat="43.639772" lon="-8.105415">
        <ele>37.580</ele>
        <time>2016-09-26T11:28:20Z</time>
      </trkpt>
      <trkpt lat="43.639691" lon="-8.105460">
        <ele>36.638</ele>
        <time>2016-09-26T11:28:21Z</time>
      </trkpt>
      <trkpt lat="43.639611" lon="-8.105511">
        <ele>36.174</ele>
        <time>2016-09-26T11:28:22Z</time>
      </trkpt>
      <trkpt lat="43.639534" lon="-8.105573">
        <ele>35.598</ele>
        <time>2016-09-26T11:28:23Z</time>
      </trkpt>
      <trkpt lat="43.639460" lon="-8.105641">
        <ele>34.670</ele>
        <time>2016-09-26T11:28:24Z</time>
      </trkpt>
      <trkpt lat="43.639388" lon="-8.105717">
        <ele>34.113</ele>
        <time>2016-09-26T11:28:25Z</time>
      </trkpt>
      <trkpt lat="43.639321" lon="-8.105793">
        <ele>33.381</ele>
        <time>2016-09-26T11:28:26Z</time>
      </trkpt>
      <trkpt lat="43.639260" lon="-8.105861">
        <ele>32.448</ele>
        <time>2016-09-26T11:28:27Z</time>
      </trkpt>
      <trkpt lat="43.639205" lon="-8.105926">
        <ele>31.561</ele>
        <time>2016-09-26T11:28:28Z</time>
      </trkpt>
      <trkpt lat="43.639150" lon="-8.105994">
        <ele>31.017</ele>
        <time>2016-09-26T11:28:29Z</time>
      </trkpt>
      <trkpt lat="43.639100" lon="-8.106063">
        <ele>30.308</ele>
        <time>2016-09-26T11:28:30Z</time>
      </trkpt>
      <trkpt lat="43.639059" lon="-8.106142">
        <ele>29.665</ele>
        <time>2016-09-26T11:28:31Z</time>
      </trkpt>
      <trkpt lat="43.639028" lon="-8.106237">
        <ele>29.080</ele>
        <time>2016-09-26T11:28:32Z</time>
      </trkpt>
      <trkpt lat="43.639005" lon="-8.106343">
        <ele>28.468</ele>
        <time>2016-09-26T11:28:33Z</time>
      </trkpt>
      <trkpt lat="43.638984" lon="-8.106457">
        <ele>27.944</ele>
        <time>2016-09-26T11:28:34Z</time>
      </trkpt>
      <trkpt lat="43.638964" lon="-8.106577">
        <ele>27.278</ele>
        <time>2016-09-26T11:28:35Z</time>
      </trkpt>
      <trkpt lat="43.638944" lon="-8.106704">
        <ele>26.410</ele>
        <time>2016-09-26T11:28:36Z</time>
      </trkpt>
      <trkpt lat="43.638919" lon="-8.106834">
        <ele>25.753</ele>
        <time>2016-09-26T11:28:37Z</time>
      </trkpt>
      <trkpt lat="43.638888" lon="-8.106962">
        <ele>24.991</ele>
        <time>2016-09-26T11:28:38Z</time>
      </trkpt>
      <trkpt lat="43.638856" lon="-8.107090">
        <ele>24.361</ele>
        <time>2016-09-26T11:28:39Z</time>
      </trkpt>
      <trkpt lat="43.638825" lon="-8.107216">
        <ele>24.021</ele>
        <time>2016-09-26T11:28:40Z</time>
      </trkpt>
      <trkpt lat="43.638794" lon="-8.107339">
        <ele>23.713</ele>
        <time>2016-09-26T11:28:41Z</time>
      </trkpt>
      <trkpt lat="43.638762" lon="-8.107458">
        <ele>23.408</ele>
        <time>2016-09-26T11:28:42Z</time>
      </trkpt>
      <trkpt lat="43.638731" lon="-8.107571">
        <ele>22.987</ele>
        <time>2016-09-26T11:28:43Z</time>
      </trkpt>
      <trkpt lat="43.638699" lon="-8.107680">
        <ele>22.472</ele>
        <time>2016-09-26T11:28:44Z</time>
      </trkpt>
      <trkpt lat="43.638669" lon="-8.107784">
        <ele>21.980</ele>
        <time>2016-09-26T11:28:45Z</time>
      </trkpt>
      <trkpt lat="43.638640" lon="-8.107881">
        <ele>21.346</ele>
        <time>2016-09-26T11:28:46Z</time>
      </trkpt>
      <trkpt lat="43.638614" lon="-8.107971">
        <ele>20.960</ele>
        <time>2016-09-26T11:28:47Z</time>
      </trkpt>
      <trkpt lat="43.638592" lon="-8.108052">
        <ele>20.762</ele>
        <time>2016-09-26T11:28:48Z</time>
      </trkpt>
      <trkpt lat="43.638574" lon="-8.108123">
        <ele>20.325</ele>
        <time>2016-09-26T11:28:49Z</time>
      </trkpt>
      <trkpt lat="43.638562" lon="-8.108182">
        <ele>20.093</ele>
        <time>2016-09-26T11:28:50Z</time>
      </trkpt>
      <trkpt lat="43.638556" lon="-8.108229">
        <ele>19.632</ele>
        <time>2016-09-26T11:28:51Z</time>
      </trkpt>
      <trkpt lat="43.638549" lon="-8.108271">
        <ele>19.492</ele>
        <time>2016-09-26T11:28:52Z</time>
      </trkpt>
      <trkpt lat="43.638541" lon="-8.108312">
        <ele>19.211</ele>
        <time>2016-09-26T11:28:53Z</time>
      </trkpt>
      <trkpt lat="43.638535" lon="-8.108354">
        <ele>19.108</ele>
        <time>2016-09-26T11:28:54Z</time>
      </trkpt>
      <trkpt lat="43.638533" lon="-8.108397">
        <ele>18.814</ele>
        <time>2016-09-26T11:28:55Z</time>
      </trkpt>
      <trkpt lat="43.638536" lon="-8.108439">
        <ele>18.679</ele>
        <time>2016-09-26T11:28:56Z</time>
      </trkpt>
      <trkpt lat="43.638539" lon="-8.108482">
        <ele>18.597</ele>
        <time>2016-09-26T11:28:57Z</time>
      </trkpt>
      <trkpt lat="43.638544" lon="-8.108527">
        <ele>18.363</ele>
        <time>2016-09-26T11:28:58Z</time>
      </trkpt>
      <trkpt lat="43.638550" lon="-8.108570">
        <ele>18.227</ele>
        <time>2016-09-26T11:28:59Z</time>
      </trkpt>
      <trkpt lat="43.638557" lon="-8.108614">
        <ele>18.189</ele>
        <time>2016-09-26T11:29:00Z</time>
      </trkpt>
      <trkpt lat="43.638566" lon="-8.108659">
        <ele>17.982</ele>
        <time>2016-09-26T11:29:01Z</time>
      </trkpt>
      <trkpt lat="43.638577" lon="-8.108705">
        <ele>17.890</ele>
        <time>2016-09-26T11:29:02Z</time>
      </trkpt>
      <trkpt lat="43.638590" lon="-8.108750">
        <ele>17.865</ele>
        <time>2016-09-26T11:29:03Z</time>
      </trkpt>
      <trkpt lat="43.638605" lon="-8.108792">
        <ele>17.768</ele>
        <time>2016-09-26T11:29:04Z</time>
      </trkpt>
      <trkpt lat="43.638622" lon="-8.108833">
        <ele>17.614</ele>
        <time>2016-09-26T11:29:05Z</time>
      </trkpt>
      <trkpt lat="43.638639" lon="-8.108871">
        <ele>17.408</ele>
        <time>2016-09-26T11:29:06Z</time>
      </trkpt>
      <trkpt lat="43.638655" lon="-8.108904">
        <ele>17.387</ele>
        <time>2016-09-26T11:29:07Z</time>
      </trkpt>
      <trkpt lat="43.638671" lon="-8.108934">
        <ele>17.382</ele>
        <time>2016-09-26T11:29:08Z</time>
      </trkpt>
      <trkpt lat="43.638688" lon="-8.108962">
        <ele>17.270</ele>
        <time>2016-09-26T11:29:09Z</time>
      </trkpt>
      <trkpt lat="43.638706" lon="-8.108988">
        <ele>17.196</ele>
        <time>2016-09-26T11:29:10Z</time>
      </trkpt>
      <trkpt lat="43.638725" lon="-8.109011">
        <ele>17.130</ele>
        <time>2016-09-26T11:29:11Z</time>
      </trkpt>
      <trkpt lat="43.638742" lon="-8.109035">
        <ele>17.182</ele>
        <time>2016-09-26T11:29:12Z</time>
      </trkpt>
      <trkpt lat="43.638758" lon="-8.109056">
        <ele>17.055</ele>
        <time>2016-09-26T11:29:13Z</time>
      </trkpt>
      <trkpt lat="43.638772" lon="-8.109076">
        <ele>17.133</ele>
        <time>2016-09-26T11:29:14Z</time>
      </trkpt>
      <trkpt lat="43.638787" lon="-8.109095">
        <ele>17.272</ele>
        <time>2016-09-26T11:29:15Z</time>
      </trkpt>
      <trkpt lat="43.638803" lon="-8.109116">
        <ele>17.313</ele>
        <time>2016-09-26T11:29:16Z</time>
      </trkpt>
      <trkpt lat="43.638818" lon="-8.109136">
        <ele>17.314</ele>
        <time>2016-09-26T11:29:17Z</time>
      </trkpt>
      <trkpt lat="43.638827" lon="-8.109158">
        <ele>17.308</ele>
        <time>2016-09-26T11:29:18Z</time>
      </trkpt>
      <trkpt lat="43.638837" lon="-8.109167">
        <ele>17.418</ele>
        <time>2016-09-26T11:29:19Z</time>
      </trkpt>
      <trkpt lat="43.638848" lon="-8.109178">
        <ele>17.563</ele>
        <time>2016-09-26T11:29:20Z</time>
      </trkpt>
      <trkpt lat="43.638859" lon="-8.109199">
        <ele>17.531</ele>
        <time>2016-09-26T11:29:21Z</time>
      </trkpt>
      <trkpt lat="43.638867" lon="-8.109224">
        <ele>17.557</ele>
        <time>2016-09-26T11:29:22Z</time>
      </trkpt>
      <trkpt lat="43.638873" lon="-8.109250">
        <ele>17.441</ele>
        <time>2016-09-26T11:29:23Z</time>
      </trkpt>
      <trkpt lat="43.638882" lon="-8.109276">
        <ele>17.473</ele>
        <time>2016-09-26T11:29:24Z</time>
      </trkpt>
      <trkpt lat="43.638891" lon="-8.109301">
        <ele>17.456</ele>
        <time>2016-09-26T11:29:25Z</time>
      </trkpt>
      <trkpt lat="43.638904" lon="-8.109323">
        <ele>17.454</ele>
        <time>2016-09-26T11:29:26Z</time>
      </trkpt>
      <trkpt lat="43.638919" lon="-8.109343">
        <ele>17.484</ele>
        <time>2016-09-26T11:29:27Z</time>
      </trkpt>
      <trkpt lat="43.638936" lon="-8.109363">
        <ele>17.407</ele>
        <time>2016-09-26T11:29:28Z</time>
      </trkpt>
      <trkpt lat="43.638957" lon="-8.109382">
        <ele>17.417</ele>
        <time>2016-09-26T11:29:29Z</time>
      </trkpt>
      <trkpt lat="43.638979" lon="-8.109402">
        <ele>17.308</ele>
        <time>2016-09-26T11:29:30Z</time>
      </trkpt>
      <trkpt lat="43.639000" lon="-8.109425">
        <ele>17.319</ele>
        <time>2016-09-26T11:29:31Z</time>
      </trkpt>
      <trkpt lat="43.639022" lon="-8.109452">
        <ele>17.274</ele>
        <time>2016-09-26T11:29:32Z</time>
      </trkpt>
      <trkpt lat="43.639047" lon="-8.109479">
        <ele>17.142</ele>
        <time>2016-09-26T11:29:33Z</time>
      </trkpt>
      <trkpt lat="43.639074" lon="-8.109504">
        <ele>16.918</ele>
        <time>2016-09-26T11:29:34Z</time>
      </trkpt>
      <trkpt lat="43.639104" lon="-8.109526">
        <ele>16.932</ele>
        <time>2016-09-26T11:29:35Z</time>
      </trkpt>
      <trkpt lat="43.639135" lon="-8.109547">
        <ele>16.814</ele>
        <time>2016-09-26T11:29:36Z</time>
      </trkpt>
      <trkpt lat="43.639167" lon="-8.109571">
        <ele>16.837</ele>
        <time>2016-09-26T11:29:37Z</time>
      </trkpt>
      <trkpt lat="43.639199" lon="-8.109600">
        <ele>16.965</ele>
        <time>2016-09-26T11:29:38Z</time>
      </trkpt>
      <trkpt lat="43.639229" lon="-8.109635">
        <ele>16.854</ele>
        <time>2016-09-26T11:29:39Z</time>
      </trkpt>
      <trkpt lat="43.639258" lon="-8.109671">
        <ele>16.756</ele>
        <time>2016-09-26T11:29:40Z</time>
      </trkpt>
      <trkpt lat="43.639292" lon="-8.109706">
        <ele>16.811</ele>
        <time>2016-09-26T11:29:41Z</time>
      </trkpt>
      <trkpt lat="43.639326" lon="-8.109737">
        <ele>16.708</ele>
        <time>2016-09-26T11:29:42Z</time>
      </trkpt>
      <trkpt lat="43.639359" lon="-8.109761">
        <ele>16.626</ele>
        <time>2016-09-26T11:29:43Z</time>
      </trkpt>
      <trkpt lat="43.639387" lon="-8.109778">
        <ele>16.211</ele>
        <time>2016-09-26T11:29:44Z</time>
      </trkpt>
      <trkpt lat="43.639410" lon="-8.109787">
        <ele>16.029</ele>
        <time>2016-09-26T11:29:45Z</time>
      </trkpt>
      <trkpt lat="43.639429" lon="-8.109794">
        <ele>15.765</ele>
        <time>2016-09-26T11:29:46Z</time>
      </trkpt>
      <trkpt lat="43.639443" lon="-8.109803">
        <ele>15.689</ele>
        <time>2016-09-26T11:29:47Z</time>
      </trkpt>
      <trkpt lat="43.639449" lon="-8.109808">
        <ele>15.431</ele>
        <time>2016-09-26T11:29:48Z</time>
      </trkpt>
      <trkpt lat="43.639450" lon="-8.109809">
        <ele>15.344</ele>
        <time>2016-09-26T11:29:49Z</time>
      </trkpt>
      <trkpt lat="43.639450" lon="-8.109808">
        <ele>15.292</ele>
        <time>2016-09-26T11:29:50Z</time>
      </trkpt>
      <trkpt lat="43.639452" lon="-8.109807">
        <ele>15.216</ele>
        <time>2016-09-26T11:29:51Z</time>
      </trkpt>
      <trkpt lat="43.639452" lon="-8.109807">
        <ele>15.276</ele>
        <time>2016-09-26T11:29:51Z</time>
      </trkpt>
      <trkpt lat="43.639452" lon="-8.109807">
        <ele>15.213</ele>
        <time>2016-09-26T11:29:51Z</time>
      </trkpt>
      <trkpt lat="43.639350" lon="-8.109787">
        <ele>12.708</ele>
        <time>2016-09-26T11:36:45Z</time>
      </trkpt>
      <trkpt lat="43.639330" lon="-8.109767">
        <ele>12.732</ele>
        <time>2016-09-26T11:36:46Z</time>
      </trkpt>
      <trkpt lat="43.639308" lon="-8.109746">
        <ele>12.727</ele>
        <time>2016-09-26T11:36:47Z</time>
      </trkpt>
      <trkpt lat="43.639286" lon="-8.109724">
        <ele>12.895</ele>
        <time>2016-09-26T11:36:48Z</time>
      </trkpt>
      <trkpt lat="43.639264" lon="-8.109702">
        <ele>12.951</ele>
        <time>2016-09-26T11:36:49Z</time>
      </trkpt>
      <trkpt lat="43.639242" lon="-8.109679">
        <ele>13.175</ele>
        <time>2016-09-26T11:36:50Z</time>
      </trkpt>
      <trkpt lat="43.639221" lon="-8.109656">
        <ele>13.227</ele>
        <time>2016-09-26T11:36:51Z</time>
      </trkpt>
      <trkpt lat="43.639200" lon="-8.109634">
        <ele>13.530</ele>
        <time>2016-09-26T11:36:52Z</time>
      </trkpt>
      <trkpt lat="43.639180" lon="-8.109613">
        <ele>13.648</ele>
        <time>2016-09-26T11:36:53Z</time>
      </trkpt>
      <trkpt lat="43.639158" lon="-8.109593">
        <ele>13.839</ele>
        <time>2016-09-26T11:36:54Z</time>
      </trkpt>
      <trkpt lat="43.639137" lon="-8.109575">
        <ele>14.001</ele>
        <time>2016-09-26T11:36:55Z</time>
      </trkpt>
      <trkpt lat="43.639117" lon="-8.109555">
        <ele>14.221</ele>
        <time>2016-09-26T11:36:56Z</time>
      </trkpt>
      <trkpt lat="43.639096" lon="-8.109536">
        <ele>14.208</ele>
        <time>2016-09-26T11:36:57Z</time>
      </trkpt>
      <trkpt lat="43.639076" lon="-8.109518">
        <ele>14.344</ele>
        <time>2016-09-26T11:36:58Z</time>
      </trkpt>
      <trkpt lat="43.639056" lon="-8.109500">
        <ele>14.339</ele>
        <time>2016-09-26T11:36:59Z</time>
      </trkpt>
      <trkpt lat="43.639034" lon="-8.109483">
        <ele>14.517</ele>
        <time>2016-09-26T11:37:00Z</time>
      </trkpt>
      <trkpt lat="43.639013" lon="-8.109466">
        <ele>14.453</ele>
        <time>2016-09-26T11:37:01Z</time>
      </trkpt>
      <trkpt lat="43.638993" lon="-8.109449">
        <ele>14.447</ele>
        <time>2016-09-26T11:37:02Z</time>
      </trkpt>
      <trkpt lat="43.638974" lon="-8.109431">
        <ele>14.589</ele>
        <time>2016-09-26T11:37:03Z</time>
      </trkpt>
      <trkpt lat="43.638954" lon="-8.109414">
        <ele>14.642</ele>
        <time>2016-09-26T11:37:04Z</time>
      </trkpt>
      <trkpt lat="43.638935" lon="-8.109397">
        <ele>14.710</ele>
        <time>2016-09-26T11:37:05Z</time>
      </trkpt>
      <trkpt lat="43.638916" lon="-8.109378">
        <ele>14.855</ele>
        <time>2016-09-26T11:37:06Z</time>
      </trkpt>
      <trkpt lat="43.638897" lon="-8.109361">
        <ele>14.807</ele>
        <time>2016-09-26T11:37:07Z</time>
      </trkpt>
      <trkpt lat="43.638879" lon="-8.109343">
        <ele>14.917</ele>
        <time>2016-09-26T11:37:08Z</time>
      </trkpt>
      <trkpt lat="43.638860" lon="-8.109328">
        <ele>15.108</ele>
        <time>2016-09-26T11:37:09Z</time>
      </trkpt>
      <trkpt lat="43.638840" lon="-8.109318">
        <ele>15.366</ele>
        <time>2016-09-26T11:37:10Z</time>
      </trkpt>
      <trkpt lat="43.638820" lon="-8.109311">
        <ele>15.371</ele>
        <time>2016-09-26T11:37:11Z</time>
      </trkpt>
      <trkpt lat="43.638800" lon="-8.109309">
        <ele>15.389</ele>
        <time>2016-09-26T11:37:12Z</time>
      </trkpt>
      <trkpt lat="43.638782" lon="-8.109311">
        <ele>15.365</ele>
        <time>2016-09-26T11:37:13Z</time>
      </trkpt>
      <trkpt lat="43.638766" lon="-8.109308">
        <ele>15.389</ele>
        <time>2016-09-26T11:37:14Z</time>
      </trkpt>
      <trkpt lat="43.638752" lon="-8.109298">
        <ele>15.361</ele>
        <time>2016-09-26T11:37:15Z</time>
      </trkpt>
      <trkpt lat="43.638741" lon="-8.109279">
        <ele>15.274</ele>
        <time>2016-09-26T11:37:16Z</time>
      </trkpt>
      <trkpt lat="43.638733" lon="-8.109255">
        <ele>15.192</ele>
        <time>2016-09-26T11:37:17Z</time>
      </trkpt>
      <trkpt lat="43.638729" lon="-8.109227">
        <ele>15.122</ele>
        <time>2016-09-26T11:37:18Z</time>
      </trkpt>
      <trkpt lat="43.638724" lon="-8.109197">
        <ele>15.162</ele>
        <time>2016-09-26T11:37:19Z</time>
      </trkpt>
      <trkpt lat="43.638716" lon="-8.109163">
        <ele>15.008</ele>
        <time>2016-09-26T11:37:20Z</time>
      </trkpt>
      <trkpt lat="43.638706" lon="-8.109128">
        <ele>15.208</ele>
        <time>2016-09-26T11:37:21Z</time>
      </trkpt>
      <trkpt lat="43.638697" lon="-8.109096">
        <ele>15.173</ele>
        <time>2016-09-26T11:37:22Z</time>
      </trkpt>
      <trkpt lat="43.638688" lon="-8.109068">
        <ele>15.088</ele>
        <time>2016-09-26T11:37:23Z</time>
      </trkpt>
      <trkpt lat="43.638676" lon="-8.109049">
        <ele>15.066</ele>
        <time>2016-09-26T11:37:24Z</time>
      </trkpt>
      <trkpt lat="43.638662" lon="-8.109040">
        <ele>14.932</ele>
        <time>2016-09-26T11:37:25Z</time>
      </trkpt>
      <trkpt lat="43.638645" lon="-8.109038">
        <ele>15.096</ele>
        <time>2016-09-26T11:37:26Z</time>
      </trkpt>
      <trkpt lat="43.638626" lon="-8.109042">
        <ele>14.958</ele>
        <time>2016-09-26T11:37:27Z</time>
      </trkpt>
      <trkpt lat="43.638603" lon="-8.109055">
        <ele>14.691</ele>
        <time>2016-09-26T11:37:28Z</time>
      </trkpt>
      <trkpt lat="43.638574" lon="-8.109075">
        <ele>14.619</ele>
        <time>2016-09-26T11:37:29Z</time>
      </trkpt>
      <trkpt lat="43.638544" lon="-8.109102">
        <ele>14.251</ele>
        <time>2016-09-26T11:37:30Z</time>
      </trkpt>
      <trkpt lat="43.638513" lon="-8.109137">
        <ele>14.101</ele>
        <time>2016-09-26T11:37:31Z</time>
      </trkpt>
      <trkpt lat="43.638482" lon="-8.109176">
        <ele>13.811</ele>
        <time>2016-09-26T11:37:32Z</time>
      </trkpt>
      <trkpt lat="43.638452" lon="-8.109218">
        <ele>13.608</ele>
        <time>2016-09-26T11:37:33Z</time>
      </trkpt>
      <trkpt lat="43.638426" lon="-8.109261">
        <ele>13.316</ele>
        <time>2016-09-26T11:37:34Z</time>
      </trkpt>
      <trkpt lat="43.638400" lon="-8.109308">
        <ele>13.091</ele>
        <time>2016-09-26T11:37:35Z</time>
      </trkpt>
      <trkpt lat="43.638373" lon="-8.109358">
        <ele>12.629</ele>
        <time>2016-09-26T11:37:36Z</time>
      </trkpt>
      <trkpt lat="43.638347" lon="-8.109409">
        <ele>12.275</ele>
        <time>2016-09-26T11:37:37Z</time>
      </trkpt>
      <trkpt lat="43.638326" lon="-8.109464">
        <ele>11.779</ele>
        <time>2016-09-26T11:37:38Z</time>
      </trkpt>
      <trkpt lat="43.638312" lon="-8.109524">
        <ele>11.471</ele>
        <time>2016-09-26T11:37:39Z</time>
      </trkpt>
      <trkpt lat="43.638307" lon="-8.109590">
        <ele>10.924</ele>
        <time>2016-09-26T11:37:40Z</time>
      </trkpt>
      <trkpt lat="43.638306" lon="-8.109656">
        <ele>10.382</ele>
        <time>2016-09-26T11:37:41Z</time>
      </trkpt>
      <trkpt lat="43.638309" lon="-8.109720">
        <ele>9.891</ele>
        <time>2016-09-26T11:37:42Z</time>
      </trkpt>
      <trkpt lat="43.638313" lon="-8.109777">
        <ele>9.281</ele>
        <time>2016-09-26T11:37:43Z</time>
      </trkpt>
      <trkpt lat="43.638320" lon="-8.109824">
        <ele>8.819</ele>
        <time>2016-09-26T11:37:44Z</time>
      </trkpt>
      <trkpt lat="43.638332" lon="-8.109862">
        <ele>8.508</ele>
        <time>2016-09-26T11:37:45Z</time>
      </trkpt>
      <trkpt lat="43.638354" lon="-8.109901">
        <ele>8.270</ele>
        <time>2016-09-26T11:37:46Z</time>
      </trkpt>
      <trkpt lat="43.638385" lon="-8.109939">
        <ele>7.815</ele>
        <time>2016-09-26T11:37:47Z</time>
      </trkpt>
      <trkpt lat="43.638425" lon="-8.109977">
        <ele>7.673</ele>
        <time>2016-09-26T11:37:48Z</time>
      </trkpt>
      <trkpt lat="43.638464" lon="-8.110008">
        <ele>7.459</ele>
        <time>2016-09-26T11:37:49Z</time>
      </trkpt>
      <trkpt lat="43.638503" lon="-8.110035">
        <ele>7.433</ele>
        <time>2016-09-26T11:37:50Z</time>
      </trkpt>
      <trkpt lat="43.638541" lon="-8.110057">
        <ele>7.355</ele>
        <time>2016-09-26T11:37:51Z</time>
      </trkpt>
      <trkpt lat="43.638574" lon="-8.110080">
        <ele>7.278</ele>
        <time>2016-09-26T11:37:52Z</time>
      </trkpt>
      <trkpt lat="43.638591" lon="-8.110112">
        <ele>7.116</ele>
        <time>2016-09-26T11:37:53Z</time>
      </trkpt>
      <trkpt lat="43.638594" lon="-8.110148">
        <ele>7.012</ele>
        <time>2016-09-26T11:37:54Z</time>
      </trkpt>
      <trkpt lat="43.638585" lon="-8.110180">
        <ele>6.832</ele>
        <time>2016-09-26T11:37:55Z</time>
      </trkpt>
      <trkpt lat="43.638573" lon="-8.110210">
        <ele>6.805</ele>
        <time>2016-09-26T11:37:56Z</time>
      </trkpt>
      <trkpt lat="43.638551" lon="-8.110234">
        <ele>6.508</ele>
        <time>2016-09-26T11:37:57Z</time>
      </trkpt>
      <trkpt lat="43.638520" lon="-8.110258">
        <ele>6.542</ele>
        <time>2016-09-26T11:37:58Z</time>
      </trkpt>
      <trkpt lat="43.638482" lon="-8.110289">
        <ele>6.547</ele>
        <time>2016-09-26T11:37:59Z</time>
      </trkpt>
      <trkpt lat="43.638438" lon="-8.110320">
        <ele>6.385</ele>
        <time>2016-09-26T11:38:00Z</time>
      </trkpt>
      <trkpt lat="43.638390" lon="-8.110354">
        <ele>6.031</ele>
        <time>2016-09-26T11:38:01Z</time>
      </trkpt>
      <trkpt lat="43.638340" lon="-8.110389">
        <ele>5.985</ele>
        <time>2016-09-26T11:38:02Z</time>
      </trkpt>
      <trkpt lat="43.638286" lon="-8.110426">
        <ele>5.527</ele>
        <time>2016-09-26T11:38:03Z</time>
      </trkpt>
      <trkpt lat="43.638228" lon="-8.110466">
        <ele>5.250</ele>
        <time>2016-09-26T11:38:04Z</time>
      </trkpt>
      <trkpt lat="43.638165" lon="-8.110511">
        <ele>5.078</ele>
        <time>2016-09-26T11:38:05Z</time>
      </trkpt>
      <trkpt lat="43.638097" lon="-8.110562">
        <ele>4.443</ele>
        <time>2016-09-26T11:38:06Z</time>
      </trkpt>
      <trkpt lat="43.638027" lon="-8.110612">
        <ele>4.064</ele>
        <time>2016-09-26T11:38:07Z</time>
      </trkpt>
      <trkpt lat="43.637955" lon="-8.110664">
        <ele>3.810</ele>
        <time>2016-09-26T11:38:08Z</time>
      </trkpt>
      <trkpt lat="43.637884" lon="-8.110716">
        <ele>3.508</ele>
        <time>2016-09-26T11:38:09Z</time>
      </trkpt>
      <trkpt lat="43.637814" lon="-8.110769">
        <ele>3.165</ele>
        <time>2016-09-26T11:38:10Z</time>
      </trkpt>
      <trkpt lat="43.637749" lon="-8.110812">
        <ele>3.030</ele>
        <time>2016-09-26T11:38:11Z</time>
      </trkpt>
      <trkpt lat="43.637688" lon="-8.110848">
        <ele>2.798</ele>
        <time>2016-09-26T11:38:12Z</time>
      </trkpt>
      <trkpt lat="43.637630" lon="-8.110874">
        <ele>2.564</ele>
        <time>2016-09-26T11:38:13Z</time>
      </trkpt>
      <trkpt lat="43.637572" lon="-8.110887">
        <ele>2.258</ele>
        <time>2016-09-26T11:38:14Z</time>
      </trkpt>
      <trkpt lat="43.637511" lon="-8.110897">
        <ele>2.150</ele>
        <time>2016-09-26T11:38:15Z</time>
      </trkpt>
      <trkpt lat="43.637451" lon="-8.110904">
        <ele>1.793</ele>
        <time>2016-09-26T11:38:16Z</time>
      </trkpt>
      <trkpt lat="43.637391" lon="-8.110911">
        <ele>1.381</ele>
        <time>2016-09-26T11:38:17Z</time>
      </trkpt>
      <trkpt lat="43.637332" lon="-8.110919">
        <ele>0.921</ele>
        <time>2016-09-26T11:38:18Z</time>
      </trkpt>
      <trkpt lat="43.637273" lon="-8.110931">
        <ele>0.641</ele>
        <time>2016-09-26T11:38:19Z</time>
      </trkpt>
      <trkpt lat="43.637217" lon="-8.110948">
        <ele>0.405</ele>
        <time>2016-09-26T11:38:20Z</time>
      </trkpt>
      <trkpt lat="43.637163" lon="-8.110971">
        <ele>0.108</ele>
        <time>2016-09-26T11:38:21Z</time>
      </trkpt>
      <trkpt lat="43.637111" lon="-8.111002">
        <ele>0.053</ele>
        <time>2016-09-26T11:38:22Z</time>
      </trkpt>
      <trkpt lat="43.637061" lon="-8.111040">
        <ele>-0.388</ele>
        <time>2016-09-26T11:38:23Z</time>
      </trkpt>
      <trkpt lat="43.637014" lon="-8.111084">
        <ele>-0.546</ele>
        <time>2016-09-26T11:38:24Z</time>
      </trkpt>
      <trkpt lat="43.636971" lon="-8.111132">
        <ele>-0.682</ele>
        <time>2016-09-26T11:38:25Z</time>
      </trkpt>
      <trkpt lat="43.636931" lon="-8.111182">
        <ele>-0.896</ele>
        <time>2016-09-26T11:38:26Z</time>
      </trkpt>
      <trkpt lat="43.636892" lon="-8.111229">
        <ele>-0.958</ele>
        <time>2016-09-26T11:38:27Z</time>
      </trkpt>
      <trkpt lat="43.636854" lon="-8.111275">
        <ele>-0.961</ele>
        <time>2016-09-26T11:38:28Z</time>
      </trkpt>
      <trkpt lat="43.636818" lon="-8.111319">
        <ele>-1.069</ele>
        <time>2016-09-26T11:38:29Z</time>
      </trkpt>
      <trkpt lat="43.636782" lon="-8.111361">
        <ele>-1.148</ele>
        <time>2016-09-26T11:38:30Z</time>
      </trkpt>
      <trkpt lat="43.636747" lon="-8.111401">
        <ele>-1.061</ele>
        <time>2016-09-26T11:38:31Z</time>
      </trkpt>
      <trkpt lat="43.636714" lon="-8.111439">
        <ele>-1.117</ele>
        <time>2016-09-26T11:38:32Z</time>
      </trkpt>
      <trkpt lat="43.636682" lon="-8.111479">
        <ele>-1.108</ele>
        <time>2016-09-26T11:38:33Z</time>
      </trkpt>
      <trkpt lat="43.636649" lon="-8.111519">
        <ele>-1.155</ele>
        <time>2016-09-26T11:38:34Z</time>
      </trkpt>
      <trkpt lat="43.636617" lon="-8.111562">
        <ele>-1.030</ele>
        <time>2016-09-26T11:38:35Z</time>
      </trkpt>
      <trkpt lat="43.636585" lon="-8.111606">
        <ele>-1.058</ele>
        <time>2016-09-26T11:38:36Z</time>
      </trkpt>
      <trkpt lat="43.636554" lon="-8.111651">
        <ele>-1.184</ele>
        <time>2016-09-26T11:38:37Z</time>
      </trkpt>
      <trkpt lat="43.636526" lon="-8.111700">
        <ele>-1.058</ele>
        <time>2016-09-26T11:38:38Z</time>
      </trkpt>
      <trkpt lat="43.636500" lon="-8.111753">
        <ele>-1.260</ele>
        <time>2016-09-26T11:38:39Z</time>
      </trkpt>
      <trkpt lat="43.636476" lon="-8.111809">
        <ele>-1.363</ele>
        <time>2016-09-26T11:38:40Z</time>
      </trkpt>
      <trkpt lat="43.636456" lon="-8.111865">
        <ele>-1.261</ele>
        <time>2016-09-26T11:38:41Z</time>
      </trkpt>
      <trkpt lat="43.636440" lon="-8.111923">
        <ele>-1.346</ele>
        <time>2016-09-26T11:38:42Z</time>
      </trkpt>
      <trkpt lat="43.636429" lon="-8.111986">
        <ele>-1.388</ele>
        <time>2016-09-26T11:38:43Z</time>
      </trkpt>
      <trkpt lat="43.636419" lon="-8.112052">
        <ele>-1.416</ele>
        <time>2016-09-26T11:38:44Z</time>
      </trkpt>
      <trkpt lat="43.636413" lon="-8.112119">
        <ele>-1.408</ele>
        <time>2016-09-26T11:38:45Z</time>
      </trkpt>
      <trkpt lat="43.636409" lon="-8.112184">
        <ele>-1.355</ele>
        <time>2016-09-26T11:38:46Z</time>
      </trkpt>
      <trkpt lat="43.636408" lon="-8.112248">
        <ele>-1.340</ele>
        <time>2016-09-26T11:38:47Z</time>
      </trkpt>
      <trkpt lat="43.636405" lon="-8.112312">
        <ele>-1.318</ele>
        <time>2016-09-26T11:38:48Z</time>
      </trkpt>
      <trkpt lat="43.636403" lon="-8.112376">
        <ele>-1.324</ele>
        <time>2016-09-26T11:38:49Z</time>
      </trkpt>
      <trkpt lat="43.636398" lon="-8.112435">
        <ele>-1.578</ele>
        <time>2016-09-26T11:38:50Z</time>
      </trkpt>
      <trkpt lat="43.636392" lon="-8.112496">
        <ele>-1.650</ele>
        <time>2016-09-26T11:38:51Z</time>
      </trkpt>
      <trkpt lat="43.636384" lon="-8.112555">
        <ele>-1.563</ele>
        <time>2016-09-26T11:38:52Z</time>
      </trkpt>
      <trkpt lat="43.636373" lon="-8.112613">
        <ele>-1.521</ele>
        <time>2016-09-26T11:38:53Z</time>
      </trkpt>
      <trkpt lat="43.636358" lon="-8.112669">
        <ele>-1.371</ele>
        <time>2016-09-26T11:38:54Z</time>
      </trkpt>
      <trkpt lat="43.636341" lon="-8.112727">
        <ele>-1.341</ele>
        <time>2016-09-26T11:38:55Z</time>
      </trkpt>
      <trkpt lat="43.636323" lon="-8.112785">
        <ele>-1.315</ele>
        <time>2016-09-26T11:38:56Z</time>
      </trkpt>
      <trkpt lat="43.636305" lon="-8.112844">
        <ele>-1.308</ele>
        <time>2016-09-26T11:38:57Z</time>
      </trkpt>
      <trkpt lat="43.636287" lon="-8.112902">
        <ele>-1.398</ele>
        <time>2016-09-26T11:38:58Z</time>
      </trkpt>
      <trkpt lat="43.636270" lon="-8.112959">
        <ele>-1.473</ele>
        <time>2016-09-26T11:38:59Z</time>
      </trkpt>
      <trkpt lat="43.636252" lon="-8.113014">
        <ele>-1.881</ele>
        <time>2016-09-26T11:39:00Z</time>
      </trkpt>
      <trkpt lat="43.636235" lon="-8.113069">
        <ele>-1.777</ele>
        <time>2016-09-26T11:39:01Z</time>
      </trkpt>
      <trkpt lat="43.636218" lon="-8.113125">
        <ele>-1.641</ele>
        <time>2016-09-26T11:39:02Z</time>
      </trkpt>
      <trkpt lat="43.636202" lon="-8.113183">
        <ele>-1.553</ele>
        <time>2016-09-26T11:39:03Z</time>
      </trkpt>
      <trkpt lat="43.636186" lon="-8.113239">
        <ele>-1.576</ele>
        <time>2016-09-26T11:39:04Z</time>
      </trkpt>
      <trkpt lat="43.636168" lon="-8.113294">
        <ele>-1.694</ele>
        <time>2016-09-26T11:39:05Z</time>
      </trkpt>
      <trkpt lat="43.636151" lon="-8.113350">
        <ele>-1.449</ele>
        <time>2016-09-26T11:39:06Z</time>
      </trkpt>
      <trkpt lat="43.636135" lon="-8.113405">
        <ele>-1.702</ele>
        <time>2016-09-26T11:39:07Z</time>
      </trkpt>
      <trkpt lat="43.636119" lon="-8.113462">
        <ele>-1.722</ele>
        <time>2016-09-26T11:39:08Z</time>
      </trkpt>
      <trkpt lat="43.636101" lon="-8.113519">
        <ele>-1.908</ele>
        <time>2016-09-26T11:39:09Z</time>
      </trkpt>
      <trkpt lat="43.636083" lon="-8.113580">
        <ele>-1.975</ele>
        <time>2016-09-26T11:39:10Z</time>
      </trkpt>
      <trkpt lat="43.636065" lon="-8.113641">
        <ele>-1.650</ele>
        <time>2016-09-26T11:39:11Z</time>
      </trkpt>
      <trkpt lat="43.636049" lon="-8.113699">
        <ele>-1.638</ele>
        <time>2016-09-26T11:39:12Z</time>
      </trkpt>
      <trkpt lat="43.636032" lon="-8.113757">
        <ele>-1.834</ele>
        <time>2016-09-26T11:39:13Z</time>
      </trkpt>
      <trkpt lat="43.636015" lon="-8.113812">
        <ele>-1.838</ele>
        <time>2016-09-26T11:39:14Z</time>
      </trkpt>
      <trkpt lat="43.635998" lon="-8.113866">
        <ele>-1.740</ele>
        <time>2016-09-26T11:39:15Z</time>
      </trkpt>
      <trkpt lat="43.635981" lon="-8.113920">
        <ele>-1.733</ele>
        <time>2016-09-26T11:39:16Z</time>
      </trkpt>
      <trkpt lat="43.635966" lon="-8.113975">
        <ele>-1.711</ele>
        <time>2016-09-26T11:39:17Z</time>
      </trkpt>
      <trkpt lat="43.635952" lon="-8.114030">
        <ele>-1.723</ele>
        <time>2016-09-26T11:39:18Z</time>
      </trkpt>
      <trkpt lat="43.635936" lon="-8.114087">
        <ele>-1.783</ele>
        <time>2016-09-26T11:39:19Z</time>
      </trkpt>
      <trkpt lat="43.635921" lon="-8.114144">
        <ele>-1.711</ele>
        <time>2016-09-26T11:39:20Z</time>
      </trkpt>
      <trkpt lat="43.635907" lon="-8.114202">
        <ele>-1.808</ele>
        <time>2016-09-26T11:39:21Z</time>
      </trkpt>
      <trkpt lat="43.635891" lon="-8.114260">
        <ele>-1.963</ele>
        <time>2016-09-26T11:39:22Z</time>
      </trkpt>
      <trkpt lat="43.635875" lon="-8.114320">
        <ele>-2.188</ele>
        <time>2016-09-26T11:39:23Z</time>
      </trkpt>
      <trkpt lat="43.635859" lon="-8.114380">
        <ele>-2.146</ele>
        <time>2016-09-26T11:39:24Z</time>
      </trkpt>
      <trkpt lat="43.635844" lon="-8.114441">
        <ele>-2.142</ele>
        <time>2016-09-26T11:39:25Z</time>
      </trkpt>
      <trkpt lat="43.635829" lon="-8.114501">
        <ele>-1.976</ele>
        <time>2016-09-26T11:39:26Z</time>
      </trkpt>
      <trkpt lat="43.635815" lon="-8.114559">
        <ele>-1.948</ele>
        <time>2016-09-26T11:39:27Z</time>
      </trkpt>
      <trkpt lat="43.635802" lon="-8.114619">
        <ele>-1.871</ele>
        <time>2016-09-26T11:39:28Z</time>
      </trkpt>
      <trkpt lat="43.635787" lon="-8.114680">
        <ele>-1.839</ele>
        <time>2016-09-26T11:39:29Z</time>
      </trkpt>
      <trkpt lat="43.635775" lon="-8.114741">
        <ele>-2.185</ele>
        <time>2016-09-26T11:39:30Z</time>
      </trkpt>
      <trkpt lat="43.635762" lon="-8.114804">
        <ele>-2.389</ele>
        <time>2016-09-26T11:39:31Z</time>
      </trkpt>
      <trkpt lat="43.635748" lon="-8.114865">
        <ele>-2.317</ele>
        <time>2016-09-26T11:39:32Z</time>
      </trkpt>
      <trkpt lat="43.635733" lon="-8.114923">
        <ele>-2.308</ele>
        <time>2016-09-26T11:39:33Z</time>
      </trkpt>
      <trkpt lat="43.635716" lon="-8.114976">
        <ele>-2.179</ele>
        <time>2016-09-26T11:39:34Z</time>
      </trkpt>
      <trkpt lat="43.635698" lon="-8.115026">
        <ele>-2.224</ele>
        <time>2016-09-26T11:39:35Z</time>
      </trkpt>
      <trkpt lat="43.635681" lon="-8.115071">
        <ele>-2.142</ele>
        <time>2016-09-26T11:39:36Z</time>
      </trkpt>
      <trkpt lat="43.635664" lon="-8.115113">
        <ele>-1.988</ele>
        <time>2016-09-26T11:39:37Z</time>
      </trkpt>
      <trkpt lat="43.635647" lon="-8.115153">
        <ele>-1.952</ele>
        <time>2016-09-26T11:39:38Z</time>
      </trkpt>
      <trkpt lat="43.635631" lon="-8.115194">
        <ele>-1.814</ele>
        <time>2016-09-26T11:39:39Z</time>
      </trkpt>
      <trkpt lat="43.635613" lon="-8.115238">
        <ele>-1.877</ele>
        <time>2016-09-26T11:39:40Z</time>
      </trkpt>
      <trkpt lat="43.635593" lon="-8.115289">
        <ele>-1.755</ele>
        <time>2016-09-26T11:39:41Z</time>
      </trkpt>
      <trkpt lat="43.635570" lon="-8.115347">
        <ele>-1.631</ele>
        <time>2016-09-26T11:39:42Z</time>
      </trkpt>
      <trkpt lat="43.635549" lon="-8.115407">
        <ele>-1.861</ele>
        <time>2016-09-26T11:39:43Z</time>
      </trkpt>
      <trkpt lat="43.635527" lon="-8.115467">
        <ele>-2.007</ele>
        <time>2016-09-26T11:39:44Z</time>
      </trkpt>
      <trkpt lat="43.635502" lon="-8.115528">
        <ele>-2.008</ele>
        <time>2016-09-26T11:39:45Z</time>
      </trkpt>
      <trkpt lat="43.635478" lon="-8.115594">
        <ele>-1.914</ele>
        <time>2016-09-26T11:39:46Z</time>
      </trkpt>
      <trkpt lat="43.635455" lon="-8.115656">
        <ele>-1.949</ele>
        <time>2016-09-26T11:39:47Z</time>
      </trkpt>
      <trkpt lat="43.635433" lon="-8.115715">
        <ele>-1.897</ele>
        <time>2016-09-26T11:39:48Z</time>
      </trkpt>
      <trkpt lat="43.635414" lon="-8.115775">
        <ele>-1.933</ele>
        <time>2016-09-26T11:39:49Z</time>
      </trkpt>
      <trkpt lat="43.635397" lon="-8.115836">
        <ele>-1.977</ele>
        <time>2016-09-26T11:39:50Z</time>
      </trkpt>
      <trkpt lat="43.635384" lon="-8.115896">
        <ele>-2.259</ele>
        <time>2016-09-26T11:39:51Z</time>
      </trkpt>
      <trkpt lat="43.635373" lon="-8.115955">
        <ele>-2.332</ele>
        <time>2016-09-26T11:39:52Z</time>
      </trkpt>
      <trkpt lat="43.635363" lon="-8.116014">
        <ele>-2.370</ele>
        <time>2016-09-26T11:39:53Z</time>
      </trkpt>
      <trkpt lat="43.635355" lon="-8.116074">
        <ele>-2.216</ele>
        <time>2016-09-26T11:39:54Z</time>
      </trkpt>
      <trkpt lat="43.635348" lon="-8.116135">
        <ele>-2.276</ele>
        <time>2016-09-26T11:39:55Z</time>
      </trkpt>
      <trkpt lat="43.635343" lon="-8.116197">
        <ele>-2.213</ele>
        <time>2016-09-26T11:39:56Z</time>
      </trkpt>
      <trkpt lat="43.635340" lon="-8.116260">
        <ele>-2.208</ele>
        <time>2016-09-26T11:39:57Z</time>
      </trkpt>
      <trkpt lat="43.635338" lon="-8.116321">
        <ele>-2.172</ele>
        <time>2016-09-26T11:39:58Z</time>
      </trkpt>
      <trkpt lat="43.635340" lon="-8.116381">
        <ele>-2.047</ele>
        <time>2016-09-26T11:39:59Z</time>
      </trkpt>
      <trkpt lat="43.635343" lon="-8.116441">
        <ele>-1.955</ele>
        <time>2016-09-26T11:40:00Z</time>
      </trkpt>
      <trkpt lat="43.635349" lon="-8.116501">
        <ele>-1.961</ele>
        <time>2016-09-26T11:40:01Z</time>
      </trkpt>
      <trkpt lat="43.635356" lon="-8.116556">
        <ele>-1.975</ele>
        <time>2016-09-26T11:40:02Z</time>
      </trkpt>
      <trkpt lat="43.635362" lon="-8.116607">
        <ele>-2.147</ele>
        <time>2016-09-26T11:40:03Z</time>
      </trkpt>
      <trkpt lat="43.635369" lon="-8.116662">
        <ele>-2.240</ele>
        <time>2016-09-26T11:40:04Z</time>
      </trkpt>
      <trkpt lat="43.635376" lon="-8.116722">
        <ele>-2.258</ele>
        <time>2016-09-26T11:40:05Z</time>
      </trkpt>
      <trkpt lat="43.635384" lon="-8.116782">
        <ele>-2.034</ele>
        <time>2016-09-26T11:40:06Z</time>
      </trkpt>
      <trkpt lat="43.635393" lon="-8.116840">
        <ele>-2.055</ele>
        <time>2016-09-26T11:40:07Z</time>
      </trkpt>
      <trkpt lat="43.635401" lon="-8.116899">
        <ele>-2.010</ele>
        <time>2016-09-26T11:40:08Z</time>
      </trkpt>
      <trkpt lat="43.635408" lon="-8.116957">
        <ele>-2.008</ele>
        <time>2016-09-26T11:40:09Z</time>
      </trkpt>
      <trkpt lat="43.635416" lon="-8.117014">
        <ele>-2.054</ele>
        <time>2016-09-26T11:40:10Z</time>
      </trkpt>
      <trkpt lat="43.635426" lon="-8.117069">
        <ele>-1.949</ele>
        <time>2016-09-26T11:40:11Z</time>
      </trkpt>
      <trkpt lat="43.635437" lon="-8.117121">
        <ele>-2.057</ele>
        <time>2016-09-26T11:40:12Z</time>
      </trkpt>
      <trkpt lat="43.635450" lon="-8.117171">
        <ele>-1.863</ele>
        <time>2016-09-26T11:40:13Z</time>
      </trkpt>
      <trkpt lat="43.635467" lon="-8.117218">
        <ele>-1.957</ele>
        <time>2016-09-26T11:40:14Z</time>
      </trkpt>
      <trkpt lat="43.635489" lon="-8.117263">
        <ele>-1.939</ele>
        <time>2016-09-26T11:40:15Z</time>
      </trkpt>
      <trkpt lat="43.635514" lon="-8.117303">
        <ele>-2.182</ele>
        <time>2016-09-26T11:40:16Z</time>
      </trkpt>
      <trkpt lat="43.635541" lon="-8.117339">
        <ele>-2.020</ele>
        <time>2016-09-26T11:40:17Z</time>
      </trkpt>
      <trkpt lat="43.635571" lon="-8.117370">
        <ele>-1.919</ele>
        <time>2016-09-26T11:40:18Z</time>
      </trkpt>
      <trkpt lat="43.635601" lon="-8.117399">
        <ele>-1.809</ele>
        <time>2016-09-26T11:40:19Z</time>
      </trkpt>
      <trkpt lat="43.635631" lon="-8.117429">
        <ele>-1.819</ele>
        <time>2016-09-26T11:40:20Z</time>
      </trkpt>
      <trkpt lat="43.635659" lon="-8.117461">
        <ele>-1.608</ele>
        <time>2016-09-26T11:40:21Z</time>
      </trkpt>
      <trkpt lat="43.635681" lon="-8.117500">
        <ele>-1.452</ele>
        <time>2016-09-26T11:40:22Z</time>
      </trkpt>
      <trkpt lat="43.635697" lon="-8.117543">
        <ele>-1.367</ele>
        <time>2016-09-26T11:40:23Z</time>
      </trkpt>
      <trkpt lat="43.635709" lon="-8.117588">
        <ele>-1.255</ele>
        <time>2016-09-26T11:40:24Z</time>
      </trkpt>
      <trkpt lat="43.635721" lon="-8.117633">
        <ele>-1.431</ele>
        <time>2016-09-26T11:40:25Z</time>
      </trkpt>
      <trkpt lat="43.635731" lon="-8.117675">
        <ele>-1.325</ele>
        <time>2016-09-26T11:40:26Z</time>
      </trkpt>
      <trkpt lat="43.635744" lon="-8.117717">
        <ele>-1.227</ele>
        <time>2016-09-26T11:40:27Z</time>
      </trkpt>
      <trkpt lat="43.635755" lon="-8.117756">
        <ele>-0.910</ele>
        <time>2016-09-26T11:40:28Z</time>
      </trkpt>
      <trkpt lat="43.635766" lon="-8.117794">
        <ele>-0.598</ele>
        <time>2016-09-26T11:40:29Z</time>
      </trkpt>
      <trkpt lat="43.635777" lon="-8.117829">
        <ele>-0.236</ele>
        <time>2016-09-26T11:40:30Z</time>
      </trkpt>
      <trkpt lat="43.635786" lon="-8.117861">
        <ele>0.017</ele>
        <time>2016-09-26T11:40:31Z</time>
      </trkpt>
      <trkpt lat="43.635794" lon="-8.117893">
        <ele>0.218</ele>
        <time>2016-09-26T11:40:32Z</time>
      </trkpt>
      <trkpt lat="43.635804" lon="-8.117925">
        <ele>0.208</ele>
        <time>2016-09-26T11:40:33Z</time>
      </trkpt>
      <trkpt lat="43.635815" lon="-8.117956">
        <ele>0.154</ele>
        <time>2016-09-26T11:40:34Z</time>
      </trkpt>
      <trkpt lat="43.635824" lon="-8.117987">
        <ele>0.569</ele>
        <time>2016-09-26T11:40:35Z</time>
      </trkpt>
      <trkpt lat="43.635832" lon="-8.118021">
        <ele>0.857</ele>
        <time>2016-09-26T11:40:36Z</time>
      </trkpt>
      <trkpt lat="43.635842" lon="-8.118056">
        <ele>1.033</ele>
        <time>2016-09-26T11:40:37Z</time>
      </trkpt>
      <trkpt lat="43.635851" lon="-8.118089">
        <ele>1.127</ele>
        <time>2016-09-26T11:40:38Z</time>
      </trkpt>
      <trkpt lat="43.635858" lon="-8.118122">
        <ele>1.269</ele>
        <time>2016-09-26T11:40:39Z</time>
      </trkpt>
      <trkpt lat="43.635866" lon="-8.118155">
        <ele>1.472</ele>
        <time>2016-09-26T11:40:40Z</time>
      </trkpt>
      <trkpt lat="43.635873" lon="-8.118189">
        <ele>1.890</ele>
        <time>2016-09-26T11:40:41Z</time>
      </trkpt>
      <trkpt lat="43.635880" lon="-8.118225">
        <ele>1.958</ele>
        <time>2016-09-26T11:40:42Z</time>
      </trkpt>
      <trkpt lat="43.635889" lon="-8.118259">
        <ele>2.152</ele>
        <time>2016-09-26T11:40:43Z</time>
      </trkpt>
      <trkpt lat="43.635897" lon="-8.118291">
        <ele>2.217</ele>
        <time>2016-09-26T11:40:44Z</time>
      </trkpt>
      <trkpt lat="43.635905" lon="-8.118321">
        <ele>2.408</ele>
        <time>2016-09-26T11:40:45Z</time>
      </trkpt>
      <trkpt lat="43.635915" lon="-8.118355">
        <ele>2.646</ele>
        <time>2016-09-26T11:40:46Z</time>
      </trkpt>
      <trkpt lat="43.635923" lon="-8.118389">
        <ele>2.931</ele>
        <time>2016-09-26T11:40:47Z</time>
      </trkpt>
      <trkpt lat="43.635930" lon="-8.118421">
        <ele>3.129</ele>
        <time>2016-09-26T11:40:48Z</time>
      </trkpt>
      <trkpt lat="43.635938" lon="-8.118452">
        <ele>3.235</ele>
        <time>2016-09-26T11:40:49Z</time>
      </trkpt>
      <trkpt lat="43.635948" lon="-8.118482">
        <ele>3.499</ele>
        <time>2016-09-26T11:40:50Z</time>
      </trkpt>
      <trkpt lat="43.635958" lon="-8.118515">
        <ele>3.541</ele>
        <time>2016-09-26T11:40:51Z</time>
      </trkpt>
      <trkpt lat="43.635966" lon="-8.118546">
        <ele>3.764</ele>
        <time>2016-09-26T11:40:52Z</time>
      </trkpt>
      <trkpt lat="43.635975" lon="-8.118579">
        <ele>3.722</ele>
        <time>2016-09-26T11:40:53Z</time>
      </trkpt>
      <trkpt lat="43.635983" lon="-8.118614">
        <ele>4.089</ele>
        <time>2016-09-26T11:40:54Z</time>
      </trkpt>
      <trkpt lat="43.635990" lon="-8.118649">
        <ele>4.206</ele>
        <time>2016-09-26T11:40:55Z</time>
      </trkpt>
      <trkpt lat="43.635995" lon="-8.118684">
        <ele>4.326</ele>
        <time>2016-09-26T11:40:56Z</time>
      </trkpt>
      <trkpt lat="43.636001" lon="-8.118717">
        <ele>4.608</ele>
        <time>2016-09-26T11:40:57Z</time>
      </trkpt>
      <trkpt lat="43.636008" lon="-8.118749">
        <ele>4.999</ele>
        <time>2016-09-26T11:40:58Z</time>
      </trkpt>
      <trkpt lat="43.636015" lon="-8.118781">
        <ele>5.184</ele>
        <time>2016-09-26T11:40:59Z</time>
      </trkpt>
      <trkpt lat="43.636020" lon="-8.118814">
        <ele>5.432</ele>
        <time>2016-09-26T11:41:00Z</time>
      </trkpt>
      <trkpt lat="43.636023" lon="-8.118847">
        <ele>5.738</ele>
        <time>2016-09-26T11:41:01Z</time>
      </trkpt>
      <trkpt lat="43.636022" lon="-8.118881">
        <ele>5.972</ele>
        <time>2016-09-26T11:41:02Z</time>
      </trkpt>
      <trkpt lat="43.636017" lon="-8.118912">
        <ele>6.374</ele>
        <time>2016-09-26T11:41:03Z</time>
      </trkpt>
      <trkpt lat="43.636009" lon="-8.118944">
        <ele>6.557</ele>
        <time>2016-09-26T11:41:04Z</time>
      </trkpt>
      <trkpt lat="43.636004" lon="-8.118975">
        <ele>6.785</ele>
        <time>2016-09-26T11:41:05Z</time>
      </trkpt>
      <trkpt lat="43.635994" lon="-8.119004">
        <ele>6.941</ele>
        <time>2016-09-26T11:41:06Z</time>
      </trkpt>
      <trkpt lat="43.635984" lon="-8.119033">
        <ele>7.181</ele>
        <time>2016-09-26T11:41:07Z</time>
      </trkpt>
      <trkpt lat="43.635973" lon="-8.119058">
        <ele>7.309</ele>
        <time>2016-09-26T11:41:08Z</time>
      </trkpt>
      <trkpt lat="43.635961" lon="-8.119081">
        <ele>7.508</ele>
        <time>2016-09-26T11:41:09Z</time>
      </trkpt>
      <trkpt lat="43.635949" lon="-8.119100">
        <ele>7.725</ele>
        <time>2016-09-26T11:41:10Z</time>
      </trkpt>
      <trkpt lat="43.635935" lon="-8.119118">
        <ele>7.770</ele>
        <time>2016-09-26T11:41:11Z</time>
      </trkpt>
      <trkpt lat="43.635920" lon="-8.119134">
        <ele>8.028</ele>
        <time>2016-09-26T11:41:12Z</time>
      </trkpt>
      <trkpt lat="43.635905" lon="-8.119149">
        <ele>8.254</ele>
        <time>2016-09-26T11:41:13Z</time>
      </trkpt>
      <trkpt lat="43.635889" lon="-8.119164">
        <ele>8.358</ele>
        <time>2016-09-26T11:41:14Z</time>
      </trkpt>
      <trkpt lat="43.635872" lon="-8.119180">
        <ele>8.550</ele>
        <time>2016-09-26T11:41:15Z</time>
      </trkpt>
      <trkpt lat="43.635855" lon="-8.119198">
        <ele>8.513</ele>
        <time>2016-09-26T11:41:16Z</time>
      </trkpt>
      <trkpt lat="43.635838" lon="-8.119215">
        <ele>8.721</ele>
        <time>2016-09-26T11:41:17Z</time>
      </trkpt>
      <trkpt lat="43.635823" lon="-8.119231">
        <ele>8.933</ele>
        <time>2016-09-26T11:41:18Z</time>
      </trkpt>
      <trkpt lat="43.635809" lon="-8.119249">
        <ele>9.123</ele>
        <time>2016-09-26T11:41:19Z</time>
      </trkpt>
      <trkpt lat="43.635796" lon="-8.119271">
        <ele>9.415</ele>
        <time>2016-09-26T11:41:20Z</time>
      </trkpt>
      <trkpt lat="43.635781" lon="-8.119300">
        <ele>9.608</ele>
        <time>2016-09-26T11:41:21Z</time>
      </trkpt>
      <trkpt lat="43.635775" lon="-8.119330">
        <ele>9.874</ele>
        <time>2016-09-26T11:41:22Z</time>
      </trkpt>
      <trkpt lat="43.635775" lon="-8.119360">
        <ele>9.929</ele>
        <time>2016-09-26T11:41:23Z</time>
      </trkpt>
      <trkpt lat="43.635779" lon="-8.119388">
        <ele>10.167</ele>
        <time>2016-09-26T11:41:24Z</time>
      </trkpt>
      <trkpt lat="43.635786" lon="-8.119410">
        <ele>10.263</ele>
        <time>2016-09-26T11:41:25Z</time>
      </trkpt>
      <trkpt lat="43.635799" lon="-8.119427">
        <ele>10.417</ele>
        <time>2016-09-26T11:41:26Z</time>
      </trkpt>
      <trkpt lat="43.635815" lon="-8.119442">
        <ele>10.739</ele>
        <time>2016-09-26T11:41:27Z</time>
      </trkpt>
      <trkpt lat="43.635829" lon="-8.119453">
        <ele>10.972</ele>
        <time>2016-09-26T11:41:28Z</time>
      </trkpt>
      <trkpt lat="43.635840" lon="-8.119463">
        <ele>11.050</ele>
        <time>2016-09-26T11:41:29Z</time>
      </trkpt>
      <trkpt lat="43.635854" lon="-8.119476">
        <ele>11.378</ele>
        <time>2016-09-26T11:41:30Z</time>
      </trkpt>
      <trkpt lat="43.635870" lon="-8.119489">
        <ele>11.433</ele>
        <time>2016-09-26T11:41:31Z</time>
      </trkpt>
      <trkpt lat="43.635883" lon="-8.119500">
        <ele>11.726</ele>
        <time>2016-09-26T11:41:32Z</time>
      </trkpt>
      <trkpt lat="43.635893" lon="-8.119510">
        <ele>11.808</ele>
        <time>2016-09-26T11:41:33Z</time>
      </trkpt>
      <trkpt lat="43.635903" lon="-8.119523">
        <ele>12.198</ele>
        <time>2016-09-26T11:41:34Z</time>
      </trkpt>
      <trkpt lat="43.635914" lon="-8.119536">
        <ele>12.153</ele>
        <time>2016-09-26T11:41:35Z</time>
      </trkpt>
      <trkpt lat="43.635929" lon="-8.119546">
        <ele>12.421</ele>
        <time>2016-09-26T11:41:36Z</time>
      </trkpt>
      <trkpt lat="43.635948" lon="-8.119552">
        <ele>12.587</ele>
        <time>2016-09-26T11:41:37Z</time>
      </trkpt>
      <trkpt lat="43.635965" lon="-8.119559">
        <ele>12.731</ele>
        <time>2016-09-26T11:41:38Z</time>
      </trkpt>
      <trkpt lat="43.635982" lon="-8.119566">
        <ele>12.933</ele>
        <time>2016-09-26T11:41:39Z</time>
      </trkpt>
      <trkpt lat="43.635998" lon="-8.119576">
        <ele>13.066</ele>
        <time>2016-09-26T11:41:40Z</time>
      </trkpt>
      <trkpt lat="43.636013" lon="-8.119584">
        <ele>13.134</ele>
        <time>2016-09-26T11:41:41Z</time>
      </trkpt>
      <trkpt lat="43.636028" lon="-8.119593">
        <ele>13.382</ele>
        <time>2016-09-26T11:41:42Z</time>
      </trkpt>
      <trkpt lat="43.636046" lon="-8.119603">
        <ele>13.443</ele>
        <time>2016-09-26T11:41:43Z</time>
      </trkpt>
      <trkpt lat="43.636061" lon="-8.119613">
        <ele>13.617</ele>
        <time>2016-09-26T11:41:44Z</time>
      </trkpt>
      <trkpt lat="43.636077" lon="-8.119621">
        <ele>13.608</ele>
        <time>2016-09-26T11:41:45Z</time>
      </trkpt>
      <trkpt lat="43.636091" lon="-8.119630">
        <ele>13.679</ele>
        <time>2016-09-26T11:41:46Z</time>
      </trkpt>
      <trkpt lat="43.636110" lon="-8.119639">
        <ele>13.824</ele>
        <time>2016-09-26T11:41:47Z</time>
      </trkpt>
      <trkpt lat="43.636126" lon="-8.119648">
        <ele>13.942</ele>
        <time>2016-09-26T11:41:48Z</time>
      </trkpt>
      <trkpt lat="43.636142" lon="-8.119658">
        <ele>14.148</ele>
        <time>2016-09-26T11:41:49Z</time>
      </trkpt>
      <trkpt lat="43.636159" lon="-8.119670">
        <ele>14.012</ele>
        <time>2016-09-26T11:41:50Z</time>
      </trkpt>
      <trkpt lat="43.636177" lon="-8.119682">
        <ele>14.294</ele>
        <time>2016-09-26T11:41:51Z</time>
      </trkpt>
      <trkpt lat="43.636193" lon="-8.119690">
        <ele>14.477</ele>
        <time>2016-09-26T11:41:52Z</time>
      </trkpt>
      <trkpt lat="43.636211" lon="-8.119699">
        <ele>14.545</ele>
        <time>2016-09-26T11:41:53Z</time>
      </trkpt>
      <trkpt lat="43.636228" lon="-8.119707">
        <ele>14.588</ele>
        <time>2016-09-26T11:41:54Z</time>
      </trkpt>
      <trkpt lat="43.636244" lon="-8.119715">
        <ele>14.624</ele>
        <time>2016-09-26T11:41:55Z</time>
      </trkpt>
      <trkpt lat="43.636261" lon="-8.119726">
        <ele>14.726</ele>
        <time>2016-09-26T11:41:56Z</time>
      </trkpt>
      <trkpt lat="43.636279" lon="-8.119738">
        <ele>14.908</ele>
        <time>2016-09-26T11:41:57Z</time>
      </trkpt>
      <trkpt lat="43.636296" lon="-8.119749">
        <ele>15.069</ele>
        <time>2016-09-26T11:41:58Z</time>
      </trkpt>
      <trkpt lat="43.636310" lon="-8.119756">
        <ele>15.134</ele>
        <time>2016-09-26T11:41:59Z</time>
      </trkpt>
      <trkpt lat="43.636326" lon="-8.119767">
        <ele>15.132</ele>
        <time>2016-09-26T11:42:00Z</time>
      </trkpt>
      <trkpt lat="43.636344" lon="-8.119778">
        <ele>15.378</ele>
        <time>2016-09-26T11:42:01Z</time>
      </trkpt>
      <trkpt lat="43.636362" lon="-8.119789">
        <ele>15.592</ele>
        <time>2016-09-26T11:42:02Z</time>
      </trkpt>
      <trkpt lat="43.636380" lon="-8.119802">
        <ele>15.624</ele>
        <time>2016-09-26T11:42:03Z</time>
      </trkpt>
      <trkpt lat="43.636397" lon="-8.119812">
        <ele>15.827</ele>
        <time>2016-09-26T11:42:04Z</time>
      </trkpt>
      <trkpt lat="43.636414" lon="-8.119823">
        <ele>15.885</ele>
        <time>2016-09-26T11:42:05Z</time>
      </trkpt>
      <trkpt lat="43.636431" lon="-8.119834">
        <ele>15.944</ele>
        <time>2016-09-26T11:42:06Z</time>
      </trkpt>
      <trkpt lat="43.636448" lon="-8.119844">
        <ele>16.305</ele>
        <time>2016-09-26T11:42:07Z</time>
      </trkpt>
      <trkpt lat="43.636469" lon="-8.119855">
        <ele>16.515</ele>
        <time>2016-09-26T11:42:08Z</time>
      </trkpt>
      <trkpt lat="43.636488" lon="-8.119866">
        <ele>16.708</ele>
        <time>2016-09-26T11:42:09Z</time>
      </trkpt>
      <trkpt lat="43.636506" lon="-8.119877">
        <ele>16.915</ele>
        <time>2016-09-26T11:42:10Z</time>
      </trkpt>
      <trkpt lat="43.636524" lon="-8.119886">
        <ele>17.060</ele>
        <time>2016-09-26T11:42:11Z</time>
      </trkpt>
      <trkpt lat="43.636543" lon="-8.119896">
        <ele>17.068</ele>
        <time>2016-09-26T11:42:12Z</time>
      </trkpt>
      <trkpt lat="43.636561" lon="-8.119906">
        <ele>17.444</ele>
        <time>2016-09-26T11:42:13Z</time>
      </trkpt>
      <trkpt lat="43.636577" lon="-8.119915">
        <ele>17.668</ele>
        <time>2016-09-26T11:42:14Z</time>
      </trkpt>
      <trkpt lat="43.636590" lon="-8.119924">
        <ele>17.710</ele>
        <time>2016-09-26T11:42:15Z</time>
      </trkpt>
      <trkpt lat="43.636607" lon="-8.119934">
        <ele>17.823</ele>
        <time>2016-09-26T11:42:16Z</time>
      </trkpt>
      <trkpt lat="43.636621" lon="-8.119941">
        <ele>17.931</ele>
        <time>2016-09-26T11:42:17Z</time>
      </trkpt>
      <trkpt lat="43.636638" lon="-8.119952">
        <ele>18.095</ele>
        <time>2016-09-26T11:42:18Z</time>
      </trkpt>
      <trkpt lat="43.636656" lon="-8.119965">
        <ele>18.249</ele>
        <time>2016-09-26T11:42:19Z</time>
      </trkpt>
      <trkpt lat="43.636674" lon="-8.119973">
        <ele>18.523</ele>
        <time>2016-09-26T11:42:20Z</time>
      </trkpt>
      <trkpt lat="43.636689" lon="-8.119980">
        <ele>18.508</ele>
        <time>2016-09-26T11:42:21Z</time>
      </trkpt>
      <trkpt lat="43.636705" lon="-8.119986">
        <ele>18.520</ele>
        <time>2016-09-26T11:42:22Z</time>
      </trkpt>
      <trkpt lat="43.636726" lon="-8.119994">
        <ele>18.745</ele>
        <time>2016-09-26T11:42:23Z</time>
      </trkpt>
      <trkpt lat="43.636746" lon="-8.120000">
        <ele>19.183</ele>
        <time>2016-09-26T11:42:24Z</time>
      </trkpt>
      <trkpt lat="43.636764" lon="-8.120010">
        <ele>19.349</ele>
        <time>2016-09-26T11:42:25Z</time>
      </trkpt>
      <trkpt lat="43.636783" lon="-8.120021">
        <ele>19.853</ele>
        <time>2016-09-26T11:42:26Z</time>
      </trkpt>
      <trkpt lat="43.636803" lon="-8.120031">
        <ele>20.215</ele>
        <time>2016-09-26T11:42:27Z</time>
      </trkpt>
      <trkpt lat="43.636819" lon="-8.120040">
        <ele>20.378</ele>
        <time>2016-09-26T11:42:28Z</time>
      </trkpt>
      <trkpt lat="43.636838" lon="-8.120049">
        <ele>20.516</ele>
        <time>2016-09-26T11:42:29Z</time>
      </trkpt>
      <trkpt lat="43.636855" lon="-8.120059">
        <ele>20.551</ele>
        <time>2016-09-26T11:42:30Z</time>
      </trkpt>
      <trkpt lat="43.636873" lon="-8.120068">
        <ele>20.601</ele>
        <time>2016-09-26T11:42:31Z</time>
      </trkpt>
      <trkpt lat="43.636890" lon="-8.120076">
        <ele>20.911</ele>
        <time>2016-09-26T11:42:32Z</time>
      </trkpt>
      <trkpt lat="43.636906" lon="-8.120086">
        <ele>21.108</ele>
        <time>2016-09-26T11:42:33Z</time>
      </trkpt>
      <trkpt lat="43.636924" lon="-8.120095">
        <ele>21.156</ele>
        <time>2016-09-26T11:42:34Z</time>
      </trkpt>
      <trkpt lat="43.636942" lon="-8.120102">
        <ele>21.281</ele>
        <time>2016-09-26T11:42:35Z</time>
      </trkpt>
      <trkpt lat="43.636958" lon="-8.120108">
        <ele>21.459</ele>
        <time>2016-09-26T11:42:36Z</time>
      </trkpt>
      <trkpt lat="43.636976" lon="-8.120111">
        <ele>21.445</ele>
        <time>2016-09-26T11:42:37Z</time>
      </trkpt>
      <trkpt lat="43.636997" lon="-8.120112">
        <ele>21.629</ele>
        <time>2016-09-26T11:42:38Z</time>
      </trkpt>
      <trkpt lat="43.637017" lon="-8.120116">
        <ele>21.621</ele>
        <time>2016-09-26T11:42:39Z</time>
      </trkpt>
      <trkpt lat="43.637035" lon="-8.120125">
        <ele>22.124</ele>
        <time>2016-09-26T11:42:40Z</time>
      </trkpt>
      <trkpt lat="43.637053" lon="-8.120134">
        <ele>22.272</ele>
        <time>2016-09-26T11:42:41Z</time>
      </trkpt>
      <trkpt lat="43.637072" lon="-8.120141">
        <ele>22.377</ele>
        <time>2016-09-26T11:42:42Z</time>
      </trkpt>
      <trkpt lat="43.637092" lon="-8.120146">
        <ele>22.461</ele>
        <time>2016-09-26T11:42:43Z</time>
      </trkpt>
      <trkpt lat="43.637113" lon="-8.120152">
        <ele>22.527</ele>
        <time>2016-09-26T11:42:44Z</time>
      </trkpt>
      <trkpt lat="43.637134" lon="-8.120162">
        <ele>22.508</ele>
        <time>2016-09-26T11:42:45Z</time>
      </trkpt>
      <trkpt lat="43.637153" lon="-8.120171">
        <ele>22.638</ele>
        <time>2016-09-26T11:42:46Z</time>
      </trkpt>
      <trkpt lat="43.637173" lon="-8.120175">
        <ele>22.613</ele>
        <time>2016-09-26T11:42:47Z</time>
      </trkpt>
      <trkpt lat="43.637191" lon="-8.120179">
        <ele>22.751</ele>
        <time>2016-09-26T11:42:48Z</time>
      </trkpt>
      <trkpt lat="43.637211" lon="-8.120183">
        <ele>22.867</ele>
        <time>2016-09-26T11:42:49Z</time>
      </trkpt>
      <trkpt lat="43.637232" lon="-8.120190">
        <ele>22.981</ele>
        <time>2016-09-26T11:42:50Z</time>
      </trkpt>
      <trkpt lat="43.637254" lon="-8.120200">
        <ele>23.043</ele>
        <time>2016-09-26T11:42:51Z</time>
      </trkpt>
      <trkpt lat="43.637277" lon="-8.120208">
        <ele>23.346</ele>
        <time>2016-09-26T11:42:52Z</time>
      </trkpt>
      <trkpt lat="43.637299" lon="-8.120215">
        <ele>23.494</ele>
        <time>2016-09-26T11:42:53Z</time>
      </trkpt>
      <trkpt lat="43.637320" lon="-8.120219">
        <ele>23.431</ele>
        <time>2016-09-26T11:42:54Z</time>
      </trkpt>
      <trkpt lat="43.637343" lon="-8.120222">
        <ele>23.561</ele>
        <time>2016-09-26T11:42:55Z</time>
      </trkpt>
      <trkpt lat="43.637367" lon="-8.120221">
        <ele>23.407</ele>
        <time>2016-09-26T11:42:56Z</time>
      </trkpt>
      <trkpt lat="43.637393" lon="-8.120219">
        <ele>23.508</ele>
        <time>2016-09-26T11:42:57Z</time>
      </trkpt>
      <trkpt lat="43.637419" lon="-8.120217">
        <ele>23.514</ele>
        <time>2016-09-26T11:42:58Z</time>
      </trkpt>
      <trkpt lat="43.637446" lon="-8.120216">
        <ele>23.719</ele>
        <time>2016-09-26T11:42:59Z</time>
      </trkpt>
      <trkpt lat="43.637472" lon="-8.120215">
        <ele>23.977</ele>
        <time>2016-09-26T11:43:00Z</time>
      </trkpt>
      <trkpt lat="43.637498" lon="-8.120216">
        <ele>23.993</ele>
        <time>2016-09-26T11:43:01Z</time>
      </trkpt>
      <trkpt lat="43.637524" lon="-8.120219">
        <ele>24.027</ele>
        <time>2016-09-26T11:43:02Z</time>
      </trkpt>
      <trkpt lat="43.637551" lon="-8.120225">
        <ele>23.949</ele>
        <time>2016-09-26T11:43:03Z</time>
      </trkpt>
      <trkpt lat="43.637578" lon="-8.120230">
        <ele>23.772</ele>
        <time>2016-09-26T11:43:04Z</time>
      </trkpt>
      <trkpt lat="43.637607" lon="-8.120234">
        <ele>23.730</ele>
        <time>2016-09-26T11:43:05Z</time>
      </trkpt>
      <trkpt lat="43.637636" lon="-8.120240">
        <ele>23.924</ele>
        <time>2016-09-26T11:43:06Z</time>
      </trkpt>
      <trkpt lat="43.637666" lon="-8.120245">
        <ele>23.904</ele>
        <time>2016-09-26T11:43:07Z</time>
      </trkpt>
      <trkpt lat="43.637697" lon="-8.120249">
        <ele>23.814</ele>
        <time>2016-09-26T11:43:08Z</time>
      </trkpt>
      <trkpt lat="43.637728" lon="-8.120256">
        <ele>23.808</ele>
        <time>2016-09-26T11:43:09Z</time>
      </trkpt>
      <trkpt lat="43.637759" lon="-8.120262">
        <ele>23.813</ele>
        <time>2016-09-26T11:43:10Z</time>
      </trkpt>
      <trkpt lat="43.637791" lon="-8.120268">
        <ele>23.798</ele>
        <time>2016-09-26T11:43:11Z</time>
      </trkpt>
      <trkpt lat="43.637823" lon="-8.120273">
        <ele>23.816</ele>
        <time>2016-09-26T11:43:12Z</time>
      </trkpt>
      <trkpt lat="43.637856" lon="-8.120280">
        <ele>23.762</ele>
        <time>2016-09-26T11:43:13Z</time>
      </trkpt>
      <trkpt lat="43.637888" lon="-8.120285">
        <ele>23.666</ele>
        <time>2016-09-26T11:43:14Z</time>
      </trkpt>
      <trkpt lat="43.637922" lon="-8.120291">
        <ele>23.668</ele>
        <time>2016-09-26T11:43:15Z</time>
      </trkpt>
      <trkpt lat="43.637955" lon="-8.120297">
        <ele>23.511</ele>
        <time>2016-09-26T11:43:16Z</time>
      </trkpt>
      <trkpt lat="43.637989" lon="-8.120305">
        <ele>23.679</ele>
        <time>2016-09-26T11:43:17Z</time>
      </trkpt>
      <trkpt lat="43.638023" lon="-8.120315">
        <ele>23.636</ele>
        <time>2016-09-26T11:43:18Z</time>
      </trkpt>
      <trkpt lat="43.638058" lon="-8.120328">
        <ele>23.617</ele>
        <time>2016-09-26T11:43:19Z</time>
      </trkpt>
      <trkpt lat="43.638094" lon="-8.120343">
        <ele>23.718</ele>
        <time>2016-09-26T11:43:20Z</time>
      </trkpt>
      <trkpt lat="43.638131" lon="-8.120358">
        <ele>23.808</ele>
        <time>2016-09-26T11:43:21Z</time>
      </trkpt>
      <trkpt lat="43.638166" lon="-8.120373">
        <ele>23.894</ele>
        <time>2016-09-26T11:43:22Z</time>
      </trkpt>
      <trkpt lat="43.638201" lon="-8.120389">
        <ele>23.799</ele>
        <time>2016-09-26T11:43:23Z</time>
      </trkpt>
      <trkpt lat="43.638234" lon="-8.120405">
        <ele>23.857</ele>
        <time>2016-09-26T11:43:24Z</time>
      </trkpt>
      <trkpt lat="43.638268" lon="-8.120421">
        <ele>23.983</ele>
        <time>2016-09-26T11:43:25Z</time>
      </trkpt>
      <trkpt lat="43.638300" lon="-8.120440">
        <ele>23.877</ele>
        <time>2016-09-26T11:43:26Z</time>
      </trkpt>
      <trkpt lat="43.638332" lon="-8.120461">
        <ele>23.939</ele>
        <time>2016-09-26T11:43:27Z</time>
      </trkpt>
      <trkpt lat="43.638365" lon="-8.120482">
        <ele>24.052</ele>
        <time>2016-09-26T11:43:28Z</time>
      </trkpt>
      <trkpt lat="43.638395" lon="-8.120505">
        <ele>24.040</ele>
        <time>2016-09-26T11:43:29Z</time>
      </trkpt>
      <trkpt lat="43.638427" lon="-8.120524">
        <ele>24.282</ele>
        <time>2016-09-26T11:43:30Z</time>
      </trkpt>
      <trkpt lat="43.638460" lon="-8.120541">
        <ele>24.443</ele>
        <time>2016-09-26T11:43:31Z</time>
      </trkpt>
      <trkpt lat="43.638494" lon="-8.120557">
        <ele>24.517</ele>
        <time>2016-09-26T11:43:32Z</time>
      </trkpt>
      <trkpt lat="43.638527" lon="-8.120574">
        <ele>24.608</ele>
        <time>2016-09-26T11:43:33Z</time>
      </trkpt>
      <trkpt lat="43.638558" lon="-8.120591">
        <ele>24.629</ele>
        <time>2016-09-26T11:43:34Z</time>
      </trkpt>
      <trkpt lat="43.638589" lon="-8.120608">
        <ele>24.714</ele>
        <time>2016-09-26T11:43:35Z</time>
      </trkpt>
      <trkpt lat="43.638621" lon="-8.120622">
        <ele>24.872</ele>
        <time>2016-09-26T11:43:36Z</time>
      </trkpt>
      <trkpt lat="43.638654" lon="-8.120638">
        <ele>25.088</ele>
        <time>2016-09-26T11:43:37Z</time>
      </trkpt>
      <trkpt lat="43.638686" lon="-8.120653">
        <ele>25.272</ele>
        <time>2016-09-26T11:43:38Z</time>
      </trkpt>
      <trkpt lat="43.638718" lon="-8.120663">
        <ele>25.284</ele>
        <time>2016-09-26T11:43:39Z</time>
      </trkpt>
      <trkpt lat="43.638754" lon="-8.120673">
        <ele>25.347</ele>
        <time>2016-09-26T11:43:40Z</time>
      </trkpt>
      <trkpt lat="43.638789" lon="-8.120682">
        <ele>25.415</ele>
        <time>2016-09-26T11:43:41Z</time>
      </trkpt>
      <trkpt lat="43.638826" lon="-8.120692">
        <ele>25.524</ele>
        <time>2016-09-26T11:43:42Z</time>
      </trkpt>
      <trkpt lat="43.638863" lon="-8.120700">
        <ele>25.404</ele>
        <time>2016-09-26T11:43:43Z</time>
      </trkpt>
      <trkpt lat="43.638901" lon="-8.120710">
        <ele>25.614</ele>
        <time>2016-09-26T11:43:44Z</time>
      </trkpt>
      <trkpt lat="43.638940" lon="-8.120719">
        <ele>25.608</ele>
        <time>2016-09-26T11:43:45Z</time>
      </trkpt>
      <trkpt lat="43.638980" lon="-8.120726">
        <ele>25.613</ele>
        <time>2016-09-26T11:43:46Z</time>
      </trkpt>
      <trkpt lat="43.639023" lon="-8.120732">
        <ele>25.548</ele>
        <time>2016-09-26T11:43:47Z</time>
      </trkpt>
      <trkpt lat="43.639066" lon="-8.120740">
        <ele>25.616</ele>
        <time>2016-09-26T11:43:48Z</time>
      </trkpt>
      <trkpt lat="43.639107" lon="-8.120751">
        <ele>25.642</ele>
        <time>2016-09-26T11:43:49Z</time>
      </trkpt>
      <trkpt lat="43.639149" lon="-8.120761">
        <ele>25.556</ele>
        <time>2016-09-26T11:43:50Z</time>
      </trkpt>
      <trkpt lat="43.639191" lon="-8.120770">
        <ele>25.668</ele>
        <time>2016-09-26T11:43:51Z</time>
      </trkpt>
      <trkpt lat="43.639236" lon="-8.120780">
        <ele>25.621</ele>
        <time>2016-09-26T11:43:52Z</time>
      </trkpt>
      <trkpt lat="43.639280" lon="-8.120789">
        <ele>25.579</ele>
        <time>2016-09-26T11:43:53Z</time>
      </trkpt>
      <trkpt lat="43.639325" lon="-8.120798">
        <ele>25.497</ele>
        <time>2016-09-26T11:43:54Z</time>
      </trkpt>
      <trkpt lat="43.639370" lon="-8.120805">
        <ele>25.623</ele>
        <time>2016-09-26T11:43:55Z</time>
      </trkpt>
      <trkpt lat="43.639415" lon="-8.120810">
        <ele>25.725</ele>
        <time>2016-09-26T11:43:56Z</time>
      </trkpt>
      <trkpt lat="43.639460" lon="-8.120814">
        <ele>25.908</ele>
        <time>2016-09-26T11:43:57Z</time>
      </trkpt>
      <trkpt lat="43.639504" lon="-8.120817">
        <ele>25.890</ele>
        <time>2016-09-26T11:43:58Z</time>
      </trkpt>
      <trkpt lat="43.639549" lon="-8.120819">
        <ele>25.985</ele>
        <time>2016-09-26T11:43:59Z</time>
      </trkpt>
      <trkpt lat="43.639595" lon="-8.120818">
        <ele>26.013</ele>
        <time>2016-09-26T11:44:00Z</time>
      </trkpt>
      <trkpt lat="43.639641" lon="-8.120816">
        <ele>26.179</ele>
        <time>2016-09-26T11:44:01Z</time>
      </trkpt>
      <trkpt lat="43.639686" lon="-8.120815">
        <ele>26.173</ele>
        <time>2016-09-26T11:44:02Z</time>
      </trkpt>
      <trkpt lat="43.639731" lon="-8.120814">
        <ele>26.135</ele>
        <time>2016-09-26T11:44:03Z</time>
      </trkpt>
      <trkpt lat="43.639776" lon="-8.120812">
        <ele>25.998</ele>
        <time>2016-09-26T11:44:04Z</time>
      </trkpt>
      <trkpt lat="43.639821" lon="-8.120810">
        <ele>25.766</ele>
        <time>2016-09-26T11:44:05Z</time>
      </trkpt>
      <trkpt lat="43.639866" lon="-8.120809">
        <ele>25.779</ele>
        <time>2016-09-26T11:44:06Z</time>
      </trkpt>
      <trkpt lat="43.639910" lon="-8.120807">
        <ele>25.505</ele>
        <time>2016-09-26T11:44:07Z</time>
      </trkpt>
      <trkpt lat="43.639954" lon="-8.120804">
        <ele>25.425</ele>
        <time>2016-09-26T11:44:08Z</time>
      </trkpt>
      <trkpt lat="43.639998" lon="-8.120802">
        <ele>25.308</ele>
        <time>2016-09-26T11:44:09Z</time>
      </trkpt>
      <trkpt lat="43.640043" lon="-8.120798">
        <ele>25.238</ele>
        <time>2016-09-26T11:44:10Z</time>
      </trkpt>
      <trkpt lat="43.640089" lon="-8.120795">
        <ele>25.213</ele>
        <time>2016-09-26T11:44:11Z</time>
      </trkpt>
      <trkpt lat="43.640135" lon="-8.120793">
        <ele>25.261</ele>
        <time>2016-09-26T11:44:12Z</time>
      </trkpt>
      <trkpt lat="43.640182" lon="-8.120794">
        <ele>25.077</ele>
        <time>2016-09-26T11:44:13Z</time>
      </trkpt>
      <trkpt lat="43.640230" lon="-8.120797">
        <ele>24.931</ele>
        <time>2016-09-26T11:44:14Z</time>
      </trkpt>
      <trkpt lat="43.640277" lon="-8.120803">
        <ele>25.093</ele>
        <time>2016-09-26T11:44:15Z</time>
      </trkpt>
      <trkpt lat="43.640325" lon="-8.120811">
        <ele>25.236</ele>
        <time>2016-09-26T11:44:16Z</time>
      </trkpt>
      <trkpt lat="43.640372" lon="-8.120826">
        <ele>25.484</ele>
        <time>2016-09-26T11:44:17Z</time>
      </trkpt>
      <trkpt lat="43.640416" lon="-8.120847">
        <ele>25.211</ele>
        <time>2016-09-26T11:44:18Z</time>
      </trkpt>
      <trkpt lat="43.640458" lon="-8.120872">
        <ele>25.221</ele>
        <time>2016-09-26T11:44:19Z</time>
      </trkpt>
      <trkpt lat="43.640496" lon="-8.120902">
        <ele>25.203</ele>
        <time>2016-09-26T11:44:20Z</time>
      </trkpt>
      <trkpt lat="43.640528" lon="-8.120934">
        <ele>25.208</ele>
        <time>2016-09-26T11:44:21Z</time>
      </trkpt>
      <trkpt lat="43.640556" lon="-8.120966">
        <ele>25.412</ele>
        <time>2016-09-26T11:44:22Z</time>
      </trkpt>
      <trkpt lat="43.640580" lon="-8.120996">
        <ele>25.497</ele>
        <time>2016-09-26T11:44:23Z</time>
      </trkpt>
      <trkpt lat="43.640601" lon="-8.121026">
        <ele>25.575</ele>
        <time>2016-09-26T11:44:24Z</time>
      </trkpt>
      <trkpt lat="43.640621" lon="-8.121053">
        <ele>25.661</ele>
        <time>2016-09-26T11:44:25Z</time>
      </trkpt>
      <trkpt lat="43.640640" lon="-8.121076">
        <ele>25.945</ele>
        <time>2016-09-26T11:44:26Z</time>
      </trkpt>
      <trkpt lat="43.640657" lon="-8.121096">
        <ele>26.167</ele>
        <time>2016-09-26T11:44:27Z</time>
      </trkpt>
      <trkpt lat="43.640674" lon="-8.121116">
        <ele>26.450</ele>
        <time>2016-09-26T11:44:28Z</time>
      </trkpt>
      <trkpt lat="43.640691" lon="-8.121136">
        <ele>26.628</ele>
        <time>2016-09-26T11:44:29Z</time>
      </trkpt>
      <trkpt lat="43.640707" lon="-8.121158">
        <ele>26.949</ele>
        <time>2016-09-26T11:44:30Z</time>
      </trkpt>
      <trkpt lat="43.640721" lon="-8.121179">
        <ele>27.002</ele>
        <time>2016-09-26T11:44:31Z</time>
      </trkpt>
      <trkpt lat="43.640736" lon="-8.121200">
        <ele>27.122</ele>
        <time>2016-09-26T11:44:32Z</time>
      </trkpt>
      <trkpt lat="43.640750" lon="-8.121222">
        <ele>27.208</ele>
        <time>2016-09-26T11:44:33Z</time>
      </trkpt>
      <trkpt lat="43.640765" lon="-8.121244">
        <ele>27.585</ele>
        <time>2016-09-26T11:44:34Z</time>
      </trkpt>
      <trkpt lat="43.640781" lon="-8.121265">
        <ele>27.640</ele>
        <time>2016-09-26T11:44:35Z</time>
      </trkpt>
      <trkpt lat="43.640797" lon="-8.121287">
        <ele>27.898</ele>
        <time>2016-09-26T11:44:36Z</time>
      </trkpt>
      <trkpt lat="43.640812" lon="-8.121308">
        <ele>27.854</ele>
        <time>2016-09-26T11:44:37Z</time>
      </trkpt>
      <trkpt lat="43.640827" lon="-8.121329">
        <ele>28.248</ele>
        <time>2016-09-26T11:44:38Z</time>
      </trkpt>
      <trkpt lat="43.640843" lon="-8.121351">
        <ele>28.410</ele>
        <time>2016-09-26T11:44:39Z</time>
      </trkpt>
      <trkpt lat="43.640859" lon="-8.121378">
        <ele>28.453</ele>
        <time>2016-09-26T11:44:40Z</time>
      </trkpt>
      <trkpt lat="43.640876" lon="-8.121400">
        <ele>28.431</ele>
        <time>2016-09-26T11:44:41Z</time>
      </trkpt>
      <trkpt lat="43.640893" lon="-8.121420">
        <ele>28.587</ele>
        <time>2016-09-26T11:44:42Z</time>
      </trkpt>
      <trkpt lat="43.640909" lon="-8.121441">
        <ele>28.742</ele>
        <time>2016-09-26T11:44:43Z</time>
      </trkpt>
      <trkpt lat="43.640924" lon="-8.121460">
        <ele>29.026</ele>
        <time>2016-09-26T11:44:44Z</time>
      </trkpt>
      <trkpt lat="43.640940" lon="-8.121479">
        <ele>29.308</ele>
        <time>2016-09-26T11:44:45Z</time>
      </trkpt>
      <trkpt lat="43.640955" lon="-8.121498">
        <ele>29.689</ele>
        <time>2016-09-26T11:44:46Z</time>
      </trkpt>
      <trkpt lat="43.640968" lon="-8.121518">
        <ele>29.994</ele>
        <time>2016-09-26T11:44:47Z</time>
      </trkpt>
      <trkpt lat="43.640981" lon="-8.121536">
        <ele>30.062</ele>
        <time>2016-09-26T11:44:48Z</time>
      </trkpt>
      <trkpt lat="43.640995" lon="-8.121555">
        <ele>30.268</ele>
        <time>2016-09-26T11:44:49Z</time>
      </trkpt>
      <trkpt lat="43.641009" lon="-8.121573">
        <ele>30.462</ele>
        <time>2016-09-26T11:44:50Z</time>
      </trkpt>
      <trkpt lat="43.641021" lon="-8.121591">
        <ele>30.744</ele>
        <time>2016-09-26T11:44:51Z</time>
      </trkpt>
      <trkpt lat="43.641034" lon="-8.121609">
        <ele>30.947</ele>
        <time>2016-09-26T11:44:52Z</time>
      </trkpt>
      <trkpt lat="43.641047" lon="-8.121627">
        <ele>31.125</ele>
        <time>2016-09-26T11:44:53Z</time>
      </trkpt>
      <trkpt lat="43.641060" lon="-8.121644">
        <ele>31.459</ele>
        <time>2016-09-26T11:44:54Z</time>
      </trkpt>
      <trkpt lat="43.641071" lon="-8.121664">
        <ele>31.703</ele>
        <time>2016-09-26T11:44:55Z</time>
      </trkpt>
      <trkpt lat="43.641082" lon="-8.121684">
        <ele>31.923</ele>
        <time>2016-09-26T11:44:56Z</time>
      </trkpt>
      <trkpt lat="43.641092" lon="-8.121707">
        <ele>32.208</ele>
        <time>2016-09-26T11:44:57Z</time>
      </trkpt>
      <trkpt lat="43.641100" lon="-8.121730">
        <ele>32.576</ele>
        <time>2016-09-26T11:44:58Z</time>
      </trkpt>
      <trkpt lat="43.641107" lon="-8.121755">
        <ele>32.851</ele>
        <time>2016-09-26T11:44:59Z</time>
      </trkpt>
      <trkpt lat="43.641111" lon="-8.121779">
        <ele>33.079</ele>
        <time>2016-09-26T11:45:00Z</time>
      </trkpt>
      <trkpt lat="43.641114" lon="-8.121802">
        <ele>33.235</ele>
        <time>2016-09-26T11:45:01Z</time>
      </trkpt>
      <trkpt lat="43.641116" lon="-8.121825">
        <ele>33.489</ele>
        <time>2016-09-26T11:45:02Z</time>
      </trkpt>
      <trkpt lat="43.641115" lon="-8.121847">
        <ele>33.591</ele>
        <time>2016-09-26T11:45:03Z</time>
      </trkpt>
      <trkpt lat="43.641113" lon="-8.121869">
        <ele>33.724</ele>
        <time>2016-09-26T11:45:04Z</time>
      </trkpt>
      <trkpt lat="43.641109" lon="-8.121890">
        <ele>34.152</ele>
        <time>2016-09-26T11:45:05Z</time>
      </trkpt>
      <trkpt lat="43.641105" lon="-8.121910">
        <ele>34.343</ele>
        <time>2016-09-26T11:45:06Z</time>
      </trkpt>
      <trkpt lat="43.641098" lon="-8.121930">
        <ele>34.464</ele>
        <time>2016-09-26T11:45:07Z</time>
      </trkpt>
      <trkpt lat="43.641090" lon="-8.121949">
        <ele>34.410</ele>
        <time>2016-09-26T11:45:08Z</time>
      </trkpt>
      <trkpt lat="43.641081" lon="-8.121966">
        <ele>34.708</ele>
        <time>2016-09-26T11:45:09Z</time>
      </trkpt>
      <trkpt lat="43.641070" lon="-8.121983">
        <ele>34.975</ele>
        <time>2016-09-26T11:45:10Z</time>
      </trkpt>
      <trkpt lat="43.641059" lon="-8.121999">
        <ele>35.140</ele>
        <time>2016-09-26T11:45:11Z</time>
      </trkpt>
      <trkpt lat="43.641049" lon="-8.122014">
        <ele>35.548</ele>
        <time>2016-09-26T11:45:12Z</time>
      </trkpt>
      <trkpt lat="43.641038" lon="-8.122031">
        <ele>35.994</ele>
        <time>2016-09-26T11:45:13Z</time>
      </trkpt>
      <trkpt lat="43.641028" lon="-8.122048">
        <ele>36.118</ele>
        <time>2016-09-26T11:45:14Z</time>
      </trkpt>
      <trkpt lat="43.641019" lon="-8.122064">
        <ele>36.380</ele>
        <time>2016-09-26T11:45:15Z</time>
      </trkpt>
      <trkpt lat="43.641009" lon="-8.122078">
        <ele>36.533</ele>
        <time>2016-09-26T11:45:16Z</time>
      </trkpt>
      <trkpt lat="43.641004" lon="-8.122083">
        <ele>36.971</ele>
        <time>2016-09-26T11:45:17Z</time>
      </trkpt>
      <trkpt lat="43.641004" lon="-8.122082">
        <ele>37.132</ele>
        <time>2016-09-26T11:45:18Z</time>
      </trkpt>
      <trkpt lat="43.641004" lon="-8.122080">
        <ele>37.392</ele>
        <time>2016-09-26T11:45:19Z</time>
      </trkpt>
      <trkpt lat="43.641005" lon="-8.122080">
        <ele>37.411</ele>
        <time>2016-09-26T11:45:20Z</time>
      </trkpt>
      <trkpt lat="43.641005" lon="-8.122080">
        <ele>37.408</ele>
        <time>2016-09-26T11:45:20Z</time>
      </trkpt>
      <trkpt lat="43.641005" lon="-8.122079">
        <ele>37.724</ele>
        <time>2016-09-26T11:45:21Z</time>
      </trkpt>
      <trkpt lat="43.641005" lon="-8.122079">
        <ele>37.769</ele>
        <time>2016-09-26T11:45:21Z</time>
      </trkpt>
      <trkpt lat="43.641005" lon="-8.122079">
        <ele>37.787</ele>
        <time>2016-09-26T11:45:21Z</time>
      </trkpt>
      <trkpt lat="43.640963" lon="-8.122136">
        <ele>38.323</ele>
        <time>2016-09-26T11:45:32Z</time>
      </trkpt>
      <trkpt lat="43.640962" lon="-8.122136">
        <ele>38.317</ele>
        <time>2016-09-26T11:45:33Z</time>
      </trkpt>
      <trkpt lat="43.640959" lon="-8.122140">
        <ele>38.449</ele>
        <time>2016-09-26T11:45:34Z</time>
      </trkpt>
      <trkpt lat="43.640957" lon="-8.122144">
        <ele>38.512</ele>
        <time>2016-09-26T11:45:35Z</time>
      </trkpt>
      <trkpt lat="43.640952" lon="-8.122150">
        <ele>38.550</ele>
        <time>2016-09-26T11:45:36Z</time>
      </trkpt>
      <trkpt lat="43.640952" lon="-8.122150">
        <ele>38.576</ele>
        <time>2016-09-26T11:45:36Z</time>
      </trkpt>
      <trkpt lat="43.640952" lon="-8.122150">
        <ele>38.590</ele>
        <time>2016-09-26T11:45:36Z</time>
      </trkpt>
      <trkpt lat="43.640569" lon="-8.122630">
        <ele>48.319</ele>
        <time>2016-09-26T11:46:22Z</time>
      </trkpt>
      <trkpt lat="43.640559" lon="-8.122641">
        <ele>48.508</ele>
        <time>2016-09-26T11:46:23Z</time>
      </trkpt>
      <trkpt lat="43.640549" lon="-8.122650">
        <ele>48.748</ele>
        <time>2016-09-26T11:46:24Z</time>
      </trkpt>
      <trkpt lat="43.640539" lon="-8.122659">
        <ele>48.943</ele>
        <time>2016-09-26T11:46:25Z</time>
      </trkpt>
      <trkpt lat="43.640529" lon="-8.122668">
        <ele>49.171</ele>
        <time>2016-09-26T11:46:26Z</time>
      </trkpt>
      <trkpt lat="43.640519" lon="-8.122677">
        <ele>49.297</ele>
        <time>2016-09-26T11:46:27Z</time>
      </trkpt>
      <trkpt lat="43.640509" lon="-8.122686">
        <ele>49.671</ele>
        <time>2016-09-26T11:46:28Z</time>
      </trkpt>
      <trkpt lat="43.640498" lon="-8.122694">
        <ele>49.633</ele>
        <time>2016-09-26T11:46:29Z</time>
      </trkpt>
      <trkpt lat="43.640487" lon="-8.122703">
        <ele>49.856</ele>
        <time>2016-09-26T11:46:30Z</time>
      </trkpt>
      <trkpt lat="43.640476" lon="-8.122711">
        <ele>50.034</ele>
        <time>2016-09-26T11:46:31Z</time>
      </trkpt>
      <trkpt lat="43.640466" lon="-8.122720">
        <ele>50.068</ele>
        <time>2016-09-26T11:46:32Z</time>
      </trkpt>
      <trkpt lat="43.640455" lon="-8.122729">
        <ele>50.442</ele>
        <time>2016-09-26T11:46:33Z</time>
      </trkpt>
      <trkpt lat="43.640445" lon="-8.122737">
        <ele>50.326</ele>
        <time>2016-09-26T11:46:34Z</time>
      </trkpt>
      <trkpt lat="43.640433" lon="-8.122744">
        <ele>50.508</ele>
        <time>2016-09-26T11:46:35Z</time>
      </trkpt>
      <trkpt lat="43.640422" lon="-8.122752">
        <ele>50.657</ele>
        <time>2016-09-26T11:46:36Z</time>
      </trkpt>
      <trkpt lat="43.640411" lon="-8.122759">
        <ele>50.792</ele>
        <time>2016-09-26T11:46:37Z</time>
      </trkpt>
      <trkpt lat="43.640400" lon="-8.122765">
        <ele>50.780</ele>
        <time>2016-09-26T11:46:38Z</time>
      </trkpt>
      <trkpt lat="43.640389" lon="-8.122771">
        <ele>50.876</ele>
        <time>2016-09-26T11:46:39Z</time>
      </trkpt>
      <trkpt lat="43.640379" lon="-8.122776">
        <ele>50.990</ele>
        <time>2016-09-26T11:46:40Z</time>
      </trkpt>
      <trkpt lat="43.640369" lon="-8.122781">
        <ele>51.062</ele>
        <time>2016-09-26T11:46:41Z</time>
      </trkpt>
      <trkpt lat="43.640364" lon="-8.122784">
        <ele>51.365</ele>
        <time>2016-09-26T11:46:42Z</time>
      </trkpt>
      <trkpt lat="43.640364" lon="-8.122785">
        <ele>51.073</ele>
        <time>2016-09-26T11:46:43Z</time>
      </trkpt>
      <trkpt lat="43.640364" lon="-8.122786">
        <ele>51.136</ele>
        <time>2016-09-26T11:46:44Z</time>
      </trkpt>
      <trkpt lat="43.640363" lon="-8.122786">
        <ele>51.117</ele>
        <time>2016-09-26T11:46:45Z</time>
      </trkpt>
      <trkpt lat="43.640363" lon="-8.122786">
        <ele>51.118</ele>
        <time>2016-09-26T11:46:45Z</time>
      </trkpt>
      <trkpt lat="43.640363" lon="-8.122786">
        <ele>51.108</ele>
        <time>2016-09-26T11:46:45Z</time>
      </trkpt>
      <trkpt lat="43.640281" lon="-8.122830">
        <ele>51.954</ele>
        <time>2016-09-26T11:46:51Z</time>
      </trkpt>
      <trkpt lat="43.640265" lon="-8.122835">
        <ele>52.099</ele>
        <time>2016-09-26T11:46:52Z</time>
      </trkpt>
      <trkpt lat="43.640248" lon="-8.122840">
        <ele>52.057</ele>
        <time>2016-09-26T11:46:53Z</time>
      </trkpt>
      <trkpt lat="43.640231" lon="-8.122846">
        <ele>52.053</ele>
        <time>2016-09-26T11:46:54Z</time>
      </trkpt>
      <trkpt lat="43.640213" lon="-8.122853">
        <ele>52.277</ele>
        <time>2016-09-26T11:46:55Z</time>
      </trkpt>
      <trkpt lat="43.640195" lon="-8.122859">
        <ele>52.289</ele>
        <time>2016-09-26T11:46:56Z</time>
      </trkpt>
      <trkpt lat="43.640176" lon="-8.122866">
        <ele>52.442</ele>
        <time>2016-09-26T11:46:57Z</time>
      </trkpt>
      <trkpt lat="43.640155" lon="-8.122873">
        <ele>52.510</ele>
        <time>2016-09-26T11:46:58Z</time>
      </trkpt>
      <trkpt lat="43.640134" lon="-8.122877">
        <ele>52.499</ele>
        <time>2016-09-26T11:46:59Z</time>
      </trkpt>
      <trkpt lat="43.640113" lon="-8.122881">
        <ele>52.407</ele>
        <time>2016-09-26T11:47:00Z</time>
      </trkpt>
      <trkpt lat="43.640092" lon="-8.122888">
        <ele>52.527</ele>
        <time>2016-09-26T11:47:01Z</time>
      </trkpt>
      <trkpt lat="43.640068" lon="-8.122893">
        <ele>52.508</ele>
        <time>2016-09-26T11:47:02Z</time>
      </trkpt>
      <trkpt lat="43.640043" lon="-8.122896">
        <ele>52.440</ele>
        <time>2016-09-26T11:47:03Z</time>
      </trkpt>
      <trkpt lat="43.640019" lon="-8.122904">
        <ele>52.435</ele>
        <time>2016-09-26T11:47:04Z</time>
      </trkpt>
      <trkpt lat="43.639994" lon="-8.122914">
        <ele>52.373</ele>
        <time>2016-09-26T11:47:05Z</time>
      </trkpt>
      <trkpt lat="43.639967" lon="-8.122924">
        <ele>52.389</ele>
        <time>2016-09-26T11:47:06Z</time>
      </trkpt>
      <trkpt lat="43.639937" lon="-8.122934">
        <ele>52.463</ele>
        <time>2016-09-26T11:47:07Z</time>
      </trkpt>
      <trkpt lat="43.639906" lon="-8.122944">
        <ele>52.495</ele>
        <time>2016-09-26T11:47:08Z</time>
      </trkpt>
      <trkpt lat="43.639871" lon="-8.122954">
        <ele>52.398</ele>
        <time>2016-09-26T11:47:09Z</time>
      </trkpt>
      <trkpt lat="43.639833" lon="-8.122965">
        <ele>52.436</ele>
        <time>2016-09-26T11:47:10Z</time>
      </trkpt>
      <trkpt lat="43.639791" lon="-8.122977">
        <ele>52.558</ele>
        <time>2016-09-26T11:47:11Z</time>
      </trkpt>
      <trkpt lat="43.639748" lon="-8.122991">
        <ele>52.352</ele>
        <time>2016-09-26T11:47:12Z</time>
      </trkpt>
      <trkpt lat="43.639702" lon="-8.123006">
        <ele>52.317</ele>
        <time>2016-09-26T11:47:13Z</time>
      </trkpt>
      <trkpt lat="43.639654" lon="-8.123021">
        <ele>52.108</ele>
        <time>2016-09-26T11:47:14Z</time>
      </trkpt>
      <trkpt lat="43.639604" lon="-8.123035">
        <ele>52.156</ele>
        <time>2016-09-26T11:47:15Z</time>
      </trkpt>
      <trkpt lat="43.639553" lon="-8.123049">
        <ele>52.041</ele>
        <time>2016-09-26T11:47:16Z</time>
      </trkpt>
      <trkpt lat="43.639502" lon="-8.123065">
        <ele>51.839</ele>
        <time>2016-09-26T11:47:17Z</time>
      </trkpt>
      <trkpt lat="43.639451" lon="-8.123080">
        <ele>51.675</ele>
        <time>2016-09-26T11:47:18Z</time>
      </trkpt>
      <trkpt lat="43.639400" lon="-8.123094">
        <ele>51.729</ele>
        <time>2016-09-26T11:47:19Z</time>
      </trkpt>
      <trkpt lat="43.639349" lon="-8.123107">
        <ele>51.691</ele>
        <time>2016-09-26T11:47:20Z</time>
      </trkpt>
      <trkpt lat="43.639299" lon="-8.123121">
        <ele>51.744</ele>
        <time>2016-09-26T11:47:21Z</time>
      </trkpt>
      <trkpt lat="43.639251" lon="-8.123134">
        <ele>51.672</ele>
        <time>2016-09-26T11:47:22Z</time>
      </trkpt>
      <trkpt lat="43.639205" lon="-8.123145">
        <ele>51.591</ele>
        <time>2016-09-26T11:47:23Z</time>
      </trkpt>
      <trkpt lat="43.639162" lon="-8.123157">
        <ele>51.481</ele>
        <time>2016-09-26T11:47:24Z</time>
      </trkpt>
      <trkpt lat="43.639119" lon="-8.123168">
        <ele>51.319</ele>
        <time>2016-09-26T11:47:25Z</time>
      </trkpt>
      <trkpt lat="43.639077" lon="-8.123179">
        <ele>51.308</ele>
        <time>2016-09-26T11:47:26Z</time>
      </trkpt>
      <trkpt lat="43.639035" lon="-8.123190">
        <ele>51.320</ele>
        <time>2016-09-26T11:47:27Z</time>
      </trkpt>
      <trkpt lat="43.638993" lon="-8.123200">
        <ele>51.475</ele>
        <time>2016-09-26T11:47:28Z</time>
      </trkpt>
      <trkpt lat="43.638951" lon="-8.123210">
        <ele>51.583</ele>
        <time>2016-09-26T11:47:29Z</time>
      </trkpt>
      <trkpt lat="43.638911" lon="-8.123220">
        <ele>51.329</ele>
        <time>2016-09-26T11:47:30Z</time>
      </trkpt>
      <trkpt lat="43.638871" lon="-8.123230">
        <ele>51.513</ele>
        <time>2016-09-26T11:47:31Z</time>
      </trkpt>
      <trkpt lat="43.638833" lon="-8.123239">
        <ele>51.685</ele>
        <time>2016-09-26T11:47:32Z</time>
      </trkpt>
      <trkpt lat="43.638796" lon="-8.123246">
        <ele>51.788</ele>
        <time>2016-09-26T11:47:33Z</time>
      </trkpt>
      <trkpt lat="43.638757" lon="-8.123253">
        <ele>51.836</ele>
        <time>2016-09-26T11:47:34Z</time>
      </trkpt>
      <trkpt lat="43.638720" lon="-8.123259">
        <ele>52.084</ele>
        <time>2016-09-26T11:47:35Z</time>
      </trkpt>
      <trkpt lat="43.638683" lon="-8.123265">
        <ele>52.007</ele>
        <time>2016-09-26T11:47:36Z</time>
      </trkpt>
      <trkpt lat="43.638647" lon="-8.123270">
        <ele>52.117</ele>
        <time>2016-09-26T11:47:37Z</time>
      </trkpt>
      <trkpt lat="43.638611" lon="-8.123274">
        <ele>52.308</ele>
        <time>2016-09-26T11:47:38Z</time>
      </trkpt>
      <trkpt lat="43.638576" lon="-8.123278">
        <ele>52.649</ele>
        <time>2016-09-26T11:47:39Z</time>
      </trkpt>
      <trkpt lat="43.638542" lon="-8.123280">
        <ele>52.664</ele>
        <time>2016-09-26T11:47:40Z</time>
      </trkpt>
      <trkpt lat="43.638507" lon="-8.123281">
        <ele>52.822</ele>
        <time>2016-09-26T11:47:41Z</time>
      </trkpt>
      <trkpt lat="43.638473" lon="-8.123280">
        <ele>53.058</ele>
        <time>2016-09-26T11:47:42Z</time>
      </trkpt>
      <trkpt lat="43.638439" lon="-8.123277">
        <ele>53.222</ele>
        <time>2016-09-26T11:47:43Z</time>
      </trkpt>
      <trkpt lat="43.638406" lon="-8.123274">
        <ele>53.484</ele>
        <time>2016-09-26T11:47:44Z</time>
      </trkpt>
      <trkpt lat="43.638372" lon="-8.123273">
        <ele>53.597</ele>
        <time>2016-09-26T11:47:45Z</time>
      </trkpt>
      <trkpt lat="43.638338" lon="-8.123269">
        <ele>53.615</ele>
        <time>2016-09-26T11:47:46Z</time>
      </trkpt>
      <trkpt lat="43.638302" lon="-8.123266">
        <ele>53.737</ele>
        <time>2016-09-26T11:47:47Z</time>
      </trkpt>
      <trkpt lat="43.638267" lon="-8.123262">
        <ele>53.749</ele>
        <time>2016-09-26T11:47:48Z</time>
      </trkpt>
      <trkpt lat="43.638232" lon="-8.123256">
        <ele>53.813</ele>
        <time>2016-09-26T11:47:49Z</time>
      </trkpt>
      <trkpt lat="43.638197" lon="-8.123251">
        <ele>54.008</ele>
        <time>2016-09-26T11:47:50Z</time>
      </trkpt>
      <trkpt lat="43.638161" lon="-8.123247">
        <ele>53.974</ele>
        <time>2016-09-26T11:47:51Z</time>
      </trkpt>
      <trkpt lat="43.638124" lon="-8.123243">
        <ele>54.039</ele>
        <time>2016-09-26T11:47:52Z</time>
      </trkpt>
      <trkpt lat="43.638087" lon="-8.123240">
        <ele>54.137</ele>
        <time>2016-09-26T11:47:53Z</time>
      </trkpt>
      <trkpt lat="43.638050" lon="-8.123239">
        <ele>54.463</ele>
        <time>2016-09-26T11:47:54Z</time>
      </trkpt>
      <trkpt lat="43.638013" lon="-8.123236">
        <ele>54.567</ele>
        <time>2016-09-26T11:47:55Z</time>
      </trkpt>
      <trkpt lat="43.637977" lon="-8.123233">
        <ele>54.649</ele>
        <time>2016-09-26T11:47:56Z</time>
      </trkpt>
      <trkpt lat="43.637942" lon="-8.123228">
        <ele>54.772</ele>
        <time>2016-09-26T11:47:57Z</time>
      </trkpt>
      <trkpt lat="43.637910" lon="-8.123225">
        <ele>54.810</ele>
        <time>2016-09-26T11:47:58Z</time>
      </trkpt>
      <trkpt lat="43.637880" lon="-8.123225">
        <ele>54.879</ele>
        <time>2016-09-26T11:47:59Z</time>
      </trkpt>
      <trkpt lat="43.637851" lon="-8.123224">
        <ele>54.805</ele>
        <time>2016-09-26T11:48:00Z</time>
      </trkpt>
      <trkpt lat="43.637823" lon="-8.123225">
        <ele>54.925</ele>
        <time>2016-09-26T11:48:01Z</time>
      </trkpt>
      <trkpt lat="43.637796" lon="-8.123223">
        <ele>55.008</ele>
        <time>2016-09-26T11:48:02Z</time>
      </trkpt>
      <trkpt lat="43.637769" lon="-8.123221">
        <ele>55.238</ele>
        <time>2016-09-26T11:48:03Z</time>
      </trkpt>
      <trkpt lat="43.637742" lon="-8.123215">
        <ele>55.473</ele>
        <time>2016-09-26T11:48:04Z</time>
      </trkpt>
      <trkpt lat="43.637717" lon="-8.123211">
        <ele>55.441</ele>
        <time>2016-09-26T11:48:05Z</time>
      </trkpt>
      <trkpt lat="43.637694" lon="-8.123212">
        <ele>55.657</ele>
        <time>2016-09-26T11:48:06Z</time>
      </trkpt>
      <trkpt lat="43.637672" lon="-8.123211">
        <ele>55.941</ele>
        <time>2016-09-26T11:48:07Z</time>
      </trkpt>
      <trkpt lat="43.637649" lon="-8.123212">
        <ele>56.293</ele>
        <time>2016-09-26T11:48:08Z</time>
      </trkpt>
      <trkpt lat="43.637628" lon="-8.123211">
        <ele>56.446</ele>
        <time>2016-09-26T11:48:09Z</time>
      </trkpt>
      <trkpt lat="43.637605" lon="-8.123213">
        <ele>56.434</ele>
        <time>2016-09-26T11:48:10Z</time>
      </trkpt>
      <trkpt lat="43.637583" lon="-8.123214">
        <ele>56.766</ele>
        <time>2016-09-26T11:48:11Z</time>
      </trkpt>
      <trkpt lat="43.637562" lon="-8.123215">
        <ele>56.929</ele>
        <time>2016-09-26T11:48:12Z</time>
      </trkpt>
      <trkpt lat="43.637541" lon="-8.123217">
        <ele>57.321</ele>
        <time>2016-09-26T11:48:13Z</time>
      </trkpt>
      <trkpt lat="43.637519" lon="-8.123217">
        <ele>57.508</ele>
        <time>2016-09-26T11:48:14Z</time>
      </trkpt>
      <trkpt lat="43.637498" lon="-8.123219">
        <ele>57.827</ele>
        <time>2016-09-26T11:48:15Z</time>
      </trkpt>
      <trkpt lat="43.637477" lon="-8.123221">
        <ele>58.172</ele>
        <time>2016-09-26T11:48:16Z</time>
      </trkpt>
      <trkpt lat="43.637457" lon="-8.123222">
        <ele>58.110</ele>
        <time>2016-09-26T11:48:17Z</time>
      </trkpt>
      <trkpt lat="43.637436" lon="-8.123223">
        <ele>58.236</ele>
        <time>2016-09-26T11:48:18Z</time>
      </trkpt>
      <trkpt lat="43.637416" lon="-8.123226">
        <ele>58.470</ele>
        <time>2016-09-26T11:48:19Z</time>
      </trkpt>
      <trkpt lat="43.637395" lon="-8.123228">
        <ele>58.572</ele>
        <time>2016-09-26T11:48:20Z</time>
      </trkpt>
      <trkpt lat="43.637374" lon="-8.123229">
        <ele>58.815</ele>
        <time>2016-09-26T11:48:21Z</time>
      </trkpt>
      <trkpt lat="43.637353" lon="-8.123229">
        <ele>58.923</ele>
        <time>2016-09-26T11:48:22Z</time>
      </trkpt>
      <trkpt lat="43.637332" lon="-8.123230">
        <ele>59.086</ele>
        <time>2016-09-26T11:48:23Z</time>
      </trkpt>
      <trkpt lat="43.637311" lon="-8.123232">
        <ele>59.160</ele>
        <time>2016-09-26T11:48:24Z</time>
      </trkpt>
      <trkpt lat="43.637289" lon="-8.123234">
        <ele>59.126</ele>
        <time>2016-09-26T11:48:25Z</time>
      </trkpt>
      <trkpt lat="43.637267" lon="-8.123236">
        <ele>59.208</ele>
        <time>2016-09-26T11:48:26Z</time>
      </trkpt>
      <trkpt lat="43.637245" lon="-8.123238">
        <ele>59.559</ele>
        <time>2016-09-26T11:48:27Z</time>
      </trkpt>
      <trkpt lat="43.637223" lon="-8.123240">
        <ele>59.674</ele>
        <time>2016-09-26T11:48:28Z</time>
      </trkpt>
      <trkpt lat="43.637200" lon="-8.123241">
        <ele>59.562</ele>
        <time>2016-09-26T11:48:29Z</time>
      </trkpt>
      <trkpt lat="43.637177" lon="-8.123243">
        <ele>59.558</ele>
        <time>2016-09-26T11:48:30Z</time>
      </trkpt>
      <trkpt lat="43.637154" lon="-8.123246">
        <ele>59.722</ele>
        <time>2016-09-26T11:48:31Z</time>
      </trkpt>
      <trkpt lat="43.637131" lon="-8.123250">
        <ele>59.884</ele>
        <time>2016-09-26T11:48:32Z</time>
      </trkpt>
      <trkpt lat="43.637108" lon="-8.123256">
        <ele>59.937</ele>
        <time>2016-09-26T11:48:33Z</time>
      </trkpt>
      <trkpt lat="43.637085" lon="-8.123262">
        <ele>59.825</ele>
        <time>2016-09-26T11:48:34Z</time>
      </trkpt>
      <trkpt lat="43.637064" lon="-8.123267">
        <ele>59.997</ele>
        <time>2016-09-26T11:48:35Z</time>
      </trkpt>
      <trkpt lat="43.637042" lon="-8.123272">
        <ele>59.923</ele>
        <time>2016-09-26T11:48:36Z</time>
      </trkpt>
      <trkpt lat="43.637021" lon="-8.123278">
        <ele>60.125</ele>
        <time>2016-09-26T11:48:37Z</time>
      </trkpt>
      <trkpt lat="43.636998" lon="-8.123284">
        <ele>60.408</ele>
        <time>2016-09-26T11:48:38Z</time>
      </trkpt>
      <trkpt lat="43.636975" lon="-8.123291">
        <ele>60.620</ele>
        <time>2016-09-26T11:48:39Z</time>
      </trkpt>
      <trkpt lat="43.636952" lon="-8.123297">
        <ele>60.715</ele>
        <time>2016-09-26T11:48:40Z</time>
      </trkpt>
      <trkpt lat="43.636929" lon="-8.123305">
        <ele>60.723</ele>
        <time>2016-09-26T11:48:41Z</time>
      </trkpt>
      <trkpt lat="43.636906" lon="-8.123312">
        <ele>60.979</ele>
        <time>2016-09-26T11:48:42Z</time>
      </trkpt>
      <trkpt lat="43.636883" lon="-8.123319">
        <ele>61.143</ele>
        <time>2016-09-26T11:48:43Z</time>
      </trkpt>
      <trkpt lat="43.636861" lon="-8.123325">
        <ele>61.215</ele>
        <time>2016-09-26T11:48:44Z</time>
      </trkpt>
      <trkpt lat="43.636840" lon="-8.123332">
        <ele>61.398</ele>
        <time>2016-09-26T11:48:45Z</time>
      </trkpt>
      <trkpt lat="43.636819" lon="-8.123338">
        <ele>61.656</ele>
        <time>2016-09-26T11:48:46Z</time>
      </trkpt>
      <trkpt lat="43.636799" lon="-8.123345">
        <ele>61.786</ele>
        <time>2016-09-26T11:48:47Z</time>
      </trkpt>
      <trkpt lat="43.636779" lon="-8.123351">
        <ele>62.060</ele>
        <time>2016-09-26T11:48:48Z</time>
      </trkpt>
      <trkpt lat="43.636760" lon="-8.123358">
        <ele>62.126</ele>
        <time>2016-09-26T11:48:49Z</time>
      </trkpt>
      <trkpt lat="43.636739" lon="-8.123366">
        <ele>62.208</ele>
        <time>2016-09-26T11:48:50Z</time>
      </trkpt>
      <trkpt lat="43.636719" lon="-8.123376">
        <ele>62.369</ele>
        <time>2016-09-26T11:48:51Z</time>
      </trkpt>
      <trkpt lat="43.636700" lon="-8.123385">
        <ele>62.484</ele>
        <time>2016-09-26T11:48:52Z</time>
      </trkpt>
      <trkpt lat="43.636680" lon="-8.123396">
        <ele>62.512</ele>
        <time>2016-09-26T11:48:53Z</time>
      </trkpt>
      <trkpt lat="43.636660" lon="-8.123405">
        <ele>62.748</ele>
        <time>2016-09-26T11:48:54Z</time>
      </trkpt>
      <trkpt lat="43.636640" lon="-8.123414">
        <ele>63.222</ele>
        <time>2016-09-26T11:48:55Z</time>
      </trkpt>
      <trkpt lat="43.636621" lon="-8.123424">
        <ele>63.444</ele>
        <time>2016-09-26T11:48:56Z</time>
      </trkpt>
      <trkpt lat="43.636602" lon="-8.123433">
        <ele>63.677</ele>
        <time>2016-09-26T11:48:57Z</time>
      </trkpt>
      <trkpt lat="43.636583" lon="-8.123444">
        <ele>64.075</ele>
        <time>2016-09-26T11:48:58Z</time>
      </trkpt>
      <trkpt lat="43.636564" lon="-8.123455">
        <ele>64.398</ele>
        <time>2016-09-26T11:48:59Z</time>
      </trkpt>
      <trkpt lat="43.636545" lon="-8.123466">
        <ele>64.415</ele>
        <time>2016-09-26T11:49:00Z</time>
      </trkpt>
      <trkpt lat="43.636526" lon="-8.123477">
        <ele>64.726</ele>
        <time>2016-09-26T11:49:01Z</time>
      </trkpt>
      <trkpt lat="43.636508" lon="-8.123489">
        <ele>64.808</ele>
        <time>2016-09-26T11:49:02Z</time>
      </trkpt>
      <trkpt lat="43.636491" lon="-8.123501">
        <ele>65.180</ele>
        <time>2016-09-26T11:49:03Z</time>
      </trkpt>
      <trkpt lat="43.636474" lon="-8.123512">
        <ele>65.365</ele>
        <time>2016-09-26T11:49:04Z</time>
      </trkpt>
      <trkpt lat="43.636457" lon="-8.123527">
        <ele>65.563</ele>
        <time>2016-09-26T11:49:05Z</time>
      </trkpt>
      <trkpt lat="43.636441" lon="-8.123541">
        <ele>65.829</ele>
        <time>2016-09-26T11:49:06Z</time>
      </trkpt>
      <trkpt lat="43.636424" lon="-8.123557">
        <ele>65.933</ele>
        <time>2016-09-26T11:49:07Z</time>
      </trkpt>
      <trkpt lat="43.636408" lon="-8.123573">
        <ele>66.065</ele>
        <time>2016-09-26T11:49:08Z</time>
      </trkpt>
      <trkpt lat="43.636392" lon="-8.123589">
        <ele>66.328</ele>
        <time>2016-09-26T11:49:09Z</time>
      </trkpt>
      <trkpt lat="43.636376" lon="-8.123605">
        <ele>66.446</ele>
        <time>2016-09-26T11:49:10Z</time>
      </trkpt>
      <trkpt lat="43.636359" lon="-8.123620">
        <ele>66.538</ele>
        <time>2016-09-26T11:49:11Z</time>
      </trkpt>
      <trkpt lat="43.636343" lon="-8.123635">
        <ele>66.670</ele>
        <time>2016-09-26T11:49:12Z</time>
      </trkpt>
      <trkpt lat="43.636327" lon="-8.123653">
        <ele>66.617</ele>
        <time>2016-09-26T11:49:13Z</time>
      </trkpt>
      <trkpt lat="43.636310" lon="-8.123670">
        <ele>66.608</ele>
        <time>2016-09-26T11:49:14Z</time>
      </trkpt>
      <trkpt lat="43.636293" lon="-8.123687">
        <ele>66.854</ele>
        <time>2016-09-26T11:49:15Z</time>
      </trkpt>
      <trkpt lat="43.636275" lon="-8.123703">
        <ele>66.989</ele>
        <time>2016-09-26T11:49:16Z</time>
      </trkpt>
      <trkpt lat="43.636258" lon="-8.123720">
        <ele>67.157</ele>
        <time>2016-09-26T11:49:17Z</time>
      </trkpt>
      <trkpt lat="43.636240" lon="-8.123737">
        <ele>67.363</ele>
        <time>2016-09-26T11:49:18Z</time>
      </trkpt>
      <trkpt lat="43.636222" lon="-8.123752">
        <ele>67.497</ele>
        <time>2016-09-26T11:49:19Z</time>
      </trkpt>
      <trkpt lat="43.636205" lon="-8.123767">
        <ele>67.689</ele>
        <time>2016-09-26T11:49:20Z</time>
      </trkpt>
      <trkpt lat="43.636188" lon="-8.123784">
        <ele>67.732</ele>
        <time>2016-09-26T11:49:21Z</time>
      </trkpt>
      <trkpt lat="43.636171" lon="-8.123800">
        <ele>67.730</ele>
        <time>2016-09-26T11:49:22Z</time>
      </trkpt>
      <trkpt lat="43.636153" lon="-8.123816">
        <ele>67.896</ele>
        <time>2016-09-26T11:49:23Z</time>
      </trkpt>
      <trkpt lat="43.636135" lon="-8.123832">
        <ele>67.731</ele>
        <time>2016-09-26T11:49:24Z</time>
      </trkpt>
      <trkpt lat="43.636118" lon="-8.123848">
        <ele>67.924</ele>
        <time>2016-09-26T11:49:25Z</time>
      </trkpt>
      <trkpt lat="43.636100" lon="-8.123864">
        <ele>68.108</ele>
        <time>2016-09-26T11:49:26Z</time>
      </trkpt>
      <trkpt lat="43.636081" lon="-8.123879">
        <ele>68.260</ele>
        <time>2016-09-26T11:49:27Z</time>
      </trkpt>
      <trkpt lat="43.636062" lon="-8.123894">
        <ele>68.475</ele>
        <time>2016-09-26T11:49:28Z</time>
      </trkpt>
      <trkpt lat="43.636042" lon="-8.123908">
        <ele>68.593</ele>
        <time>2016-09-26T11:49:29Z</time>
      </trkpt>
      <trkpt lat="43.636023" lon="-8.123921">
        <ele>68.529</ele>
        <time>2016-09-26T11:49:30Z</time>
      </trkpt>
      <trkpt lat="43.636002" lon="-8.123936">
        <ele>68.583</ele>
        <time>2016-09-26T11:49:31Z</time>
      </trkpt>
      <trkpt lat="43.635982" lon="-8.123950">
        <ele>68.895</ele>
        <time>2016-09-26T11:49:32Z</time>
      </trkpt>
      <trkpt lat="43.635961" lon="-8.123965">
        <ele>68.818</ele>
        <time>2016-09-26T11:49:33Z</time>
      </trkpt>
      <trkpt lat="43.635940" lon="-8.123979">
        <ele>69.046</ele>
        <time>2016-09-26T11:49:34Z</time>
      </trkpt>
      <trkpt lat="43.635919" lon="-8.123993">
        <ele>69.143</ele>
        <time>2016-09-26T11:49:35Z</time>
      </trkpt>
      <trkpt lat="43.635898" lon="-8.124008">
        <ele>69.164</ele>
        <time>2016-09-26T11:49:36Z</time>
      </trkpt>
      <trkpt lat="43.635877" lon="-8.124023">
        <ele>69.210</ele>
        <time>2016-09-26T11:49:37Z</time>
      </trkpt>
      <trkpt lat="43.635856" lon="-8.124037">
        <ele>69.208</ele>
        <time>2016-09-26T11:49:38Z</time>
      </trkpt>
      <trkpt lat="43.635834" lon="-8.124052">
        <ele>69.485</ele>
        <time>2016-09-26T11:49:39Z</time>
      </trkpt>
      <trkpt lat="43.635812" lon="-8.124065">
        <ele>69.720</ele>
        <time>2016-09-26T11:49:40Z</time>
      </trkpt>
      <trkpt lat="43.635790" lon="-8.124080">
        <ele>69.828</ele>
        <time>2016-09-26T11:49:41Z</time>
      </trkpt>
      <trkpt lat="43.635768" lon="-8.124095">
        <ele>69.914</ele>
        <time>2016-09-26T11:49:42Z</time>
      </trkpt>
      <trkpt lat="43.635747" lon="-8.124111">
        <ele>69.898</ele>
        <time>2016-09-26T11:49:43Z</time>
      </trkpt>
      <trkpt lat="43.635725" lon="-8.124128">
        <ele>69.950</ele>
        <time>2016-09-26T11:49:44Z</time>
      </trkpt>
      <trkpt lat="43.635702" lon="-8.124145">
        <ele>69.993</ele>
        <time>2016-09-26T11:49:45Z</time>
      </trkpt>
      <trkpt lat="43.635680" lon="-8.124162">
        <ele>70.051</ele>
        <time>2016-09-26T11:49:46Z</time>
      </trkpt>
      <trkpt lat="43.635657" lon="-8.124179">
        <ele>70.017</ele>
        <time>2016-09-26T11:49:47Z</time>
      </trkpt>
      <trkpt lat="43.635633" lon="-8.124196">
        <ele>70.187</ele>
        <time>2016-09-26T11:49:48Z</time>
      </trkpt>
      <trkpt lat="43.635609" lon="-8.124215">
        <ele>70.115</ele>
        <time>2016-09-26T11:49:49Z</time>
      </trkpt>
      <trkpt lat="43.635586" lon="-8.124233">
        <ele>70.308</ele>
        <time>2016-09-26T11:49:50Z</time>
      </trkpt>
      <trkpt lat="43.635562" lon="-8.124253">
        <ele>70.322</ele>
        <time>2016-09-26T11:49:51Z</time>
      </trkpt>
      <trkpt lat="43.635539" lon="-8.124275">
        <ele>70.467</ele>
        <time>2016-09-26T11:49:52Z</time>
      </trkpt>
      <trkpt lat="43.635516" lon="-8.124297">
        <ele>70.425</ele>
        <time>2016-09-26T11:49:53Z</time>
      </trkpt>
      <trkpt lat="43.635494" lon="-8.124320">
        <ele>70.491</ele>
        <time>2016-09-26T11:49:54Z</time>
      </trkpt>
      <trkpt lat="43.635472" lon="-8.124345">
        <ele>70.625</ele>
        <time>2016-09-26T11:49:55Z</time>
      </trkpt>
      <trkpt lat="43.635451" lon="-8.124369">
        <ele>70.777</ele>
        <time>2016-09-26T11:49:56Z</time>
      </trkpt>
      <trkpt lat="43.635432" lon="-8.124392">
        <ele>70.840</ele>
        <time>2016-09-26T11:49:57Z</time>
      </trkpt>
      <trkpt lat="43.635412" lon="-8.124416">
        <ele>70.998</ele>
        <time>2016-09-26T11:49:58Z</time>
      </trkpt>
      <trkpt lat="43.635393" lon="-8.124441">
        <ele>71.065</ele>
        <time>2016-09-26T11:49:59Z</time>
      </trkpt>
      <trkpt lat="43.635374" lon="-8.124466">
        <ele>71.068</ele>
        <time>2016-09-26T11:50:00Z</time>
      </trkpt>
      <trkpt lat="43.635356" lon="-8.124492">
        <ele>70.914</ele>
        <time>2016-09-26T11:50:01Z</time>
      </trkpt>
      <trkpt lat="43.635338" lon="-8.124519">
        <ele>70.808</ele>
        <time>2016-09-26T11:50:02Z</time>
      </trkpt>
      <trkpt lat="43.635321" lon="-8.124548">
        <ele>71.167</ele>
        <time>2016-09-26T11:50:03Z</time>
      </trkpt>
      <trkpt lat="43.635303" lon="-8.124578">
        <ele>71.252</ele>
        <time>2016-09-26T11:50:04Z</time>
      </trkpt>
      <trkpt lat="43.635285" lon="-8.124609">
        <ele>71.290</ele>
        <time>2016-09-26T11:50:05Z</time>
      </trkpt>
      <trkpt lat="43.635267" lon="-8.124640">
        <ele>71.456</ele>
        <time>2016-09-26T11:50:06Z</time>
      </trkpt>
      <trkpt lat="43.635250" lon="-8.124671">
        <ele>71.570</ele>
        <time>2016-09-26T11:50:07Z</time>
      </trkpt>
      <trkpt lat="43.635233" lon="-8.124700">
        <ele>71.852</ele>
        <time>2016-09-26T11:50:08Z</time>
      </trkpt>
      <trkpt lat="43.635215" lon="-8.124728">
        <ele>71.825</ele>
        <time>2016-09-26T11:50:09Z</time>
      </trkpt>
      <trkpt lat="43.635195" lon="-8.124754">
        <ele>71.933</ele>
        <time>2016-09-26T11:50:10Z</time>
      </trkpt>
      <trkpt lat="43.635176" lon="-8.124779">
        <ele>71.963</ele>
        <time>2016-09-26T11:50:11Z</time>
      </trkpt>
      <trkpt lat="43.635156" lon="-8.124804">
        <ele>72.044</ele>
        <time>2016-09-26T11:50:12Z</time>
      </trkpt>
      <trkpt lat="43.635135" lon="-8.124827">
        <ele>72.218</ele>
        <time>2016-09-26T11:50:13Z</time>
      </trkpt>
      <trkpt lat="43.635114" lon="-8.124848">
        <ele>72.208</ele>
        <time>2016-09-26T11:50:14Z</time>
      </trkpt>
      <trkpt lat="43.635092" lon="-8.124869">
        <ele>72.687</ele>
        <time>2016-09-26T11:50:15Z</time>
      </trkpt>
      <trkpt lat="43.635070" lon="-8.124890">
        <ele>72.712</ele>
        <time>2016-09-26T11:50:16Z</time>
      </trkpt>
      <trkpt lat="43.635048" lon="-8.124910">
        <ele>72.940</ele>
        <time>2016-09-26T11:50:17Z</time>
      </trkpt>
      <trkpt lat="43.635026" lon="-8.124927">
        <ele>73.286</ele>
        <time>2016-09-26T11:50:18Z</time>
      </trkpt>
      <trkpt lat="43.635004" lon="-8.124942">
        <ele>73.530</ele>
        <time>2016-09-26T11:50:19Z</time>
      </trkpt>
      <trkpt lat="43.634981" lon="-8.124957">
        <ele>73.752</ele>
        <time>2016-09-26T11:50:20Z</time>
      </trkpt>
      <trkpt lat="43.634958" lon="-8.124972">
        <ele>73.855</ele>
        <time>2016-09-26T11:50:21Z</time>
      </trkpt>
      <trkpt lat="43.634936" lon="-8.124989">
        <ele>74.113</ele>
        <time>2016-09-26T11:50:22Z</time>
      </trkpt>
      <trkpt lat="43.634912" lon="-8.125005">
        <ele>74.312</ele>
        <time>2016-09-26T11:50:23Z</time>
      </trkpt>
      <trkpt lat="43.634888" lon="-8.125019">
        <ele>74.432</ele>
        <time>2016-09-26T11:50:24Z</time>
      </trkpt>
      <trkpt lat="43.634864" lon="-8.125031">
        <ele>74.505</ele>
        <time>2016-09-26T11:50:25Z</time>
      </trkpt>
      <trkpt lat="43.634840" lon="-8.125041">
        <ele>74.608</ele>
        <time>2016-09-26T11:50:26Z</time>
      </trkpt>
      <trkpt lat="43.634816" lon="-8.125050">
        <ele>74.712</ele>
        <time>2016-09-26T11:50:27Z</time>
      </trkpt>
      <trkpt lat="43.634791" lon="-8.125058">
        <ele>74.727</ele>
        <time>2016-09-26T11:50:28Z</time>
      </trkpt>
      <trkpt lat="43.634767" lon="-8.125065">
        <ele>74.785</ele>
        <time>2016-09-26T11:50:29Z</time>
      </trkpt>
      <trkpt lat="43.634742" lon="-8.125072">
        <ele>74.881</ele>
        <time>2016-09-26T11:50:30Z</time>
      </trkpt>
      <trkpt lat="43.634718" lon="-8.125081">
        <ele>74.955</ele>
        <time>2016-09-26T11:50:31Z</time>
      </trkpt>
      <trkpt lat="43.634693" lon="-8.125087">
        <ele>75.187</ele>
        <time>2016-09-26T11:50:32Z</time>
      </trkpt>
      <trkpt lat="43.634668" lon="-8.125093">
        <ele>75.260</ele>
        <time>2016-09-26T11:50:33Z</time>
      </trkpt>
      <trkpt lat="43.634643" lon="-8.125098">
        <ele>75.398</ele>
        <time>2016-09-26T11:50:34Z</time>
      </trkpt>
      <trkpt lat="43.634619" lon="-8.125103">
        <ele>75.375</ele>
        <time>2016-09-26T11:50:35Z</time>
      </trkpt>
      <trkpt lat="43.634595" lon="-8.125107">
        <ele>75.628</ele>
        <time>2016-09-26T11:50:36Z</time>
      </trkpt>
      <trkpt lat="43.634570" lon="-8.125111">
        <ele>75.720</ele>
        <time>2016-09-26T11:50:37Z</time>
      </trkpt>
      <trkpt lat="43.634546" lon="-8.125114">
        <ele>75.608</ele>
        <time>2016-09-26T11:50:38Z</time>
      </trkpt>
      <trkpt lat="43.634521" lon="-8.125120">
        <ele>75.788</ele>
        <time>2016-09-26T11:50:39Z</time>
      </trkpt>
      <trkpt lat="43.634494" lon="-8.125126">
        <ele>75.743</ele>
        <time>2016-09-26T11:50:40Z</time>
      </trkpt>
      <trkpt lat="43.634467" lon="-8.125131">
        <ele>75.791</ele>
        <time>2016-09-26T11:50:41Z</time>
      </trkpt>
      <trkpt lat="43.634438" lon="-8.125136">
        <ele>75.857</ele>
        <time>2016-09-26T11:50:42Z</time>
      </trkpt>
      <trkpt lat="43.634408" lon="-8.125141">
        <ele>75.671</ele>
        <time>2016-09-26T11:50:43Z</time>
      </trkpt>
      <trkpt lat="43.634378" lon="-8.125145">
        <ele>75.893</ele>
        <time>2016-09-26T11:50:44Z</time>
      </trkpt>
      <trkpt lat="43.634346" lon="-8.125150">
        <ele>75.986</ele>
        <time>2016-09-26T11:50:45Z</time>
      </trkpt>
      <trkpt lat="43.634312" lon="-8.125155">
        <ele>76.094</ele>
        <time>2016-09-26T11:50:46Z</time>
      </trkpt>
      <trkpt lat="43.634276" lon="-8.125160">
        <ele>76.041</ele>
        <time>2016-09-26T11:50:47Z</time>
      </trkpt>
      <trkpt lat="43.634238" lon="-8.125165">
        <ele>76.081</ele>
        <time>2016-09-26T11:50:48Z</time>
      </trkpt>
      <trkpt lat="43.634199" lon="-8.125172">
        <ele>76.009</ele>
        <time>2016-09-26T11:50:49Z</time>
      </trkpt>
      <trkpt lat="43.634159" lon="-8.125179">
        <ele>76.208</ele>
        <time>2016-09-26T11:50:50Z</time>
      </trkpt>
      <trkpt lat="43.634117" lon="-8.125189">
        <ele>76.235</ele>
        <time>2016-09-26T11:50:51Z</time>
      </trkpt>
      <trkpt lat="43.634074" lon="-8.125203">
        <ele>76.010</ele>
        <time>2016-09-26T11:50:52Z</time>
      </trkpt>
      <trkpt lat="43.634031" lon="-8.125221">
        <ele>76.018</ele>
        <time>2016-09-26T11:50:53Z</time>
      </trkpt>
      <trkpt lat="43.633988" lon="-8.125245">
        <ele>75.994</ele>
        <time>2016-09-26T11:50:54Z</time>
      </trkpt>
      <trkpt lat="43.633945" lon="-8.125273">
        <ele>75.868</ele>
        <time>2016-09-26T11:50:55Z</time>
      </trkpt>
      <trkpt lat="43.633903" lon="-8.125307">
        <ele>75.610</ele>
        <time>2016-09-26T11:50:56Z</time>
      </trkpt>
      <trkpt lat="43.633861" lon="-8.125345">
        <ele>75.583</ele>
        <time>2016-09-26T11:50:57Z</time>
      </trkpt>
      <trkpt lat="43.633820" lon="-8.125387">
        <ele>75.381</ele>
        <time>2016-09-26T11:50:58Z</time>
      </trkpt>
      <trkpt lat="43.633779" lon="-8.125433">
        <ele>75.017</ele>
        <time>2016-09-26T11:50:59Z</time>
      </trkpt>
      <trkpt lat="43.633738" lon="-8.125481">
        <ele>75.087</ele>
        <time>2016-09-26T11:51:00Z</time>
      </trkpt>
      <trkpt lat="43.633696" lon="-8.125532">
        <ele>74.915</ele>
        <time>2016-09-26T11:51:01Z</time>
      </trkpt>
      <trkpt lat="43.633655" lon="-8.125583">
        <ele>74.808</ele>
        <time>2016-09-26T11:51:02Z</time>
      </trkpt>
      <trkpt lat="43.633614" lon="-8.125635">
        <ele>74.522</ele>
        <time>2016-09-26T11:51:03Z</time>
      </trkpt>
      <trkpt lat="43.633576" lon="-8.125686">
        <ele>74.457</ele>
        <time>2016-09-26T11:51:04Z</time>
      </trkpt>
      <trkpt lat="43.633539" lon="-8.125737">
        <ele>74.235</ele>
        <time>2016-09-26T11:51:05Z</time>
      </trkpt>
      <trkpt lat="43.633504" lon="-8.125787">
        <ele>74.241</ele>
        <time>2016-09-26T11:51:06Z</time>
      </trkpt>
      <trkpt lat="43.633469" lon="-8.125835">
        <ele>74.235</ele>
        <time>2016-09-26T11:51:07Z</time>
      </trkpt>
      <trkpt lat="43.633435" lon="-8.125880">
        <ele>74.227</ele>
        <time>2016-09-26T11:51:08Z</time>
      </trkpt>
      <trkpt lat="43.633405" lon="-8.125923">
        <ele>74.380</ele>
        <time>2016-09-26T11:51:09Z</time>
      </trkpt>
      <trkpt lat="43.633377" lon="-8.125964">
        <ele>74.548</ele>
        <time>2016-09-26T11:51:10Z</time>
      </trkpt>
      <trkpt lat="43.633351" lon="-8.126002">
        <ele>74.568</ele>
        <time>2016-09-26T11:51:11Z</time>
      </trkpt>
      <trkpt lat="43.633324" lon="-8.126040">
        <ele>74.542</ele>
        <time>2016-09-26T11:51:12Z</time>
      </trkpt>
      <trkpt lat="43.633298" lon="-8.126078">
        <ele>74.626</ele>
        <time>2016-09-26T11:51:13Z</time>
      </trkpt>
      <trkpt lat="43.633273" lon="-8.126114">
        <ele>74.708</ele>
        <time>2016-09-26T11:51:14Z</time>
      </trkpt>
      <trkpt lat="43.633248" lon="-8.126151">
        <ele>74.997</ele>
        <time>2016-09-26T11:51:15Z</time>
      </trkpt>
      <trkpt lat="43.633222" lon="-8.126187">
        <ele>74.812</ele>
        <time>2016-09-26T11:51:16Z</time>
      </trkpt>
      <trkpt lat="43.633196" lon="-8.126224">
        <ele>74.850</ele>
        <time>2016-09-26T11:51:17Z</time>
      </trkpt>
      <trkpt lat="43.633170" lon="-8.126263">
        <ele>74.916</ele>
        <time>2016-09-26T11:51:18Z</time>
      </trkpt>
      <trkpt lat="43.633146" lon="-8.126302">
        <ele>75.110</ele>
        <time>2016-09-26T11:51:19Z</time>
      </trkpt>
      <trkpt lat="43.633122" lon="-8.126339">
        <ele>75.212</ele>
        <time>2016-09-26T11:51:20Z</time>
      </trkpt>
      <trkpt lat="43.633098" lon="-8.126375">
        <ele>75.375</ele>
        <time>2016-09-26T11:51:21Z</time>
      </trkpt>
      <trkpt lat="43.633074" lon="-8.126410">
        <ele>75.513</ele>
        <time>2016-09-26T11:51:22Z</time>
      </trkpt>
      <trkpt lat="43.633049" lon="-8.126446">
        <ele>75.781</ele>
        <time>2016-09-26T11:51:23Z</time>
      </trkpt>
      <trkpt lat="43.633025" lon="-8.126482">
        <ele>75.861</ele>
        <time>2016-09-26T11:51:24Z</time>
      </trkpt>
      <trkpt lat="43.633002" lon="-8.126518">
        <ele>76.017</ele>
        <time>2016-09-26T11:51:25Z</time>
      </trkpt>
      <trkpt lat="43.632980" lon="-8.126555">
        <ele>76.208</ele>
        <time>2016-09-26T11:51:26Z</time>
      </trkpt>
      <trkpt lat="43.632958" lon="-8.126591">
        <ele>76.389</ele>
        <time>2016-09-26T11:51:27Z</time>
      </trkpt>
      <trkpt lat="43.632934" lon="-8.126628">
        <ele>76.444</ele>
        <time>2016-09-26T11:51:28Z</time>
      </trkpt>
      <trkpt lat="43.632909" lon="-8.126665">
        <ele>76.552</ele>
        <time>2016-09-26T11:51:29Z</time>
      </trkpt>
      <trkpt lat="43.632885" lon="-8.126703">
        <ele>76.828</ele>
        <time>2016-09-26T11:51:30Z</time>
      </trkpt>
      <trkpt lat="43.632861" lon="-8.126738">
        <ele>77.062</ele>
        <time>2016-09-26T11:51:31Z</time>
      </trkpt>
      <trkpt lat="43.632837" lon="-8.126773">
        <ele>77.184</ele>
        <time>2016-09-26T11:51:32Z</time>
      </trkpt>
      <trkpt lat="43.632813" lon="-8.126807">
        <ele>77.317</ele>
        <time>2016-09-26T11:51:33Z</time>
      </trkpt>
      <trkpt lat="43.632789" lon="-8.126841">
        <ele>77.575</ele>
        <time>2016-09-26T11:51:34Z</time>
      </trkpt>
      <trkpt lat="43.632765" lon="-8.126875">
        <ele>77.745</ele>
        <time>2016-09-26T11:51:35Z</time>
      </trkpt>
      <trkpt lat="43.632742" lon="-8.126907">
        <ele>77.947</ele>
        <time>2016-09-26T11:51:36Z</time>
      </trkpt>
      <trkpt lat="43.632721" lon="-8.126939">
        <ele>78.311</ele>
        <time>2016-09-26T11:51:37Z</time>
      </trkpt>
      <trkpt lat="43.632702" lon="-8.126970">
        <ele>78.308</ele>
        <time>2016-09-26T11:51:38Z</time>
      </trkpt>
      <trkpt lat="43.632683" lon="-8.126998">
        <ele>78.425</ele>
        <time>2016-09-26T11:51:39Z</time>
      </trkpt>
      <trkpt lat="43.632663" lon="-8.127025">
        <ele>78.530</ele>
        <time>2016-09-26T11:51:40Z</time>
      </trkpt>
      <trkpt lat="43.632644" lon="-8.127053">
        <ele>78.718</ele>
        <time>2016-09-26T11:51:41Z</time>
      </trkpt>
      <trkpt lat="43.632624" lon="-8.127081">
        <ele>78.834</ele>
        <time>2016-09-26T11:51:42Z</time>
      </trkpt>
      <trkpt lat="43.632604" lon="-8.127109">
        <ele>79.178</ele>
        <time>2016-09-26T11:51:43Z</time>
      </trkpt>
      <trkpt lat="43.632586" lon="-8.127137">
        <ele>79.330</ele>
        <time>2016-09-26T11:51:44Z</time>
      </trkpt>
      <trkpt lat="43.632568" lon="-8.127164">
        <ele>79.643</ele>
        <time>2016-09-26T11:51:45Z</time>
      </trkpt>
      <trkpt lat="43.632551" lon="-8.127191">
        <ele>79.961</ele>
        <time>2016-09-26T11:51:46Z</time>
      </trkpt>
      <trkpt lat="43.632533" lon="-8.127219">
        <ele>80.129</ele>
        <time>2016-09-26T11:51:47Z</time>
      </trkpt>
      <trkpt lat="43.632516" lon="-8.127247">
        <ele>80.300</ele>
        <time>2016-09-26T11:51:48Z</time>
      </trkpt>
      <trkpt lat="43.632498" lon="-8.127273">
        <ele>80.620</ele>
        <time>2016-09-26T11:51:49Z</time>
      </trkpt>
      <trkpt lat="43.632481" lon="-8.127300">
        <ele>80.808</ele>
        <time>2016-09-26T11:51:50Z</time>
      </trkpt>
      <trkpt lat="43.632463" lon="-8.127327">
        <ele>80.883</ele>
        <time>2016-09-26T11:51:51Z</time>
      </trkpt>
      <trkpt lat="43.632444" lon="-8.127354">
        <ele>80.988</ele>
        <time>2016-09-26T11:51:52Z</time>
      </trkpt>
      <trkpt lat="43.632426" lon="-8.127381">
        <ele>80.976</ele>
        <time>2016-09-26T11:51:53Z</time>
      </trkpt>
      <trkpt lat="43.632408" lon="-8.127409">
        <ele>81.172</ele>
        <time>2016-09-26T11:51:54Z</time>
      </trkpt>
      <trkpt lat="43.632390" lon="-8.127438">
        <ele>81.366</ele>
        <time>2016-09-26T11:51:55Z</time>
      </trkpt>
      <trkpt lat="43.632373" lon="-8.127467">
        <ele>81.428</ele>
        <time>2016-09-26T11:51:56Z</time>
      </trkpt>
      <trkpt lat="43.632356" lon="-8.127494">
        <ele>81.451</ele>
        <time>2016-09-26T11:51:57Z</time>
      </trkpt>
      <trkpt lat="43.632338" lon="-8.127522">
        <ele>81.559</ele>
        <time>2016-09-26T11:51:58Z</time>
      </trkpt>
      <trkpt lat="43.632320" lon="-8.127550">
        <ele>81.714</ele>
        <time>2016-09-26T11:51:59Z</time>
      </trkpt>
      <trkpt lat="43.632302" lon="-8.127580">
        <ele>81.754</ele>
        <time>2016-09-26T11:52:00Z</time>
      </trkpt>
      <trkpt lat="43.632284" lon="-8.127612">
        <ele>81.909</ele>
        <time>2016-09-26T11:52:01Z</time>
      </trkpt>
      <trkpt lat="43.632266" lon="-8.127644">
        <ele>82.108</ele>
        <time>2016-09-26T11:52:02Z</time>
      </trkpt>
      <trkpt lat="43.632250" lon="-8.127677">
        <ele>82.332</ele>
        <time>2016-09-26T11:52:03Z</time>
      </trkpt>
      <trkpt lat="43.632232" lon="-8.127711">
        <ele>82.327</ele>
        <time>2016-09-26T11:52:04Z</time>
      </trkpt>
      <trkpt lat="43.632215" lon="-8.127745">
        <ele>82.655</ele>
        <time>2016-09-26T11:52:05Z</time>
      </trkpt>
      <trkpt lat="43.632198" lon="-8.127780">
        <ele>82.871</ele>
        <time>2016-09-26T11:52:06Z</time>
      </trkpt>
      <trkpt lat="43.632180" lon="-8.127815">
        <ele>82.915</ele>
        <time>2016-09-26T11:52:07Z</time>
      </trkpt>
      <trkpt lat="43.632162" lon="-8.127851">
        <ele>83.037</ele>
        <time>2016-09-26T11:52:08Z</time>
      </trkpt>
      <trkpt lat="43.632144" lon="-8.127890">
        <ele>82.930</ele>
        <time>2016-09-26T11:52:09Z</time>
      </trkpt>
      <trkpt lat="43.632126" lon="-8.127929">
        <ele>82.868</ele>
        <time>2016-09-26T11:52:10Z</time>
      </trkpt>
      <trkpt lat="43.632107" lon="-8.127971">
        <ele>82.773</ele>
        <time>2016-09-26T11:52:11Z</time>
      </trkpt>
      <trkpt lat="43.632087" lon="-8.128013">
        <ele>82.785</ele>
        <time>2016-09-26T11:52:12Z</time>
      </trkpt>
      <trkpt lat="43.632069" lon="-8.128058">
        <ele>82.813</ele>
        <time>2016-09-26T11:52:13Z</time>
      </trkpt>
      <trkpt lat="43.632050" lon="-8.128102">
        <ele>83.008</ele>
        <time>2016-09-26T11:52:14Z</time>
      </trkpt>
      <trkpt lat="43.632032" lon="-8.128148">
        <ele>82.948</ele>
        <time>2016-09-26T11:52:15Z</time>
      </trkpt>
      <trkpt lat="43.632015" lon="-8.128193">
        <ele>82.843</ele>
        <time>2016-09-26T11:52:16Z</time>
      </trkpt>
      <trkpt lat="43.631998" lon="-8.128239">
        <ele>83.041</ele>
        <time>2016-09-26T11:52:17Z</time>
      </trkpt>
      <trkpt lat="43.631981" lon="-8.128285">
        <ele>82.917</ele>
        <time>2016-09-26T11:52:18Z</time>
      </trkpt>
      <trkpt lat="43.631963" lon="-8.128333">
        <ele>82.871</ele>
        <time>2016-09-26T11:52:19Z</time>
      </trkpt>
      <trkpt lat="43.631945" lon="-8.128380">
        <ele>82.893</ele>
        <time>2016-09-26T11:52:20Z</time>
      </trkpt>
      <trkpt lat="43.631928" lon="-8.128427">
        <ele>82.866</ele>
        <time>2016-09-26T11:52:21Z</time>
      </trkpt>
      <trkpt lat="43.631911" lon="-8.128473">
        <ele>82.964</ele>
        <time>2016-09-26T11:52:22Z</time>
      </trkpt>
      <trkpt lat="43.631896" lon="-8.128518">
        <ele>83.043</ele>
        <time>2016-09-26T11:52:23Z</time>
      </trkpt>
      <trkpt lat="43.631881" lon="-8.128564">
        <ele>83.164</ele>
        <time>2016-09-26T11:52:24Z</time>
      </trkpt>
      <trkpt lat="43.631867" lon="-8.128609">
        <ele>83.210</ele>
        <time>2016-09-26T11:52:25Z</time>
      </trkpt>
      <trkpt lat="43.631852" lon="-8.128654">
        <ele>83.208</ele>
        <time>2016-09-26T11:52:26Z</time>
      </trkpt>
      <trkpt lat="43.631838" lon="-8.128698">
        <ele>83.395</ele>
        <time>2016-09-26T11:52:27Z</time>
      </trkpt>
      <trkpt lat="43.631824" lon="-8.128741">
        <ele>83.340</ele>
        <time>2016-09-26T11:52:28Z</time>
      </trkpt>
      <trkpt lat="43.631810" lon="-8.128784">
        <ele>83.678</ele>
        <time>2016-09-26T11:52:29Z</time>
      </trkpt>
      <trkpt lat="43.631793" lon="-8.128826">
        <ele>83.924</ele>
        <time>2016-09-26T11:52:30Z</time>
      </trkpt>
      <trkpt lat="43.631776" lon="-8.128869">
        <ele>83.938</ele>
        <time>2016-09-26T11:52:31Z</time>
      </trkpt>
      <trkpt lat="43.631761" lon="-8.128912">
        <ele>84.140</ele>
        <time>2016-09-26T11:52:32Z</time>
      </trkpt>
      <trkpt lat="43.631746" lon="-8.128953">
        <ele>84.453</ele>
        <time>2016-09-26T11:52:33Z</time>
      </trkpt>
      <trkpt lat="43.631732" lon="-8.128994">
        <ele>84.751</ele>
        <time>2016-09-26T11:52:34Z</time>
      </trkpt>
      <trkpt lat="43.631717" lon="-8.129035">
        <ele>84.926</ele>
        <time>2016-09-26T11:52:35Z</time>
      </trkpt>
      <trkpt lat="43.631700" lon="-8.129075">
        <ele>85.147</ele>
        <time>2016-09-26T11:52:36Z</time>
      </trkpt>
      <trkpt lat="43.631684" lon="-8.129115">
        <ele>85.411</ele>
        <time>2016-09-26T11:52:37Z</time>
      </trkpt>
      <trkpt lat="43.631669" lon="-8.129155">
        <ele>85.708</ele>
        <time>2016-09-26T11:52:38Z</time>
      </trkpt>
      <trkpt lat="43.631655" lon="-8.129196">
        <ele>86.093</ele>
        <time>2016-09-26T11:52:39Z</time>
      </trkpt>
      <trkpt lat="43.631642" lon="-8.129236">
        <ele>86.298</ele>
        <time>2016-09-26T11:52:40Z</time>
      </trkpt>
      <trkpt lat="43.631628" lon="-8.129274">
        <ele>86.466</ele>
        <time>2016-09-26T11:52:41Z</time>
      </trkpt>
      <trkpt lat="43.631615" lon="-8.129310">
        <ele>86.672</ele>
        <time>2016-09-26T11:52:42Z</time>
      </trkpt>
      <trkpt lat="43.631602" lon="-8.129347">
        <ele>86.946</ele>
        <time>2016-09-26T11:52:43Z</time>
      </trkpt>
      <trkpt lat="43.631590" lon="-8.129383">
        <ele>87.258</ele>
        <time>2016-09-26T11:52:44Z</time>
      </trkpt>
      <trkpt lat="43.631579" lon="-8.129418">
        <ele>87.451</ele>
        <time>2016-09-26T11:52:45Z</time>
      </trkpt>
      <trkpt lat="43.631568" lon="-8.129453">
        <ele>87.589</ele>
        <time>2016-09-26T11:52:46Z</time>
      </trkpt>
      <trkpt lat="43.631556" lon="-8.129489">
        <ele>87.871</ele>
        <time>2016-09-26T11:52:47Z</time>
      </trkpt>
      <trkpt lat="43.631547" lon="-8.129525">
        <ele>87.841</ele>
        <time>2016-09-26T11:52:48Z</time>
      </trkpt>
      <trkpt lat="43.631540" lon="-8.129557">
        <ele>87.915</ele>
        <time>2016-09-26T11:52:49Z</time>
      </trkpt>
      <trkpt lat="43.631532" lon="-8.129588">
        <ele>87.908</ele>
        <time>2016-09-26T11:52:50Z</time>
      </trkpt>
      <trkpt lat="43.631522" lon="-8.129619">
        <ele>87.988</ele>
        <time>2016-09-26T11:52:51Z</time>
      </trkpt>
      <trkpt lat="43.631511" lon="-8.129651">
        <ele>88.263</ele>
        <time>2016-09-26T11:52:52Z</time>
      </trkpt>
      <trkpt lat="43.631499" lon="-8.129684">
        <ele>88.261</ele>
        <time>2016-09-26T11:52:53Z</time>
      </trkpt>
      <trkpt lat="43.631488" lon="-8.129718">
        <ele>88.527</ele>
        <time>2016-09-26T11:52:54Z</time>
      </trkpt>
      <trkpt lat="43.631476" lon="-8.129754">
        <ele>88.781</ele>
        <time>2016-09-26T11:52:55Z</time>
      </trkpt>
      <trkpt lat="43.631464" lon="-8.129791">
        <ele>88.893</ele>
        <time>2016-09-26T11:52:56Z</time>
      </trkpt>
      <trkpt lat="43.631452" lon="-8.129828">
        <ele>88.966</ele>
        <time>2016-09-26T11:52:57Z</time>
      </trkpt>
      <trkpt lat="43.631439" lon="-8.129867">
        <ele>88.824</ele>
        <time>2016-09-26T11:52:58Z</time>
      </trkpt>
      <trkpt lat="43.631425" lon="-8.129904">
        <ele>89.077</ele>
        <time>2016-09-26T11:52:59Z</time>
      </trkpt>
      <trkpt lat="43.631412" lon="-8.129943">
        <ele>89.061</ele>
        <time>2016-09-26T11:53:00Z</time>
      </trkpt>
      <trkpt lat="43.631400" lon="-8.129982">
        <ele>89.127</ele>
        <time>2016-09-26T11:53:01Z</time>
      </trkpt>
      <trkpt lat="43.631388" lon="-8.130021">
        <ele>89.208</ele>
        <time>2016-09-26T11:53:02Z</time>
      </trkpt>
      <trkpt lat="43.631377" lon="-8.130061">
        <ele>89.348</ele>
        <time>2016-09-26T11:53:03Z</time>
      </trkpt>
      <trkpt lat="43.631365" lon="-8.130099">
        <ele>89.493</ele>
        <time>2016-09-26T11:53:04Z</time>
      </trkpt>
      <trkpt lat="43.631353" lon="-8.130138">
        <ele>89.331</ele>
        <time>2016-09-26T11:53:05Z</time>
      </trkpt>
      <trkpt lat="43.631341" lon="-8.130178">
        <ele>89.347</ele>
        <time>2016-09-26T11:53:06Z</time>
      </trkpt>
      <trkpt lat="43.631330" lon="-8.130217">
        <ele>89.571</ele>
        <time>2016-09-26T11:53:07Z</time>
      </trkpt>
      <trkpt lat="43.631318" lon="-8.130256">
        <ele>89.483</ele>
        <time>2016-09-26T11:53:08Z</time>
      </trkpt>
      <trkpt lat="43.631306" lon="-8.130296">
        <ele>89.576</ele>
        <time>2016-09-26T11:53:09Z</time>
      </trkpt>
      <trkpt lat="43.631295" lon="-8.130337">
        <ele>89.324</ele>
        <time>2016-09-26T11:53:10Z</time>
      </trkpt>
      <trkpt lat="43.631283" lon="-8.130380">
        <ele>89.447</ele>
        <time>2016-09-26T11:53:11Z</time>
      </trkpt>
      <trkpt lat="43.631270" lon="-8.130426">
        <ele>89.429</ele>
        <time>2016-09-26T11:53:12Z</time>
      </trkpt>
      <trkpt lat="43.631255" lon="-8.130473">
        <ele>89.421</ele>
        <time>2016-09-26T11:53:13Z</time>
      </trkpt>
      <trkpt lat="43.631239" lon="-8.130521">
        <ele>89.408</ele>
        <time>2016-09-26T11:53:14Z</time>
      </trkpt>
      <trkpt lat="43.631222" lon="-8.130570">
        <ele>89.245</ele>
        <time>2016-09-26T11:53:15Z</time>
      </trkpt>
      <trkpt lat="43.631205" lon="-8.130623">
        <ele>89.130</ele>
        <time>2016-09-26T11:53:16Z</time>
      </trkpt>
      <trkpt lat="43.631183" lon="-8.130677">
        <ele>89.028</ele>
        <time>2016-09-26T11:53:17Z</time>
      </trkpt>
      <trkpt lat="43.631157" lon="-8.130733">
        <ele>88.994</ele>
        <time>2016-09-26T11:53:18Z</time>
      </trkpt>
      <trkpt lat="43.631126" lon="-8.130788">
        <ele>88.728</ele>
        <time>2016-09-26T11:53:19Z</time>
      </trkpt>
      <trkpt lat="43.631087" lon="-8.130841">
        <ele>88.640</ele>
        <time>2016-09-26T11:53:20Z</time>
      </trkpt>
      <trkpt lat="43.631041" lon="-8.130889">
        <ele>88.753</ele>
        <time>2016-09-26T11:53:21Z</time>
      </trkpt>
      <trkpt lat="43.630989" lon="-8.130932">
        <ele>88.471</ele>
        <time>2016-09-26T11:53:22Z</time>
      </trkpt>
      <trkpt lat="43.630932" lon="-8.130973">
        <ele>88.393</ele>
        <time>2016-09-26T11:53:23Z</time>
      </trkpt>
      <trkpt lat="43.630870" lon="-8.131017">
        <ele>88.165</ele>
        <time>2016-09-26T11:53:24Z</time>
      </trkpt>
      <trkpt lat="43.630805" lon="-8.131061">
        <ele>87.621</ele>
        <time>2016-09-26T11:53:25Z</time>
      </trkpt>
      <trkpt lat="43.630738" lon="-8.131110">
        <ele>87.208</ele>
        <time>2016-09-26T11:53:26Z</time>
      </trkpt>
      <trkpt lat="43.630670" lon="-8.131162">
        <ele>86.870</ele>
        <time>2016-09-26T11:53:27Z</time>
      </trkpt>
      <trkpt lat="43.630602" lon="-8.131214">
        <ele>86.235</ele>
        <time>2016-09-26T11:53:28Z</time>
      </trkpt>
      <trkpt lat="43.630533" lon="-8.131264">
        <ele>85.613</ele>
        <time>2016-09-26T11:53:29Z</time>
      </trkpt>
      <trkpt lat="43.630464" lon="-8.131315">
        <ele>85.029</ele>
        <time>2016-09-26T11:53:30Z</time>
      </trkpt>
      <trkpt lat="43.630394" lon="-8.131364">
        <ele>83.953</ele>
        <time>2016-09-26T11:53:31Z</time>
      </trkpt>
      <trkpt lat="43.630321" lon="-8.131411">
        <ele>83.375</ele>
        <time>2016-09-26T11:53:32Z</time>
      </trkpt>
      <trkpt lat="43.630244" lon="-8.131454">
        <ele>82.568</ele>
        <time>2016-09-26T11:53:33Z</time>
      </trkpt>
      <trkpt lat="43.630161" lon="-8.131495">
        <ele>81.856</ele>
        <time>2016-09-26T11:53:34Z</time>
      </trkpt>
      <trkpt lat="43.630072" lon="-8.131540">
        <ele>80.949</ele>
        <time>2016-09-26T11:53:35Z</time>
      </trkpt>
      <trkpt lat="43.629983" lon="-8.131579">
        <ele>79.702</ele>
        <time>2016-09-26T11:53:36Z</time>
      </trkpt>
      <trkpt lat="43.629896" lon="-8.131608">
        <ele>78.522</ele>
        <time>2016-09-26T11:53:37Z</time>
      </trkpt>
      <trkpt lat="43.629817" lon="-8.131636">
        <ele>77.708</ele>
        <time>2016-09-26T11:53:38Z</time>
      </trkpt>
      <trkpt lat="43.629749" lon="-8.131663">
        <ele>76.735</ele>
        <time>2016-09-26T11:53:39Z</time>
      </trkpt>
      <trkpt lat="43.629692" lon="-8.131692">
        <ele>75.630</ele>
        <time>2016-09-26T11:53:40Z</time>
      </trkpt>
      <trkpt lat="43.629647" lon="-8.131728">
        <ele>74.878</ele>
        <time>2016-09-26T11:53:41Z</time>
      </trkpt>
      <trkpt lat="43.629610" lon="-8.131769">
        <ele>73.984</ele>
        <time>2016-09-26T11:53:42Z</time>
      </trkpt>
      <trkpt lat="43.629580" lon="-8.131821">
        <ele>73.038</ele>
        <time>2016-09-26T11:53:43Z</time>
      </trkpt>
      <trkpt lat="43.629560" lon="-8.131883">
        <ele>72.640</ele>
        <time>2016-09-26T11:53:44Z</time>
      </trkpt>
      <trkpt lat="43.629548" lon="-8.131950">
        <ele>72.213</ele>
        <time>2016-09-26T11:53:45Z</time>
      </trkpt>
      <trkpt lat="43.629552" lon="-8.132010">
        <ele>71.871</ele>
        <time>2016-09-26T11:53:46Z</time>
      </trkpt>
      <trkpt lat="43.629569" lon="-8.132059">
        <ele>71.452</ele>
        <time>2016-09-26T11:53:47Z</time>
      </trkpt>
      <trkpt lat="43.629585" lon="-8.132093">
        <ele>71.053</ele>
        <time>2016-09-26T11:53:48Z</time>
      </trkpt>
      <trkpt lat="43.629607" lon="-8.132131">
        <ele>71.008</ele>
        <time>2016-09-26T11:53:49Z</time>
      </trkpt>
      <trkpt lat="43.629633" lon="-8.132164">
        <ele>70.808</ele>
        <time>2016-09-26T11:53:50Z</time>
      </trkpt>
      <trkpt lat="43.629654" lon="-8.132198">
        <ele>70.946</ele>
        <time>2016-09-26T11:53:51Z</time>
      </trkpt>
      <trkpt lat="43.629679" lon="-8.132232">
        <ele>70.611</ele>
        <time>2016-09-26T11:53:52Z</time>
      </trkpt>
      <trkpt lat="43.629709" lon="-8.132262">
        <ele>70.599</ele>
        <time>2016-09-26T11:53:53Z</time>
      </trkpt>
      <trkpt lat="43.629743" lon="-8.132291">
        <ele>70.415</ele>
        <time>2016-09-26T11:53:54Z</time>
      </trkpt>
      <trkpt lat="43.629784" lon="-8.132316">
        <ele>70.389</ele>
        <time>2016-09-26T11:53:55Z</time>
      </trkpt>
      <trkpt lat="43.629828" lon="-8.132339">
        <ele>70.211</ele>
        <time>2016-09-26T11:53:56Z</time>
      </trkpt>
      <trkpt lat="43.629874" lon="-8.132363">
        <ele>70.214</ele>
        <time>2016-09-26T11:53:57Z</time>
      </trkpt>
      <trkpt lat="43.629918" lon="-8.132388">
        <ele>70.022</ele>
        <time>2016-09-26T11:53:58Z</time>
      </trkpt>
      <trkpt lat="43.629964" lon="-8.132410">
        <ele>70.057</ele>
        <time>2016-09-26T11:53:59Z</time>
      </trkpt>
      <trkpt lat="43.630012" lon="-8.132436">
        <ele>69.900</ele>
        <time>2016-09-26T11:54:00Z</time>
      </trkpt>
      <trkpt lat="43.630059" lon="-8.132459">
        <ele>69.920</ele>
        <time>2016-09-26T11:54:01Z</time>
      </trkpt>
      <trkpt lat="43.630104" lon="-8.132490">
        <ele>69.608</ele>
        <time>2016-09-26T11:54:02Z</time>
      </trkpt>
      <trkpt lat="43.630155" lon="-8.132523">
        <ele>69.466</ele>
        <time>2016-09-26T11:54:03Z</time>
      </trkpt>
      <trkpt lat="43.630210" lon="-8.132557">
        <ele>69.451</ele>
        <time>2016-09-26T11:54:04Z</time>
      </trkpt>
      <trkpt lat="43.630263" lon="-8.132590">
        <ele>69.329</ele>
        <time>2016-09-26T11:54:05Z</time>
      </trkpt>
      <trkpt lat="43.630314" lon="-8.132624">
        <ele>69.155</ele>
        <time>2016-09-26T11:54:06Z</time>
      </trkpt>
      <trkpt lat="43.630368" lon="-8.132654">
        <ele>69.159</ele>
        <time>2016-09-26T11:54:07Z</time>
      </trkpt>
      <trkpt lat="43.630422" lon="-8.132683">
        <ele>68.911</ele>
        <time>2016-09-26T11:54:08Z</time>
      </trkpt>
      <trkpt lat="43.630480" lon="-8.132716">
        <ele>68.714</ele>
        <time>2016-09-26T11:54:09Z</time>
      </trkpt>
      <trkpt lat="43.630532" lon="-8.132751">
        <ele>68.752</ele>
        <time>2016-09-26T11:54:10Z</time>
      </trkpt>
      <trkpt lat="43.630581" lon="-8.132788">
        <ele>68.585</ele>
        <time>2016-09-26T11:54:11Z</time>
      </trkpt>
      <trkpt lat="43.630623" lon="-8.132824">
        <ele>68.689</ele>
        <time>2016-09-26T11:54:12Z</time>
      </trkpt>
      <trkpt lat="43.630674" lon="-8.132854">
        <ele>68.517</ele>
        <time>2016-09-26T11:54:13Z</time>
      </trkpt>
      <trkpt lat="43.630720" lon="-8.132883">
        <ele>68.608</ele>
        <time>2016-09-26T11:54:14Z</time>
      </trkpt>
      <trkpt lat="43.630769" lon="-8.132910">
        <ele>68.599</ele>
        <time>2016-09-26T11:54:15Z</time>
      </trkpt>
      <trkpt lat="43.630804" lon="-8.132941">
        <ele>68.494</ele>
        <time>2016-09-26T11:54:16Z</time>
      </trkpt>
      <trkpt lat="43.630847" lon="-8.132971">
        <ele>68.492</ele>
        <time>2016-09-26T11:54:17Z</time>
      </trkpt>
      <trkpt lat="43.630889" lon="-8.133003">
        <ele>68.488</ele>
        <time>2016-09-26T11:54:18Z</time>
      </trkpt>
      <trkpt lat="43.630933" lon="-8.133035">
        <ele>68.432</ele>
        <time>2016-09-26T11:54:19Z</time>
      </trkpt>
      <trkpt lat="43.630977" lon="-8.133068">
        <ele>68.544</ele>
        <time>2016-09-26T11:54:20Z</time>
      </trkpt>
      <trkpt lat="43.631019" lon="-8.133102">
        <ele>68.667</ele>
        <time>2016-09-26T11:54:21Z</time>
      </trkpt>
      <trkpt lat="43.631060" lon="-8.133134">
        <ele>68.815</ele>
        <time>2016-09-26T11:54:22Z</time>
      </trkpt>
      <trkpt lat="43.631101" lon="-8.133168">
        <ele>68.987</ele>
        <time>2016-09-26T11:54:23Z</time>
      </trkpt>
      <trkpt lat="43.631139" lon="-8.133201">
        <ele>69.442</ele>
        <time>2016-09-26T11:54:24Z</time>
      </trkpt>
      <trkpt lat="43.631177" lon="-8.133234">
        <ele>69.426</ele>
        <time>2016-09-26T11:54:25Z</time>
      </trkpt>
      <trkpt lat="43.631213" lon="-8.133269">
        <ele>69.608</ele>
        <time>2016-09-26T11:54:26Z</time>
      </trkpt>
      <trkpt lat="43.631251" lon="-8.133303">
        <ele>69.799</ele>
        <time>2016-09-26T11:54:27Z</time>
      </trkpt>
      <trkpt lat="43.631283" lon="-8.133339">
        <ele>69.914</ele>
        <time>2016-09-26T11:54:28Z</time>
      </trkpt>
      <trkpt lat="43.631316" lon="-8.133376">
        <ele>70.162</ele>
        <time>2016-09-26T11:54:29Z</time>
      </trkpt>
      <trkpt lat="43.631349" lon="-8.133413">
        <ele>70.288</ele>
        <time>2016-09-26T11:54:30Z</time>
      </trkpt>
      <trkpt lat="43.631381" lon="-8.133451">
        <ele>70.512</ele>
        <time>2016-09-26T11:54:31Z</time>
      </trkpt>
      <trkpt lat="43.631410" lon="-8.133489">
        <ele>70.734</ele>
        <time>2016-09-26T11:54:32Z</time>
      </trkpt>
      <trkpt lat="43.631436" lon="-8.133527">
        <ele>70.987</ele>
        <time>2016-09-26T11:54:33Z</time>
      </trkpt>
      <trkpt lat="43.631462" lon="-8.133563">
        <ele>71.095</ele>
        <time>2016-09-26T11:54:34Z</time>
      </trkpt>
      <trkpt lat="43.631487" lon="-8.133600">
        <ele>71.179</ele>
        <time>2016-09-26T11:54:35Z</time>
      </trkpt>
      <trkpt lat="43.631509" lon="-8.133638">
        <ele>71.305</ele>
        <time>2016-09-26T11:54:36Z</time>
      </trkpt>
      <trkpt lat="43.631530" lon="-8.133675">
        <ele>71.425</ele>
        <time>2016-09-26T11:54:37Z</time>
      </trkpt>
      <trkpt lat="43.631551" lon="-8.133712">
        <ele>71.508</ele>
        <time>2016-09-26T11:54:38Z</time>
      </trkpt>
      <trkpt lat="43.631573" lon="-8.133748">
        <ele>71.618</ele>
        <time>2016-09-26T11:54:39Z</time>
      </trkpt>
      <trkpt lat="43.631595" lon="-8.133784">
        <ele>71.723</ele>
        <time>2016-09-26T11:54:40Z</time>
      </trkpt>
      <trkpt lat="43.631616" lon="-8.133820">
        <ele>71.921</ele>
        <time>2016-09-26T11:54:41Z</time>
      </trkpt>
      <trkpt lat="43.631637" lon="-8.133856">
        <ele>72.067</ele>
        <time>2016-09-26T11:54:42Z</time>
      </trkpt>
      <trkpt lat="43.631658" lon="-8.133892">
        <ele>71.961</ele>
        <time>2016-09-26T11:54:43Z</time>
      </trkpt>
      <trkpt lat="43.631678" lon="-8.133927">
        <ele>72.173</ele>
        <time>2016-09-26T11:54:44Z</time>
      </trkpt>
      <trkpt lat="43.631697" lon="-8.133962">
        <ele>72.526</ele>
        <time>2016-09-26T11:54:45Z</time>
      </trkpt>
      <trkpt lat="43.631717" lon="-8.133996">
        <ele>72.664</ele>
        <time>2016-09-26T11:54:46Z</time>
      </trkpt>
      <trkpt lat="43.631737" lon="-8.134031">
        <ele>72.784</ele>
        <time>2016-09-26T11:54:47Z</time>
      </trkpt>
      <trkpt lat="43.631758" lon="-8.134066">
        <ele>72.707</ele>
        <time>2016-09-26T11:54:48Z</time>
      </trkpt>
      <trkpt lat="43.631780" lon="-8.134100">
        <ele>73.117</ele>
        <time>2016-09-26T11:54:49Z</time>
      </trkpt>
      <trkpt lat="43.631800" lon="-8.134134">
        <ele>73.308</ele>
        <time>2016-09-26T11:54:50Z</time>
      </trkpt>
      <trkpt lat="43.631819" lon="-8.134167">
        <ele>73.539</ele>
        <time>2016-09-26T11:54:51Z</time>
      </trkpt>
      <trkpt lat="43.631838" lon="-8.134199">
        <ele>73.634</ele>
        <time>2016-09-26T11:54:52Z</time>
      </trkpt>
      <trkpt lat="43.631855" lon="-8.134231">
        <ele>73.812</ele>
        <time>2016-09-26T11:54:53Z</time>
      </trkpt>
      <trkpt lat="43.631873" lon="-8.134261">
        <ele>74.018</ele>
        <time>2016-09-26T11:54:54Z</time>
      </trkpt>
      <trkpt lat="43.631892" lon="-8.134289">
        <ele>74.152</ele>
        <time>2016-09-26T11:54:55Z</time>
      </trkpt>
      <trkpt lat="43.631909" lon="-8.134320">
        <ele>74.334</ele>
        <time>2016-09-26T11:54:56Z</time>
      </trkpt>
      <trkpt lat="43.631926" lon="-8.134350">
        <ele>74.487</ele>
        <time>2016-09-26T11:54:57Z</time>
      </trkpt>
      <trkpt lat="43.631943" lon="-8.134380">
        <ele>74.675</ele>
        <time>2016-09-26T11:54:58Z</time>
      </trkpt>
      <trkpt lat="43.631961" lon="-8.134409">
        <ele>74.849</ele>
        <time>2016-09-26T11:54:59Z</time>
      </trkpt>
      <trkpt lat="43.631979" lon="-8.134437">
        <ele>75.202</ele>
        <time>2016-09-26T11:55:00Z</time>
      </trkpt>
      <trkpt lat="43.631997" lon="-8.134465">
        <ele>75.322</ele>
        <time>2016-09-26T11:55:01Z</time>
      </trkpt>
      <trkpt lat="43.632015" lon="-8.134494">
        <ele>75.508</ele>
        <time>2016-09-26T11:55:02Z</time>
      </trkpt>
      <trkpt lat="43.632032" lon="-8.134522">
        <ele>75.555</ele>
        <time>2016-09-26T11:55:03Z</time>
      </trkpt>
      <trkpt lat="43.632050" lon="-8.134550">
        <ele>75.620</ele>
        <time>2016-09-26T11:55:04Z</time>
      </trkpt>
      <trkpt lat="43.632067" lon="-8.134579">
        <ele>75.858</ele>
        <time>2016-09-26T11:55:05Z</time>
      </trkpt>
      <trkpt lat="43.632085" lon="-8.134607">
        <ele>75.864</ele>
        <time>2016-09-26T11:55:06Z</time>
      </trkpt>
      <trkpt lat="43.632102" lon="-8.134636">
        <ele>76.138</ele>
        <time>2016-09-26T11:55:07Z</time>
      </trkpt>
      <trkpt lat="43.632120" lon="-8.134664">
        <ele>76.360</ele>
        <time>2016-09-26T11:55:08Z</time>
      </trkpt>
      <trkpt lat="43.632139" lon="-8.134688">
        <ele>76.453</ele>
        <time>2016-09-26T11:55:09Z</time>
      </trkpt>
      <trkpt lat="43.632161" lon="-8.134711">
        <ele>76.781</ele>
        <time>2016-09-26T11:55:10Z</time>
      </trkpt>
      <trkpt lat="43.632182" lon="-8.134734">
        <ele>76.798</ele>
        <time>2016-09-26T11:55:11Z</time>
      </trkpt>
      <trkpt lat="43.632203" lon="-8.134758">
        <ele>77.015</ele>
        <time>2016-09-26T11:55:12Z</time>
      </trkpt>
      <trkpt lat="43.632225" lon="-8.134779">
        <ele>77.126</ele>
        <time>2016-09-26T11:55:13Z</time>
      </trkpt>
      <trkpt lat="43.632247" lon="-8.134799">
        <ele>77.208</ele>
        <time>2016-09-26T11:55:14Z</time>
      </trkpt>
      <trkpt lat="43.632268" lon="-8.134819">
        <ele>77.440</ele>
        <time>2016-09-26T11:55:15Z</time>
      </trkpt>
      <trkpt lat="43.632290" lon="-8.134837">
        <ele>77.635</ele>
        <time>2016-09-26T11:55:16Z</time>
      </trkpt>
      <trkpt lat="43.632313" lon="-8.134854">
        <ele>77.693</ele>
        <time>2016-09-26T11:55:17Z</time>
      </trkpt>
      <trkpt lat="43.632335" lon="-8.134873">
        <ele>77.849</ele>
        <time>2016-09-26T11:55:18Z</time>
      </trkpt>
      <trkpt lat="43.632358" lon="-8.134891">
        <ele>78.073</ele>
        <time>2016-09-26T11:55:19Z</time>
      </trkpt>
      <trkpt lat="43.632380" lon="-8.134909">
        <ele>78.225</ele>
        <time>2016-09-26T11:55:20Z</time>
      </trkpt>
      <trkpt lat="43.632400" lon="-8.134927">
        <ele>78.468</ele>
        <time>2016-09-26T11:55:21Z</time>
      </trkpt>
      <trkpt lat="43.632422" lon="-8.134941">
        <ele>78.556</ele>
        <time>2016-09-26T11:55:22Z</time>
      </trkpt>
      <trkpt lat="43.632443" lon="-8.134955">
        <ele>78.632</ele>
        <time>2016-09-26T11:55:23Z</time>
      </trkpt>
      <trkpt lat="43.632460" lon="-8.134971">
        <ele>78.692</ele>
        <time>2016-09-26T11:55:24Z</time>
      </trkpt>
      <trkpt lat="43.632478" lon="-8.134981">
        <ele>78.811</ele>
        <time>2016-09-26T11:55:25Z</time>
      </trkpt>
      <trkpt lat="43.632496" lon="-8.134990">
        <ele>79.108</ele>
        <time>2016-09-26T11:55:26Z</time>
      </trkpt>
      <trkpt lat="43.632514" lon="-8.135002">
        <ele>79.224</ele>
        <time>2016-09-26T11:55:27Z</time>
      </trkpt>
      <trkpt lat="43.632531" lon="-8.135016">
        <ele>79.489</ele>
        <time>2016-09-26T11:55:28Z</time>
      </trkpt>
      <trkpt lat="43.632549" lon="-8.135028">
        <ele>79.687</ele>
        <time>2016-09-26T11:55:29Z</time>
      </trkpt>
      <trkpt lat="43.632567" lon="-8.135037">
        <ele>79.823</ele>
        <time>2016-09-26T11:55:30Z</time>
      </trkpt>
      <trkpt lat="43.632586" lon="-8.135048">
        <ele>79.997</ele>
        <time>2016-09-26T11:55:31Z</time>
      </trkpt>
      <trkpt lat="43.632604" lon="-8.135058">
        <ele>80.219</ele>
        <time>2016-09-26T11:55:32Z</time>
      </trkpt>
      <trkpt lat="43.632620" lon="-8.135067">
        <ele>80.532</ele>
        <time>2016-09-26T11:55:33Z</time>
      </trkpt>
      <trkpt lat="43.632638" lon="-8.135079">
        <ele>80.610</ele>
        <time>2016-09-26T11:55:34Z</time>
      </trkpt>
      <trkpt lat="43.632657" lon="-8.135090">
        <ele>80.836</ele>
        <time>2016-09-26T11:55:35Z</time>
      </trkpt>
      <trkpt lat="43.632679" lon="-8.135100">
        <ele>80.817</ele>
        <time>2016-09-26T11:55:36Z</time>
      </trkpt>
      <trkpt lat="43.632699" lon="-8.135112">
        <ele>81.018</ele>
        <time>2016-09-26T11:55:37Z</time>
      </trkpt>
      <trkpt lat="43.632718" lon="-8.135125">
        <ele>81.308</ele>
        <time>2016-09-26T11:55:38Z</time>
      </trkpt>
      <trkpt lat="43.632738" lon="-8.135135">
        <ele>81.624</ele>
        <time>2016-09-26T11:55:39Z</time>
      </trkpt>
      <trkpt lat="43.632758" lon="-8.135145">
        <ele>81.829</ele>
        <time>2016-09-26T11:55:40Z</time>
      </trkpt>
      <trkpt lat="43.632776" lon="-8.135155">
        <ele>81.967</ele>
        <time>2016-09-26T11:55:41Z</time>
      </trkpt>
      <trkpt lat="43.632796" lon="-8.135165">
        <ele>82.243</ele>
        <time>2016-09-26T11:55:42Z</time>
      </trkpt>
      <trkpt lat="43.632814" lon="-8.135176">
        <ele>82.517</ele>
        <time>2016-09-26T11:55:43Z</time>
      </trkpt>
      <trkpt lat="43.632833" lon="-8.135186">
        <ele>82.799</ele>
        <time>2016-09-26T11:55:44Z</time>
      </trkpt>
      <trkpt lat="43.632851" lon="-8.135196">
        <ele>83.172</ele>
        <time>2016-09-26T11:55:45Z</time>
      </trkpt>
      <trkpt lat="43.632868" lon="-8.135208">
        <ele>83.150</ele>
        <time>2016-09-26T11:55:46Z</time>
      </trkpt>
      <trkpt lat="43.632885" lon="-8.135221">
        <ele>83.278</ele>
        <time>2016-09-26T11:55:47Z</time>
      </trkpt>
      <trkpt lat="43.632903" lon="-8.135233">
        <ele>83.233</ele>
        <time>2016-09-26T11:55:48Z</time>
      </trkpt>
      <trkpt lat="43.632920" lon="-8.135246">
        <ele>83.626</ele>
        <time>2016-09-26T11:55:49Z</time>
      </trkpt>
      <trkpt lat="43.632936" lon="-8.135260">
        <ele>83.708</ele>
        <time>2016-09-26T11:55:50Z</time>
      </trkpt>
      <trkpt lat="43.632953" lon="-8.135275">
        <ele>83.788</ele>
        <time>2016-09-26T11:55:51Z</time>
      </trkpt>
      <trkpt lat="43.632971" lon="-8.135289">
        <ele>83.973</ele>
        <time>2016-09-26T11:55:52Z</time>
      </trkpt>
      <trkpt lat="43.632988" lon="-8.135303">
        <ele>84.131</ele>
        <time>2016-09-26T11:55:53Z</time>
      </trkpt>
      <trkpt lat="43.633004" lon="-8.135317">
        <ele>84.267</ele>
        <time>2016-09-26T11:55:54Z</time>
      </trkpt>
      <trkpt lat="43.633021" lon="-8.135330">
        <ele>84.671</ele>
        <time>2016-09-26T11:55:55Z</time>
      </trkpt>
      <trkpt lat="43.633038" lon="-8.135345">
        <ele>84.723</ele>
        <time>2016-09-26T11:55:56Z</time>
      </trkpt>
      <trkpt lat="43.633055" lon="-8.135361">
        <ele>84.886</ele>
        <time>2016-09-26T11:55:57Z</time>
      </trkpt>
      <trkpt lat="43.633071" lon="-8.135376">
        <ele>85.114</ele>
        <time>2016-09-26T11:55:58Z</time>
      </trkpt>
      <trkpt lat="43.633085" lon="-8.135393">
        <ele>85.336</ele>
        <time>2016-09-26T11:55:59Z</time>
      </trkpt>
      <trkpt lat="43.633100" lon="-8.135411">
        <ele>85.617</ele>
        <time>2016-09-26T11:56:00Z</time>
      </trkpt>
      <trkpt lat="43.633114" lon="-8.135429">
        <ele>85.818</ele>
        <time>2016-09-26T11:56:01Z</time>
      </trkpt>
      <trkpt lat="43.633129" lon="-8.135447">
        <ele>85.908</ele>
        <time>2016-09-26T11:56:02Z</time>
      </trkpt>
      <trkpt lat="43.633143" lon="-8.135466">
        <ele>86.134</ele>
        <time>2016-09-26T11:56:03Z</time>
      </trkpt>
      <trkpt lat="43.633158" lon="-8.135484">
        <ele>86.219</ele>
        <time>2016-09-26T11:56:04Z</time>
      </trkpt>
      <trkpt lat="43.633172" lon="-8.135504">
        <ele>86.297</ele>
        <time>2016-09-26T11:56:05Z</time>
      </trkpt>
      <trkpt lat="43.633185" lon="-8.135523">
        <ele>86.553</ele>
        <time>2016-09-26T11:56:06Z</time>
      </trkpt>
      <trkpt lat="43.633198" lon="-8.135545">
        <ele>86.597</ele>
        <time>2016-09-26T11:56:07Z</time>
      </trkpt>
      <trkpt lat="43.633211" lon="-8.135566">
        <ele>86.879</ele>
        <time>2016-09-26T11:56:08Z</time>
      </trkpt>
      <trkpt lat="43.633224" lon="-8.135588">
        <ele>87.042</ele>
        <time>2016-09-26T11:56:09Z</time>
      </trkpt>
      <trkpt lat="43.633235" lon="-8.135609">
        <ele>87.490</ele>
        <time>2016-09-26T11:56:10Z</time>
      </trkpt>
      <trkpt lat="43.633245" lon="-8.135633">
        <ele>87.411</ele>
        <time>2016-09-26T11:56:11Z</time>
      </trkpt>
      <trkpt lat="43.633254" lon="-8.135659">
        <ele>87.421</ele>
        <time>2016-09-26T11:56:12Z</time>
      </trkpt>
      <trkpt lat="43.633260" lon="-8.135686">
        <ele>87.703</ele>
        <time>2016-09-26T11:56:13Z</time>
      </trkpt>
      <trkpt lat="43.633265" lon="-8.135713">
        <ele>87.908</ele>
        <time>2016-09-26T11:56:14Z</time>
      </trkpt>
      <trkpt lat="43.633268" lon="-8.135742">
        <ele>88.022</ele>
        <time>2016-09-26T11:56:15Z</time>
      </trkpt>
      <trkpt lat="43.633269" lon="-8.135771">
        <ele>87.987</ele>
        <time>2016-09-26T11:56:16Z</time>
      </trkpt>
      <trkpt lat="43.633269" lon="-8.135800">
        <ele>88.235</ele>
        <time>2016-09-26T11:56:17Z</time>
      </trkpt>
      <trkpt lat="43.633269" lon="-8.135829">
        <ele>88.261</ele>
        <time>2016-09-26T11:56:18Z</time>
      </trkpt>
      <trkpt lat="43.633266" lon="-8.135856">
        <ele>88.495</ele>
        <time>2016-09-26T11:56:19Z</time>
      </trkpt>
      <trkpt lat="43.633263" lon="-8.135882">
        <ele>88.677</ele>
        <time>2016-09-26T11:56:20Z</time>
      </trkpt>
      <trkpt lat="43.633257" lon="-8.135906">
        <ele>88.820</ele>
        <time>2016-09-26T11:56:21Z</time>
      </trkpt>
      <trkpt lat="43.633250" lon="-8.135928">
        <ele>88.958</ele>
        <time>2016-09-26T11:56:22Z</time>
      </trkpt>
      <trkpt lat="43.633242" lon="-8.135949">
        <ele>88.826</ele>
        <time>2016-09-26T11:56:23Z</time>
      </trkpt>
      <trkpt lat="43.633234" lon="-8.135972">
        <ele>88.947</ele>
        <time>2016-09-26T11:56:24Z</time>
      </trkpt>
      <trkpt lat="43.633226" lon="-8.135993">
        <ele>89.011</ele>
        <time>2016-09-26T11:56:25Z</time>
      </trkpt>
      <trkpt lat="43.633219" lon="-8.136015">
        <ele>89.208</ele>
        <time>2016-09-26T11:56:26Z</time>
      </trkpt>
      <trkpt lat="43.633212" lon="-8.136037">
        <ele>89.363</ele>
        <time>2016-09-26T11:56:27Z</time>
      </trkpt>
      <trkpt lat="43.633204" lon="-8.136059">
        <ele>89.438</ele>
        <time>2016-09-26T11:56:28Z</time>
      </trkpt>
      <trkpt lat="43.633196" lon="-8.136081">
        <ele>89.786</ele>
        <time>2016-09-26T11:56:29Z</time>
      </trkpt>
      <trkpt lat="43.633188" lon="-8.136103">
        <ele>89.982</ele>
        <time>2016-09-26T11:56:30Z</time>
      </trkpt>
      <trkpt lat="43.633179" lon="-8.136123">
        <ele>90.066</ele>
        <time>2016-09-26T11:56:31Z</time>
      </trkpt>
      <trkpt lat="43.633170" lon="-8.136144">
        <ele>90.268</ele>
        <time>2016-09-26T11:56:32Z</time>
      </trkpt>
      <trkpt lat="43.633161" lon="-8.136164">
        <ele>90.521</ele>
        <time>2016-09-26T11:56:33Z</time>
      </trkpt>
      <trkpt lat="43.633153" lon="-8.136185">
        <ele>90.699</ele>
        <time>2016-09-26T11:56:34Z</time>
      </trkpt>
      <trkpt lat="43.633145" lon="-8.136205">
        <ele>90.744</ele>
        <time>2016-09-26T11:56:35Z</time>
      </trkpt>
      <trkpt lat="43.633137" lon="-8.136225">
        <ele>90.905</ele>
        <time>2016-09-26T11:56:36Z</time>
      </trkpt>
      <trkpt lat="43.633130" lon="-8.136247">
        <ele>91.015</ele>
        <time>2016-09-26T11:56:37Z</time>
      </trkpt>
      <trkpt lat="43.633123" lon="-8.136268">
        <ele>91.108</ele>
        <time>2016-09-26T11:56:38Z</time>
      </trkpt>
      <trkpt lat="43.633116" lon="-8.136288">
        <ele>91.345</ele>
        <time>2016-09-26T11:56:39Z</time>
      </trkpt>
      <trkpt lat="43.633109" lon="-8.136309">
        <ele>91.640</ele>
        <time>2016-09-26T11:56:40Z</time>
      </trkpt>
      <trkpt lat="43.633101" lon="-8.136330">
        <ele>91.828</ele>
        <time>2016-09-26T11:56:41Z</time>
      </trkpt>
      <trkpt lat="43.633092" lon="-8.136350">
        <ele>92.044</ele>
        <time>2016-09-26T11:56:42Z</time>
      </trkpt>
      <trkpt lat="43.633083" lon="-8.136371">
        <ele>92.298</ele>
        <time>2016-09-26T11:56:43Z</time>
      </trkpt>
      <trkpt lat="43.633074" lon="-8.136393">
        <ele>92.490</ele>
        <time>2016-09-26T11:56:44Z</time>
      </trkpt>
      <trkpt lat="43.633065" lon="-8.136416">
        <ele>92.543</ele>
        <time>2016-09-26T11:56:45Z</time>
      </trkpt>
      <trkpt lat="43.633055" lon="-8.136438">
        <ele>92.721</ele>
        <time>2016-09-26T11:56:46Z</time>
      </trkpt>
      <trkpt lat="43.633046" lon="-8.136459">
        <ele>92.931</ele>
        <time>2016-09-26T11:56:47Z</time>
      </trkpt>
      <trkpt lat="43.633037" lon="-8.136481">
        <ele>93.161</ele>
        <time>2016-09-26T11:56:48Z</time>
      </trkpt>
      <trkpt lat="43.633030" lon="-8.136502">
        <ele>93.407</ele>
        <time>2016-09-26T11:56:49Z</time>
      </trkpt>
      <trkpt lat="43.633022" lon="-8.136524">
        <ele>93.608</ele>
        <time>2016-09-26T11:56:50Z</time>
      </trkpt>
      <trkpt lat="43.633014" lon="-8.136545">
        <ele>93.964</ele>
        <time>2016-09-26T11:56:51Z</time>
      </trkpt>
      <trkpt lat="43.633004" lon="-8.136567">
        <ele>94.149</ele>
        <time>2016-09-26T11:56:52Z</time>
      </trkpt>
      <trkpt lat="43.632996" lon="-8.136589">
        <ele>94.317</ele>
        <time>2016-09-26T11:56:53Z</time>
      </trkpt>
      <trkpt lat="43.632989" lon="-8.136608">
        <ele>94.543</ele>
        <time>2016-09-26T11:56:54Z</time>
      </trkpt>
      <trkpt lat="43.632981" lon="-8.136630">
        <ele>94.737</ele>
        <time>2016-09-26T11:56:55Z</time>
      </trkpt>
      <trkpt lat="43.632973" lon="-8.136652">
        <ele>94.969</ele>
        <time>2016-09-26T11:56:56Z</time>
      </trkpt>
      <trkpt lat="43.632965" lon="-8.136674">
        <ele>95.042</ele>
        <time>2016-09-26T11:56:57Z</time>
      </trkpt>
      <trkpt lat="43.632957" lon="-8.136695">
        <ele>95.270</ele>
        <time>2016-09-26T11:56:58Z</time>
      </trkpt>
      <trkpt lat="43.632949" lon="-8.136716">
        <ele>95.316</ele>
        <time>2016-09-26T11:56:59Z</time>
      </trkpt>
      <trkpt lat="43.632941" lon="-8.136737">
        <ele>95.376</ele>
        <time>2016-09-26T11:57:00Z</time>
      </trkpt>
      <trkpt lat="43.632932" lon="-8.136760">
        <ele>95.613</ele>
        <time>2016-09-26T11:57:01Z</time>
      </trkpt>
      <trkpt lat="43.632923" lon="-8.136784">
        <ele>95.908</ele>
        <time>2016-09-26T11:57:02Z</time>
      </trkpt>
      <trkpt lat="43.632915" lon="-8.136806">
        <ele>96.132</ele>
        <time>2016-09-26T11:57:03Z</time>
      </trkpt>
      <trkpt lat="43.632904" lon="-8.136829">
        <ele>96.377</ele>
        <time>2016-09-26T11:57:04Z</time>
      </trkpt>
      <trkpt lat="43.632893" lon="-8.136853">
        <ele>96.345</ele>
        <time>2016-09-26T11:57:05Z</time>
      </trkpt>
      <trkpt lat="43.632885" lon="-8.136875">
        <ele>96.651</ele>
        <time>2016-09-26T11:57:06Z</time>
      </trkpt>
      <trkpt lat="43.632869" lon="-8.136903">
        <ele>96.835</ele>
        <time>2016-09-26T11:57:07Z</time>
      </trkpt>
      <trkpt lat="43.632859" lon="-8.136925">
        <ele>97.037</ele>
        <time>2016-09-26T11:57:08Z</time>
      </trkpt>
      <trkpt lat="43.632849" lon="-8.136947">
        <ele>97.110</ele>
        <time>2016-09-26T11:57:09Z</time>
      </trkpt>
      <trkpt lat="43.632839" lon="-8.136970">
        <ele>97.448</ele>
        <time>2016-09-26T11:57:10Z</time>
      </trkpt>
      <trkpt lat="43.632830" lon="-8.136992">
        <ele>97.882</ele>
        <time>2016-09-26T11:57:11Z</time>
      </trkpt>
      <trkpt lat="43.632823" lon="-8.137013">
        <ele>97.943</ele>
        <time>2016-09-26T11:57:12Z</time>
      </trkpt>
      <trkpt lat="43.632815" lon="-8.137034">
        <ele>97.917</ele>
        <time>2016-09-26T11:57:13Z</time>
      </trkpt>
      <trkpt lat="43.632806" lon="-8.137054">
        <ele>98.108</ele>
        <time>2016-09-26T11:57:14Z</time>
      </trkpt>
      <trkpt lat="43.632796" lon="-8.137071">
        <ele>98.219</ele>
        <time>2016-09-26T11:57:15Z</time>
      </trkpt>
      <trkpt lat="43.632788" lon="-8.137091">
        <ele>98.484</ele>
        <time>2016-09-26T11:57:16Z</time>
      </trkpt>
      <trkpt lat="43.632779" lon="-8.137110">
        <ele>98.632</ele>
        <time>2016-09-26T11:57:17Z</time>
      </trkpt>
      <trkpt lat="43.632770" lon="-8.137128">
        <ele>98.828</ele>
        <time>2016-09-26T11:57:18Z</time>
      </trkpt>
      <trkpt lat="43.632761" lon="-8.137146">
        <ele>99.182</ele>
        <time>2016-09-26T11:57:19Z</time>
      </trkpt>
      <trkpt lat="43.632752" lon="-8.137164">
        <ele>99.134</ele>
        <time>2016-09-26T11:57:20Z</time>
      </trkpt>
      <trkpt lat="43.632743" lon="-8.137181">
        <ele>99.247</ele>
        <time>2016-09-26T11:57:21Z</time>
      </trkpt>
      <trkpt lat="43.632733" lon="-8.137197">
        <ele>99.535</ele>
        <time>2016-09-26T11:57:22Z</time>
      </trkpt>
      <trkpt lat="43.632723" lon="-8.137213">
        <ele>99.657</ele>
        <time>2016-09-26T11:57:23Z</time>
      </trkpt>
      <trkpt lat="43.632713" lon="-8.137229">
        <ele>99.800</ele>
        <time>2016-09-26T11:57:24Z</time>
      </trkpt>
      <trkpt lat="43.632702" lon="-8.137243">
        <ele>99.920</ele>
        <time>2016-09-26T11:57:25Z</time>
      </trkpt>
      <trkpt lat="43.632692" lon="-8.137257">
        <ele>100.108</ele>
        <time>2016-09-26T11:57:26Z</time>
      </trkpt>
      <trkpt lat="43.632681" lon="-8.137269">
        <ele>100.346</ele>
        <time>2016-09-26T11:57:27Z</time>
      </trkpt>
      <trkpt lat="43.632671" lon="-8.137281">
        <ele>100.571</ele>
        <time>2016-09-26T11:57:28Z</time>
      </trkpt>
      <trkpt lat="43.632661" lon="-8.137293">
        <ele>101.029</ele>
        <time>2016-09-26T11:57:29Z</time>
      </trkpt>
      <trkpt lat="43.632650" lon="-8.137305">
        <ele>101.175</ele>
        <time>2016-09-26T11:57:30Z</time>
      </trkpt>
      <trkpt lat="43.632638" lon="-8.137317">
        <ele>101.479</ele>
        <time>2016-09-26T11:57:31Z</time>
      </trkpt>
      <trkpt lat="43.632627" lon="-8.137328">
        <ele>101.661</ele>
        <time>2016-09-26T11:57:32Z</time>
      </trkpt>
      <trkpt lat="43.632615" lon="-8.137339">
        <ele>101.924</ele>
        <time>2016-09-26T11:57:33Z</time>
      </trkpt>
      <trkpt lat="43.632602" lon="-8.137350">
        <ele>102.152</ele>
        <time>2016-09-26T11:57:34Z</time>
      </trkpt>
      <trkpt lat="43.632590" lon="-8.137360">
        <ele>102.131</ele>
        <time>2016-09-26T11:57:35Z</time>
      </trkpt>
      <trkpt lat="43.632577" lon="-8.137371">
        <ele>102.261</ele>
        <time>2016-09-26T11:57:36Z</time>
      </trkpt>
      <trkpt lat="43.632565" lon="-8.137381">
        <ele>102.207</ele>
        <time>2016-09-26T11:57:37Z</time>
      </trkpt>
      <trkpt lat="43.632553" lon="-8.137390">
        <ele>102.508</ele>
        <time>2016-09-26T11:57:38Z</time>
      </trkpt>
      <trkpt lat="43.632539" lon="-8.137400">
        <ele>102.784</ele>
        <time>2016-09-26T11:57:39Z</time>
      </trkpt>
      <trkpt lat="43.632525" lon="-8.137410">
        <ele>102.929</ele>
        <time>2016-09-26T11:57:40Z</time>
      </trkpt>
      <trkpt lat="43.632511" lon="-8.137419">
        <ele>103.137</ele>
        <time>2016-09-26T11:57:41Z</time>
      </trkpt>
      <trkpt lat="43.632497" lon="-8.137429">
        <ele>103.253</ele>
        <time>2016-09-26T11:57:42Z</time>
      </trkpt>
      <trkpt lat="43.632483" lon="-8.137439">
        <ele>103.487</ele>
        <time>2016-09-26T11:57:43Z</time>
      </trkpt>
      <trkpt lat="43.632470" lon="-8.137447">
        <ele>103.519</ele>
        <time>2016-09-26T11:57:44Z</time>
      </trkpt>
      <trkpt lat="43.632455" lon="-8.137455">
        <ele>103.622</ele>
        <time>2016-09-26T11:57:45Z</time>
      </trkpt>
      <trkpt lat="43.632442" lon="-8.137461">
        <ele>103.730</ele>
        <time>2016-09-26T11:57:46Z</time>
      </trkpt>
      <trkpt lat="43.632427" lon="-8.137468">
        <ele>103.791</ele>
        <time>2016-09-26T11:57:47Z</time>
      </trkpt>
      <trkpt lat="43.632413" lon="-8.137475">
        <ele>104.081</ele>
        <time>2016-09-26T11:57:48Z</time>
      </trkpt>
      <trkpt lat="43.632400" lon="-8.137481">
        <ele>104.119</ele>
        <time>2016-09-26T11:57:49Z</time>
      </trkpt>
      <trkpt lat="43.632386" lon="-8.137487">
        <ele>104.408</ele>
        <time>2016-09-26T11:57:50Z</time>
      </trkpt>
      <trkpt lat="43.632372" lon="-8.137494">
        <ele>104.740</ele>
        <time>2016-09-26T11:57:51Z</time>
      </trkpt>
      <trkpt lat="43.632358" lon="-8.137500">
        <ele>104.955</ele>
        <time>2016-09-26T11:57:52Z</time>
      </trkpt>
      <trkpt lat="43.632344" lon="-8.137506">
        <ele>105.193</ele>
        <time>2016-09-26T11:57:53Z</time>
      </trkpt>
      <trkpt lat="43.632330" lon="-8.137512">
        <ele>105.429</ele>
        <time>2016-09-26T11:57:54Z</time>
      </trkpt>
      <trkpt lat="43.632315" lon="-8.137517">
        <ele>105.633</ele>
        <time>2016-09-26T11:57:55Z</time>
      </trkpt>
      <trkpt lat="43.632300" lon="-8.137521">
        <ele>105.725</ele>
        <time>2016-09-26T11:57:56Z</time>
      </trkpt>
      <trkpt lat="43.632285" lon="-8.137525">
        <ele>105.948</ele>
        <time>2016-09-26T11:57:57Z</time>
      </trkpt>
      <trkpt lat="43.632270" lon="-8.137529">
        <ele>106.226</ele>
        <time>2016-09-26T11:57:58Z</time>
      </trkpt>
      <trkpt lat="43.632255" lon="-8.137536">
        <ele>106.481</ele>
        <time>2016-09-26T11:57:59Z</time>
      </trkpt>
      <trkpt lat="43.632241" lon="-8.137542">
        <ele>106.561</ele>
        <time>2016-09-26T11:58:00Z</time>
      </trkpt>
      <trkpt lat="43.632226" lon="-8.137546">
        <ele>106.617</ele>
        <time>2016-09-26T11:58:01Z</time>
      </trkpt>
      <trkpt lat="43.632211" lon="-8.137551">
        <ele>106.808</ele>
        <time>2016-09-26T11:58:02Z</time>
      </trkpt>
      <trkpt lat="43.632196" lon="-8.137556">
        <ele>106.869</ele>
        <time>2016-09-26T11:58:03Z</time>
      </trkpt>
      <trkpt lat="43.632181" lon="-8.137559">
        <ele>106.894</ele>
        <time>2016-09-26T11:58:04Z</time>
      </trkpt>
      <trkpt lat="43.632166" lon="-8.137563">
        <ele>107.072</ele>
        <time>2016-09-26T11:58:05Z</time>
      </trkpt>
      <trkpt lat="43.632151" lon="-8.137566">
        <ele>107.078</ele>
        <time>2016-09-26T11:58:06Z</time>
      </trkpt>
      <trkpt lat="43.632136" lon="-8.137569">
        <ele>107.072</ele>
        <time>2016-09-26T11:58:07Z</time>
      </trkpt>
      <trkpt lat="43.632120" lon="-8.137571">
        <ele>107.284</ele>
        <time>2016-09-26T11:58:08Z</time>
      </trkpt>
      <trkpt lat="43.632105" lon="-8.137573">
        <ele>107.367</ele>
        <time>2016-09-26T11:58:09Z</time>
      </trkpt>
      <trkpt lat="43.632090" lon="-8.137574">
        <ele>107.555</ele>
        <time>2016-09-26T11:58:10Z</time>
      </trkpt>
      <trkpt lat="43.632076" lon="-8.137573">
        <ele>107.821</ele>
        <time>2016-09-26T11:58:11Z</time>
      </trkpt>
      <trkpt lat="43.632060" lon="-8.137572">
        <ele>108.141</ele>
        <time>2016-09-26T11:58:12Z</time>
      </trkpt>
      <trkpt lat="43.632045" lon="-8.137573">
        <ele>108.205</ele>
        <time>2016-09-26T11:58:13Z</time>
      </trkpt>
      <trkpt lat="43.632030" lon="-8.137574">
        <ele>108.408</ele>
        <time>2016-09-26T11:58:14Z</time>
      </trkpt>
      <trkpt lat="43.632014" lon="-8.137574">
        <ele>108.473</ele>
        <time>2016-09-26T11:58:15Z</time>
      </trkpt>
      <trkpt lat="43.631998" lon="-8.137573">
        <ele>108.528</ele>
        <time>2016-09-26T11:58:16Z</time>
      </trkpt>
      <trkpt lat="43.631982" lon="-8.137573">
        <ele>108.976</ele>
        <time>2016-09-26T11:58:17Z</time>
      </trkpt>
      <trkpt lat="43.631967" lon="-8.137574">
        <ele>109.252</ele>
        <time>2016-09-26T11:58:18Z</time>
      </trkpt>
      <trkpt lat="43.631952" lon="-8.137575">
        <ele>109.556</ele>
        <time>2016-09-26T11:58:19Z</time>
      </trkpt>
      <trkpt lat="43.631936" lon="-8.137576">
        <ele>109.868</ele>
        <time>2016-09-26T11:58:20Z</time>
      </trkpt>
      <trkpt lat="43.631920" lon="-8.137577">
        <ele>110.041</ele>
        <time>2016-09-26T11:58:21Z</time>
      </trkpt>
      <trkpt lat="43.631905" lon="-8.137577">
        <ele>110.239</ele>
        <time>2016-09-26T11:58:22Z</time>
      </trkpt>
      <trkpt lat="43.631890" lon="-8.137577">
        <ele>110.466</ele>
        <time>2016-09-26T11:58:23Z</time>
      </trkpt>
      <trkpt lat="43.631875" lon="-8.137578">
        <ele>110.629</ele>
        <time>2016-09-26T11:58:24Z</time>
      </trkpt>
      <trkpt lat="43.631860" lon="-8.137580">
        <ele>110.721</ele>
        <time>2016-09-26T11:58:25Z</time>
      </trkpt>
      <trkpt lat="43.631845" lon="-8.137580">
        <ele>110.808</ele>
        <time>2016-09-26T11:58:26Z</time>
      </trkpt>
      <trkpt lat="43.631830" lon="-8.137579">
        <ele>111.087</ele>
        <time>2016-09-26T11:58:27Z</time>
      </trkpt>
      <trkpt lat="43.631815" lon="-8.137579">
        <ele>111.242</ele>
        <time>2016-09-26T11:58:28Z</time>
      </trkpt>
      <trkpt lat="43.631800" lon="-8.137580">
        <ele>111.410</ele>
        <time>2016-09-26T11:58:29Z</time>
      </trkpt>
      <trkpt lat="43.631784" lon="-8.137580">
        <ele>111.546</ele>
        <time>2016-09-26T11:58:30Z</time>
      </trkpt>
      <trkpt lat="43.631768" lon="-8.137580">
        <ele>111.790</ele>
        <time>2016-09-26T11:58:31Z</time>
      </trkpt>
      <trkpt lat="43.631753" lon="-8.137579">
        <ele>112.042</ele>
        <time>2016-09-26T11:58:32Z</time>
      </trkpt>
      <trkpt lat="43.631738" lon="-8.137579">
        <ele>112.215</ele>
        <time>2016-09-26T11:58:33Z</time>
      </trkpt>
      <trkpt lat="43.631722" lon="-8.137579">
        <ele>112.253</ele>
        <time>2016-09-26T11:58:34Z</time>
      </trkpt>
      <trkpt lat="43.631707" lon="-8.137579">
        <ele>112.462</ele>
        <time>2016-09-26T11:58:35Z</time>
      </trkpt>
      <trkpt lat="43.631691" lon="-8.137578">
        <ele>112.683</ele>
        <time>2016-09-26T11:58:36Z</time>
      </trkpt>
      <trkpt lat="43.631676" lon="-8.137578">
        <ele>112.711</ele>
        <time>2016-09-26T11:58:37Z</time>
      </trkpt>
      <trkpt lat="43.631660" lon="-8.137577">
        <ele>112.908</ele>
        <time>2016-09-26T11:58:38Z</time>
      </trkpt>
      <trkpt lat="43.631644" lon="-8.137577">
        <ele>113.167</ele>
        <time>2016-09-26T11:58:39Z</time>
      </trkpt>
      <trkpt lat="43.631629" lon="-8.137577">
        <ele>113.582</ele>
        <time>2016-09-26T11:58:40Z</time>
      </trkpt>
      <trkpt lat="43.631613" lon="-8.137576">
        <ele>113.860</ele>
        <time>2016-09-26T11:58:41Z</time>
      </trkpt>
      <trkpt lat="43.631598" lon="-8.137576">
        <ele>114.176</ele>
        <time>2016-09-26T11:58:42Z</time>
      </trkpt>
      <trkpt lat="43.631583" lon="-8.137576">
        <ele>114.230</ele>
        <time>2016-09-26T11:58:43Z</time>
      </trkpt>
      <trkpt lat="43.631568" lon="-8.137577">
        <ele>114.392</ele>
        <time>2016-09-26T11:58:44Z</time>
      </trkpt>
      <trkpt lat="43.631552" lon="-8.137578">
        <ele>114.415</ele>
        <time>2016-09-26T11:58:45Z</time>
      </trkpt>
      <trkpt lat="43.631537" lon="-8.137579">
        <ele>114.363</ele>
        <time>2016-09-26T11:58:46Z</time>
      </trkpt>
      <trkpt lat="43.631522" lon="-8.137578">
        <ele>114.611</ele>
        <time>2016-09-26T11:58:47Z</time>
      </trkpt>
      <trkpt lat="43.631506" lon="-8.137578">
        <ele>114.521</ele>
        <time>2016-09-26T11:58:48Z</time>
      </trkpt>
      <trkpt lat="43.631490" lon="-8.137577">
        <ele>114.603</ele>
        <time>2016-09-26T11:58:49Z</time>
      </trkpt>
      <trkpt lat="43.631474" lon="-8.137577">
        <ele>114.908</ele>
        <time>2016-09-26T11:58:50Z</time>
      </trkpt>
      <trkpt lat="43.631459" lon="-8.137577">
        <ele>115.232</ele>
        <time>2016-09-26T11:58:51Z</time>
      </trkpt>
      <trkpt lat="43.631442" lon="-8.137577">
        <ele>115.567</ele>
        <time>2016-09-26T11:58:52Z</time>
      </trkpt>
      <trkpt lat="43.631426" lon="-8.137578">
        <ele>115.725</ele>
        <time>2016-09-26T11:58:53Z</time>
      </trkpt>
      <trkpt lat="43.631410" lon="-8.137577">
        <ele>115.731</ele>
        <time>2016-09-26T11:58:54Z</time>
      </trkpt>
      <trkpt lat="43.631394" lon="-8.137575">
        <ele>115.915</ele>
        <time>2016-09-26T11:58:55Z</time>
      </trkpt>
      <trkpt lat="43.631378" lon="-8.137574">
        <ele>116.187</ele>
        <time>2016-09-26T11:58:56Z</time>
      </trkpt>
      <trkpt lat="43.631362" lon="-8.137574">
        <ele>116.340</ele>
        <time>2016-09-26T11:58:57Z</time>
      </trkpt>
      <trkpt lat="43.631346" lon="-8.137575">
        <ele>116.418</ele>
        <time>2016-09-26T11:58:58Z</time>
      </trkpt>
      <trkpt lat="43.631329" lon="-8.137577">
        <ele>116.534</ele>
        <time>2016-09-26T11:58:59Z</time>
      </trkpt>
      <trkpt lat="43.631313" lon="-8.137578">
        <ele>116.655</ele>
        <time>2016-09-26T11:59:00Z</time>
      </trkpt>
      <trkpt lat="43.631296" lon="-8.137580">
        <ele>116.810</ele>
        <time>2016-09-26T11:59:01Z</time>
      </trkpt>
      <trkpt lat="43.631279" lon="-8.137580">
        <ele>117.108</ele>
        <time>2016-09-26T11:59:02Z</time>
      </trkpt>
      <trkpt lat="43.631262" lon="-8.137580">
        <ele>117.294</ele>
        <time>2016-09-26T11:59:03Z</time>
      </trkpt>
      <trkpt lat="43.631244" lon="-8.137580">
        <ele>117.269</ele>
        <time>2016-09-26T11:59:04Z</time>
      </trkpt>
      <trkpt lat="43.631226" lon="-8.137582">
        <ele>117.497</ele>
        <time>2016-09-26T11:59:05Z</time>
      </trkpt>
      <trkpt lat="43.631209" lon="-8.137583">
        <ele>117.563</ele>
        <time>2016-09-26T11:59:06Z</time>
      </trkpt>
      <trkpt lat="43.631192" lon="-8.137582">
        <ele>117.747</ele>
        <time>2016-09-26T11:59:07Z</time>
      </trkpt>
      <trkpt lat="43.631175" lon="-8.137581">
        <ele>117.829</ele>
        <time>2016-09-26T11:59:08Z</time>
      </trkpt>
      <trkpt lat="43.631158" lon="-8.137580">
        <ele>118.262</ele>
        <time>2016-09-26T11:59:09Z</time>
      </trkpt>
      <trkpt lat="43.631142" lon="-8.137581">
        <ele>118.220</ele>
        <time>2016-09-26T11:59:10Z</time>
      </trkpt>
      <trkpt lat="43.631125" lon="-8.137580">
        <ele>118.536</ele>
        <time>2016-09-26T11:59:11Z</time>
      </trkpt>
      <trkpt lat="43.631107" lon="-8.137578">
        <ele>118.517</ele>
        <time>2016-09-26T11:59:12Z</time>
      </trkpt>
      <trkpt lat="43.631089" lon="-8.137579">
        <ele>118.818</ele>
        <time>2016-09-26T11:59:13Z</time>
      </trkpt>
      <trkpt lat="43.631070" lon="-8.137582">
        <ele>118.908</ele>
        <time>2016-09-26T11:59:14Z</time>
      </trkpt>
      <trkpt lat="43.631051" lon="-8.137584">
        <ele>119.114</ele>
        <time>2016-09-26T11:59:15Z</time>
      </trkpt>
      <trkpt lat="43.631032" lon="-8.137586">
        <ele>119.049</ele>
        <time>2016-09-26T11:59:16Z</time>
      </trkpt>
      <trkpt lat="43.631013" lon="-8.137589">
        <ele>119.257</ele>
        <time>2016-09-26T11:59:17Z</time>
      </trkpt>
      <trkpt lat="43.630995" lon="-8.137591">
        <ele>119.333</ele>
        <time>2016-09-26T11:59:18Z</time>
      </trkpt>
      <trkpt lat="43.630976" lon="-8.137590">
        <ele>119.697</ele>
        <time>2016-09-26T11:59:19Z</time>
      </trkpt>
      <trkpt lat="43.630957" lon="-8.137589">
        <ele>119.659</ele>
        <time>2016-09-26T11:59:20Z</time>
      </trkpt>
      <trkpt lat="43.630937" lon="-8.137590">
        <ele>119.772</ele>
        <time>2016-09-26T11:59:21Z</time>
      </trkpt>
      <trkpt lat="43.630918" lon="-8.137592">
        <ele>119.640</ele>
        <time>2016-09-26T11:59:22Z</time>
      </trkpt>
      <trkpt lat="43.630899" lon="-8.137593">
        <ele>119.895</ele>
        <time>2016-09-26T11:59:23Z</time>
      </trkpt>
      <trkpt lat="43.630881" lon="-8.137594">
        <ele>120.149</ele>
        <time>2016-09-26T11:59:24Z</time>
      </trkpt>
      <trkpt lat="43.630861" lon="-8.137595">
        <ele>120.323</ele>
        <time>2016-09-26T11:59:25Z</time>
      </trkpt>
      <trkpt lat="43.630841" lon="-8.137596">
        <ele>120.508</ele>
        <time>2016-09-26T11:59:26Z</time>
      </trkpt>
      <trkpt lat="43.630821" lon="-8.137597">
        <ele>120.320</ele>
        <time>2016-09-26T11:59:27Z</time>
      </trkpt>
      <trkpt lat="43.630801" lon="-8.137598">
        <ele>120.465</ele>
        <time>2016-09-26T11:59:28Z</time>
      </trkpt>
      <trkpt lat="43.630781" lon="-8.137598">
        <ele>120.323</ele>
        <time>2016-09-26T11:59:29Z</time>
      </trkpt>
      <trkpt lat="43.630760" lon="-8.137598">
        <ele>120.459</ele>
        <time>2016-09-26T11:59:30Z</time>
      </trkpt>
      <trkpt lat="43.630739" lon="-8.137599">
        <ele>120.513</ele>
        <time>2016-09-26T11:59:31Z</time>
      </trkpt>
      <trkpt lat="43.630717" lon="-8.137601">
        <ele>120.735</ele>
        <time>2016-09-26T11:59:32Z</time>
      </trkpt>
      <trkpt lat="43.630695" lon="-8.137604">
        <ele>120.868</ele>
        <time>2016-09-26T11:59:33Z</time>
      </trkpt>
      <trkpt lat="43.630673" lon="-8.137606">
        <ele>120.856</ele>
        <time>2016-09-26T11:59:34Z</time>
      </trkpt>
      <trkpt lat="43.630650" lon="-8.137608">
        <ele>120.733</ele>
        <time>2016-09-26T11:59:35Z</time>
      </trkpt>
      <trkpt lat="43.630626" lon="-8.137613">
        <ele>120.823</ele>
        <time>2016-09-26T11:59:36Z</time>
      </trkpt>
      <trkpt lat="43.630601" lon="-8.137616">
        <ele>120.915</ele>
        <time>2016-09-26T11:59:37Z</time>
      </trkpt>
      <trkpt lat="43.630574" lon="-8.137619">
        <ele>121.008</ele>
        <time>2016-09-26T11:59:38Z</time>
      </trkpt>
      <trkpt lat="43.630545" lon="-8.137621">
        <ele>121.184</ele>
        <time>2016-09-26T11:59:39Z</time>
      </trkpt>
      <trkpt lat="43.630513" lon="-8.137625">
        <ele>121.069</ele>
        <time>2016-09-26T11:59:40Z</time>
      </trkpt>
      <trkpt lat="43.630479" lon="-8.137629">
        <ele>121.037</ele>
        <time>2016-09-26T11:59:41Z</time>
      </trkpt>
      <trkpt lat="43.630443" lon="-8.137635">
        <ele>121.013</ele>
        <time>2016-09-26T11:59:42Z</time>
      </trkpt>
      <trkpt lat="43.630403" lon="-8.137643">
        <ele>121.147</ele>
        <time>2016-09-26T11:59:43Z</time>
      </trkpt>
      <trkpt lat="43.630360" lon="-8.137652">
        <ele>120.989</ele>
        <time>2016-09-26T11:59:44Z</time>
      </trkpt>
      <trkpt lat="43.630313" lon="-8.137662">
        <ele>120.922</ele>
        <time>2016-09-26T11:59:45Z</time>
      </trkpt>
      <trkpt lat="43.630261" lon="-8.137675">
        <ele>120.890</ele>
        <time>2016-09-26T11:59:46Z</time>
      </trkpt>
      <trkpt lat="43.630204" lon="-8.137693">
        <ele>120.614</ele>
        <time>2016-09-26T11:59:47Z</time>
      </trkpt>
      <trkpt lat="43.630142" lon="-8.137719">
        <ele>120.354</ele>
        <time>2016-09-26T11:59:48Z</time>
      </trkpt>
      <trkpt lat="43.630077" lon="-8.137752">
        <ele>120.209</ele>
        <time>2016-09-26T11:59:49Z</time>
      </trkpt>
      <trkpt lat="43.630011" lon="-8.137794">
        <ele>119.908</ele>
        <time>2016-09-26T11:59:50Z</time>
      </trkpt>
      <trkpt lat="43.629945" lon="-8.137843">
        <ele>119.692</ele>
        <time>2016-09-26T11:59:51Z</time>
      </trkpt>
      <trkpt lat="43.629879" lon="-8.137898">
        <ele>119.547</ele>
        <time>2016-09-26T11:59:52Z</time>
      </trkpt>
      <trkpt lat="43.629813" lon="-8.137956">
        <ele>119.265</ele>
        <time>2016-09-26T11:59:53Z</time>
      </trkpt>
      <trkpt lat="43.629749" lon="-8.138018">
        <ele>118.791</ele>
        <time>2016-09-26T11:59:54Z</time>
      </trkpt>
      <trkpt lat="43.629686" lon="-8.138082">
        <ele>118.345</ele>
        <time>2016-09-26T11:59:55Z</time>
      </trkpt>
      <trkpt lat="43.629625" lon="-8.138148">
        <ele>117.837</ele>
        <time>2016-09-26T11:59:56Z</time>
      </trkpt>
      <trkpt lat="43.629565" lon="-8.138213">
        <ele>117.640</ele>
        <time>2016-09-26T11:59:57Z</time>
      </trkpt>
      <trkpt lat="43.629509" lon="-8.138274">
        <ele>117.278</ele>
        <time>2016-09-26T11:59:58Z</time>
      </trkpt>
      <trkpt lat="43.629457" lon="-8.138333">
        <ele>116.924</ele>
        <time>2016-09-26T11:59:59Z</time>
      </trkpt>
      <trkpt lat="43.629407" lon="-8.138388">
        <ele>116.704</ele>
        <time>2016-09-26T12:00:00Z</time>
      </trkpt>
      <trkpt lat="43.629360" lon="-8.138438">
        <ele>116.714</ele>
        <time>2016-09-26T12:00:01Z</time>
      </trkpt>
      <trkpt lat="43.629316" lon="-8.138483">
        <ele>116.508</ele>
        <time>2016-09-26T12:00:02Z</time>
      </trkpt>
      <trkpt lat="43.629275" lon="-8.138525">
        <ele>116.313</ele>
        <time>2016-09-26T12:00:03Z</time>
      </trkpt>
      <trkpt lat="43.629237" lon="-8.138565">
        <ele>116.298</ele>
        <time>2016-09-26T12:00:04Z</time>
      </trkpt>
      <trkpt lat="43.629199" lon="-8.138602">
        <ele>116.386</ele>
        <time>2016-09-26T12:00:05Z</time>
      </trkpt>
      <trkpt lat="43.629160" lon="-8.138639">
        <ele>116.362</ele>
        <time>2016-09-26T12:00:06Z</time>
      </trkpt>
      <trkpt lat="43.629121" lon="-8.138674">
        <ele>116.486</ele>
        <time>2016-09-26T12:00:07Z</time>
      </trkpt>
      <trkpt lat="43.629083" lon="-8.138706">
        <ele>116.798</ele>
        <time>2016-09-26T12:00:08Z</time>
      </trkpt>
      <trkpt lat="43.629046" lon="-8.138736">
        <ele>116.671</ele>
        <time>2016-09-26T12:00:09Z</time>
      </trkpt>
      <trkpt lat="43.629009" lon="-8.138764">
        <ele>116.849</ele>
        <time>2016-09-26T12:00:10Z</time>
      </trkpt>
      <trkpt lat="43.628973" lon="-8.138789">
        <ele>117.077</ele>
        <time>2016-09-26T12:00:11Z</time>
      </trkpt>
      <trkpt lat="43.628936" lon="-8.138812">
        <ele>117.161</ele>
        <time>2016-09-26T12:00:12Z</time>
      </trkpt>
      <trkpt lat="43.628900" lon="-8.138834">
        <ele>117.227</ele>
        <time>2016-09-26T12:00:13Z</time>
      </trkpt>
      <trkpt lat="43.628863" lon="-8.138854">
        <ele>117.408</ele>
        <time>2016-09-26T12:00:14Z</time>
      </trkpt>
      <trkpt lat="43.628825" lon="-8.138875">
        <ele>117.738</ele>
        <time>2016-09-26T12:00:15Z</time>
      </trkpt>
      <trkpt lat="43.628787" lon="-8.138896">
        <ele>117.963</ele>
        <time>2016-09-26T12:00:16Z</time>
      </trkpt>
      <trkpt lat="43.628750" lon="-8.138917">
        <ele>118.161</ele>
        <time>2016-09-26T12:00:17Z</time>
      </trkpt>
      <trkpt lat="43.628714" lon="-8.138938">
        <ele>118.487</ele>
        <time>2016-09-26T12:00:18Z</time>
      </trkpt>
      <trkpt lat="43.628679" lon="-8.138956">
        <ele>118.671</ele>
        <time>2016-09-26T12:00:19Z</time>
      </trkpt>
      <trkpt lat="43.628644" lon="-8.138971">
        <ele>118.923</ele>
        <time>2016-09-26T12:00:20Z</time>
      </trkpt>
      <trkpt lat="43.628609" lon="-8.138988">
        <ele>118.986</ele>
        <time>2016-09-26T12:00:21Z</time>
      </trkpt>
      <trkpt lat="43.628574" lon="-8.139007">
        <ele>119.084</ele>
        <time>2016-09-26T12:00:22Z</time>
      </trkpt>
      <trkpt lat="43.628539" lon="-8.139025">
        <ele>119.063</ele>
        <time>2016-09-26T12:00:23Z</time>
      </trkpt>
      <trkpt lat="43.628504" lon="-8.139042">
        <ele>119.244</ele>
        <time>2016-09-26T12:00:24Z</time>
      </trkpt>
      <trkpt lat="43.628468" lon="-8.139059">
        <ele>119.318</ele>
        <time>2016-09-26T12:00:25Z</time>
      </trkpt>
      <trkpt lat="43.628433" lon="-8.139076">
        <ele>119.408</ele>
        <time>2016-09-26T12:00:26Z</time>
      </trkpt>
      <trkpt lat="43.628400" lon="-8.139092">
        <ele>119.537</ele>
        <time>2016-09-26T12:00:27Z</time>
      </trkpt>
      <trkpt lat="43.628365" lon="-8.139108">
        <ele>119.552</ele>
        <time>2016-09-26T12:00:28Z</time>
      </trkpt>
      <trkpt lat="43.628331" lon="-8.139123">
        <ele>119.690</ele>
        <time>2016-09-26T12:00:29Z</time>
      </trkpt>
      <trkpt lat="43.628297" lon="-8.139139">
        <ele>119.976</ele>
        <time>2016-09-26T12:00:30Z</time>
      </trkpt>
      <trkpt lat="43.628262" lon="-8.139156">
        <ele>120.060</ele>
        <time>2016-09-26T12:00:31Z</time>
      </trkpt>
      <trkpt lat="43.628228" lon="-8.139175">
        <ele>120.052</ele>
        <time>2016-09-26T12:00:32Z</time>
      </trkpt>
      <trkpt lat="43.628193" lon="-8.139194">
        <ele>120.185</ele>
        <time>2016-09-26T12:00:33Z</time>
      </trkpt>
      <trkpt lat="43.628159" lon="-8.139213">
        <ele>120.063</ele>
        <time>2016-09-26T12:00:34Z</time>
      </trkpt>
      <trkpt lat="43.628126" lon="-8.139232">
        <ele>120.013</ele>
        <time>2016-09-26T12:00:35Z</time>
      </trkpt>
      <trkpt lat="43.628093" lon="-8.139252">
        <ele>120.143</ele>
        <time>2016-09-26T12:00:36Z</time>
      </trkpt>
      <trkpt lat="43.628061" lon="-8.139271">
        <ele>120.207</ele>
        <time>2016-09-26T12:00:37Z</time>
      </trkpt>
      <trkpt lat="43.628029" lon="-8.139288">
        <ele>120.508</ele>
        <time>2016-09-26T12:00:38Z</time>
      </trkpt>
      <trkpt lat="43.627997" lon="-8.139307">
        <ele>120.432</ele>
        <time>2016-09-26T12:00:39Z</time>
      </trkpt>
      <trkpt lat="43.627964" lon="-8.139327">
        <ele>120.597</ele>
        <time>2016-09-26T12:00:40Z</time>
      </trkpt>
      <trkpt lat="43.627933" lon="-8.139345">
        <ele>120.765</ele>
        <time>2016-09-26T12:00:41Z</time>
      </trkpt>
      <trkpt lat="43.627903" lon="-8.139365">
        <ele>120.751</ele>
        <time>2016-09-26T12:00:42Z</time>
      </trkpt>
      <trkpt lat="43.627872" lon="-8.139382">
        <ele>120.995</ele>
        <time>2016-09-26T12:00:43Z</time>
      </trkpt>
      <trkpt lat="43.627842" lon="-8.139399">
        <ele>120.927</ele>
        <time>2016-09-26T12:00:44Z</time>
      </trkpt>
      <trkpt lat="43.627813" lon="-8.139418">
        <ele>120.920</ele>
        <time>2016-09-26T12:00:45Z</time>
      </trkpt>
      <trkpt lat="43.627785" lon="-8.139438">
        <ele>121.268</ele>
        <time>2016-09-26T12:00:46Z</time>
      </trkpt>
      <trkpt lat="43.627758" lon="-8.139456">
        <ele>121.597</ele>
        <time>2016-09-26T12:00:47Z</time>
      </trkpt>
      <trkpt lat="43.627730" lon="-8.139470">
        <ele>121.423</ele>
        <time>2016-09-26T12:00:48Z</time>
      </trkpt>
      <trkpt lat="43.627704" lon="-8.139483">
        <ele>121.825</ele>
        <time>2016-09-26T12:00:49Z</time>
      </trkpt>
      <trkpt lat="43.627678" lon="-8.139498">
        <ele>121.808</ele>
        <time>2016-09-26T12:00:50Z</time>
      </trkpt>
      <trkpt lat="43.627653" lon="-8.139511">
        <ele>121.910</ele>
        <time>2016-09-26T12:00:51Z</time>
      </trkpt>
      <trkpt lat="43.627630" lon="-8.139523">
        <ele>122.015</ele>
        <time>2016-09-26T12:00:52Z</time>
      </trkpt>
      <trkpt lat="43.627610" lon="-8.139539">
        <ele>122.173</ele>
        <time>2016-09-26T12:00:53Z</time>
      </trkpt>
      <trkpt lat="43.627595" lon="-8.139560">
        <ele>122.029</ele>
        <time>2016-09-26T12:00:54Z</time>
      </trkpt>
      <trkpt lat="43.627586" lon="-8.139585">
        <ele>121.923</ele>
        <time>2016-09-26T12:00:55Z</time>
      </trkpt>
      <trkpt lat="43.627583" lon="-8.139614">
        <ele>121.925</ele>
        <time>2016-09-26T12:00:56Z</time>
      </trkpt>
      <trkpt lat="43.627579" lon="-8.139641">
        <ele>121.838</ele>
        <time>2016-09-26T12:00:57Z</time>
      </trkpt>
      <trkpt lat="43.627576" lon="-8.139668">
        <ele>121.896</ele>
        <time>2016-09-26T12:00:58Z</time>
      </trkpt>
      <trkpt lat="43.627572" lon="-8.139694">
        <ele>121.764</ele>
        <time>2016-09-26T12:00:59Z</time>
      </trkpt>
      <trkpt lat="43.627564" lon="-8.139718">
        <ele>121.606</ele>
        <time>2016-09-26T12:01:00Z</time>
      </trkpt>
      <trkpt lat="43.627553" lon="-8.139740">
        <ele>121.616</ele>
        <time>2016-09-26T12:01:01Z</time>
      </trkpt>
      <trkpt lat="43.627538" lon="-8.139759">
        <ele>121.608</ele>
        <time>2016-09-26T12:01:02Z</time>
      </trkpt>
      <trkpt lat="43.627521" lon="-8.139774">
        <ele>121.517</ele>
        <time>2016-09-26T12:01:03Z</time>
      </trkpt>
      <trkpt lat="43.627500" lon="-8.139781">
        <ele>121.612</ele>
        <time>2016-09-26T12:01:04Z</time>
      </trkpt>
      <trkpt lat="43.627475" lon="-8.139787">
        <ele>121.650</ele>
        <time>2016-09-26T12:01:05Z</time>
      </trkpt>
      <trkpt lat="43.627447" lon="-8.139795">
        <ele>121.576</ele>
        <time>2016-09-26T12:01:06Z</time>
      </trkpt>
      <trkpt lat="43.627420" lon="-8.139805">
        <ele>121.590</ele>
        <time>2016-09-26T12:01:07Z</time>
      </trkpt>
      <trkpt lat="43.627391" lon="-8.139818">
        <ele>121.372</ele>
        <time>2016-09-26T12:01:08Z</time>
      </trkpt>
      <trkpt lat="43.627363" lon="-8.139829">
        <ele>121.315</ele>
        <time>2016-09-26T12:01:09Z</time>
      </trkpt>
      <trkpt lat="43.627338" lon="-8.139839">
        <ele>121.123</ele>
        <time>2016-09-26T12:01:10Z</time>
      </trkpt>
      <trkpt lat="43.627323" lon="-8.139842">
        <ele>120.879</ele>
        <time>2016-09-26T12:01:11Z</time>
      </trkpt>
      <trkpt lat="43.627320" lon="-8.139847">
        <ele>120.805</ele>
        <time>2016-09-26T12:01:12Z</time>
      </trkpt>
      <trkpt lat="43.627320" lon="-8.139852">
        <ele>120.825</ele>
        <time>2016-09-26T12:01:13Z</time>
      </trkpt>
      <trkpt lat="43.627320" lon="-8.139848">
        <ele>120.808</ele>
        <time>2016-09-26T12:01:14Z</time>
      </trkpt>
      <trkpt lat="43.627316" lon="-8.139843">
        <ele>120.588</ele>
        <time>2016-09-26T12:01:15Z</time>
      </trkpt>
      <trkpt lat="43.627310" lon="-8.139831">
        <ele>120.393</ele>
        <time>2016-09-26T12:01:16Z</time>
      </trkpt>
      <trkpt lat="43.627310" lon="-8.139831">
        <ele>120.341</ele>
        <time>2016-09-26T12:01:16Z</time>
      </trkpt>
      <trkpt lat="43.627310" lon="-8.139831">
        <ele>120.337</ele>
        <time>2016-09-26T12:01:16Z</time>
      </trkpt>
      <trkpt lat="43.627317" lon="-8.139704">
        <ele>120.851</ele>
        <time>2016-09-26T12:09:12Z</time>
      </trkpt>
      <trkpt lat="43.627315" lon="-8.139685">
        <ele>120.863</ele>
        <time>2016-09-26T12:09:13Z</time>
      </trkpt>
      <trkpt lat="43.627309" lon="-8.139665">
        <ele>120.836</ele>
        <time>2016-09-26T12:09:14Z</time>
      </trkpt>
      <trkpt lat="43.627297" lon="-8.139649">
        <ele>120.834</ele>
        <time>2016-09-26T12:09:15Z</time>
      </trkpt>
      <trkpt lat="43.627277" lon="-8.139637">
        <ele>120.752</ele>
        <time>2016-09-26T12:09:16Z</time>
      </trkpt>
      <trkpt lat="43.627250" lon="-8.139631">
        <ele>120.853</ele>
        <time>2016-09-26T12:09:17Z</time>
      </trkpt>
      <trkpt lat="43.627218" lon="-8.139630">
        <ele>120.808</ele>
        <time>2016-09-26T12:09:18Z</time>
      </trkpt>
      <trkpt lat="43.627178" lon="-8.139635">
        <ele>120.608</ele>
        <time>2016-09-26T12:09:19Z</time>
      </trkpt>
      <trkpt lat="43.627134" lon="-8.139643">
        <ele>120.666</ele>
        <time>2016-09-26T12:09:20Z</time>
      </trkpt>
      <trkpt lat="43.627085" lon="-8.139651">
        <ele>120.441</ele>
        <time>2016-09-26T12:09:21Z</time>
      </trkpt>
      <trkpt lat="43.627032" lon="-8.139658">
        <ele>120.239</ele>
        <time>2016-09-26T12:09:22Z</time>
      </trkpt>
      <trkpt lat="43.626972" lon="-8.139667">
        <ele>119.755</ele>
        <time>2016-09-26T12:09:23Z</time>
      </trkpt>
      <trkpt lat="43.626907" lon="-8.139677">
        <ele>119.239</ele>
        <time>2016-09-26T12:09:24Z</time>
      </trkpt>
      <trkpt lat="43.626841" lon="-8.139690">
        <ele>118.891</ele>
        <time>2016-09-26T12:09:25Z</time>
      </trkpt>
      <trkpt lat="43.626780" lon="-8.139706">
        <ele>118.384</ele>
        <time>2016-09-26T12:09:26Z</time>
      </trkpt>
      <trkpt lat="43.626726" lon="-8.139727">
        <ele>117.782</ele>
        <time>2016-09-26T12:09:27Z</time>
      </trkpt>
      <trkpt lat="43.626678" lon="-8.139753">
        <ele>117.195</ele>
        <time>2016-09-26T12:09:28Z</time>
      </trkpt>
      <trkpt lat="43.626632" lon="-8.139789">
        <ele>116.449</ele>
        <time>2016-09-26T12:09:29Z</time>
      </trkpt>
      <trkpt lat="43.626584" lon="-8.139833">
        <ele>115.823</ele>
        <time>2016-09-26T12:09:30Z</time>
      </trkpt>
      <trkpt lat="43.626534" lon="-8.139882">
        <ele>114.808</ele>
        <time>2016-09-26T12:09:31Z</time>
      </trkpt>
      <trkpt lat="43.626480" lon="-8.139939">
        <ele>113.830</ele>
        <time>2016-09-26T12:09:32Z</time>
      </trkpt>
      <trkpt lat="43.626423" lon="-8.140003">
        <ele>112.795</ele>
        <time>2016-09-26T12:09:33Z</time>
      </trkpt>
      <trkpt lat="43.626364" lon="-8.140073">
        <ele>111.453</ele>
        <time>2016-09-26T12:09:34Z</time>
      </trkpt>
      <trkpt lat="43.626303" lon="-8.140144">
        <ele>110.249</ele>
        <time>2016-09-26T12:09:35Z</time>
      </trkpt>
      <trkpt lat="43.626242" lon="-8.140215">
        <ele>108.833</ele>
        <time>2016-09-26T12:09:36Z</time>
      </trkpt>
      <trkpt lat="43.626181" lon="-8.140287">
        <ele>107.375</ele>
        <time>2016-09-26T12:09:37Z</time>
      </trkpt>
      <trkpt lat="43.626120" lon="-8.140357">
        <ele>106.148</ele>
        <time>2016-09-26T12:09:38Z</time>
      </trkpt>
      <trkpt lat="43.626062" lon="-8.140428">
        <ele>104.896</ele>
        <time>2016-09-26T12:09:39Z</time>
      </trkpt>
      <trkpt lat="43.626005" lon="-8.140497">
        <ele>103.496</ele>
        <time>2016-09-26T12:09:40Z</time>
      </trkpt>
      <trkpt lat="43.625947" lon="-8.140565">
        <ele>102.031</ele>
        <time>2016-09-26T12:09:41Z</time>
      </trkpt>
      <trkpt lat="43.625887" lon="-8.140629">
        <ele>100.624</ele>
        <time>2016-09-26T12:09:42Z</time>
      </trkpt>
      <trkpt lat="43.625826" lon="-8.140694">
        <ele>99.008</ele>
        <time>2016-09-26T12:09:43Z</time>
      </trkpt>
      <trkpt lat="43.625764" lon="-8.140759">
        <ele>97.760</ele>
        <time>2016-09-26T12:09:44Z</time>
      </trkpt>
      <trkpt lat="43.625699" lon="-8.140818">
        <ele>96.365</ele>
        <time>2016-09-26T12:09:45Z</time>
      </trkpt>
      <trkpt lat="43.625628" lon="-8.140870">
        <ele>95.063</ele>
        <time>2016-09-26T12:09:46Z</time>
      </trkpt>
      <trkpt lat="43.625551" lon="-8.140913">
        <ele>93.889</ele>
        <time>2016-09-26T12:09:47Z</time>
      </trkpt>
      <trkpt lat="43.625466" lon="-8.140947">
        <ele>92.733</ele>
        <time>2016-09-26T12:09:48Z</time>
      </trkpt>
      <trkpt lat="43.625378" lon="-8.140970">
        <ele>91.665</ele>
        <time>2016-09-26T12:09:49Z</time>
      </trkpt>
      <trkpt lat="43.625285" lon="-8.140983">
        <ele>90.898</ele>
        <time>2016-09-26T12:09:50Z</time>
      </trkpt>
      <trkpt lat="43.625191" lon="-8.140991">
        <ele>89.916</ele>
        <time>2016-09-26T12:09:51Z</time>
      </trkpt>
      <trkpt lat="43.625097" lon="-8.140993">
        <ele>88.946</ele>
        <time>2016-09-26T12:09:52Z</time>
      </trkpt>
      <trkpt lat="43.625002" lon="-8.140994">
        <ele>88.188</ele>
        <time>2016-09-26T12:09:53Z</time>
      </trkpt>
      <trkpt lat="43.624908" lon="-8.140992">
        <ele>87.516</ele>
        <time>2016-09-26T12:09:54Z</time>
      </trkpt>
      <trkpt lat="43.624817" lon="-8.140986">
        <ele>86.708</ele>
        <time>2016-09-26T12:09:55Z</time>
      </trkpt>
      <trkpt lat="43.624727" lon="-8.140978">
        <ele>86.265</ele>
        <time>2016-09-26T12:09:56Z</time>
      </trkpt>
      <trkpt lat="43.624640" lon="-8.140970">
        <ele>85.760</ele>
        <time>2016-09-26T12:09:57Z</time>
      </trkpt>
      <trkpt lat="43.624555" lon="-8.140956">
        <ele>85.378</ele>
        <time>2016-09-26T12:09:58Z</time>
      </trkpt>
      <trkpt lat="43.624475" lon="-8.140936">
        <ele>85.084</ele>
        <time>2016-09-26T12:09:59Z</time>
      </trkpt>
      <trkpt lat="43.624399" lon="-8.140912">
        <ele>84.578</ele>
        <time>2016-09-26T12:10:00Z</time>
      </trkpt>
      <trkpt lat="43.624327" lon="-8.140888">
        <ele>84.190</ele>
        <time>2016-09-26T12:10:01Z</time>
      </trkpt>
      <trkpt lat="43.624257" lon="-8.140866">
        <ele>84.093</ele>
        <time>2016-09-26T12:10:02Z</time>
      </trkpt>
      <trkpt lat="43.624189" lon="-8.140844">
        <ele>83.721</ele>
        <time>2016-09-26T12:10:03Z</time>
      </trkpt>
      <trkpt lat="43.624125" lon="-8.140821">
        <ele>83.543</ele>
        <time>2016-09-26T12:10:04Z</time>
      </trkpt>
      <trkpt lat="43.624063" lon="-8.140796">
        <ele>83.364</ele>
        <time>2016-09-26T12:10:05Z</time>
      </trkpt>
      <trkpt lat="43.624004" lon="-8.140770">
        <ele>83.010</ele>
        <time>2016-09-26T12:10:06Z</time>
      </trkpt>
      <trkpt lat="43.623948" lon="-8.140740">
        <ele>82.608</ele>
        <time>2016-09-26T12:10:07Z</time>
      </trkpt>
      <trkpt lat="43.623897" lon="-8.140708">
        <ele>82.555</ele>
        <time>2016-09-26T12:10:08Z</time>
      </trkpt>
      <trkpt lat="43.623848" lon="-8.140679">
        <ele>82.350</ele>
        <time>2016-09-26T12:10:09Z</time>
      </trkpt>
      <trkpt lat="43.623799" lon="-8.140650">
        <ele>82.158</ele>
        <time>2016-09-26T12:10:10Z</time>
      </trkpt>
      <trkpt lat="43.623753" lon="-8.140618">
        <ele>82.064</ele>
        <time>2016-09-26T12:10:11Z</time>
      </trkpt>
      <trkpt lat="43.623707" lon="-8.140587">
        <ele>82.048</ele>
        <time>2016-09-26T12:10:12Z</time>
      </trkpt>
      <trkpt lat="43.623660" lon="-8.140555">
        <ele>81.980</ele>
        <time>2016-09-26T12:10:13Z</time>
      </trkpt>
      <trkpt lat="43.623614" lon="-8.140521">
        <ele>81.793</ele>
        <time>2016-09-26T12:10:14Z</time>
      </trkpt>
      <trkpt lat="43.623569" lon="-8.140484">
        <ele>81.591</ele>
        <time>2016-09-26T12:10:15Z</time>
      </trkpt>
      <trkpt lat="43.623524" lon="-8.140442">
        <ele>81.355</ele>
        <time>2016-09-26T12:10:16Z</time>
      </trkpt>
      <trkpt lat="43.623483" lon="-8.140395">
        <ele>81.107</ele>
        <time>2016-09-26T12:10:17Z</time>
      </trkpt>
      <trkpt lat="43.623446" lon="-8.140346">
        <ele>80.917</ele>
        <time>2016-09-26T12:10:18Z</time>
      </trkpt>
      <trkpt lat="43.623412" lon="-8.140300">
        <ele>80.708</ele>
        <time>2016-09-26T12:10:19Z</time>
      </trkpt>
      <trkpt lat="43.623379" lon="-8.140257">
        <ele>80.526</ele>
        <time>2016-09-26T12:10:20Z</time>
      </trkpt>
      <trkpt lat="43.623348" lon="-8.140214">
        <ele>80.691</ele>
        <time>2016-09-26T12:10:21Z</time>
      </trkpt>
      <trkpt lat="43.623318" lon="-8.140171">
        <ele>80.549</ele>
        <time>2016-09-26T12:10:22Z</time>
      </trkpt>
      <trkpt lat="43.623290" lon="-8.140132">
        <ele>80.565</ele>
        <time>2016-09-26T12:10:23Z</time>
      </trkpt>
      <trkpt lat="43.623261" lon="-8.140094">
        <ele>80.589</ele>
        <time>2016-09-26T12:10:24Z</time>
      </trkpt>
      <trkpt lat="43.623230" lon="-8.140056">
        <ele>80.371</ele>
        <time>2016-09-26T12:10:25Z</time>
      </trkpt>
      <trkpt lat="43.623197" lon="-8.140018">
        <ele>80.164</ele>
        <time>2016-09-26T12:10:26Z</time>
      </trkpt>
      <trkpt lat="43.623164" lon="-8.139977">
        <ele>80.092</ele>
        <time>2016-09-26T12:10:27Z</time>
      </trkpt>
      <trkpt lat="43.623130" lon="-8.139937">
        <ele>80.092</ele>
        <time>2016-09-26T12:10:28Z</time>
      </trkpt>
      <trkpt lat="43.623093" lon="-8.139901">
        <ele>79.873</ele>
        <time>2016-09-26T12:10:29Z</time>
      </trkpt>
      <trkpt lat="43.623051" lon="-8.139872">
        <ele>79.720</ele>
        <time>2016-09-26T12:10:30Z</time>
      </trkpt>
      <trkpt lat="43.623008" lon="-8.139849">
        <ele>79.608</ele>
        <time>2016-09-26T12:10:31Z</time>
      </trkpt>
      <trkpt lat="43.622966" lon="-8.139831">
        <ele>79.610</ele>
        <time>2016-09-26T12:10:32Z</time>
      </trkpt>
      <trkpt lat="43.622925" lon="-8.139818">
        <ele>79.515</ele>
        <time>2016-09-26T12:10:33Z</time>
      </trkpt>
      <trkpt lat="43.622885" lon="-8.139811">
        <ele>79.543</ele>
        <time>2016-09-26T12:10:34Z</time>
      </trkpt>
      <trkpt lat="43.622850" lon="-8.139800">
        <ele>79.459</ele>
        <time>2016-09-26T12:10:35Z</time>
      </trkpt>
      <trkpt lat="43.622816" lon="-8.139786">
        <ele>79.543</ele>
        <time>2016-09-26T12:10:36Z</time>
      </trkpt>
      <trkpt lat="43.622783" lon="-8.139771">
        <ele>79.465</ele>
        <time>2016-09-26T12:10:37Z</time>
      </trkpt>
      <trkpt lat="43.622752" lon="-8.139760">
        <ele>79.328</ele>
        <time>2016-09-26T12:10:38Z</time>
      </trkpt>
      <trkpt lat="43.622721" lon="-8.139755">
        <ele>79.466</ele>
        <time>2016-09-26T12:10:39Z</time>
      </trkpt>
      <trkpt lat="43.622686" lon="-8.139760">
        <ele>79.387</ele>
        <time>2016-09-26T12:10:40Z</time>
      </trkpt>
      <trkpt lat="43.622648" lon="-8.139772">
        <ele>79.442</ele>
        <time>2016-09-26T12:10:41Z</time>
      </trkpt>
      <trkpt lat="43.622606" lon="-8.139788">
        <ele>79.426</ele>
        <time>2016-09-26T12:10:42Z</time>
      </trkpt>
      <trkpt lat="43.622564" lon="-8.139802">
        <ele>79.408</ele>
        <time>2016-09-26T12:10:43Z</time>
      </trkpt>
      <trkpt lat="43.622524" lon="-8.139818">
        <ele>79.369</ele>
        <time>2016-09-26T12:10:44Z</time>
      </trkpt>
      <trkpt lat="43.622485" lon="-8.139832">
        <ele>79.364</ele>
        <time>2016-09-26T12:10:45Z</time>
      </trkpt>
      <trkpt lat="43.622447" lon="-8.139845">
        <ele>78.912</ele>
        <time>2016-09-26T12:10:46Z</time>
      </trkpt>
      <trkpt lat="43.622409" lon="-8.139859">
        <ele>78.838</ele>
        <time>2016-09-26T12:10:47Z</time>
      </trkpt>
      <trkpt lat="43.622370" lon="-8.139877">
        <ele>78.552</ele>
        <time>2016-09-26T12:10:48Z</time>
      </trkpt>
      <trkpt lat="43.622339" lon="-8.139904">
        <ele>78.274</ele>
        <time>2016-09-26T12:10:49Z</time>
      </trkpt>
      <trkpt lat="43.622314" lon="-8.139940">
        <ele>77.857</ele>
        <time>2016-09-26T12:10:50Z</time>
      </trkpt>
      <trkpt lat="43.622287" lon="-8.139990">
        <ele>77.595</ele>
        <time>2016-09-26T12:10:51Z</time>
      </trkpt>
      <trkpt lat="43.622255" lon="-8.140055">
        <ele>77.194</ele>
        <time>2016-09-26T12:10:52Z</time>
      </trkpt>
      <trkpt lat="43.622218" lon="-8.140130">
        <ele>76.757</ele>
        <time>2016-09-26T12:10:53Z</time>
      </trkpt>
      <trkpt lat="43.622174" lon="-8.140213">
        <ele>76.022</ele>
        <time>2016-09-26T12:10:54Z</time>
      </trkpt>
      <trkpt lat="43.622132" lon="-8.140297">
        <ele>75.508</ele>
        <time>2016-09-26T12:10:55Z</time>
      </trkpt>
      <trkpt lat="43.622087" lon="-8.140383">
        <ele>75.070</ele>
        <time>2016-09-26T12:10:56Z</time>
      </trkpt>
      <trkpt lat="43.622037" lon="-8.140472">
        <ele>74.355</ele>
        <time>2016-09-26T12:10:57Z</time>
      </trkpt>
      <trkpt lat="43.621983" lon="-8.140565">
        <ele>73.543</ele>
        <time>2016-09-26T12:10:58Z</time>
      </trkpt>
      <trkpt lat="43.621929" lon="-8.140665">
        <ele>72.989</ele>
        <time>2016-09-26T12:10:59Z</time>
      </trkpt>
      <trkpt lat="43.621883" lon="-8.140769">
        <ele>72.383</ele>
        <time>2016-09-26T12:11:00Z</time>
      </trkpt>
      <trkpt lat="43.621842" lon="-8.140875">
        <ele>71.435</ele>
        <time>2016-09-26T12:11:01Z</time>
      </trkpt>
      <trkpt lat="43.621800" lon="-8.140985">
        <ele>70.238</ele>
        <time>2016-09-26T12:11:02Z</time>
      </trkpt>
      <trkpt lat="43.621758" lon="-8.141095">
        <ele>69.256</ele>
        <time>2016-09-26T12:11:03Z</time>
      </trkpt>
      <trkpt lat="43.621717" lon="-8.141197">
        <ele>68.319</ele>
        <time>2016-09-26T12:11:04Z</time>
      </trkpt>
      <trkpt lat="43.621674" lon="-8.141292">
        <ele>67.109</ele>
        <time>2016-09-26T12:11:05Z</time>
      </trkpt>
      <trkpt lat="43.621637" lon="-8.141378">
        <ele>66.219</ele>
        <time>2016-09-26T12:11:06Z</time>
      </trkpt>
      <trkpt lat="43.621606" lon="-8.141466">
        <ele>65.308</ele>
        <time>2016-09-26T12:11:07Z</time>
      </trkpt>
      <trkpt lat="43.621585" lon="-8.141562">
        <ele>64.342</ele>
        <time>2016-09-26T12:11:08Z</time>
      </trkpt>
      <trkpt lat="43.621574" lon="-8.141661">
        <ele>63.297</ele>
        <time>2016-09-26T12:11:09Z</time>
      </trkpt>
      <trkpt lat="43.621570" lon="-8.141766">
        <ele>62.355</ele>
        <time>2016-09-26T12:11:10Z</time>
      </trkpt>
      <trkpt lat="43.621569" lon="-8.141872">
        <ele>61.491</ele>
        <time>2016-09-26T12:11:11Z</time>
      </trkpt>
      <trkpt lat="43.621569" lon="-8.141979">
        <ele>60.855</ele>
        <time>2016-09-26T12:11:12Z</time>
      </trkpt>
      <trkpt lat="43.621571" lon="-8.142081">
        <ele>59.827</ele>
        <time>2016-09-26T12:11:13Z</time>
      </trkpt>
      <trkpt lat="43.621573" lon="-8.142179">
        <ele>58.840</ele>
        <time>2016-09-26T12:11:14Z</time>
      </trkpt>
      <trkpt lat="43.621576" lon="-8.142269">
        <ele>57.748</ele>
        <time>2016-09-26T12:11:15Z</time>
      </trkpt>
      <trkpt lat="43.621578" lon="-8.142354">
        <ele>56.869</ele>
        <time>2016-09-26T12:11:16Z</time>
      </trkpt>
      <trkpt lat="43.621582" lon="-8.142438">
        <ele>56.104</ele>
        <time>2016-09-26T12:11:17Z</time>
      </trkpt>
      <trkpt lat="43.621590" lon="-8.142524">
        <ele>55.324</ele>
        <time>2016-09-26T12:11:18Z</time>
      </trkpt>
      <trkpt lat="43.621600" lon="-8.142617">
        <ele>54.508</ele>
        <time>2016-09-26T12:11:19Z</time>
      </trkpt>
      <trkpt lat="43.621606" lon="-8.142721">
        <ele>53.837</ele>
        <time>2016-09-26T12:11:20Z</time>
      </trkpt>
      <trkpt lat="43.621604" lon="-8.142834">
        <ele>53.142</ele>
        <time>2016-09-26T12:11:21Z</time>
      </trkpt>
      <trkpt lat="43.621592" lon="-8.142955">
        <ele>52.390</ele>
        <time>2016-09-26T12:11:22Z</time>
      </trkpt>
      <trkpt lat="43.621576" lon="-8.143082">
        <ele>51.736</ele>
        <time>2016-09-26T12:11:23Z</time>
      </trkpt>
      <trkpt lat="43.621557" lon="-8.143212">
        <ele>51.040</ele>
        <time>2016-09-26T12:11:24Z</time>
      </trkpt>
      <trkpt lat="43.621536" lon="-8.143339">
        <ele>50.512</ele>
        <time>2016-09-26T12:11:25Z</time>
      </trkpt>
      <trkpt lat="43.621515" lon="-8.143463">
        <ele>49.825</ele>
        <time>2016-09-26T12:11:26Z</time>
      </trkpt>
      <trkpt lat="43.621495" lon="-8.143579">
        <ele>48.943</ele>
        <time>2016-09-26T12:11:27Z</time>
      </trkpt>
      <trkpt lat="43.621476" lon="-8.143692">
        <ele>47.933</ele>
        <time>2016-09-26T12:11:28Z</time>
      </trkpt>
      <trkpt lat="43.621458" lon="-8.143802">
        <ele>46.923</ele>
        <time>2016-09-26T12:11:29Z</time>
      </trkpt>
      <trkpt lat="43.621440" lon="-8.143910">
        <ele>46.115</ele>
        <time>2016-09-26T12:11:30Z</time>
      </trkpt>
      <trkpt lat="43.621419" lon="-8.144008">
        <ele>45.408</ele>
        <time>2016-09-26T12:11:31Z</time>
      </trkpt>
      <trkpt lat="43.621392" lon="-8.144102">
        <ele>44.674</ele>
        <time>2016-09-26T12:11:32Z</time>
      </trkpt>
      <trkpt lat="43.621354" lon="-8.144189">
        <ele>43.759</ele>
        <time>2016-09-26T12:11:33Z</time>
      </trkpt>
      <trkpt lat="43.621308" lon="-8.144268">
        <ele>43.197</ele>
        <time>2016-09-26T12:11:34Z</time>
      </trkpt>
      <trkpt lat="43.621254" lon="-8.144342">
        <ele>42.313</ele>
        <time>2016-09-26T12:11:35Z</time>
      </trkpt>
      <trkpt lat="43.621197" lon="-8.144414">
        <ele>41.777</ele>
        <time>2016-09-26T12:11:36Z</time>
      </trkpt>
      <trkpt lat="43.621138" lon="-8.144485">
        <ele>41.129</ele>
        <time>2016-09-26T12:11:37Z</time>
      </trkpt>
      <trkpt lat="43.621079" lon="-8.144556">
        <ele>40.662</ele>
        <time>2016-09-26T12:11:38Z</time>
      </trkpt>
      <trkpt lat="43.621021" lon="-8.144627">
        <ele>40.120</ele>
        <time>2016-09-26T12:11:39Z</time>
      </trkpt>
      <trkpt lat="43.620964" lon="-8.144698">
        <ele>39.627</ele>
        <time>2016-09-26T12:11:40Z</time>
      </trkpt>
      <trkpt lat="43.620908" lon="-8.144770">
        <ele>39.268</ele>
        <time>2016-09-26T12:11:41Z</time>
      </trkpt>
      <trkpt lat="43.620852" lon="-8.144842">
        <ele>38.714</ele>
        <time>2016-09-26T12:11:42Z</time>
      </trkpt>
      <trkpt lat="43.620793" lon="-8.144915">
        <ele>38.408</ele>
        <time>2016-09-26T12:11:43Z</time>
      </trkpt>
      <trkpt lat="43.620735" lon="-8.144988">
        <ele>38.083</ele>
        <time>2016-09-26T12:11:44Z</time>
      </trkpt>
      <trkpt lat="43.620678" lon="-8.145061">
        <ele>37.738</ele>
        <time>2016-09-26T12:11:45Z</time>
      </trkpt>
      <trkpt lat="43.620623" lon="-8.145135">
        <ele>37.526</ele>
        <time>2016-09-26T12:11:46Z</time>
      </trkpt>
      <trkpt lat="43.620570" lon="-8.145207">
        <ele>37.482</ele>
        <time>2016-09-26T12:11:47Z</time>
      </trkpt>
      <trkpt lat="43.620517" lon="-8.145276">
        <ele>37.316</ele>
        <time>2016-09-26T12:11:48Z</time>
      </trkpt>
      <trkpt lat="43.620463" lon="-8.145340">
        <ele>37.078</ele>
        <time>2016-09-26T12:11:49Z</time>
      </trkpt>
      <trkpt lat="43.620406" lon="-8.145393">
        <ele>36.861</ele>
        <time>2016-09-26T12:11:50Z</time>
      </trkpt>
      <trkpt lat="43.620346" lon="-8.145433">
        <ele>36.849</ele>
        <time>2016-09-26T12:11:51Z</time>
      </trkpt>
      <trkpt lat="43.620285" lon="-8.145462">
        <ele>36.627</ele>
        <time>2016-09-26T12:11:52Z</time>
      </trkpt>
      <trkpt lat="43.620225" lon="-8.145483">
        <ele>36.268</ele>
        <time>2016-09-26T12:11:53Z</time>
      </trkpt>
      <trkpt lat="43.620167" lon="-8.145498">
        <ele>36.214</ele>
        <time>2016-09-26T12:11:54Z</time>
      </trkpt>
      <trkpt lat="43.620109" lon="-8.145506">
        <ele>36.008</ele>
        <time>2016-09-26T12:11:55Z</time>
      </trkpt>
      <trkpt lat="43.620054" lon="-8.145503">
        <ele>35.833</ele>
        <time>2016-09-26T12:11:56Z</time>
      </trkpt>
      <trkpt lat="43.620000" lon="-8.145493">
        <ele>35.798</ele>
        <time>2016-09-26T12:11:57Z</time>
      </trkpt>
      <trkpt lat="43.619947" lon="-8.145475">
        <ele>35.656</ele>
        <time>2016-09-26T12:11:58Z</time>
      </trkpt>
      <trkpt lat="43.619896" lon="-8.145448">
        <ele>35.632</ele>
        <time>2016-09-26T12:11:59Z</time>
      </trkpt>
      <trkpt lat="43.619848" lon="-8.145413">
        <ele>35.526</ele>
        <time>2016-09-26T12:12:00Z</time>
      </trkpt>
      <trkpt lat="43.619800" lon="-8.145378">
        <ele>35.538</ele>
        <time>2016-09-26T12:12:01Z</time>
      </trkpt>
      <trkpt lat="43.619752" lon="-8.145342">
        <ele>35.551</ele>
        <time>2016-09-26T12:12:02Z</time>
      </trkpt>
      <trkpt lat="43.619705" lon="-8.145307">
        <ele>35.439</ele>
        <time>2016-09-26T12:12:03Z</time>
      </trkpt>
      <trkpt lat="43.619657" lon="-8.145270">
        <ele>35.466</ele>
        <time>2016-09-26T12:12:04Z</time>
      </trkpt>
      <trkpt lat="43.619611" lon="-8.145234">
        <ele>35.129</ele>
        <time>2016-09-26T12:12:05Z</time>
      </trkpt>
      <trkpt lat="43.619564" lon="-8.145200">
        <ele>35.121</ele>
        <time>2016-09-26T12:12:06Z</time>
      </trkpt>
      <trkpt lat="43.619518" lon="-8.145168">
        <ele>35.008</ele>
        <time>2016-09-26T12:12:07Z</time>
      </trkpt>
      <trkpt lat="43.619472" lon="-8.145139">
        <ele>34.827</ele>
        <time>2016-09-26T12:12:08Z</time>
      </trkpt>
      <trkpt lat="43.619425" lon="-8.145114">
        <ele>34.912</ele>
        <time>2016-09-26T12:12:09Z</time>
      </trkpt>
      <trkpt lat="43.619379" lon="-8.145094">
        <ele>34.870</ele>
        <time>2016-09-26T12:12:10Z</time>
      </trkpt>
      <trkpt lat="43.619332" lon="-8.145074">
        <ele>34.816</ele>
        <time>2016-09-26T12:12:11Z</time>
      </trkpt>
      <trkpt lat="43.619288" lon="-8.145051">
        <ele>34.840</ele>
        <time>2016-09-26T12:12:12Z</time>
      </trkpt>
      <trkpt lat="43.619244" lon="-8.145027">
        <ele>34.782</ele>
        <time>2016-09-26T12:12:13Z</time>
      </trkpt>
      <trkpt lat="43.619202" lon="-8.145006">
        <ele>34.885</ele>
        <time>2016-09-26T12:12:14Z</time>
      </trkpt>
      <trkpt lat="43.619159" lon="-8.144986">
        <ele>34.823</ele>
        <time>2016-09-26T12:12:15Z</time>
      </trkpt>
      <trkpt lat="43.619119" lon="-8.144966">
        <ele>34.871</ele>
        <time>2016-09-26T12:12:16Z</time>
      </trkpt>
      <trkpt lat="43.619080" lon="-8.144943">
        <ele>34.841</ele>
        <time>2016-09-26T12:12:17Z</time>
      </trkpt>
      <trkpt lat="43.619044" lon="-8.144919">
        <ele>34.815</ele>
        <time>2016-09-26T12:12:18Z</time>
      </trkpt>
      <trkpt lat="43.619012" lon="-8.144897">
        <ele>34.708</ele>
        <time>2016-09-26T12:12:19Z</time>
      </trkpt>
      <trkpt lat="43.618985" lon="-8.144882">
        <ele>34.678</ele>
        <time>2016-09-26T12:12:20Z</time>
      </trkpt>
      <trkpt lat="43.618962" lon="-8.144869">
        <ele>34.563</ele>
        <time>2016-09-26T12:12:21Z</time>
      </trkpt>
      <trkpt lat="43.618941" lon="-8.144861">
        <ele>34.361</ele>
        <time>2016-09-26T12:12:22Z</time>
      </trkpt>
      <trkpt lat="43.618918" lon="-8.144865">
        <ele>34.127</ele>
        <time>2016-09-26T12:12:23Z</time>
      </trkpt>
      <trkpt lat="43.618894" lon="-8.144886">
        <ele>34.091</ele>
        <time>2016-09-26T12:12:24Z</time>
      </trkpt>
      <trkpt lat="43.618863" lon="-8.144910">
        <ele>34.053</ele>
        <time>2016-09-26T12:12:25Z</time>
      </trkpt>
      <trkpt lat="43.618837" lon="-8.144949">
        <ele>33.786</ele>
        <time>2016-09-26T12:12:26Z</time>
      </trkpt>
      <trkpt lat="43.618814" lon="-8.144996">
        <ele>33.784</ele>
        <time>2016-09-26T12:12:27Z</time>
      </trkpt>
      <trkpt lat="43.618789" lon="-8.145041">
        <ele>33.477</ele>
        <time>2016-09-26T12:12:28Z</time>
      </trkpt>
      <trkpt lat="43.618762" lon="-8.145085">
        <ele>33.261</ele>
        <time>2016-09-26T12:12:29Z</time>
      </trkpt>
      <trkpt lat="43.618731" lon="-8.145130">
        <ele>33.027</ele>
        <time>2016-09-26T12:12:30Z</time>
      </trkpt>
      <trkpt lat="43.618700" lon="-8.145175">
        <ele>32.808</ele>
        <time>2016-09-26T12:12:31Z</time>
      </trkpt>
      <trkpt lat="43.618666" lon="-8.145226">
        <ele>32.658</ele>
        <time>2016-09-26T12:12:32Z</time>
      </trkpt>
      <trkpt lat="43.618634" lon="-8.145282">
        <ele>32.683</ele>
        <time>2016-09-26T12:12:33Z</time>
      </trkpt>
      <trkpt lat="43.618600" lon="-8.145339">
        <ele>32.221</ele>
        <time>2016-09-26T12:12:34Z</time>
      </trkpt>
      <trkpt lat="43.618563" lon="-8.145399">
        <ele>32.147</ele>
        <time>2016-09-26T12:12:35Z</time>
      </trkpt>
      <trkpt lat="43.618524" lon="-8.145461">
        <ele>31.971</ele>
        <time>2016-09-26T12:12:36Z</time>
      </trkpt>
      <trkpt lat="43.618482" lon="-8.145527">
        <ele>31.773</ele>
        <time>2016-09-26T12:12:37Z</time>
      </trkpt>
      <trkpt lat="43.618437" lon="-8.145592">
        <ele>31.576</ele>
        <time>2016-09-26T12:12:38Z</time>
      </trkpt>
      <trkpt lat="43.618388" lon="-8.145660">
        <ele>31.284</ele>
        <time>2016-09-26T12:12:39Z</time>
      </trkpt>
      <trkpt lat="43.618336" lon="-8.145730">
        <ele>31.243</ele>
        <time>2016-09-26T12:12:40Z</time>
      </trkpt>
      <trkpt lat="43.618281" lon="-8.145798">
        <ele>30.864</ele>
        <time>2016-09-26T12:12:41Z</time>
      </trkpt>
      <trkpt lat="43.618222" lon="-8.145870">
        <ele>30.510</ele>
        <time>2016-09-26T12:12:42Z</time>
      </trkpt>
      <trkpt lat="43.618160" lon="-8.145941">
        <ele>30.108</ele>
        <time>2016-09-26T12:12:43Z</time>
      </trkpt>
      <trkpt lat="43.618095" lon="-8.146009">
        <ele>29.815</ele>
        <time>2016-09-26T12:12:44Z</time>
      </trkpt>
      <trkpt lat="43.618027" lon="-8.146076">
        <ele>29.560</ele>
        <time>2016-09-26T12:12:45Z</time>
      </trkpt>
      <trkpt lat="43.617957" lon="-8.146142">
        <ele>29.168</ele>
        <time>2016-09-26T12:12:46Z</time>
      </trkpt>
      <trkpt lat="43.617890" lon="-8.146203">
        <ele>28.554</ele>
        <time>2016-09-26T12:12:47Z</time>
      </trkpt>
      <trkpt lat="43.617821" lon="-8.146267">
        <ele>28.038</ele>
        <time>2016-09-26T12:12:48Z</time>
      </trkpt>
      <trkpt lat="43.617754" lon="-8.146333">
        <ele>27.520</ele>
        <time>2016-09-26T12:12:49Z</time>
      </trkpt>
      <trkpt lat="43.617690" lon="-8.146401">
        <ele>26.873</ele>
        <time>2016-09-26T12:12:50Z</time>
      </trkpt>
      <trkpt lat="43.617632" lon="-8.146467">
        <ele>26.041</ele>
        <time>2016-09-26T12:12:51Z</time>
      </trkpt>
      <trkpt lat="43.617583" lon="-8.146530">
        <ele>25.474</ele>
        <time>2016-09-26T12:12:52Z</time>
      </trkpt>
      <trkpt lat="43.617541" lon="-8.146589">
        <ele>24.756</ele>
        <time>2016-09-26T12:12:53Z</time>
      </trkpt>
      <trkpt lat="43.617502" lon="-8.146647">
        <ele>24.121</ele>
        <time>2016-09-26T12:12:54Z</time>
      </trkpt>
      <trkpt lat="43.617464" lon="-8.146705">
        <ele>23.708</ele>
        <time>2016-09-26T12:12:55Z</time>
      </trkpt>
      <trkpt lat="43.617428" lon="-8.146769">
        <ele>23.368</ele>
        <time>2016-09-26T12:12:56Z</time>
      </trkpt>
      <trkpt lat="43.617394" lon="-8.146838">
        <ele>22.783</ele>
        <time>2016-09-26T12:12:57Z</time>
      </trkpt>
      <trkpt lat="43.617365" lon="-8.146909">
        <ele>22.231</ele>
        <time>2016-09-26T12:12:58Z</time>
      </trkpt>
      <trkpt lat="43.617336" lon="-8.146977">
        <ele>21.827</ele>
        <time>2016-09-26T12:12:59Z</time>
      </trkpt>
      <trkpt lat="43.617308" lon="-8.147038">
        <ele>21.411</ele>
        <time>2016-09-26T12:13:00Z</time>
      </trkpt>
      <trkpt lat="43.617285" lon="-8.147092">
        <ele>20.823</ele>
        <time>2016-09-26T12:13:01Z</time>
      </trkpt>
      <trkpt lat="43.617269" lon="-8.147138">
        <ele>20.366</ele>
        <time>2016-09-26T12:13:02Z</time>
      </trkpt>
      <trkpt lat="43.617257" lon="-8.147178">
        <ele>19.814</ele>
        <time>2016-09-26T12:13:03Z</time>
      </trkpt>
      <trkpt lat="43.617250" lon="-8.147221">
        <ele>19.353</ele>
        <time>2016-09-26T12:13:04Z</time>
      </trkpt>
      <trkpt lat="43.617252" lon="-8.147274">
        <ele>19.004</ele>
        <time>2016-09-26T12:13:05Z</time>
      </trkpt>
      <trkpt lat="43.617253" lon="-8.147337">
        <ele>18.514</ele>
        <time>2016-09-26T12:13:06Z</time>
      </trkpt>
      <trkpt lat="43.617256" lon="-8.147404">
        <ele>17.908</ele>
        <time>2016-09-26T12:13:07Z</time>
      </trkpt>
      <trkpt lat="43.617260" lon="-8.147473">
        <ele>17.496</ele>
        <time>2016-09-26T12:13:08Z</time>
      </trkpt>
      <trkpt lat="43.617265" lon="-8.147543">
        <ele>16.991</ele>
        <time>2016-09-26T12:13:09Z</time>
      </trkpt>
      <trkpt lat="43.617269" lon="-8.147611">
        <ele>16.319</ele>
        <time>2016-09-26T12:13:10Z</time>
      </trkpt>
      <trkpt lat="43.617274" lon="-8.147680">
        <ele>15.765</ele>
        <time>2016-09-26T12:13:11Z</time>
      </trkpt>
      <trkpt lat="43.617275" lon="-8.147757">
        <ele>14.949</ele>
        <time>2016-09-26T12:13:12Z</time>
      </trkpt>
      <trkpt lat="43.617279" lon="-8.147844">
        <ele>14.391</ele>
        <time>2016-09-26T12:13:13Z</time>
      </trkpt>
      <trkpt lat="43.617289" lon="-8.147938">
        <ele>13.614</ele>
        <time>2016-09-26T12:13:14Z</time>
      </trkpt>
      <trkpt lat="43.617297" lon="-8.148032">
        <ele>13.182</ele>
        <time>2016-09-26T12:13:15Z</time>
      </trkpt>
      <trkpt lat="43.617303" lon="-8.148121">
        <ele>12.461</ele>
        <time>2016-09-26T12:13:16Z</time>
      </trkpt>
      <trkpt lat="43.617309" lon="-8.148203">
        <ele>11.921</ele>
        <time>2016-09-26T12:13:17Z</time>
      </trkpt>
      <trkpt lat="43.617315" lon="-8.148281">
        <ele>11.513</ele>
        <time>2016-09-26T12:13:18Z</time>
      </trkpt>
      <trkpt lat="43.617320" lon="-8.148354">
        <ele>11.008</ele>
        <time>2016-09-26T12:13:19Z</time>
      </trkpt>
      <trkpt lat="43.617324" lon="-8.148418">
        <ele>10.587</ele>
        <time>2016-09-26T12:13:20Z</time>
      </trkpt>
      <trkpt lat="43.617323" lon="-8.148476">
        <ele>10.012</ele>
        <time>2016-09-26T12:13:21Z</time>
      </trkpt>
      <trkpt lat="43.617322" lon="-8.148531">
        <ele>9.330</ele>
        <time>2016-09-26T12:13:22Z</time>
      </trkpt>
      <trkpt lat="43.617321" lon="-8.148586">
        <ele>8.646</ele>
        <time>2016-09-26T12:13:23Z</time>
      </trkpt>
      <trkpt lat="43.617322" lon="-8.148639">
        <ele>8.180</ele>
        <time>2016-09-26T12:13:24Z</time>
      </trkpt>
      <trkpt lat="43.617321" lon="-8.148691">
        <ele>7.722</ele>
        <time>2016-09-26T12:13:25Z</time>
      </trkpt>
      <trkpt lat="43.617320" lon="-8.148740">
        <ele>7.445</ele>
        <time>2016-09-26T12:13:26Z</time>
      </trkpt>
      <trkpt lat="43.617320" lon="-8.148785">
        <ele>7.053</ele>
        <time>2016-09-26T12:13:27Z</time>
      </trkpt>
      <trkpt lat="43.617322" lon="-8.148822">
        <ele>6.678</ele>
        <time>2016-09-26T12:13:28Z</time>
      </trkpt>
      <trkpt lat="43.617325" lon="-8.148852">
        <ele>6.233</ele>
        <time>2016-09-26T12:13:29Z</time>
      </trkpt>
      <trkpt lat="43.617334" lon="-8.148887">
        <ele>6.026</ele>
        <time>2016-09-26T12:13:30Z</time>
      </trkpt>
      <trkpt lat="43.617335" lon="-8.148924">
        <ele>5.508</ele>
        <time>2016-09-26T12:13:31Z</time>
      </trkpt>
      <trkpt lat="43.617340" lon="-8.148953">
        <ele>5.128</ele>
        <time>2016-09-26T12:13:32Z</time>
      </trkpt>
      <trkpt lat="43.617345" lon="-8.148973">
        <ele>4.733</ele>
        <time>2016-09-26T12:13:33Z</time>
      </trkpt>
      <trkpt lat="43.617351" lon="-8.148993">
        <ele>4.361</ele>
        <time>2016-09-26T12:13:34Z</time>
      </trkpt>
      <trkpt lat="43.617357" lon="-8.149012">
        <ele>3.947</ele>
        <time>2016-09-26T12:13:35Z</time>
      </trkpt>
      <trkpt lat="43.617349" lon="-8.149032">
        <ele>3.731</ele>
        <time>2016-09-26T12:13:36Z</time>
      </trkpt>
      <trkpt lat="43.617334" lon="-8.149044">
        <ele>3.543</ele>
        <time>2016-09-26T12:13:37Z</time>
      </trkpt>
      <trkpt lat="43.617315" lon="-8.149049">
        <ele>3.426</ele>
        <time>2016-09-26T12:13:38Z</time>
      </trkpt>
      <trkpt lat="43.617293" lon="-8.149052">
        <ele>3.344</ele>
        <time>2016-09-26T12:13:39Z</time>
      </trkpt>
      <trkpt lat="43.617273" lon="-8.149055">
        <ele>3.337</ele>
        <time>2016-09-26T12:13:40Z</time>
      </trkpt>
      <trkpt lat="43.617250" lon="-8.149066">
        <ele>3.349</ele>
        <time>2016-09-26T12:13:41Z</time>
      </trkpt>
      <trkpt lat="43.617226" lon="-8.149078">
        <ele>3.313</ele>
        <time>2016-09-26T12:13:42Z</time>
      </trkpt>
      <trkpt lat="43.617202" lon="-8.149088">
        <ele>3.308</ele>
        <time>2016-09-26T12:13:43Z</time>
      </trkpt>
      <trkpt lat="43.617181" lon="-8.149091">
        <ele>3.354</ele>
        <time>2016-09-26T12:13:44Z</time>
      </trkpt>
      <trkpt lat="43.617160" lon="-8.149095">
        <ele>3.389</ele>
        <time>2016-09-26T12:13:45Z</time>
      </trkpt>
      <trkpt lat="43.617140" lon="-8.149104">
        <ele>3.477</ele>
        <time>2016-09-26T12:13:46Z</time>
      </trkpt>
      <trkpt lat="43.617124" lon="-8.149118">
        <ele>3.453</ele>
        <time>2016-09-26T12:13:47Z</time>
      </trkpt>
      <trkpt lat="43.617113" lon="-8.149139">
        <ele>3.447</ele>
        <time>2016-09-26T12:13:48Z</time>
      </trkpt>
      <trkpt lat="43.617106" lon="-8.149162">
        <ele>3.669</ele>
        <time>2016-09-26T12:13:49Z</time>
      </trkpt>
      <trkpt lat="43.617103" lon="-8.149187">
        <ele>3.882</ele>
        <time>2016-09-26T12:13:50Z</time>
      </trkpt>
      <trkpt lat="43.617100" lon="-8.149212">
        <ele>3.880</ele>
        <time>2016-09-26T12:13:51Z</time>
      </trkpt>
      <trkpt lat="43.617094" lon="-8.149234">
        <ele>3.977</ele>
        <time>2016-09-26T12:13:52Z</time>
      </trkpt>
      <trkpt lat="43.617084" lon="-8.149257">
        <ele>4.061</ele>
        <time>2016-09-26T12:13:53Z</time>
      </trkpt>
      <trkpt lat="43.617071" lon="-8.149277">
        <ele>4.127</ele>
        <time>2016-09-26T12:13:54Z</time>
      </trkpt>
      <trkpt lat="43.617058" lon="-8.149295">
        <ele>4.208</ele>
        <time>2016-09-26T12:13:55Z</time>
      </trkpt>
      <trkpt lat="43.617046" lon="-8.149313">
        <ele>4.258</ele>
        <time>2016-09-26T12:13:56Z</time>
      </trkpt>
      <trkpt lat="43.617037" lon="-8.149332">
        <ele>4.133</ele>
        <time>2016-09-26T12:13:57Z</time>
      </trkpt>
      <trkpt lat="43.617031" lon="-8.149350">
        <ele>4.241</ele>
        <time>2016-09-26T12:13:58Z</time>
      </trkpt>
      <trkpt lat="43.617023" lon="-8.149369">
        <ele>4.197</ele>
        <time>2016-09-26T12:13:59Z</time>
      </trkpt>
      <trkpt lat="43.617013" lon="-8.149387">
        <ele>4.371</ele>
        <time>2016-09-26T12:14:00Z</time>
      </trkpt>
      <trkpt lat="43.617002" lon="-8.149406">
        <ele>4.463</ele>
        <time>2016-09-26T12:14:01Z</time>
      </trkpt>
      <trkpt lat="43.616991" lon="-8.149426">
        <ele>4.326</ele>
        <time>2016-09-26T12:14:02Z</time>
      </trkpt>
      <trkpt lat="43.616979" lon="-8.149446">
        <ele>4.324</ele>
        <time>2016-09-26T12:14:03Z</time>
      </trkpt>
      <trkpt lat="43.616967" lon="-8.149465">
        <ele>4.419</ele>
        <time>2016-09-26T12:14:04Z</time>
      </trkpt>
      <trkpt lat="43.616953" lon="-8.149484">
        <ele>4.509</ele>
        <time>2016-09-26T12:14:05Z</time>
      </trkpt>
      <trkpt lat="43.616938" lon="-8.149506">
        <ele>4.619</ele>
        <time>2016-09-26T12:14:06Z</time>
      </trkpt>
      <trkpt lat="43.616924" lon="-8.149528">
        <ele>4.408</ele>
        <time>2016-09-26T12:14:07Z</time>
      </trkpt>
      <trkpt lat="43.616914" lon="-8.149552">
        <ele>4.382</ele>
        <time>2016-09-26T12:14:08Z</time>
      </trkpt>
      <trkpt lat="43.616906" lon="-8.149575">
        <ele>4.247</ele>
        <time>2016-09-26T12:14:09Z</time>
      </trkpt>
      <trkpt lat="43.616896" lon="-8.149597">
        <ele>4.445</ele>
        <time>2016-09-26T12:14:10Z</time>
      </trkpt>
      <trkpt lat="43.616890" lon="-8.149612">
        <ele>4.461</ele>
        <time>2016-09-26T12:14:11Z</time>
      </trkpt>
      <trkpt lat="43.616890" lon="-8.149615">
        <ele>4.375</ele>
        <time>2016-09-26T12:14:12Z</time>
      </trkpt>
      <trkpt lat="43.616890" lon="-8.149615">
        <ele>4.467</ele>
        <time>2016-09-26T12:14:13Z</time>
      </trkpt>
      <trkpt lat="43.616890" lon="-8.149616">
        <ele>4.470</ele>
        <time>2016-09-26T12:14:14Z</time>
      </trkpt>
      <trkpt lat="43.616890" lon="-8.149615">
        <ele>4.318</ele>
        <time>2016-09-26T12:14:15Z</time>
      </trkpt>
      <trkpt lat="43.616891" lon="-8.149615">
        <ele>4.367</ele>
        <time>2016-09-26T12:14:16Z</time>
      </trkpt>
      <trkpt lat="43.616891" lon="-8.149615">
        <ele>4.381</ele>
        <time>2016-09-26T12:14:16Z</time>
      </trkpt>
      <trkpt lat="43.616891" lon="-8.149615">
        <ele>4.319</ele>
        <time>2016-09-26T12:14:16Z</time>
      </trkpt>
      <trkpt lat="43.616540" lon="-8.149898">
        <ele>4.508</ele>
        <time>2016-09-26T12:15:18Z</time>
      </trkpt>
      <trkpt lat="43.616511" lon="-8.149929">
        <ele>4.517</ele>
        <time>2016-09-26T12:15:19Z</time>
      </trkpt>
      <trkpt lat="43.616484" lon="-8.149961">
        <ele>4.282</ele>
        <time>2016-09-26T12:15:20Z</time>
      </trkpt>
      <trkpt lat="43.616458" lon="-8.149995">
        <ele>4.170</ele>
        <time>2016-09-26T12:15:21Z</time>
      </trkpt>
      <trkpt lat="43.616433" lon="-8.150031">
        <ele>4.286</ele>
        <time>2016-09-26T12:15:22Z</time>
      </trkpt>
      <trkpt lat="43.616408" lon="-8.150069">
        <ele>4.190</ele>
        <time>2016-09-26T12:15:23Z</time>
      </trkpt>
      <trkpt lat="43.616384" lon="-8.150107">
        <ele>3.812</ele>
        <time>2016-09-26T12:15:24Z</time>
      </trkpt>
      <trkpt lat="43.616361" lon="-8.150144">
        <ele>3.865</ele>
        <time>2016-09-26T12:15:25Z</time>
      </trkpt>
      <trkpt lat="43.616338" lon="-8.150182">
        <ele>3.813</ele>
        <time>2016-09-26T12:15:26Z</time>
      </trkpt>
      <trkpt lat="43.616317" lon="-8.150220">
        <ele>3.938</ele>
        <time>2016-09-26T12:15:27Z</time>
      </trkpt>
      <trkpt lat="43.616296" lon="-8.150260">
        <ele>3.870</ele>
        <time>2016-09-26T12:15:28Z</time>
      </trkpt>
      <trkpt lat="43.616271" lon="-8.150302">
        <ele>3.617</ele>
        <time>2016-09-26T12:15:29Z</time>
      </trkpt>
      <trkpt lat="43.616245" lon="-8.150345">
        <ele>3.508</ele>
        <time>2016-09-26T12:15:30Z</time>
      </trkpt>
      <trkpt lat="43.616218" lon="-8.150386">
        <ele>3.344</ele>
        <time>2016-09-26T12:15:31Z</time>
      </trkpt>
      <trkpt lat="43.616190" lon="-8.150425">
        <ele>3.499</ele>
        <time>2016-09-26T12:15:32Z</time>
      </trkpt>
      <trkpt lat="43.616160" lon="-8.150460">
        <ele>3.457</ele>
        <time>2016-09-26T12:15:33Z</time>
      </trkpt>
      <trkpt lat="43.616126" lon="-8.150491">
        <ele>3.413</ele>
        <time>2016-09-26T12:15:34Z</time>
      </trkpt>
      <trkpt lat="43.616091" lon="-8.150519">
        <ele>3.147</ele>
        <time>2016-09-26T12:15:35Z</time>
      </trkpt>
      <trkpt lat="43.616055" lon="-8.150545">
        <ele>2.839</ele>
        <time>2016-09-26T12:15:36Z</time>
      </trkpt>
      <trkpt lat="43.616022" lon="-8.150572">
        <ele>2.582</ele>
        <time>2016-09-26T12:15:37Z</time>
      </trkpt>
      <trkpt lat="43.615992" lon="-8.150601">
        <ele>2.250</ele>
        <time>2016-09-26T12:15:38Z</time>
      </trkpt>
      <trkpt lat="43.615965" lon="-8.150627">
        <ele>1.973</ele>
        <time>2016-09-26T12:15:39Z</time>
      </trkpt>
      <trkpt lat="43.615936" lon="-8.150646">
        <ele>1.685</ele>
        <time>2016-09-26T12:15:40Z</time>
      </trkpt>
      <trkpt lat="43.615904" lon="-8.150652">
        <ele>1.413</ele>
        <time>2016-09-26T12:15:41Z</time>
      </trkpt>
      <trkpt lat="43.615870" lon="-8.150651">
        <ele>1.308</ele>
        <time>2016-09-26T12:15:42Z</time>
      </trkpt>
      <trkpt lat="43.615837" lon="-8.150646">
        <ele>1.028</ele>
        <time>2016-09-26T12:15:43Z</time>
      </trkpt>
      <trkpt lat="43.615803" lon="-8.150641">
        <ele>1.223</ele>
        <time>2016-09-26T12:15:44Z</time>
      </trkpt>
      <trkpt lat="43.615767" lon="-8.150637">
        <ele>1.111</ele>
        <time>2016-09-26T12:15:45Z</time>
      </trkpt>
      <trkpt lat="43.615732" lon="-8.150633">
        <ele>1.137</ele>
        <time>2016-09-26T12:15:46Z</time>
      </trkpt>
      <trkpt lat="43.615696" lon="-8.150630">
        <ele>0.971</ele>
        <time>2016-09-26T12:15:47Z</time>
      </trkpt>
      <trkpt lat="43.615660" lon="-8.150627">
        <ele>1.093</ele>
        <time>2016-09-26T12:15:48Z</time>
      </trkpt>
      <trkpt lat="43.615625" lon="-8.150625">
        <ele>1.176</ele>
        <time>2016-09-26T12:15:49Z</time>
      </trkpt>
      <trkpt lat="43.615588" lon="-8.150624">
        <ele>1.234</ele>
        <time>2016-09-26T12:15:50Z</time>
      </trkpt>
      <trkpt lat="43.615552" lon="-8.150622">
        <ele>1.544</ele>
        <time>2016-09-26T12:15:51Z</time>
      </trkpt>
      <trkpt lat="43.615516" lon="-8.150622">
        <ele>1.505</ele>
        <time>2016-09-26T12:15:52Z</time>
      </trkpt>
      <trkpt lat="43.615481" lon="-8.150623">
        <ele>1.615</ele>
        <time>2016-09-26T12:15:53Z</time>
      </trkpt>
      <trkpt lat="43.615448" lon="-8.150624">
        <ele>1.908</ele>
        <time>2016-09-26T12:15:54Z</time>
      </trkpt>
      <trkpt lat="43.615415" lon="-8.150628">
        <ele>2.385</ele>
        <time>2016-09-26T12:15:55Z</time>
      </trkpt>
      <trkpt lat="43.615382" lon="-8.150636">
        <ele>2.590</ele>
        <time>2016-09-26T12:15:56Z</time>
      </trkpt>
      <trkpt lat="43.615352" lon="-8.150647">
        <ele>2.528</ele>
        <time>2016-09-26T12:15:57Z</time>
      </trkpt>
      <trkpt lat="43.615321" lon="-8.150663">
        <ele>2.544</ele>
        <time>2016-09-26T12:15:58Z</time>
      </trkpt>
      <trkpt lat="43.615292" lon="-8.150682">
        <ele>2.678</ele>
        <time>2016-09-26T12:15:59Z</time>
      </trkpt>
      <trkpt lat="43.615265" lon="-8.150705">
        <ele>2.740</ele>
        <time>2016-09-26T12:16:00Z</time>
      </trkpt>
      <trkpt lat="43.615237" lon="-8.150729">
        <ele>2.813</ele>
        <time>2016-09-26T12:16:01Z</time>
      </trkpt>
      <trkpt lat="43.615211" lon="-8.150755">
        <ele>2.951</ele>
        <time>2016-09-26T12:16:02Z</time>
      </trkpt>
      <trkpt lat="43.615188" lon="-8.150786">
        <ele>3.021</ele>
        <time>2016-09-26T12:16:03Z</time>
      </trkpt>
      <trkpt lat="43.615168" lon="-8.150821">
        <ele>2.941</ele>
        <time>2016-09-26T12:16:04Z</time>
      </trkpt>
      <trkpt lat="43.615155" lon="-8.150859">
        <ele>2.905</ele>
        <time>2016-09-26T12:16:05Z</time>
      </trkpt>
      <trkpt lat="43.615149" lon="-8.150896">
        <ele>3.108</ele>
        <time>2016-09-26T12:16:06Z</time>
      </trkpt>
      <trkpt lat="43.615144" lon="-8.150933">
        <ele>3.163</ele>
        <time>2016-09-26T12:16:07Z</time>
      </trkpt>
      <trkpt lat="43.615137" lon="-8.150974">
        <ele>3.288</ele>
        <time>2016-09-26T12:16:08Z</time>
      </trkpt>
      <trkpt lat="43.615128" lon="-8.151016">
        <ele>3.356</ele>
        <time>2016-09-26T12:16:09Z</time>
      </trkpt>
      <trkpt lat="43.615114" lon="-8.151058">
        <ele>3.312</ele>
        <time>2016-09-26T12:16:10Z</time>
      </trkpt>
      <trkpt lat="43.615098" lon="-8.151097">
        <ele>3.346</ele>
        <time>2016-09-26T12:16:11Z</time>
      </trkpt>
      <trkpt lat="43.615079" lon="-8.151135">
        <ele>3.448</ele>
        <time>2016-09-26T12:16:12Z</time>
      </trkpt>
      <trkpt lat="43.615059" lon="-8.151173">
        <ele>3.361</ele>
        <time>2016-09-26T12:16:13Z</time>
      </trkpt>
      <trkpt lat="43.615036" lon="-8.151214">
        <ele>3.299</ele>
        <time>2016-09-26T12:16:14Z</time>
      </trkpt>
      <trkpt lat="43.615015" lon="-8.151257">
        <ele>3.315</ele>
        <time>2016-09-26T12:16:15Z</time>
      </trkpt>
      <trkpt lat="43.614993" lon="-8.151302">
        <ele>3.265</ele>
        <time>2016-09-26T12:16:16Z</time>
      </trkpt>
      <trkpt lat="43.614969" lon="-8.151349">
        <ele>3.011</ele>
        <time>2016-09-26T12:16:17Z</time>
      </trkpt>
      <trkpt lat="43.614944" lon="-8.151396">
        <ele>2.908</ele>
        <time>2016-09-26T12:16:18Z</time>
      </trkpt>
      <trkpt lat="43.614917" lon="-8.151445">
        <ele>2.962</ele>
        <time>2016-09-26T12:16:19Z</time>
      </trkpt>
      <trkpt lat="43.614889" lon="-8.151493">
        <ele>2.817</ele>
        <time>2016-09-26T12:16:20Z</time>
      </trkpt>
      <trkpt lat="43.614859" lon="-8.151540">
        <ele>2.815</ele>
        <time>2016-09-26T12:16:21Z</time>
      </trkpt>
      <trkpt lat="43.614827" lon="-8.151580">
        <ele>2.861</ele>
        <time>2016-09-26T12:16:22Z</time>
      </trkpt>
      <trkpt lat="43.614794" lon="-8.151613">
        <ele>2.775</ele>
        <time>2016-09-26T12:16:23Z</time>
      </trkpt>
      <trkpt lat="43.614760" lon="-8.151643">
        <ele>2.617</ele>
        <time>2016-09-26T12:16:24Z</time>
      </trkpt>
      <trkpt lat="43.614728" lon="-8.151672">
        <ele>2.320</ele>
        <time>2016-09-26T12:16:25Z</time>
      </trkpt>
      <trkpt lat="43.614696" lon="-8.151700">
        <ele>2.258</ele>
        <time>2016-09-26T12:16:26Z</time>
      </trkpt>
      <trkpt lat="43.614664" lon="-8.151729">
        <ele>2.587</ele>
        <time>2016-09-26T12:16:27Z</time>
      </trkpt>
      <trkpt lat="43.614631" lon="-8.151760">
        <ele>2.442</ele>
        <time>2016-09-26T12:16:28Z</time>
      </trkpt>
      <trkpt lat="43.614597" lon="-8.151790">
        <ele>2.426</ele>
        <time>2016-09-26T12:16:29Z</time>
      </trkpt>
      <trkpt lat="43.614563" lon="-8.151820">
        <ele>2.608</ele>
        <time>2016-09-26T12:16:30Z</time>
      </trkpt>
      <trkpt lat="43.614530" lon="-8.151850">
        <ele>2.649</ele>
        <time>2016-09-26T12:16:31Z</time>
      </trkpt>
      <trkpt lat="43.614498" lon="-8.151877">
        <ele>2.774</ele>
        <time>2016-09-26T12:16:32Z</time>
      </trkpt>
      <trkpt lat="43.614466" lon="-8.151906">
        <ele>2.662</ele>
        <time>2016-09-26T12:16:33Z</time>
      </trkpt>
      <trkpt lat="43.614433" lon="-8.151934">
        <ele>2.798</ele>
        <time>2016-09-26T12:16:34Z</time>
      </trkpt>
      <trkpt lat="43.614401" lon="-8.151962">
        <ele>2.622</ele>
        <time>2016-09-26T12:16:35Z</time>
      </trkpt>
      <trkpt lat="43.614369" lon="-8.151989">
        <ele>2.674</ele>
        <time>2016-09-26T12:16:36Z</time>
      </trkpt>
      <trkpt lat="43.614338" lon="-8.152017">
        <ele>2.577</ele>
        <time>2016-09-26T12:16:37Z</time>
      </trkpt>
      <trkpt lat="43.614307" lon="-8.152046">
        <ele>2.555</ele>
        <time>2016-09-26T12:16:38Z</time>
      </trkpt>
      <trkpt lat="43.614276" lon="-8.152073">
        <ele>2.553</ele>
        <time>2016-09-26T12:16:39Z</time>
      </trkpt>
      <trkpt lat="43.614245" lon="-8.152104">
        <ele>2.604</ele>
        <time>2016-09-26T12:16:40Z</time>
      </trkpt>
      <trkpt lat="43.614214" lon="-8.152134">
        <ele>2.614</ele>
        <time>2016-09-26T12:16:41Z</time>
      </trkpt>
      <trkpt lat="43.614181" lon="-8.152164">
        <ele>2.808</ele>
        <time>2016-09-26T12:16:42Z</time>
      </trkpt>
      <trkpt lat="43.614150" lon="-8.152192">
        <ele>2.786</ele>
        <time>2016-09-26T12:16:43Z</time>
      </trkpt>
      <trkpt lat="43.614119" lon="-8.152220">
        <ele>2.721</ele>
        <time>2016-09-26T12:16:44Z</time>
      </trkpt>
      <trkpt lat="43.614088" lon="-8.152249">
        <ele>2.669</ele>
        <time>2016-09-26T12:16:45Z</time>
      </trkpt>
      <trkpt lat="43.614057" lon="-8.152278">
        <ele>2.665</ele>
        <time>2016-09-26T12:16:46Z</time>
      </trkpt>
      <trkpt lat="43.614026" lon="-8.152305">
        <ele>2.589</ele>
        <time>2016-09-26T12:16:47Z</time>
      </trkpt>
      <trkpt lat="43.613995" lon="-8.152332">
        <ele>2.651</ele>
        <time>2016-09-26T12:16:48Z</time>
      </trkpt>
      <trkpt lat="43.613965" lon="-8.152359">
        <ele>2.814</ele>
        <time>2016-09-26T12:16:49Z</time>
      </trkpt>
      <trkpt lat="43.613935" lon="-8.152387">
        <ele>2.872</ele>
        <time>2016-09-26T12:16:50Z</time>
      </trkpt>
      <trkpt lat="43.613908" lon="-8.152412">
        <ele>2.824</ele>
        <time>2016-09-26T12:16:51Z</time>
      </trkpt>
      <trkpt lat="43.613883" lon="-8.152430">
        <ele>2.704</ele>
        <time>2016-09-26T12:16:52Z</time>
      </trkpt>
      <trkpt lat="43.613860" lon="-8.152435">
        <ele>2.914</ele>
        <time>2016-09-26T12:16:53Z</time>
      </trkpt>
      <trkpt lat="43.613838" lon="-8.152431">
        <ele>2.908</ele>
        <time>2016-09-26T12:16:54Z</time>
      </trkpt>
      <trkpt lat="43.613816" lon="-8.152415">
        <ele>3.053</ele>
        <time>2016-09-26T12:16:55Z</time>
      </trkpt>
      <trkpt lat="43.613795" lon="-8.152386">
        <ele>3.058</ele>
        <time>2016-09-26T12:16:56Z</time>
      </trkpt>
      <trkpt lat="43.613773" lon="-8.152351">
        <ele>3.176</ele>
        <time>2016-09-26T12:16:57Z</time>
      </trkpt>
      <trkpt lat="43.613752" lon="-8.152316">
        <ele>3.022</ele>
        <time>2016-09-26T12:16:58Z</time>
      </trkpt>
      <trkpt lat="43.613734" lon="-8.152280">
        <ele>3.256</ele>
        <time>2016-09-26T12:16:59Z</time>
      </trkpt>
      <trkpt lat="43.613717" lon="-8.152243">
        <ele>3.138</ele>
        <time>2016-09-26T12:17:00Z</time>
      </trkpt>
      <trkpt lat="43.613699" lon="-8.152206">
        <ele>3.121</ele>
        <time>2016-09-26T12:17:01Z</time>
      </trkpt>
      <trkpt lat="43.613683" lon="-8.152170">
        <ele>3.229</ele>
        <time>2016-09-26T12:17:02Z</time>
      </trkpt>
      <trkpt lat="43.613667" lon="-8.152139">
        <ele>3.156</ele>
        <time>2016-09-26T12:17:03Z</time>
      </trkpt>
      <trkpt lat="43.613652" lon="-8.152110">
        <ele>3.159</ele>
        <time>2016-09-26T12:17:04Z</time>
      </trkpt>
      <trkpt lat="43.613639" lon="-8.152083">
        <ele>3.114</ele>
        <time>2016-09-26T12:17:05Z</time>
      </trkpt>
      <trkpt lat="43.613623" lon="-8.152056">
        <ele>3.208</ele>
        <time>2016-09-26T12:17:06Z</time>
      </trkpt>
      <trkpt lat="43.613607" lon="-8.152027">
        <ele>3.136</ele>
        <time>2016-09-26T12:17:07Z</time>
      </trkpt>
      <trkpt lat="43.613592" lon="-8.152003">
        <ele>3.251</ele>
        <time>2016-09-26T12:17:08Z</time>
      </trkpt>
      <trkpt lat="43.613573" lon="-8.151986">
        <ele>3.369</ele>
        <time>2016-09-26T12:17:09Z</time>
      </trkpt>
      <trkpt lat="43.613549" lon="-8.151983">
        <ele>3.435</ele>
        <time>2016-09-26T12:17:10Z</time>
      </trkpt>
      <trkpt lat="43.613522" lon="-8.151994">
        <ele>3.579</ele>
        <time>2016-09-26T12:17:11Z</time>
      </trkpt>
      <trkpt lat="43.613494" lon="-8.152017">
        <ele>3.681</ele>
        <time>2016-09-26T12:17:12Z</time>
      </trkpt>
      <trkpt lat="43.613467" lon="-8.152046">
        <ele>3.734</ele>
        <time>2016-09-26T12:17:13Z</time>
      </trkpt>
      <trkpt lat="43.613439" lon="-8.152075">
        <ele>3.852</ele>
        <time>2016-09-26T12:17:14Z</time>
      </trkpt>
      <trkpt lat="43.613409" lon="-8.152102">
        <ele>3.826</ele>
        <time>2016-09-26T12:17:15Z</time>
      </trkpt>
      <trkpt lat="43.613379" lon="-8.152133">
        <ele>3.947</ele>
        <time>2016-09-26T12:17:16Z</time>
      </trkpt>
      <trkpt lat="43.613349" lon="-8.152165">
        <ele>3.911</ele>
        <time>2016-09-26T12:17:17Z</time>
      </trkpt>
      <trkpt lat="43.613320" lon="-8.152199">
        <ele>4.008</ele>
        <time>2016-09-26T12:17:18Z</time>
      </trkpt>
      <trkpt lat="43.613293" lon="-8.152234">
        <ele>3.853</ele>
        <time>2016-09-26T12:17:19Z</time>
      </trkpt>
      <trkpt lat="43.613263" lon="-8.152268">
        <ele>4.028</ele>
        <time>2016-09-26T12:17:20Z</time>
      </trkpt>
      <trkpt lat="43.613231" lon="-8.152302">
        <ele>4.026</ele>
        <time>2016-09-26T12:17:21Z</time>
      </trkpt>
      <trkpt lat="43.613200" lon="-8.152338">
        <ele>3.952</ele>
        <time>2016-09-26T12:17:22Z</time>
      </trkpt>
      <trkpt lat="43.613170" lon="-8.152376">
        <ele>4.096</ele>
        <time>2016-09-26T12:17:23Z</time>
      </trkpt>
      <trkpt lat="43.613139" lon="-8.152414">
        <ele>4.168</ele>
        <time>2016-09-26T12:17:24Z</time>
      </trkpt>
      <trkpt lat="43.613110" lon="-8.152454">
        <ele>4.231</ele>
        <time>2016-09-26T12:17:25Z</time>
      </trkpt>
      <trkpt lat="43.613083" lon="-8.152495">
        <ele>4.059</ele>
        <time>2016-09-26T12:17:26Z</time>
      </trkpt>
      <trkpt lat="43.613055" lon="-8.152536">
        <ele>4.022</ele>
        <time>2016-09-26T12:17:27Z</time>
      </trkpt>
      <trkpt lat="43.613028" lon="-8.152578">
        <ele>3.862</ele>
        <time>2016-09-26T12:17:28Z</time>
      </trkpt>
      <trkpt lat="43.613000" lon="-8.152620">
        <ele>3.808</ele>
        <time>2016-09-26T12:17:29Z</time>
      </trkpt>
      <trkpt lat="43.612972" lon="-8.152662">
        <ele>3.908</ele>
        <time>2016-09-26T12:17:30Z</time>
      </trkpt>
      <trkpt lat="43.612946" lon="-8.152707">
        <ele>3.943</ele>
        <time>2016-09-26T12:17:31Z</time>
      </trkpt>
      <trkpt lat="43.612920" lon="-8.152754">
        <ele>3.748</ele>
        <time>2016-09-26T12:17:32Z</time>
      </trkpt>
      <trkpt lat="43.612894" lon="-8.152801">
        <ele>3.776</ele>
        <time>2016-09-26T12:17:33Z</time>
      </trkpt>
      <trkpt lat="43.612868" lon="-8.152850">
        <ele>3.572</ele>
        <time>2016-09-26T12:17:34Z</time>
      </trkpt>
      <trkpt lat="43.612844" lon="-8.152901">
        <ele>3.296</ele>
        <time>2016-09-26T12:17:35Z</time>
      </trkpt>
      <trkpt lat="43.612818" lon="-8.152952">
        <ele>3.128</ele>
        <time>2016-09-26T12:17:36Z</time>
      </trkpt>
      <trkpt lat="43.612788" lon="-8.153001">
        <ele>3.261</ele>
        <time>2016-09-26T12:17:37Z</time>
      </trkpt>
      <trkpt lat="43.612758" lon="-8.153049">
        <ele>3.039</ele>
        <time>2016-09-26T12:17:38Z</time>
      </trkpt>
      <trkpt lat="43.612730" lon="-8.153101">
        <ele>2.749</ele>
        <time>2016-09-26T12:17:39Z</time>
      </trkpt>
      <trkpt lat="43.612703" lon="-8.153156">
        <ele>2.402</ele>
        <time>2016-09-26T12:17:40Z</time>
      </trkpt>
      <trkpt lat="43.612674" lon="-8.153209">
        <ele>2.322</ele>
        <time>2016-09-26T12:17:41Z</time>
      </trkpt>
      <trkpt lat="43.612643" lon="-8.153262">
        <ele>2.408</ele>
        <time>2016-09-26T12:17:42Z</time>
      </trkpt>
      <trkpt lat="43.612612" lon="-8.153316">
        <ele>2.565</ele>
        <time>2016-09-26T12:17:43Z</time>
      </trkpt>
      <trkpt lat="43.612580" lon="-8.153369">
        <ele>2.240</ele>
        <time>2016-09-26T12:17:44Z</time>
      </trkpt>
      <trkpt lat="43.612546" lon="-8.153419">
        <ele>2.098</ele>
        <time>2016-09-26T12:17:45Z</time>
      </trkpt>
      <trkpt lat="43.612511" lon="-8.153469">
        <ele>2.074</ele>
        <time>2016-09-26T12:17:46Z</time>
      </trkpt>
      <trkpt lat="43.612477" lon="-8.153516">
        <ele>1.978</ele>
        <time>2016-09-26T12:17:47Z</time>
      </trkpt>
      <trkpt lat="43.612441" lon="-8.153562">
        <ele>1.830</ele>
        <time>2016-09-26T12:17:48Z</time>
      </trkpt>
      <trkpt lat="43.612405" lon="-8.153604">
        <ele>1.963</ele>
        <time>2016-09-26T12:17:49Z</time>
      </trkpt>
      <trkpt lat="43.612365" lon="-8.153646">
        <ele>2.011</ele>
        <time>2016-09-26T12:17:50Z</time>
      </trkpt>
      <trkpt lat="43.612322" lon="-8.153688">
        <ele>1.731</ele>
        <time>2016-09-26T12:17:51Z</time>
      </trkpt>
      <trkpt lat="43.612276" lon="-8.153729">
        <ele>1.861</ele>
        <time>2016-09-26T12:17:52Z</time>
      </trkpt>
      <trkpt lat="43.612229" lon="-8.153768">
        <ele>2.007</ele>
        <time>2016-09-26T12:17:53Z</time>
      </trkpt>
      <trkpt lat="43.612183" lon="-8.153806">
        <ele>1.808</ele>
        <time>2016-09-26T12:17:54Z</time>
      </trkpt>
      <trkpt lat="43.612138" lon="-8.153846">
        <ele>1.944</ele>
        <time>2016-09-26T12:17:55Z</time>
      </trkpt>
      <trkpt lat="43.612093" lon="-8.153885">
        <ele>1.929</ele>
        <time>2016-09-26T12:17:56Z</time>
      </trkpt>
      <trkpt lat="43.612048" lon="-8.153923">
        <ele>1.917</ele>
        <time>2016-09-26T12:17:57Z</time>
      </trkpt>
      <trkpt lat="43.612002" lon="-8.153961">
        <ele>1.733</ele>
        <time>2016-09-26T12:17:58Z</time>
      </trkpt>
      <trkpt lat="43.611955" lon="-8.153999">
        <ele>1.357</ele>
        <time>2016-09-26T12:17:59Z</time>
      </trkpt>
      <trkpt lat="43.611910" lon="-8.154037">
        <ele>1.499</ele>
        <time>2016-09-26T12:18:00Z</time>
      </trkpt>
      <trkpt lat="43.611865" lon="-8.154075">
        <ele>1.492</ele>
        <time>2016-09-26T12:18:01Z</time>
      </trkpt>
      <trkpt lat="43.611819" lon="-8.154111">
        <ele>1.350</ele>
        <time>2016-09-26T12:18:02Z</time>
      </trkpt>
      <trkpt lat="43.611772" lon="-8.154147">
        <ele>1.371</ele>
        <time>2016-09-26T12:18:03Z</time>
      </trkpt>
      <trkpt lat="43.611726" lon="-8.154184">
        <ele>1.141</ele>
        <time>2016-09-26T12:18:04Z</time>
      </trkpt>
      <trkpt lat="43.611681" lon="-8.154221">
        <ele>1.015</ele>
        <time>2016-09-26T12:18:05Z</time>
      </trkpt>
      <trkpt lat="43.611635" lon="-8.154255">
        <ele>1.208</ele>
        <time>2016-09-26T12:18:06Z</time>
      </trkpt>
      <trkpt lat="43.611588" lon="-8.154289">
        <ele>1.228</ele>
        <time>2016-09-26T12:18:07Z</time>
      </trkpt>
      <trkpt lat="43.611542" lon="-8.154325">
        <ele>1.173</ele>
        <time>2016-09-26T12:18:08Z</time>
      </trkpt>
      <trkpt lat="43.611497" lon="-8.154363">
        <ele>1.111</ele>
        <time>2016-09-26T12:18:09Z</time>
      </trkpt>
      <trkpt lat="43.611451" lon="-8.154399">
        <ele>0.967</ele>
        <time>2016-09-26T12:18:10Z</time>
      </trkpt>
      <trkpt lat="43.611404" lon="-8.154435">
        <ele>1.191</ele>
        <time>2016-09-26T12:18:11Z</time>
      </trkpt>
      <trkpt lat="43.611357" lon="-8.154470">
        <ele>1.063</ele>
        <time>2016-09-26T12:18:12Z</time>
      </trkpt>
      <trkpt lat="43.611310" lon="-8.154504">
        <ele>1.286</ele>
        <time>2016-09-26T12:18:13Z</time>
      </trkpt>
      <trkpt lat="43.611264" lon="-8.154541">
        <ele>1.174</ele>
        <time>2016-09-26T12:18:14Z</time>
      </trkpt>
      <trkpt lat="43.611217" lon="-8.154581">
        <ele>0.973</ele>
        <time>2016-09-26T12:18:15Z</time>
      </trkpt>
      <trkpt lat="43.611171" lon="-8.154621">
        <ele>0.985</ele>
        <time>2016-09-26T12:18:16Z</time>
      </trkpt>
      <trkpt lat="43.611125" lon="-8.154660">
        <ele>1.213</ele>
        <time>2016-09-26T12:18:17Z</time>
      </trkpt>
      <trkpt lat="43.611078" lon="-8.154697">
        <ele>1.208</ele>
        <time>2016-09-26T12:18:18Z</time>
      </trkpt>
      <trkpt lat="43.611030" lon="-8.154730">
        <ele>1.198</ele>
        <time>2016-09-26T12:18:19Z</time>
      </trkpt>
      <trkpt lat="43.610984" lon="-8.154766">
        <ele>0.863</ele>
        <time>2016-09-26T12:18:20Z</time>
      </trkpt>
      <trkpt lat="43.610938" lon="-8.154804">
        <ele>0.871</ele>
        <time>2016-09-26T12:18:21Z</time>
      </trkpt>
      <trkpt lat="43.610893" lon="-8.154837">
        <ele>0.797</ele>
        <time>2016-09-26T12:18:22Z</time>
      </trkpt>
      <trkpt lat="43.610845" lon="-8.154864">
        <ele>0.741</ele>
        <time>2016-09-26T12:18:23Z</time>
      </trkpt>
      <trkpt lat="43.610795" lon="-8.154884">
        <ele>0.553</ele>
        <time>2016-09-26T12:18:24Z</time>
      </trkpt>
      <trkpt lat="43.610743" lon="-8.154899">
        <ele>0.446</ele>
        <time>2016-09-26T12:18:25Z</time>
      </trkpt>
      <trkpt lat="43.610690" lon="-8.154910">
        <ele>0.334</ele>
        <time>2016-09-26T12:18:26Z</time>
      </trkpt>
      <trkpt lat="43.610636" lon="-8.154916">
        <ele>0.296</ele>
        <time>2016-09-26T12:18:27Z</time>
      </trkpt>
      <trkpt lat="43.610580" lon="-8.154922">
        <ele>0.131</ele>
        <time>2016-09-26T12:18:28Z</time>
      </trkpt>
      <trkpt lat="43.610523" lon="-8.154926">
        <ele>0.224</ele>
        <time>2016-09-26T12:18:29Z</time>
      </trkpt>
      <trkpt lat="43.610467" lon="-8.154931">
        <ele>0.108</ele>
        <time>2016-09-26T12:18:30Z</time>
      </trkpt>
      <trkpt lat="43.610412" lon="-8.154936">
        <ele>-0.130</ele>
        <time>2016-09-26T12:18:31Z</time>
      </trkpt>
      <trkpt lat="43.610358" lon="-8.154944">
        <ele>-0.345</ele>
        <time>2016-09-26T12:18:32Z</time>
      </trkpt>
      <trkpt lat="43.610305" lon="-8.154956">
        <ele>-0.443</ele>
        <time>2016-09-26T12:18:33Z</time>
      </trkpt>
      <trkpt lat="43.610253" lon="-8.154974">
        <ele>-0.579</ele>
        <time>2016-09-26T12:18:34Z</time>
      </trkpt>
      <trkpt lat="43.610202" lon="-8.154991">
        <ele>-0.653</ele>
        <time>2016-09-26T12:18:35Z</time>
      </trkpt>
      <trkpt lat="43.610151" lon="-8.155003">
        <ele>-0.645</ele>
        <time>2016-09-26T12:18:36Z</time>
      </trkpt>
      <trkpt lat="43.610099" lon="-8.155011">
        <ele>-0.718</ele>
        <time>2016-09-26T12:18:37Z</time>
      </trkpt>
      <trkpt lat="43.610049" lon="-8.155019">
        <ele>-0.726</ele>
        <time>2016-09-26T12:18:38Z</time>
      </trkpt>
      <trkpt lat="43.609998" lon="-8.155026">
        <ele>-0.843</ele>
        <time>2016-09-26T12:18:39Z</time>
      </trkpt>
      <trkpt lat="43.609947" lon="-8.155032">
        <ele>-0.764</ele>
        <time>2016-09-26T12:18:40Z</time>
      </trkpt>
      <trkpt lat="43.609897" lon="-8.155039">
        <ele>-0.910</ele>
        <time>2016-09-26T12:18:41Z</time>
      </trkpt>
      <trkpt lat="43.609846" lon="-8.155045">
        <ele>-0.908</ele>
        <time>2016-09-26T12:18:42Z</time>
      </trkpt>
      <trkpt lat="43.609795" lon="-8.155051">
        <ele>-0.955</ele>
        <time>2016-09-26T12:18:43Z</time>
      </trkpt>
      <trkpt lat="43.609744" lon="-8.155057">
        <ele>-0.820</ele>
        <time>2016-09-26T12:18:44Z</time>
      </trkpt>
      <trkpt lat="43.609695" lon="-8.155063">
        <ele>-0.868</ele>
        <time>2016-09-26T12:18:45Z</time>
      </trkpt>
      <trkpt lat="43.609646" lon="-8.155067">
        <ele>-1.014</ele>
        <time>2016-09-26T12:18:46Z</time>
      </trkpt>
      <trkpt lat="43.609597" lon="-8.155066">
        <ele>-1.118</ele>
        <time>2016-09-26T12:18:47Z</time>
      </trkpt>
      <trkpt lat="43.609549" lon="-8.155061">
        <ele>-1.150</ele>
        <time>2016-09-26T12:18:48Z</time>
      </trkpt>
      <trkpt lat="43.609500" lon="-8.155054">
        <ele>-1.083</ele>
        <time>2016-09-26T12:18:49Z</time>
      </trkpt>
      <trkpt lat="43.609451" lon="-8.155044">
        <ele>-0.981</ele>
        <time>2016-09-26T12:18:50Z</time>
      </trkpt>
      <trkpt lat="43.609404" lon="-8.155032">
        <ele>-0.943</ele>
        <time>2016-09-26T12:18:51Z</time>
      </trkpt>
      <trkpt lat="43.609355" lon="-8.155020">
        <ele>-0.964</ele>
        <time>2016-09-26T12:18:52Z</time>
      </trkpt>
      <trkpt lat="43.609308" lon="-8.155008">
        <ele>-0.810</ele>
        <time>2016-09-26T12:18:53Z</time>
      </trkpt>
      <trkpt lat="43.609260" lon="-8.154997">
        <ele>-1.008</ele>
        <time>2016-09-26T12:18:54Z</time>
      </trkpt>
      <trkpt lat="43.609213" lon="-8.154984">
        <ele>-1.095</ele>
        <time>2016-09-26T12:18:55Z</time>
      </trkpt>
      <trkpt lat="43.609167" lon="-8.154973">
        <ele>-1.010</ele>
        <time>2016-09-26T12:18:56Z</time>
      </trkpt>
      <trkpt lat="43.609121" lon="-8.154961">
        <ele>-1.058</ele>
        <time>2016-09-26T12:18:57Z</time>
      </trkpt>
      <trkpt lat="43.609075" lon="-8.154948">
        <ele>-0.854</ele>
        <time>2016-09-26T12:18:58Z</time>
      </trkpt>
      <trkpt lat="43.609029" lon="-8.154936">
        <ele>-0.828</ele>
        <time>2016-09-26T12:18:59Z</time>
      </trkpt>
      <trkpt lat="43.608983" lon="-8.154926">
        <ele>-0.910</ele>
        <time>2016-09-26T12:19:00Z</time>
      </trkpt>
      <trkpt lat="43.608938" lon="-8.154916">
        <ele>-0.823</ele>
        <time>2016-09-26T12:19:01Z</time>
      </trkpt>
      <trkpt lat="43.608895" lon="-8.154903">
        <ele>-0.831</ele>
        <time>2016-09-26T12:19:02Z</time>
      </trkpt>
      <trkpt lat="43.608850" lon="-8.154890">
        <ele>-0.789</ele>
        <time>2016-09-26T12:19:03Z</time>
      </trkpt>
      <trkpt lat="43.608805" lon="-8.154878">
        <ele>-0.606</ele>
        <time>2016-09-26T12:19:04Z</time>
      </trkpt>
      <trkpt lat="43.608760" lon="-8.154866">
        <ele>-0.826</ele>
        <time>2016-09-26T12:19:05Z</time>
      </trkpt>
      <trkpt lat="43.608715" lon="-8.154854">
        <ele>-0.708</ele>
        <time>2016-09-26T12:19:06Z</time>
      </trkpt>
      <trkpt lat="43.608670" lon="-8.154842">
        <ele>-0.749</ele>
        <time>2016-09-26T12:19:07Z</time>
      </trkpt>
      <trkpt lat="43.608626" lon="-8.154830">
        <ele>-0.724</ele>
        <time>2016-09-26T12:19:08Z</time>
      </trkpt>
      <trkpt lat="43.608581" lon="-8.154819">
        <ele>-0.872</ele>
        <time>2016-09-26T12:19:09Z</time>
      </trkpt>
      <trkpt lat="43.608536" lon="-8.154808">
        <ele>-0.848</ele>
        <time>2016-09-26T12:19:10Z</time>
      </trkpt>
      <trkpt lat="43.608491" lon="-8.154797">
        <ele>-0.862</ele>
        <time>2016-09-26T12:19:11Z</time>
      </trkpt>
      <trkpt lat="43.608446" lon="-8.154783">
        <ele>-0.744</ele>
        <time>2016-09-26T12:19:12Z</time>
      </trkpt>
      <trkpt lat="43.608402" lon="-8.154768">
        <ele>-0.767</ele>
        <time>2016-09-26T12:19:13Z</time>
      </trkpt>
      <trkpt lat="43.608357" lon="-8.154753">
        <ele>-0.745</ele>
        <time>2016-09-26T12:19:14Z</time>
      </trkpt>
      <trkpt lat="43.608314" lon="-8.154738">
        <ele>-0.786</ele>
        <time>2016-09-26T12:19:15Z</time>
      </trkpt>
      <trkpt lat="43.608271" lon="-8.154720">
        <ele>-0.960</ele>
        <time>2016-09-26T12:19:16Z</time>
      </trkpt>
      <trkpt lat="43.608228" lon="-8.154701">
        <ele>-1.026</ele>
        <time>2016-09-26T12:19:17Z</time>
      </trkpt>
      <trkpt lat="43.608184" lon="-8.154686">
        <ele>-0.808</ele>
        <time>2016-09-26T12:19:18Z</time>
      </trkpt>
      <trkpt lat="43.608140" lon="-8.154674">
        <ele>-0.829</ele>
        <time>2016-09-26T12:19:19Z</time>
      </trkpt>
      <trkpt lat="43.608095" lon="-8.154659">
        <ele>-0.994</ele>
        <time>2016-09-26T12:19:20Z</time>
      </trkpt>
      <trkpt lat="43.608052" lon="-8.154642">
        <ele>-0.842</ele>
        <time>2016-09-26T12:19:21Z</time>
      </trkpt>
      <trkpt lat="43.608009" lon="-8.154624">
        <ele>-0.728</ele>
        <time>2016-09-26T12:19:22Z</time>
      </trkpt>
      <trkpt lat="43.607965" lon="-8.154605">
        <ele>-0.612</ele>
        <time>2016-09-26T12:19:23Z</time>
      </trkpt>
      <trkpt lat="43.607922" lon="-8.154584">
        <ele>-0.764</ele>
        <time>2016-09-26T12:19:24Z</time>
      </trkpt>
      <trkpt lat="43.607878" lon="-8.154562">
        <ele>-0.627</ele>
        <time>2016-09-26T12:19:25Z</time>
      </trkpt>
      <trkpt lat="43.607834" lon="-8.154543">
        <ele>-0.795</ele>
        <time>2016-09-26T12:19:26Z</time>
      </trkpt>
      <trkpt lat="43.607791" lon="-8.154524">
        <ele>-0.925</ele>
        <time>2016-09-26T12:19:27Z</time>
      </trkpt>
      <trkpt lat="43.607748" lon="-8.154503">
        <ele>-1.026</ele>
        <time>2016-09-26T12:19:28Z</time>
      </trkpt>
      <trkpt lat="43.607706" lon="-8.154482">
        <ele>-1.108</ele>
        <time>2016-09-26T12:19:29Z</time>
      </trkpt>
      <trkpt lat="43.607663" lon="-8.154461">
        <ele>-1.008</ele>
        <time>2016-09-26T12:19:30Z</time>
      </trkpt>
      <trkpt lat="43.607620" lon="-8.154443">
        <ele>-1.013</ele>
        <time>2016-09-26T12:19:31Z</time>
      </trkpt>
      <trkpt lat="43.607576" lon="-8.154430">
        <ele>-1.198</ele>
        <time>2016-09-26T12:19:32Z</time>
      </trkpt>
      <trkpt lat="43.607532" lon="-8.154422">
        <ele>-1.186</ele>
        <time>2016-09-26T12:19:33Z</time>
      </trkpt>
      <trkpt lat="43.607487" lon="-8.154416">
        <ele>-0.952</ele>
        <time>2016-09-26T12:19:34Z</time>
      </trkpt>
      <trkpt lat="43.607443" lon="-8.154412">
        <ele>-0.996</ele>
        <time>2016-09-26T12:19:35Z</time>
      </trkpt>
      <trkpt lat="43.607398" lon="-8.154414">
        <ele>-0.728</ele>
        <time>2016-09-26T12:19:36Z</time>
      </trkpt>
      <trkpt lat="43.607354" lon="-8.154423">
        <ele>-0.631</ele>
        <time>2016-09-26T12:19:37Z</time>
      </trkpt>
      <trkpt lat="43.607310" lon="-8.154434">
        <ele>-0.659</ele>
        <time>2016-09-26T12:19:38Z</time>
      </trkpt>
      <trkpt lat="43.607268" lon="-8.154451">
        <ele>-0.527</ele>
        <time>2016-09-26T12:19:39Z</time>
      </trkpt>
      <trkpt lat="43.607226" lon="-8.154472">
        <ele>-0.568</ele>
        <time>2016-09-26T12:19:40Z</time>
      </trkpt>
      <trkpt lat="43.607187" lon="-8.154498">
        <ele>-0.514</ele>
        <time>2016-09-26T12:19:41Z</time>
      </trkpt>
      <trkpt lat="43.607149" lon="-8.154525">
        <ele>-0.508</ele>
        <time>2016-09-26T12:19:42Z</time>
      </trkpt>
      <trkpt lat="43.607109" lon="-8.154554">
        <ele>-0.473</ele>
        <time>2016-09-26T12:19:43Z</time>
      </trkpt>
      <trkpt lat="43.607069" lon="-8.154578">
        <ele>-0.528</ele>
        <time>2016-09-26T12:19:44Z</time>
      </trkpt>
      <trkpt lat="43.607029" lon="-8.154607">
        <ele>-0.696</ele>
        <time>2016-09-26T12:19:45Z</time>
      </trkpt>
      <trkpt lat="43.606989" lon="-8.154634">
        <ele>-0.832</ele>
        <time>2016-09-26T12:19:46Z</time>
      </trkpt>
      <trkpt lat="43.606949" lon="-8.154662">
        <ele>-0.676</ele>
        <time>2016-09-26T12:19:47Z</time>
      </trkpt>
      <trkpt lat="43.606911" lon="-8.154692">
        <ele>-0.698</ele>
        <time>2016-09-26T12:19:48Z</time>
      </trkpt>
      <trkpt lat="43.606872" lon="-8.154720">
        <ele>-0.571</ele>
        <time>2016-09-26T12:19:49Z</time>
      </trkpt>
      <trkpt lat="43.606832" lon="-8.154745">
        <ele>-0.489</ele>
        <time>2016-09-26T12:19:50Z</time>
      </trkpt>
      <trkpt lat="43.606794" lon="-8.154770">
        <ele>-0.432</ele>
        <time>2016-09-26T12:19:51Z</time>
      </trkpt>
      <trkpt lat="43.606758" lon="-8.154797">
        <ele>-0.692</ele>
        <time>2016-09-26T12:19:52Z</time>
      </trkpt>
      <trkpt lat="43.606720" lon="-8.154821">
        <ele>-0.611</ele>
        <time>2016-09-26T12:19:53Z</time>
      </trkpt>
      <trkpt lat="43.606679" lon="-8.154842">
        <ele>-0.808</ele>
        <time>2016-09-26T12:19:54Z</time>
      </trkpt>
      <trkpt lat="43.606638" lon="-8.154862">
        <ele>-0.744</ele>
        <time>2016-09-26T12:19:55Z</time>
      </trkpt>
      <trkpt lat="43.606597" lon="-8.154882">
        <ele>-0.759</ele>
        <time>2016-09-26T12:19:56Z</time>
      </trkpt>
      <trkpt lat="43.606555" lon="-8.154897">
        <ele>-0.737</ele>
        <time>2016-09-26T12:19:57Z</time>
      </trkpt>
      <trkpt lat="43.606512" lon="-8.154907">
        <ele>-0.763</ele>
        <time>2016-09-26T12:19:58Z</time>
      </trkpt>
      <trkpt lat="43.606468" lon="-8.154914">
        <ele>-0.827</ele>
        <time>2016-09-26T12:19:59Z</time>
      </trkpt>
      <trkpt lat="43.606423" lon="-8.154919">
        <ele>-0.969</ele>
        <time>2016-09-26T12:20:00Z</time>
      </trkpt>
      <trkpt lat="43.606378" lon="-8.154922">
        <ele>-1.162</ele>
        <time>2016-09-26T12:20:01Z</time>
      </trkpt>
      <trkpt lat="43.606334" lon="-8.154925">
        <ele>-1.110</ele>
        <time>2016-09-26T12:20:02Z</time>
      </trkpt>
      <trkpt lat="43.606289" lon="-8.154931">
        <ele>-1.046</ele>
        <time>2016-09-26T12:20:03Z</time>
      </trkpt>
      <trkpt lat="43.606244" lon="-8.154937">
        <ele>-1.188</ele>
        <time>2016-09-26T12:20:04Z</time>
      </trkpt>
      <trkpt lat="43.606199" lon="-8.154942">
        <ele>-1.016</ele>
        <time>2016-09-26T12:20:05Z</time>
      </trkpt>
      <trkpt lat="43.606157" lon="-8.154946">
        <ele>-1.008</ele>
        <time>2016-09-26T12:20:06Z</time>
      </trkpt>
      <trkpt lat="43.606119" lon="-8.154952">
        <ele>-1.215</ele>
        <time>2016-09-26T12:20:07Z</time>
      </trkpt>
      <trkpt lat="43.606080" lon="-8.154957">
        <ele>-1.160</ele>
        <time>2016-09-26T12:20:08Z</time>
      </trkpt>
      <trkpt lat="43.606037" lon="-8.154958">
        <ele>-0.958</ele>
        <time>2016-09-26T12:20:09Z</time>
      </trkpt>
      <trkpt lat="43.605991" lon="-8.154959">
        <ele>-0.994</ele>
        <time>2016-09-26T12:20:10Z</time>
      </trkpt>
      <trkpt lat="43.605948" lon="-8.154961">
        <ele>-0.968</ele>
        <time>2016-09-26T12:20:11Z</time>
      </trkpt>
      <trkpt lat="43.605910" lon="-8.154955">
        <ele>-1.140</ele>
        <time>2016-09-26T12:20:12Z</time>
      </trkpt>
      <trkpt lat="43.605869" lon="-8.154961">
        <ele>-1.263</ele>
        <time>2016-09-26T12:20:13Z</time>
      </trkpt>
      <trkpt lat="43.605825" lon="-8.154969">
        <ele>-1.261</ele>
        <time>2016-09-26T12:20:14Z</time>
      </trkpt>
      <trkpt lat="43.605779" lon="-8.154972">
        <ele>-1.287</ele>
        <time>2016-09-26T12:20:15Z</time>
      </trkpt>
      <trkpt lat="43.605732" lon="-8.154975">
        <ele>-1.042</ele>
        <time>2016-09-26T12:20:16Z</time>
      </trkpt>
      <trkpt lat="43.605687" lon="-8.154981">
        <ele>-0.926</ele>
        <time>2016-09-26T12:20:17Z</time>
      </trkpt>
      <trkpt lat="43.605643" lon="-8.154986">
        <ele>-0.908</ele>
        <time>2016-09-26T12:20:18Z</time>
      </trkpt>
      <trkpt lat="43.605598" lon="-8.154991">
        <ele>-0.919</ele>
        <time>2016-09-26T12:20:19Z</time>
      </trkpt>
      <trkpt lat="43.605554" lon="-8.154989">
        <ele>-0.854</ele>
        <time>2016-09-26T12:20:20Z</time>
      </trkpt>
      <trkpt lat="43.605511" lon="-8.154986">
        <ele>-0.762</ele>
        <time>2016-09-26T12:20:21Z</time>
      </trkpt>
      <trkpt lat="43.605469" lon="-8.154990">
        <ele>-0.638</ele>
        <time>2016-09-26T12:20:22Z</time>
      </trkpt>
      <trkpt lat="43.605427" lon="-8.154995">
        <ele>-0.782</ele>
        <time>2016-09-26T12:20:23Z</time>
      </trkpt>
      <trkpt lat="43.605381" lon="-8.155001">
        <ele>-0.774</ele>
        <time>2016-09-26T12:20:24Z</time>
      </trkpt>
      <trkpt lat="43.605334" lon="-8.155004">
        <ele>-0.757</ele>
        <time>2016-09-26T12:20:25Z</time>
      </trkpt>
      <trkpt lat="43.605288" lon="-8.155010">
        <ele>-0.695</ele>
        <time>2016-09-26T12:20:26Z</time>
      </trkpt>
      <trkpt lat="43.605244" lon="-8.155017">
        <ele>-0.741</ele>
        <time>2016-09-26T12:20:27Z</time>
      </trkpt>
      <trkpt lat="43.605199" lon="-8.155023">
        <ele>-0.481</ele>
        <time>2016-09-26T12:20:28Z</time>
      </trkpt>
      <trkpt lat="43.605153" lon="-8.155029">
        <ele>-0.509</ele>
        <time>2016-09-26T12:20:29Z</time>
      </trkpt>
      <trkpt lat="43.605109" lon="-8.155034">
        <ele>-0.408</ele>
        <time>2016-09-26T12:20:30Z</time>
      </trkpt>
      <trkpt lat="43.605064" lon="-8.155041">
        <ele>-0.635</ele>
        <time>2016-09-26T12:20:31Z</time>
      </trkpt>
      <trkpt lat="43.605017" lon="-8.155047">
        <ele>-0.690</ele>
        <time>2016-09-26T12:20:32Z</time>
      </trkpt>
      <trkpt lat="43.604969" lon="-8.155055">
        <ele>-0.518</ele>
        <time>2016-09-26T12:20:33Z</time>
      </trkpt>
      <trkpt lat="43.604918" lon="-8.155062">
        <ele>-0.494</ele>
        <time>2016-09-26T12:20:34Z</time>
      </trkpt>
      <trkpt lat="43.604869" lon="-8.155070">
        <ele>-0.458</ele>
        <time>2016-09-26T12:20:35Z</time>
      </trkpt>
      <trkpt lat="43.604822" lon="-8.155077">
        <ele>-0.510</ele>
        <time>2016-09-26T12:20:36Z</time>
      </trkpt>
      <trkpt lat="43.604775" lon="-8.155083">
        <ele>-0.553</ele>
        <time>2016-09-26T12:20:37Z</time>
      </trkpt>
      <trkpt lat="43.604726" lon="-8.155087">
        <ele>-0.571</ele>
        <time>2016-09-26T12:20:38Z</time>
      </trkpt>
      <trkpt lat="43.604678" lon="-8.155091">
        <ele>-0.512</ele>
        <time>2016-09-26T12:20:39Z</time>
      </trkpt>
      <trkpt lat="43.604629" lon="-8.155093">
        <ele>-0.632</ele>
        <time>2016-09-26T12:20:40Z</time>
      </trkpt>
      <trkpt lat="43.604581" lon="-8.155093">
        <ele>-0.705</ele>
        <time>2016-09-26T12:20:41Z</time>
      </trkpt>
      <trkpt lat="43.604534" lon="-8.155094">
        <ele>-0.708</ele>
        <time>2016-09-26T12:20:42Z</time>
      </trkpt>
      <trkpt lat="43.604488" lon="-8.155091">
        <ele>-0.832</ele>
        <time>2016-09-26T12:20:43Z</time>
      </trkpt>
      <trkpt lat="43.604441" lon="-8.155087">
        <ele>-0.677</ele>
        <time>2016-09-26T12:20:44Z</time>
      </trkpt>
      <trkpt lat="43.604393" lon="-8.155083">
        <ele>-0.725</ele>
        <time>2016-09-26T12:20:45Z</time>
      </trkpt>
      <trkpt lat="43.604346" lon="-8.155079">
        <ele>-0.741</ele>
        <time>2016-09-26T12:20:46Z</time>
      </trkpt>
      <trkpt lat="43.604299" lon="-8.155073">
        <ele>-0.625</ele>
        <time>2016-09-26T12:20:47Z</time>
      </trkpt>
      <trkpt lat="43.604256" lon="-8.155066">
        <ele>-0.547</ele>
        <time>2016-09-26T12:20:48Z</time>
      </trkpt>
      <trkpt lat="43.604210" lon="-8.155058">
        <ele>-0.740</ele>
        <time>2016-09-26T12:20:49Z</time>
      </trkpt>
      <trkpt lat="43.604166" lon="-8.155049">
        <ele>-0.548</ele>
        <time>2016-09-26T12:20:50Z</time>
      </trkpt>
      <trkpt lat="43.604124" lon="-8.155043">
        <ele>-0.525</ele>
        <time>2016-09-26T12:20:51Z</time>
      </trkpt>
      <trkpt lat="43.604085" lon="-8.155039">
        <ele>-0.526</ele>
        <time>2016-09-26T12:20:52Z</time>
      </trkpt>
      <trkpt lat="43.604047" lon="-8.155033">
        <ele>-0.908</ele>
        <time>2016-09-26T12:20:53Z</time>
      </trkpt>
      <trkpt lat="43.604008" lon="-8.155027">
        <ele>-0.808</ele>
        <time>2016-09-26T12:20:54Z</time>
      </trkpt>
      <trkpt lat="43.603970" lon="-8.155023">
        <ele>-0.853</ele>
        <time>2016-09-26T12:20:55Z</time>
      </trkpt>
      <trkpt lat="43.603930" lon="-8.155020">
        <ele>-1.178</ele>
        <time>2016-09-26T12:20:56Z</time>
      </trkpt>
      <trkpt lat="43.603890" lon="-8.155023">
        <ele>-1.056</ele>
        <time>2016-09-26T12:20:57Z</time>
      </trkpt>
      <trkpt lat="43.603850" lon="-8.155022">
        <ele>-0.992</ele>
        <time>2016-09-26T12:20:58Z</time>
      </trkpt>
      <trkpt lat="43.603811" lon="-8.155018">
        <ele>-0.856</ele>
        <time>2016-09-26T12:20:59Z</time>
      </trkpt>
      <trkpt lat="43.603773" lon="-8.155014">
        <ele>-1.098</ele>
        <time>2016-09-26T12:21:00Z</time>
      </trkpt>
      <trkpt lat="43.603735" lon="-8.155009">
        <ele>-0.981</ele>
        <time>2016-09-26T12:21:01Z</time>
      </trkpt>
      <trkpt lat="43.603698" lon="-8.155003">
        <ele>-0.979</ele>
        <time>2016-09-26T12:21:02Z</time>
      </trkpt>
      <trkpt lat="43.603659" lon="-8.154997">
        <ele>-0.888</ele>
        <time>2016-09-26T12:21:03Z</time>
      </trkpt>
      <trkpt lat="43.603623" lon="-8.154991">
        <ele>-0.824</ele>
        <time>2016-09-26T12:21:04Z</time>
      </trkpt>
      <trkpt lat="43.603586" lon="-8.154977">
        <ele>-0.826</ele>
        <time>2016-09-26T12:21:05Z</time>
      </trkpt>
      <trkpt lat="43.603546" lon="-8.154966">
        <ele>-0.908</ele>
        <time>2016-09-26T12:21:06Z</time>
      </trkpt>
      <trkpt lat="43.603500" lon="-8.154949">
        <ele>-1.179</ele>
        <time>2016-09-26T12:21:07Z</time>
      </trkpt>
      <trkpt lat="43.603454" lon="-8.154934">
        <ele>-1.024</ele>
        <time>2016-09-26T12:21:08Z</time>
      </trkpt>
      <trkpt lat="43.603413" lon="-8.154920">
        <ele>-0.882</ele>
        <time>2016-09-26T12:21:09Z</time>
      </trkpt>
      <trkpt lat="43.603369" lon="-8.154905">
        <ele>-0.848</ele>
        <time>2016-09-26T12:21:10Z</time>
      </trkpt>
      <trkpt lat="43.603330" lon="-8.154892">
        <ele>-0.952</ele>
        <time>2016-09-26T12:21:11Z</time>
      </trkpt>
      <trkpt lat="43.603292" lon="-8.154877">
        <ele>-0.984</ele>
        <time>2016-09-26T12:21:12Z</time>
      </trkpt>
      <trkpt lat="43.603251" lon="-8.154861">
        <ele>-1.097</ele>
        <time>2016-09-26T12:21:13Z</time>
      </trkpt>
      <trkpt lat="43.603206" lon="-8.154849">
        <ele>-1.025</ele>
        <time>2016-09-26T12:21:14Z</time>
      </trkpt>
      <trkpt lat="43.603158" lon="-8.154836">
        <ele>-0.976</ele>
        <time>2016-09-26T12:21:15Z</time>
      </trkpt>
      <trkpt lat="43.603110" lon="-8.154822">
        <ele>-0.990</ele>
        <time>2016-09-26T12:21:16Z</time>
      </trkpt>
      <trkpt lat="43.603067" lon="-8.154813">
        <ele>-0.919</ele>
        <time>2016-09-26T12:21:17Z</time>
      </trkpt>
      <trkpt lat="43.603025" lon="-8.154810">
        <ele>-0.808</ele>
        <time>2016-09-26T12:21:18Z</time>
      </trkpt>
      <trkpt lat="43.602979" lon="-8.154801">
        <ele>-0.928</ele>
        <time>2016-09-26T12:21:19Z</time>
      </trkpt>
      <trkpt lat="43.602934" lon="-8.154789">
        <ele>-0.973</ele>
        <time>2016-09-26T12:21:20Z</time>
      </trkpt>
      <trkpt lat="43.602884" lon="-8.154776">
        <ele>-1.091</ele>
        <time>2016-09-26T12:21:21Z</time>
      </trkpt>
      <trkpt lat="43.602838" lon="-8.154765">
        <ele>-0.937</ele>
        <time>2016-09-26T12:21:22Z</time>
      </trkpt>
      <trkpt lat="43.602793" lon="-8.154754">
        <ele>-0.951</ele>
        <time>2016-09-26T12:21:23Z</time>
      </trkpt>
      <trkpt lat="43.602750" lon="-8.154747">
        <ele>-1.073</ele>
        <time>2016-09-26T12:21:24Z</time>
      </trkpt>
      <trkpt lat="43.602699" lon="-8.154736">
        <ele>-1.056</ele>
        <time>2016-09-26T12:21:25Z</time>
      </trkpt>
      <trkpt lat="43.602653" lon="-8.154722">
        <ele>-0.854</ele>
        <time>2016-09-26T12:21:26Z</time>
      </trkpt>
      <trkpt lat="43.602609" lon="-8.154711">
        <ele>-0.867</ele>
        <time>2016-09-26T12:21:27Z</time>
      </trkpt>
      <trkpt lat="43.602562" lon="-8.154698">
        <ele>-0.781</ele>
        <time>2016-09-26T12:21:28Z</time>
      </trkpt>
      <trkpt lat="43.602515" lon="-8.154682">
        <ele>-0.619</ele>
        <time>2016-09-26T12:21:29Z</time>
      </trkpt>
      <trkpt lat="43.602475" lon="-8.154678">
        <ele>-0.508</ele>
        <time>2016-09-26T12:21:30Z</time>
      </trkpt>
      <trkpt lat="43.602431" lon="-8.154681">
        <ele>-0.687</ele>
        <time>2016-09-26T12:21:31Z</time>
      </trkpt>
      <trkpt lat="43.602381" lon="-8.154677">
        <ele>-0.772</ele>
        <time>2016-09-26T12:21:32Z</time>
      </trkpt>
      <trkpt lat="43.602332" lon="-8.154669">
        <ele>-0.850</ele>
        <time>2016-09-26T12:21:33Z</time>
      </trkpt>
      <trkpt lat="43.602287" lon="-8.154664">
        <ele>-0.896</ele>
        <time>2016-09-26T12:21:34Z</time>
      </trkpt>
      <trkpt lat="43.602245" lon="-8.154657">
        <ele>-0.930</ele>
        <time>2016-09-26T12:21:35Z</time>
      </trkpt>
      <trkpt lat="43.602204" lon="-8.154650">
        <ele>-0.992</ele>
        <time>2016-09-26T12:21:36Z</time>
      </trkpt>
      <trkpt lat="43.602169" lon="-8.154649">
        <ele>-1.085</ele>
        <time>2016-09-26T12:21:37Z</time>
      </trkpt>
      <trkpt lat="43.602126" lon="-8.154650">
        <ele>-0.923</ele>
        <time>2016-09-26T12:21:38Z</time>
      </trkpt>
      <trkpt lat="43.602075" lon="-8.154643">
        <ele>-0.749</ele>
        <time>2016-09-26T12:21:39Z</time>
      </trkpt>
      <trkpt lat="43.602033" lon="-8.154644">
        <ele>-0.502</ele>
        <time>2016-09-26T12:21:40Z</time>
      </trkpt>
      <trkpt lat="43.601996" lon="-8.154647">
        <ele>-0.522</ele>
        <time>2016-09-26T12:21:41Z</time>
      </trkpt>
      <trkpt lat="43.601960" lon="-8.154640">
        <ele>-0.708</ele>
        <time>2016-09-26T12:21:42Z</time>
      </trkpt>
      <trkpt lat="43.601921" lon="-8.154634">
        <ele>-0.475</ele>
        <time>2016-09-26T12:21:43Z</time>
      </trkpt>
      <trkpt lat="43.601879" lon="-8.154625">
        <ele>-0.320</ele>
        <time>2016-09-26T12:21:44Z</time>
      </trkpt>
      <trkpt lat="43.601830" lon="-8.154620">
        <ele>-0.498</ele>
        <time>2016-09-26T12:21:45Z</time>
      </trkpt>
      <trkpt lat="43.601784" lon="-8.154617">
        <ele>-0.454</ele>
        <time>2016-09-26T12:21:46Z</time>
      </trkpt>
      <trkpt lat="43.601733" lon="-8.154608">
        <ele>-0.628</ele>
        <time>2016-09-26T12:21:47Z</time>
      </trkpt>
      <trkpt lat="43.601687" lon="-8.154603">
        <ele>-0.670</ele>
        <time>2016-09-26T12:21:48Z</time>
      </trkpt>
      <trkpt lat="43.601637" lon="-8.154593">
        <ele>-0.383</ele>
        <time>2016-09-26T12:21:49Z</time>
      </trkpt>
      <trkpt lat="43.601586" lon="-8.154580">
        <ele>-0.341</ele>
        <time>2016-09-26T12:21:50Z</time>
      </trkpt>
      <trkpt lat="43.601544" lon="-8.154570">
        <ele>-0.236</ele>
        <time>2016-09-26T12:21:51Z</time>
      </trkpt>
      <trkpt lat="43.601502" lon="-8.154567">
        <ele>-0.317</ele>
        <time>2016-09-26T12:21:52Z</time>
      </trkpt>
      <trkpt lat="43.601461" lon="-8.154568">
        <ele>-0.318</ele>
        <time>2016-09-26T12:21:53Z</time>
      </trkpt>
      <trkpt lat="43.601424" lon="-8.154568">
        <ele>-0.408</ele>
        <time>2016-09-26T12:21:54Z</time>
      </trkpt>
      <trkpt lat="43.601392" lon="-8.154573">
        <ele>-0.354</ele>
        <time>2016-09-26T12:21:55Z</time>
      </trkpt>
      <trkpt lat="43.601360" lon="-8.154577">
        <ele>-0.249</ele>
        <time>2016-09-26T12:21:56Z</time>
      </trkpt>
      <trkpt lat="43.601314" lon="-8.154571">
        <ele>-0.297</ele>
        <time>2016-09-26T12:21:57Z</time>
      </trkpt>
      <trkpt lat="43.601262" lon="-8.154553">
        <ele>-0.383</ele>
        <time>2016-09-26T12:21:58Z</time>
      </trkpt>
      <trkpt lat="43.601212" lon="-8.154537">
        <ele>-0.457</ele>
        <time>2016-09-26T12:21:59Z</time>
      </trkpt>
      <trkpt lat="43.601165" lon="-8.154525">
        <ele>-0.689</ele>
        <time>2016-09-26T12:22:00Z</time>
      </trkpt>
      <trkpt lat="43.601119" lon="-8.154509">
        <ele>-0.842</ele>
        <time>2016-09-26T12:22:01Z</time>
      </trkpt>
      <trkpt lat="43.601074" lon="-8.154494">
        <ele>-0.860</ele>
        <time>2016-09-26T12:22:02Z</time>
      </trkpt>
      <trkpt lat="43.601024" lon="-8.154475">
        <ele>-0.815</ele>
        <time>2016-09-26T12:22:03Z</time>
      </trkpt>
      <trkpt lat="43.600973" lon="-8.154451">
        <ele>-0.865</ele>
        <time>2016-09-26T12:22:04Z</time>
      </trkpt>
      <trkpt lat="43.600925" lon="-8.154441">
        <ele>-0.711</ele>
        <time>2016-09-26T12:22:05Z</time>
      </trkpt>
      <trkpt lat="43.600879" lon="-8.154426">
        <ele>-0.608</ele>
        <time>2016-09-26T12:22:06Z</time>
      </trkpt>
      <trkpt lat="43.600832" lon="-8.154417">
        <ele>-0.682</ele>
        <time>2016-09-26T12:22:07Z</time>
      </trkpt>
      <trkpt lat="43.600786" lon="-8.154412">
        <ele>-0.597</ele>
        <time>2016-09-26T12:22:08Z</time>
      </trkpt>
      <trkpt lat="43.600746" lon="-8.154406">
        <ele>-0.615</ele>
        <time>2016-09-26T12:22:09Z</time>
      </trkpt>
      <trkpt lat="43.600711" lon="-8.154399">
        <ele>-0.441</ele>
        <time>2016-09-26T12:22:10Z</time>
      </trkpt>
      <trkpt lat="43.600670" lon="-8.154394">
        <ele>-0.395</ele>
        <time>2016-09-26T12:22:11Z</time>
      </trkpt>
      <trkpt lat="43.600625" lon="-8.154383">
        <ele>-0.357</ele>
        <time>2016-09-26T12:22:12Z</time>
      </trkpt>
      <trkpt lat="43.600573" lon="-8.154380">
        <ele>-0.370</ele>
        <time>2016-09-26T12:22:13Z</time>
      </trkpt>
      <trkpt lat="43.600521" lon="-8.154375">
        <ele>-0.358</ele>
        <time>2016-09-26T12:22:14Z</time>
      </trkpt>
      <trkpt lat="43.600475" lon="-8.154375">
        <ele>-0.264</ele>
        <time>2016-09-26T12:22:15Z</time>
      </trkpt>
      <trkpt lat="43.600427" lon="-8.154368">
        <ele>-0.206</ele>
        <time>2016-09-26T12:22:16Z</time>
      </trkpt>
      <trkpt lat="43.600376" lon="-8.154354">
        <ele>-0.316</ele>
        <time>2016-09-26T12:22:17Z</time>
      </trkpt>
      <trkpt lat="43.600327" lon="-8.154343">
        <ele>-0.508</ele>
        <time>2016-09-26T12:22:18Z</time>
      </trkpt>
      <trkpt lat="43.600279" lon="-8.154326">
        <ele>-0.567</ele>
        <time>2016-09-26T12:22:19Z</time>
      </trkpt>
      <trkpt lat="43.600236" lon="-8.154311">
        <ele>-0.692</ele>
        <time>2016-09-26T12:22:20Z</time>
      </trkpt>
      <trkpt lat="43.600191" lon="-8.154297">
        <ele>-0.860</ele>
        <time>2016-09-26T12:22:21Z</time>
      </trkpt>
      <trkpt lat="43.600146" lon="-8.154284">
        <ele>-0.636</ele>
        <time>2016-09-26T12:22:22Z</time>
      </trkpt>
      <trkpt lat="43.600094" lon="-8.154269">
        <ele>-0.460</ele>
        <time>2016-09-26T12:22:23Z</time>
      </trkpt>
      <trkpt lat="43.600042" lon="-8.154259">
        <ele>-0.372</ele>
        <time>2016-09-26T12:22:24Z</time>
      </trkpt>
      <trkpt lat="43.599998" lon="-8.154253">
        <ele>-0.275</ele>
        <time>2016-09-26T12:22:25Z</time>
      </trkpt>
      <trkpt lat="43.599956" lon="-8.154253">
        <ele>-0.393</ele>
        <time>2016-09-26T12:22:26Z</time>
      </trkpt>
      <trkpt lat="43.599914" lon="-8.154245">
        <ele>-0.356</ele>
        <time>2016-09-26T12:22:27Z</time>
      </trkpt>
      <trkpt lat="43.599863" lon="-8.154227">
        <ele>-0.259</ele>
        <time>2016-09-26T12:22:28Z</time>
      </trkpt>
      <trkpt lat="43.599818" lon="-8.154216">
        <ele>-0.214</ele>
        <time>2016-09-26T12:22:29Z</time>
      </trkpt>
      <trkpt lat="43.599777" lon="-8.154201">
        <ele>0.008</ele>
        <time>2016-09-26T12:22:30Z</time>
      </trkpt>
      <trkpt lat="43.599738" lon="-8.154184">
        <ele>-0.166</ele>
        <time>2016-09-26T12:22:31Z</time>
      </trkpt>
      <trkpt lat="43.599694" lon="-8.154170">
        <ele>0.141</ele>
        <time>2016-09-26T12:22:32Z</time>
      </trkpt>
      <trkpt lat="43.599654" lon="-8.154159">
        <ele>0.269</ele>
        <time>2016-09-26T12:22:33Z</time>
      </trkpt>
      <trkpt lat="43.599606" lon="-8.154146">
        <ele>0.255</ele>
        <time>2016-09-26T12:22:34Z</time>
      </trkpt>
      <trkpt lat="43.599555" lon="-8.154132">
        <ele>0.399</ele>
        <time>2016-09-26T12:22:35Z</time>
      </trkpt>
      <trkpt lat="43.599512" lon="-8.154118">
        <ele>0.251</ele>
        <time>2016-09-26T12:22:36Z</time>
      </trkpt>
      <trkpt lat="43.599472" lon="-8.154105">
        <ele>0.414</ele>
        <time>2016-09-26T12:22:37Z</time>
      </trkpt>
      <trkpt lat="43.599434" lon="-8.154098">
        <ele>0.362</ele>
        <time>2016-09-26T12:22:38Z</time>
      </trkpt>
      <trkpt lat="43.599394" lon="-8.154098">
        <ele>0.529</ele>
        <time>2016-09-26T12:22:39Z</time>
      </trkpt>
      <trkpt lat="43.599345" lon="-8.154098">
        <ele>0.500</ele>
        <time>2016-09-26T12:22:40Z</time>
      </trkpt>
      <trkpt lat="43.599298" lon="-8.154095">
        <ele>0.520</ele>
        <time>2016-09-26T12:22:41Z</time>
      </trkpt>
      <trkpt lat="43.599252" lon="-8.154091">
        <ele>0.408</ele>
        <time>2016-09-26T12:22:42Z</time>
      </trkpt>
      <trkpt lat="43.599207" lon="-8.154091">
        <ele>0.433</ele>
        <time>2016-09-26T12:22:43Z</time>
      </trkpt>
      <trkpt lat="43.599162" lon="-8.154085">
        <ele>0.528</ele>
        <time>2016-09-26T12:22:44Z</time>
      </trkpt>
      <trkpt lat="43.599119" lon="-8.154075">
        <ele>0.796</ele>
        <time>2016-09-26T12:22:45Z</time>
      </trkpt>
      <trkpt lat="43.599080" lon="-8.154071">
        <ele>0.892</ele>
        <time>2016-09-26T12:22:46Z</time>
      </trkpt>
      <trkpt lat="43.599038" lon="-8.154066">
        <ele>0.996</ele>
        <time>2016-09-26T12:22:47Z</time>
      </trkpt>
      <trkpt lat="43.598996" lon="-8.154063">
        <ele>1.018</ele>
        <time>2016-09-26T12:22:48Z</time>
      </trkpt>
      <trkpt lat="43.598949" lon="-8.154056">
        <ele>1.071</ele>
        <time>2016-09-26T12:22:49Z</time>
      </trkpt>
      <trkpt lat="43.598904" lon="-8.154046">
        <ele>0.979</ele>
        <time>2016-09-26T12:22:50Z</time>
      </trkpt>
      <trkpt lat="43.598858" lon="-8.154041">
        <ele>0.898</ele>
        <time>2016-09-26T12:22:51Z</time>
      </trkpt>
      <trkpt lat="43.598816" lon="-8.154042">
        <ele>1.015</ele>
        <time>2016-09-26T12:22:52Z</time>
      </trkpt>
      <trkpt lat="43.598775" lon="-8.154036">
        <ele>1.026</ele>
        <time>2016-09-26T12:22:53Z</time>
      </trkpt>
      <trkpt lat="43.598728" lon="-8.154027">
        <ele>1.008</ele>
        <time>2016-09-26T12:22:54Z</time>
      </trkpt>
      <trkpt lat="43.598685" lon="-8.154014">
        <ele>1.140</ele>
        <time>2016-09-26T12:22:55Z</time>
      </trkpt>
      <trkpt lat="43.598649" lon="-8.154006">
        <ele>1.185</ele>
        <time>2016-09-26T12:22:56Z</time>
      </trkpt>
      <trkpt lat="43.598612" lon="-8.153993">
        <ele>1.023</ele>
        <time>2016-09-26T12:22:57Z</time>
      </trkpt>
      <trkpt lat="43.598568" lon="-8.153988">
        <ele>1.079</ele>
        <time>2016-09-26T12:22:58Z</time>
      </trkpt>
      <trkpt lat="43.598523" lon="-8.153979">
        <ele>1.163</ele>
        <time>2016-09-26T12:22:59Z</time>
      </trkpt>
      <trkpt lat="43.598482" lon="-8.153973">
        <ele>1.275</ele>
        <time>2016-09-26T12:23:00Z</time>
      </trkpt>
      <trkpt lat="43.598440" lon="-8.153966">
        <ele>1.518</ele>
        <time>2016-09-26T12:23:01Z</time>
      </trkpt>
      <trkpt lat="43.598391" lon="-8.153960">
        <ele>1.536</ele>
        <time>2016-09-26T12:23:02Z</time>
      </trkpt>
      <trkpt lat="43.598342" lon="-8.153957">
        <ele>1.597</ele>
        <time>2016-09-26T12:23:03Z</time>
      </trkpt>
      <trkpt lat="43.598297" lon="-8.153955">
        <ele>1.523</ele>
        <time>2016-09-26T12:23:04Z</time>
      </trkpt>
      <trkpt lat="43.598254" lon="-8.153952">
        <ele>1.425</ele>
        <time>2016-09-26T12:23:05Z</time>
      </trkpt>
      <trkpt lat="43.598214" lon="-8.153956">
        <ele>1.508</ele>
        <time>2016-09-26T12:23:06Z</time>
      </trkpt>
      <trkpt lat="43.598181" lon="-8.153961">
        <ele>1.360</ele>
        <time>2016-09-26T12:23:07Z</time>
      </trkpt>
      <trkpt lat="43.598149" lon="-8.153957">
        <ele>1.475</ele>
        <time>2016-09-26T12:23:08Z</time>
      </trkpt>
      <trkpt lat="43.598113" lon="-8.153954">
        <ele>1.523</ele>
        <time>2016-09-26T12:23:09Z</time>
      </trkpt>
      <trkpt lat="43.598073" lon="-8.153953">
        <ele>1.469</ele>
        <time>2016-09-26T12:23:10Z</time>
      </trkpt>
      <trkpt lat="43.598029" lon="-8.153956">
        <ele>1.433</ele>
        <time>2016-09-26T12:23:11Z</time>
      </trkpt>
      <trkpt lat="43.597989" lon="-8.153960">
        <ele>1.625</ele>
        <time>2016-09-26T12:23:12Z</time>
      </trkpt>
      <trkpt lat="43.597950" lon="-8.153958">
        <ele>1.698</ele>
        <time>2016-09-26T12:23:13Z</time>
      </trkpt>
      <trkpt lat="43.597913" lon="-8.153953">
        <ele>1.736</ele>
        <time>2016-09-26T12:23:14Z</time>
      </trkpt>
      <trkpt lat="43.597872" lon="-8.153949">
        <ele>1.624</ele>
        <time>2016-09-26T12:23:15Z</time>
      </trkpt>
      <trkpt lat="43.597840" lon="-8.153950">
        <ele>1.804</ele>
        <time>2016-09-26T12:23:16Z</time>
      </trkpt>
      <trkpt lat="43.597800" lon="-8.153947">
        <ele>1.714</ele>
        <time>2016-09-26T12:23:17Z</time>
      </trkpt>
      <trkpt lat="43.597757" lon="-8.153946">
        <ele>1.708</ele>
        <time>2016-09-26T12:23:18Z</time>
      </trkpt>
      <trkpt lat="43.597717" lon="-8.153945">
        <ele>1.833</ele>
        <time>2016-09-26T12:23:19Z</time>
      </trkpt>
      <trkpt lat="43.597675" lon="-8.153939">
        <ele>2.078</ele>
        <time>2016-09-26T12:23:20Z</time>
      </trkpt>
      <trkpt lat="43.597632" lon="-8.153933">
        <ele>1.926</ele>
        <time>2016-09-26T12:23:21Z</time>
      </trkpt>
      <trkpt lat="43.597594" lon="-8.153927">
        <ele>1.842</ele>
        <time>2016-09-26T12:23:22Z</time>
      </trkpt>
      <trkpt lat="43.597555" lon="-8.153921">
        <ele>1.946</ele>
        <time>2016-09-26T12:23:23Z</time>
      </trkpt>
      <trkpt lat="43.597515" lon="-8.153918">
        <ele>2.088</ele>
        <time>2016-09-26T12:23:24Z</time>
      </trkpt>
      <trkpt lat="43.597476" lon="-8.153917">
        <ele>2.171</ele>
        <time>2016-09-26T12:23:25Z</time>
      </trkpt>
      <trkpt lat="43.597435" lon="-8.153917">
        <ele>2.329</ele>
        <time>2016-09-26T12:23:26Z</time>
      </trkpt>
      <trkpt lat="43.597387" lon="-8.153913">
        <ele>2.571</ele>
        <time>2016-09-26T12:23:27Z</time>
      </trkpt>
      <trkpt lat="43.597338" lon="-8.153908">
        <ele>2.341</ele>
        <time>2016-09-26T12:23:28Z</time>
      </trkpt>
      <trkpt lat="43.597286" lon="-8.153900">
        <ele>2.315</ele>
        <time>2016-09-26T12:23:29Z</time>
      </trkpt>
      <trkpt lat="43.597241" lon="-8.153895">
        <ele>2.308</ele>
        <time>2016-09-26T12:23:30Z</time>
      </trkpt>
      <trkpt lat="43.597195" lon="-8.153892">
        <ele>2.378</ele>
        <time>2016-09-26T12:23:31Z</time>
      </trkpt>
      <trkpt lat="43.597148" lon="-8.153889">
        <ele>2.563</ele>
        <time>2016-09-26T12:23:32Z</time>
      </trkpt>
      <trkpt lat="43.597104" lon="-8.153888">
        <ele>2.631</ele>
        <time>2016-09-26T12:23:33Z</time>
      </trkpt>
      <trkpt lat="43.597062" lon="-8.153889">
        <ele>2.777</ele>
        <time>2016-09-26T12:23:34Z</time>
      </trkpt>
      <trkpt lat="43.597015" lon="-8.153892">
        <ele>2.791</ele>
        <time>2016-09-26T12:23:35Z</time>
      </trkpt>
      <trkpt lat="43.596970" lon="-8.153898">
        <ele>2.863</ele>
        <time>2016-09-26T12:23:36Z</time>
      </trkpt>
      <trkpt lat="43.596926" lon="-8.153903">
        <ele>2.946</ele>
        <time>2016-09-26T12:23:37Z</time>
      </trkpt>
      <trkpt lat="43.596883" lon="-8.153909">
        <ele>2.914</ele>
        <time>2016-09-26T12:23:38Z</time>
      </trkpt>
      <trkpt lat="43.596838" lon="-8.153912">
        <ele>2.972</ele>
        <time>2016-09-26T12:23:39Z</time>
      </trkpt>
      <trkpt lat="43.596796" lon="-8.153916">
        <ele>2.913</ele>
        <time>2016-09-26T12:23:40Z</time>
      </trkpt>
      <trkpt lat="43.596756" lon="-8.153923">
        <ele>3.014</ele>
        <time>2016-09-26T12:23:41Z</time>
      </trkpt>
      <trkpt lat="43.596713" lon="-8.153929">
        <ele>3.108</ele>
        <time>2016-09-26T12:23:42Z</time>
      </trkpt>
      <trkpt lat="43.596669" lon="-8.153935">
        <ele>2.948</ele>
        <time>2016-09-26T12:23:43Z</time>
      </trkpt>
      <trkpt lat="43.596628" lon="-8.153945">
        <ele>2.783</ele>
        <time>2016-09-26T12:23:44Z</time>
      </trkpt>
      <trkpt lat="43.596587" lon="-8.153952">
        <ele>2.621</ele>
        <time>2016-09-26T12:23:45Z</time>
      </trkpt>
      <trkpt lat="43.596549" lon="-8.153958">
        <ele>2.717</ele>
        <time>2016-09-26T12:23:46Z</time>
      </trkpt>
      <trkpt lat="43.596512" lon="-8.153964">
        <ele>2.881</ele>
        <time>2016-09-26T12:23:47Z</time>
      </trkpt>
      <trkpt lat="43.596476" lon="-8.153977">
        <ele>2.733</ele>
        <time>2016-09-26T12:23:48Z</time>
      </trkpt>
      <trkpt lat="43.596439" lon="-8.153995">
        <ele>2.466</ele>
        <time>2016-09-26T12:23:49Z</time>
      </trkpt>
      <trkpt lat="43.596407" lon="-8.154022">
        <ele>2.474</ele>
        <time>2016-09-26T12:23:50Z</time>
      </trkpt>
      <trkpt lat="43.596380" lon="-8.154057">
        <ele>2.494</ele>
        <time>2016-09-26T12:23:51Z</time>
      </trkpt>
      <trkpt lat="43.596356" lon="-8.154096">
        <ele>2.357</ele>
        <time>2016-09-26T12:23:52Z</time>
      </trkpt>
      <trkpt lat="43.596333" lon="-8.154139">
        <ele>2.322</ele>
        <time>2016-09-26T12:23:53Z</time>
      </trkpt>
      <trkpt lat="43.596316" lon="-8.154191">
        <ele>2.108</ele>
        <time>2016-09-26T12:23:54Z</time>
      </trkpt>
      <trkpt lat="43.596307" lon="-8.154246">
        <ele>2.050</ele>
        <time>2016-09-26T12:23:55Z</time>
      </trkpt>
      <trkpt lat="43.596303" lon="-8.154306">
        <ele>1.885</ele>
        <time>2016-09-26T12:23:56Z</time>
      </trkpt>
      <trkpt lat="43.596302" lon="-8.154372">
        <ele>1.963</ele>
        <time>2016-09-26T12:23:57Z</time>
      </trkpt>
      <trkpt lat="43.596296" lon="-8.154440">
        <ele>1.939</ele>
        <time>2016-09-26T12:23:58Z</time>
      </trkpt>
      <trkpt lat="43.596293" lon="-8.154507">
        <ele>1.973</ele>
        <time>2016-09-26T12:23:59Z</time>
      </trkpt>
      <trkpt lat="43.596289" lon="-8.154575">
        <ele>1.995</ele>
        <time>2016-09-26T12:24:00Z</time>
      </trkpt>
      <trkpt lat="43.596287" lon="-8.154644">
        <ele>2.098</ele>
        <time>2016-09-26T12:24:01Z</time>
      </trkpt>
      <trkpt lat="43.596284" lon="-8.154712">
        <ele>1.976</ele>
        <time>2016-09-26T12:24:02Z</time>
      </trkpt>
      <trkpt lat="43.596282" lon="-8.154779">
        <ele>1.948</ele>
        <time>2016-09-26T12:24:03Z</time>
      </trkpt>
      <trkpt lat="43.596280" lon="-8.154849">
        <ele>2.061</ele>
        <time>2016-09-26T12:24:04Z</time>
      </trkpt>
      <trkpt lat="43.596279" lon="-8.154917">
        <ele>2.117</ele>
        <time>2016-09-26T12:24:05Z</time>
      </trkpt>
      <trkpt lat="43.596277" lon="-8.154983">
        <ele>2.108</ele>
        <time>2016-09-26T12:24:06Z</time>
      </trkpt>
      <trkpt lat="43.596274" lon="-8.155047">
        <ele>2.145</ele>
        <time>2016-09-26T12:24:07Z</time>
      </trkpt>
      <trkpt lat="43.596272" lon="-8.155109">
        <ele>2.230</ele>
        <time>2016-09-26T12:24:08Z</time>
      </trkpt>
      <trkpt lat="43.596270" lon="-8.155170">
        <ele>2.118</ele>
        <time>2016-09-26T12:24:09Z</time>
      </trkpt>
      <trkpt lat="43.596269" lon="-8.155234">
        <ele>2.194</ele>
        <time>2016-09-26T12:24:10Z</time>
      </trkpt>
      <trkpt lat="43.596267" lon="-8.155297">
        <ele>2.358</ele>
        <time>2016-09-26T12:24:11Z</time>
      </trkpt>
      <trkpt lat="43.596265" lon="-8.155360">
        <ele>2.480</ele>
        <time>2016-09-26T12:24:12Z</time>
      </trkpt>
      <trkpt lat="43.596264" lon="-8.155420">
        <ele>2.483</ele>
        <time>2016-09-26T12:24:13Z</time>
      </trkpt>
      <trkpt lat="43.596264" lon="-8.155483">
        <ele>2.731</ele>
        <time>2016-09-26T12:24:14Z</time>
      </trkpt>
      <trkpt lat="43.596267" lon="-8.155545">
        <ele>2.611</ele>
        <time>2016-09-26T12:24:15Z</time>
      </trkpt>
      <trkpt lat="43.596267" lon="-8.155604">
        <ele>2.321</ele>
        <time>2016-09-26T12:24:16Z</time>
      </trkpt>
      <trkpt lat="43.596267" lon="-8.155662">
        <ele>2.403</ele>
        <time>2016-09-26T12:24:17Z</time>
      </trkpt>
      <trkpt lat="43.596265" lon="-8.155720">
        <ele>2.608</ele>
        <time>2016-09-26T12:24:18Z</time>
      </trkpt>
      <trkpt lat="43.596266" lon="-8.155776">
        <ele>2.552</ele>
        <time>2016-09-26T12:24:19Z</time>
      </trkpt>
      <trkpt lat="43.596266" lon="-8.155836">
        <ele>2.717</ele>
        <time>2016-09-26T12:24:20Z</time>
      </trkpt>
      <trkpt lat="43.596266" lon="-8.155896">
        <ele>2.715</ele>
        <time>2016-09-26T12:24:21Z</time>
      </trkpt>
      <trkpt lat="43.596271" lon="-8.155955">
        <ele>2.751</ele>
        <time>2016-09-26T12:24:22Z</time>
      </trkpt>
      <trkpt lat="43.596277" lon="-8.156012">
        <ele>2.795</ele>
        <time>2016-09-26T12:24:23Z</time>
      </trkpt>
      <trkpt lat="43.596278" lon="-8.156074">
        <ele>2.817</ele>
        <time>2016-09-26T12:24:24Z</time>
      </trkpt>
      <trkpt lat="43.596276" lon="-8.156135">
        <ele>2.850</ele>
        <time>2016-09-26T12:24:25Z</time>
      </trkpt>
      <trkpt lat="43.596273" lon="-8.156197">
        <ele>2.988</ele>
        <time>2016-09-26T12:24:26Z</time>
      </trkpt>
      <trkpt lat="43.596270" lon="-8.156257">
        <ele>3.058</ele>
        <time>2016-09-26T12:24:27Z</time>
      </trkpt>
      <trkpt lat="43.596265" lon="-8.156319">
        <ele>2.952</ele>
        <time>2016-09-26T12:24:28Z</time>
      </trkpt>
      <trkpt lat="43.596256" lon="-8.156384">
        <ele>3.017</ele>
        <time>2016-09-26T12:24:29Z</time>
      </trkpt>
      <trkpt lat="43.596247" lon="-8.156451">
        <ele>3.308</ele>
        <time>2016-09-26T12:24:30Z</time>
      </trkpt>
      <trkpt lat="43.596246" lon="-8.156521">
        <ele>3.346</ele>
        <time>2016-09-26T12:24:31Z</time>
      </trkpt>
      <trkpt lat="43.596248" lon="-8.156588">
        <ele>3.381</ele>
        <time>2016-09-26T12:24:32Z</time>
      </trkpt>
      <trkpt lat="43.596248" lon="-8.156646">
        <ele>3.559</ele>
        <time>2016-09-26T12:24:33Z</time>
      </trkpt>
      <trkpt lat="43.596245" lon="-8.156695">
        <ele>3.695</ele>
        <time>2016-09-26T12:24:34Z</time>
      </trkpt>
      <trkpt lat="43.596242" lon="-8.156747">
        <ele>3.539</ele>
        <time>2016-09-26T12:24:35Z</time>
      </trkpt>
      <trkpt lat="43.596239" lon="-8.156802">
        <ele>3.571</ele>
        <time>2016-09-26T12:24:36Z</time>
      </trkpt>
      <trkpt lat="43.596241" lon="-8.156861">
        <ele>3.534</ele>
        <time>2016-09-26T12:24:37Z</time>
      </trkpt>
      <trkpt lat="43.596241" lon="-8.156928">
        <ele>3.712</ele>
        <time>2016-09-26T12:24:38Z</time>
      </trkpt>
      <trkpt lat="43.596241" lon="-8.156998">
        <ele>4.035</ele>
        <time>2016-09-26T12:24:39Z</time>
      </trkpt>
      <trkpt lat="43.596239" lon="-8.157069">
        <ele>4.286</ele>
        <time>2016-09-26T12:24:40Z</time>
      </trkpt>
      <trkpt lat="43.596238" lon="-8.157137">
        <ele>4.314</ele>
        <time>2016-09-26T12:24:41Z</time>
      </trkpt>
      <trkpt lat="43.596234" lon="-8.157204">
        <ele>4.608</ele>
        <time>2016-09-26T12:24:42Z</time>
      </trkpt>
      <trkpt lat="43.596229" lon="-8.157274">
        <ele>4.874</ele>
        <time>2016-09-26T12:24:43Z</time>
      </trkpt>
      <trkpt lat="43.596226" lon="-8.157343">
        <ele>4.849</ele>
        <time>2016-09-26T12:24:44Z</time>
      </trkpt>
      <trkpt lat="43.596224" lon="-8.157409">
        <ele>4.927</ele>
        <time>2016-09-26T12:24:45Z</time>
      </trkpt>
      <trkpt lat="43.596209" lon="-8.157484">
        <ele>4.913</ele>
        <time>2016-09-26T12:24:46Z</time>
      </trkpt>
      <trkpt lat="43.596192" lon="-8.157552">
        <ele>5.087</ele>
        <time>2016-09-26T12:24:47Z</time>
      </trkpt>
      <trkpt lat="43.596183" lon="-8.157620">
        <ele>5.359</ele>
        <time>2016-09-26T12:24:48Z</time>
      </trkpt>
      <trkpt lat="43.596168" lon="-8.157690">
        <ele>5.532</ele>
        <time>2016-09-26T12:24:49Z</time>
      </trkpt>
      <trkpt lat="43.596155" lon="-8.157758">
        <ele>5.740</ele>
        <time>2016-09-26T12:24:50Z</time>
      </trkpt>
      <trkpt lat="43.596145" lon="-8.157825">
        <ele>5.924</ele>
        <time>2016-09-26T12:24:51Z</time>
      </trkpt>
      <trkpt lat="43.596136" lon="-8.157889">
        <ele>6.204</ele>
        <time>2016-09-26T12:24:52Z</time>
      </trkpt>
      <trkpt lat="43.596119" lon="-8.157956">
        <ele>6.514</ele>
        <time>2016-09-26T12:24:53Z</time>
      </trkpt>
      <trkpt lat="43.596104" lon="-8.158023">
        <ele>6.508</ele>
        <time>2016-09-26T12:24:54Z</time>
      </trkpt>
      <trkpt lat="43.596091" lon="-8.158088">
        <ele>6.693</ele>
        <time>2016-09-26T12:24:55Z</time>
      </trkpt>
      <trkpt lat="43.596077" lon="-8.158151">
        <ele>6.728</ele>
        <time>2016-09-26T12:24:56Z</time>
      </trkpt>
      <trkpt lat="43.596065" lon="-8.158214">
        <ele>6.756</ele>
        <time>2016-09-26T12:24:57Z</time>
      </trkpt>
      <trkpt lat="43.596052" lon="-8.158276">
        <ele>6.922</ele>
        <time>2016-09-26T12:24:58Z</time>
      </trkpt>
      <trkpt lat="43.596039" lon="-8.158335">
        <ele>7.126</ele>
        <time>2016-09-26T12:24:59Z</time>
      </trkpt>
      <trkpt lat="43.596026" lon="-8.158393">
        <ele>7.158</ele>
        <time>2016-09-26T12:25:00Z</time>
      </trkpt>
      <trkpt lat="43.596013" lon="-8.158451">
        <ele>7.351</ele>
        <time>2016-09-26T12:25:01Z</time>
      </trkpt>
      <trkpt lat="43.596001" lon="-8.158511">
        <ele>7.579</ele>
        <time>2016-09-26T12:25:02Z</time>
      </trkpt>
      <trkpt lat="43.595989" lon="-8.158568">
        <ele>7.634</ele>
        <time>2016-09-26T12:25:03Z</time>
      </trkpt>
      <trkpt lat="43.595976" lon="-8.158625">
        <ele>7.755</ele>
        <time>2016-09-26T12:25:04Z</time>
      </trkpt>
      <trkpt lat="43.595964" lon="-8.158682">
        <ele>7.910</ele>
        <time>2016-09-26T12:25:05Z</time>
      </trkpt>
      <trkpt lat="43.595951" lon="-8.158738">
        <ele>7.908</ele>
        <time>2016-09-26T12:25:06Z</time>
      </trkpt>
      <trkpt lat="43.595939" lon="-8.158794">
        <ele>8.094</ele>
        <time>2016-09-26T12:25:07Z</time>
      </trkpt>
      <trkpt lat="43.595926" lon="-8.158849">
        <ele>8.119</ele>
        <time>2016-09-26T12:25:08Z</time>
      </trkpt>
      <trkpt lat="43.595915" lon="-8.158903">
        <ele>8.147</ele>
        <time>2016-09-26T12:25:09Z</time>
      </trkpt>
      <trkpt lat="43.595904" lon="-8.158959">
        <ele>8.183</ele>
        <time>2016-09-26T12:25:10Z</time>
      </trkpt>
      <trkpt lat="43.595893" lon="-8.159013">
        <ele>8.147</ele>
        <time>2016-09-26T12:25:11Z</time>
      </trkpt>
      <trkpt lat="43.595881" lon="-8.159067">
        <ele>8.339</ele>
        <time>2016-09-26T12:25:12Z</time>
      </trkpt>
      <trkpt lat="43.595869" lon="-8.159120">
        <ele>8.492</ele>
        <time>2016-09-26T12:25:13Z</time>
      </trkpt>
      <trkpt lat="43.595857" lon="-8.159175">
        <ele>8.520</ele>
        <time>2016-09-26T12:25:14Z</time>
      </trkpt>
      <trkpt lat="43.595846" lon="-8.159230">
        <ele>8.599</ele>
        <time>2016-09-26T12:25:15Z</time>
      </trkpt>
      <trkpt lat="43.595834" lon="-8.159283">
        <ele>8.707</ele>
        <time>2016-09-26T12:25:16Z</time>
      </trkpt>
      <trkpt lat="43.595823" lon="-8.159336">
        <ele>8.827</ele>
        <time>2016-09-26T12:25:17Z</time>
      </trkpt>
      <trkpt lat="43.595811" lon="-8.159391">
        <ele>9.008</ele>
        <time>2016-09-26T12:25:18Z</time>
      </trkpt>
      <trkpt lat="43.595799" lon="-8.159445">
        <ele>9.290</ele>
        <time>2016-09-26T12:25:19Z</time>
      </trkpt>
      <trkpt lat="43.595788" lon="-8.159500">
        <ele>9.315</ele>
        <time>2016-09-26T12:25:20Z</time>
      </trkpt>
      <trkpt lat="43.595778" lon="-8.159555">
        <ele>9.393</ele>
        <time>2016-09-26T12:25:21Z</time>
      </trkpt>
      <trkpt lat="43.595767" lon="-8.159608">
        <ele>9.449</ele>
        <time>2016-09-26T12:25:22Z</time>
      </trkpt>
      <trkpt lat="43.595756" lon="-8.159661">
        <ele>9.433</ele>
        <time>2016-09-26T12:25:23Z</time>
      </trkpt>
      <trkpt lat="43.595745" lon="-8.159715">
        <ele>9.545</ele>
        <time>2016-09-26T12:25:24Z</time>
      </trkpt>
      <trkpt lat="43.595733" lon="-8.159766">
        <ele>9.648</ele>
        <time>2016-09-26T12:25:25Z</time>
      </trkpt>
      <trkpt lat="43.595722" lon="-8.159815">
        <ele>9.536</ele>
        <time>2016-09-26T12:25:26Z</time>
      </trkpt>
      <trkpt lat="43.595710" lon="-8.159866">
        <ele>9.685</ele>
        <time>2016-09-26T12:25:27Z</time>
      </trkpt>
      <trkpt lat="43.595698" lon="-8.159920">
        <ele>9.989</ele>
        <time>2016-09-26T12:25:28Z</time>
      </trkpt>
      <trkpt lat="43.595686" lon="-8.159972">
        <ele>10.217</ele>
        <time>2016-09-26T12:25:29Z</time>
      </trkpt>
      <trkpt lat="43.595674" lon="-8.160025">
        <ele>10.308</ele>
        <time>2016-09-26T12:25:30Z</time>
      </trkpt>
      <trkpt lat="43.595661" lon="-8.160081">
        <ele>10.229</ele>
        <time>2016-09-26T12:25:31Z</time>
      </trkpt>
      <trkpt lat="43.595649" lon="-8.160135">
        <ele>10.494</ele>
        <time>2016-09-26T12:25:32Z</time>
      </trkpt>
      <trkpt lat="43.595638" lon="-8.160187">
        <ele>10.582</ele>
        <time>2016-09-26T12:25:33Z</time>
      </trkpt>
      <trkpt lat="43.595626" lon="-8.160241">
        <ele>10.568</ele>
        <time>2016-09-26T12:25:34Z</time>
      </trkpt>
      <trkpt lat="43.595614" lon="-8.160294">
        <ele>10.642</ele>
        <time>2016-09-26T12:25:35Z</time>
      </trkpt>
      <trkpt lat="43.595601" lon="-8.160349">
        <ele>10.764</ele>
        <time>2016-09-26T12:25:36Z</time>
      </trkpt>
      <trkpt lat="43.595591" lon="-8.160404">
        <ele>10.767</ele>
        <time>2016-09-26T12:25:37Z</time>
      </trkpt>
      <trkpt lat="43.595577" lon="-8.160455">
        <ele>10.795</ele>
        <time>2016-09-26T12:25:38Z</time>
      </trkpt>
      <trkpt lat="43.595564" lon="-8.160508">
        <ele>10.873</ele>
        <time>2016-09-26T12:25:39Z</time>
      </trkpt>
      <trkpt lat="43.595552" lon="-8.160563">
        <ele>10.985</ele>
        <time>2016-09-26T12:25:40Z</time>
      </trkpt>
      <trkpt lat="43.595538" lon="-8.160616">
        <ele>11.213</ele>
        <time>2016-09-26T12:25:41Z</time>
      </trkpt>
      <trkpt lat="43.595526" lon="-8.160670">
        <ele>11.308</ele>
        <time>2016-09-26T12:25:42Z</time>
      </trkpt>
      <trkpt lat="43.595514" lon="-8.160723">
        <ele>11.568</ele>
        <time>2016-09-26T12:25:43Z</time>
      </trkpt>
      <trkpt lat="43.595501" lon="-8.160778">
        <ele>11.653</ele>
        <time>2016-09-26T12:25:44Z</time>
      </trkpt>
      <trkpt lat="43.595488" lon="-8.160832">
        <ele>11.721</ele>
        <time>2016-09-26T12:25:45Z</time>
      </trkpt>
      <trkpt lat="43.595473" lon="-8.160886">
        <ele>11.747</ele>
        <time>2016-09-26T12:25:46Z</time>
      </trkpt>
      <trkpt lat="43.595457" lon="-8.160938">
        <ele>11.891</ele>
        <time>2016-09-26T12:25:47Z</time>
      </trkpt>
      <trkpt lat="43.595440" lon="-8.160987">
        <ele>11.973</ele>
        <time>2016-09-26T12:25:48Z</time>
      </trkpt>
      <trkpt lat="43.595424" lon="-8.161038">
        <ele>11.986</ele>
        <time>2016-09-26T12:25:49Z</time>
      </trkpt>
      <trkpt lat="43.595408" lon="-8.161089">
        <ele>12.094</ele>
        <time>2016-09-26T12:25:50Z</time>
      </trkpt>
      <trkpt lat="43.595391" lon="-8.161141">
        <ele>12.087</ele>
        <time>2016-09-26T12:25:51Z</time>
      </trkpt>
      <trkpt lat="43.595375" lon="-8.161193">
        <ele>12.342</ele>
        <time>2016-09-26T12:25:52Z</time>
      </trkpt>
      <trkpt lat="43.595359" lon="-8.161245">
        <ele>12.326</ele>
        <time>2016-09-26T12:25:53Z</time>
      </trkpt>
      <trkpt lat="43.595342" lon="-8.161296">
        <ele>12.308</ele>
        <time>2016-09-26T12:25:54Z</time>
      </trkpt>
      <trkpt lat="43.595323" lon="-8.161345">
        <ele>12.559</ele>
        <time>2016-09-26T12:25:55Z</time>
      </trkpt>
      <trkpt lat="43.595305" lon="-8.161396">
        <ele>12.794</ele>
        <time>2016-09-26T12:25:56Z</time>
      </trkpt>
      <trkpt lat="43.595287" lon="-8.161447">
        <ele>12.622</ele>
        <time>2016-09-26T12:25:57Z</time>
      </trkpt>
      <trkpt lat="43.595268" lon="-8.161499">
        <ele>12.618</ele>
        <time>2016-09-26T12:25:58Z</time>
      </trkpt>
      <trkpt lat="43.595247" lon="-8.161549">
        <ele>12.592</ele>
        <time>2016-09-26T12:25:59Z</time>
      </trkpt>
      <trkpt lat="43.595227" lon="-8.161597">
        <ele>12.664</ele>
        <time>2016-09-26T12:26:00Z</time>
      </trkpt>
      <trkpt lat="43.595206" lon="-8.161646">
        <ele>12.767</ele>
        <time>2016-09-26T12:26:01Z</time>
      </trkpt>
      <trkpt lat="43.595184" lon="-8.161693">
        <ele>12.725</ele>
        <time>2016-09-26T12:26:02Z</time>
      </trkpt>
      <trkpt lat="43.595162" lon="-8.161741">
        <ele>12.936</ele>
        <time>2016-09-26T12:26:03Z</time>
      </trkpt>
      <trkpt lat="43.595141" lon="-8.161790">
        <ele>13.017</ele>
        <time>2016-09-26T12:26:04Z</time>
      </trkpt>
      <trkpt lat="43.595120" lon="-8.161839">
        <ele>13.018</ele>
        <time>2016-09-26T12:26:05Z</time>
      </trkpt>
      <trkpt lat="43.595098" lon="-8.161888">
        <ele>13.008</ele>
        <time>2016-09-26T12:26:06Z</time>
      </trkpt>
      <trkpt lat="43.595076" lon="-8.161938">
        <ele>13.184</ele>
        <time>2016-09-26T12:26:07Z</time>
      </trkpt>
      <trkpt lat="43.595055" lon="-8.161986">
        <ele>13.119</ele>
        <time>2016-09-26T12:26:08Z</time>
      </trkpt>
      <trkpt lat="43.595032" lon="-8.162037">
        <ele>13.227</ele>
        <time>2016-09-26T12:26:09Z</time>
      </trkpt>
      <trkpt lat="43.595010" lon="-8.162089">
        <ele>13.273</ele>
        <time>2016-09-26T12:26:10Z</time>
      </trkpt>
      <trkpt lat="43.594988" lon="-8.162141">
        <ele>13.257</ele>
        <time>2016-09-26T12:26:11Z</time>
      </trkpt>
      <trkpt lat="43.594966" lon="-8.162190">
        <ele>13.289</ele>
        <time>2016-09-26T12:26:12Z</time>
      </trkpt>
      <trkpt lat="43.594944" lon="-8.162239">
        <ele>13.552</ele>
        <time>2016-09-26T12:26:13Z</time>
      </trkpt>
      <trkpt lat="43.594922" lon="-8.162287">
        <ele>13.560</ele>
        <time>2016-09-26T12:26:14Z</time>
      </trkpt>
      <trkpt lat="43.594899" lon="-8.162335">
        <ele>13.528</ele>
        <time>2016-09-26T12:26:15Z</time>
      </trkpt>
      <trkpt lat="43.594878" lon="-8.162381">
        <ele>13.489</ele>
        <time>2016-09-26T12:26:16Z</time>
      </trkpt>
      <trkpt lat="43.594855" lon="-8.162428">
        <ele>13.517</ele>
        <time>2016-09-26T12:26:17Z</time>
      </trkpt>
      <trkpt lat="43.594832" lon="-8.162474">
        <ele>13.508</ele>
        <time>2016-09-26T12:26:18Z</time>
      </trkpt>
      <trkpt lat="43.594809" lon="-8.162521">
        <ele>13.623</ele>
        <time>2016-09-26T12:26:19Z</time>
      </trkpt>
      <trkpt lat="43.594787" lon="-8.162569">
        <ele>13.778</ele>
        <time>2016-09-26T12:26:20Z</time>
      </trkpt>
      <trkpt lat="43.594764" lon="-8.162616">
        <ele>13.756</ele>
        <time>2016-09-26T12:26:21Z</time>
      </trkpt>
      <trkpt lat="43.594741" lon="-8.162663">
        <ele>14.072</ele>
        <time>2016-09-26T12:26:22Z</time>
      </trkpt>
      <trkpt lat="43.594718" lon="-8.162710">
        <ele>14.176</ele>
        <time>2016-09-26T12:26:23Z</time>
      </trkpt>
      <trkpt lat="43.594696" lon="-8.162757">
        <ele>14.328</ele>
        <time>2016-09-26T12:26:24Z</time>
      </trkpt>
      <trkpt lat="43.594677" lon="-8.162805">
        <ele>14.211</ele>
        <time>2016-09-26T12:26:25Z</time>
      </trkpt>
      <trkpt lat="43.594658" lon="-8.162854">
        <ele>14.199</ele>
        <time>2016-09-26T12:26:26Z</time>
      </trkpt>
      <trkpt lat="43.594638" lon="-8.162905">
        <ele>14.347</ele>
        <time>2016-09-26T12:26:27Z</time>
      </trkpt>
      <trkpt lat="43.594617" lon="-8.162957">
        <ele>14.229</ele>
        <time>2016-09-26T12:26:28Z</time>
      </trkpt>
      <trkpt lat="43.594594" lon="-8.163008">
        <ele>14.321</ele>
        <time>2016-09-26T12:26:29Z</time>
      </trkpt>
      <trkpt lat="43.594570" lon="-8.163059">
        <ele>14.308</ele>
        <time>2016-09-26T12:26:30Z</time>
      </trkpt>
      <trkpt lat="43.594548" lon="-8.163110">
        <ele>14.295</ele>
        <time>2016-09-26T12:26:31Z</time>
      </trkpt>
      <trkpt lat="43.594527" lon="-8.163162">
        <ele>14.220</ele>
        <time>2016-09-26T12:26:32Z</time>
      </trkpt>
      <trkpt lat="43.594504" lon="-8.163212">
        <ele>14.398</ele>
        <time>2016-09-26T12:26:33Z</time>
      </trkpt>
      <trkpt lat="43.594481" lon="-8.163262">
        <ele>14.374</ele>
        <time>2016-09-26T12:26:34Z</time>
      </trkpt>
      <trkpt lat="43.594458" lon="-8.163311">
        <ele>14.678</ele>
        <time>2016-09-26T12:26:35Z</time>
      </trkpt>
      <trkpt lat="43.594435" lon="-8.163361">
        <ele>14.830</ele>
        <time>2016-09-26T12:26:36Z</time>
      </trkpt>
      <trkpt lat="43.594413" lon="-8.163411">
        <ele>14.963</ele>
        <time>2016-09-26T12:26:37Z</time>
      </trkpt>
      <trkpt lat="43.594388" lon="-8.163461">
        <ele>14.951</ele>
        <time>2016-09-26T12:26:38Z</time>
      </trkpt>
      <trkpt lat="43.594365" lon="-8.163511">
        <ele>14.979</ele>
        <time>2016-09-26T12:26:39Z</time>
      </trkpt>
      <trkpt lat="43.594342" lon="-8.163561">
        <ele>14.805</ele>
        <time>2016-09-26T12:26:40Z</time>
      </trkpt>
      <trkpt lat="43.594321" lon="-8.163611">
        <ele>14.825</ele>
        <time>2016-09-26T12:26:41Z</time>
      </trkpt>
      <trkpt lat="43.594298" lon="-8.163661">
        <ele>14.908</ele>
        <time>2016-09-26T12:26:42Z</time>
      </trkpt>
      <trkpt lat="43.594274" lon="-8.163710">
        <ele>14.978</ele>
        <time>2016-09-26T12:26:43Z</time>
      </trkpt>
      <trkpt lat="43.594252" lon="-8.163761">
        <ele>14.883</ele>
        <time>2016-09-26T12:26:44Z</time>
      </trkpt>
      <trkpt lat="43.594228" lon="-8.163811">
        <ele>14.771</ele>
        <time>2016-09-26T12:26:45Z</time>
      </trkpt>
      <trkpt lat="43.594204" lon="-8.163861">
        <ele>15.057</ele>
        <time>2016-09-26T12:26:46Z</time>
      </trkpt>
      <trkpt lat="43.594181" lon="-8.163909">
        <ele>14.961</ele>
        <time>2016-09-26T12:26:47Z</time>
      </trkpt>
      <trkpt lat="43.594160" lon="-8.163960">
        <ele>15.193</ele>
        <time>2016-09-26T12:26:48Z</time>
      </trkpt>
      <trkpt lat="43.594137" lon="-8.164011">
        <ele>15.186</ele>
        <time>2016-09-26T12:26:49Z</time>
      </trkpt>
      <trkpt lat="43.594114" lon="-8.164060">
        <ele>15.134</ele>
        <time>2016-09-26T12:26:50Z</time>
      </trkpt>
      <trkpt lat="43.594089" lon="-8.164107">
        <ele>15.147</ele>
        <time>2016-09-26T12:26:51Z</time>
      </trkpt>
      <trkpt lat="43.594065" lon="-8.164154">
        <ele>15.429</ele>
        <time>2016-09-26T12:26:52Z</time>
      </trkpt>
      <trkpt lat="43.594042" lon="-8.164202">
        <ele>15.421</ele>
        <time>2016-09-26T12:26:53Z</time>
      </trkpt>
      <trkpt lat="43.594020" lon="-8.164251">
        <ele>15.308</ele>
        <time>2016-09-26T12:26:54Z</time>
      </trkpt>
      <trkpt lat="43.593998" lon="-8.164301">
        <ele>15.515</ele>
        <time>2016-09-26T12:26:55Z</time>
      </trkpt>
      <trkpt lat="43.593978" lon="-8.164351">
        <ele>15.870</ele>
        <time>2016-09-26T12:26:56Z</time>
      </trkpt>
      <trkpt lat="43.593961" lon="-8.164401">
        <ele>15.828</ele>
        <time>2016-09-26T12:26:57Z</time>
      </trkpt>
      <trkpt lat="43.593941" lon="-8.164449">
        <ele>16.064</ele>
        <time>2016-09-26T12:26:58Z</time>
      </trkpt>
      <trkpt lat="43.593921" lon="-8.164499">
        <ele>16.018</ele>
        <time>2016-09-26T12:26:59Z</time>
      </trkpt>
      <trkpt lat="43.593900" lon="-8.164548">
        <ele>16.070</ele>
        <time>2016-09-26T12:27:00Z</time>
      </trkpt>
      <trkpt lat="43.593877" lon="-8.164594">
        <ele>16.083</ele>
        <time>2016-09-26T12:27:01Z</time>
      </trkpt>
      <trkpt lat="43.593854" lon="-8.164640">
        <ele>15.911</ele>
        <time>2016-09-26T12:27:02Z</time>
      </trkpt>
      <trkpt lat="43.593831" lon="-8.164683">
        <ele>15.976</ele>
        <time>2016-09-26T12:27:03Z</time>
      </trkpt>
      <trkpt lat="43.593811" lon="-8.164727">
        <ele>15.890</ele>
        <time>2016-09-26T12:27:04Z</time>
      </trkpt>
      <trkpt lat="43.593790" lon="-8.164771">
        <ele>15.919</ele>
        <time>2016-09-26T12:27:05Z</time>
      </trkpt>
      <trkpt lat="43.593768" lon="-8.164815">
        <ele>16.008</ele>
        <time>2016-09-26T12:27:06Z</time>
      </trkpt>
      <trkpt lat="43.593745" lon="-8.164859">
        <ele>16.188</ele>
        <time>2016-09-26T12:27:07Z</time>
      </trkpt>
      <trkpt lat="43.593721" lon="-8.164903">
        <ele>16.393</ele>
        <time>2016-09-26T12:27:08Z</time>
      </trkpt>
      <trkpt lat="43.593698" lon="-8.164951">
        <ele>16.451</ele>
        <time>2016-09-26T12:27:09Z</time>
      </trkpt>
      <trkpt lat="43.593677" lon="-8.165003">
        <ele>16.527</ele>
        <time>2016-09-26T12:27:10Z</time>
      </trkpt>
      <trkpt lat="43.593656" lon="-8.165056">
        <ele>16.751</ele>
        <time>2016-09-26T12:27:11Z</time>
      </trkpt>
      <trkpt lat="43.593634" lon="-8.165108">
        <ele>16.983</ele>
        <time>2016-09-26T12:27:12Z</time>
      </trkpt>
      <trkpt lat="43.593613" lon="-8.165157">
        <ele>17.066</ele>
        <time>2016-09-26T12:27:13Z</time>
      </trkpt>
      <trkpt lat="43.593591" lon="-8.165208">
        <ele>17.174</ele>
        <time>2016-09-26T12:27:14Z</time>
      </trkpt>
      <trkpt lat="43.593570" lon="-8.165257">
        <ele>17.399</ele>
        <time>2016-09-26T12:27:15Z</time>
      </trkpt>
      <trkpt lat="43.593548" lon="-8.165305">
        <ele>17.307</ele>
        <time>2016-09-26T12:27:16Z</time>
      </trkpt>
      <trkpt lat="43.593527" lon="-8.165354">
        <ele>17.327</ele>
        <time>2016-09-26T12:27:17Z</time>
      </trkpt>
      <trkpt lat="43.593504" lon="-8.165402">
        <ele>17.308</ele>
        <time>2016-09-26T12:27:18Z</time>
      </trkpt>
      <trkpt lat="43.593482" lon="-8.165450">
        <ele>17.410</ele>
        <time>2016-09-26T12:27:19Z</time>
      </trkpt>
      <trkpt lat="43.593460" lon="-8.165499">
        <ele>17.415</ele>
        <time>2016-09-26T12:27:20Z</time>
      </trkpt>
      <trkpt lat="43.593439" lon="-8.165548">
        <ele>17.473</ele>
        <time>2016-09-26T12:27:21Z</time>
      </trkpt>
      <trkpt lat="43.593418" lon="-8.165596">
        <ele>17.439</ele>
        <time>2016-09-26T12:27:22Z</time>
      </trkpt>
      <trkpt lat="43.593396" lon="-8.165643">
        <ele>17.393</ele>
        <time>2016-09-26T12:27:23Z</time>
      </trkpt>
      <trkpt lat="43.593373" lon="-8.165689">
        <ele>17.325</ele>
        <time>2016-09-26T12:27:24Z</time>
      </trkpt>
      <trkpt lat="43.593350" lon="-8.165735">
        <ele>17.448</ele>
        <time>2016-09-26T12:27:25Z</time>
      </trkpt>
      <trkpt lat="43.593330" lon="-8.165783">
        <ele>17.426</ele>
        <time>2016-09-26T12:27:26Z</time>
      </trkpt>
      <trkpt lat="43.593316" lon="-8.165833">
        <ele>17.365</ele>
        <time>2016-09-26T12:27:27Z</time>
      </trkpt>
      <trkpt lat="43.593309" lon="-8.165882">
        <ele>17.368</ele>
        <time>2016-09-26T12:27:28Z</time>
      </trkpt>
      <trkpt lat="43.593312" lon="-8.165935">
        <ele>17.314</ele>
        <time>2016-09-26T12:27:29Z</time>
      </trkpt>
      <trkpt lat="43.593320" lon="-8.165988">
        <ele>17.308</ele>
        <time>2016-09-26T12:27:30Z</time>
      </trkpt>
      <trkpt lat="43.593343" lon="-8.166036">
        <ele>17.387</ele>
        <time>2016-09-26T12:27:31Z</time>
      </trkpt>
      <trkpt lat="43.593381" lon="-8.166081">
        <ele>17.222</ele>
        <time>2016-09-26T12:27:32Z</time>
      </trkpt>
      <trkpt lat="43.593426" lon="-8.166121">
        <ele>17.080</ele>
        <time>2016-09-26T12:27:33Z</time>
      </trkpt>
      <trkpt lat="43.593481" lon="-8.166153">
        <ele>16.666</ele>
        <time>2016-09-26T12:27:34Z</time>
      </trkpt>
      <trkpt lat="43.593542" lon="-8.166182">
        <ele>16.540</ele>
        <time>2016-09-26T12:27:35Z</time>
      </trkpt>
      <trkpt lat="43.593607" lon="-8.166211">
        <ele>16.482</ele>
        <time>2016-09-26T12:27:36Z</time>
      </trkpt>
      <trkpt lat="43.593673" lon="-8.166241">
        <ele>16.035</ele>
        <time>2016-09-26T12:27:37Z</time>
      </trkpt>
      <trkpt lat="43.593739" lon="-8.166270">
        <ele>15.963</ele>
        <time>2016-09-26T12:27:38Z</time>
      </trkpt>
      <trkpt lat="43.593808" lon="-8.166299">
        <ele>15.713</ele>
        <time>2016-09-26T12:27:39Z</time>
      </trkpt>
      <trkpt lat="43.593876" lon="-8.166328">
        <ele>15.643</ele>
        <time>2016-09-26T12:27:40Z</time>
      </trkpt>
      <trkpt lat="43.593942" lon="-8.166356">
        <ele>15.507</ele>
        <time>2016-09-26T12:27:41Z</time>
      </trkpt>
      <trkpt lat="43.594005" lon="-8.166385">
        <ele>15.208</ele>
        <time>2016-09-26T12:27:42Z</time>
      </trkpt>
      <trkpt lat="43.594066" lon="-8.166409">
        <ele>15.132</ele>
        <time>2016-09-26T12:27:43Z</time>
      </trkpt>
      <trkpt lat="43.594127" lon="-8.166431">
        <ele>15.027</ele>
        <time>2016-09-26T12:27:44Z</time>
      </trkpt>
      <trkpt lat="43.594187" lon="-8.166451">
        <ele>15.085</ele>
        <time>2016-09-26T12:27:45Z</time>
      </trkpt>
      <trkpt lat="43.594245" lon="-8.166473">
        <ele>14.991</ele>
        <time>2016-09-26T12:27:46Z</time>
      </trkpt>
      <trkpt lat="43.594305" lon="-8.166493">
        <ele>15.095</ele>
        <time>2016-09-26T12:27:47Z</time>
      </trkpt>
      <trkpt lat="43.594365" lon="-8.166515">
        <ele>14.917</ele>
        <time>2016-09-26T12:27:48Z</time>
      </trkpt>
      <trkpt lat="43.594423" lon="-8.166539">
        <ele>14.820</ele>
        <time>2016-09-26T12:27:49Z</time>
      </trkpt>
      <trkpt lat="43.594481" lon="-8.166563">
        <ele>14.948</ele>
        <time>2016-09-26T12:27:50Z</time>
      </trkpt>
      <trkpt lat="43.594539" lon="-8.166587">
        <ele>14.982</ele>
        <time>2016-09-26T12:27:51Z</time>
      </trkpt>
      <trkpt lat="43.594597" lon="-8.166611">
        <ele>14.943</ele>
        <time>2016-09-26T12:27:52Z</time>
      </trkpt>
      <trkpt lat="43.594655" lon="-8.166635">
        <ele>14.917</ele>
        <time>2016-09-26T12:27:53Z</time>
      </trkpt>
      <trkpt lat="43.594711" lon="-8.166659">
        <ele>14.908</ele>
        <time>2016-09-26T12:27:54Z</time>
      </trkpt>
      <trkpt lat="43.594767" lon="-8.166683">
        <ele>14.939</ele>
        <time>2016-09-26T12:27:55Z</time>
      </trkpt>
      <trkpt lat="43.594822" lon="-8.166710">
        <ele>14.934</ele>
        <time>2016-09-26T12:27:56Z</time>
      </trkpt>
      <trkpt lat="43.594874" lon="-8.166742">
        <ele>15.072</ele>
        <time>2016-09-26T12:27:57Z</time>
      </trkpt>
      <trkpt lat="43.594925" lon="-8.166775">
        <ele>14.948</ele>
        <time>2016-09-26T12:27:58Z</time>
      </trkpt>
      <trkpt lat="43.594977" lon="-8.166808">
        <ele>14.992</ele>
        <time>2016-09-26T12:27:59Z</time>
      </trkpt>
      <trkpt lat="43.595026" lon="-8.166844">
        <ele>14.944</ele>
        <time>2016-09-26T12:28:00Z</time>
      </trkpt>
      <trkpt lat="43.595074" lon="-8.166880">
        <ele>14.787</ele>
        <time>2016-09-26T12:28:01Z</time>
      </trkpt>
      <trkpt lat="43.595124" lon="-8.166918">
        <ele>14.635</ele>
        <time>2016-09-26T12:28:02Z</time>
      </trkpt>
      <trkpt lat="43.595174" lon="-8.166954">
        <ele>14.842</ele>
        <time>2016-09-26T12:28:03Z</time>
      </trkpt>
      <trkpt lat="43.595226" lon="-8.166991">
        <ele>14.722</ele>
        <time>2016-09-26T12:28:04Z</time>
      </trkpt>
      <trkpt lat="43.595277" lon="-8.167028">
        <ele>14.814</ele>
        <time>2016-09-26T12:28:05Z</time>
      </trkpt>
      <trkpt lat="43.595328" lon="-8.167065">
        <ele>15.008</ele>
        <time>2016-09-26T12:28:06Z</time>
      </trkpt>
      <trkpt lat="43.595378" lon="-8.167102">
        <ele>15.115</ele>
        <time>2016-09-26T12:28:07Z</time>
      </trkpt>
      <trkpt lat="43.595428" lon="-8.167142">
        <ele>15.020</ele>
        <time>2016-09-26T12:28:08Z</time>
      </trkpt>
      <trkpt lat="43.595477" lon="-8.167182">
        <ele>14.948</ele>
        <time>2016-09-26T12:28:09Z</time>
      </trkpt>
      <trkpt lat="43.595526" lon="-8.167221">
        <ele>15.094</ele>
        <time>2016-09-26T12:28:10Z</time>
      </trkpt>
      <trkpt lat="43.595575" lon="-8.167257">
        <ele>15.038</ele>
        <time>2016-09-26T12:28:11Z</time>
      </trkpt>
      <trkpt lat="43.595625" lon="-8.167293">
        <ele>15.170</ele>
        <time>2016-09-26T12:28:12Z</time>
      </trkpt>
      <trkpt lat="43.595674" lon="-8.167330">
        <ele>15.183</ele>
        <time>2016-09-26T12:28:13Z</time>
      </trkpt>
      <trkpt lat="43.595724" lon="-8.167366">
        <ele>15.141</ele>
        <time>2016-09-26T12:28:14Z</time>
      </trkpt>
      <trkpt lat="43.595772" lon="-8.167403">
        <ele>15.058</ele>
        <time>2016-09-26T12:28:15Z</time>
      </trkpt>
      <trkpt lat="43.595821" lon="-8.167440">
        <ele>15.152</ele>
        <time>2016-09-26T12:28:16Z</time>
      </trkpt>
      <trkpt lat="43.595868" lon="-8.167475">
        <ele>15.117</ele>
        <time>2016-09-26T12:28:17Z</time>
      </trkpt>
      <trkpt lat="43.595916" lon="-8.167506">
        <ele>15.208</ele>
        <time>2016-09-26T12:28:18Z</time>
      </trkpt>
      <trkpt lat="43.595962" lon="-8.167539">
        <ele>15.336</ele>
        <time>2016-09-26T12:28:19Z</time>
      </trkpt>
      <trkpt lat="43.596008" lon="-8.167568">
        <ele>15.471</ele>
        <time>2016-09-26T12:28:20Z</time>
      </trkpt>
      <trkpt lat="43.596056" lon="-8.167592">
        <ele>15.459</ele>
        <time>2016-09-26T12:28:21Z</time>
      </trkpt>
      <trkpt lat="43.596107" lon="-8.167611">
        <ele>15.475</ele>
        <time>2016-09-26T12:28:22Z</time>
      </trkpt>
      <trkpt lat="43.596158" lon="-8.167628">
        <ele>15.429</ele>
        <time>2016-09-26T12:28:23Z</time>
      </trkpt>
      <trkpt lat="43.596209" lon="-8.167646">
        <ele>15.461</ele>
        <time>2016-09-26T12:28:24Z</time>
      </trkpt>
      <trkpt lat="43.596260" lon="-8.167663">
        <ele>15.564</ele>
        <time>2016-09-26T12:28:25Z</time>
      </trkpt>
      <trkpt lat="43.596308" lon="-8.167680">
        <ele>15.512</ele>
        <time>2016-09-26T12:28:26Z</time>
      </trkpt>
      <trkpt lat="43.596357" lon="-8.167696">
        <ele>15.566</ele>
        <time>2016-09-26T12:28:27Z</time>
      </trkpt>
      <trkpt lat="43.596405" lon="-8.167711">
        <ele>15.729</ele>
        <time>2016-09-26T12:28:28Z</time>
      </trkpt>
      <trkpt lat="43.596452" lon="-8.167727">
        <ele>15.821</ele>
        <time>2016-09-26T12:28:29Z</time>
      </trkpt>
      <trkpt lat="43.596499" lon="-8.167743">
        <ele>15.908</ele>
        <time>2016-09-26T12:28:30Z</time>
      </trkpt>
      <trkpt lat="43.596548" lon="-8.167760">
        <ele>15.957</ele>
        <time>2016-09-26T12:28:31Z</time>
      </trkpt>
      <trkpt lat="43.596596" lon="-8.167776">
        <ele>16.232</ele>
        <time>2016-09-26T12:28:32Z</time>
      </trkpt>
      <trkpt lat="43.596641" lon="-8.167792">
        <ele>16.340</ele>
        <time>2016-09-26T12:28:33Z</time>
      </trkpt>
      <trkpt lat="43.596686" lon="-8.167808">
        <ele>16.566</ele>
        <time>2016-09-26T12:28:34Z</time>
      </trkpt>
      <trkpt lat="43.596730" lon="-8.167822">
        <ele>16.570</ele>
        <time>2016-09-26T12:28:35Z</time>
      </trkpt>
      <trkpt lat="43.596773" lon="-8.167836">
        <ele>16.872</ele>
        <time>2016-09-26T12:28:36Z</time>
      </trkpt>
      <trkpt lat="43.596812" lon="-8.167853">
        <ele>16.935</ele>
        <time>2016-09-26T12:28:37Z</time>
      </trkpt>
      <trkpt lat="43.596851" lon="-8.167868">
        <ele>17.013</ele>
        <time>2016-09-26T12:28:38Z</time>
      </trkpt>
      <trkpt lat="43.596889" lon="-8.167880">
        <ele>17.088</ele>
        <time>2016-09-26T12:28:39Z</time>
      </trkpt>
      <trkpt lat="43.596923" lon="-8.167892">
        <ele>17.424</ele>
        <time>2016-09-26T12:28:40Z</time>
      </trkpt>
      <trkpt lat="43.596957" lon="-8.167906">
        <ele>17.526</ele>
        <time>2016-09-26T12:28:41Z</time>
      </trkpt>
      <trkpt lat="43.596990" lon="-8.167920">
        <ele>17.708</ele>
        <time>2016-09-26T12:28:42Z</time>
      </trkpt>
      <trkpt lat="43.597025" lon="-8.167932">
        <ele>17.869</ele>
        <time>2016-09-26T12:28:43Z</time>
      </trkpt>
      <trkpt lat="43.597060" lon="-8.167944">
        <ele>18.014</ele>
        <time>2016-09-26T12:28:44Z</time>
      </trkpt>
      <trkpt lat="43.597096" lon="-8.167955">
        <ele>18.372</ele>
        <time>2016-09-26T12:28:45Z</time>
      </trkpt>
      <trkpt lat="43.597131" lon="-8.167966">
        <ele>18.558</ele>
        <time>2016-09-26T12:28:46Z</time>
      </trkpt>
      <trkpt lat="43.597165" lon="-8.167979">
        <ele>18.722</ele>
        <time>2016-09-26T12:28:47Z</time>
      </trkpt>
      <trkpt lat="43.597199" lon="-8.167993">
        <ele>19.094</ele>
        <time>2016-09-26T12:28:48Z</time>
      </trkpt>
      <trkpt lat="43.597234" lon="-8.168006">
        <ele>19.367</ele>
        <time>2016-09-26T12:28:49Z</time>
      </trkpt>
      <trkpt lat="43.597268" lon="-8.168018">
        <ele>19.795</ele>
        <time>2016-09-26T12:28:50Z</time>
      </trkpt>
      <trkpt lat="43.597301" lon="-8.168028">
        <ele>19.921</ele>
        <time>2016-09-26T12:28:51Z</time>
      </trkpt>
      <trkpt lat="43.597334" lon="-8.168038">
        <ele>20.141</ele>
        <time>2016-09-26T12:28:52Z</time>
      </trkpt>
      <trkpt lat="43.597366" lon="-8.168048">
        <ele>20.205</ele>
        <time>2016-09-26T12:28:53Z</time>
      </trkpt>
      <trkpt lat="43.597396" lon="-8.168059">
        <ele>20.408</ele>
        <time>2016-09-26T12:28:54Z</time>
      </trkpt>
      <trkpt lat="43.597427" lon="-8.168071">
        <ele>20.533</ele>
        <time>2016-09-26T12:28:55Z</time>
      </trkpt>
      <trkpt lat="43.597458" lon="-8.168082">
        <ele>20.788</ele>
        <time>2016-09-26T12:28:56Z</time>
      </trkpt>
      <trkpt lat="43.597488" lon="-8.168094">
        <ele>21.016</ele>
        <time>2016-09-26T12:28:57Z</time>
      </trkpt>
      <trkpt lat="43.597520" lon="-8.168106">
        <ele>21.152</ele>
        <time>2016-09-26T12:28:58Z</time>
      </trkpt>
      <trkpt lat="43.597551" lon="-8.168117">
        <ele>21.336</ele>
        <time>2016-09-26T12:28:59Z</time>
      </trkpt>
      <trkpt lat="43.597583" lon="-8.168128">
        <ele>21.418</ele>
        <time>2016-09-26T12:29:00Z</time>
      </trkpt>
      <trkpt lat="43.597616" lon="-8.168138">
        <ele>21.531</ele>
        <time>2016-09-26T12:29:01Z</time>
      </trkpt>
      <trkpt lat="43.597649" lon="-8.168149">
        <ele>21.719</ele>
        <time>2016-09-26T12:29:02Z</time>
      </trkpt>
      <trkpt lat="43.597680" lon="-8.168163">
        <ele>21.911</ele>
        <time>2016-09-26T12:29:03Z</time>
      </trkpt>
      <trkpt lat="43.597711" lon="-8.168176">
        <ele>22.321</ele>
        <time>2016-09-26T12:29:04Z</time>
      </trkpt>
      <trkpt lat="43.597740" lon="-8.168189">
        <ele>22.403</ele>
        <time>2016-09-26T12:29:05Z</time>
      </trkpt>
      <trkpt lat="43.597767" lon="-8.168203">
        <ele>22.508</ele>
        <time>2016-09-26T12:29:06Z</time>
      </trkpt>
      <trkpt lat="43.597798" lon="-8.168214">
        <ele>22.762</ele>
        <time>2016-09-26T12:29:07Z</time>
      </trkpt>
      <trkpt lat="43.597826" lon="-8.168227">
        <ele>22.887</ele>
        <time>2016-09-26T12:29:08Z</time>
      </trkpt>
      <trkpt lat="43.597857" lon="-8.168240">
        <ele>22.945</ele>
        <time>2016-09-26T12:29:09Z</time>
      </trkpt>
      <trkpt lat="43.597889" lon="-8.168252">
        <ele>23.481</ele>
        <time>2016-09-26T12:29:10Z</time>
      </trkpt>
      <trkpt lat="43.597917" lon="-8.168266">
        <ele>23.585</ele>
        <time>2016-09-26T12:29:11Z</time>
      </trkpt>
      <trkpt lat="43.597947" lon="-8.168277">
        <ele>23.677</ele>
        <time>2016-09-26T12:29:12Z</time>
      </trkpt>
      <trkpt lat="43.597979" lon="-8.168288">
        <ele>23.720</ele>
        <time>2016-09-26T12:29:13Z</time>
      </trkpt>
      <trkpt lat="43.598012" lon="-8.168300">
        <ele>23.958</ele>
        <time>2016-09-26T12:29:14Z</time>
      </trkpt>
      <trkpt lat="43.598042" lon="-8.168313">
        <ele>24.039</ele>
        <time>2016-09-26T12:29:15Z</time>
      </trkpt>
      <trkpt lat="43.598073" lon="-8.168328">
        <ele>24.301</ele>
        <time>2016-09-26T12:29:16Z</time>
      </trkpt>
      <trkpt lat="43.598102" lon="-8.168343">
        <ele>24.621</ele>
        <time>2016-09-26T12:29:17Z</time>
      </trkpt>
      <trkpt lat="43.598132" lon="-8.168356">
        <ele>24.808</ele>
        <time>2016-09-26T12:29:18Z</time>
      </trkpt>
      <trkpt lat="43.598163" lon="-8.168368">
        <ele>24.724</ele>
        <time>2016-09-26T12:29:19Z</time>
      </trkpt>
      <trkpt lat="43.598194" lon="-8.168380">
        <ele>24.779</ele>
        <time>2016-09-26T12:29:20Z</time>
      </trkpt>
      <trkpt lat="43.598227" lon="-8.168392">
        <ele>25.027</ele>
        <time>2016-09-26T12:29:21Z</time>
      </trkpt>
      <trkpt lat="43.598262" lon="-8.168403">
        <ele>25.223</ele>
        <time>2016-09-26T12:29:22Z</time>
      </trkpt>
      <trkpt lat="43.598295" lon="-8.168416">
        <ele>25.547</ele>
        <time>2016-09-26T12:29:23Z</time>
      </trkpt>
      <trkpt lat="43.598327" lon="-8.168432">
        <ele>25.759</ele>
        <time>2016-09-26T12:29:24Z</time>
      </trkpt>
      <trkpt lat="43.598359" lon="-8.168449">
        <ele>25.912</ele>
        <time>2016-09-26T12:29:25Z</time>
      </trkpt>
      <trkpt lat="43.598393" lon="-8.168465">
        <ele>26.120</ele>
        <time>2016-09-26T12:29:26Z</time>
      </trkpt>
      <trkpt lat="43.598426" lon="-8.168483">
        <ele>26.337</ele>
        <time>2016-09-26T12:29:27Z</time>
      </trkpt>
      <trkpt lat="43.598459" lon="-8.168500">
        <ele>26.549</ele>
        <time>2016-09-26T12:29:28Z</time>
      </trkpt>
      <trkpt lat="43.598494" lon="-8.168515">
        <ele>26.513</ele>
        <time>2016-09-26T12:29:29Z</time>
      </trkpt>
      <trkpt lat="43.598531" lon="-8.168529">
        <ele>26.708</ele>
        <time>2016-09-26T12:29:30Z</time>
      </trkpt>
      <trkpt lat="43.598567" lon="-8.168546">
        <ele>26.764</ele>
        <time>2016-09-26T12:29:31Z</time>
      </trkpt>
      <trkpt lat="43.598602" lon="-8.168565">
        <ele>26.739</ele>
        <time>2016-09-26T12:29:32Z</time>
      </trkpt>
      <trkpt lat="43.598636" lon="-8.168583">
        <ele>26.977</ele>
        <time>2016-09-26T12:29:33Z</time>
      </trkpt>
      <trkpt lat="43.598673" lon="-8.168599">
        <ele>26.983</ele>
        <time>2016-09-26T12:29:34Z</time>
      </trkpt>
      <trkpt lat="43.598707" lon="-8.168616">
        <ele>27.167</ele>
        <time>2016-09-26T12:29:35Z</time>
      </trkpt>
      <trkpt lat="43.598742" lon="-8.168634">
        <ele>27.179</ele>
        <time>2016-09-26T12:29:36Z</time>
      </trkpt>
      <trkpt lat="43.598776" lon="-8.168651">
        <ele>27.152</ele>
        <time>2016-09-26T12:29:37Z</time>
      </trkpt>
      <trkpt lat="43.598809" lon="-8.168668">
        <ele>27.130</ele>
        <time>2016-09-26T12:29:38Z</time>
      </trkpt>
      <trkpt lat="43.598843" lon="-8.168683">
        <ele>27.346</ele>
        <time>2016-09-26T12:29:39Z</time>
      </trkpt>
      <trkpt lat="43.598880" lon="-8.168698">
        <ele>27.288</ele>
        <time>2016-09-26T12:29:40Z</time>
      </trkpt>
      <trkpt lat="43.598915" lon="-8.168715">
        <ele>27.416</ele>
        <time>2016-09-26T12:29:41Z</time>
      </trkpt>
      <trkpt lat="43.598947" lon="-8.168734">
        <ele>27.508</ele>
        <time>2016-09-26T12:29:42Z</time>
      </trkpt>
      <trkpt lat="43.598979" lon="-8.168752">
        <ele>27.645</ele>
        <time>2016-09-26T12:29:43Z</time>
      </trkpt>
      <trkpt lat="43.599008" lon="-8.168776">
        <ele>27.790</ele>
        <time>2016-09-26T12:29:44Z</time>
      </trkpt>
      <trkpt lat="43.599028" lon="-8.168814">
        <ele>27.898</ele>
        <time>2016-09-26T12:29:45Z</time>
      </trkpt>
      <trkpt lat="43.599038" lon="-8.168858">
        <ele>27.834</ele>
        <time>2016-09-26T12:29:46Z</time>
      </trkpt>
      <trkpt lat="43.599043" lon="-8.168905">
        <ele>27.978</ele>
        <time>2016-09-26T12:29:47Z</time>
      </trkpt>
      <trkpt lat="43.599042" lon="-8.168955">
        <ele>27.920</ele>
        <time>2016-09-26T12:29:48Z</time>
      </trkpt>
      <trkpt lat="43.599039" lon="-8.169004">
        <ele>28.163</ele>
        <time>2016-09-26T12:29:49Z</time>
      </trkpt>
      <trkpt lat="43.599038" lon="-8.169050">
        <ele>28.191</ele>
        <time>2016-09-26T12:29:50Z</time>
      </trkpt>
      <trkpt lat="43.599036" lon="-8.169093">
        <ele>28.387</ele>
        <time>2016-09-26T12:29:51Z</time>
      </trkpt>
      <trkpt lat="43.599032" lon="-8.169135">
        <ele>28.342</ele>
        <time>2016-09-26T12:29:52Z</time>
      </trkpt>
      <trkpt lat="43.599028" lon="-8.169178">
        <ele>28.426</ele>
        <time>2016-09-26T12:29:53Z</time>
      </trkpt>
      <trkpt lat="43.599025" lon="-8.169220">
        <ele>28.708</ele>
        <time>2016-09-26T12:29:54Z</time>
      </trkpt>
      <trkpt lat="43.599024" lon="-8.169262">
        <ele>28.979</ele>
        <time>2016-09-26T12:29:55Z</time>
      </trkpt>
      <trkpt lat="43.599021" lon="-8.169304">
        <ele>28.964</ele>
        <time>2016-09-26T12:29:56Z</time>
      </trkpt>
      <trkpt lat="43.599018" lon="-8.169345">
        <ele>29.062</ele>
        <time>2016-09-26T12:29:57Z</time>
      </trkpt>
      <trkpt lat="43.599016" lon="-8.169388">
        <ele>29.148</ele>
        <time>2016-09-26T12:29:58Z</time>
      </trkpt>
      <trkpt lat="43.599015" lon="-8.169430">
        <ele>29.252</ele>
        <time>2016-09-26T12:29:59Z</time>
      </trkpt>
      <trkpt lat="43.599013" lon="-8.169471">
        <ele>29.354</ele>
        <time>2016-09-26T12:30:00Z</time>
      </trkpt>
      <trkpt lat="43.599011" lon="-8.169511">
        <ele>29.587</ele>
        <time>2016-09-26T12:30:01Z</time>
      </trkpt>
      <trkpt lat="43.599008" lon="-8.169550">
        <ele>29.995</ele>
        <time>2016-09-26T12:30:02Z</time>
      </trkpt>
      <trkpt lat="43.599005" lon="-8.169590">
        <ele>30.129</ele>
        <time>2016-09-26T12:30:03Z</time>
      </trkpt>
      <trkpt lat="43.599003" lon="-8.169629">
        <ele>30.300</ele>
        <time>2016-09-26T12:30:04Z</time>
      </trkpt>
      <trkpt lat="43.599000" lon="-8.169666">
        <ele>30.620</ele>
        <time>2016-09-26T12:30:05Z</time>
      </trkpt>
      <trkpt lat="43.598999" lon="-8.169701">
        <ele>30.808</ele>
        <time>2016-09-26T12:30:06Z</time>
      </trkpt>
      <trkpt lat="43.598997" lon="-8.169736">
        <ele>31.393</ele>
        <time>2016-09-26T12:30:07Z</time>
      </trkpt>
      <trkpt lat="43.598995" lon="-8.169770">
        <ele>31.598</ele>
        <time>2016-09-26T12:30:08Z</time>
      </trkpt>
      <trkpt lat="43.598992" lon="-8.169802">
        <ele>31.966</ele>
        <time>2016-09-26T12:30:09Z</time>
      </trkpt>
      <trkpt lat="43.598988" lon="-8.169837">
        <ele>32.022</ele>
        <time>2016-09-26T12:30:10Z</time>
      </trkpt>
      <trkpt lat="43.598986" lon="-8.169871">
        <ele>32.356</ele>
        <time>2016-09-26T12:30:11Z</time>
      </trkpt>
      <trkpt lat="43.598985" lon="-8.169904">
        <ele>32.558</ele>
        <time>2016-09-26T12:30:12Z</time>
      </trkpt>
      <trkpt lat="43.598983" lon="-8.169937">
        <ele>32.871</ele>
        <time>2016-09-26T12:30:13Z</time>
      </trkpt>
      <trkpt lat="43.598981" lon="-8.169971">
        <ele>32.959</ele>
        <time>2016-09-26T12:30:14Z</time>
      </trkpt>
      <trkpt lat="43.598978" lon="-8.170007">
        <ele>33.031</ele>
        <time>2016-09-26T12:30:15Z</time>
      </trkpt>
      <trkpt lat="43.598975" lon="-8.170042">
        <ele>33.261</ele>
        <time>2016-09-26T12:30:16Z</time>
      </trkpt>
      <trkpt lat="43.598971" lon="-8.170077">
        <ele>33.307</ele>
        <time>2016-09-26T12:30:17Z</time>
      </trkpt>
      <trkpt lat="43.598967" lon="-8.170113">
        <ele>33.308</ele>
        <time>2016-09-26T12:30:18Z</time>
      </trkpt>
      <trkpt lat="43.598966" lon="-8.170150">
        <ele>33.414</ele>
        <time>2016-09-26T12:30:19Z</time>
      </trkpt>
      <trkpt lat="43.598965" lon="-8.170187">
        <ele>33.739</ele>
        <time>2016-09-26T12:30:20Z</time>
      </trkpt>
      <trkpt lat="43.598962" lon="-8.170225">
        <ele>33.787</ele>
        <time>2016-09-26T12:30:21Z</time>
      </trkpt>
      <trkpt lat="43.598960" lon="-8.170266">
        <ele>33.923</ele>
        <time>2016-09-26T12:30:22Z</time>
      </trkpt>
      <trkpt lat="43.598960" lon="-8.170309">
        <ele>33.917</ele>
        <time>2016-09-26T12:30:23Z</time>
      </trkpt>
      <trkpt lat="43.598962" lon="-8.170353">
        <ele>33.989</ele>
        <time>2016-09-26T12:30:24Z</time>
      </trkpt>
      <trkpt lat="43.598964" lon="-8.170400">
        <ele>34.052</ele>
        <time>2016-09-26T12:30:25Z</time>
      </trkpt>
      <trkpt lat="43.598967" lon="-8.170453">
        <ele>34.130</ele>
        <time>2016-09-26T12:30:26Z</time>
      </trkpt>
      <trkpt lat="43.598971" lon="-8.170507">
        <ele>34.224</ele>
        <time>2016-09-26T12:30:27Z</time>
      </trkpt>
      <trkpt lat="43.598976" lon="-8.170563">
        <ele>34.204</ele>
        <time>2016-09-26T12:30:28Z</time>
      </trkpt>
      <trkpt lat="43.598981" lon="-8.170619">
        <ele>34.214</ele>
        <time>2016-09-26T12:30:29Z</time>
      </trkpt>
      <trkpt lat="43.598987" lon="-8.170677">
        <ele>34.208</ele>
        <time>2016-09-26T12:30:30Z</time>
      </trkpt>
      <trkpt lat="43.598995" lon="-8.170737">
        <ele>34.453</ele>
        <time>2016-09-26T12:30:31Z</time>
      </trkpt>
      <trkpt lat="43.599004" lon="-8.170796">
        <ele>34.388</ele>
        <time>2016-09-26T12:30:32Z</time>
      </trkpt>
      <trkpt lat="43.599009" lon="-8.170857">
        <ele>34.336</ele>
        <time>2016-09-26T12:30:33Z</time>
      </trkpt>
      <trkpt lat="43.599012" lon="-8.170922">
        <ele>34.032</ele>
        <time>2016-09-26T12:30:34Z</time>
      </trkpt>
      <trkpt lat="43.599017" lon="-8.170988">
        <ele>34.096</ele>
        <time>2016-09-26T12:30:35Z</time>
      </trkpt>
      <trkpt lat="43.599024" lon="-8.171052">
        <ele>34.078</ele>
        <time>2016-09-26T12:30:36Z</time>
      </trkpt>
      <trkpt lat="43.599030" lon="-8.171112">
        <ele>34.041</ele>
        <time>2016-09-26T12:30:37Z</time>
      </trkpt>
      <trkpt lat="43.599037" lon="-8.171174">
        <ele>33.859</ele>
        <time>2016-09-26T12:30:38Z</time>
      </trkpt>
      <trkpt lat="43.599043" lon="-8.171237">
        <ele>33.985</ele>
        <time>2016-09-26T12:30:39Z</time>
      </trkpt>
      <trkpt lat="43.599049" lon="-8.171301">
        <ele>33.989</ele>
        <time>2016-09-26T12:30:40Z</time>
      </trkpt>
      <trkpt lat="43.599056" lon="-8.171366">
        <ele>33.917</ele>
        <time>2016-09-26T12:30:41Z</time>
      </trkpt>
      <trkpt lat="43.599062" lon="-8.171433">
        <ele>33.908</ele>
        <time>2016-09-26T12:30:42Z</time>
      </trkpt>
      <trkpt lat="43.599067" lon="-8.171500">
        <ele>33.929</ele>
        <time>2016-09-26T12:30:43Z</time>
      </trkpt>
      <trkpt lat="43.599073" lon="-8.171566">
        <ele>34.074</ele>
        <time>2016-09-26T12:30:44Z</time>
      </trkpt>
      <trkpt lat="43.599080" lon="-8.171630">
        <ele>33.982</ele>
        <time>2016-09-26T12:30:45Z</time>
      </trkpt>
      <trkpt lat="43.599088" lon="-8.171692">
        <ele>33.718</ele>
        <time>2016-09-26T12:30:46Z</time>
      </trkpt>
      <trkpt lat="43.599098" lon="-8.171754">
        <ele>33.532</ele>
        <time>2016-09-26T12:30:47Z</time>
      </trkpt>
      <trkpt lat="43.599106" lon="-8.171820">
        <ele>33.784</ele>
        <time>2016-09-26T12:30:48Z</time>
      </trkpt>
      <trkpt lat="43.599111" lon="-8.171886">
        <ele>33.757</ele>
        <time>2016-09-26T12:30:49Z</time>
      </trkpt>
      <trkpt lat="43.599118" lon="-8.171954">
        <ele>33.765</ele>
        <time>2016-09-26T12:30:50Z</time>
      </trkpt>
      <trkpt lat="43.599124" lon="-8.172020">
        <ele>33.648</ele>
        <time>2016-09-26T12:30:51Z</time>
      </trkpt>
      <trkpt lat="43.599130" lon="-8.172086">
        <ele>33.561</ele>
        <time>2016-09-26T12:30:52Z</time>
      </trkpt>
      <trkpt lat="43.599139" lon="-8.172152">
        <ele>33.717</ele>
        <time>2016-09-26T12:30:53Z</time>
      </trkpt>
      <trkpt lat="43.599147" lon="-8.172218">
        <ele>33.708</ele>
        <time>2016-09-26T12:30:54Z</time>
      </trkpt>
      <trkpt lat="43.599156" lon="-8.172283">
        <ele>33.875</ele>
        <time>2016-09-26T12:30:55Z</time>
      </trkpt>
      <trkpt lat="43.599166" lon="-8.172351">
        <ele>33.710</ele>
        <time>2016-09-26T12:30:56Z</time>
      </trkpt>
      <trkpt lat="43.599173" lon="-8.172423">
        <ele>33.948</ele>
        <time>2016-09-26T12:30:57Z</time>
      </trkpt>
      <trkpt lat="43.599181" lon="-8.172495">
        <ele>34.044</ele>
        <time>2016-09-26T12:30:58Z</time>
      </trkpt>
      <trkpt lat="43.599187" lon="-8.172565">
        <ele>34.048</ele>
        <time>2016-09-26T12:30:59Z</time>
      </trkpt>
      <trkpt lat="43.599192" lon="-8.172634">
        <ele>33.970</ele>
        <time>2016-09-26T12:31:00Z</time>
      </trkpt>
      <trkpt lat="43.599197" lon="-8.172699">
        <ele>33.913</ele>
        <time>2016-09-26T12:31:01Z</time>
      </trkpt>
      <trkpt lat="43.599203" lon="-8.172750">
        <ele>33.841</ele>
        <time>2016-09-26T12:31:02Z</time>
      </trkpt>
      <trkpt lat="43.599211" lon="-8.172787">
        <ele>33.638</ele>
        <time>2016-09-26T12:31:03Z</time>
      </trkpt>
      <trkpt lat="43.599227" lon="-8.172815">
        <ele>33.570</ele>
        <time>2016-09-26T12:31:04Z</time>
      </trkpt>
      <trkpt lat="43.599252" lon="-8.172833">
        <ele>33.417</ele>
        <time>2016-09-26T12:31:05Z</time>
      </trkpt>
      <trkpt lat="43.599285" lon="-8.172842">
        <ele>33.308</ele>
        <time>2016-09-26T12:31:06Z</time>
      </trkpt>
      <trkpt lat="43.599326" lon="-8.172840">
        <ele>33.194</ele>
        <time>2016-09-26T12:31:07Z</time>
      </trkpt>
      <trkpt lat="43.599370" lon="-8.172833">
        <ele>32.879</ele>
        <time>2016-09-26T12:31:08Z</time>
      </trkpt>
      <trkpt lat="43.599416" lon="-8.172825">
        <ele>32.817</ele>
        <time>2016-09-26T12:31:09Z</time>
      </trkpt>
      <trkpt lat="43.599464" lon="-8.172821">
        <ele>32.813</ele>
        <time>2016-09-26T12:31:10Z</time>
      </trkpt>
      <trkpt lat="43.599514" lon="-8.172819">
        <ele>32.797</ele>
        <time>2016-09-26T12:31:11Z</time>
      </trkpt>
      <trkpt lat="43.599565" lon="-8.172817">
        <ele>32.799</ele>
        <time>2016-09-26T12:31:12Z</time>
      </trkpt>
      <trkpt lat="43.599617" lon="-8.172815">
        <ele>32.582</ele>
        <time>2016-09-26T12:31:13Z</time>
      </trkpt>
      <trkpt lat="43.599668" lon="-8.172815">
        <ele>32.330</ele>
        <time>2016-09-26T12:31:14Z</time>
      </trkpt>
      <trkpt lat="43.599716" lon="-8.172823">
        <ele>32.319</ele>
        <time>2016-09-26T12:31:15Z</time>
      </trkpt>
      <trkpt lat="43.599757" lon="-8.172841">
        <ele>32.209</ele>
        <time>2016-09-26T12:31:16Z</time>
      </trkpt>
      <trkpt lat="43.599791" lon="-8.172875">
        <ele>32.419</ele>
        <time>2016-09-26T12:31:17Z</time>
      </trkpt>
      <trkpt lat="43.599816" lon="-8.172924">
        <ele>32.308</ele>
        <time>2016-09-26T12:31:18Z</time>
      </trkpt>
      <trkpt lat="43.599834" lon="-8.172985">
        <ele>32.132</ele>
        <time>2016-09-26T12:31:19Z</time>
      </trkpt>
      <trkpt lat="43.599851" lon="-8.173052">
        <ele>31.917</ele>
        <time>2016-09-26T12:31:20Z</time>
      </trkpt>
      <trkpt lat="43.599866" lon="-8.173127">
        <ele>31.635</ele>
        <time>2016-09-26T12:31:21Z</time>
      </trkpt>
      <trkpt lat="43.599888" lon="-8.173203">
        <ele>31.561</ele>
        <time>2016-09-26T12:31:22Z</time>
      </trkpt>
      <trkpt lat="43.599908" lon="-8.173283">
        <ele>31.455</ele>
        <time>2016-09-26T12:31:23Z</time>
      </trkpt>
      <trkpt lat="43.599929" lon="-8.173365">
        <ele>31.167</ele>
        <time>2016-09-26T12:31:24Z</time>
      </trkpt>
      <trkpt lat="43.599954" lon="-8.173448">
        <ele>30.770</ele>
        <time>2016-09-26T12:31:25Z</time>
      </trkpt>
      <trkpt lat="43.599980" lon="-8.173537">
        <ele>30.328</ele>
        <time>2016-09-26T12:31:26Z</time>
      </trkpt>
      <trkpt lat="43.600006" lon="-8.173633">
        <ele>29.954</ele>
        <time>2016-09-26T12:31:27Z</time>
      </trkpt>
      <trkpt lat="43.600034" lon="-8.173734">
        <ele>29.556</ele>
        <time>2016-09-26T12:31:28Z</time>
      </trkpt>
      <trkpt lat="43.600060" lon="-8.173839">
        <ele>29.411</ele>
        <time>2016-09-26T12:31:29Z</time>
      </trkpt>
      <trkpt lat="43.600084" lon="-8.173947">
        <ele>29.208</ele>
        <time>2016-09-26T12:31:30Z</time>
      </trkpt>
      <trkpt lat="43.600108" lon="-8.174058">
        <ele>28.976</ele>
        <time>2016-09-26T12:31:31Z</time>
      </trkpt>
      <trkpt lat="43.600127" lon="-8.174172">
        <ele>28.651</ele>
        <time>2016-09-26T12:31:32Z</time>
      </trkpt>
      <trkpt lat="43.600145" lon="-8.174287">
        <ele>28.449</ele>
        <time>2016-09-26T12:31:33Z</time>
      </trkpt>
      <trkpt lat="43.600163" lon="-8.174403">
        <ele>28.345</ele>
        <time>2016-09-26T12:31:34Z</time>
      </trkpt>
      <trkpt lat="43.600183" lon="-8.174521">
        <ele>27.959</ele>
        <time>2016-09-26T12:31:35Z</time>
      </trkpt>
      <trkpt lat="43.600202" lon="-8.174642">
        <ele>27.431</ele>
        <time>2016-09-26T12:31:36Z</time>
      </trkpt>
      <trkpt lat="43.600224" lon="-8.174764">
        <ele>27.174</ele>
        <time>2016-09-26T12:31:37Z</time>
      </trkpt>
      <trkpt lat="43.600247" lon="-8.174887">
        <ele>26.922</ele>
        <time>2016-09-26T12:31:38Z</time>
      </trkpt>
      <trkpt lat="43.600271" lon="-8.175012">
        <ele>26.343</ele>
        <time>2016-09-26T12:31:39Z</time>
      </trkpt>
      <trkpt lat="43.600295" lon="-8.175139">
        <ele>25.864</ele>
        <time>2016-09-26T12:31:40Z</time>
      </trkpt>
      <trkpt lat="43.600321" lon="-8.175267">
        <ele>25.210</ele>
        <time>2016-09-26T12:31:41Z</time>
      </trkpt>
      <trkpt lat="43.600348" lon="-8.175396">
        <ele>24.708</ele>
        <time>2016-09-26T12:31:42Z</time>
      </trkpt>
      <trkpt lat="43.600376" lon="-8.175525">
        <ele>24.135</ele>
        <time>2016-09-26T12:31:43Z</time>
      </trkpt>
      <trkpt lat="43.600404" lon="-8.175654">
        <ele>23.660</ele>
        <time>2016-09-26T12:31:44Z</time>
      </trkpt>
      <trkpt lat="43.600432" lon="-8.175783">
        <ele>23.468</ele>
        <time>2016-09-26T12:31:45Z</time>
      </trkpt>
      <trkpt lat="43.600462" lon="-8.175907">
        <ele>23.014</ele>
        <time>2016-09-26T12:31:46Z</time>
      </trkpt>
      <trkpt lat="43.600490" lon="-8.176026">
        <ele>22.438</ele>
        <time>2016-09-26T12:31:47Z</time>
      </trkpt>
      <trkpt lat="43.600515" lon="-8.176146">
        <ele>21.970</ele>
        <time>2016-09-26T12:31:48Z</time>
      </trkpt>
      <trkpt lat="43.600528" lon="-8.176267">
        <ele>21.473</ele>
        <time>2016-09-26T12:31:49Z</time>
      </trkpt>
      <trkpt lat="43.600532" lon="-8.176387">
        <ele>21.091</ele>
        <time>2016-09-26T12:31:50Z</time>
      </trkpt>
      <trkpt lat="43.600537" lon="-8.176508">
        <ele>20.475</ele>
        <time>2016-09-26T12:31:51Z</time>
      </trkpt>
      <trkpt lat="43.600549" lon="-8.176633">
        <ele>19.728</ele>
        <time>2016-09-26T12:31:52Z</time>
      </trkpt>
      <trkpt lat="43.600570" lon="-8.176767">
        <ele>19.120</ele>
        <time>2016-09-26T12:31:53Z</time>
      </trkpt>
      <trkpt lat="43.600599" lon="-8.176907">
        <ele>18.508</ele>
        <time>2016-09-26T12:31:54Z</time>
      </trkpt>
      <trkpt lat="43.600636" lon="-8.177054">
        <ele>17.798</ele>
        <time>2016-09-26T12:31:55Z</time>
      </trkpt>
      <trkpt lat="43.600673" lon="-8.177202">
        <ele>17.063</ele>
        <time>2016-09-26T12:31:56Z</time>
      </trkpt>
      <trkpt lat="43.600697" lon="-8.177356">
        <ele>16.121</ele>
        <time>2016-09-26T12:31:57Z</time>
      </trkpt>
      <trkpt lat="43.600714" lon="-8.177510">
        <ele>15.717</ele>
        <time>2016-09-26T12:31:58Z</time>
      </trkpt>
      <trkpt lat="43.600728" lon="-8.177659">
        <ele>15.441</ele>
        <time>2016-09-26T12:31:59Z</time>
      </trkpt>
      <trkpt lat="43.600730" lon="-8.177808">
        <ele>15.053</ele>
        <time>2016-09-26T12:32:00Z</time>
      </trkpt>
      <trkpt lat="43.600727" lon="-8.177950">
        <ele>14.526</ele>
        <time>2016-09-26T12:32:01Z</time>
      </trkpt>
      <trkpt lat="43.600722" lon="-8.178086">
        <ele>14.184</ele>
        <time>2016-09-26T12:32:02Z</time>
      </trkpt>
      <trkpt lat="43.600716" lon="-8.178214">
        <ele>13.833</ele>
        <time>2016-09-26T12:32:03Z</time>
      </trkpt>
      <trkpt lat="43.600714" lon="-8.178335">
        <ele>13.623</ele>
        <time>2016-09-26T12:32:04Z</time>
      </trkpt>
      <trkpt lat="43.600719" lon="-8.178449">
        <ele>13.415</ele>
        <time>2016-09-26T12:32:05Z</time>
      </trkpt>
      <trkpt lat="43.600730" lon="-8.178558">
        <ele>13.108</ele>
        <time>2016-09-26T12:32:06Z</time>
      </trkpt>
      <trkpt lat="43.600745" lon="-8.178659">
        <ele>12.814</ele>
        <time>2016-09-26T12:32:07Z</time>
      </trkpt>
      <trkpt lat="43.600756" lon="-8.178760">
        <ele>12.589</ele>
        <time>2016-09-26T12:32:08Z</time>
      </trkpt>
      <trkpt lat="43.600767" lon="-8.178857">
        <ele>12.427</ele>
        <time>2016-09-26T12:32:09Z</time>
      </trkpt>
      <trkpt lat="43.600778" lon="-8.178947">
        <ele>12.243</ele>
        <time>2016-09-26T12:32:10Z</time>
      </trkpt>
      <trkpt lat="43.600781" lon="-8.179044">
        <ele>11.927</ele>
        <time>2016-09-26T12:32:11Z</time>
      </trkpt>
      <trkpt lat="43.600785" lon="-8.179149">
        <ele>11.619</ele>
        <time>2016-09-26T12:32:12Z</time>
      </trkpt>
      <trkpt lat="43.600796" lon="-8.179246">
        <ele>11.352</ele>
        <time>2016-09-26T12:32:13Z</time>
      </trkpt>
      <trkpt lat="43.600815" lon="-8.179329">
        <ele>11.480</ele>
        <time>2016-09-26T12:32:14Z</time>
      </trkpt>
      <trkpt lat="43.600834" lon="-8.179409">
        <ele>11.289</ele>
        <time>2016-09-26T12:32:15Z</time>
      </trkpt>
      <trkpt lat="43.600850" lon="-8.179494">
        <ele>11.106</ele>
        <time>2016-09-26T12:32:16Z</time>
      </trkpt>
      <trkpt lat="43.600869" lon="-8.179578">
        <ele>11.026</ele>
        <time>2016-09-26T12:32:17Z</time>
      </trkpt>
      <trkpt lat="43.600886" lon="-8.179662">
        <ele>10.908</ele>
        <time>2016-09-26T12:32:18Z</time>
      </trkpt>
      <trkpt lat="43.600903" lon="-8.179741">
        <ele>11.139</ele>
        <time>2016-09-26T12:32:19Z</time>
      </trkpt>
      <trkpt lat="43.600917" lon="-8.179818">
        <ele>11.384</ele>
        <time>2016-09-26T12:32:20Z</time>
      </trkpt>
      <trkpt lat="43.600929" lon="-8.179892">
        <ele>11.692</ele>
        <time>2016-09-26T12:32:21Z</time>
      </trkpt>
      <trkpt lat="43.600940" lon="-8.179967">
        <ele>11.758</ele>
        <time>2016-09-26T12:32:22Z</time>
      </trkpt>
      <trkpt lat="43.600947" lon="-8.180042">
        <ele>11.852</ele>
        <time>2016-09-26T12:32:23Z</time>
      </trkpt>
      <trkpt lat="43.600950" lon="-8.180121">
        <ele>11.944</ele>
        <time>2016-09-26T12:32:24Z</time>
      </trkpt>
      <trkpt lat="43.600951" lon="-8.180195">
        <ele>12.177</ele>
        <time>2016-09-26T12:32:25Z</time>
      </trkpt>
      <trkpt lat="43.600949" lon="-8.180267">
        <ele>12.125</ele>
        <time>2016-09-26T12:32:26Z</time>
      </trkpt>
      <trkpt lat="43.600942" lon="-8.180346">
        <ele>12.029</ele>
        <time>2016-09-26T12:32:27Z</time>
      </trkpt>
      <trkpt lat="43.600933" lon="-8.180421">
        <ele>12.200</ele>
        <time>2016-09-26T12:32:28Z</time>
      </trkpt>
      <trkpt lat="43.600922" lon="-8.180492">
        <ele>12.420</ele>
        <time>2016-09-26T12:32:29Z</time>
      </trkpt>
      <trkpt lat="43.600905" lon="-8.180563">
        <ele>12.508</ele>
        <time>2016-09-26T12:32:30Z</time>
      </trkpt>
      <trkpt lat="43.600885" lon="-8.180636">
        <ele>12.713</ele>
        <time>2016-09-26T12:32:31Z</time>
      </trkpt>
      <trkpt lat="43.600858" lon="-8.180705">
        <ele>12.848</ele>
        <time>2016-09-26T12:32:32Z</time>
      </trkpt>
      <trkpt lat="43.600827" lon="-8.180770">
        <ele>12.866</ele>
        <time>2016-09-26T12:32:33Z</time>
      </trkpt>
      <trkpt lat="43.600796" lon="-8.180833">
        <ele>13.122</ele>
        <time>2016-09-26T12:32:34Z</time>
      </trkpt>
      <trkpt lat="43.600762" lon="-8.180896">
        <ele>13.146</ele>
        <time>2016-09-26T12:32:35Z</time>
      </trkpt>
      <trkpt lat="43.600727" lon="-8.180957">
        <ele>13.238</ele>
        <time>2016-09-26T12:32:36Z</time>
      </trkpt>
      <trkpt lat="43.600695" lon="-8.181014">
        <ele>13.581</ele>
        <time>2016-09-26T12:32:37Z</time>
      </trkpt>
      <trkpt lat="43.600660" lon="-8.181064">
        <ele>13.799</ele>
        <time>2016-09-26T12:32:38Z</time>
      </trkpt>
      <trkpt lat="43.600621" lon="-8.181109">
        <ele>13.779</ele>
        <time>2016-09-26T12:32:39Z</time>
      </trkpt>
      <trkpt lat="43.600585" lon="-8.181156">
        <ele>13.705</ele>
        <time>2016-09-26T12:32:40Z</time>
      </trkpt>
      <trkpt lat="43.600551" lon="-8.181204">
        <ele>13.725</ele>
        <time>2016-09-26T12:32:41Z</time>
      </trkpt>
      <trkpt lat="43.600517" lon="-8.181250">
        <ele>13.908</ele>
        <time>2016-09-26T12:32:42Z</time>
      </trkpt>
      <trkpt lat="43.600482" lon="-8.181296">
        <ele>13.958</ele>
        <time>2016-09-26T12:32:43Z</time>
      </trkpt>
      <trkpt lat="43.600447" lon="-8.181340">
        <ele>14.153</ele>
        <time>2016-09-26T12:32:44Z</time>
      </trkpt>
      <trkpt lat="43.600412" lon="-8.181380">
        <ele>14.261</ele>
        <time>2016-09-26T12:32:45Z</time>
      </trkpt>
      <trkpt lat="43.600376" lon="-8.181419">
        <ele>14.327</ele>
        <time>2016-09-26T12:32:46Z</time>
      </trkpt>
      <trkpt lat="43.600339" lon="-8.181452">
        <ele>14.481</ele>
        <time>2016-09-26T12:32:47Z</time>
      </trkpt>
      <trkpt lat="43.600300" lon="-8.181477">
        <ele>14.633</ele>
        <time>2016-09-26T12:32:48Z</time>
      </trkpt>
      <trkpt lat="43.600258" lon="-8.181496">
        <ele>14.766</ele>
        <time>2016-09-26T12:32:49Z</time>
      </trkpt>
      <trkpt lat="43.600217" lon="-8.181508">
        <ele>14.754</ele>
        <time>2016-09-26T12:32:50Z</time>
      </trkpt>
      <trkpt lat="43.600179" lon="-8.181518">
        <ele>14.831</ele>
        <time>2016-09-26T12:32:51Z</time>
      </trkpt>
      <trkpt lat="43.600136" lon="-8.181530">
        <ele>14.861</ele>
        <time>2016-09-26T12:32:52Z</time>
      </trkpt>
      <trkpt lat="43.600094" lon="-8.181546">
        <ele>15.007</ele>
        <time>2016-09-26T12:32:53Z</time>
      </trkpt>
      <trkpt lat="43.600054" lon="-8.181558">
        <ele>15.008</ele>
        <time>2016-09-26T12:32:54Z</time>
      </trkpt>
      <trkpt lat="43.600011" lon="-8.181562">
        <ele>15.334</ele>
        <time>2016-09-26T12:32:55Z</time>
      </trkpt>
      <trkpt lat="43.599964" lon="-8.181566">
        <ele>15.459</ele>
        <time>2016-09-26T12:32:56Z</time>
      </trkpt>
      <trkpt lat="43.599919" lon="-8.181574">
        <ele>15.447</ele>
        <time>2016-09-26T12:32:57Z</time>
      </trkpt>
      <trkpt lat="43.599872" lon="-8.181587">
        <ele>15.693</ele>
        <time>2016-09-26T12:32:58Z</time>
      </trkpt>
      <trkpt lat="43.599825" lon="-8.181601">
        <ele>15.737</ele>
        <time>2016-09-26T12:32:59Z</time>
      </trkpt>
      <trkpt lat="43.599777" lon="-8.181614">
        <ele>15.879</ele>
        <time>2016-09-26T12:33:00Z</time>
      </trkpt>
      <trkpt lat="43.599729" lon="-8.181624">
        <ele>15.982</ele>
        <time>2016-09-26T12:33:01Z</time>
      </trkpt>
      <trkpt lat="43.599681" lon="-8.181639">
        <ele>16.020</ele>
        <time>2016-09-26T12:33:02Z</time>
      </trkpt>
      <trkpt lat="43.599634" lon="-8.181654">
        <ele>16.033</ele>
        <time>2016-09-26T12:33:03Z</time>
      </trkpt>
      <trkpt lat="43.599589" lon="-8.181671">
        <ele>16.123</ele>
        <time>2016-09-26T12:33:04Z</time>
      </trkpt>
      <trkpt lat="43.599545" lon="-8.181691">
        <ele>16.115</ele>
        <time>2016-09-26T12:33:05Z</time>
      </trkpt>
      <trkpt lat="43.599502" lon="-8.181711">
        <ele>16.208</ele>
        <time>2016-09-26T12:33:06Z</time>
      </trkpt>
      <trkpt lat="43.599460" lon="-8.181732">
        <ele>16.494</ele>
        <time>2016-09-26T12:33:07Z</time>
      </trkpt>
      <trkpt lat="43.599420" lon="-8.181755">
        <ele>16.339</ele>
        <time>2016-09-26T12:33:08Z</time>
      </trkpt>
      <trkpt lat="43.599379" lon="-8.181781">
        <ele>16.387</ele>
        <time>2016-09-26T12:33:09Z</time>
      </trkpt>
      <trkpt lat="43.599339" lon="-8.181806">
        <ele>16.433</ele>
        <time>2016-09-26T12:33:10Z</time>
      </trkpt>
      <trkpt lat="43.599300" lon="-8.181831">
        <ele>16.417</ele>
        <time>2016-09-26T12:33:11Z</time>
      </trkpt>
      <trkpt lat="43.599263" lon="-8.181859">
        <ele>16.529</ele>
        <time>2016-09-26T12:33:12Z</time>
      </trkpt>
      <trkpt lat="43.599228" lon="-8.181887">
        <ele>16.582</ele>
        <time>2016-09-26T12:33:13Z</time>
      </trkpt>
      <trkpt lat="43.599197" lon="-8.181914">
        <ele>16.630</ele>
        <time>2016-09-26T12:33:14Z</time>
      </trkpt>
      <trkpt lat="43.599165" lon="-8.181942">
        <ele>16.912</ele>
        <time>2016-09-26T12:33:15Z</time>
      </trkpt>
      <trkpt lat="43.599133" lon="-8.181973">
        <ele>17.032</ele>
        <time>2016-09-26T12:33:16Z</time>
      </trkpt>
      <trkpt lat="43.599103" lon="-8.182006">
        <ele>17.205</ele>
        <time>2016-09-26T12:33:17Z</time>
      </trkpt>
      <trkpt lat="43.599075" lon="-8.182040">
        <ele>17.608</ele>
        <time>2016-09-26T12:33:18Z</time>
      </trkpt>
      <trkpt lat="43.599045" lon="-8.182073">
        <ele>17.982</ele>
        <time>2016-09-26T12:33:19Z</time>
      </trkpt>
      <trkpt lat="43.599019" lon="-8.182108">
        <ele>18.117</ele>
        <time>2016-09-26T12:33:20Z</time>
      </trkpt>
      <trkpt lat="43.598993" lon="-8.182143">
        <ele>18.295</ele>
        <time>2016-09-26T12:33:21Z</time>
      </trkpt>
      <trkpt lat="43.598963" lon="-8.182177">
        <ele>18.341</ele>
        <time>2016-09-26T12:33:22Z</time>
      </trkpt>
      <trkpt lat="43.598934" lon="-8.182212">
        <ele>18.485</ele>
        <time>2016-09-26T12:33:23Z</time>
      </trkpt>
      <trkpt lat="43.598906" lon="-8.182244">
        <ele>18.697</ele>
        <time>2016-09-26T12:33:24Z</time>
      </trkpt>
      <trkpt lat="43.598878" lon="-8.182276">
        <ele>18.710</ele>
        <time>2016-09-26T12:33:25Z</time>
      </trkpt>
      <trkpt lat="43.598852" lon="-8.182305">
        <ele>18.948</ele>
        <time>2016-09-26T12:33:26Z</time>
      </trkpt>
      <trkpt lat="43.598825" lon="-8.182330">
        <ele>19.271</ele>
        <time>2016-09-26T12:33:27Z</time>
      </trkpt>
      <trkpt lat="43.598799" lon="-8.182354">
        <ele>19.641</ele>
        <time>2016-09-26T12:33:28Z</time>
      </trkpt>
      <trkpt lat="43.598772" lon="-8.182377">
        <ele>19.715</ele>
        <time>2016-09-26T12:33:29Z</time>
      </trkpt>
      <trkpt lat="43.598745" lon="-8.182395">
        <ele>19.808</ele>
        <time>2016-09-26T12:33:30Z</time>
      </trkpt>
      <trkpt lat="43.598717" lon="-8.182410">
        <ele>20.038</ele>
        <time>2016-09-26T12:33:31Z</time>
      </trkpt>
      <trkpt lat="43.598693" lon="-8.182431">
        <ele>20.153</ele>
        <time>2016-09-26T12:33:32Z</time>
      </trkpt>
      <trkpt lat="43.598666" lon="-8.182451">
        <ele>20.241</ele>
        <time>2016-09-26T12:33:33Z</time>
      </trkpt>
      <trkpt lat="43.598636" lon="-8.182466">
        <ele>20.447</ele>
        <time>2016-09-26T12:33:34Z</time>
      </trkpt>
      <trkpt lat="43.598603" lon="-8.182478">
        <ele>20.451</ele>
        <time>2016-09-26T12:33:35Z</time>
      </trkpt>
      <trkpt lat="43.598568" lon="-8.182487">
        <ele>20.433</ele>
        <time>2016-09-26T12:33:36Z</time>
      </trkpt>
      <trkpt lat="43.598536" lon="-8.182491">
        <ele>20.416</ele>
        <time>2016-09-26T12:33:37Z</time>
      </trkpt>
      <trkpt lat="43.598502" lon="-8.182492">
        <ele>20.674</ele>
        <time>2016-09-26T12:33:38Z</time>
      </trkpt>
      <trkpt lat="43.598470" lon="-8.182490">
        <ele>20.557</ele>
        <time>2016-09-26T12:33:39Z</time>
      </trkpt>
      <trkpt lat="43.598438" lon="-8.182493">
        <ele>20.500</ele>
        <time>2016-09-26T12:33:40Z</time>
      </trkpt>
      <trkpt lat="43.598400" lon="-8.182501">
        <ele>20.620</ele>
        <time>2016-09-26T12:33:41Z</time>
      </trkpt>
      <trkpt lat="43.598362" lon="-8.182518">
        <ele>20.708</ele>
        <time>2016-09-26T12:33:42Z</time>
      </trkpt>
      <trkpt lat="43.598325" lon="-8.182546">
        <ele>20.536</ele>
        <time>2016-09-26T12:33:43Z</time>
      </trkpt>
      <trkpt lat="43.598288" lon="-8.182576">
        <ele>20.651</ele>
        <time>2016-09-26T12:33:44Z</time>
      </trkpt>
      <trkpt lat="43.598256" lon="-8.182612">
        <ele>20.559</ele>
        <time>2016-09-26T12:33:45Z</time>
      </trkpt>
      <trkpt lat="43.598228" lon="-8.182651">
        <ele>20.655</ele>
        <time>2016-09-26T12:33:46Z</time>
      </trkpt>
      <trkpt lat="43.598199" lon="-8.182689">
        <ele>20.839</ele>
        <time>2016-09-26T12:33:47Z</time>
      </trkpt>
      <trkpt lat="43.598167" lon="-8.182722">
        <ele>21.081</ele>
        <time>2016-09-26T12:33:48Z</time>
      </trkpt>
      <trkpt lat="43.598130" lon="-8.182751">
        <ele>21.254</ele>
        <time>2016-09-26T12:33:49Z</time>
      </trkpt>
      <trkpt lat="43.598096" lon="-8.182783">
        <ele>21.212</ele>
        <time>2016-09-26T12:33:50Z</time>
      </trkpt>
      <trkpt lat="43.598062" lon="-8.182817">
        <ele>21.365</ele>
        <time>2016-09-26T12:33:51Z</time>
      </trkpt>
      <trkpt lat="43.598027" lon="-8.182853">
        <ele>21.468</ele>
        <time>2016-09-26T12:33:52Z</time>
      </trkpt>
      <trkpt lat="43.597993" lon="-8.182888">
        <ele>21.614</ele>
        <time>2016-09-26T12:33:53Z</time>
      </trkpt>
      <trkpt lat="43.597958" lon="-8.182920">
        <ele>21.808</ele>
        <time>2016-09-26T12:33:54Z</time>
      </trkpt>
      <trkpt lat="43.597924" lon="-8.182953">
        <ele>22.097</ele>
        <time>2016-09-26T12:33:55Z</time>
      </trkpt>
      <trkpt lat="43.597890" lon="-8.182984">
        <ele>22.142</ele>
        <time>2016-09-26T12:33:56Z</time>
      </trkpt>
      <trkpt lat="43.597855" lon="-8.183014">
        <ele>22.130</ele>
        <time>2016-09-26T12:33:57Z</time>
      </trkpt>
      <trkpt lat="43.597820" lon="-8.183041">
        <ele>22.186</ele>
        <time>2016-09-26T12:33:58Z</time>
      </trkpt>
      <trkpt lat="43.597786" lon="-8.183070">
        <ele>22.060</ele>
        <time>2016-09-26T12:33:59Z</time>
      </trkpt>
      <trkpt lat="43.597753" lon="-8.183100">
        <ele>22.182</ele>
        <time>2016-09-26T12:34:00Z</time>
      </trkpt>
      <trkpt lat="43.597725" lon="-8.183131">
        <ele>22.245</ele>
        <time>2016-09-26T12:34:01Z</time>
      </trkpt>
      <trkpt lat="43.597697" lon="-8.183163">
        <ele>22.383</ele>
        <time>2016-09-26T12:34:02Z</time>
      </trkpt>
      <trkpt lat="43.597674" lon="-8.183200">
        <ele>22.562</ele>
        <time>2016-09-26T12:34:03Z</time>
      </trkpt>
      <trkpt lat="43.597653" lon="-8.183240">
        <ele>22.983</ele>
        <time>2016-09-26T12:34:04Z</time>
      </trkpt>
      <trkpt lat="43.597636" lon="-8.183284">
        <ele>22.911</ele>
        <time>2016-09-26T12:34:05Z</time>
      </trkpt>
      <trkpt lat="43.597618" lon="-8.183328">
        <ele>23.208</ele>
        <time>2016-09-26T12:34:06Z</time>
      </trkpt>
      <trkpt lat="43.597604" lon="-8.183374">
        <ele>23.237</ele>
        <time>2016-09-26T12:34:07Z</time>
      </trkpt>
      <trkpt lat="43.597591" lon="-8.183421">
        <ele>23.232</ele>
        <time>2016-09-26T12:34:08Z</time>
      </trkpt>
      <trkpt lat="43.597581" lon="-8.183471">
        <ele>23.460</ele>
        <time>2016-09-26T12:34:09Z</time>
      </trkpt>
      <trkpt lat="43.597572" lon="-8.183522">
        <ele>23.536</ele>
        <time>2016-09-26T12:34:10Z</time>
      </trkpt>
      <trkpt lat="43.597566" lon="-8.183575">
        <ele>23.640</ele>
        <time>2016-09-26T12:34:11Z</time>
      </trkpt>
      <trkpt lat="43.597560" lon="-8.183630">
        <ele>23.842</ele>
        <time>2016-09-26T12:34:12Z</time>
      </trkpt>
      <trkpt lat="43.597554" lon="-8.183682">
        <ele>23.995</ele>
        <time>2016-09-26T12:34:13Z</time>
      </trkpt>
      <trkpt lat="43.597548" lon="-8.183736">
        <ele>23.933</ele>
        <time>2016-09-26T12:34:14Z</time>
      </trkpt>
      <trkpt lat="43.597544" lon="-8.183789">
        <ele>24.063</ele>
        <time>2016-09-26T12:34:15Z</time>
      </trkpt>
      <trkpt lat="43.597540" lon="-8.183837">
        <ele>24.144</ele>
        <time>2016-09-26T12:34:16Z</time>
      </trkpt>
      <trkpt lat="43.597535" lon="-8.183884">
        <ele>24.418</ele>
        <time>2016-09-26T12:34:17Z</time>
      </trkpt>
      <trkpt lat="43.597530" lon="-8.183929">
        <ele>24.408</ele>
        <time>2016-09-26T12:34:18Z</time>
      </trkpt>
      <trkpt lat="43.597527" lon="-8.183971">
        <ele>25.097</ele>
        <time>2016-09-26T12:34:19Z</time>
      </trkpt>
      <trkpt lat="43.597528" lon="-8.184013">
        <ele>25.042</ele>
        <time>2016-09-26T12:34:20Z</time>
      </trkpt>
      <trkpt lat="43.597529" lon="-8.184051">
        <ele>25.370</ele>
        <time>2016-09-26T12:34:21Z</time>
      </trkpt>
      <trkpt lat="43.597529" lon="-8.184082">
        <ele>25.366</ele>
        <time>2016-09-26T12:34:22Z</time>
      </trkpt>
      <trkpt lat="43.597529" lon="-8.184107">
        <ele>25.560</ele>
        <time>2016-09-26T12:34:23Z</time>
      </trkpt>
      <trkpt lat="43.597529" lon="-8.184130">
        <ele>25.772</ele>
        <time>2016-09-26T12:34:24Z</time>
      </trkpt>
      <trkpt lat="43.597530" lon="-8.184153">
        <ele>25.975</ele>
        <time>2016-09-26T12:34:25Z</time>
      </trkpt>
      <trkpt lat="43.597532" lon="-8.184169">
        <ele>25.833</ele>
        <time>2016-09-26T12:34:26Z</time>
      </trkpt>
      <trkpt lat="43.597533" lon="-8.184174">
        <ele>26.099</ele>
        <time>2016-09-26T12:34:27Z</time>
      </trkpt>
      <trkpt lat="43.597534" lon="-8.184179">
        <ele>26.107</ele>
        <time>2016-09-26T12:34:28Z</time>
      </trkpt>
      <trkpt lat="43.597533" lon="-8.184181">
        <ele>26.227</ele>
        <time>2016-09-26T12:34:29Z</time>
      </trkpt>
      <trkpt lat="43.597532" lon="-8.184184">
        <ele>26.308</ele>
        <time>2016-09-26T12:34:30Z</time>
      </trkpt>
      <trkpt lat="43.597532" lon="-8.184185">
        <ele>26.340</ele>
        <time>2016-09-26T12:34:31Z</time>
      </trkpt>
      <trkpt lat="43.597532" lon="-8.184185">
        <ele>26.355</ele>
        <time>2016-09-26T12:34:31Z</time>
      </trkpt>
      <trkpt lat="43.597532" lon="-8.184185">
        <ele>26.313</ele>
        <time>2016-09-26T12:34:31Z</time>
      </trkpt>
      <trkpt lat="43.597533" lon="-8.184263">
        <ele>26.729</ele>
        <time>2016-09-26T12:34:44Z</time>
      </trkpt>
      <trkpt lat="43.597530" lon="-8.184293">
        <ele>26.783</ele>
        <time>2016-09-26T12:34:45Z</time>
      </trkpt>
      <trkpt lat="43.597524" lon="-8.184320">
        <ele>26.735</ele>
        <time>2016-09-26T12:34:46Z</time>
      </trkpt>
      <trkpt lat="43.597519" lon="-8.184351">
        <ele>26.858</ele>
        <time>2016-09-26T12:34:47Z</time>
      </trkpt>
      <trkpt lat="43.597516" lon="-8.184385">
        <ele>26.996</ele>
        <time>2016-09-26T12:34:48Z</time>
      </trkpt>
      <trkpt lat="43.597515" lon="-8.184417">
        <ele>26.952</ele>
        <time>2016-09-26T12:34:49Z</time>
      </trkpt>
      <trkpt lat="43.597512" lon="-8.184447">
        <ele>26.953</ele>
        <time>2016-09-26T12:34:50Z</time>
      </trkpt>
      <trkpt lat="43.597511" lon="-8.184481">
        <ele>27.108</ele>
        <time>2016-09-26T12:34:51Z</time>
      </trkpt>
      <trkpt lat="43.597511" lon="-8.184515">
        <ele>27.108</ele>
        <time>2016-09-26T12:34:52Z</time>
      </trkpt>
      <trkpt lat="43.597508" lon="-8.184550">
        <ele>27.186</ele>
        <time>2016-09-26T12:34:53Z</time>
      </trkpt>
      <trkpt lat="43.597507" lon="-8.184589">
        <ele>27.261</ele>
        <time>2016-09-26T12:34:54Z</time>
      </trkpt>
      <trkpt lat="43.597502" lon="-8.184632">
        <ele>27.219</ele>
        <time>2016-09-26T12:34:55Z</time>
      </trkpt>
      <trkpt lat="43.597496" lon="-8.184680">
        <ele>27.295</ele>
        <time>2016-09-26T12:34:56Z</time>
      </trkpt>
      <trkpt lat="43.597489" lon="-8.184732">
        <ele>27.359</ele>
        <time>2016-09-26T12:34:57Z</time>
      </trkpt>
      <trkpt lat="43.597485" lon="-8.184783">
        <ele>27.491</ele>
        <time>2016-09-26T12:34:58Z</time>
      </trkpt>
      <trkpt lat="43.597484" lon="-8.184836">
        <ele>27.364</ele>
        <time>2016-09-26T12:34:59Z</time>
      </trkpt>
      <trkpt lat="43.597476" lon="-8.184886">
        <ele>27.372</ele>
        <time>2016-09-26T12:35:00Z</time>
      </trkpt>
      <trkpt lat="43.597470" lon="-8.184933">
        <ele>27.457</ele>
        <time>2016-09-26T12:35:01Z</time>
      </trkpt>
      <trkpt lat="43.597467" lon="-8.184981">
        <ele>27.600</ele>
        <time>2016-09-26T12:35:02Z</time>
      </trkpt>
      <trkpt lat="43.597459" lon="-8.185028">
        <ele>27.620</ele>
        <time>2016-09-26T12:35:03Z</time>
      </trkpt>
      <trkpt lat="43.597449" lon="-8.185072">
        <ele>27.708</ele>
        <time>2016-09-26T12:35:04Z</time>
      </trkpt>
      <trkpt lat="43.597438" lon="-8.185117">
        <ele>27.836</ele>
        <time>2016-09-26T12:35:05Z</time>
      </trkpt>
      <trkpt lat="43.597427" lon="-8.185161">
        <ele>28.151</ele>
        <time>2016-09-26T12:35:06Z</time>
      </trkpt>
      <trkpt lat="43.597415" lon="-8.185200">
        <ele>28.329</ele>
        <time>2016-09-26T12:35:07Z</time>
      </trkpt>
      <trkpt lat="43.597399" lon="-8.185241">
        <ele>28.245</ele>
        <time>2016-09-26T12:35:08Z</time>
      </trkpt>
      <trkpt lat="43.597383" lon="-8.185283">
        <ele>28.589</ele>
        <time>2016-09-26T12:35:09Z</time>
      </trkpt>
      <trkpt lat="43.597366" lon="-8.185324">
        <ele>28.531</ele>
        <time>2016-09-26T12:35:10Z</time>
      </trkpt>
      <trkpt lat="43.597353" lon="-8.185366">
        <ele>28.654</ele>
        <time>2016-09-26T12:35:11Z</time>
      </trkpt>
      <trkpt lat="43.597338" lon="-8.185407">
        <ele>28.872</ele>
        <time>2016-09-26T12:35:12Z</time>
      </trkpt>
      <trkpt lat="43.597322" lon="-8.185446">
        <ele>29.013</ele>
        <time>2016-09-26T12:35:13Z</time>
      </trkpt>
      <trkpt lat="43.597308" lon="-8.185486">
        <ele>29.243</ele>
        <time>2016-09-26T12:35:14Z</time>
      </trkpt>
      <trkpt lat="43.597295" lon="-8.185527">
        <ele>29.607</ele>
        <time>2016-09-26T12:35:15Z</time>
      </trkpt>
      <trkpt lat="43.597284" lon="-8.185571">
        <ele>29.608</ele>
        <time>2016-09-26T12:35:16Z</time>
      </trkpt>
      <trkpt lat="43.597276" lon="-8.185617">
        <ele>29.632</ele>
        <time>2016-09-26T12:35:17Z</time>
      </trkpt>
      <trkpt lat="43.597267" lon="-8.185663">
        <ele>29.857</ele>
        <time>2016-09-26T12:35:18Z</time>
      </trkpt>
      <trkpt lat="43.597259" lon="-8.185706">
        <ele>29.975</ele>
        <time>2016-09-26T12:35:19Z</time>
      </trkpt>
      <trkpt lat="43.597252" lon="-8.185753">
        <ele>30.091</ele>
        <time>2016-09-26T12:35:20Z</time>
      </trkpt>
      <trkpt lat="43.597245" lon="-8.185798">
        <ele>30.155</ele>
        <time>2016-09-26T12:35:21Z</time>
      </trkpt>
      <trkpt lat="43.597235" lon="-8.185840">
        <ele>30.457</ele>
        <time>2016-09-26T12:35:22Z</time>
      </trkpt>
      <trkpt lat="43.597228" lon="-8.185885">
        <ele>30.420</ele>
        <time>2016-09-26T12:35:23Z</time>
      </trkpt>
      <trkpt lat="43.597221" lon="-8.185929">
        <ele>30.518</ele>
        <time>2016-09-26T12:35:24Z</time>
      </trkpt>
      <trkpt lat="43.597213" lon="-8.185972">
        <ele>31.066</ele>
        <time>2016-09-26T12:35:25Z</time>
      </trkpt>
      <trkpt lat="43.597205" lon="-8.186016">
        <ele>31.129</ele>
        <time>2016-09-26T12:35:26Z</time>
      </trkpt>
      <trkpt lat="43.597200" lon="-8.186060">
        <ele>31.321</ele>
        <time>2016-09-26T12:35:27Z</time>
      </trkpt>
      <trkpt lat="43.597197" lon="-8.186103">
        <ele>31.408</ele>
        <time>2016-09-26T12:35:28Z</time>
      </trkpt>
      <trkpt lat="43.597194" lon="-8.186145">
        <ele>31.437</ele>
        <time>2016-09-26T12:35:29Z</time>
      </trkpt>
      <trkpt lat="43.597192" lon="-8.186186">
        <ele>31.542</ele>
        <time>2016-09-26T12:35:30Z</time>
      </trkpt>
      <trkpt lat="43.597190" lon="-8.186225">
        <ele>31.640</ele>
        <time>2016-09-26T12:35:31Z</time>
      </trkpt>
      <trkpt lat="43.597193" lon="-8.186260">
        <ele>31.746</ele>
        <time>2016-09-26T12:35:32Z</time>
      </trkpt>
      <trkpt lat="43.597192" lon="-8.186294">
        <ele>32.050</ele>
        <time>2016-09-26T12:35:33Z</time>
      </trkpt>
      <trkpt lat="43.597191" lon="-8.186334">
        <ele>32.032</ele>
        <time>2016-09-26T12:35:34Z</time>
      </trkpt>
      <trkpt lat="43.597192" lon="-8.186377">
        <ele>32.185</ele>
        <time>2016-09-26T12:35:35Z</time>
      </trkpt>
      <trkpt lat="43.597195" lon="-8.186425">
        <ele>32.313</ele>
        <time>2016-09-26T12:35:36Z</time>
      </trkpt>
      <trkpt lat="43.597197" lon="-8.186480">
        <ele>32.137</ele>
        <time>2016-09-26T12:35:37Z</time>
      </trkpt>
      <trkpt lat="43.597194" lon="-8.186541">
        <ele>32.149</ele>
        <time>2016-09-26T12:35:38Z</time>
      </trkpt>
      <trkpt lat="43.597185" lon="-8.186606">
        <ele>32.013</ele>
        <time>2016-09-26T12:35:39Z</time>
      </trkpt>
      <trkpt lat="43.597170" lon="-8.186679">
        <ele>31.608</ele>
        <time>2016-09-26T12:35:40Z</time>
      </trkpt>
      <trkpt lat="43.597150" lon="-8.186755">
        <ele>31.584</ele>
        <time>2016-09-26T12:35:41Z</time>
      </trkpt>
      <trkpt lat="43.597132" lon="-8.186828">
        <ele>31.229</ele>
        <time>2016-09-26T12:35:42Z</time>
      </trkpt>
      <trkpt lat="43.597115" lon="-8.186903">
        <ele>31.047</ele>
        <time>2016-09-26T12:35:43Z</time>
      </trkpt>
      <trkpt lat="43.597096" lon="-8.186985">
        <ele>30.793</ele>
        <time>2016-09-26T12:35:44Z</time>
      </trkpt>
      <trkpt lat="43.597074" lon="-8.187076">
        <ele>30.357</ele>
        <time>2016-09-26T12:35:45Z</time>
      </trkpt>
      <trkpt lat="43.597051" lon="-8.187169">
        <ele>30.119</ele>
        <time>2016-09-26T12:35:46Z</time>
      </trkpt>
      <trkpt lat="43.597029" lon="-8.187262">
        <ele>29.962</ele>
        <time>2016-09-26T12:35:47Z</time>
      </trkpt>
      <trkpt lat="43.597005" lon="-8.187356">
        <ele>29.710</ele>
        <time>2016-09-26T12:35:48Z</time>
      </trkpt>
      <trkpt lat="43.596981" lon="-8.187445">
        <ele>29.335</ele>
        <time>2016-09-26T12:35:49Z</time>
      </trkpt>
      <trkpt lat="43.596956" lon="-8.187531">
        <ele>29.286</ele>
        <time>2016-09-26T12:35:50Z</time>
      </trkpt>
      <trkpt lat="43.596928" lon="-8.187609">
        <ele>29.114</ele>
        <time>2016-09-26T12:35:51Z</time>
      </trkpt>
      <trkpt lat="43.596904" lon="-8.187676">
        <ele>29.008</ele>
        <time>2016-09-26T12:35:52Z</time>
      </trkpt>
      <trkpt lat="43.596877" lon="-8.187733">
        <ele>28.654</ele>
        <time>2016-09-26T12:35:53Z</time>
      </trkpt>
      <trkpt lat="43.596852" lon="-8.187782">
        <ele>28.349</ele>
        <time>2016-09-26T12:35:54Z</time>
      </trkpt>
      <trkpt lat="43.596829" lon="-8.187824">
        <ele>27.887</ele>
        <time>2016-09-26T12:35:55Z</time>
      </trkpt>
      <trkpt lat="43.596812" lon="-8.187862">
        <ele>27.413</ele>
        <time>2016-09-26T12:35:56Z</time>
      </trkpt>
      <trkpt lat="43.596799" lon="-8.187899">
        <ele>27.197</ele>
        <time>2016-09-26T12:35:57Z</time>
      </trkpt>
      <trkpt lat="43.596786" lon="-8.187938">
        <ele>26.889</ele>
        <time>2016-09-26T12:35:58Z</time>
      </trkpt>
      <trkpt lat="43.596773" lon="-8.187982">
        <ele>26.542</ele>
        <time>2016-09-26T12:35:59Z</time>
      </trkpt>
      <trkpt lat="43.596761" lon="-8.188031">
        <ele>26.320</ele>
        <time>2016-09-26T12:36:00Z</time>
      </trkpt>
      <trkpt lat="43.596748" lon="-8.188085">
        <ele>26.159</ele>
        <time>2016-09-26T12:36:01Z</time>
      </trkpt>
      <trkpt lat="43.596735" lon="-8.188142">
        <ele>25.903</ele>
        <time>2016-09-26T12:36:02Z</time>
      </trkpt>
      <trkpt lat="43.596722" lon="-8.188207">
        <ele>25.823</ele>
        <time>2016-09-26T12:36:03Z</time>
      </trkpt>
      <trkpt lat="43.596709" lon="-8.188280">
        <ele>25.608</ele>
        <time>2016-09-26T12:36:04Z</time>
      </trkpt>
      <trkpt lat="43.596696" lon="-8.188361">
        <ele>25.346</ele>
        <time>2016-09-26T12:36:05Z</time>
      </trkpt>
      <trkpt lat="43.596690" lon="-8.188448">
        <ele>24.831</ele>
        <time>2016-09-26T12:36:06Z</time>
      </trkpt>
      <trkpt lat="43.596693" lon="-8.188538">
        <ele>24.799</ele>
        <time>2016-09-26T12:36:07Z</time>
      </trkpt>
      <trkpt lat="43.596700" lon="-8.188632">
        <ele>24.565</ele>
        <time>2016-09-26T12:36:08Z</time>
      </trkpt>
      <trkpt lat="43.596707" lon="-8.188731">
        <ele>24.179</ele>
        <time>2016-09-26T12:36:09Z</time>
      </trkpt>
      <trkpt lat="43.596722" lon="-8.188827">
        <ele>23.961</ele>
        <time>2016-09-26T12:36:10Z</time>
      </trkpt>
      <trkpt lat="43.596739" lon="-8.188923">
        <ele>23.434</ele>
        <time>2016-09-26T12:36:11Z</time>
      </trkpt>
      <trkpt lat="43.596759" lon="-8.189017">
        <ele>22.962</ele>
        <time>2016-09-26T12:36:12Z</time>
      </trkpt>
      <trkpt lat="43.596778" lon="-8.189113">
        <ele>22.719</ele>
        <time>2016-09-26T12:36:13Z</time>
      </trkpt>
      <trkpt lat="43.596792" lon="-8.189210">
        <ele>22.309</ele>
        <time>2016-09-26T12:36:14Z</time>
      </trkpt>
      <trkpt lat="43.596809" lon="-8.189310">
        <ele>22.019</ele>
        <time>2016-09-26T12:36:15Z</time>
      </trkpt>
      <trkpt lat="43.596828" lon="-8.189411">
        <ele>21.608</ele>
        <time>2016-09-26T12:36:16Z</time>
      </trkpt>
      <trkpt lat="43.596847" lon="-8.189518">
        <ele>21.212</ele>
        <time>2016-09-26T12:36:17Z</time>
      </trkpt>
      <trkpt lat="43.596868" lon="-8.189628">
        <ele>20.877</ele>
        <time>2016-09-26T12:36:18Z</time>
      </trkpt>
      <trkpt lat="43.596885" lon="-8.189745">
        <ele>20.385</ele>
        <time>2016-09-26T12:36:19Z</time>
      </trkpt>
      <trkpt lat="43.596905" lon="-8.189865">
        <ele>19.781</ele>
        <time>2016-09-26T12:36:20Z</time>
      </trkpt>
      <trkpt lat="43.596927" lon="-8.189985">
        <ele>19.245</ele>
        <time>2016-09-26T12:36:21Z</time>
      </trkpt>
      <trkpt lat="43.596949" lon="-8.190105">
        <ele>18.697</ele>
        <time>2016-09-26T12:36:22Z</time>
      </trkpt>
      <trkpt lat="43.596969" lon="-8.190222">
        <ele>17.610</ele>
        <time>2016-09-26T12:36:23Z</time>
      </trkpt>
      <trkpt lat="43.596989" lon="-8.190335">
        <ele>16.818</ele>
        <time>2016-09-26T12:36:24Z</time>
      </trkpt>
      <trkpt lat="43.597009" lon="-8.190442">
        <ele>16.272</ele>
        <time>2016-09-26T12:36:25Z</time>
      </trkpt>
      <trkpt lat="43.597028" lon="-8.190543">
        <ele>15.413</ele>
        <time>2016-09-26T12:36:26Z</time>
      </trkpt>
      <trkpt lat="43.597046" lon="-8.190643">
        <ele>14.614</ele>
        <time>2016-09-26T12:36:27Z</time>
      </trkpt>
      <trkpt lat="43.597057" lon="-8.190743">
        <ele>14.108</ele>
        <time>2016-09-26T12:36:28Z</time>
      </trkpt>
      <trkpt lat="43.597055" lon="-8.190847">
        <ele>13.418</ele>
        <time>2016-09-26T12:36:29Z</time>
      </trkpt>
      <trkpt lat="43.597047" lon="-8.190950">
        <ele>12.763</ele>
        <time>2016-09-26T12:36:30Z</time>
      </trkpt>
      <trkpt lat="43.597028" lon="-8.191056">
        <ele>12.081</ele>
        <time>2016-09-26T12:36:31Z</time>
      </trkpt>
      <trkpt lat="43.597004" lon="-8.191163">
        <ele>11.357</ele>
        <time>2016-09-26T12:36:32Z</time>
      </trkpt>
      <trkpt lat="43.596975" lon="-8.191275">
        <ele>10.441</ele>
        <time>2016-09-26T12:36:33Z</time>
      </trkpt>
      <trkpt lat="43.596945" lon="-8.191382">
        <ele>9.713</ele>
        <time>2016-09-26T12:36:34Z</time>
      </trkpt>
      <trkpt lat="43.596913" lon="-8.191485">
        <ele>8.926</ele>
        <time>2016-09-26T12:36:35Z</time>
      </trkpt>
      <trkpt lat="43.596881" lon="-8.191582">
        <ele>8.114</ele>
        <time>2016-09-26T12:36:36Z</time>
      </trkpt>
      <trkpt lat="43.596850" lon="-8.191672">
        <ele>7.454</ele>
        <time>2016-09-26T12:36:37Z</time>
      </trkpt>
      <trkpt lat="43.596821" lon="-8.191756">
        <ele>6.756</ele>
        <time>2016-09-26T12:36:38Z</time>
      </trkpt>
      <trkpt lat="43.596799" lon="-8.191834">
        <ele>6.111</ele>
        <time>2016-09-26T12:36:39Z</time>
      </trkpt>
      <trkpt lat="43.596787" lon="-8.191914">
        <ele>5.408</ele>
        <time>2016-09-26T12:36:40Z</time>
      </trkpt>
      <trkpt lat="43.596786" lon="-8.191991">
        <ele>4.716</ele>
        <time>2016-09-26T12:36:41Z</time>
      </trkpt>
      <trkpt lat="43.596795" lon="-8.192063">
        <ele>4.031</ele>
        <time>2016-09-26T12:36:42Z</time>
      </trkpt>
      <trkpt lat="43.596819" lon="-8.192129">
        <ele>3.719</ele>
        <time>2016-09-26T12:36:43Z</time>
      </trkpt>
      <trkpt lat="43.596857" lon="-8.192186">
        <ele>3.285</ele>
        <time>2016-09-26T12:36:44Z</time>
      </trkpt>
      <trkpt lat="43.596901" lon="-8.192231">
        <ele>2.919</ele>
        <time>2016-09-26T12:36:45Z</time>
      </trkpt>
      <trkpt lat="43.596944" lon="-8.192268">
        <ele>2.871</ele>
        <time>2016-09-26T12:36:46Z</time>
      </trkpt>
      <trkpt lat="43.596986" lon="-8.192305">
        <ele>2.594</ele>
        <time>2016-09-26T12:36:47Z</time>
      </trkpt>
      <trkpt lat="43.597025" lon="-8.192342">
        <ele>2.132</ele>
        <time>2016-09-26T12:36:48Z</time>
      </trkpt>
      <trkpt lat="43.597064" lon="-8.192380">
        <ele>1.935</ele>
        <time>2016-09-26T12:36:49Z</time>
      </trkpt>
      <trkpt lat="43.597103" lon="-8.192417">
        <ele>1.886</ele>
        <time>2016-09-26T12:36:50Z</time>
      </trkpt>
      <trkpt lat="43.597141" lon="-8.192455">
        <ele>1.814</ele>
        <time>2016-09-26T12:36:51Z</time>
      </trkpt>
      <trkpt lat="43.597178" lon="-8.192493">
        <ele>1.908</ele>
        <time>2016-09-26T12:36:52Z</time>
      </trkpt>
      <trkpt lat="43.597216" lon="-8.192530">
        <ele>2.034</ele>
        <time>2016-09-26T12:36:53Z</time>
      </trkpt>
      <trkpt lat="43.597252" lon="-8.192569">
        <ele>2.189</ele>
        <time>2016-09-26T12:36:54Z</time>
      </trkpt>
      <trkpt lat="43.597289" lon="-8.192608">
        <ele>2.387</ele>
        <time>2016-09-26T12:36:55Z</time>
      </trkpt>
      <trkpt lat="43.597325" lon="-8.192650">
        <ele>2.393</ele>
        <time>2016-09-26T12:36:56Z</time>
      </trkpt>
      <trkpt lat="43.597359" lon="-8.192690">
        <ele>2.457</ele>
        <time>2016-09-26T12:36:57Z</time>
      </trkpt>
      <trkpt lat="43.597394" lon="-8.192726">
        <ele>2.719</ele>
        <time>2016-09-26T12:36:58Z</time>
      </trkpt>
      <trkpt lat="43.597431" lon="-8.192754">
        <ele>2.782</ele>
        <time>2016-09-26T12:36:59Z</time>
      </trkpt>
      <trkpt lat="43.597468" lon="-8.192780">
        <ele>2.830</ele>
        <time>2016-09-26T12:37:00Z</time>
      </trkpt>
      <trkpt lat="43.597505" lon="-8.192806">
        <ele>3.077</ele>
        <time>2016-09-26T12:37:01Z</time>
      </trkpt>
      <trkpt lat="43.597543" lon="-8.192830">
        <ele>3.361</ele>
        <time>2016-09-26T12:37:02Z</time>
      </trkpt>
      <trkpt lat="43.597580" lon="-8.192852">
        <ele>3.727</ele>
        <time>2016-09-26T12:37:03Z</time>
      </trkpt>
      <trkpt lat="43.597616" lon="-8.192873">
        <ele>3.908</ele>
        <time>2016-09-26T12:37:04Z</time>
      </trkpt>
      <trkpt lat="43.597651" lon="-8.192891">
        <ele>4.148</ele>
        <time>2016-09-26T12:37:05Z</time>
      </trkpt>
      <trkpt lat="43.597684" lon="-8.192905">
        <ele>4.483</ele>
        <time>2016-09-26T12:37:06Z</time>
      </trkpt>
      <trkpt lat="43.597720" lon="-8.192917">
        <ele>4.911</ele>
        <time>2016-09-26T12:37:07Z</time>
      </trkpt>
      <trkpt lat="43.597757" lon="-8.192928">
        <ele>5.287</ele>
        <time>2016-09-26T12:37:08Z</time>
      </trkpt>
      <trkpt lat="43.597794" lon="-8.192939">
        <ele>5.421</ele>
        <time>2016-09-26T12:37:09Z</time>
      </trkpt>
      <trkpt lat="43.597831" lon="-8.192949">
        <ele>5.623</ele>
        <time>2016-09-26T12:37:10Z</time>
      </trkpt>
      <trkpt lat="43.597871" lon="-8.192959">
        <ele>6.096</ele>
        <time>2016-09-26T12:37:11Z</time>
      </trkpt>
      <trkpt lat="43.597909" lon="-8.192971">
        <ele>6.114</ele>
        <time>2016-09-26T12:37:12Z</time>
      </trkpt>
      <trkpt lat="43.597945" lon="-8.192983">
        <ele>6.462</ele>
        <time>2016-09-26T12:37:13Z</time>
      </trkpt>
      <trkpt lat="43.597977" lon="-8.192994">
        <ele>6.683</ele>
        <time>2016-09-26T12:37:14Z</time>
      </trkpt>
      <trkpt lat="43.598008" lon="-8.193010">
        <ele>6.811</ele>
        <time>2016-09-26T12:37:15Z</time>
      </trkpt>
      <trkpt lat="43.598036" lon="-8.193028">
        <ele>7.008</ele>
        <time>2016-09-26T12:37:16Z</time>
      </trkpt>
      <trkpt lat="43.598066" lon="-8.193046">
        <ele>7.137</ele>
        <time>2016-09-26T12:37:17Z</time>
      </trkpt>
      <trkpt lat="43.598098" lon="-8.193061">
        <ele>7.042</ele>
        <time>2016-09-26T12:37:18Z</time>
      </trkpt>
      <trkpt lat="43.598129" lon="-8.193080">
        <ele>7.210</ele>
        <time>2016-09-26T12:37:19Z</time>
      </trkpt>
      <trkpt lat="43.598159" lon="-8.193100">
        <ele>7.436</ele>
        <time>2016-09-26T12:37:20Z</time>
      </trkpt>
      <trkpt lat="43.598188" lon="-8.193122">
        <ele>7.760</ele>
        <time>2016-09-26T12:37:21Z</time>
      </trkpt>
      <trkpt lat="43.598219" lon="-8.193145">
        <ele>7.892</ele>
        <time>2016-09-26T12:37:22Z</time>
      </trkpt>
      <trkpt lat="43.598250" lon="-8.193165">
        <ele>7.865</ele>
        <time>2016-09-26T12:37:23Z</time>
      </trkpt>
      <trkpt lat="43.598281" lon="-8.193185">
        <ele>8.063</ele>
        <time>2016-09-26T12:37:24Z</time>
      </trkpt>
      <trkpt lat="43.598313" lon="-8.193208">
        <ele>8.186</ele>
        <time>2016-09-26T12:37:25Z</time>
      </trkpt>
      <trkpt lat="43.598345" lon="-8.193231">
        <ele>8.260</ele>
        <time>2016-09-26T12:37:26Z</time>
      </trkpt>
      <trkpt lat="43.598375" lon="-8.193257">
        <ele>8.226</ele>
        <time>2016-09-26T12:37:27Z</time>
      </trkpt>
      <trkpt lat="43.598405" lon="-8.193282">
        <ele>8.508</ele>
        <time>2016-09-26T12:37:28Z</time>
      </trkpt>
      <trkpt lat="43.598437" lon="-8.193306">
        <ele>8.679</ele>
        <time>2016-09-26T12:37:29Z</time>
      </trkpt>
      <trkpt lat="43.598469" lon="-8.193330">
        <ele>8.864</ele>
        <time>2016-09-26T12:37:30Z</time>
      </trkpt>
      <trkpt lat="43.598500" lon="-8.193352">
        <ele>9.072</ele>
        <time>2016-09-26T12:37:31Z</time>
      </trkpt>
      <trkpt lat="43.598531" lon="-8.193373">
        <ele>9.388</ele>
        <time>2016-09-26T12:37:32Z</time>
      </trkpt>
      <trkpt lat="43.598560" lon="-8.193396">
        <ele>9.322</ele>
        <time>2016-09-26T12:37:33Z</time>
      </trkpt>
      <trkpt lat="43.598586" lon="-8.193420">
        <ele>9.384</ele>
        <time>2016-09-26T12:37:34Z</time>
      </trkpt>
      <trkpt lat="43.598616" lon="-8.193444">
        <ele>9.497</ele>
        <time>2016-09-26T12:37:35Z</time>
      </trkpt>
      <trkpt lat="43.598647" lon="-8.193465">
        <ele>9.745</ele>
        <time>2016-09-26T12:37:36Z</time>
      </trkpt>
      <trkpt lat="43.598677" lon="-8.193483">
        <ele>9.838</ele>
        <time>2016-09-26T12:37:37Z</time>
      </trkpt>
      <trkpt lat="43.598706" lon="-8.193503">
        <ele>10.170</ele>
        <time>2016-09-26T12:37:38Z</time>
      </trkpt>
      <trkpt lat="43.598737" lon="-8.193521">
        <ele>10.217</ele>
        <time>2016-09-26T12:37:39Z</time>
      </trkpt>
      <trkpt lat="43.598768" lon="-8.193538">
        <ele>10.408</ele>
        <time>2016-09-26T12:37:40Z</time>
      </trkpt>
      <trkpt lat="43.598801" lon="-8.193554">
        <ele>10.664</ele>
        <time>2016-09-26T12:37:41Z</time>
      </trkpt>
      <trkpt lat="43.598830" lon="-8.193572">
        <ele>10.699</ele>
        <time>2016-09-26T12:37:42Z</time>
      </trkpt>
      <trkpt lat="43.598859" lon="-8.193592">
        <ele>10.747</ele>
        <time>2016-09-26T12:37:43Z</time>
      </trkpt>
      <trkpt lat="43.598888" lon="-8.193613">
        <ele>10.663</ele>
        <time>2016-09-26T12:37:44Z</time>
      </trkpt>
      <trkpt lat="43.598917" lon="-8.193633">
        <ele>10.917</ele>
        <time>2016-09-26T12:37:45Z</time>
      </trkpt>
      <trkpt lat="43.598948" lon="-8.193650">
        <ele>11.239</ele>
        <time>2016-09-26T12:37:46Z</time>
      </trkpt>
      <trkpt lat="43.598979" lon="-8.193667">
        <ele>11.482</ele>
        <time>2016-09-26T12:37:47Z</time>
      </trkpt>
      <trkpt lat="43.599010" lon="-8.193684">
        <ele>11.640</ele>
        <time>2016-09-26T12:37:48Z</time>
      </trkpt>
      <trkpt lat="43.599041" lon="-8.193700">
        <ele>11.825</ele>
        <time>2016-09-26T12:37:49Z</time>
      </trkpt>
      <trkpt lat="43.599071" lon="-8.193717">
        <ele>11.926</ele>
        <time>2016-09-26T12:37:50Z</time>
      </trkpt>
      <trkpt lat="43.599100" lon="-8.193734">
        <ele>12.108</ele>
        <time>2016-09-26T12:37:51Z</time>
      </trkpt>
      <trkpt lat="43.599128" lon="-8.193751">
        <ele>12.408</ele>
        <time>2016-09-26T12:37:52Z</time>
      </trkpt>
      <trkpt lat="43.599158" lon="-8.193765">
        <ele>12.613</ele>
        <time>2016-09-26T12:37:53Z</time>
      </trkpt>
      <trkpt lat="43.599186" lon="-8.193782">
        <ele>12.888</ele>
        <time>2016-09-26T12:37:54Z</time>
      </trkpt>
      <trkpt lat="43.599213" lon="-8.193798">
        <ele>13.146</ele>
        <time>2016-09-26T12:37:55Z</time>
      </trkpt>
      <trkpt lat="43.599239" lon="-8.193816">
        <ele>13.262</ele>
        <time>2016-09-26T12:37:56Z</time>
      </trkpt>
      <trkpt lat="43.599265" lon="-8.193835">
        <ele>13.646</ele>
        <time>2016-09-26T12:37:57Z</time>
      </trkpt>
      <trkpt lat="43.599293" lon="-8.193852">
        <ele>13.618</ele>
        <time>2016-09-26T12:37:58Z</time>
      </trkpt>
      <trkpt lat="43.599321" lon="-8.193868">
        <ele>13.741</ele>
        <time>2016-09-26T12:37:59Z</time>
      </trkpt>
      <trkpt lat="43.599350" lon="-8.193884">
        <ele>13.899</ele>
        <time>2016-09-26T12:38:00Z</time>
      </trkpt>
      <trkpt lat="43.599379" lon="-8.193902">
        <ele>13.993</ele>
        <time>2016-09-26T12:38:01Z</time>
      </trkpt>
      <trkpt lat="43.599407" lon="-8.193922">
        <ele>13.965</ele>
        <time>2016-09-26T12:38:02Z</time>
      </trkpt>
      <trkpt lat="43.599433" lon="-8.193939">
        <ele>14.121</ele>
        <time>2016-09-26T12:38:03Z</time>
      </trkpt>
      <trkpt lat="43.599462" lon="-8.193951">
        <ele>14.408</ele>
        <time>2016-09-26T12:38:04Z</time>
      </trkpt>
      <trkpt lat="43.599491" lon="-8.193959">
        <ele>14.690</ele>
        <time>2016-09-26T12:38:05Z</time>
      </trkpt>
      <trkpt lat="43.599518" lon="-8.193970">
        <ele>14.675</ele>
        <time>2016-09-26T12:38:06Z</time>
      </trkpt>
      <trkpt lat="43.599548" lon="-8.193983">
        <ele>14.733</ele>
        <time>2016-09-26T12:38:07Z</time>
      </trkpt>
      <trkpt lat="43.599576" lon="-8.193998">
        <ele>14.739</ele>
        <time>2016-09-26T12:38:08Z</time>
      </trkpt>
      <trkpt lat="43.599604" lon="-8.194012">
        <ele>14.873</ele>
        <time>2016-09-26T12:38:09Z</time>
      </trkpt>
      <trkpt lat="43.599634" lon="-8.194022">
        <ele>14.845</ele>
        <time>2016-09-26T12:38:10Z</time>
      </trkpt>
      <trkpt lat="43.599663" lon="-8.194031">
        <ele>14.778</ele>
        <time>2016-09-26T12:38:11Z</time>
      </trkpt>
      <trkpt lat="43.599691" lon="-8.194043">
        <ele>14.866</ele>
        <time>2016-09-26T12:38:12Z</time>
      </trkpt>
      <trkpt lat="43.599719" lon="-8.194054">
        <ele>15.092</ele>
        <time>2016-09-26T12:38:13Z</time>
      </trkpt>
      <trkpt lat="43.599748" lon="-8.194064">
        <ele>15.273</ele>
        <time>2016-09-26T12:38:14Z</time>
      </trkpt>
      <trkpt lat="43.599779" lon="-8.194076">
        <ele>15.320</ele>
        <time>2016-09-26T12:38:15Z</time>
      </trkpt>
      <trkpt lat="43.599817" lon="-8.194082">
        <ele>15.308</ele>
        <time>2016-09-26T12:38:16Z</time>
      </trkpt>
      <trkpt lat="43.599851" lon="-8.194095">
        <ele>15.380</ele>
        <time>2016-09-26T12:38:17Z</time>
      </trkpt>
      <trkpt lat="43.599882" lon="-8.194112">
        <ele>15.545</ele>
        <time>2016-09-26T12:38:18Z</time>
      </trkpt>
      <trkpt lat="43.599912" lon="-8.194128">
        <ele>15.833</ele>
        <time>2016-09-26T12:38:19Z</time>
      </trkpt>
      <trkpt lat="43.599944" lon="-8.194143">
        <ele>16.019</ele>
        <time>2016-09-26T12:38:20Z</time>
      </trkpt>
      <trkpt lat="43.599976" lon="-8.194159">
        <ele>16.153</ele>
        <time>2016-09-26T12:38:21Z</time>
      </trkpt>
      <trkpt lat="43.600008" lon="-8.194173">
        <ele>16.355</ele>
        <time>2016-09-26T12:38:22Z</time>
      </trkpt>
      <trkpt lat="43.600038" lon="-8.194188">
        <ele>16.498</ele>
        <time>2016-09-26T12:38:23Z</time>
      </trkpt>
      <trkpt lat="43.600072" lon="-8.194198">
        <ele>16.566</ele>
        <time>2016-09-26T12:38:24Z</time>
      </trkpt>
      <trkpt lat="43.600103" lon="-8.194213">
        <ele>16.513</ele>
        <time>2016-09-26T12:38:25Z</time>
      </trkpt>
      <trkpt lat="43.600133" lon="-8.194231">
        <ele>16.743</ele>
        <time>2016-09-26T12:38:26Z</time>
      </trkpt>
      <trkpt lat="43.600162" lon="-8.194248">
        <ele>16.907</ele>
        <time>2016-09-26T12:38:27Z</time>
      </trkpt>
      <trkpt lat="43.600191" lon="-8.194264">
        <ele>17.108</ele>
        <time>2016-09-26T12:38:28Z</time>
      </trkpt>
      <trkpt lat="43.600221" lon="-8.194278">
        <ele>17.182</ele>
        <time>2016-09-26T12:38:29Z</time>
      </trkpt>
      <trkpt lat="43.600251" lon="-8.194294">
        <ele>17.097</ele>
        <time>2016-09-26T12:38:30Z</time>
      </trkpt>
      <trkpt lat="43.600282" lon="-8.194308">
        <ele>17.245</ele>
        <time>2016-09-26T12:38:31Z</time>
      </trkpt>
      <trkpt lat="43.600314" lon="-8.194321">
        <ele>17.451</ele>
        <time>2016-09-26T12:38:32Z</time>
      </trkpt>
      <trkpt lat="43.600347" lon="-8.194336">
        <ele>17.475</ele>
        <time>2016-09-26T12:38:33Z</time>
      </trkpt>
      <trkpt lat="43.600379" lon="-8.194353">
        <ele>17.517</ele>
        <time>2016-09-26T12:38:34Z</time>
      </trkpt>
      <trkpt lat="43.600410" lon="-8.194374">
        <ele>17.510</ele>
        <time>2016-09-26T12:38:35Z</time>
      </trkpt>
      <trkpt lat="43.600440" lon="-8.194400">
        <ele>17.698</ele>
        <time>2016-09-26T12:38:36Z</time>
      </trkpt>
      <trkpt lat="43.600470" lon="-8.194429">
        <ele>17.612</ele>
        <time>2016-09-26T12:38:37Z</time>
      </trkpt>
      <trkpt lat="43.600498" lon="-8.194459">
        <ele>17.732</ele>
        <time>2016-09-26T12:38:38Z</time>
      </trkpt>
      <trkpt lat="43.600526" lon="-8.194492">
        <ele>17.805</ele>
        <time>2016-09-26T12:38:39Z</time>
      </trkpt>
      <trkpt lat="43.600554" lon="-8.194528">
        <ele>17.708</ele>
        <time>2016-09-26T12:38:40Z</time>
      </trkpt>
      <trkpt lat="43.600582" lon="-8.194566">
        <ele>17.742</ele>
        <time>2016-09-26T12:38:41Z</time>
      </trkpt>
      <trkpt lat="43.600614" lon="-8.194604">
        <ele>17.667</ele>
        <time>2016-09-26T12:38:42Z</time>
      </trkpt>
      <trkpt lat="43.600650" lon="-8.194644">
        <ele>17.515</ele>
        <time>2016-09-26T12:38:43Z</time>
      </trkpt>
      <trkpt lat="43.600688" lon="-8.194682">
        <ele>17.161</ele>
        <time>2016-09-26T12:38:44Z</time>
      </trkpt>
      <trkpt lat="43.600725" lon="-8.194721">
        <ele>17.195</ele>
        <time>2016-09-26T12:38:45Z</time>
      </trkpt>
      <trkpt lat="43.600763" lon="-8.194759">
        <ele>17.297</ele>
        <time>2016-09-26T12:38:46Z</time>
      </trkpt>
      <trkpt lat="43.600803" lon="-8.194796">
        <ele>17.070</ele>
        <time>2016-09-26T12:38:47Z</time>
      </trkpt>
      <trkpt lat="43.600842" lon="-8.194825">
        <ele>16.928</ele>
        <time>2016-09-26T12:38:48Z</time>
      </trkpt>
      <trkpt lat="43.600879" lon="-8.194840">
        <ele>16.843</ele>
        <time>2016-09-26T12:38:49Z</time>
      </trkpt>
      <trkpt lat="43.600916" lon="-8.194835">
        <ele>16.664</ele>
        <time>2016-09-26T12:38:50Z</time>
      </trkpt>
      <trkpt lat="43.600954" lon="-8.194816">
        <ele>16.310</ele>
        <time>2016-09-26T12:38:51Z</time>
      </trkpt>
      <trkpt lat="43.600992" lon="-8.194791">
        <ele>16.008</ele>
        <time>2016-09-26T12:38:52Z</time>
      </trkpt>
      <trkpt lat="43.601026" lon="-8.194761">
        <ele>15.615</ele>
        <time>2016-09-26T12:38:53Z</time>
      </trkpt>
      <trkpt lat="43.601057" lon="-8.194735">
        <ele>15.160</ele>
        <time>2016-09-26T12:38:54Z</time>
      </trkpt>
      <trkpt lat="43.601085" lon="-8.194710">
        <ele>14.628</ele>
        <time>2016-09-26T12:38:55Z</time>
      </trkpt>
      <trkpt lat="43.601109" lon="-8.194687">
        <ele>14.074</ele>
        <time>2016-09-26T12:38:56Z</time>
      </trkpt>
      <trkpt lat="43.601130" lon="-8.194670">
        <ele>13.848</ele>
        <time>2016-09-26T12:38:57Z</time>
      </trkpt>
      <trkpt lat="43.601144" lon="-8.194656">
        <ele>13.540</ele>
        <time>2016-09-26T12:38:58Z</time>
      </trkpt>
      <trkpt lat="43.601157" lon="-8.194647">
        <ele>13.583</ele>
        <time>2016-09-26T12:38:59Z</time>
      </trkpt>
      <trkpt lat="43.601173" lon="-8.194641">
        <ele>13.271</ele>
        <time>2016-09-26T12:39:00Z</time>
      </trkpt>
      <trkpt lat="43.601191" lon="-8.194650">
        <ele>12.935</ele>
        <time>2016-09-26T12:39:01Z</time>
      </trkpt>
      <trkpt lat="43.601206" lon="-8.194668">
        <ele>12.686</ele>
        <time>2016-09-26T12:39:02Z</time>
      </trkpt>
      <trkpt lat="43.601212" lon="-8.194676">
        <ele>12.414</ele>
        <time>2016-09-26T12:39:03Z</time>
      </trkpt>
      <trkpt lat="43.601214" lon="-8.194677">
        <ele>12.308</ele>
        <time>2016-09-26T12:39:04Z</time>
      </trkpt>
      <trkpt lat="43.601220" lon="-8.194673">
        <ele>12.234</ele>
        <time>2016-09-26T12:39:05Z</time>
      </trkpt>
      <trkpt lat="43.601223" lon="-8.194669">
        <ele>12.179</ele>
        <time>2016-09-26T12:39:06Z</time>
      </trkpt>
      <trkpt lat="43.601224" lon="-8.194670">
        <ele>12.067</ele>
        <time>2016-09-26T12:39:07Z</time>
      </trkpt>
      <trkpt lat="43.601224" lon="-8.194670">
        <ele>11.893</ele>
        <time>2016-09-26T12:39:08Z</time>
      </trkpt>
      <trkpt lat="43.601224" lon="-8.194671">
        <ele>11.817</ele>
        <time>2016-09-26T12:39:09Z</time>
      </trkpt>
      <trkpt lat="43.601224" lon="-8.194671">
        <ele>11.889</ele>
        <time>2016-09-26T12:39:09Z</time>
      </trkpt>
      <trkpt lat="43.601224" lon="-8.194671">
        <ele>11.892</ele>
        <time>2016-09-26T12:39:09Z</time>
      </trkpt>
      <trkpt lat="43.601224" lon="-8.194671">
        <ele>11.810</ele>
        <time>2016-09-26T12:39:09Z</time>
      </trkpt>
      <trkpt lat="43.615950" lon="-8.150574">
        <ele>10.696</ele>
        <time>2016-09-22T08:13:57Z</time>
      </trkpt>
      <trkpt lat="43.615973" lon="-8.150586">
        <ele>10.031</ele>
        <time>2016-09-22T08:13:58Z</time>
      </trkpt>
      <trkpt lat="43.615991" lon="-8.150629">
        <ele>9.424</ele>
        <time>2016-09-22T08:14:00Z</time>
      </trkpt>
      <trkpt lat="43.615964" lon="-8.150662">
        <ele>8.808</ele>
        <time>2016-09-22T08:14:02Z</time>
      </trkpt>
      <trkpt lat="43.615907" lon="-8.150660">
        <ele>8.850</ele>
        <time>2016-09-22T08:14:04Z</time>
      </trkpt>
      <trkpt lat="43.615747" lon="-8.150642">
        <ele>9.044</ele>
        <time>2016-09-22T08:14:09Z</time>
      </trkpt>
      <trkpt lat="43.615446" lon="-8.150630">
        <ele>10.449</ele>
        <time>2016-09-22T08:14:18Z</time>
      </trkpt>
      <trkpt lat="43.615263" lon="-8.150718">
        <ele>11.027</ele>
        <time>2016-09-22T08:14:24Z</time>
      </trkpt>
      <trkpt lat="43.615210" lon="-8.150772">
        <ele>11.425</ele>
        <time>2016-09-22T08:14:26Z</time>
      </trkpt>
      <trkpt lat="43.615147" lon="-8.150925">
        <ele>11.615</ele>
        <time>2016-09-22T08:14:30Z</time>
      </trkpt>
      <trkpt lat="43.615127" lon="-8.150959">
        <ele>11.677</ele>
        <time>2016-09-22T08:14:31Z</time>
      </trkpt>
      <trkpt lat="43.615066" lon="-8.150988">
        <ele>11.689</ele>
        <time>2016-09-22T08:14:33Z</time>
      </trkpt>
      <trkpt lat="43.615005" lon="-8.150989">
        <ele>11.479</ele>
        <time>2016-09-22T08:14:35Z</time>
      </trkpt>
      <trkpt lat="43.614880" lon="-8.151004">
        <ele>12.005</ele>
        <time>2016-09-22T08:14:39Z</time>
      </trkpt>
      <trkpt lat="43.614764" lon="-8.150999">
        <ele>12.425</ele>
        <time>2016-09-22T08:14:44Z</time>
      </trkpt>
      <trkpt lat="43.614749" lon="-8.150997">
        <ele>12.408</ele>
        <time>2016-09-22T08:14:45Z</time>
      </trkpt>
      <trkpt lat="43.614717" lon="-8.151022">
        <ele>12.638</ele>
        <time>2016-09-22T08:14:47Z</time>
      </trkpt>
      <trkpt lat="43.614700" lon="-8.151043">
        <ele>12.872</ele>
        <time>2016-09-22T08:14:48Z</time>
      </trkpt>
      <trkpt lat="43.614656" lon="-8.151175">
        <ele>12.817</ele>
        <time>2016-09-22T08:14:51Z</time>
      </trkpt>
      <trkpt lat="43.614704" lon="-8.151374">
        <ele>11.835</ele>
        <time>2016-09-22T08:14:54Z</time>
      </trkpt>
      <trkpt lat="43.614705" lon="-8.151448">
        <ele>11.413</ele>
        <time>2016-09-22T08:14:55Z</time>
      </trkpt>
      <trkpt lat="43.614662" lon="-8.151587">
        <ele>11.073</ele>
        <time>2016-09-22T08:14:57Z</time>
      </trkpt>
      <trkpt lat="43.614641" lon="-8.151656">
        <ele>10.835</ele>
        <time>2016-09-22T08:14:58Z</time>
      </trkpt>
      <trkpt lat="43.614604" lon="-8.151785">
        <ele>10.417</ele>
        <time>2016-09-22T08:15:00Z</time>
      </trkpt>
      <trkpt lat="43.614575" lon="-8.151834">
        <ele>10.448</ele>
        <time>2016-09-22T08:15:01Z</time>
      </trkpt>
      <trkpt lat="43.614376" lon="-8.152014">
        <ele>10.261</ele>
        <time>2016-09-22T08:15:07Z</time>
      </trkpt>
      <trkpt lat="43.614116" lon="-8.152241">
        <ele>10.617</ele>
        <time>2016-09-22T08:15:15Z</time>
      </trkpt>
      <trkpt lat="43.613900" lon="-8.152431">
        <ele>10.208</ele>
        <time>2016-09-22T08:15:22Z</time>
      </trkpt>
      <trkpt lat="43.613866" lon="-8.152448">
        <ele>10.055</ele>
        <time>2016-09-22T08:15:23Z</time>
      </trkpt>
      <trkpt lat="43.613804" lon="-8.152428">
        <ele>9.859</ele>
        <time>2016-09-22T08:15:25Z</time>
      </trkpt>
      <trkpt lat="43.613744" lon="-8.152320">
        <ele>10.074</ele>
        <time>2016-09-22T08:15:28Z</time>
      </trkpt>
      <trkpt lat="43.613708" lon="-8.152239">
        <ele>10.262</ele>
        <time>2016-09-22T08:15:30Z</time>
      </trkpt>
      <trkpt lat="43.613625" lon="-8.152090">
        <ele>10.860</ele>
        <time>2016-09-22T08:15:34Z</time>
      </trkpt>
      <trkpt lat="43.613592" lon="-8.152083">
        <ele>11.210</ele>
        <time>2016-09-22T08:15:35Z</time>
      </trkpt>
      <trkpt lat="43.613560" lon="-8.152101">
        <ele>11.412</ele>
        <time>2016-09-22T08:15:36Z</time>
      </trkpt>
      <trkpt lat="43.613464" lon="-8.152187">
        <ele>11.874</ele>
        <time>2016-09-22T08:15:39Z</time>
      </trkpt>
      <trkpt lat="43.613289" lon="-8.152378">
        <ele>11.093</ele>
        <time>2016-09-22T08:15:45Z</time>
      </trkpt>
      <trkpt lat="43.613114" lon="-8.152627">
        <ele>11.065</ele>
        <time>2016-09-22T08:15:51Z</time>
      </trkpt>
      <trkpt lat="43.612945" lon="-8.152922">
        <ele>10.821</ele>
        <time>2016-09-22T08:15:57Z</time>
      </trkpt>
      <trkpt lat="43.612888" lon="-8.153027">
        <ele>10.808</ele>
        <time>2016-09-22T08:15:59Z</time>
      </trkpt>
      <trkpt lat="43.612766" lon="-8.153240">
        <ele>10.460</ele>
        <time>2016-09-22T08:16:03Z</time>
      </trkpt>
      <trkpt lat="43.612570" lon="-8.153553">
        <ele>9.054</ele>
        <time>2016-09-22T08:16:09Z</time>
      </trkpt>
      <trkpt lat="43.612535" lon="-8.153603">
        <ele>8.849</ele>
        <time>2016-09-22T08:16:10Z</time>
      </trkpt>
      <trkpt lat="43.612498" lon="-8.153649">
        <ele>8.847</ele>
        <time>2016-09-22T08:16:11Z</time>
      </trkpt>
      <trkpt lat="43.612338" lon="-8.153796">
        <ele>8.075</ele>
        <time>2016-09-22T08:16:15Z</time>
      </trkpt>
      <trkpt lat="43.612229" lon="-8.153885">
        <ele>7.435</ele>
        <time>2016-09-22T08:16:19Z</time>
      </trkpt>
      <trkpt lat="43.611998" lon="-8.154061">
        <ele>7.677</ele>
        <time>2016-09-22T08:16:25Z</time>
      </trkpt>
      <trkpt lat="43.611662" lon="-8.154326">
        <ele>7.649</ele>
        <time>2016-09-22T08:16:33Z</time>
      </trkpt>
      <trkpt lat="43.611229" lon="-8.154667">
        <ele>7.615</ele>
        <time>2016-09-22T08:16:43Z</time>
      </trkpt>
      <trkpt lat="43.610966" lon="-8.154878">
        <ele>7.465</ele>
        <time>2016-09-22T08:16:49Z</time>
      </trkpt>
      <trkpt lat="43.610873" lon="-8.154926">
        <ele>7.411</ele>
        <time>2016-09-22T08:16:51Z</time>
      </trkpt>
      <trkpt lat="43.610668" lon="-8.154988">
        <ele>6.808</ele>
        <time>2016-09-22T08:16:55Z</time>
      </trkpt>
      <trkpt lat="43.610511" lon="-8.155015">
        <ele>6.642</ele>
        <time>2016-09-22T08:16:58Z</time>
      </trkpt>
      <trkpt lat="43.610206" lon="-8.155055">
        <ele>6.016</ele>
        <time>2016-09-22T08:17:04Z</time>
      </trkpt>
      <trkpt lat="43.609957" lon="-8.155094">
        <ele>5.661</ele>
        <time>2016-09-22T08:17:09Z</time>
      </trkpt>
      <trkpt lat="43.609578" lon="-8.155127">
        <ele>5.889</ele>
        <time>2016-09-22T08:17:17Z</time>
      </trkpt>
      <trkpt lat="43.609536" lon="-8.155119">
        <ele>5.637</ele>
        <time>2016-09-22T08:17:18Z</time>
      </trkpt>
      <trkpt lat="43.609454" lon="-8.155102">
        <ele>5.857</ele>
        <time>2016-09-22T08:17:20Z</time>
      </trkpt>
      <trkpt lat="43.609240" lon="-8.155055">
        <ele>5.829</ele>
        <time>2016-09-22T08:17:25Z</time>
      </trkpt>
      <trkpt lat="43.608839" lon="-8.154943">
        <ele>6.071</ele>
        <time>2016-09-22T08:17:34Z</time>
      </trkpt>
      <trkpt lat="43.608510" lon="-8.154856">
        <ele>5.493</ele>
        <time>2016-09-22T08:17:41Z</time>
      </trkpt>
      <trkpt lat="43.608180" lon="-8.154740">
        <ele>5.865</ele>
        <time>2016-09-22T08:17:48Z</time>
      </trkpt>
      <trkpt lat="43.607769" lon="-8.154587">
        <ele>5.221</ele>
        <time>2016-09-22T08:17:57Z</time>
      </trkpt>
      <trkpt lat="43.607501" lon="-8.154484">
        <ele>5.408</ele>
        <time>2016-09-22T08:18:03Z</time>
      </trkpt>
      <trkpt lat="43.607406" lon="-8.154485">
        <ele>6.010</ele>
        <time>2016-09-22T08:18:05Z</time>
      </trkpt>
      <trkpt lat="43.607311" lon="-8.154501">
        <ele>6.264</ele>
        <time>2016-09-22T08:18:07Z</time>
      </trkpt>
      <trkpt lat="43.607179" lon="-8.154546">
        <ele>5.889</ele>
        <time>2016-09-22T08:18:10Z</time>
      </trkpt>
      <trkpt lat="43.607087" lon="-8.154562">
        <ele>5.857</ele>
        <time>2016-09-22T08:18:12Z</time>
      </trkpt>
      <trkpt lat="43.607000" lon="-8.154616">
        <ele>5.645</ele>
        <time>2016-09-22T08:18:14Z</time>
      </trkpt>
      <trkpt lat="43.606606" lon="-8.154866">
        <ele>5.625</ele>
        <time>2016-09-22T08:18:23Z</time>
      </trkpt>
      <trkpt lat="43.606327" lon="-8.154916">
        <ele>5.437</ele>
        <time>2016-09-22T08:18:29Z</time>
      </trkpt>
      <trkpt lat="43.606188" lon="-8.154915">
        <ele>5.489</ele>
        <time>2016-09-22T08:18:34Z</time>
      </trkpt>
      <trkpt lat="43.606174" lon="-8.154916">
        <ele>5.435</ele>
        <time>2016-09-22T08:18:37Z</time>
      </trkpt>
      <trkpt lat="43.606153" lon="-8.154937">
        <ele>5.286</ele>
        <time>2016-09-22T08:19:21Z</time>
      </trkpt>
      <trkpt lat="43.605992" lon="-8.154944">
        <ele>5.214</ele>
        <time>2016-09-22T08:19:26Z</time>
      </trkpt>
      <trkpt lat="43.605678" lon="-8.154967">
        <ele>5.208</ele>
        <time>2016-09-22T08:19:33Z</time>
      </trkpt>
      <trkpt lat="43.605390" lon="-8.155003">
        <ele>5.454</ele>
        <time>2016-09-22T08:19:39Z</time>
      </trkpt>
      <trkpt lat="43.605037" lon="-8.155041">
        <ele>5.228</ele>
        <time>2016-09-22T08:19:46Z</time>
      </trkpt>
      <trkpt lat="43.604578" lon="-8.155079">
        <ele>5.483</ele>
        <time>2016-09-22T08:19:55Z</time>
      </trkpt>
      <trkpt lat="43.604422" lon="-8.155081">
        <ele>5.481</ele>
        <time>2016-09-22T08:19:59Z</time>
      </trkpt>
      <trkpt lat="43.604410" lon="-8.155082">
        <ele>5.219</ele>
        <time>2016-09-22T08:20:02Z</time>
      </trkpt>
      <trkpt lat="43.604351" lon="-8.155086">
        <ele>5.029</ele>
        <time>2016-09-22T08:20:25Z</time>
      </trkpt>
      <trkpt lat="43.604208" lon="-8.155078">
        <ele>5.061</ele>
        <time>2016-09-22T08:20:29Z</time>
      </trkpt>
      <trkpt lat="43.603921" lon="-8.155036">
        <ele>5.073</ele>
        <time>2016-09-22T08:20:35Z</time>
      </trkpt>
      <trkpt lat="43.603594" lon="-8.154980">
        <ele>5.049</ele>
        <time>2016-09-22T08:20:41Z</time>
      </trkpt>
      <trkpt lat="43.603333" lon="-8.154926">
        <ele>4.802</ele>
        <time>2016-09-22T08:20:46Z</time>
      </trkpt>
      <trkpt lat="43.603088" lon="-8.154879">
        <ele>5.222</ele>
        <time>2016-09-22T08:20:51Z</time>
      </trkpt>
      <trkpt lat="43.602988" lon="-8.154868">
        <ele>5.008</ele>
        <time>2016-09-22T08:20:53Z</time>
      </trkpt>
      <trkpt lat="43.602889" lon="-8.154853">
        <ele>4.875</ele>
        <time>2016-09-22T08:20:55Z</time>
      </trkpt>
      <trkpt lat="43.602601" lon="-8.154785">
        <ele>4.819</ele>
        <time>2016-09-22T08:21:00Z</time>
      </trkpt>
      <trkpt lat="43.602477" lon="-8.154756">
        <ele>5.044</ele>
        <time>2016-09-22T08:21:02Z</time>
      </trkpt>
      <trkpt lat="43.602296" lon="-8.154732">
        <ele>5.082</ele>
        <time>2016-09-22T08:21:05Z</time>
      </trkpt>
      <trkpt lat="43.602188" lon="-8.154710">
        <ele>5.030</ele>
        <time>2016-09-22T08:21:07Z</time>
      </trkpt>
      <trkpt lat="43.602078" lon="-8.154686">
        <ele>5.010</ele>
        <time>2016-09-22T08:21:09Z</time>
      </trkpt>
      <trkpt lat="43.601709" lon="-8.154622">
        <ele>5.432</ele>
        <time>2016-09-22T08:21:15Z</time>
      </trkpt>
      <trkpt lat="43.601531" lon="-8.154582">
        <ele>5.834</ele>
        <time>2016-09-22T08:21:18Z</time>
      </trkpt>
      <trkpt lat="43.601481" lon="-8.154556">
        <ele>5.869</ele>
        <time>2016-09-22T08:21:19Z</time>
      </trkpt>
      <trkpt lat="43.601192" lon="-8.154485">
        <ele>5.404</ele>
        <time>2016-09-22T08:21:24Z</time>
      </trkpt>
      <trkpt lat="43.600879" lon="-8.154409">
        <ele>5.424</ele>
        <time>2016-09-22T08:21:29Z</time>
      </trkpt>
      <trkpt lat="43.600610" lon="-8.154343">
        <ele>5.208</ele>
        <time>2016-09-22T08:21:34Z</time>
      </trkpt>
      <trkpt lat="43.600556" lon="-8.154330">
        <ele>5.477</ele>
        <time>2016-09-22T08:21:35Z</time>
      </trkpt>
      <trkpt lat="43.600261" lon="-8.154270">
        <ele>5.061</ele>
        <time>2016-09-22T08:21:40Z</time>
      </trkpt>
      <trkpt lat="43.599941" lon="-8.154210">
        <ele>5.266</ele>
        <time>2016-09-22T08:21:46Z</time>
      </trkpt>
      <trkpt lat="43.599881" lon="-8.154203">
        <ele>5.294</ele>
        <time>2016-09-22T08:21:47Z</time>
      </trkpt>
      <trkpt lat="43.599722" lon="-8.154160">
        <ele>5.422</ele>
        <time>2016-09-22T08:21:50Z</time>
      </trkpt>
      <trkpt lat="43.599607" lon="-8.154141">
        <ele>5.452</ele>
        <time>2016-09-22T08:21:52Z</time>
      </trkpt>
      <trkpt lat="43.599492" lon="-8.154144">
        <ele>5.474</ele>
        <time>2016-09-22T08:21:54Z</time>
      </trkpt>
      <trkpt lat="43.599147" lon="-8.154107">
        <ele>6.286</ele>
        <time>2016-09-22T08:22:00Z</time>
      </trkpt>
      <trkpt lat="43.599039" lon="-8.154104">
        <ele>6.447</ele>
        <time>2016-09-22T08:22:02Z</time>
      </trkpt>
      <trkpt lat="43.598865" lon="-8.154098">
        <ele>6.229</ele>
        <time>2016-09-22T08:22:05Z</time>
      </trkpt>
      <trkpt lat="43.598564" lon="-8.154046">
        <ele>6.021</ele>
        <time>2016-09-22T08:22:10Z</time>
      </trkpt>
      <trkpt lat="43.598427" lon="-8.154034">
        <ele>6.408</ele>
        <time>2016-09-22T08:22:12Z</time>
      </trkpt>
      <trkpt lat="43.598302" lon="-8.154033">
        <ele>6.885</ele>
        <time>2016-09-22T08:22:14Z</time>
      </trkpt>
      <trkpt lat="43.598239" lon="-8.154031">
        <ele>6.819</ele>
        <time>2016-09-22T08:22:15Z</time>
      </trkpt>
      <trkpt lat="43.598070" lon="-8.154018">
        <ele>7.444</ele>
        <time>2016-09-22T08:22:18Z</time>
      </trkpt>
      <trkpt lat="43.597941" lon="-8.153984">
        <ele>7.642</ele>
        <time>2016-09-22T08:22:20Z</time>
      </trkpt>
      <trkpt lat="43.597744" lon="-8.153978">
        <ele>7.460</ele>
        <time>2016-09-22T08:22:23Z</time>
      </trkpt>
      <trkpt lat="43.597677" lon="-8.153971">
        <ele>7.270</ele>
        <time>2016-09-22T08:22:24Z</time>
      </trkpt>
      <trkpt lat="43.597136" lon="-8.153924">
        <ele>7.222</ele>
        <time>2016-09-22T08:22:32Z</time>
      </trkpt>
      <trkpt lat="43.596742" lon="-8.153945">
        <ele>7.064</ele>
        <time>2016-09-22T08:22:38Z</time>
      </trkpt>
      <trkpt lat="43.596490" lon="-8.153993">
        <ele>7.693</ele>
        <time>2016-09-22T08:22:42Z</time>
      </trkpt>
      <trkpt lat="43.596383" lon="-8.154070">
        <ele>7.465</ele>
        <time>2016-09-22T08:22:44Z</time>
      </trkpt>
      <trkpt lat="43.596288" lon="-8.154264">
        <ele>7.221</ele>
        <time>2016-09-22T08:22:47Z</time>
      </trkpt>
      <trkpt lat="43.596280" lon="-8.154425">
        <ele>7.008</ele>
        <time>2016-09-22T08:22:49Z</time>
      </trkpt>
      <trkpt lat="43.596280" lon="-8.154589">
        <ele>6.870</ele>
        <time>2016-09-22T08:22:51Z</time>
      </trkpt>
      <trkpt lat="43.596256" lon="-8.155253">
        <ele>7.254</ele>
        <time>2016-09-22T08:22:59Z</time>
      </trkpt>
      <trkpt lat="43.596249" lon="-8.155828">
        <ele>7.859</ele>
        <time>2016-09-22T08:23:06Z</time>
      </trkpt>
      <trkpt lat="43.596248" lon="-8.155912">
        <ele>7.897</ele>
        <time>2016-09-22T08:23:07Z</time>
      </trkpt>
      <trkpt lat="43.596237" lon="-8.156332">
        <ele>8.025</ele>
        <time>2016-09-22T08:23:12Z</time>
      </trkpt>
      <trkpt lat="43.596220" lon="-8.156911">
        <ele>8.645</ele>
        <time>2016-09-22T08:23:19Z</time>
      </trkpt>
      <trkpt lat="43.596218" lon="-8.156991">
        <ele>8.627</ele>
        <time>2016-09-22T08:23:20Z</time>
      </trkpt>
      <trkpt lat="43.596152" lon="-8.157699">
        <ele>9.879</ele>
        <time>2016-09-22T08:23:29Z</time>
      </trkpt>
      <trkpt lat="43.596139" lon="-8.157774">
        <ele>10.051</ele>
        <time>2016-09-22T08:23:30Z</time>
      </trkpt>
      <trkpt lat="43.596102" lon="-8.157997">
        <ele>10.801</ele>
        <time>2016-09-22T08:23:33Z</time>
      </trkpt>
      <trkpt lat="43.596011" lon="-8.158433">
        <ele>11.811</ele>
        <time>2016-09-22T08:23:39Z</time>
      </trkpt>
      <trkpt lat="43.595997" lon="-8.158501">
        <ele>12.008</ele>
        <time>2016-09-22T08:23:40Z</time>
      </trkpt>
      <trkpt lat="43.595939" lon="-8.158764">
        <ele>12.496</ele>
        <time>2016-09-22T08:23:45Z</time>
      </trkpt>
      <trkpt lat="43.595924" lon="-8.158842">
        <ele>12.410</ele>
        <time>2016-09-22T08:23:49Z</time>
      </trkpt>
      <trkpt lat="43.595925" lon="-8.158845">
        <ele>12.475</ele>
        <time>2016-09-22T08:23:50Z</time>
      </trkpt>
      <trkpt lat="43.595901" lon="-8.158938">
        <ele>12.243</ele>
        <time>2016-09-22T08:25:04Z</time>
      </trkpt>
      <trkpt lat="43.595886" lon="-8.159009">
        <ele>12.481</ele>
        <time>2016-09-22T08:25:06Z</time>
      </trkpt>
      <trkpt lat="43.595824" lon="-8.159291">
        <ele>12.831</ele>
        <time>2016-09-22T08:25:11Z</time>
      </trkpt>
      <trkpt lat="43.595736" lon="-8.159652">
        <ele>13.863</ele>
        <time>2016-09-22T08:25:17Z</time>
      </trkpt>
      <trkpt lat="43.595725" lon="-8.159717">
        <ele>13.895</ele>
        <time>2016-09-22T08:25:18Z</time>
      </trkpt>
      <trkpt lat="43.595712" lon="-8.159783">
        <ele>14.048</ele>
        <time>2016-09-22T08:25:19Z</time>
      </trkpt>
      <trkpt lat="43.595576" lon="-8.160392">
        <ele>14.861</ele>
        <time>2016-09-22T08:25:28Z</time>
      </trkpt>
      <trkpt lat="43.595560" lon="-8.160461">
        <ele>15.017</ele>
        <time>2016-09-22T08:25:29Z</time>
      </trkpt>
      <trkpt lat="43.595371" lon="-8.161158">
        <ele>16.208</ele>
        <time>2016-09-22T08:25:39Z</time>
      </trkpt>
      <trkpt lat="43.595297" lon="-8.161360">
        <ele>16.615</ele>
        <time>2016-09-22T08:25:42Z</time>
      </trkpt>
      <trkpt lat="43.595247" lon="-8.161502">
        <ele>16.859</ele>
        <time>2016-09-22T08:25:44Z</time>
      </trkpt>
      <trkpt lat="43.594973" lon="-8.162110">
        <ele>17.234</ele>
        <time>2016-09-22T08:25:53Z</time>
      </trkpt>
      <trkpt lat="43.594946" lon="-8.162181">
        <ele>17.262</ele>
        <time>2016-09-22T08:25:54Z</time>
      </trkpt>
      <trkpt lat="43.594682" lon="-8.162801">
        <ele>18.290</ele>
        <time>2016-09-22T08:26:03Z</time>
      </trkpt>
      <trkpt lat="43.594380" lon="-8.163480">
        <ele>18.860</ele>
        <time>2016-09-22T08:26:13Z</time>
      </trkpt>
      <trkpt lat="43.594351" lon="-8.163546">
        <ele>18.872</ele>
        <time>2016-09-22T08:26:14Z</time>
      </trkpt>
      <trkpt lat="43.594056" lon="-8.164215">
        <ele>19.294</ele>
        <time>2016-09-22T08:26:24Z</time>
      </trkpt>
      <trkpt lat="43.594024" lon="-8.164279">
        <ele>19.458</ele>
        <time>2016-09-22T08:26:25Z</time>
      </trkpt>
      <trkpt lat="43.593790" lon="-8.164815">
        <ele>20.252</ele>
        <time>2016-09-22T08:26:33Z</time>
      </trkpt>
      <trkpt lat="43.593667" lon="-8.165077">
        <ele>20.417</ele>
        <time>2016-09-22T08:26:37Z</time>
      </trkpt>
      <trkpt lat="43.593550" lon="-8.165345">
        <ele>20.808</ele>
        <time>2016-09-22T08:26:41Z</time>
      </trkpt>
      <trkpt lat="43.593345" lon="-8.165820">
        <ele>21.226</ele>
        <time>2016-09-22T08:26:48Z</time>
      </trkpt>
      <trkpt lat="43.593330" lon="-8.165970">
        <ele>21.280</ele>
        <time>2016-09-22T08:26:50Z</time>
      </trkpt>
      <trkpt lat="43.593423" lon="-8.166158">
        <ele>21.295</ele>
        <time>2016-09-22T08:26:53Z</time>
      </trkpt>
      <trkpt lat="43.593552" lon="-8.166217">
        <ele>21.263</ele>
        <time>2016-09-22T08:26:55Z</time>
      </trkpt>
      <trkpt lat="43.593696" lon="-8.166273">
        <ele>20.861</ele>
        <time>2016-09-22T08:26:57Z</time>
      </trkpt>
      <trkpt lat="43.594049" lon="-8.166412">
        <ele>19.011</ele>
        <time>2016-09-22T08:27:02Z</time>
      </trkpt>
      <trkpt lat="43.594321" lon="-8.166514">
        <ele>18.483</ele>
        <time>2016-09-22T08:27:06Z</time>
      </trkpt>
      <trkpt lat="43.594862" lon="-8.166744">
        <ele>18.485</ele>
        <time>2016-09-22T08:27:14Z</time>
      </trkpt>
      <trkpt lat="43.594928" lon="-8.166778">
        <ele>18.492</ele>
        <time>2016-09-22T08:27:15Z</time>
      </trkpt>
      <trkpt lat="43.595361" lon="-8.167076">
        <ele>19.073</ele>
        <time>2016-09-22T08:27:22Z</time>
      </trkpt>
      <trkpt lat="43.595847" lon="-8.167442">
        <ele>19.420</ele>
        <time>2016-09-22T08:27:30Z</time>
      </trkpt>
      <trkpt lat="43.595970" lon="-8.167526">
        <ele>19.408</ele>
        <time>2016-09-22T08:27:32Z</time>
      </trkpt>
      <trkpt lat="43.596368" lon="-8.167694">
        <ele>19.830</ele>
        <time>2016-09-22T08:27:38Z</time>
      </trkpt>
      <trkpt lat="43.596433" lon="-8.167717">
        <ele>20.084</ele>
        <time>2016-09-22T08:27:39Z</time>
      </trkpt>
      <trkpt lat="43.596782" lon="-8.167839">
        <ele>21.029</ele>
        <time>2016-09-22T08:27:45Z</time>
      </trkpt>
      <trkpt lat="43.596834" lon="-8.167857">
        <ele>21.287</ele>
        <time>2016-09-22T08:27:46Z</time>
      </trkpt>
      <trkpt lat="43.597028" lon="-8.167926">
        <ele>22.225</ele>
        <time>2016-09-22T08:27:50Z</time>
      </trkpt>
      <trkpt lat="43.597150" lon="-8.167975">
        <ele>23.475</ele>
        <time>2016-09-22T08:27:53Z</time>
      </trkpt>
      <trkpt lat="43.597351" lon="-8.168044">
        <ele>24.467</ele>
        <time>2016-09-22T08:27:58Z</time>
      </trkpt>
      <trkpt lat="43.597511" lon="-8.168095">
        <ele>25.439</ele>
        <time>2016-09-22T08:28:02Z</time>
      </trkpt>
      <trkpt lat="43.597635" lon="-8.168129">
        <ele>26.616</ele>
        <time>2016-09-22T08:28:05Z</time>
      </trkpt>
      <trkpt lat="43.597864" lon="-8.168200">
        <ele>27.676</ele>
        <time>2016-09-22T08:28:10Z</time>
      </trkpt>
      <trkpt lat="43.597909" lon="-8.168213">
        <ele>28.013</ele>
        <time>2016-09-22T08:28:11Z</time>
      </trkpt>
      <trkpt lat="43.598088" lon="-8.168295">
        <ele>29.008</ele>
        <time>2016-09-22T08:28:15Z</time>
      </trkpt>
      <trkpt lat="43.598221" lon="-8.168352">
        <ele>29.692</ele>
        <time>2016-09-22T08:28:18Z</time>
      </trkpt>
      <trkpt lat="43.598312" lon="-8.168389">
        <ele>30.256</ele>
        <time>2016-09-22T08:28:20Z</time>
      </trkpt>
      <trkpt lat="43.598694" lon="-8.168570">
        <ele>31.261</ele>
        <time>2016-09-22T08:28:28Z</time>
      </trkpt>
      <trkpt lat="43.599252" lon="-8.168830">
        <ele>32.019</ele>
        <time>2016-09-22T08:28:39Z</time>
      </trkpt>
      <trkpt lat="43.599675" lon="-8.169023">
        <ele>32.447</ele>
        <time>2016-09-22T08:28:47Z</time>
      </trkpt>
      <trkpt lat="43.599779" lon="-8.169057">
        <ele>32.417</ele>
        <time>2016-09-22T08:28:49Z</time>
      </trkpt>
      <trkpt lat="43.599995" lon="-8.169091">
        <ele>33.429</ele>
        <time>2016-09-22T08:28:53Z</time>
      </trkpt>
      <trkpt lat="43.600167" lon="-8.169092">
        <ele>33.621</ele>
        <time>2016-09-22T08:28:56Z</time>
      </trkpt>
      <trkpt lat="43.600544" lon="-8.168993">
        <ele>32.626</ele>
        <time>2016-09-22T08:29:02Z</time>
      </trkpt>
      <trkpt lat="43.600610" lon="-8.168953">
        <ele>32.047</ele>
        <time>2016-09-22T08:29:03Z</time>
      </trkpt>
      <trkpt lat="43.600895" lon="-8.168763">
        <ele>31.211</ele>
        <time>2016-09-22T08:29:07Z</time>
      </trkpt>
      <trkpt lat="43.600972" lon="-8.168710">
        <ele>30.608</ele>
        <time>2016-09-22T08:29:08Z</time>
      </trkpt>
      <trkpt lat="43.601131" lon="-8.168599">
        <ele>29.283</ele>
        <time>2016-09-22T08:29:10Z</time>
      </trkpt>
      <trkpt lat="43.601296" lon="-8.168494">
        <ele>28.067</ele>
        <time>2016-09-22T08:29:12Z</time>
      </trkpt>
      <trkpt lat="43.601467" lon="-8.168408">
        <ele>26.872</ele>
        <time>2016-09-22T08:29:14Z</time>
      </trkpt>
      <trkpt lat="43.601732" lon="-8.168344">
        <ele>25.420</ele>
        <time>2016-09-22T08:29:17Z</time>
      </trkpt>
      <trkpt lat="43.601819" lon="-8.168334">
        <ele>25.038</ele>
        <time>2016-09-22T08:29:18Z</time>
      </trkpt>
      <trkpt lat="43.602140" lon="-8.168311">
        <ele>24.258</ele>
        <time>2016-09-22T08:29:22Z</time>
      </trkpt>
      <trkpt lat="43.602365" lon="-8.168299">
        <ele>24.050</ele>
        <time>2016-09-22T08:29:25Z</time>
      </trkpt>
      <trkpt lat="43.602635" lon="-8.168307">
        <ele>25.412</ele>
        <time>2016-09-22T08:29:29Z</time>
      </trkpt>
      <trkpt lat="43.602761" lon="-8.168331">
        <ele>26.018</ele>
        <time>2016-09-22T08:29:31Z</time>
      </trkpt>
      <trkpt lat="43.602821" lon="-8.168354">
        <ele>26.498</ele>
        <time>2016-09-22T08:29:32Z</time>
      </trkpt>
      <trkpt lat="43.603058" lon="-8.168491">
        <ele>27.417</ele>
        <time>2016-09-22T08:29:36Z</time>
      </trkpt>
      <trkpt lat="43.603451" lon="-8.168785">
        <ele>28.008</ele>
        <time>2016-09-22T08:29:43Z</time>
      </trkpt>
      <trkpt lat="43.603933" lon="-8.169139">
        <ele>27.822</ele>
        <time>2016-09-22T08:29:51Z</time>
      </trkpt>
      <trkpt lat="43.604333" lon="-8.169330">
        <ele>26.826</ele>
        <time>2016-09-22T08:29:57Z</time>
      </trkpt>
      <trkpt lat="43.604677" lon="-8.169434">
        <ele>26.261</ele>
        <time>2016-09-22T08:30:02Z</time>
      </trkpt>
      <trkpt lat="43.604886" lon="-8.169489">
        <ele>25.889</ele>
        <time>2016-09-22T08:30:05Z</time>
      </trkpt>
      <trkpt lat="43.605088" lon="-8.169543">
        <ele>25.277</ele>
        <time>2016-09-22T08:30:08Z</time>
      </trkpt>
      <trkpt lat="43.605290" lon="-8.169601">
        <ele>24.877</ele>
        <time>2016-09-22T08:30:11Z</time>
      </trkpt>
      <trkpt lat="43.605627" lon="-8.169700">
        <ele>24.019</ele>
        <time>2016-09-22T08:30:16Z</time>
      </trkpt>
      <trkpt lat="43.605832" lon="-8.169777">
        <ele>23.451</ele>
        <time>2016-09-22T08:30:19Z</time>
      </trkpt>
      <trkpt lat="43.605974" lon="-8.169810">
        <ele>23.463</ele>
        <time>2016-09-22T08:30:21Z</time>
      </trkpt>
      <trkpt lat="43.606255" lon="-8.169882">
        <ele>22.844</ele>
        <time>2016-09-22T08:30:25Z</time>
      </trkpt>
      <trkpt lat="43.606469" lon="-8.169952">
        <ele>22.218</ele>
        <time>2016-09-22T08:30:28Z</time>
      </trkpt>
      <trkpt lat="43.606688" lon="-8.170037">
        <ele>21.608</ele>
        <time>2016-09-22T08:30:31Z</time>
      </trkpt>
      <trkpt lat="43.606921" lon="-8.170137">
        <ele>20.287</ele>
        <time>2016-09-22T08:30:34Z</time>
      </trkpt>
      <trkpt lat="43.606988" lon="-8.170164">
        <ele>19.831</ele>
        <time>2016-09-22T08:30:35Z</time>
      </trkpt>
      <trkpt lat="43.607073" lon="-8.170178">
        <ele>18.416</ele>
        <time>2016-09-22T08:30:37Z</time>
      </trkpt>
      <trkpt lat="43.607102" lon="-8.170168">
        <ele>18.084</ele>
        <time>2016-09-22T08:30:38Z</time>
      </trkpt>
      <trkpt lat="43.607154" lon="-8.170103">
        <ele>17.212</ele>
        <time>2016-09-22T08:30:40Z</time>
      </trkpt>
      <trkpt lat="43.607223" lon="-8.170046">
        <ele>17.042</ele>
        <time>2016-09-22T08:30:42Z</time>
      </trkpt>
      <trkpt lat="43.607260" lon="-8.170024">
        <ele>16.844</ele>
        <time>2016-09-22T08:30:43Z</time>
      </trkpt>
      <trkpt lat="43.607297" lon="-8.169997">
        <ele>16.896</ele>
        <time>2016-09-22T08:30:44Z</time>
      </trkpt>
      <trkpt lat="43.607427" lon="-8.169864">
        <ele>16.447</ele>
        <time>2016-09-22T08:30:48Z</time>
      </trkpt>
      <trkpt lat="43.607493" lon="-8.169809">
        <ele>15.829</ele>
        <time>2016-09-22T08:30:50Z</time>
      </trkpt>
      <trkpt lat="43.607526" lon="-8.169775">
        <ele>15.621</ele>
        <time>2016-09-22T08:30:51Z</time>
      </trkpt>
      <trkpt lat="43.607587" lon="-8.169691">
        <ele>14.808</ele>
        <time>2016-09-22T08:30:53Z</time>
      </trkpt>
      <trkpt lat="43.607785" lon="-8.169493">
        <ele>14.255</ele>
        <time>2016-09-22T08:30:59Z</time>
      </trkpt>
      <trkpt lat="43.607880" lon="-8.169423">
        <ele>13.659</ele>
        <time>2016-09-22T08:31:02Z</time>
      </trkpt>
      <trkpt lat="43.607937" lon="-8.169402">
        <ele>13.224</ele>
        <time>2016-09-22T08:31:04Z</time>
      </trkpt>
      <trkpt lat="43.608040" lon="-8.169356">
        <ele>12.682</ele>
        <time>2016-09-22T08:31:08Z</time>
      </trkpt>
      <trkpt lat="43.608104" lon="-8.169315">
        <ele>12.270</ele>
        <time>2016-09-22T08:31:10Z</time>
      </trkpt>
      <trkpt lat="43.608142" lon="-8.169283">
        <ele>11.850</ele>
        <time>2016-09-22T08:31:11Z</time>
      </trkpt>
      <trkpt lat="43.608180" lon="-8.169241">
        <ele>11.682</ele>
        <time>2016-09-22T08:31:12Z</time>
      </trkpt>
      <trkpt lat="43.608267" lon="-8.169160">
        <ele>11.274</ele>
        <time>2016-09-22T08:31:14Z</time>
      </trkpt>
      <trkpt lat="43.608360" lon="-8.169086">
        <ele>10.686</ele>
        <time>2016-09-22T08:31:16Z</time>
      </trkpt>
      <trkpt lat="43.608408" lon="-8.169041">
        <ele>10.060</ele>
        <time>2016-09-22T08:31:17Z</time>
      </trkpt>
      <trkpt lat="43.608493" lon="-8.168945">
        <ele>9.226</ele>
        <time>2016-09-22T08:31:19Z</time>
      </trkpt>
      <trkpt lat="43.608535" lon="-8.168907">
        <ele>8.608</ele>
        <time>2016-09-22T08:31:20Z</time>
      </trkpt>
      <trkpt lat="43.608601" lon="-8.168850">
        <ele>8.059</ele>
        <time>2016-09-22T08:31:22Z</time>
      </trkpt>
      <trkpt lat="43.608627" lon="-8.168830">
        <ele>7.823</ele>
        <time>2016-09-22T08:31:23Z</time>
      </trkpt>
      <trkpt lat="43.608647" lon="-8.168812">
        <ele>7.648</ele>
        <time>2016-09-22T08:31:24Z</time>
      </trkpt>
      <trkpt lat="43.608661" lon="-8.168796">
        <ele>7.096</ele>
        <time>2016-09-22T08:31:25Z</time>
      </trkpt>
      <trkpt lat="43.608674" lon="-8.168791">
        <ele>6.844</ele>
        <time>2016-09-22T08:31:26Z</time>
      </trkpt>
      <trkpt lat="43.608698" lon="-8.168798">
        <ele>6.474</ele>
        <time>2016-09-22T08:31:28Z</time>
      </trkpt>
      <trkpt lat="43.608746" lon="-8.168811">
        <ele>6.086</ele>
        <time>2016-09-22T08:31:31Z</time>
      </trkpt>
      <trkpt lat="43.608752" lon="-8.168853">
        <ele>6.088</ele>
        <time>2016-09-22T08:31:33Z</time>
      </trkpt>
      <trkpt lat="43.608733" lon="-8.168898">
        <ele>5.885</ele>
        <time>2016-09-22T08:31:35Z</time>
      </trkpt>
      <trkpt lat="43.608720" lon="-8.169006">
        <ele>5.889</ele>
        <time>2016-09-22T08:31:38Z</time>
      </trkpt>
      <trkpt lat="43.608673" lon="-8.169271">
        <ele>6.417</ele>
        <time>2016-09-22T08:31:44Z</time>
      </trkpt>
      <trkpt lat="43.608668" lon="-8.169506">
        <ele>6.608</ele>
        <time>2016-09-22T08:31:49Z</time>
      </trkpt>
      <trkpt lat="43.608660" lon="-8.169551">
        <ele>6.869</ele>
        <time>2016-09-22T08:31:50Z</time>
      </trkpt>
      <trkpt lat="43.608609" lon="-8.169732">
        <ele>7.463</ele>
        <time>2016-09-22T08:31:55Z</time>
      </trkpt>
      <trkpt lat="43.608604" lon="-8.169765">
        <ele>7.488</ele>
        <time>2016-09-22T08:31:56Z</time>
      </trkpt>
      <trkpt lat="43.608622" lon="-8.169819">
        <ele>7.446</ele>
        <time>2016-09-22T08:31:59Z</time>
      </trkpt>
      <trkpt lat="43.608626" lon="-8.169819">
        <ele>7.444</ele>
        <time>2016-09-22T08:32:01Z</time>
      </trkpt>
      <trkpt lat="43.608657" lon="-8.169835">
        <ele>7.234</ele>
        <time>2016-09-22T08:32:05Z</time>
      </trkpt>
      <trkpt lat="43.608681" lon="-8.169840">
        <ele>7.046</ele>
        <time>2016-09-22T08:32:06Z</time>
      </trkpt>
      <trkpt lat="43.608790" lon="-8.169915">
        <ele>7.088</ele>
        <time>2016-09-22T08:32:10Z</time>
      </trkpt>
      <trkpt lat="43.608992" lon="-8.169926">
        <ele>6.626</ele>
        <time>2016-09-22T08:32:15Z</time>
      </trkpt>
      <trkpt lat="43.609196" lon="-8.169833">
        <ele>6.047</ele>
        <time>2016-09-22T08:32:20Z</time>
      </trkpt>
      <trkpt lat="43.609273" lon="-8.169780">
        <ele>5.811</ele>
        <time>2016-09-22T08:32:22Z</time>
      </trkpt>
      <trkpt lat="43.609422" lon="-8.169713">
        <ele>5.408</ele>
        <time>2016-09-22T08:32:26Z</time>
      </trkpt>
      <trkpt lat="43.609636" lon="-8.169659">
        <ele>5.243</ele>
        <time>2016-09-22T08:32:31Z</time>
      </trkpt>
      <trkpt lat="43.609731" lon="-8.169644">
        <ele>4.817</ele>
        <time>2016-09-22T08:32:33Z</time>
      </trkpt>
      <trkpt lat="43.609871" lon="-8.169599">
        <ele>4.862</ele>
        <time>2016-09-22T08:32:36Z</time>
      </trkpt>
      <trkpt lat="43.609998" lon="-8.169562">
        <ele>5.060</ele>
        <time>2016-09-22T08:32:39Z</time>
      </trkpt>
      <trkpt lat="43.610038" lon="-8.169558">
        <ele>5.218</ele>
        <time>2016-09-22T08:32:40Z</time>
      </trkpt>
      <trkpt lat="43.610182" lon="-8.169536">
        <ele>5.858</ele>
        <time>2016-09-22T08:32:44Z</time>
      </trkpt>
      <trkpt lat="43.610206" lon="-8.169524">
        <ele>5.860</ele>
        <time>2016-09-22T08:32:45Z</time>
      </trkpt>
      <trkpt lat="43.610278" lon="-8.169480">
        <ele>5.252</ele>
        <time>2016-09-22T08:32:50Z</time>
      </trkpt>
      <trkpt lat="43.610285" lon="-8.169480">
        <ele>4.879</ele>
        <time>2016-09-22T08:32:52Z</time>
      </trkpt>
      <trkpt lat="43.610553" lon="-8.169414">
        <ele>5.205</ele>
        <time>2016-09-22T08:33:50Z</time>
      </trkpt>
      <trkpt lat="43.610567" lon="-8.169408">
        <ele>5.225</ele>
        <time>2016-09-22T08:33:51Z</time>
      </trkpt>
      <trkpt lat="43.610678" lon="-8.169382">
        <ele>5.408</ele>
        <time>2016-09-22T08:33:58Z</time>
      </trkpt>
      <trkpt lat="43.610728" lon="-8.169356">
        <ele>5.268</ele>
        <time>2016-09-22T08:34:02Z</time>
      </trkpt>
      <trkpt lat="43.610731" lon="-8.169357">
        <ele>5.062</ele>
        <time>2016-09-22T08:34:03Z</time>
      </trkpt>
      <trkpt lat="43.610732" lon="-8.169357">
        <ele>4.887</ele>
        <time>2016-09-22T08:34:04Z</time>
      </trkpt>
      <trkpt lat="43.610552" lon="-8.169431">
        <ele>4.625</ele>
        <time>2016-09-22T08:36:33Z</time>
      </trkpt>
      <trkpt lat="43.610519" lon="-8.169438">
        <ele>4.423</ele>
        <time>2016-09-22T08:36:35Z</time>
      </trkpt>
      <trkpt lat="43.610410" lon="-8.169453">
        <ele>4.053</ele>
        <time>2016-09-22T08:36:40Z</time>
      </trkpt>
      <trkpt lat="43.610367" lon="-8.169459">
        <ele>3.625</ele>
        <time>2016-09-22T08:36:43Z</time>
      </trkpt>
      <trkpt lat="43.610309" lon="-8.169481">
        <ele>3.267</ele>
        <time>2016-09-22T08:36:47Z</time>
      </trkpt>
      <trkpt lat="43.610190" lon="-8.169540">
        <ele>3.466</ele>
        <time>2016-09-22T08:36:53Z</time>
      </trkpt>
      <trkpt lat="43.610013" lon="-8.169581">
        <ele>4.629</ele>
        <time>2016-09-22T08:36:59Z</time>
      </trkpt>
      <trkpt lat="43.609977" lon="-8.169587">
        <ele>4.621</ele>
        <time>2016-09-22T08:37:00Z</time>
      </trkpt>
      <trkpt lat="43.609735" lon="-8.169650">
        <ele>4.408</ele>
        <time>2016-09-22T08:37:05Z</time>
      </trkpt>
      <trkpt lat="43.609623" lon="-8.169674">
        <ele>3.697</ele>
        <time>2016-09-22T08:37:07Z</time>
      </trkpt>
      <trkpt lat="43.609373" lon="-8.169736">
        <ele>3.871</ele>
        <time>2016-09-22T08:37:12Z</time>
      </trkpt>
      <trkpt lat="43.609140" lon="-8.169861">
        <ele>4.686</ele>
        <time>2016-09-22T08:37:17Z</time>
      </trkpt>
      <trkpt lat="43.609092" lon="-8.169882">
        <ele>4.664</ele>
        <time>2016-09-22T08:37:18Z</time>
      </trkpt>
      <trkpt lat="43.608945" lon="-8.169936">
        <ele>4.872</ele>
        <time>2016-09-22T08:37:21Z</time>
      </trkpt>
      <trkpt lat="43.608897" lon="-8.169935">
        <ele>4.892</ele>
        <time>2016-09-22T08:37:22Z</time>
      </trkpt>
      <trkpt lat="43.608849" lon="-8.169931">
        <ele>4.864</ele>
        <time>2016-09-22T08:37:23Z</time>
      </trkpt>
      <trkpt lat="43.608696" lon="-8.169869">
        <ele>5.286</ele>
        <time>2016-09-22T08:37:27Z</time>
      </trkpt>
      <trkpt lat="43.608542" lon="-8.169834">
        <ele>5.644</ele>
        <time>2016-09-22T08:37:31Z</time>
      </trkpt>
      <trkpt lat="43.608506" lon="-8.169841">
        <ele>5.805</ele>
        <time>2016-09-22T08:37:32Z</time>
      </trkpt>
      <trkpt lat="43.608406" lon="-8.169896">
        <ele>6.815</ele>
        <time>2016-09-22T08:37:35Z</time>
      </trkpt>
      <trkpt lat="43.608267" lon="-8.169945">
        <ele>7.808</ele>
        <time>2016-09-22T08:37:40Z</time>
      </trkpt>
      <trkpt lat="43.608241" lon="-8.169940">
        <ele>8.245</ele>
        <time>2016-09-22T08:37:41Z</time>
      </trkpt>
      <trkpt lat="43.608132" lon="-8.169916">
        <ele>8.879</ele>
        <time>2016-09-22T08:37:45Z</time>
      </trkpt>
      <trkpt lat="43.608104" lon="-8.169915">
        <ele>9.264</ele>
        <time>2016-09-22T08:37:46Z</time>
      </trkpt>
      <trkpt lat="43.607988" lon="-8.169941">
        <ele>10.242</ele>
        <time>2016-09-22T08:37:50Z</time>
      </trkpt>
      <trkpt lat="43.607876" lon="-8.169988">
        <ele>11.260</ele>
        <time>2016-09-22T08:37:54Z</time>
      </trkpt>
      <trkpt lat="43.607849" lon="-8.170004">
        <ele>11.690</ele>
        <time>2016-09-22T08:37:55Z</time>
      </trkpt>
      <trkpt lat="43.607777" lon="-8.170066">
        <ele>12.672</ele>
        <time>2016-09-22T08:37:58Z</time>
      </trkpt>
      <trkpt lat="43.607693" lon="-8.170162">
        <ele>13.624</ele>
        <time>2016-09-22T08:38:02Z</time>
      </trkpt>
      <trkpt lat="43.607597" lon="-8.170202">
        <ele>14.839</ele>
        <time>2016-09-22T08:38:06Z</time>
      </trkpt>
      <trkpt lat="43.607571" lon="-8.170213">
        <ele>15.201</ele>
        <time>2016-09-22T08:38:07Z</time>
      </trkpt>
      <trkpt lat="43.607446" lon="-8.170223">
        <ele>16.021</ele>
        <time>2016-09-22T08:38:11Z</time>
      </trkpt>
      <trkpt lat="43.607383" lon="-8.170220">
        <ele>16.008</ele>
        <time>2016-09-22T08:38:13Z</time>
      </trkpt>
      <trkpt lat="43.607112" lon="-8.170232">
        <ele>15.054</ele>
        <time>2016-09-22T08:38:21Z</time>
      </trkpt>
      <trkpt lat="43.607095" lon="-8.170263">
        <ele>14.858</ele>
        <time>2016-09-22T08:38:22Z</time>
      </trkpt>
      <trkpt lat="43.606713" lon="-8.170109">
        <ele>17.033</ele>
        <time>2016-09-22T08:40:23Z</time>
      </trkpt>
      <trkpt lat="43.606563" lon="-8.170050">
        <ele>18.271</ele>
        <time>2016-09-22T08:40:28Z</time>
      </trkpt>
      <trkpt lat="43.606473" lon="-8.170016">
        <ele>18.899</ele>
        <time>2016-09-22T08:40:31Z</time>
      </trkpt>
      <trkpt lat="43.606287" lon="-8.169954">
        <ele>19.269</ele>
        <time>2016-09-22T08:40:37Z</time>
      </trkpt>
      <trkpt lat="43.606193" lon="-8.169921">
        <ele>19.891</ele>
        <time>2016-09-22T08:40:40Z</time>
      </trkpt>
      <trkpt lat="43.606064" lon="-8.169870">
        <ele>20.443</ele>
        <time>2016-09-22T08:40:44Z</time>
      </trkpt>
      <trkpt lat="43.605961" lon="-8.169851">
        <ele>20.683</ele>
        <time>2016-09-22T08:40:47Z</time>
      </trkpt>
      <trkpt lat="43.605897" lon="-8.169842">
        <ele>23.125</ele>
        <time>2016-10-12T20:08:16Z</time>
      </trkpt>
      <trkpt lat="43.605803" lon="-8.169842">
        <ele>23.417</ele>
        <time>2016-10-12T20:08:36Z</time>
      </trkpt>
      <trkpt lat="43.605797" lon="-8.169842">
        <ele>23.508</ele>
        <time>2016-10-12T20:08:56Z</time>
      </trkpt>
      <trkpt lat="43.605652" lon="-8.169779">
        <ele>24.059</ele>
        <time>2016-10-12T20:09:16Z</time>
      </trkpt>
      <trkpt lat="43.605633" lon="-8.169779">
        <ele>24.113</ele>
        <time>2016-10-12T20:09:36Z</time>
      </trkpt>
      <trkpt lat="43.605444" lon="-8.169725">
        <ele>24.748</ele>
        <time>2016-10-12T20:09:56Z</time>
      </trkpt>
      <trkpt lat="43.605438" lon="-8.169725">
        <ele>24.776</ele>
        <time>2016-10-12T20:10:16Z</time>
      </trkpt>
      <trkpt lat="43.605237" lon="-8.169671">
        <ele>25.444</ele>
        <time>2016-10-12T20:10:36Z</time>
      </trkpt>
      <trkpt lat="43.605212" lon="-8.169648">
        <ele>25.574</ele>
        <time>2016-10-12T20:10:56Z</time>
      </trkpt>
      <trkpt lat="43.605117" lon="-8.169601">
        <ele>25.816</ele>
        <time>2016-10-12T20:11:16Z</time>
      </trkpt>
      <trkpt lat="43.605105" lon="-8.169594">
        <ele>25.948</ele>
        <time>2016-10-12T20:11:36Z</time>
      </trkpt>
      <trkpt lat="43.605011" lon="-8.169594">
        <ele>26.296</ele>
        <time>2016-10-12T20:11:56Z</time>
      </trkpt>
      <trkpt lat="43.604985" lon="-8.169586">
        <ele>26.331</ele>
        <time>2016-10-12T20:12:16Z</time>
      </trkpt>
      <trkpt lat="43.604778" lon="-8.169532">
        <ele>27.224</ele>
        <time>2016-10-12T20:12:36Z</time>
      </trkpt>
      <trkpt lat="43.604765" lon="-8.169532">
        <ele>27.308</ele>
        <time>2016-10-12T20:12:56Z</time>
      </trkpt>
      <trkpt lat="43.604520" lon="-8.169470">
        <ele>28.450</ele>
        <time>2016-10-12T20:13:16Z</time>
      </trkpt>
      <trkpt lat="43.604514" lon="-8.169470">
        <ele>28.584</ele>
        <time>2016-10-12T20:13:36Z</time>
      </trkpt>
      <trkpt lat="43.604394" lon="-8.169423">
        <ele>28.979</ele>
        <time>2016-10-12T20:13:56Z</time>
      </trkpt>
      <trkpt lat="43.604369" lon="-8.169408">
        <ele>28.937</ele>
        <time>2016-10-12T20:14:16Z</time>
      </trkpt>
      <trkpt lat="43.604193" lon="-8.169369">
        <ele>29.595</ele>
        <time>2016-10-12T20:14:36Z</time>
      </trkpt>
      <trkpt lat="43.604162" lon="-8.169354">
        <ele>29.555</ele>
        <time>2016-10-12T20:14:56Z</time>
      </trkpt>
      <trkpt lat="43.604055" lon="-8.169307">
        <ele>29.737</ele>
        <time>2016-10-12T20:15:16Z</time>
      </trkpt>
      <trkpt lat="43.604048" lon="-8.169299">
        <ele>29.789</ele>
        <time>2016-10-12T20:15:36Z</time>
      </trkpt>
      <trkpt lat="43.603960" lon="-8.169261">
        <ele>29.893</ele>
        <time>2016-10-12T20:15:56Z</time>
      </trkpt>
      <trkpt lat="43.603935" lon="-8.169245">
        <ele>29.865</ele>
        <time>2016-10-12T20:16:16Z</time>
      </trkpt>
      <trkpt lat="43.603822" lon="-8.169175">
        <ele>29.721</ele>
        <time>2016-10-12T20:16:36Z</time>
      </trkpt>
      <trkpt lat="43.603810" lon="-8.169168">
        <ele>29.608</ele>
        <time>2016-10-12T20:16:56Z</time>
      </trkpt>
      <trkpt lat="43.603684" lon="-8.169075">
        <ele>29.470</ele>
        <time>2016-10-12T20:17:16Z</time>
      </trkpt>
      <trkpt lat="43.603652" lon="-8.169067">
        <ele>29.544</ele>
        <time>2016-10-12T20:17:36Z</time>
      </trkpt>
      <trkpt lat="43.603539" lon="-8.168982">
        <ele>29.429</ele>
        <time>2016-10-12T20:17:56Z</time>
      </trkpt>
      <trkpt lat="43.603527" lon="-8.168982">
        <ele>29.477</ele>
        <time>2016-10-12T20:18:16Z</time>
      </trkpt>
      <trkpt lat="43.603369" lon="-8.168827">
        <ele>29.065</ele>
        <time>2016-10-12T20:18:36Z</time>
      </trkpt>
      <trkpt lat="43.603363" lon="-8.168819">
        <ele>29.035</ele>
        <time>2016-10-12T20:18:56Z</time>
      </trkpt>
      <trkpt lat="43.603143" lon="-8.168664">
        <ele>28.387</ele>
        <time>2016-10-12T20:19:16Z</time>
      </trkpt>
      <trkpt lat="43.602992" lon="-8.168548">
        <ele>27.699</ele>
        <time>2016-10-12T20:19:36Z</time>
      </trkpt>
      <trkpt lat="43.602979" lon="-8.168540">
        <ele>27.581</ele>
        <time>2016-10-12T20:19:56Z</time>
      </trkpt>
      <trkpt lat="43.602778" lon="-8.168440">
        <ele>26.561</ele>
        <time>2016-10-12T20:20:16Z</time>
      </trkpt>
      <trkpt lat="43.602634" lon="-8.168385">
        <ele>25.817</ele>
        <time>2016-10-12T20:20:36Z</time>
      </trkpt>
      <trkpt lat="43.602627" lon="-8.168385">
        <ele>25.808</ele>
        <time>2016-10-12T20:20:56Z</time>
      </trkpt>
      <trkpt lat="43.602520" lon="-8.168385">
        <ele>25.649</ele>
        <time>2016-10-12T20:21:16Z</time>
      </trkpt>
      <trkpt lat="43.602426" lon="-8.168362">
        <ele>25.593</ele>
        <time>2016-10-12T20:21:36Z</time>
      </trkpt>
      <trkpt lat="43.602363" lon="-8.168393">
        <ele>25.638</ele>
        <time>2016-10-12T20:21:56Z</time>
      </trkpt>
      <trkpt lat="43.602395" lon="-8.168827">
        <ele>27.656</ele>
        <time>2016-10-12T20:22:16Z</time>
      </trkpt>
      <trkpt lat="43.602363" lon="-8.169330">
        <ele>30.334</ele>
        <time>2016-10-12T20:22:36Z</time>
      </trkpt>
      <trkpt lat="43.602344" lon="-8.169516">
        <ele>31.374</ele>
        <time>2016-10-12T20:22:56Z</time>
      </trkpt>
      <trkpt lat="43.602281" lon="-8.169888">
        <ele>33.566</ele>
        <time>2016-10-12T20:23:16Z</time>
      </trkpt>
      <trkpt lat="43.602149" lon="-8.170329">
        <ele>35.578</ele>
        <time>2016-10-12T20:23:36Z</time>
      </trkpt>
      <trkpt lat="43.602149" lon="-8.170337">
        <ele>35.568</ele>
        <time>2016-10-12T20:23:56Z</time>
      </trkpt>
      <trkpt lat="43.602149" lon="-8.170446">
        <ele>35.842</ele>
        <time>2016-10-12T20:24:16Z</time>
      </trkpt>
      <trkpt lat="43.602149" lon="-8.170469">
        <ele>35.926</ele>
        <time>2016-10-12T20:24:36Z</time>
      </trkpt>
      <trkpt lat="43.602030" lon="-8.170740">
        <ele>36.808</ele>
        <time>2016-10-12T20:24:56Z</time>
      </trkpt>
      <trkpt lat="43.602024" lon="-8.170748">
        <ele>36.817</ele>
        <time>2016-10-12T20:25:16Z</time>
      </trkpt>
      <trkpt lat="43.601942" lon="-8.171026">
        <ele>37.551</ele>
        <time>2016-10-12T20:25:36Z</time>
      </trkpt>
      <trkpt lat="43.601942" lon="-8.171042">
        <ele>37.436</ele>
        <time>2016-10-12T20:25:56Z</time>
      </trkpt>
      <trkpt lat="43.601797" lon="-8.171437">
        <ele>37.924</ele>
        <time>2016-10-12T20:26:16Z</time>
      </trkpt>
      <trkpt lat="43.601778" lon="-8.171476">
        <ele>38.022</ele>
        <time>2016-10-12T20:26:36Z</time>
      </trkpt>
      <trkpt lat="43.601778" lon="-8.171483">
        <ele>38.072</ele>
        <time>2016-10-12T20:26:56Z</time>
      </trkpt>
      <trkpt lat="43.601634" lon="-8.171809">
        <ele>38.384</ele>
        <time>2016-10-12T20:27:16Z</time>
      </trkpt>
      <trkpt lat="43.601621" lon="-8.171855">
        <ele>38.336</ele>
        <time>2016-10-12T20:27:36Z</time>
      </trkpt>
      <trkpt lat="43.601546" lon="-8.172049">
        <ele>38.524</ele>
        <time>2016-10-12T20:27:56Z</time>
      </trkpt>
      <trkpt lat="43.601539" lon="-8.172057">
        <ele>38.504</ele>
        <time>2016-10-12T20:28:16Z</time>
      </trkpt>
      <trkpt lat="43.601376" lon="-8.172390">
        <ele>38.614</ele>
        <time>2016-10-12T20:28:36Z</time>
      </trkpt>
      <trkpt lat="43.601376" lon="-8.172397">
        <ele>38.608</ele>
        <time>2016-10-12T20:28:56Z</time>
      </trkpt>
      <trkpt lat="43.601319" lon="-8.172506">
        <ele>38.143</ele>
        <time>2016-10-12T20:29:16Z</time>
      </trkpt>
      <trkpt lat="43.601294" lon="-8.172529">
        <ele>38.097</ele>
        <time>2016-10-12T20:29:36Z</time>
      </trkpt>
      <trkpt lat="43.601187" lon="-8.172576">
        <ele>37.952</ele>
        <time>2016-10-12T20:29:56Z</time>
      </trkpt>
      <trkpt lat="43.601030" lon="-8.172607">
        <ele>37.910</ele>
        <time>2016-10-12T20:30:16Z</time>
      </trkpt>
      <trkpt lat="43.601011" lon="-8.172607">
        <ele>37.998</ele>
        <time>2016-10-12T20:30:36Z</time>
      </trkpt>
      <trkpt lat="43.600690" lon="-8.172653">
        <ele>37.738</ele>
        <time>2016-10-12T20:30:56Z</time>
      </trkpt>
      <trkpt lat="43.600684" lon="-8.172653">
        <ele>37.730</ele>
        <time>2016-10-12T20:31:16Z</time>
      </trkpt>
      <trkpt lat="43.600370" lon="-8.172684">
        <ele>37.112</ele>
        <time>2016-10-12T20:31:36Z</time>
      </trkpt>
      <trkpt lat="43.600081" lon="-8.172707">
        <ele>36.599</ele>
        <time>2016-10-12T20:31:56Z</time>
      </trkpt>
      <trkpt lat="43.599904" lon="-8.172723">
        <ele>36.107</ele>
        <time>2016-10-12T20:32:16Z</time>
      </trkpt>
      <trkpt lat="43.599892" lon="-8.172723">
        <ele>36.127</ele>
        <time>2016-10-12T20:32:36Z</time>
      </trkpt>
      <trkpt lat="43.599810" lon="-8.172723">
        <ele>36.008</ele>
        <time>2016-10-12T20:32:56Z</time>
      </trkpt>
      <trkpt lat="43.599798" lon="-8.172723">
        <ele>36.090</ele>
        <time>2016-10-12T20:33:16Z</time>
      </trkpt>
      <trkpt lat="43.599703" lon="-8.172746">
        <ele>35.914</ele>
        <time>2016-10-12T20:33:36Z</time>
      </trkpt>
      <trkpt lat="43.599754" lon="-8.172963">
        <ele>34.639</ele>
        <time>2016-10-12T20:33:56Z</time>
      </trkpt>
      <trkpt lat="43.599823" lon="-8.173203">
        <ele>33.077</ele>
        <time>2016-10-12T20:34:16Z</time>
      </trkpt>
      <trkpt lat="43.599823" lon="-8.173218">
        <ele>32.965</ele>
        <time>2016-10-12T20:34:36Z</time>
      </trkpt>
      <trkpt lat="43.599936" lon="-8.173528">
        <ele>31.095</ele>
        <time>2016-10-12T20:34:56Z</time>
      </trkpt>
      <trkpt lat="43.599942" lon="-8.173559">
        <ele>30.887</ele>
        <time>2016-10-12T20:35:16Z</time>
      </trkpt>
      <trkpt lat="43.600049" lon="-8.173985">
        <ele>28.369</ele>
        <time>2016-10-12T20:35:36Z</time>
      </trkpt>
      <trkpt lat="43.600081" lon="-8.174411">
        <ele>26.439</ele>
        <time>2016-10-12T20:35:56Z</time>
      </trkpt>
      <trkpt lat="43.600081" lon="-8.174419">
        <ele>26.301</ele>
        <time>2016-10-12T20:36:16Z</time>
      </trkpt>
      <trkpt lat="43.600194" lon="-8.174822">
        <ele>24.921</ele>
        <time>2016-10-12T20:36:36Z</time>
      </trkpt>
      <trkpt lat="43.600194" lon="-8.174853">
        <ele>24.808</ele>
        <time>2016-10-12T20:36:56Z</time>
      </trkpt>
      <trkpt lat="43.600257" lon="-8.175209">
        <ele>23.464</ele>
        <time>2016-10-12T20:37:16Z</time>
      </trkpt>
      <trkpt lat="43.600257" lon="-8.175232">
        <ele>23.328</ele>
        <time>2016-10-12T20:37:36Z</time>
      </trkpt>
      <trkpt lat="43.600338" lon="-8.175511">
        <ele>22.273</ele>
        <time>2016-10-12T20:37:56Z</time>
      </trkpt>
      <trkpt lat="43.600415" lon="-8.175790">
        <ele>21.091</ele>
        <time>2016-10-12T20:38:16Z</time>
      </trkpt>
      <trkpt lat="43.600496" lon="-8.176133">
        <ele>19.559</ele>
        <time>2016-10-12T20:38:36Z</time>
      </trkpt>
      <trkpt lat="43.600532" lon="-8.176288">
        <ele>18.739</ele>
        <time>2016-10-12T20:38:56Z</time>
      </trkpt>
      <trkpt lat="43.600546" lon="-8.176439">
        <ele>19.091</ele>
        <time>2016-09-22T08:50:34Z</time>
      </trkpt>
      <trkpt lat="43.600571" lon="-8.176637">
        <ele>18.443</ele>
        <time>2016-09-22T08:50:37Z</time>
      </trkpt>
      <trkpt lat="43.600606" lon="-8.176816">
        <ele>17.497</ele>
        <time>2016-09-22T08:50:39Z</time>
      </trkpt>
      <trkpt lat="43.600658" lon="-8.177042">
        <ele>16.223</ele>
        <time>2016-09-22T08:50:41Z</time>
      </trkpt>
      <trkpt lat="43.600714" lon="-8.177286">
        <ele>14.825</ele>
        <time>2016-09-22T08:50:43Z</time>
      </trkpt>
      <trkpt lat="43.600747" lon="-8.177532">
        <ele>13.808</ele>
        <time>2016-09-22T08:50:45Z</time>
      </trkpt>
      <trkpt lat="43.600753" lon="-8.177652">
        <ele>13.450</ele>
        <time>2016-09-22T08:50:46Z</time>
      </trkpt>
      <trkpt lat="43.600754" lon="-8.177766">
        <ele>12.854</ele>
        <time>2016-09-22T08:50:47Z</time>
      </trkpt>
      <trkpt lat="43.600732" lon="-8.178188">
        <ele>11.699</ele>
        <time>2016-09-22T08:50:51Z</time>
      </trkpt>
      <trkpt lat="43.600758" lon="-8.178580">
        <ele>11.867</ele>
        <time>2016-09-22T08:50:56Z</time>
      </trkpt>
      <trkpt lat="43.600802" lon="-8.178816">
        <ele>12.635</ele>
        <time>2016-09-22T08:50:59Z</time>
      </trkpt>
      <trkpt lat="43.600809" lon="-8.178900">
        <ele>12.625</ele>
        <time>2016-09-22T08:51:00Z</time>
      </trkpt>
      <trkpt lat="43.600812" lon="-8.178987">
        <ele>12.687</ele>
        <time>2016-09-22T08:51:01Z</time>
      </trkpt>
      <trkpt lat="43.600821" lon="-8.179151">
        <ele>12.629</ele>
        <time>2016-09-22T08:51:03Z</time>
      </trkpt>
      <trkpt lat="43.600849" lon="-8.179286">
        <ele>12.284</ele>
        <time>2016-09-22T08:51:05Z</time>
      </trkpt>
      <trkpt lat="43.600872" lon="-8.179411">
        <ele>12.007</ele>
        <time>2016-09-22T08:51:07Z</time>
      </trkpt>
      <trkpt lat="43.600909" lon="-8.179611">
        <ele>12.217</ele>
        <time>2016-09-22T08:51:10Z</time>
      </trkpt>
      <trkpt lat="43.600966" lon="-8.179697">
        <ele>12.208</ele>
        <time>2016-09-22T08:51:43Z</time>
      </trkpt>
      <trkpt lat="43.601032" lon="-8.179649">
        <ele>12.439</ele>
        <time>2016-09-22T08:51:45Z</time>
      </trkpt>
      <trkpt lat="43.601354" lon="-8.179546">
        <ele>11.853</ele>
        <time>2016-09-22T08:51:52Z</time>
      </trkpt>
      <trkpt lat="43.601692" lon="-8.179437">
        <ele>12.078</ele>
        <time>2016-09-22T08:51:59Z</time>
      </trkpt>
      <trkpt lat="43.601740" lon="-8.179426">
        <ele>12.076</ele>
        <time>2016-09-22T08:52:00Z</time>
      </trkpt>
      <trkpt lat="43.601834" lon="-8.179414">
        <ele>11.644</ele>
        <time>2016-09-22T08:52:02Z</time>
      </trkpt>
      <trkpt lat="43.601920" lon="-8.179385">
        <ele>11.254</ele>
        <time>2016-09-22T08:52:04Z</time>
      </trkpt>
      <trkpt lat="43.602211" lon="-8.179293">
        <ele>10.856</ele>
        <time>2016-09-22T08:52:10Z</time>
      </trkpt>
      <trkpt lat="43.602310" lon="-8.179262">
        <ele>10.678</ele>
        <time>2016-09-22T08:52:12Z</time>
      </trkpt>
      <trkpt lat="43.602541" lon="-8.179196">
        <ele>10.466</ele>
        <time>2016-09-22T08:52:17Z</time>
      </trkpt>
      <trkpt lat="43.602586" lon="-8.179181">
        <ele>10.629</ele>
        <time>2016-09-22T08:52:18Z</time>
      </trkpt>
      <trkpt lat="43.602811" lon="-8.179121">
        <ele>10.421</ele>
        <time>2016-09-22T08:52:23Z</time>
      </trkpt>
      <trkpt lat="43.603027" lon="-8.179079">
        <ele>10.408</ele>
        <time>2016-09-22T08:52:29Z</time>
      </trkpt>
      <trkpt lat="43.603047" lon="-8.179194">
        <ele>10.037</ele>
        <time>2016-09-22T08:52:32Z</time>
      </trkpt>
      <trkpt lat="43.603046" lon="-8.179239">
        <ele>10.011</ele>
        <time>2016-09-22T08:52:33Z</time>
      </trkpt>
      <trkpt lat="43.603045" lon="-8.179343">
        <ele>9.816</ele>
        <time>2016-09-22T08:52:35Z</time>
      </trkpt>
      <trkpt lat="43.603048" lon="-8.179461">
        <ele>9.854</ele>
        <time>2016-09-22T08:52:37Z</time>
      </trkpt>
      <trkpt lat="43.603056" lon="-8.179581">
        <ele>10.042</ele>
        <time>2016-09-22T08:52:39Z</time>
      </trkpt>
      <trkpt lat="43.603058" lon="-8.179831">
        <ele>10.432</ele>
        <time>2016-09-22T08:52:43Z</time>
      </trkpt>
      <trkpt lat="43.603059" lon="-8.179893">
        <ele>10.234</ele>
        <time>2016-09-22T08:52:44Z</time>
      </trkpt>
      <trkpt lat="43.603061" lon="-8.180338">
        <ele>10.876</ele>
        <time>2016-09-22T08:52:51Z</time>
      </trkpt>
      <trkpt lat="43.603068" lon="-8.180575">
        <ele>11.426</ele>
        <time>2016-09-22T08:52:55Z</time>
      </trkpt>
      <trkpt lat="43.603090" lon="-8.180715">
        <ele>11.447</ele>
        <time>2016-09-22T08:52:58Z</time>
      </trkpt>
      <trkpt lat="43.603175" lon="-8.180715">
        <ele>11.411</ele>
        <time>2016-09-22T08:53:01Z</time>
      </trkpt>
      <trkpt lat="43.603206" lon="-8.180695">
        <ele>11.408</ele>
        <time>2016-09-22T08:53:02Z</time>
      </trkpt>
      <trkpt lat="43.603358" lon="-8.180649">
        <ele>11.493</ele>
        <time>2016-09-22T08:53:06Z</time>
      </trkpt>
      <trkpt lat="43.603615" lon="-8.180557">
        <ele>11.477</ele>
        <time>2016-09-22T08:53:12Z</time>
      </trkpt>
      <trkpt lat="43.603935" lon="-8.180458">
        <ele>10.672</ele>
        <time>2016-09-22T08:53:18Z</time>
      </trkpt>
      <trkpt lat="43.604361" lon="-8.180351">
        <ele>10.830</ele>
        <time>2016-09-22T08:53:26Z</time>
      </trkpt>
      <trkpt lat="43.604587" lon="-8.180310">
        <ele>10.418</ele>
        <time>2016-09-22T08:53:30Z</time>
      </trkpt>
      <trkpt lat="43.604642" lon="-8.180306">
        <ele>10.488</ele>
        <time>2016-09-22T08:53:31Z</time>
      </trkpt>
      <trkpt lat="43.604745" lon="-8.180285">
        <ele>10.280</ele>
        <time>2016-09-22T08:53:33Z</time>
      </trkpt>
      <trkpt lat="43.604794" lon="-8.180271">
        <ele>10.282</ele>
        <time>2016-09-22T08:53:34Z</time>
      </trkpt>
      <trkpt lat="43.605049" lon="-8.180196">
        <ele>9.633</ele>
        <time>2016-09-22T08:53:39Z</time>
      </trkpt>
      <trkpt lat="43.605374" lon="-8.180078">
        <ele>9.623</ele>
        <time>2016-09-22T08:53:45Z</time>
      </trkpt>
      <trkpt lat="43.605698" lon="-8.180008">
        <ele>9.415</ele>
        <time>2016-09-22T08:53:51Z</time>
      </trkpt>
      <trkpt lat="43.605747" lon="-8.180002">
        <ele>9.208</ele>
        <time>2016-09-22T08:53:52Z</time>
      </trkpt>
      <trkpt lat="43.605792" lon="-8.179990">
        <ele>9.054</ele>
        <time>2016-09-22T08:53:53Z</time>
      </trkpt>
      <trkpt lat="43.605865" lon="-8.179952">
        <ele>8.638</ele>
        <time>2016-09-22T08:53:55Z</time>
      </trkpt>
      <trkpt lat="43.605917" lon="-8.179950">
        <ele>8.483</ele>
        <time>2016-09-22T08:53:57Z</time>
      </trkpt>
      <trkpt lat="43.605938" lon="-8.179971">
        <ele>8.251</ele>
        <time>2016-09-22T08:53:58Z</time>
      </trkpt>
      <trkpt lat="43.606010" lon="-8.180098">
        <ele>8.429</ele>
        <time>2016-09-22T08:54:02Z</time>
      </trkpt>
      <trkpt lat="43.606113" lon="-8.180261">
        <ele>9.239</ele>
        <time>2016-09-22T08:54:07Z</time>
      </trkpt>
      <trkpt lat="43.606134" lon="-8.180447">
        <ele>9.291</ele>
        <time>2016-09-22T08:54:11Z</time>
      </trkpt>
      <trkpt lat="43.606136" lon="-8.180495">
        <ele>9.283</ele>
        <time>2016-09-22T08:54:12Z</time>
      </trkpt>
      <trkpt lat="43.606141" lon="-8.180529">
        <ele>9.229</ele>
        <time>2016-09-22T08:54:13Z</time>
      </trkpt>
      <trkpt lat="43.606171" lon="-8.180585">
        <ele>9.400</ele>
        <time>2016-09-22T08:54:15Z</time>
      </trkpt>
      <trkpt lat="43.606227" lon="-8.180676">
        <ele>9.620</ele>
        <time>2016-09-22T08:54:18Z</time>
      </trkpt>
      <trkpt lat="43.606256" lon="-8.180761">
        <ele>9.608</ele>
        <time>2016-09-22T08:54:20Z</time>
      </trkpt>
      <trkpt lat="43.606336" lon="-8.180940">
        <ele>10.013</ele>
        <time>2016-09-22T08:54:25Z</time>
      </trkpt>
      <trkpt lat="43.606367" lon="-8.181009">
        <ele>10.437</ele>
        <time>2016-09-22T08:54:27Z</time>
      </trkpt>
      <trkpt lat="43.606449" lon="-8.181145">
        <ele>11.272</ele>
        <time>2016-09-22T08:54:32Z</time>
      </trkpt>
      <trkpt lat="43.606562" lon="-8.181194">
        <ele>12.090</ele>
        <time>2016-09-22T08:54:37Z</time>
      </trkpt>
      <trkpt lat="43.606636" lon="-8.181228">
        <ele>12.468</ele>
        <time>2016-09-22T08:54:40Z</time>
      </trkpt>
      <trkpt lat="43.606682" lon="-8.181270">
        <ele>12.478</ele>
        <time>2016-09-22T08:54:42Z</time>
      </trkpt>
      <trkpt lat="43.606819" lon="-8.181376">
        <ele>12.850</ele>
        <time>2016-09-22T08:54:47Z</time>
      </trkpt>
      <trkpt lat="43.606943" lon="-8.181448">
        <ele>13.092</ele>
        <time>2016-09-22T08:54:52Z</time>
      </trkpt>
      <trkpt lat="43.607097" lon="-8.181423">
        <ele>13.043</ele>
        <time>2016-09-22T08:54:59Z</time>
      </trkpt>
      <trkpt lat="43.607269" lon="-8.181367">
        <ele>12.864</ele>
        <time>2016-09-22T08:55:06Z</time>
      </trkpt>
      <trkpt lat="43.607286" lon="-8.181370">
        <ele>12.810</ele>
        <time>2016-09-22T08:55:07Z</time>
      </trkpt>
      <trkpt lat="43.607335" lon="-8.181388">
        <ele>12.408</ele>
        <time>2016-09-22T08:55:11Z</time>
      </trkpt>
      <trkpt lat="43.607458" lon="-8.181403">
        <ele>12.045</ele>
        <time>2016-09-22T08:55:15Z</time>
      </trkpt>
      <trkpt lat="43.607585" lon="-8.181489">
        <ele>11.639</ele>
        <time>2016-09-22T08:55:20Z</time>
      </trkpt>
      <trkpt lat="43.607727" lon="-8.181652">
        <ele>11.874</ele>
        <time>2016-09-22T08:55:26Z</time>
      </trkpt>
      <trkpt lat="43.607892" lon="-8.181816">
        <ele>12.262</ele>
        <time>2016-09-22T08:55:33Z</time>
      </trkpt>
      <trkpt lat="43.608034" lon="-8.181997">
        <ele>13.030</ele>
        <time>2016-09-22T08:55:40Z</time>
      </trkpt>
      <trkpt lat="43.608111" lon="-8.182075">
        <ele>13.270</ele>
        <time>2016-09-22T08:55:44Z</time>
      </trkpt>
      <trkpt lat="43.608134" lon="-8.182092">
        <ele>13.642</ele>
        <time>2016-09-22T08:55:45Z</time>
      </trkpt>
      <trkpt lat="43.608262" lon="-8.182198">
        <ele>14.084</ele>
        <time>2016-09-22T08:55:51Z</time>
      </trkpt>
      <trkpt lat="43.608292" lon="-8.182233">
        <ele>14.225</ele>
        <time>2016-09-22T08:55:53Z</time>
      </trkpt>
      <trkpt lat="43.608331" lon="-8.182275">
        <ele>14.826</ele>
        <time>2016-09-22T08:55:57Z</time>
      </trkpt>
      <trkpt lat="43.608334" lon="-8.182277">
        <ele>15.008</ele>
        <time>2016-09-22T08:55:58Z</time>
      </trkpt>
      <trkpt lat="43.608212" lon="-8.182335">
        <ele>16.008</ele>
        <time>2016-09-22T08:58:10Z</time>
      </trkpt>
      <trkpt lat="43.608158" lon="-8.182345">
        <ele>16.413</ele>
        <time>2016-09-22T08:58:12Z</time>
      </trkpt>
      <trkpt lat="43.608046" lon="-8.182382">
        <ele>16.257</ele>
        <time>2016-09-22T08:58:16Z</time>
      </trkpt>
      <trkpt lat="43.607841" lon="-8.182490">
        <ele>16.872</ele>
        <time>2016-09-22T08:58:24Z</time>
      </trkpt>
      <trkpt lat="43.607774" lon="-8.182544">
        <ele>17.280</ele>
        <time>2016-09-22T08:58:27Z</time>
      </trkpt>
      <trkpt lat="43.607657" lon="-8.182599">
        <ele>18.228</ele>
        <time>2016-09-22T08:58:32Z</time>
      </trkpt>
      <trkpt lat="43.607486" lon="-8.182638">
        <ele>19.228</ele>
        <time>2016-09-22T08:58:39Z</time>
      </trkpt>
      <trkpt lat="43.607462" lon="-8.182641">
        <ele>19.450</ele>
        <time>2016-09-22T08:58:40Z</time>
      </trkpt>
      <trkpt lat="43.607372" lon="-8.182688">
        <ele>19.642</ele>
        <time>2016-09-22T08:58:44Z</time>
      </trkpt>
      <trkpt lat="43.607301" lon="-8.182724">
        <ele>20.822</ele>
        <time>2016-09-22T08:58:47Z</time>
      </trkpt>
      <trkpt lat="43.607240" lon="-8.182798">
        <ele>21.462</ele>
        <time>2016-09-22T08:58:50Z</time>
      </trkpt>
      <trkpt lat="43.607184" lon="-8.182930">
        <ele>22.008</ele>
        <time>2016-09-22T08:58:54Z</time>
      </trkpt>
      <trkpt lat="43.607166" lon="-8.183006">
        <ele>22.208</ele>
        <time>2016-09-22T08:58:56Z</time>
      </trkpt>
      <trkpt lat="43.607158" lon="-8.183164">
        <ele>23.093</ele>
        <time>2016-09-22T08:59:00Z</time>
      </trkpt>
      <trkpt lat="43.607158" lon="-8.183289">
        <ele>23.237</ele>
        <time>2016-09-22T08:59:03Z</time>
      </trkpt>
      <trkpt lat="43.607146" lon="-8.183528">
        <ele>24.022</ele>
        <time>2016-09-22T08:59:09Z</time>
      </trkpt>
      <trkpt lat="43.607108" lon="-8.183668">
        <ele>25.020</ele>
        <time>2016-09-22T08:59:13Z</time>
      </trkpt>
      <trkpt lat="43.607081" lon="-8.183768">
        <ele>25.688</ele>
        <time>2016-09-22T08:59:16Z</time>
      </trkpt>
      <trkpt lat="43.607074" lon="-8.183872">
        <ele>26.238</ele>
        <time>2016-09-22T08:59:19Z</time>
      </trkpt>
      <trkpt lat="43.607047" lon="-8.184060">
        <ele>27.250</ele>
        <time>2016-09-22T08:59:24Z</time>
      </trkpt>
      <trkpt lat="43.607038" lon="-8.184098">
        <ele>27.232</ele>
        <time>2016-09-22T08:59:25Z</time>
      </trkpt>
      <trkpt lat="43.606949" lon="-8.184304">
        <ele>27.889</ele>
        <time>2016-09-22T08:59:31Z</time>
      </trkpt>
      <trkpt lat="43.606831" lon="-8.184534">
        <ele>28.206</ele>
        <time>2016-09-22T08:59:38Z</time>
      </trkpt>
      <trkpt lat="43.606830" lon="-8.184570">
        <ele>28.226</ele>
        <time>2016-09-22T08:59:39Z</time>
      </trkpt>
      <trkpt lat="43.606843" lon="-8.184595">
        <ele>28.408</ele>
        <time>2016-09-22T08:59:40Z</time>
      </trkpt>
      <trkpt lat="43.606868" lon="-8.184603">
        <ele>28.649</ele>
        <time>2016-09-22T08:59:41Z</time>
      </trkpt>
      <trkpt lat="43.606931" lon="-8.184605">
        <ele>29.253</ele>
        <time>2016-09-22T08:59:43Z</time>
      </trkpt>
      <trkpt lat="43.607009" lon="-8.184609">
        <ele>29.698</ele>
        <time>2016-09-22T08:59:45Z</time>
      </trkpt>
      <trkpt lat="43.607048" lon="-8.184614">
        <ele>29.866</ele>
        <time>2016-09-22T08:59:46Z</time>
      </trkpt>
      <trkpt lat="43.607384" lon="-8.184620">
        <ele>30.034</ele>
        <time>2016-09-22T08:59:54Z</time>
      </trkpt>
      <trkpt lat="43.607470" lon="-8.184621">
        <ele>30.644</ele>
        <time>2016-09-22T08:59:56Z</time>
      </trkpt>
      <trkpt lat="43.607777" lon="-8.184633">
        <ele>31.646</ele>
        <time>2016-09-22T09:00:03Z</time>
      </trkpt>
      <trkpt lat="43.607821" lon="-8.184635">
        <ele>31.828</ele>
        <time>2016-09-22T09:00:04Z</time>
      </trkpt>
      <trkpt lat="43.608087" lon="-8.184643">
        <ele>32.679</ele>
        <time>2016-09-22T09:00:10Z</time>
      </trkpt>
      <trkpt lat="43.608215" lon="-8.184652">
        <ele>33.605</ele>
        <time>2016-09-22T09:00:13Z</time>
      </trkpt>
      <trkpt lat="43.608256" lon="-8.184655">
        <ele>33.825</ele>
        <time>2016-09-22T09:00:14Z</time>
      </trkpt>
      <trkpt lat="43.608377" lon="-8.184664">
        <ele>34.808</ele>
        <time>2016-09-22T09:00:17Z</time>
      </trkpt>
      <trkpt lat="43.608567" lon="-8.184702">
        <ele>36.048</ele>
        <time>2016-09-22T09:00:22Z</time>
      </trkpt>
      <trkpt lat="43.608921" lon="-8.184812">
        <ele>36.442</ele>
        <time>2016-09-22T09:00:30Z</time>
      </trkpt>
      <trkpt lat="43.609441" lon="-8.184985">
        <ele>36.067</ele>
        <time>2016-09-22T09:00:40Z</time>
      </trkpt>
      <trkpt lat="43.609871" lon="-8.185132">
        <ele>34.825</ele>
        <time>2016-09-22T09:00:48Z</time>
      </trkpt>
      <trkpt lat="43.610367" lon="-8.185309">
        <ele>33.853</ele>
        <time>2016-09-22T09:00:57Z</time>
      </trkpt>
      <trkpt lat="43.610922" lon="-8.185495">
        <ele>33.613</ele>
        <time>2016-09-22T09:01:06Z</time>
      </trkpt>
      <trkpt lat="43.611044" lon="-8.185539">
        <ele>33.665</ele>
        <time>2016-09-22T09:01:08Z</time>
      </trkpt>
      <trkpt lat="43.611155" lon="-8.185572">
        <ele>33.837</ele>
        <time>2016-09-22T09:01:10Z</time>
      </trkpt>
      <trkpt lat="43.611249" lon="-8.185555">
        <ele>33.873</ele>
        <time>2016-09-22T09:01:12Z</time>
      </trkpt>
      <trkpt lat="43.611396" lon="-8.185406">
        <ele>33.685</ele>
        <time>2016-09-22T09:01:16Z</time>
      </trkpt>
      <trkpt lat="43.611464" lon="-8.185330">
        <ele>33.413</ele>
        <time>2016-09-22T09:01:18Z</time>
      </trkpt>
      <trkpt lat="43.611530" lon="-8.185261">
        <ele>32.808</ele>
        <time>2016-09-22T09:01:20Z</time>
      </trkpt>
      <trkpt lat="43.611615" lon="-8.185155">
        <ele>32.898</ele>
        <time>2016-09-22T09:01:23Z</time>
      </trkpt>
      <trkpt lat="43.611839" lon="-8.184876">
        <ele>32.482</ele>
        <time>2016-09-22T09:01:31Z</time>
      </trkpt>
      <trkpt lat="43.611959" lon="-8.184733">
        <ele>31.827</ele>
        <time>2016-09-22T09:01:36Z</time>
      </trkpt>
      <trkpt lat="43.611982" lon="-8.184713">
        <ele>31.845</ele>
        <time>2016-09-22T09:01:37Z</time>
      </trkpt>
      <trkpt lat="43.612104" lon="-8.184614">
        <ele>31.063</ele>
        <time>2016-09-22T09:01:43Z</time>
      </trkpt>
      <trkpt lat="43.612125" lon="-8.184588">
        <ele>30.643</ele>
        <time>2016-09-22T09:01:45Z</time>
      </trkpt>
      <trkpt lat="43.612129" lon="-8.184577">
        <ele>30.425</ele>
        <time>2016-09-22T09:01:46Z</time>
      </trkpt>
      <trkpt lat="43.612131" lon="-8.184575">
        <ele>30.237</ele>
        <time>2016-09-22T09:01:48Z</time>
      </trkpt>
      <trkpt lat="43.612169" lon="-8.184582">
        <ele>29.239</ele>
        <time>2016-09-22T09:03:23Z</time>
      </trkpt>
      <trkpt lat="43.612174" lon="-8.184629">
        <ele>29.201</ele>
        <time>2016-09-22T09:03:25Z</time>
      </trkpt>
      <trkpt lat="43.612160" lon="-8.184641">
        <ele>29.421</ele>
        <time>2016-09-22T09:03:28Z</time>
      </trkpt>
      <trkpt lat="43.612148" lon="-8.184646">
        <ele>29.408</ele>
        <time>2016-09-22T09:03:29Z</time>
      </trkpt>
      <trkpt lat="43.612011" lon="-8.184703">
        <ele>29.644</ele>
        <time>2016-09-22T09:03:36Z</time>
      </trkpt>
      <trkpt lat="43.611927" lon="-8.184777">
        <ele>30.468</ele>
        <time>2016-09-22T09:03:40Z</time>
      </trkpt>
      <trkpt lat="43.611863" lon="-8.184856">
        <ele>30.643</ele>
        <time>2016-09-22T09:03:43Z</time>
      </trkpt>
      <trkpt lat="43.611821" lon="-8.185021">
        <ele>31.081</ele>
        <time>2016-09-22T09:03:47Z</time>
      </trkpt>
      <trkpt lat="43.611812" lon="-8.185163">
        <ele>31.649</ele>
        <time>2016-09-22T09:03:51Z</time>
      </trkpt>
      <trkpt lat="43.611806" lon="-8.185271">
        <ele>32.039</ele>
        <time>2016-09-22T09:03:54Z</time>
      </trkpt>
      <trkpt lat="43.611783" lon="-8.185386">
        <ele>32.881</ele>
        <time>2016-09-22T09:03:57Z</time>
      </trkpt>
      <trkpt lat="43.611767" lon="-8.185493">
        <ele>33.643</ele>
        <time>2016-09-22T09:04:00Z</time>
      </trkpt>
      <trkpt lat="43.611756" lon="-8.185566">
        <ele>33.829</ele>
        <time>2016-09-22T09:04:02Z</time>
      </trkpt>
      <trkpt lat="43.611746" lon="-8.185718">
        <ele>34.800</ele>
        <time>2016-09-22T09:04:06Z</time>
      </trkpt>
      <trkpt lat="43.611755" lon="-8.185758">
        <ele>34.820</ele>
        <time>2016-09-22T09:04:07Z</time>
      </trkpt>
      <trkpt lat="43.611774" lon="-8.185788">
        <ele>34.808</ele>
        <time>2016-09-22T09:04:08Z</time>
      </trkpt>
      <trkpt lat="43.611801" lon="-8.185809">
        <ele>34.883</ele>
        <time>2016-09-22T09:04:09Z</time>
      </trkpt>
      <trkpt lat="43.611867" lon="-8.185838">
        <ele>35.067</ele>
        <time>2016-09-22T09:04:11Z</time>
      </trkpt>
      <trkpt lat="43.612057" lon="-8.185892">
        <ele>35.042</ele>
        <time>2016-09-22T09:04:16Z</time>
      </trkpt>
      <trkpt lat="43.612403" lon="-8.186018">
        <ele>34.810</ele>
        <time>2016-09-22T09:04:24Z</time>
      </trkpt>
      <trkpt lat="43.612786" lon="-8.186144">
        <ele>34.038</ele>
        <time>2016-09-22T09:04:31Z</time>
      </trkpt>
      <trkpt lat="43.612852" lon="-8.186169">
        <ele>33.438</ele>
        <time>2016-09-22T09:04:32Z</time>
      </trkpt>
      <trkpt lat="43.613147" lon="-8.186270">
        <ele>32.030</ele>
        <time>2016-09-22T09:04:36Z</time>
      </trkpt>
      <trkpt lat="43.613227" lon="-8.186294">
        <ele>31.642</ele>
        <time>2016-09-22T09:04:37Z</time>
      </trkpt>
      <trkpt lat="43.613387" lon="-8.186348">
        <ele>31.063</ele>
        <time>2016-09-22T09:04:39Z</time>
      </trkpt>
      <trkpt lat="43.613546" lon="-8.186403">
        <ele>29.844</ele>
        <time>2016-09-22T09:04:41Z</time>
      </trkpt>
      <trkpt lat="43.613841" lon="-8.186507">
        <ele>28.818</ele>
        <time>2016-09-22T09:04:45Z</time>
      </trkpt>
      <trkpt lat="43.613908" lon="-8.186531">
        <ele>28.608</ele>
        <time>2016-09-22T09:04:46Z</time>
      </trkpt>
      <trkpt lat="43.614209" lon="-8.186634">
        <ele>28.027</ele>
        <time>2016-09-22T09:04:51Z</time>
      </trkpt>
      <trkpt lat="43.614264" lon="-8.186645">
        <ele>27.871</ele>
        <time>2016-09-22T09:04:52Z</time>
      </trkpt>
      <trkpt lat="43.614534" lon="-8.186660">
        <ele>28.436</ele>
        <time>2016-09-22T09:04:57Z</time>
      </trkpt>
      <trkpt lat="43.614585" lon="-8.186653">
        <ele>28.464</ele>
        <time>2016-09-22T09:04:58Z</time>
      </trkpt>
      <trkpt lat="43.614836" lon="-8.186580">
        <ele>28.672</ele>
        <time>2016-09-22T09:05:03Z</time>
      </trkpt>
      <trkpt lat="43.615036" lon="-8.186567">
        <ele>29.292</ele>
        <time>2016-09-22T09:05:08Z</time>
      </trkpt>
      <trkpt lat="43.615057" lon="-8.186656">
        <ele>29.664</ele>
        <time>2016-09-22T09:05:10Z</time>
      </trkpt>
      <trkpt lat="43.615050" lon="-8.186703">
        <ele>29.686</ele>
        <time>2016-09-22T09:05:11Z</time>
      </trkpt>
      <trkpt lat="43.614976" lon="-8.186871">
        <ele>29.856</ele>
        <time>2016-09-22T09:05:15Z</time>
      </trkpt>
      <trkpt lat="43.614949" lon="-8.186912">
        <ele>29.859</ele>
        <time>2016-09-22T09:05:16Z</time>
      </trkpt>
      <trkpt lat="43.614742" lon="-8.187168">
        <ele>29.214</ele>
        <time>2016-09-22T09:05:23Z</time>
      </trkpt>
      <trkpt lat="43.614599" lon="-8.187362">
        <ele>29.408</ele>
        <time>2016-09-22T09:05:29Z</time>
      </trkpt>
      <trkpt lat="43.614534" lon="-8.187596">
        <ele>29.266</ele>
        <time>2016-09-22T09:05:34Z</time>
      </trkpt>
      <trkpt lat="43.614504" lon="-8.187831">
        <ele>29.640</ele>
        <time>2016-09-22T09:05:39Z</time>
      </trkpt>
      <trkpt lat="43.614392" lon="-8.188015">
        <ele>29.695</ele>
        <time>2016-09-22T09:05:44Z</time>
      </trkpt>
      <trkpt lat="43.614200" lon="-8.188211">
        <ele>30.243</ele>
        <time>2016-09-22T09:05:51Z</time>
      </trkpt>
      <trkpt lat="43.614099" lon="-8.188388">
        <ele>29.871</ele>
        <time>2016-09-22T09:05:57Z</time>
      </trkpt>
      <trkpt lat="43.613997" lon="-8.188508">
        <ele>30.691</ele>
        <time>2016-09-22T09:06:03Z</time>
      </trkpt>
      <trkpt lat="43.613986" lon="-8.188523">
        <ele>30.623</ele>
        <time>2016-09-22T09:06:04Z</time>
      </trkpt>
      <trkpt lat="43.613941" lon="-8.188586">
        <ele>30.695</ele>
        <time>2016-09-22T09:06:10Z</time>
      </trkpt>
      <trkpt lat="43.613941" lon="-8.188585">
        <ele>30.633</ele>
        <time>2016-09-22T09:06:11Z</time>
      </trkpt>
      <trkpt lat="43.614018" lon="-8.188476">
        <ele>30.423</ele>
        <time>2016-09-22T09:07:09Z</time>
      </trkpt>
      <trkpt lat="43.614057" lon="-8.188431">
        <ele>30.415</ele>
        <time>2016-09-22T09:07:11Z</time>
      </trkpt>
      <trkpt lat="43.614175" lon="-8.188259">
        <ele>30.408</ele>
        <time>2016-09-22T09:07:16Z</time>
      </trkpt>
      <trkpt lat="43.614320" lon="-8.188078">
        <ele>30.074</ele>
        <time>2016-09-22T09:07:22Z</time>
      </trkpt>
      <trkpt lat="43.614488" lon="-8.187857">
        <ele>29.818</ele>
        <time>2016-09-22T09:07:29Z</time>
      </trkpt>
      <trkpt lat="43.614522" lon="-8.187610">
        <ele>30.453</ele>
        <time>2016-09-22T09:07:34Z</time>
      </trkpt>
      <trkpt lat="43.614584" lon="-8.187362">
        <ele>30.421</ele>
        <time>2016-09-22T09:07:39Z</time>
      </trkpt>
      <trkpt lat="43.614609" lon="-8.187321">
        <ele>30.239</ele>
        <time>2016-09-22T09:07:40Z</time>
      </trkpt>
      <trkpt lat="43.614664" lon="-8.187236">
        <ele>29.459</ele>
        <time>2016-09-22T09:07:42Z</time>
      </trkpt>
      <trkpt lat="43.614817" lon="-8.187036">
        <ele>29.411</ele>
        <time>2016-09-22T09:07:47Z</time>
      </trkpt>
      <trkpt lat="43.615011" lon="-8.186760">
        <ele>30.243</ele>
        <time>2016-09-22T09:07:54Z</time>
      </trkpt>
      <trkpt lat="43.615040" lon="-8.186622">
        <ele>30.277</ele>
        <time>2016-09-22T09:07:57Z</time>
      </trkpt>
      <trkpt lat="43.615025" lon="-8.186582">
        <ele>30.261</ele>
        <time>2016-09-22T09:07:58Z</time>
      </trkpt>
      <trkpt lat="43.614932" lon="-8.186566">
        <ele>30.427</ele>
        <time>2016-09-22T09:08:01Z</time>
      </trkpt>
      <trkpt lat="43.614895" lon="-8.186578">
        <ele>30.408</ele>
        <time>2016-09-22T09:08:02Z</time>
      </trkpt>
      <trkpt lat="43.614590" lon="-8.186658">
        <ele>29.498</ele>
        <time>2016-09-22T09:08:09Z</time>
      </trkpt>
      <trkpt lat="43.614270" lon="-8.186668">
        <ele>28.882</ele>
        <time>2016-09-22T09:08:16Z</time>
      </trkpt>
      <trkpt lat="43.614083" lon="-8.186616">
        <ele>28.277</ele>
        <time>2016-09-22T09:08:20Z</time>
      </trkpt>
      <trkpt lat="43.613927" lon="-8.186569">
        <ele>28.055</ele>
        <time>2016-09-22T09:08:23Z</time>
      </trkpt>
      <trkpt lat="43.613444" lon="-8.186399">
        <ele>28.663</ele>
        <time>2016-09-22T09:08:32Z</time>
      </trkpt>
      <trkpt lat="43.613236" lon="-8.186330">
        <ele>29.443</ele>
        <time>2016-09-22T09:08:36Z</time>
      </trkpt>
      <trkpt lat="43.613053" lon="-8.186272">
        <ele>29.895</ele>
        <time>2016-09-22T09:08:40Z</time>
      </trkpt>
      <trkpt lat="43.612892" lon="-8.186215">
        <ele>30.437</ele>
        <time>2016-09-22T09:08:44Z</time>
      </trkpt>
      <trkpt lat="43.612773" lon="-8.186181">
        <ele>31.417</ele>
        <time>2016-09-22T09:08:47Z</time>
      </trkpt>
      <trkpt lat="43.612732" lon="-8.186169">
        <ele>31.687</ele>
        <time>2016-09-22T09:08:48Z</time>
      </trkpt>
      <trkpt lat="43.612564" lon="-8.186113">
        <ele>32.815</ele>
        <time>2016-09-22T09:08:52Z</time>
      </trkpt>
      <trkpt lat="43.612364" lon="-8.186042">
        <ele>34.008</ele>
        <time>2016-09-22T09:08:57Z</time>
      </trkpt>
      <trkpt lat="43.611924" lon="-8.185884">
        <ele>34.612</ele>
        <time>2016-09-22T09:09:07Z</time>
      </trkpt>
      <trkpt lat="43.611688" lon="-8.185802">
        <ele>35.046</ele>
        <time>2016-09-22T09:09:12Z</time>
      </trkpt>
      <trkpt lat="43.611430" lon="-8.185724">
        <ele>35.421</ele>
        <time>2016-09-22T09:09:17Z</time>
      </trkpt>
      <trkpt lat="43.611022" lon="-8.185588">
        <ele>33.889</ele>
        <time>2016-09-22T09:09:24Z</time>
      </trkpt>
      <trkpt lat="43.610963" lon="-8.185567">
        <ele>33.637</ele>
        <time>2016-09-22T09:09:25Z</time>
      </trkpt>
      <trkpt lat="43.610723" lon="-8.185486">
        <ele>32.627</ele>
        <time>2016-09-22T09:09:29Z</time>
      </trkpt>
      <trkpt lat="43.610483" lon="-8.185404">
        <ele>32.639</ele>
        <time>2016-09-22T09:09:33Z</time>
      </trkpt>
      <trkpt lat="43.610265" lon="-8.185335">
        <ele>32.871</ele>
        <time>2016-09-22T09:09:37Z</time>
      </trkpt>
      <trkpt lat="43.610217" lon="-8.185348">
        <ele>32.618</ele>
        <time>2016-09-22T09:09:38Z</time>
      </trkpt>
      <trkpt lat="43.610076" lon="-8.185222">
        <ele>33.498</ele>
        <time>2016-09-22T09:13:44Z</time>
      </trkpt>
      <trkpt lat="43.609973" lon="-8.185185">
        <ele>33.217</ele>
        <time>2016-09-22T09:13:46Z</time>
      </trkpt>
      <trkpt lat="43.609767" lon="-8.185122">
        <ele>33.808</ele>
        <time>2016-09-22T09:13:50Z</time>
      </trkpt>
      <trkpt lat="43.609317" lon="-8.184978">
        <ele>34.832</ele>
        <time>2016-09-22T09:13:59Z</time>
      </trkpt>
      <trkpt lat="43.608962" lon="-8.184872">
        <ele>34.866</ele>
        <time>2016-09-22T09:14:06Z</time>
      </trkpt>
      <trkpt lat="43.608910" lon="-8.184855">
        <ele>34.851</ele>
        <time>2016-09-22T09:14:07Z</time>
      </trkpt>
      <trkpt lat="43.608400" lon="-8.184715">
        <ele>35.439</ele>
        <time>2016-09-22T09:14:17Z</time>
      </trkpt>
      <trkpt lat="43.608077" lon="-8.184692">
        <ele>34.427</ele>
        <time>2016-09-22T09:14:22Z</time>
      </trkpt>
      <trkpt lat="43.607925" lon="-8.184683">
        <ele>33.697</ele>
        <time>2016-09-22T09:14:24Z</time>
      </trkpt>
      <trkpt lat="43.607611" lon="-8.184668">
        <ele>32.499</ele>
        <time>2016-09-22T09:14:28Z</time>
      </trkpt>
      <trkpt lat="43.607378" lon="-8.184654">
        <ele>31.471</ele>
        <time>2016-09-22T09:14:31Z</time>
      </trkpt>
      <trkpt lat="43.607154" lon="-8.184649">
        <ele>30.291</ele>
        <time>2016-09-22T09:14:34Z</time>
      </trkpt>
      <trkpt lat="43.606801" lon="-8.184630">
        <ele>29.481</ele>
        <time>2016-09-22T09:14:39Z</time>
      </trkpt>
      <trkpt lat="43.606734" lon="-8.184625">
        <ele>29.219</ele>
        <time>2016-09-22T09:14:40Z</time>
      </trkpt>
      <trkpt lat="43.606295" lon="-8.184578">
        <ele>28.608</ele>
        <time>2016-09-22T09:14:47Z</time>
      </trkpt>
      <trkpt lat="43.606144" lon="-8.184679">
        <ele>28.090</ele>
        <time>2016-09-22T09:14:50Z</time>
      </trkpt>
      <trkpt lat="43.606135" lon="-8.184915">
        <ele>28.034</ele>
        <time>2016-09-22T09:14:53Z</time>
      </trkpt>
      <trkpt lat="43.606143" lon="-8.184995">
        <ele>27.879</ele>
        <time>2016-09-22T09:14:54Z</time>
      </trkpt>
      <trkpt lat="43.606179" lon="-8.185307">
        <ele>27.867</ele>
        <time>2016-09-22T09:14:58Z</time>
      </trkpt>
      <trkpt lat="43.606184" lon="-8.185464">
        <ele>27.895</ele>
        <time>2016-09-22T09:15:00Z</time>
      </trkpt>
      <trkpt lat="43.606223" lon="-8.185873">
        <ele>26.855</ele>
        <time>2016-09-22T09:15:05Z</time>
      </trkpt>
      <trkpt lat="43.606232" lon="-8.185959">
        <ele>26.617</ele>
        <time>2016-09-22T09:15:06Z</time>
      </trkpt>
      <trkpt lat="43.606253" lon="-8.186304">
        <ele>25.839</ele>
        <time>2016-09-22T09:15:10Z</time>
      </trkpt>
      <trkpt lat="43.606265" lon="-8.186660">
        <ele>24.632</ele>
        <time>2016-09-22T09:15:14Z</time>
      </trkpt>
      <trkpt lat="43.606271" lon="-8.186751">
        <ele>24.492</ele>
        <time>2016-09-22T09:15:15Z</time>
      </trkpt>
      <trkpt lat="43.606309" lon="-8.187238">
        <ele>23.411</ele>
        <time>2016-09-22T09:15:20Z</time>
      </trkpt>
      <trkpt lat="43.606318" lon="-8.187457">
        <ele>22.408</ele>
        <time>2016-09-22T09:15:22Z</time>
      </trkpt>
      <trkpt lat="43.606329" lon="-8.187809">
        <ele>21.294</ele>
        <time>2016-09-22T09:15:25Z</time>
      </trkpt>
      <trkpt lat="43.606342" lon="-8.188061">
        <ele>19.868</ele>
        <time>2016-09-22T09:15:27Z</time>
      </trkpt>
      <trkpt lat="43.606352" lon="-8.188190">
        <ele>19.493</ele>
        <time>2016-09-22T09:15:28Z</time>
      </trkpt>
      <trkpt lat="43.606365" lon="-8.188319">
        <ele>18.621</ele>
        <time>2016-09-22T09:15:29Z</time>
      </trkpt>
      <trkpt lat="43.606387" lon="-8.188573">
        <ele>17.439</ele>
        <time>2016-09-22T09:15:31Z</time>
      </trkpt>
      <trkpt lat="43.606407" lon="-8.188812">
        <ele>16.289</ele>
        <time>2016-09-22T09:15:33Z</time>
      </trkpt>
      <trkpt lat="43.606417" lon="-8.188921">
        <ele>16.091</ele>
        <time>2016-09-22T09:15:34Z</time>
      </trkpt>
      <trkpt lat="43.606445" lon="-8.189269">
        <ele>16.083</ele>
        <time>2016-09-22T09:15:38Z</time>
      </trkpt>
      <trkpt lat="43.606490" lon="-8.189761">
        <ele>16.889</ele>
        <time>2016-09-22T09:15:45Z</time>
      </trkpt>
      <trkpt lat="43.606503" lon="-8.189891">
        <ele>17.406</ele>
        <time>2016-09-22T09:15:47Z</time>
      </trkpt>
      <trkpt lat="43.606531" lon="-8.190117">
        <ele>18.426</ele>
        <time>2016-09-22T09:15:51Z</time>
      </trkpt>
      <trkpt lat="43.606539" lon="-8.190174">
        <ele>18.608</ele>
        <time>2016-09-22T09:15:52Z</time>
      </trkpt>
      <trkpt lat="43.606570" lon="-8.190591">
        <ele>17.899</ele>
        <time>2016-09-22T09:15:58Z</time>
      </trkpt>
      <trkpt lat="43.606582" lon="-8.190756">
        <ele>17.423</ele>
        <time>2016-09-22T09:16:00Z</time>
      </trkpt>
      <trkpt lat="43.606605" lon="-8.190985">
        <ele>16.498</ele>
        <time>2016-09-22T09:16:03Z</time>
      </trkpt>
      <trkpt lat="43.606604" lon="-8.191040">
        <ele>16.296</ele>
        <time>2016-09-22T09:16:04Z</time>
      </trkpt>
      <trkpt lat="43.606531" lon="-8.191192">
        <ele>15.674</ele>
        <time>2016-09-22T09:16:08Z</time>
      </trkpt>
      <trkpt lat="43.606491" lon="-8.191222">
        <ele>15.234</ele>
        <time>2016-09-22T09:16:09Z</time>
      </trkpt>
      <trkpt lat="43.606456" lon="-8.191253">
        <ele>15.216</ele>
        <time>2016-09-22T09:16:10Z</time>
      </trkpt>
      <trkpt lat="43.606370" lon="-8.191320">
        <ele>13.618</ele>
        <time>2016-09-22T09:16:13Z</time>
      </trkpt>
      <trkpt lat="43.606279" lon="-8.191398">
        <ele>13.081</ele>
        <time>2016-09-22T09:16:19Z</time>
      </trkpt>
      <trkpt lat="43.606254" lon="-8.191414">
        <ele>12.661</ele>
        <time>2016-09-22T09:16:23Z</time>
      </trkpt>
      <trkpt lat="43.606244" lon="-8.191424">
        <ele>12.417</ele>
        <time>2016-09-22T09:16:25Z</time>
      </trkpt>
      <trkpt lat="43.606237" lon="-8.191428">
        <ele>12.408</ele>
        <time>2016-09-22T09:16:26Z</time>
      </trkpt>
      <trkpt lat="43.606228" lon="-8.191423">
        <ele>12.459</ele>
        <time>2016-09-22T09:16:29Z</time>
      </trkpt>
      <trkpt lat="43.606265" lon="-8.191368">
        <ele>12.633</ele>
        <time>2016-09-22T09:17:15Z</time>
      </trkpt>
      <trkpt lat="43.606272" lon="-8.191306">
        <ele>12.638</ele>
        <time>2016-09-22T09:17:17Z</time>
      </trkpt>
      <trkpt lat="43.606282" lon="-8.191278">
        <ele>12.616</ele>
        <time>2016-09-22T09:17:18Z</time>
      </trkpt>
      <trkpt lat="43.606316" lon="-8.191248">
        <ele>12.634</ele>
        <time>2016-09-22T09:17:20Z</time>
      </trkpt>
      <trkpt lat="43.606327" lon="-8.191183">
        <ele>12.694</ele>
        <time>2016-09-22T09:17:23Z</time>
      </trkpt>
      <trkpt lat="43.606247" lon="-8.191087">
        <ele>12.026</ele>
        <time>2016-09-22T09:17:26Z</time>
      </trkpt>
      <trkpt lat="43.606207" lon="-8.191050">
        <ele>11.828</ele>
        <time>2016-09-22T09:17:27Z</time>
      </trkpt>
      <trkpt lat="43.606079" lon="-8.190930">
        <ele>11.055</ele>
        <time>2016-09-22T09:17:30Z</time>
      </trkpt>
      <trkpt lat="43.605994" lon="-8.190844">
        <ele>10.407</ele>
        <time>2016-09-22T09:17:32Z</time>
      </trkpt>
      <trkpt lat="43.605882" lon="-8.190706">
        <ele>9.817</ele>
        <time>2016-09-22T09:17:35Z</time>
      </trkpt>
      <trkpt lat="43.605845" lon="-8.190670">
        <ele>9.808</ele>
        <time>2016-09-22T09:17:36Z</time>
      </trkpt>
      <trkpt lat="43.605764" lon="-8.190624">
        <ele>9.826</ele>
        <time>2016-09-22T09:17:38Z</time>
      </trkpt>
      <trkpt lat="43.605523" lon="-8.190592">
        <ele>10.030</ele>
        <time>2016-09-22T09:17:43Z</time>
      </trkpt>
      <trkpt lat="43.605360" lon="-8.190615">
        <ele>10.215</ele>
        <time>2016-09-22T09:17:46Z</time>
      </trkpt>
      <trkpt lat="43.605250" lon="-8.190670">
        <ele>9.813</ele>
        <time>2016-09-22T09:17:48Z</time>
      </trkpt>
      <trkpt lat="43.605013" lon="-8.190728">
        <ele>8.851</ele>
        <time>2016-09-22T09:17:52Z</time>
      </trkpt>
      <trkpt lat="43.604957" lon="-8.190727">
        <ele>8.841</ele>
        <time>2016-09-22T09:17:53Z</time>
      </trkpt>
      <trkpt lat="43.604803" lon="-8.190708">
        <ele>8.423</ele>
        <time>2016-09-22T09:17:56Z</time>
      </trkpt>
      <trkpt lat="43.604754" lon="-8.190708">
        <ele>8.035</ele>
        <time>2016-09-22T09:17:57Z</time>
      </trkpt>
      <trkpt lat="43.604436" lon="-8.190804">
        <ele>9.228</ele>
        <time>2016-09-22T09:18:04Z</time>
      </trkpt>
      <trkpt lat="43.604308" lon="-8.190899">
        <ele>9.689</ele>
        <time>2016-09-22T09:18:08Z</time>
      </trkpt>
      <trkpt lat="43.604287" lon="-8.190943">
        <ele>10.017</ele>
        <time>2016-09-22T09:18:09Z</time>
      </trkpt>
      <trkpt lat="43.604215" lon="-8.191096">
        <ele>10.008</ele>
        <time>2016-09-22T09:18:12Z</time>
      </trkpt>
      <trkpt lat="43.604182" lon="-8.191142">
        <ele>9.873</ele>
        <time>2016-09-22T09:18:13Z</time>
      </trkpt>
      <trkpt lat="43.604069" lon="-8.191233">
        <ele>9.027</ele>
        <time>2016-09-22T09:18:16Z</time>
      </trkpt>
      <trkpt lat="43.604030" lon="-8.191259">
        <ele>9.032</ele>
        <time>2016-09-22T09:18:17Z</time>
      </trkpt>
      <trkpt lat="43.603991" lon="-8.191285">
        <ele>8.840</ele>
        <time>2016-09-22T09:18:18Z</time>
      </trkpt>
      <trkpt lat="43.603955" lon="-8.191312">
        <ele>8.878</ele>
        <time>2016-09-22T09:18:19Z</time>
      </trkpt>
      <trkpt lat="43.603883" lon="-8.191426">
        <ele>8.878</ele>
        <time>2016-09-22T09:18:22Z</time>
      </trkpt>
      <trkpt lat="43.603854" lon="-8.191559">
        <ele>8.420</ele>
        <time>2016-09-22T09:18:26Z</time>
      </trkpt>
      <trkpt lat="43.603835" lon="-8.191603">
        <ele>7.812</ele>
        <time>2016-09-22T09:18:29Z</time>
      </trkpt>
      <trkpt lat="43.603835" lon="-8.191603">
        <ele>7.899</ele>
        <time>2016-09-22T09:18:30Z</time>
      </trkpt>
      <trkpt lat="43.603861" lon="-8.191511">
        <ele>8.007</ele>
        <time>2016-09-22T09:18:42Z</time>
      </trkpt>
      <trkpt lat="43.603856" lon="-8.191474">
        <ele>8.227</ele>
        <time>2016-09-22T09:18:44Z</time>
      </trkpt>
      <trkpt lat="43.603835" lon="-8.191426">
        <ele>8.808</ele>
        <time>2016-09-22T09:18:49Z</time>
      </trkpt>
      <trkpt lat="43.603833" lon="-8.191406">
        <ele>9.060</ele>
        <time>2016-09-22T09:18:50Z</time>
      </trkpt>
      <trkpt lat="43.603831" lon="-8.191383">
        <ele>9.084</ele>
        <time>2016-09-22T09:18:51Z</time>
      </trkpt>
      <trkpt lat="43.603806" lon="-8.191185">
        <ele>10.089</ele>
        <time>2016-09-22T09:18:58Z</time>
      </trkpt>
      <trkpt lat="43.603795" lon="-8.191111">
        <ele>11.287</ele>
        <time>2016-09-22T09:19:01Z</time>
      </trkpt>
      <trkpt lat="43.603785" lon="-8.191044">
        <ele>12.215</ele>
        <time>2016-09-22T09:19:04Z</time>
      </trkpt>
      <trkpt lat="43.603781" lon="-8.191004">
        <ele>12.675</ele>
        <time>2016-09-22T09:19:06Z</time>
      </trkpt>
      <trkpt lat="43.603771" lon="-8.190952">
        <ele>14.017</ele>
        <time>2016-09-22T09:19:09Z</time>
      </trkpt>
      <trkpt lat="43.603767" lon="-8.190932">
        <ele>14.219</ele>
        <time>2016-09-22T09:19:10Z</time>
      </trkpt>
      <trkpt lat="43.603756" lon="-8.190854">
        <ele>15.049</ele>
        <time>2016-09-22T09:19:14Z</time>
      </trkpt>
      <trkpt lat="43.603749" lon="-8.190782">
        <ele>15.602</ele>
        <time>2016-09-22T09:19:17Z</time>
      </trkpt>
      <trkpt lat="43.603740" lon="-8.190703">
        <ele>16.022</ele>
        <time>2016-09-22T09:19:20Z</time>
      </trkpt>
      <trkpt lat="43.603730" lon="-8.190599">
        <ele>16.608</ele>
        <time>2016-09-22T09:19:24Z</time>
      </trkpt>
      <trkpt lat="43.603721" lon="-8.190533">
        <ele>17.295</ele>
        <time>2016-09-22T09:19:27Z</time>
      </trkpt>
      <trkpt lat="43.603708" lon="-8.190466">
        <ele>17.449</ele>
        <time>2016-09-22T09:19:31Z</time>
      </trkpt>
      <trkpt lat="43.603708" lon="-8.190457">
        <ele>17.884</ele>
        <time>2016-09-22T09:19:33Z</time>
      </trkpt>
      <trkpt lat="43.603686" lon="-8.190350">
        <ele>19.832</ele>
        <time>2016-10-12T22:30:16Z</time>
      </trkpt>
      <trkpt lat="43.603552" lon="-8.190278">
        <ele>21.020</ele>
        <time>2016-10-12T22:30:36Z</time>
      </trkpt>
      <trkpt lat="43.603327" lon="-8.190184">
        <ele>22.470</ele>
        <time>2016-10-12T22:30:56Z</time>
      </trkpt>
      <trkpt lat="43.603322" lon="-8.190184">
        <ele>22.462</ele>
        <time>2016-10-12T22:31:16Z</time>
      </trkpt>
      <trkpt lat="43.603156" lon="-8.190118">
        <ele>23.424</ele>
        <time>2016-10-12T22:31:36Z</time>
      </trkpt>
      <trkpt lat="43.603138" lon="-8.190106">
        <ele>23.578</ele>
        <time>2016-10-12T22:31:56Z</time>
      </trkpt>
      <trkpt lat="43.602986" lon="-8.190023">
        <ele>24.533</ele>
        <time>2016-10-12T22:32:16Z</time>
      </trkpt>
      <trkpt lat="43.602792" lon="-8.189996">
        <ele>25.226</ele>
        <time>2016-10-12T22:32:36Z</time>
      </trkpt>
      <trkpt lat="43.602712" lon="-8.189974">
        <ele>25.508</ele>
        <time>2016-10-12T22:32:56Z</time>
      </trkpt>
      <trkpt lat="43.602698" lon="-8.189968">
        <ele>25.628</ele>
        <time>2016-10-12T22:33:16Z</time>
      </trkpt>
      <trkpt lat="43.602667" lon="-8.189940">
        <ele>25.912</ele>
        <time>2016-10-12T22:33:36Z</time>
      </trkpt>
      <trkpt lat="43.602667" lon="-8.189902">
        <ele>26.177</ele>
        <time>2016-10-12T22:33:56Z</time>
      </trkpt>
      <trkpt lat="43.602667" lon="-8.189863">
        <ele>26.335</ele>
        <time>2016-10-12T22:34:16Z</time>
      </trkpt>
      <trkpt lat="43.602667" lon="-8.189852">
        <ele>26.353</ele>
        <time>2016-10-12T22:34:36Z</time>
      </trkpt>
      <trkpt lat="43.602667" lon="-8.189736">
        <ele>26.923</ele>
        <time>2016-10-12T22:34:56Z</time>
      </trkpt>
      <trkpt lat="43.602662" lon="-8.189697">
        <ele>27.175</ele>
        <time>2016-10-12T22:35:16Z</time>
      </trkpt>
      <trkpt lat="43.602658" lon="-8.189658">
        <ele>27.397</ele>
        <time>2016-10-12T22:35:36Z</time>
      </trkpt>
      <trkpt lat="43.602653" lon="-8.189492">
        <ele>28.145</ele>
        <time>2016-10-12T22:35:56Z</time>
      </trkpt>
      <trkpt lat="43.602653" lon="-8.189476">
        <ele>28.247</ele>
        <time>2016-10-12T22:36:16Z</time>
      </trkpt>
      <trkpt lat="43.602662" lon="-8.189332">
        <ele>28.911</ele>
        <time>2016-10-12T22:36:36Z</time>
      </trkpt>
      <trkpt lat="43.602662" lon="-8.189310">
        <ele>29.008</ele>
        <time>2016-10-12T22:36:56Z</time>
      </trkpt>
      <trkpt lat="43.602662" lon="-8.189249">
        <ele>29.315</ele>
        <time>2016-10-12T22:37:16Z</time>
      </trkpt>
      <trkpt lat="43.602627" lon="-8.189233">
        <ele>26.829</ele>
        <time>2016-09-22T09:23:52Z</time>
      </trkpt>
      <trkpt lat="43.602613" lon="-8.189233">
        <ele>26.874</ele>
        <time>2016-09-22T09:23:53Z</time>
      </trkpt>
      <trkpt lat="43.602507" lon="-8.189236">
        <ele>27.092</ele>
        <time>2016-09-22T09:23:58Z</time>
      </trkpt>
      <trkpt lat="43.602280" lon="-8.189231">
        <ele>27.670</ele>
        <time>2016-09-22T09:24:05Z</time>
      </trkpt>
      <trkpt lat="43.602037" lon="-8.189231">
        <ele>27.830</ele>
        <time>2016-09-22T09:24:12Z</time>
      </trkpt>
      <trkpt lat="43.601959" lon="-8.189231">
        <ele>27.812</ele>
        <time>2016-09-22T09:24:14Z</time>
      </trkpt>
      <trkpt lat="43.601790" lon="-8.189219">
        <ele>28.094</ele>
        <time>2016-09-22T09:24:18Z</time>
      </trkpt>
      <trkpt lat="43.601456" lon="-8.189213">
        <ele>27.859</ele>
        <time>2016-09-22T09:24:25Z</time>
      </trkpt>
      <trkpt lat="43.601119" lon="-8.189207">
        <ele>27.803</ele>
        <time>2016-09-22T09:24:32Z</time>
      </trkpt>
      <trkpt lat="43.600771" lon="-8.189165">
        <ele>27.423</ele>
        <time>2016-09-22T09:24:39Z</time>
      </trkpt>
      <trkpt lat="43.600587" lon="-8.189135">
        <ele>26.808</ele>
        <time>2016-09-22T09:24:42Z</time>
      </trkpt>
      <trkpt lat="43.600522" lon="-8.189116">
        <ele>26.426</ele>
        <time>2016-09-22T09:24:43Z</time>
      </trkpt>
      <trkpt lat="43.600459" lon="-8.189095">
        <ele>26.030</ele>
        <time>2016-09-22T09:24:44Z</time>
      </trkpt>
      <trkpt lat="43.600399" lon="-8.189085">
        <ele>25.825</ele>
        <time>2016-09-22T09:24:45Z</time>
      </trkpt>
      <trkpt lat="43.600343" lon="-8.189089">
        <ele>25.453</ele>
        <time>2016-09-22T09:24:46Z</time>
      </trkpt>
      <trkpt lat="43.600295" lon="-8.189107">
        <ele>25.061</ele>
        <time>2016-09-22T09:24:47Z</time>
      </trkpt>
      <trkpt lat="43.600245" lon="-8.189259">
        <ele>24.041</ele>
        <time>2016-09-22T09:24:49Z</time>
      </trkpt>
      <trkpt lat="43.600233" lon="-8.189438">
        <ele>23.063</ele>
        <time>2016-09-22T09:24:51Z</time>
      </trkpt>
      <trkpt lat="43.600228" lon="-8.189534">
        <ele>22.835</ele>
        <time>2016-09-22T09:24:52Z</time>
      </trkpt>
      <trkpt lat="43.600222" lon="-8.189630">
        <ele>22.675</ele>
        <time>2016-09-22T09:24:53Z</time>
      </trkpt>
      <trkpt lat="43.600200" lon="-8.189947">
        <ele>21.628</ele>
        <time>2016-09-22T09:24:56Z</time>
      </trkpt>
      <trkpt lat="43.600191" lon="-8.190167">
        <ele>20.420</ele>
        <time>2016-09-22T09:24:58Z</time>
      </trkpt>
      <trkpt lat="43.600186" lon="-8.190272">
        <ele>19.808</ele>
        <time>2016-09-22T09:24:59Z</time>
      </trkpt>
      <trkpt lat="43.600181" lon="-8.190372">
        <ele>19.248</ele>
        <time>2016-09-22T09:25:00Z</time>
      </trkpt>
      <trkpt lat="43.600169" lon="-8.190584">
        <ele>17.422</ele>
        <time>2016-09-22T09:25:02Z</time>
      </trkpt>
      <trkpt lat="43.600168" lon="-8.190791">
        <ele>15.217</ele>
        <time>2016-09-22T09:25:04Z</time>
      </trkpt>
      <trkpt lat="43.600180" lon="-8.190891">
        <ele>14.045</ele>
        <time>2016-09-22T09:25:05Z</time>
      </trkpt>
      <trkpt lat="43.600224" lon="-8.191086">
        <ele>12.253</ele>
        <time>2016-09-22T09:25:07Z</time>
      </trkpt>
      <trkpt lat="43.600251" lon="-8.191173">
        <ele>11.633</ele>
        <time>2016-09-22T09:25:08Z</time>
      </trkpt>
      <trkpt lat="43.600271" lon="-8.191250">
        <ele>10.845</ele>
        <time>2016-09-22T09:25:09Z</time>
      </trkpt>
      <trkpt lat="43.600312" lon="-8.191412">
        <ele>9.687</ele>
        <time>2016-09-22T09:25:12Z</time>
      </trkpt>
      <trkpt lat="43.600323" lon="-8.191447">
        <ele>8.822</ele>
        <time>2016-09-22T09:25:13Z</time>
      </trkpt>
      <trkpt lat="43.600335" lon="-8.191475">
        <ele>8.462</ele>
        <time>2016-09-22T09:25:14Z</time>
      </trkpt>
      <trkpt lat="43.600376" lon="-8.191571">
        <ele>7.408</ele>
        <time>2016-09-22T09:25:19Z</time>
      </trkpt>
      <trkpt lat="43.600385" lon="-8.191582">
        <ele>7.408</ele>
        <time>2016-09-22T09:25:20Z</time>
      </trkpt>
      <trkpt lat="43.600402" lon="-8.191650">
        <ele>6.623</ele>
        <time>2016-09-22T09:25:25Z</time>
      </trkpt>
      <trkpt lat="43.600408" lon="-8.191664">
        <ele>6.447</ele>
        <time>2016-09-22T09:25:28Z</time>
      </trkpt>
      <trkpt lat="43.600362" lon="-8.191611">
        <ele>6.672</ele>
        <time>2016-09-22T09:26:10Z</time>
      </trkpt>
      <trkpt lat="43.600237" lon="-8.191561">
        <ele>7.060</ele>
        <time>2016-09-22T09:26:16Z</time>
      </trkpt>
      <trkpt lat="43.600152" lon="-8.191605">
        <ele>7.828</ele>
        <time>2016-09-22T09:26:21Z</time>
      </trkpt>
      <trkpt lat="43.600118" lon="-8.191628">
        <ele>8.078</ele>
        <time>2016-09-22T09:26:23Z</time>
      </trkpt>
      <trkpt lat="43.600075" lon="-8.191624">
        <ele>8.020</ele>
        <time>2016-09-22T09:26:25Z</time>
      </trkpt>
      <trkpt lat="43.599963" lon="-8.191524">
        <ele>6.672</ele>
        <time>2016-09-22T09:26:31Z</time>
      </trkpt>
      <trkpt lat="43.599947" lon="-8.191505">
        <ele>6.266</ele>
        <time>2016-09-22T09:26:32Z</time>
      </trkpt>
      <trkpt lat="43.599864" lon="-8.191450">
        <ele>5.429</ele>
        <time>2016-09-22T09:26:37Z</time>
      </trkpt>
      <trkpt lat="43.599823" lon="-8.191428">
        <ele>5.021</ele>
        <time>2016-09-22T09:26:39Z</time>
      </trkpt>
      <trkpt lat="43.599716" lon="-8.191370">
        <ele>4.408</ele>
        <time>2016-09-22T09:26:43Z</time>
      </trkpt>
      <trkpt lat="43.599655" lon="-8.191331">
        <ele>4.097</ele>
        <time>2016-09-22T09:26:45Z</time>
      </trkpt>
      <trkpt lat="43.599523" lon="-8.191290">
        <ele>2.811</ele>
        <time>2016-09-22T09:26:49Z</time>
      </trkpt>
      <trkpt lat="43.599492" lon="-8.191287">
        <ele>2.646</ele>
        <time>2016-09-22T09:26:50Z</time>
      </trkpt>
      <trkpt lat="43.599386" lon="-8.191258">
        <ele>2.064</ele>
        <time>2016-09-22T09:26:55Z</time>
      </trkpt>
      <trkpt lat="43.599357" lon="-8.191250">
        <ele>1.652</ele>
        <time>2016-09-22T09:26:59Z</time>
      </trkpt>
      <trkpt lat="43.599136" lon="-8.191184">
        <ele>0.612</ele>
        <time>2016-09-22T09:27:24Z</time>
      </trkpt>
      <trkpt lat="43.599099" lon="-8.191155">
        <ele>0.694</ele>
        <time>2016-09-22T09:27:26Z</time>
      </trkpt>
      <trkpt lat="43.599006" lon="-8.191087">
        <ele>0.656</ele>
        <time>2016-09-22T09:27:31Z</time>
      </trkpt>
      <trkpt lat="43.598872" lon="-8.191069">
        <ele>1.087</ele>
        <time>2016-09-22T09:27:38Z</time>
      </trkpt>
      <trkpt lat="43.598743" lon="-8.191045">
        <ele>0.242</ele>
        <time>2016-09-22T09:27:44Z</time>
      </trkpt>
      <trkpt lat="43.598612" lon="-8.190995">
        <ele>0.226</ele>
        <time>2016-09-22T09:27:51Z</time>
      </trkpt>
      <trkpt lat="43.598468" lon="-8.191014">
        <ele>0.008</ele>
        <time>2016-09-22T09:27:57Z</time>
      </trkpt>
      <trkpt lat="43.598315" lon="-8.191001">
        <ele>0.219</ele>
        <time>2016-09-22T09:28:03Z</time>
      </trkpt>
      <trkpt lat="43.598088" lon="-8.190954">
        <ele>1.043</ele>
        <time>2016-09-22T09:28:12Z</time>
      </trkpt>
      <trkpt lat="43.598024" lon="-8.190945">
        <ele>1.858</ele>
        <time>2016-09-22T09:28:15Z</time>
      </trkpt>
      <trkpt lat="43.597934" lon="-8.190937">
        <ele>3.276</ele>
        <time>2016-09-22T09:28:19Z</time>
      </trkpt>
      <trkpt lat="43.597910" lon="-8.190936">
        <ele>3.274</ele>
        <time>2016-09-22T09:28:20Z</time>
      </trkpt>
      <trkpt lat="43.597711" lon="-8.190936">
        <ele>4.264</ele>
        <time>2016-09-22T09:28:28Z</time>
      </trkpt>
      <trkpt lat="43.597569" lon="-8.190946">
        <ele>5.236</ele>
        <time>2016-09-22T09:28:34Z</time>
      </trkpt>
      <trkpt lat="43.597548" lon="-8.190946">
        <ele>5.498</ele>
        <time>2016-09-22T09:28:35Z</time>
      </trkpt>
      <trkpt lat="43.597393" lon="-8.190940">
        <ele>6.285</ele>
        <time>2016-09-22T09:28:41Z</time>
      </trkpt>
      <trkpt lat="43.597368" lon="-8.190934">
        <ele>6.489</ele>
        <time>2016-09-22T09:28:42Z</time>
      </trkpt>
      <trkpt lat="43.597182" lon="-8.190918">
        <ele>7.217</ele>
        <time>2016-09-22T09:28:49Z</time>
      </trkpt>
      <trkpt lat="43.597091" lon="-8.190943">
        <ele>7.408</ele>
        <time>2016-09-22T09:28:52Z</time>
      </trkpt>
      <trkpt lat="43.597044" lon="-8.191000">
        <ele>7.299</ele>
        <time>2016-09-22T09:28:54Z</time>
      </trkpt>
      <trkpt lat="43.597027" lon="-8.191047">
        <ele>7.213</ele>
        <time>2016-09-22T09:28:55Z</time>
      </trkpt>
      <trkpt lat="43.596984" lon="-8.191224">
        <ele>6.298</ele>
        <time>2016-09-22T09:28:58Z</time>
      </trkpt>
      <trkpt lat="43.596975" lon="-8.191281">
        <ele>6.036</ele>
        <time>2016-09-22T09:28:59Z</time>
      </trkpt>
      <trkpt lat="43.596962" lon="-8.191341">
        <ele>5.414</ele>
        <time>2016-09-22T09:29:00Z</time>
      </trkpt>
      <trkpt lat="43.596945" lon="-8.191401">
        <ele>5.064</ele>
        <time>2016-09-22T09:29:01Z</time>
      </trkpt>
      <trkpt lat="43.596906" lon="-8.191521">
        <ele>4.086</ele>
        <time>2016-09-22T09:29:03Z</time>
      </trkpt>
      <trkpt lat="43.596886" lon="-8.191580">
        <ele>3.678</ele>
        <time>2016-09-22T09:29:04Z</time>
      </trkpt>
      <trkpt lat="43.596818" lon="-8.191836">
        <ele>3.279</ele>
        <time>2016-09-22T09:29:08Z</time>
      </trkpt>
      <trkpt lat="43.596812" lon="-8.191912">
        <ele>2.805</ele>
        <time>2016-09-22T09:29:09Z</time>
      </trkpt>
      <trkpt lat="43.596822" lon="-8.191990">
        <ele>2.625</ele>
        <time>2016-09-22T09:29:10Z</time>
      </trkpt>
      <trkpt lat="43.596879" lon="-8.192142">
        <ele>1.608</ele>
        <time>2016-09-22T09:29:12Z</time>
      </trkpt>
      <trkpt lat="43.596922" lon="-8.192201">
        <ele>1.258</ele>
        <time>2016-09-22T09:29:13Z</time>
      </trkpt>
      <trkpt lat="43.596967" lon="-8.192250">
        <ele>1.042</ele>
        <time>2016-09-22T09:29:14Z</time>
      </trkpt>
      <trkpt lat="43.597048" lon="-8.192343">
        <ele>0.827</ele>
        <time>2016-09-22T09:29:16Z</time>
      </trkpt>
      <trkpt lat="43.597115" lon="-8.192448">
        <ele>0.695</ele>
        <time>2016-09-22T09:29:18Z</time>
      </trkpt>
      <trkpt lat="43.597160" lon="-8.192569">
        <ele>0.893</ele>
        <time>2016-09-22T09:29:20Z</time>
      </trkpt>
      <trkpt lat="43.597217" lon="-8.192758">
        <ele>1.473</ele>
        <time>2016-09-22T09:29:23Z</time>
      </trkpt>
      <trkpt lat="43.597245" lon="-8.192882">
        <ele>1.635</ele>
        <time>2016-09-22T09:29:25Z</time>
      </trkpt>
      <trkpt lat="43.597267" lon="-8.193043">
        <ele>2.287</ele>
        <time>2016-09-22T09:29:28Z</time>
      </trkpt>
      <trkpt lat="43.597282" lon="-8.193208">
        <ele>2.627</ele>
        <time>2016-09-22T09:29:31Z</time>
      </trkpt>
      <trkpt lat="43.597287" lon="-8.193499">
        <ele>3.268</ele>
        <time>2016-09-22T09:29:36Z</time>
      </trkpt>
      <trkpt lat="43.597285" lon="-8.193675">
        <ele>3.614</ele>
        <time>2016-09-22T09:29:39Z</time>
      </trkpt>
      <trkpt lat="43.597280" lon="-8.193906">
        <ele>4.808</ele>
        <time>2016-09-22T09:29:43Z</time>
      </trkpt>
      <trkpt lat="43.597277" lon="-8.193962">
        <ele>5.043</ele>
        <time>2016-09-22T09:29:44Z</time>
      </trkpt>
      <trkpt lat="43.597267" lon="-8.194127">
        <ele>5.887</ele>
        <time>2016-09-22T09:29:47Z</time>
      </trkpt>
      <trkpt lat="43.597261" lon="-8.194335">
        <ele>6.482</ele>
        <time>2016-09-22T09:29:51Z</time>
      </trkpt>
      <trkpt lat="43.597263" lon="-8.194408">
        <ele>6.820</ele>
        <time>2016-09-22T09:29:53Z</time>
      </trkpt>
      <trkpt lat="43.597254" lon="-8.194520">
        <ele>7.218</ele>
        <time>2016-09-22T09:29:56Z</time>
      </trkpt>
      <trkpt lat="43.597255" lon="-8.194731">
        <ele>8.048</ele>
        <time>2016-09-22T09:30:01Z</time>
      </trkpt>
      <trkpt lat="43.597254" lon="-8.194850">
        <ele>8.630</ele>
        <time>2016-09-22T09:30:04Z</time>
      </trkpt>
      <trkpt lat="43.597251" lon="-8.194930">
        <ele>9.252</ele>
        <time>2016-09-22T09:30:06Z</time>
      </trkpt>
      <trkpt lat="43.597245" lon="-8.195124">
        <ele>10.261</ele>
        <time>2016-09-22T09:30:11Z</time>
      </trkpt>
      <trkpt lat="43.597248" lon="-8.195203">
        <ele>10.821</ele>
        <time>2016-09-22T09:30:13Z</time>
      </trkpt>
      <trkpt lat="43.597245" lon="-8.195313">
        <ele>11.413</ele>
        <time>2016-09-22T09:30:16Z</time>
      </trkpt>
      <trkpt lat="43.597243" lon="-8.195423">
        <ele>12.208</ele>
        <time>2016-09-22T09:30:19Z</time>
      </trkpt>
      <trkpt lat="43.597244" lon="-8.195497">
        <ele>12.617</ele>
        <time>2016-09-22T09:30:21Z</time>
      </trkpt>
      <trkpt lat="43.597249" lon="-8.195646">
        <ele>13.841</ele>
        <time>2016-09-22T09:30:25Z</time>
      </trkpt>
      <trkpt lat="43.597248" lon="-8.195684">
        <ele>14.036</ele>
        <time>2016-09-22T09:30:26Z</time>
      </trkpt>
      <trkpt lat="43.597233" lon="-8.195838">
        <ele>14.894</ele>
        <time>2016-09-22T09:30:30Z</time>
      </trkpt>
      <trkpt lat="43.597232" lon="-8.195914">
        <ele>15.452</ele>
        <time>2016-09-22T09:30:32Z</time>
      </trkpt>
      <trkpt lat="43.597234" lon="-8.196068">
        <ele>16.042</ele>
        <time>2016-09-22T09:30:36Z</time>
      </trkpt>
      <trkpt lat="43.597243" lon="-8.196248">
        <ele>17.254</ele>
        <time>2016-09-22T09:30:41Z</time>
      </trkpt>
      <trkpt lat="43.597241" lon="-8.196420">
        <ele>18.456</ele>
        <time>2016-09-22T09:30:46Z</time>
      </trkpt>
      <trkpt lat="43.597243" lon="-8.196455">
        <ele>18.634</ele>
        <time>2016-09-22T09:30:47Z</time>
      </trkpt>
      <trkpt lat="43.597243" lon="-8.196589">
        <ele>19.455</ele>
        <time>2016-09-22T09:30:51Z</time>
      </trkpt>
      <trkpt lat="43.597234" lon="-8.196677">
        <ele>20.210</ele>
        <time>2016-09-22T09:30:54Z</time>
      </trkpt>
      <trkpt lat="43.597235" lon="-8.196706">
        <ele>20.408</ele>
        <time>2016-09-22T09:30:55Z</time>
      </trkpt>
      <trkpt lat="43.597229" lon="-8.196831">
        <ele>21.684</ele>
        <time>2016-09-22T09:30:59Z</time>
      </trkpt>
      <trkpt lat="43.597228" lon="-8.196860">
        <ele>21.818</ele>
        <time>2016-09-22T09:31:00Z</time>
      </trkpt>
      <trkpt lat="43.597226" lon="-8.196948">
        <ele>22.673</ele>
        <time>2016-09-22T09:31:03Z</time>
      </trkpt>
      <trkpt lat="43.597215" lon="-8.197057">
        <ele>23.631</ele>
        <time>2016-09-22T09:31:07Z</time>
      </trkpt>
      <trkpt lat="43.597213" lon="-8.197085">
        <ele>23.819</ele>
        <time>2016-09-22T09:31:08Z</time>
      </trkpt>
      <trkpt lat="43.597197" lon="-8.197188">
        <ele>24.689</ele>
        <time>2016-09-22T09:31:12Z</time>
      </trkpt>
      <trkpt lat="43.597193" lon="-8.197271">
        <ele>26.081</ele>
        <time>2016-09-22T09:31:15Z</time>
      </trkpt>
      <trkpt lat="43.597190" lon="-8.197298">
        <ele>26.253</ele>
        <time>2016-09-22T09:31:16Z</time>
      </trkpt>
      <trkpt lat="43.597183" lon="-8.197402">
        <ele>27.047</ele>
        <time>2016-09-22T09:31:20Z</time>
      </trkpt>
      <trkpt lat="43.597181" lon="-8.197463">
        <ele>28.029</ele>
        <time>2016-09-22T09:31:23Z</time>
      </trkpt>
      <trkpt lat="43.597178" lon="-8.197484">
        <ele>28.221</ele>
        <time>2016-09-22T09:31:24Z</time>
      </trkpt>
      <trkpt lat="43.597174" lon="-8.197597">
        <ele>29.208</ele>
        <time>2016-09-22T09:31:29Z</time>
      </trkpt>
      <trkpt lat="43.597174" lon="-8.197661">
        <ele>30.015</ele>
        <time>2016-09-22T09:31:32Z</time>
      </trkpt>
      <trkpt lat="43.597171" lon="-8.197684">
        <ele>30.249</ele>
        <time>2016-09-22T09:31:33Z</time>
      </trkpt>
      <trkpt lat="43.597158" lon="-8.197773">
        <ele>31.844</ele>
        <time>2016-09-22T09:31:37Z</time>
      </trkpt>
      <trkpt lat="43.597148" lon="-8.197844">
        <ele>32.872</ele>
        <time>2016-09-22T09:31:40Z</time>
      </trkpt>
      <trkpt lat="43.597148" lon="-8.197868">
        <ele>33.250</ele>
        <time>2016-09-22T09:31:41Z</time>
      </trkpt>
      <trkpt lat="43.597147" lon="-8.197937">
        <ele>34.010</ele>
        <time>2016-09-22T09:31:44Z</time>
      </trkpt>
      <trkpt lat="43.597138" lon="-8.198022">
        <ele>35.262</ele>
        <time>2016-09-22T09:31:48Z</time>
      </trkpt>
      <trkpt lat="43.597133" lon="-8.198109">
        <ele>36.414</ele>
        <time>2016-09-22T09:31:52Z</time>
      </trkpt>
      <trkpt lat="43.597139" lon="-8.198178">
        <ele>37.283</ele>
        <time>2016-09-22T09:31:55Z</time>
      </trkpt>
      <trkpt lat="43.597147" lon="-8.198218">
        <ele>37.825</ele>
        <time>2016-09-22T09:31:57Z</time>
      </trkpt>
      <trkpt lat="43.597148" lon="-8.198235">
        <ele>38.017</ele>
        <time>2016-09-22T09:31:58Z</time>
      </trkpt>
      <trkpt lat="43.597149" lon="-8.198263">
        <ele>38.208</ele>
        <time>2016-09-22T09:32:00Z</time>
      </trkpt>
      <trkpt lat="43.597154" lon="-8.198293">
        <ele>39.019</ele>
        <time>2016-09-22T09:32:02Z</time>
      </trkpt>
      <trkpt lat="43.597151" lon="-8.198314">
        <ele>39.693</ele>
        <time>2016-09-22T09:32:04Z</time>
      </trkpt>
      <trkpt lat="43.597130" lon="-8.198349">
        <ele>40.098</ele>
        <time>2016-09-22T09:32:07Z</time>
      </trkpt>
      <trkpt lat="43.597119" lon="-8.198382">
        <ele>41.266</ele>
        <time>2016-09-22T09:32:11Z</time>
      </trkpt>
      <trkpt lat="43.597112" lon="-8.198399">
        <ele>41.674</ele>
        <time>2016-09-22T09:32:13Z</time>
      </trkpt>
      <trkpt lat="43.597088" lon="-8.198448">
        <ele>42.444</ele>
        <time>2016-09-22T09:32:17Z</time>
      </trkpt>
      <trkpt lat="43.597087" lon="-8.198460">
        <ele>42.846</ele>
        <time>2016-09-22T09:32:18Z</time>
      </trkpt>
      <trkpt lat="43.597061" lon="-8.198526">
        <ele>43.658</ele>
        <time>2016-09-22T09:32:23Z</time>
      </trkpt>
      <trkpt lat="43.597017" lon="-8.198589">
        <ele>44.842</ele>
        <time>2016-09-22T09:32:28Z</time>
      </trkpt>
      <trkpt lat="43.596988" lon="-8.198626">
        <ele>45.622</ele>
        <time>2016-09-22T09:32:31Z</time>
      </trkpt>
      <trkpt lat="43.596977" lon="-8.198634">
        <ele>46.014</ele>
        <time>2016-09-22T09:32:32Z</time>
      </trkpt>
      <trkpt lat="43.596941" lon="-8.198660">
        <ele>47.208</ele>
        <time>2016-09-22T09:32:35Z</time>
      </trkpt>
      <trkpt lat="43.596911" lon="-8.198682">
        <ele>48.055</ele>
        <time>2016-09-22T09:32:38Z</time>
      </trkpt>
      <trkpt lat="43.596889" lon="-8.198697">
        <ele>48.479</ele>
        <time>2016-09-22T09:32:40Z</time>
      </trkpt>
      <trkpt lat="43.596838" lon="-8.198741">
        <ele>49.454</ele>
        <time>2016-09-22T09:32:45Z</time>
      </trkpt>
      <trkpt lat="43.596776" lon="-8.198797">
        <ele>50.662</ele>
        <time>2016-09-22T09:32:51Z</time>
      </trkpt>
      <trkpt lat="43.596751" lon="-8.198818">
        <ele>51.030</ele>
        <time>2016-09-22T09:32:53Z</time>
      </trkpt>
      <trkpt lat="43.596716" lon="-8.198853">
        <ele>51.660</ele>
        <time>2016-09-22T09:32:56Z</time>
      </trkpt>
      <trkpt lat="43.596667" lon="-8.198905">
        <ele>52.462</ele>
        <time>2016-09-22T09:33:00Z</time>
      </trkpt>
      <trkpt lat="43.596632" lon="-8.198949">
        <ele>52.894</ele>
        <time>2016-09-22T09:33:03Z</time>
      </trkpt>
      <trkpt lat="43.596591" lon="-8.199006">
        <ele>53.875</ele>
        <time>2016-09-22T09:33:07Z</time>
      </trkpt>
      <trkpt lat="43.596574" lon="-8.199034">
        <ele>54.428</ele>
        <time>2016-09-22T09:33:09Z</time>
      </trkpt>
      <trkpt lat="43.596534" lon="-8.199071">
        <ele>55.020</ele>
        <time>2016-09-22T09:33:12Z</time>
      </trkpt>
      <trkpt lat="43.596498" lon="-8.199108">
        <ele>55.608</ele>
        <time>2016-09-22T09:33:15Z</time>
      </trkpt>
      <trkpt lat="43.596432" lon="-8.199179">
        <ele>56.098</ele>
        <time>2016-09-22T09:33:20Z</time>
      </trkpt>
      <trkpt lat="43.596409" lon="-8.199201">
        <ele>56.242</ele>
        <time>2016-09-22T09:33:22Z</time>
      </trkpt>
      <trkpt lat="43.596377" lon="-8.199229">
        <ele>57.077</ele>
        <time>2016-09-22T09:33:25Z</time>
      </trkpt>
      <trkpt lat="43.596335" lon="-8.199268">
        <ele>57.855</ele>
        <time>2016-09-22T09:33:29Z</time>
      </trkpt>
      <trkpt lat="43.596326" lon="-8.199280">
        <ele>58.243</ele>
        <time>2016-09-22T09:33:30Z</time>
      </trkpt>
      <trkpt lat="43.596289" lon="-8.199329">
        <ele>59.293</ele>
        <time>2016-09-22T09:33:34Z</time>
      </trkpt>
      <trkpt lat="43.596274" lon="-8.199359">
        <ele>59.685</ele>
        <time>2016-09-22T09:33:36Z</time>
      </trkpt>
      <trkpt lat="43.596268" lon="-8.199393">
        <ele>60.257</ele>
        <time>2016-09-22T09:33:38Z</time>
      </trkpt>
      <trkpt lat="43.596271" lon="-8.199429">
        <ele>60.698</ele>
        <time>2016-09-22T09:33:40Z</time>
      </trkpt>
      <trkpt lat="43.596282" lon="-8.199462">
        <ele>61.215</ele>
        <time>2016-09-22T09:33:42Z</time>
      </trkpt>
      <trkpt lat="43.596290" lon="-8.199478">
        <ele>61.426</ele>
        <time>2016-09-22T09:33:43Z</time>
      </trkpt>
      <trkpt lat="43.596346" lon="-8.199591">
        <ele>62.608</ele>
        <time>2016-09-22T09:33:49Z</time>
      </trkpt>
      <trkpt lat="43.596398" lon="-8.199697">
        <ele>63.690</ele>
        <time>2016-09-22T09:33:55Z</time>
      </trkpt>
      <trkpt lat="43.596411" lon="-8.199730">
        <ele>63.874</ele>
        <time>2016-09-22T09:33:57Z</time>
      </trkpt>
      <trkpt lat="43.596464" lon="-8.199808">
        <ele>64.889</ele>
        <time>2016-09-22T09:34:02Z</time>
      </trkpt>
      <trkpt lat="43.596494" lon="-8.199841">
        <ele>65.037</ele>
        <time>2016-09-22T09:34:04Z</time>
      </trkpt>
      <trkpt lat="43.596611" lon="-8.199967">
        <ele>66.055</ele>
        <time>2016-09-22T09:34:12Z</time>
      </trkpt>
      <trkpt lat="43.596640" lon="-8.199996">
        <ele>66.285</ele>
        <time>2016-09-22T09:34:14Z</time>
      </trkpt>
      <trkpt lat="43.596704" lon="-8.200069">
        <ele>67.267</ele>
        <time>2016-09-22T09:34:18Z</time>
      </trkpt>
      <trkpt lat="43.596761" lon="-8.200141">
        <ele>68.289</ele>
        <time>2016-09-22T09:34:22Z</time>
      </trkpt>
      <trkpt lat="43.596774" lon="-8.200158">
        <ele>68.665</ele>
        <time>2016-09-22T09:34:23Z</time>
      </trkpt>
      <trkpt lat="43.596824" lon="-8.200230">
        <ele>69.268</ele>
        <time>2016-09-22T09:34:27Z</time>
      </trkpt>
      <trkpt lat="43.596866" lon="-8.200309">
        <ele>69.614</ele>
        <time>2016-09-22T09:34:31Z</time>
      </trkpt>
      <trkpt lat="43.596884" lon="-8.200374">
        <ele>70.408</ele>
        <time>2016-09-22T09:34:34Z</time>
      </trkpt>
      <trkpt lat="43.596891" lon="-8.200439">
        <ele>71.637</ele>
        <time>2016-09-22T09:34:37Z</time>
      </trkpt>
      <trkpt lat="43.596895" lon="-8.200459">
        <ele>71.841</ele>
        <time>2016-09-22T09:34:38Z</time>
      </trkpt>
      <trkpt lat="43.596897" lon="-8.200478">
        <ele>72.286</ele>
        <time>2016-09-22T09:34:39Z</time>
      </trkpt>
      <trkpt lat="43.596890" lon="-8.200513">
        <ele>73.044</ele>
        <time>2016-09-22T09:34:41Z</time>
      </trkpt>
      <trkpt lat="43.596873" lon="-8.200566">
        <ele>73.692</ele>
        <time>2016-09-22T09:34:44Z</time>
      </trkpt>
      <trkpt lat="43.596859" lon="-8.200598">
        <ele>74.252</ele>
        <time>2016-09-22T09:34:46Z</time>
      </trkpt>
      <trkpt lat="43.596827" lon="-8.200668">
        <ele>75.264</ele>
        <time>2016-09-22T09:34:51Z</time>
      </trkpt>
      <trkpt lat="43.596820" lon="-8.200684">
        <ele>75.656</ele>
        <time>2016-09-22T09:34:52Z</time>
      </trkpt>
      <trkpt lat="43.596800" lon="-8.200731">
        <ele>76.266</ele>
        <time>2016-09-22T09:34:55Z</time>
      </trkpt>
      <trkpt lat="43.596780" lon="-8.200781">
        <ele>77.429</ele>
        <time>2016-09-22T09:34:58Z</time>
      </trkpt>
      <trkpt lat="43.596771" lon="-8.200792">
        <ele>77.621</ele>
        <time>2016-09-22T09:34:59Z</time>
      </trkpt>
      <trkpt lat="43.596723" lon="-8.200828">
        <ele>77.808</ele>
        <time>2016-09-22T09:35:05Z</time>
      </trkpt>
      <trkpt lat="43.596676" lon="-8.200827">
        <ele>77.847</ele>
        <time>2016-09-22T09:36:05Z</time>
      </trkpt>
      <trkpt lat="43.596600" lon="-8.200809">
        <ele>78.671</ele>
        <time>2016-09-22T09:36:10Z</time>
      </trkpt>
      <trkpt lat="43.596595" lon="-8.200803">
        <ele>78.896</ele>
        <time>2016-09-22T09:36:11Z</time>
      </trkpt>
      <trkpt lat="43.596595" lon="-8.200797">
        <ele>78.894</ele>
        <time>2016-09-22T09:36:13Z</time>
      </trkpt>
      <trkpt lat="43.596582" lon="-8.200806">
        <ele>78.692</ele>
        <time>2016-09-22T09:36:54Z</time>
      </trkpt>
      <trkpt lat="43.596546" lon="-8.200795">
        <ele>78.852</ele>
        <time>2016-09-22T09:36:56Z</time>
      </trkpt>
      <trkpt lat="43.596435" lon="-8.200736">
        <ele>78.894</ele>
        <time>2016-09-22T09:37:02Z</time>
      </trkpt>
      <trkpt lat="43.596281" lon="-8.200628">
        <ele>79.256</ele>
        <time>2016-09-22T09:37:10Z</time>
      </trkpt>
      <trkpt lat="43.596262" lon="-8.200614">
        <ele>79.697</ele>
        <time>2016-09-22T09:37:11Z</time>
      </trkpt>
      <trkpt lat="43.596189" lon="-8.200576">
        <ele>80.823</ele>
        <time>2016-09-22T09:37:15Z</time>
      </trkpt>
      <trkpt lat="43.596153" lon="-8.200556">
        <ele>81.425</ele>
        <time>2016-09-22T09:37:17Z</time>
      </trkpt>
      <trkpt lat="43.596099" lon="-8.200531">
        <ele>81.808</ele>
        <time>2016-09-22T09:37:20Z</time>
      </trkpt>
      <trkpt lat="43.596022" lon="-8.200493">
        <ele>82.460</ele>
        <time>2016-09-22T09:37:24Z</time>
      </trkpt>
      <trkpt lat="43.595940" lon="-8.200460">
        <ele>83.294</ele>
        <time>2016-09-22T09:37:28Z</time>
      </trkpt>
      <trkpt lat="43.595861" lon="-8.200427">
        <ele>84.439</ele>
        <time>2016-09-22T09:37:32Z</time>
      </trkpt>
      <trkpt lat="43.595743" lon="-8.200385">
        <ele>85.647</ele>
        <time>2016-09-22T09:37:38Z</time>
      </trkpt>
      <trkpt lat="43.595722" lon="-8.200389">
        <ele>85.835</ele>
        <time>2016-09-22T09:37:39Z</time>
      </trkpt>
      <trkpt lat="43.595680" lon="-8.200426">
        <ele>86.255</ele>
        <time>2016-09-22T09:37:42Z</time>
      </trkpt>
      <trkpt lat="43.595675" lon="-8.200443">
        <ele>86.437</ele>
        <time>2016-09-22T09:37:43Z</time>
      </trkpt>
      <trkpt lat="43.595677" lon="-8.200484">
        <ele>86.679</ele>
        <time>2016-09-22T09:37:45Z</time>
      </trkpt>
      <trkpt lat="43.595704" lon="-8.200539">
        <ele>87.432</ele>
        <time>2016-09-22T09:37:48Z</time>
      </trkpt>
      <trkpt lat="43.595717" lon="-8.200553">
        <ele>87.892</ele>
        <time>2016-09-22T09:37:49Z</time>
      </trkpt>
      <trkpt lat="43.595790" lon="-8.200604">
        <ele>88.811</ele>
        <time>2016-09-22T09:37:54Z</time>
      </trkpt>
      <trkpt lat="43.595804" lon="-8.200615">
        <ele>89.008</ele>
        <time>2016-09-22T09:37:55Z</time>
      </trkpt>
      <trkpt lat="43.595832" lon="-8.200638">
        <ele>89.684</ele>
        <time>2016-09-22T09:37:57Z</time>
      </trkpt>
      <trkpt lat="43.595846" lon="-8.200651">
        <ele>90.028</ele>
        <time>2016-09-22T09:37:58Z</time>
      </trkpt>
      <trkpt lat="43.595898" lon="-8.200694">
        <ele>90.873</ele>
        <time>2016-09-22T09:38:02Z</time>
      </trkpt>
      <trkpt lat="43.595911" lon="-8.200705">
        <ele>91.221</ele>
        <time>2016-09-22T09:38:03Z</time>
      </trkpt>
      <trkpt lat="43.595975" lon="-8.200761">
        <ele>92.269</ele>
        <time>2016-09-22T09:38:08Z</time>
      </trkpt>
      <trkpt lat="43.596004" lon="-8.200786">
        <ele>92.639</ele>
        <time>2016-09-22T09:38:10Z</time>
      </trkpt>
      <trkpt lat="43.596051" lon="-8.200847">
        <ele>93.441</ele>
        <time>2016-09-22T09:38:14Z</time>
      </trkpt>
      <trkpt lat="43.596072" lon="-8.200882">
        <ele>94.093</ele>
        <time>2016-09-22T09:38:16Z</time>
      </trkpt>
      <trkpt lat="43.596088" lon="-8.200922">
        <ele>94.457</ele>
        <time>2016-09-22T09:38:18Z</time>
      </trkpt>
      <trkpt lat="43.596082" lon="-8.201015">
        <ele>95.400</ele>
        <time>2016-09-22T09:38:22Z</time>
      </trkpt>
      <trkpt lat="43.596071" lon="-8.201032">
        <ele>95.420</ele>
        <time>2016-09-22T09:38:23Z</time>
      </trkpt>
      <trkpt lat="43.596007" lon="-8.201050">
        <ele>96.408</ele>
        <time>2016-09-22T09:38:27Z</time>
      </trkpt>
      <trkpt lat="43.595914" lon="-8.200983">
        <ele>97.696</ele>
        <time>2016-09-22T09:38:33Z</time>
      </trkpt>
      <trkpt lat="43.595900" lon="-8.200969">
        <ele>97.650</ele>
        <time>2016-09-22T09:38:34Z</time>
      </trkpt>
      <trkpt lat="43.595826" lon="-8.200921">
        <ele>98.885</ele>
        <time>2016-09-22T09:38:39Z</time>
      </trkpt>
      <trkpt lat="43.595793" lon="-8.200907">
        <ele>99.443</ele>
        <time>2016-09-22T09:38:41Z</time>
      </trkpt>
      <trkpt lat="43.595757" lon="-8.200896">
        <ele>100.021</ele>
        <time>2016-09-22T09:38:43Z</time>
      </trkpt>
      <trkpt lat="43.595668" lon="-8.200879">
        <ele>100.811</ele>
        <time>2016-09-22T09:38:48Z</time>
      </trkpt>
      <trkpt lat="43.595609" lon="-8.200879">
        <ele>101.413</ele>
        <time>2016-09-22T09:38:51Z</time>
      </trkpt>
      <trkpt lat="43.595531" lon="-8.200878">
        <ele>102.055</ele>
        <time>2016-09-22T09:38:55Z</time>
      </trkpt>
      <trkpt lat="43.595431" lon="-8.200883">
        <ele>103.043</ele>
        <time>2016-09-22T09:39:00Z</time>
      </trkpt>
      <trkpt lat="43.595411" lon="-8.200888">
        <ele>103.264</ele>
        <time>2016-09-22T09:39:01Z</time>
      </trkpt>
      <trkpt lat="43.595314" lon="-8.200899">
        <ele>104.410</ele>
        <time>2016-09-22T09:39:06Z</time>
      </trkpt>
      <trkpt lat="43.595197" lon="-8.200921">
        <ele>105.208</ele>
        <time>2016-09-22T09:39:12Z</time>
      </trkpt>
      <trkpt lat="43.595159" lon="-8.200932">
        <ele>105.495</ele>
        <time>2016-09-22T09:39:14Z</time>
      </trkpt>
      <trkpt lat="43.595019" lon="-8.200972">
        <ele>106.439</ele>
        <time>2016-09-22T09:39:21Z</time>
      </trkpt>
      <trkpt lat="43.595000" lon="-8.200979">
        <ele>106.684</ele>
        <time>2016-09-22T09:39:22Z</time>
      </trkpt>
      <trkpt lat="43.594883" lon="-8.201011">
        <ele>107.662</ele>
        <time>2016-09-22T09:39:28Z</time>
      </trkpt>
      <trkpt lat="43.594844" lon="-8.201020">
        <ele>107.810</ele>
        <time>2016-09-22T09:39:30Z</time>
      </trkpt>
      <trkpt lat="43.594746" lon="-8.201040">
        <ele>108.620</ele>
        <time>2016-09-22T09:39:35Z</time>
      </trkpt>
      <trkpt lat="43.594690" lon="-8.201063">
        <ele>109.262</ele>
        <time>2016-09-22T09:39:38Z</time>
      </trkpt>
      <trkpt lat="43.594648" lon="-8.201139">
        <ele>109.664</ele>
        <time>2016-09-22T09:39:42Z</time>
      </trkpt>
      <trkpt lat="43.594650" lon="-8.201164">
        <ele>109.818</ele>
        <time>2016-09-22T09:39:43Z</time>
      </trkpt>
      <trkpt lat="43.594689" lon="-8.201223">
        <ele>110.898</ele>
        <time>2016-09-22T09:39:46Z</time>
      </trkpt>
      <trkpt lat="43.594707" lon="-8.201235">
        <ele>111.017</ele>
        <time>2016-09-22T09:39:47Z</time>
      </trkpt>
      <trkpt lat="43.594747" lon="-8.201234">
        <ele>111.408</ele>
        <time>2016-09-22T09:39:49Z</time>
      </trkpt>
      <trkpt lat="43.594784" lon="-8.201228">
        <ele>112.092</ele>
        <time>2016-09-22T09:39:51Z</time>
      </trkpt>
      <trkpt lat="43.594825" lon="-8.201221">
        <ele>112.426</ele>
        <time>2016-09-22T09:39:53Z</time>
      </trkpt>
      <trkpt lat="43.594889" lon="-8.201210">
        <ele>113.061</ele>
        <time>2016-09-22T09:39:56Z</time>
      </trkpt>
      <trkpt lat="43.594990" lon="-8.201192">
        <ele>114.099</ele>
        <time>2016-09-22T09:40:01Z</time>
      </trkpt>
      <trkpt lat="43.595011" lon="-8.201187">
        <ele>114.217</ele>
        <time>2016-09-22T09:40:02Z</time>
      </trkpt>
      <trkpt lat="43.595159" lon="-8.201161">
        <ele>115.417</ele>
        <time>2016-09-22T09:40:09Z</time>
      </trkpt>
      <trkpt lat="43.595241" lon="-8.201162">
        <ele>116.459</ele>
        <time>2016-09-22T09:40:13Z</time>
      </trkpt>
      <trkpt lat="43.595259" lon="-8.201172">
        <ele>116.481</ele>
        <time>2016-09-22T09:40:14Z</time>
      </trkpt>
      <trkpt lat="43.595284" lon="-8.201206">
        <ele>116.656</ele>
        <time>2016-09-22T09:40:16Z</time>
      </trkpt>
      <trkpt lat="43.595290" lon="-8.201251">
        <ele>117.259</ele>
        <time>2016-09-22T09:40:18Z</time>
      </trkpt>
      <trkpt lat="43.595258" lon="-8.201335">
        <ele>118.614</ele>
        <time>2016-09-22T09:40:23Z</time>
      </trkpt>
      <trkpt lat="43.595201" lon="-8.201359">
        <ele>119.608</ele>
        <time>2016-09-22T09:40:27Z</time>
      </trkpt>
      <trkpt lat="43.595167" lon="-8.201361">
        <ele>119.896</ele>
        <time>2016-09-22T09:40:29Z</time>
      </trkpt>
      <trkpt lat="43.595080" lon="-8.201371">
        <ele>120.820</ele>
        <time>2016-09-22T09:40:34Z</time>
      </trkpt>
      <trkpt lat="43.595009" lon="-8.201389">
        <ele>122.075</ele>
        <time>2016-09-22T09:40:38Z</time>
      </trkpt>
      <trkpt lat="43.594910" lon="-8.201418">
        <ele>123.073</ele>
        <time>2016-09-22T09:40:44Z</time>
      </trkpt>
      <trkpt lat="43.594876" lon="-8.201431">
        <ele>123.441</ele>
        <time>2016-09-22T09:40:46Z</time>
      </trkpt>
      <trkpt lat="43.594821" lon="-8.201447">
        <ele>124.061</ele>
        <time>2016-09-22T09:40:49Z</time>
      </trkpt>
      <trkpt lat="43.594750" lon="-8.201461">
        <ele>125.293</ele>
        <time>2016-09-22T09:40:53Z</time>
      </trkpt>
      <trkpt lat="43.594733" lon="-8.201465">
        <ele>125.455</ele>
        <time>2016-09-22T09:40:54Z</time>
      </trkpt>
      <trkpt lat="43.594645" lon="-8.201496">
        <ele>126.232</ele>
        <time>2016-09-22T09:40:59Z</time>
      </trkpt>
      <trkpt lat="43.594604" lon="-8.201539">
        <ele>127.492</ele>
        <time>2016-09-22T09:41:02Z</time>
      </trkpt>
      <trkpt lat="43.594598" lon="-8.201558">
        <ele>127.611</ele>
        <time>2016-09-22T09:41:03Z</time>
      </trkpt>
      <trkpt lat="43.594603" lon="-8.201644">
        <ele>128.408</ele>
        <time>2016-09-22T09:41:07Z</time>
      </trkpt>
      <trkpt lat="43.594628" lon="-8.201672">
        <ele>128.824</ele>
        <time>2016-09-22T09:41:09Z</time>
      </trkpt>
      <trkpt lat="43.594674" lon="-8.201700">
        <ele>129.478</ele>
        <time>2016-09-22T09:41:12Z</time>
      </trkpt>
      <trkpt lat="43.594690" lon="-8.201703">
        <ele>129.823</ele>
        <time>2016-09-22T09:41:13Z</time>
      </trkpt>
      <trkpt lat="43.594773" lon="-8.201695">
        <ele>130.631</ele>
        <time>2016-09-22T09:41:18Z</time>
      </trkpt>
      <trkpt lat="43.594809" lon="-8.201696">
        <ele>131.079</ele>
        <time>2016-09-22T09:41:20Z</time>
      </trkpt>
      <trkpt lat="43.594863" lon="-8.201696">
        <ele>131.619</ele>
        <time>2016-09-22T09:41:23Z</time>
      </trkpt>
      <trkpt lat="43.594933" lon="-8.201693">
        <ele>133.041</ele>
        <time>2016-09-22T09:41:27Z</time>
      </trkpt>
      <trkpt lat="43.595004" lon="-8.201691">
        <ele>133.423</ele>
        <time>2016-09-22T09:41:31Z</time>
      </trkpt>
      <trkpt lat="43.595058" lon="-8.201691">
        <ele>134.217</ele>
        <time>2016-09-22T09:41:34Z</time>
      </trkpt>
      <trkpt lat="43.595129" lon="-8.201728">
        <ele>135.287</ele>
        <time>2016-09-22T09:41:38Z</time>
      </trkpt>
      <trkpt lat="43.595164" lon="-8.201810">
        <ele>135.615</ele>
        <time>2016-09-22T09:41:42Z</time>
      </trkpt>
      <trkpt lat="43.595153" lon="-8.201856">
        <ele>136.008</ele>
        <time>2016-09-22T09:41:44Z</time>
      </trkpt>
      <trkpt lat="43.595131" lon="-8.201892">
        <ele>136.422</ele>
        <time>2016-09-22T09:41:46Z</time>
      </trkpt>
      <trkpt lat="43.595069" lon="-8.201931">
        <ele>137.636</ele>
        <time>2016-09-22T09:41:50Z</time>
      </trkpt>
      <trkpt lat="43.595052" lon="-8.201934">
        <ele>138.021</ele>
        <time>2016-09-22T09:41:51Z</time>
      </trkpt>
      <trkpt lat="43.594974" lon="-8.201956">
        <ele>138.659</ele>
        <time>2016-09-22T09:41:56Z</time>
      </trkpt>
      <trkpt lat="43.594912" lon="-8.201973">
        <ele>139.627</ele>
        <time>2016-09-22T09:42:00Z</time>
      </trkpt>
      <trkpt lat="43.594898" lon="-8.201977">
        <ele>139.877</ele>
        <time>2016-09-22T09:42:01Z</time>
      </trkpt>
      <trkpt lat="43.594794" lon="-8.202016">
        <ele>140.829</ele>
        <time>2016-09-22T09:42:08Z</time>
      </trkpt>
      <trkpt lat="43.594705" lon="-8.202071">
        <ele>142.081</ele>
        <time>2016-09-22T09:42:14Z</time>
      </trkpt>
      <trkpt lat="43.594664" lon="-8.202106">
        <ele>142.413</ele>
        <time>2016-09-22T09:42:17Z</time>
      </trkpt>
      <trkpt lat="43.594643" lon="-8.202137">
        <ele>143.043</ele>
        <time>2016-09-22T09:42:19Z</time>
      </trkpt>
      <trkpt lat="43.594603" lon="-8.202206">
        <ele>143.607</ele>
        <time>2016-09-22T09:42:23Z</time>
      </trkpt>
      <trkpt lat="43.594585" lon="-8.202240">
        <ele>144.008</ele>
        <time>2016-09-22T09:42:25Z</time>
      </trkpt>
      <trkpt lat="43.594547" lon="-8.202309">
        <ele>145.282</ele>
        <time>2016-09-22T09:42:29Z</time>
      </trkpt>
      <trkpt lat="43.594518" lon="-8.202364">
        <ele>146.036</ele>
        <time>2016-09-22T09:42:32Z</time>
      </trkpt>
      <trkpt lat="43.594477" lon="-8.202435">
        <ele>146.671</ele>
        <time>2016-09-22T09:42:36Z</time>
      </trkpt>
      <trkpt lat="43.594443" lon="-8.202502">
        <ele>147.239</ele>
        <time>2016-09-22T09:42:40Z</time>
      </trkpt>
      <trkpt lat="43.594428" lon="-8.202529">
        <ele>147.827</ele>
        <time>2016-09-22T09:42:42Z</time>
      </trkpt>
      <trkpt lat="43.594408" lon="-8.202550">
        <ele>148.287</ele>
        <time>2016-09-22T09:42:44Z</time>
      </trkpt>
      <trkpt lat="43.594373" lon="-8.202547">
        <ele>148.219</ele>
        <time>2016-09-22T09:42:46Z</time>
      </trkpt>
      <trkpt lat="43.594322" lon="-8.202503">
        <ele>148.421</ele>
        <time>2016-09-22T09:42:49Z</time>
      </trkpt>
      <trkpt lat="43.594262" lon="-8.202442">
        <ele>148.645</ele>
        <time>2016-09-22T09:42:53Z</time>
      </trkpt>
      <trkpt lat="43.594215" lon="-8.202396">
        <ele>149.047</ele>
        <time>2016-09-22T09:42:56Z</time>
      </trkpt>
      <trkpt lat="43.594166" lon="-8.202343">
        <ele>149.011</ele>
        <time>2016-09-22T09:42:59Z</time>
      </trkpt>
      <trkpt lat="43.594097" lon="-8.202224">
        <ele>148.608</ele>
        <time>2016-09-22T09:43:04Z</time>
      </trkpt>
      <trkpt lat="43.594078" lon="-8.202208">
        <ele>148.855</ele>
        <time>2016-09-22T09:43:05Z</time>
      </trkpt>
      <trkpt lat="43.593954" lon="-8.202148">
        <ele>148.679</ele>
        <time>2016-09-22T09:43:12Z</time>
      </trkpt>
      <trkpt lat="43.593948" lon="-8.202255">
        <ele>148.644</ele>
        <time>2016-09-22T09:43:16Z</time>
      </trkpt>
      <trkpt lat="43.593973" lon="-8.202478">
        <ele>149.212</ele>
        <time>2016-09-22T09:43:23Z</time>
      </trkpt>
      <trkpt lat="43.593926" lon="-8.202655">
        <ele>150.280</ele>
        <time>2016-09-22T09:43:29Z</time>
      </trkpt>
      <trkpt lat="43.593826" lon="-8.202740">
        <ele>151.090</ele>
        <time>2016-09-22T09:43:34Z</time>
      </trkpt>
      <trkpt lat="43.593803" lon="-8.202751">
        <ele>151.222</ele>
        <time>2016-09-22T09:43:35Z</time>
      </trkpt>
      <trkpt lat="43.593643" lon="-8.202782">
        <ele>152.434</ele>
        <time>2016-09-22T09:43:42Z</time>
      </trkpt>
      <trkpt lat="43.593620" lon="-8.202782">
        <ele>152.496</ele>
        <time>2016-09-22T09:43:43Z</time>
      </trkpt>
      <trkpt lat="43.593520" lon="-8.202717">
        <ele>152.831</ele>
        <time>2016-09-22T09:43:48Z</time>
      </trkpt>
      <trkpt lat="43.593458" lon="-8.202672">
        <ele>153.624</ele>
        <time>2016-09-22T09:43:51Z</time>
      </trkpt>
      <trkpt lat="43.593351" lon="-8.202605">
        <ele>154.408</ele>
        <time>2016-09-22T09:43:56Z</time>
      </trkpt>
      <trkpt lat="43.593311" lon="-8.202580">
        <ele>154.870</ele>
        <time>2016-09-22T09:43:58Z</time>
      </trkpt>
      <trkpt lat="43.593204" lon="-8.202534">
        <ele>156.034</ele>
        <time>2016-09-22T09:44:03Z</time>
      </trkpt>
      <trkpt lat="43.593065" lon="-8.202537">
        <ele>157.049</ele>
        <time>2016-09-22T09:44:09Z</time>
      </trkpt>
      <trkpt lat="43.593042" lon="-8.202546">
        <ele>157.027</ele>
        <time>2016-09-22T09:44:10Z</time>
      </trkpt>
      <trkpt lat="43.592889" lon="-8.202635">
        <ele>157.845</ele>
        <time>2016-09-22T09:44:17Z</time>
      </trkpt>
      <trkpt lat="43.592869" lon="-8.202652">
        <ele>158.015</ele>
        <time>2016-09-22T09:44:18Z</time>
      </trkpt>
      <trkpt lat="43.592685" lon="-8.202816">
        <ele>159.097</ele>
        <time>2016-09-22T09:44:27Z</time>
      </trkpt>
      <trkpt lat="43.592666" lon="-8.202836">
        <ele>159.249</ele>
        <time>2016-09-22T09:44:28Z</time>
      </trkpt>
      <trkpt lat="43.592534" lon="-8.202989">
        <ele>160.281</ele>
        <time>2016-09-22T09:44:35Z</time>
      </trkpt>
      <trkpt lat="43.592497" lon="-8.203030">
        <ele>160.461</ele>
        <time>2016-09-22T09:44:37Z</time>
      </trkpt>
      <trkpt lat="43.592396" lon="-8.203168">
        <ele>161.217</ele>
        <time>2016-09-22T09:44:43Z</time>
      </trkpt>
      <trkpt lat="43.592363" lon="-8.203214">
        <ele>161.808</ele>
        <time>2016-09-22T09:44:45Z</time>
      </trkpt>
      <trkpt lat="43.592328" lon="-8.203257">
        <ele>162.479</ele>
        <time>2016-09-22T09:44:47Z</time>
      </trkpt>
      <trkpt lat="43.592211" lon="-8.203423">
        <ele>162.813</ele>
        <time>2016-09-22T09:44:54Z</time>
      </trkpt>
      <trkpt lat="43.592084" lon="-8.203616">
        <ele>163.018</ele>
        <time>2016-09-22T09:45:01Z</time>
      </trkpt>
      <trkpt lat="43.591863" lon="-8.203828">
        <ele>162.826</ele>
        <time>2016-09-22T09:45:10Z</time>
      </trkpt>
      <trkpt lat="43.591669" lon="-8.203910">
        <ele>162.674</ele>
        <time>2016-09-22T09:45:17Z</time>
      </trkpt>
      <trkpt lat="43.591420" lon="-8.204008">
        <ele>162.824</ele>
        <time>2016-09-22T09:45:25Z</time>
      </trkpt>
      <trkpt lat="43.591260" lon="-8.204120">
        <ele>162.866</ele>
        <time>2016-09-22T09:45:32Z</time>
      </trkpt>
      <trkpt lat="43.591105" lon="-8.204326">
        <ele>162.888</ele>
        <time>2016-09-22T09:45:39Z</time>
      </trkpt>
      <trkpt lat="43.590934" lon="-8.204596">
        <ele>163.091</ele>
        <time>2016-09-22T09:45:47Z</time>
      </trkpt>
      <trkpt lat="43.590737" lon="-8.204934">
        <ele>163.281</ele>
        <time>2016-09-22T09:45:56Z</time>
      </trkpt>
      <trkpt lat="43.590577" lon="-8.205261">
        <ele>163.219</ele>
        <time>2016-09-22T09:46:05Z</time>
      </trkpt>
      <trkpt lat="43.590558" lon="-8.205384">
        <ele>163.208</ele>
        <time>2016-09-22T09:46:08Z</time>
      </trkpt>
      <trkpt lat="43.590563" lon="-8.205515">
        <ele>163.660</ele>
        <time>2016-09-22T09:46:11Z</time>
      </trkpt>
      <trkpt lat="43.590602" lon="-8.205715">
        <ele>164.494</ele>
        <time>2016-09-22T09:46:16Z</time>
      </trkpt>
      <trkpt lat="43.590644" lon="-8.205910">
        <ele>165.689</ele>
        <time>2016-09-22T09:46:21Z</time>
      </trkpt>
      <trkpt lat="43.590664" lon="-8.206017">
        <ele>166.457</ele>
        <time>2016-09-22T09:46:24Z</time>
      </trkpt>
      <trkpt lat="43.590670" lon="-8.206052">
        <ele>166.685</ele>
        <time>2016-09-22T09:46:25Z</time>
      </trkpt>
      <trkpt lat="43.590673" lon="-8.206203">
        <ele>167.895</ele>
        <time>2016-09-22T09:46:29Z</time>
      </trkpt>
      <trkpt lat="43.590668" lon="-8.206276">
        <ele>168.067</ele>
        <time>2016-09-22T09:46:31Z</time>
      </trkpt>
      <trkpt lat="43.590638" lon="-8.206417">
        <ele>168.899</ele>
        <time>2016-09-22T09:46:35Z</time>
      </trkpt>
      <trkpt lat="43.590587" lon="-8.206592">
        <ele>169.831</ele>
        <time>2016-09-22T09:46:40Z</time>
      </trkpt>
      <trkpt lat="43.590551" lon="-8.206698">
        <ele>170.061</ele>
        <time>2016-09-22T09:46:43Z</time>
      </trkpt>
      <trkpt lat="43.590492" lon="-8.206870">
        <ele>171.207</ele>
        <time>2016-09-22T09:46:48Z</time>
      </trkpt>
      <trkpt lat="43.590478" lon="-8.206903">
        <ele>171.408</ele>
        <time>2016-09-22T09:46:49Z</time>
      </trkpt>
      <trkpt lat="43.590365" lon="-8.207072">
        <ele>172.234</ele>
        <time>2016-09-22T09:46:55Z</time>
      </trkpt>
      <trkpt lat="43.590340" lon="-8.207091">
        <ele>172.448</ele>
        <time>2016-09-22T09:46:56Z</time>
      </trkpt>
      <trkpt lat="43.590203" lon="-8.207099">
        <ele>172.613</ele>
        <time>2016-09-22T09:47:01Z</time>
      </trkpt>
      <trkpt lat="43.590038" lon="-8.207000">
        <ele>173.051</ele>
        <time>2016-09-22T09:47:07Z</time>
      </trkpt>
      <trkpt lat="43.589988" lon="-8.206960">
        <ele>173.269</ele>
        <time>2016-09-22T09:47:09Z</time>
      </trkpt>
      <trkpt lat="43.589838" lon="-8.206871">
        <ele>173.879</ele>
        <time>2016-09-22T09:47:14Z</time>
      </trkpt>
      <trkpt lat="43.589655" lon="-8.206895">
        <ele>173.481</ele>
        <time>2016-09-22T09:47:20Z</time>
      </trkpt>
      <trkpt lat="43.589523" lon="-8.207014">
        <ele>173.033</ele>
        <time>2016-09-22T09:47:25Z</time>
      </trkpt>
      <trkpt lat="43.589366" lon="-8.207274">
        <ele>173.829</ele>
        <time>2016-09-22T09:47:33Z</time>
      </trkpt>
      <trkpt lat="43.589267" lon="-8.207539">
        <ele>174.200</ele>
        <time>2016-09-22T09:47:40Z</time>
      </trkpt>
      <trkpt lat="43.589263" lon="-8.207580">
        <ele>174.220</ele>
        <time>2016-09-22T09:47:41Z</time>
      </trkpt>
      <trkpt lat="43.589244" lon="-8.207803">
        <ele>175.408</ele>
        <time>2016-09-22T09:47:47Z</time>
      </trkpt>
      <trkpt lat="43.589253" lon="-8.207976">
        <ele>176.463</ele>
        <time>2016-09-22T09:47:52Z</time>
      </trkpt>
      <trkpt lat="43.589263" lon="-8.208009">
        <ele>176.417</ele>
        <time>2016-09-22T09:47:53Z</time>
      </trkpt>
      <trkpt lat="43.589313" lon="-8.208126">
        <ele>177.662</ele>
        <time>2016-09-22T09:47:57Z</time>
      </trkpt>
      <trkpt lat="43.589369" lon="-8.208188">
        <ele>178.280</ele>
        <time>2016-09-22T09:48:00Z</time>
      </trkpt>
      <trkpt lat="43.589432" lon="-8.208237">
        <ele>178.638</ele>
        <time>2016-09-22T09:48:03Z</time>
      </trkpt>
      <trkpt lat="43.589548" lon="-8.208279">
        <ele>179.838</ele>
        <time>2016-09-22T09:48:08Z</time>
      </trkpt>
      <trkpt lat="43.589664" lon="-8.208290">
        <ele>181.010</ele>
        <time>2016-09-22T09:48:13Z</time>
      </trkpt>
      <trkpt lat="43.589709" lon="-8.208290">
        <ele>181.222</ele>
        <time>2016-09-22T09:48:15Z</time>
      </trkpt>
      <trkpt lat="43.589891" lon="-8.208266">
        <ele>181.685</ele>
        <time>2016-09-22T09:48:23Z</time>
      </trkpt>
      <trkpt lat="43.589962" lon="-8.208245">
        <ele>182.089</ele>
        <time>2016-09-22T09:48:26Z</time>
      </trkpt>
      <trkpt lat="43.590077" lon="-8.208188">
        <ele>182.017</ele>
        <time>2016-09-22T09:48:31Z</time>
      </trkpt>
      <trkpt lat="43.590274" lon="-8.208048">
        <ele>181.608</ele>
        <time>2016-09-22T09:48:40Z</time>
      </trkpt>
      <trkpt lat="43.590424" lon="-8.207852">
        <ele>182.429</ele>
        <time>2016-09-22T09:48:47Z</time>
      </trkpt>
      <trkpt lat="43.590617" lon="-8.207583">
        <ele>182.673</ele>
        <time>2016-09-22T09:48:56Z</time>
      </trkpt>
      <trkpt lat="43.590629" lon="-8.207568">
        <ele>182.498</ele>
        <time>2016-09-22T09:48:59Z</time>
      </trkpt>
      <trkpt lat="43.590661" lon="-8.207520">
        <ele>180.016</ele>
        <time>2016-09-22T09:49:20Z</time>
      </trkpt>
      <trkpt lat="43.590698" lon="-8.207471">
        <ele>179.684</ele>
        <time>2016-09-22T09:49:22Z</time>
      </trkpt>
      <trkpt lat="43.590762" lon="-8.207388">
        <ele>179.084</ele>
        <time>2016-09-22T09:49:25Z</time>
      </trkpt>
      <trkpt lat="43.590876" lon="-8.207238">
        <ele>178.696</ele>
        <time>2016-09-22T09:49:30Z</time>
      </trkpt>
      <trkpt lat="43.590972" lon="-8.207122">
        <ele>177.618</ele>
        <time>2016-09-22T09:49:34Z</time>
      </trkpt>
      <trkpt lat="43.591098" lon="-8.206980">
        <ele>177.661</ele>
        <time>2016-09-22T09:49:39Z</time>
      </trkpt>
      <trkpt lat="43.591294" lon="-8.206874">
        <ele>177.621</ele>
        <time>2016-09-22T09:49:46Z</time>
      </trkpt>
      <trkpt lat="43.591521" lon="-8.206773">
        <ele>177.213</ele>
        <time>2016-09-22T09:49:54Z</time>
      </trkpt>
      <trkpt lat="43.591675" lon="-8.206632">
        <ele>177.808</ele>
        <time>2016-09-22T09:50:01Z</time>
      </trkpt>
      <trkpt lat="43.591795" lon="-8.206403">
        <ele>177.647</ele>
        <time>2016-09-22T09:50:08Z</time>
      </trkpt>
      <trkpt lat="43.591858" lon="-8.206214">
        <ele>178.691</ele>
        <time>2016-09-22T09:50:13Z</time>
      </trkpt>
      <trkpt lat="43.591873" lon="-8.206174">
        <ele>178.866</ele>
        <time>2016-09-22T09:50:14Z</time>
      </trkpt>
      <trkpt lat="43.591968" lon="-8.205869">
        <ele>179.294</ele>
        <time>2016-09-22T09:50:22Z</time>
      </trkpt>
      <trkpt lat="43.592049" lon="-8.205556">
        <ele>179.262</ele>
        <time>2016-09-22T09:50:30Z</time>
      </trkpt>
      <trkpt lat="43.592109" lon="-8.205357">
        <ele>179.632</ele>
        <time>2016-09-22T09:50:35Z</time>
      </trkpt>
      <trkpt lat="43.592136" lon="-8.205281">
        <ele>183.084</ele>
        <time>2016-09-22T09:50:37Z</time>
      </trkpt>
      <trkpt lat="43.592151" lon="-8.205243">
        <ele>187.666</ele>
        <time>2016-09-22T09:50:38Z</time>
      </trkpt>
      <trkpt lat="43.592167" lon="-8.205208">
        <ele>190.044</ele>
        <time>2016-09-22T09:50:39Z</time>
      </trkpt>
      <trkpt lat="43.592186" lon="-8.205176">
        <ele>191.405</ele>
        <time>2016-09-22T09:50:40Z</time>
      </trkpt>
      <trkpt lat="43.592228" lon="-8.205120">
        <ele>192.815</ele>
        <time>2016-09-22T09:50:42Z</time>
      </trkpt>
      <trkpt lat="43.592275" lon="-8.205070">
        <ele>193.408</ele>
        <time>2016-09-22T09:50:44Z</time>
      </trkpt>
      <trkpt lat="43.592340" lon="-8.205017">
        <ele>193.645</ele>
        <time>2016-09-22T09:50:48Z</time>
      </trkpt>
      <trkpt lat="43.592339" lon="-8.205018">
        <ele>193.649</ele>
        <time>2016-09-22T09:50:49Z</time>
      </trkpt>
      <trkpt lat="43.592366" lon="-8.204994">
        <ele>191.814</ele>
        <time>2016-09-22T09:51:07Z</time>
      </trkpt>
      <trkpt lat="43.592405" lon="-8.204958">
        <ele>191.432</ele>
        <time>2016-09-22T09:51:09Z</time>
      </trkpt>
      <trkpt lat="43.592577" lon="-8.204801">
        <ele>190.860</ele>
        <time>2016-09-22T09:51:16Z</time>
      </trkpt>
      <trkpt lat="43.592720" lon="-8.204689">
        <ele>190.410</ele>
        <time>2016-09-22T09:51:21Z</time>
      </trkpt>
      <trkpt lat="43.592837" lon="-8.204622">
        <ele>190.232</ele>
        <time>2016-09-22T09:51:25Z</time>
      </trkpt>
      <trkpt lat="43.593011" lon="-8.204578">
        <ele>190.264</ele>
        <time>2016-09-22T09:51:32Z</time>
      </trkpt>
      <trkpt lat="43.593076" lon="-8.204561">
        <ele>190.226</ele>
        <time>2016-09-22T09:51:38Z</time>
      </trkpt>
      <trkpt lat="43.593080" lon="-8.204563">
        <ele>190.447</ele>
        <time>2016-09-22T09:51:40Z</time>
      </trkpt>
      <trkpt lat="43.593087" lon="-8.204609">
        <ele>183.411</ele>
        <time>2016-09-22T09:52:15Z</time>
      </trkpt>
      <trkpt lat="43.593094" lon="-8.204633">
        <ele>183.608</ele>
        <time>2016-09-22T09:52:16Z</time>
      </trkpt>
      <trkpt lat="43.593105" lon="-8.204659">
        <ele>187.683</ele>
        <time>2016-09-22T09:52:17Z</time>
      </trkpt>
      <trkpt lat="43.593121" lon="-8.204687">
        <ele>192.467</ele>
        <time>2016-09-22T09:52:18Z</time>
      </trkpt>
      <trkpt lat="43.593136" lon="-8.204716">
        <ele>195.652</ele>
        <time>2016-09-22T09:52:19Z</time>
      </trkpt>
      <trkpt lat="43.593152" lon="-8.204748">
        <ele>196.610</ele>
        <time>2016-09-22T09:52:20Z</time>
      </trkpt>
      <trkpt lat="43.593168" lon="-8.204782">
        <ele>197.018</ele>
        <time>2016-09-22T09:52:21Z</time>
      </trkpt>
      <trkpt lat="43.593260" lon="-8.205029">
        <ele>198.018</ele>
        <time>2016-09-22T09:52:28Z</time>
      </trkpt>
      <trkpt lat="43.593290" lon="-8.205097">
        <ele>198.240</ele>
        <time>2016-09-22T09:52:30Z</time>
      </trkpt>
      <trkpt lat="43.593317" lon="-8.205250">
        <ele>198.412</ele>
        <time>2016-09-22T09:52:34Z</time>
      </trkpt>
      <trkpt lat="43.593252" lon="-8.205421">
        <ele>198.699</ele>
        <time>2016-09-22T09:52:39Z</time>
      </trkpt>
      <trkpt lat="43.593189" lon="-8.205552">
        <ele>199.207</ele>
        <time>2016-09-22T09:52:43Z</time>
      </trkpt>
      <trkpt lat="43.593172" lon="-8.205624">
        <ele>199.427</ele>
        <time>2016-09-22T09:52:45Z</time>
      </trkpt>
      <trkpt lat="43.593137" lon="-8.205924">
        <ele>198.608</ele>
        <time>2016-09-22T09:52:53Z</time>
      </trkpt>
      <trkpt lat="43.593108" lon="-8.206181">
        <ele>198.850</ele>
        <time>2016-09-22T09:53:00Z</time>
      </trkpt>
      <trkpt lat="43.593038" lon="-8.206507">
        <ele>198.424</ele>
        <time>2016-09-22T09:53:09Z</time>
      </trkpt>
      <trkpt lat="43.592930" lon="-8.206663">
        <ele>198.869</ele>
        <time>2016-09-22T09:53:13Z</time>
      </trkpt>
      <trkpt lat="43.592895" lon="-8.206696">
        <ele>198.897</ele>
        <time>2016-09-22T09:53:14Z</time>
      </trkpt>
      <trkpt lat="43.592805" lon="-8.206790">
        <ele>198.065</ele>
        <time>2016-09-22T09:53:17Z</time>
      </trkpt>
      <trkpt lat="43.592723" lon="-8.206880">
        <ele>197.695</ele>
        <time>2016-09-22T09:53:20Z</time>
      </trkpt>
      <trkpt lat="43.592537" lon="-8.207006">
        <ele>197.267</ele>
        <time>2016-09-22T09:53:27Z</time>
      </trkpt>
      <trkpt lat="43.592396" lon="-8.207044">
        <ele>197.639</ele>
        <time>2016-09-22T09:53:32Z</time>
      </trkpt>
      <trkpt lat="43.592133" lon="-8.207121">
        <ele>197.897</ele>
        <time>2016-09-22T09:53:38Z</time>
      </trkpt>
      <trkpt lat="43.592003" lon="-8.207153">
        <ele>197.023</ele>
        <time>2016-09-22T09:53:41Z</time>
      </trkpt>
      <trkpt lat="43.591972" lon="-8.207180">
        <ele>196.825</ele>
        <time>2016-09-22T09:53:42Z</time>
      </trkpt>
      <trkpt lat="43.591951" lon="-8.207207">
        <ele>196.808</ele>
        <time>2016-09-22T09:53:43Z</time>
      </trkpt>
      <trkpt lat="43.591923" lon="-8.207255">
        <ele>196.690</ele>
        <time>2016-09-22T09:53:47Z</time>
      </trkpt>
      <trkpt lat="43.591892" lon="-8.207289">
        <ele>196.454</ele>
        <time>2016-09-22T09:53:51Z</time>
      </trkpt>
      <trkpt lat="43.591873" lon="-8.207323">
        <ele>196.449</ele>
        <time>2016-09-22T09:53:53Z</time>
      </trkpt>
      <trkpt lat="43.591813" lon="-8.207482">
        <ele>196.497</ele>
        <time>2016-09-22T09:53:59Z</time>
      </trkpt>
      <trkpt lat="43.591703" lon="-8.207678">
        <ele>195.845</ele>
        <time>2016-09-22T09:54:06Z</time>
      </trkpt>
      <trkpt lat="43.591686" lon="-8.207705">
        <ele>195.695</ele>
        <time>2016-09-22T09:54:07Z</time>
      </trkpt>
      <trkpt lat="43.591585" lon="-8.207915">
        <ele>194.857</ele>
        <time>2016-09-22T09:54:14Z</time>
      </trkpt>
      <trkpt lat="43.591531" lon="-8.208061">
        <ele>194.849</ele>
        <time>2016-09-22T09:54:19Z</time>
      </trkpt>
      <trkpt lat="43.591510" lon="-8.208085">
        <ele>194.643</ele>
        <time>2016-09-22T09:54:20Z</time>
      </trkpt>
      <trkpt lat="43.591444" lon="-8.208103">
        <ele>194.464</ele>
        <time>2016-09-22T09:54:23Z</time>
      </trkpt>
      <trkpt lat="43.591367" lon="-8.208009">
        <ele>194.210</ele>
        <time>2016-09-22T09:54:28Z</time>
      </trkpt>
      <trkpt lat="43.591295" lon="-8.207893">
        <ele>194.008</ele>
        <time>2016-09-22T09:54:33Z</time>
      </trkpt>
      <trkpt lat="43.591241" lon="-8.207944">
        <ele>193.635</ele>
        <time>2016-09-22T09:54:36Z</time>
      </trkpt>
      <trkpt lat="43.591223" lon="-8.207966">
        <ele>193.489</ele>
        <time>2016-09-22T09:54:37Z</time>
      </trkpt>
      <trkpt lat="43.591110" lon="-8.208104">
        <ele>193.044</ele>
        <time>2016-09-22T09:54:43Z</time>
      </trkpt>
      <trkpt lat="43.590919" lon="-8.208362">
        <ele>193.252</ele>
        <time>2016-09-22T09:54:53Z</time>
      </trkpt>
      <trkpt lat="43.590827" lon="-8.208508">
        <ele>192.490</ele>
        <time>2016-09-22T09:54:58Z</time>
      </trkpt>
      <trkpt lat="43.590810" lon="-8.208576">
        <ele>192.070</ele>
        <time>2016-09-22T09:55:00Z</time>
      </trkpt>
      <trkpt lat="43.590813" lon="-8.208783">
        <ele>192.272</ele>
        <time>2016-09-22T09:55:06Z</time>
      </trkpt>
      <trkpt lat="43.590864" lon="-8.208921">
        <ele>192.214</ele>
        <time>2016-09-22T09:55:12Z</time>
      </trkpt>
      <trkpt lat="43.590911" lon="-8.209056">
        <ele>192.047</ele>
        <time>2016-09-22T09:55:18Z</time>
      </trkpt>
      <trkpt lat="43.590897" lon="-8.209218">
        <ele>192.029</ele>
        <time>2016-09-22T09:55:25Z</time>
      </trkpt>
      <trkpt lat="43.590830" lon="-8.209384">
        <ele>191.821</ele>
        <time>2016-09-22T09:55:32Z</time>
      </trkpt>
      <trkpt lat="43.590821" lon="-8.209434">
        <ele>191.808</ele>
        <time>2016-09-22T09:55:34Z</time>
      </trkpt>
      <trkpt lat="43.590834" lon="-8.209514">
        <ele>192.095</ele>
        <time>2016-09-22T09:55:37Z</time>
      </trkpt>
      <trkpt lat="43.590839" lon="-8.209614">
        <ele>195.229</ele>
        <time>2016-09-22T09:55:42Z</time>
      </trkpt>
      <trkpt lat="43.590839" lon="-8.209631">
        <ele>200.654</ele>
        <time>2016-09-22T09:55:43Z</time>
      </trkpt>
      <trkpt lat="43.590839" lon="-8.209648">
        <ele>203.242</ele>
        <time>2016-09-22T09:55:44Z</time>
      </trkpt>
      <trkpt lat="43.590839" lon="-8.209660">
        <ele>204.650</ele>
        <time>2016-09-22T09:55:45Z</time>
      </trkpt>
      <trkpt lat="43.590838" lon="-8.209728">
        <ele>205.450</ele>
        <time>2016-09-22T09:55:50Z</time>
      </trkpt>
      <trkpt lat="43.590819" lon="-8.209807">
        <ele>205.492</ele>
        <time>2016-09-22T09:55:56Z</time>
      </trkpt>
      <trkpt lat="43.590815" lon="-8.209818">
        <ele>205.444</ele>
        <time>2016-09-22T09:55:57Z</time>
      </trkpt>
      <trkpt lat="43.590756" lon="-8.209861">
        <ele>205.077</ele>
        <time>2016-09-22T09:56:02Z</time>
      </trkpt>
      <trkpt lat="43.590651" lon="-8.209950">
        <ele>204.461</ele>
        <time>2016-09-22T09:56:10Z</time>
      </trkpt>
      <trkpt lat="43.590641" lon="-8.209966">
        <ele>204.227</ele>
        <time>2016-09-22T09:56:13Z</time>
      </trkpt>
      <trkpt lat="43.590695" lon="-8.209905">
        <ele>203.208</ele>
        <time>2016-09-22T09:57:12Z</time>
      </trkpt>
      <trkpt lat="43.590704" lon="-8.209897">
        <ele>203.028</ele>
        <time>2016-09-22T09:57:13Z</time>
      </trkpt>
      <trkpt lat="43.590732" lon="-8.209876">
        <ele>202.432</ele>
        <time>2016-09-22T09:57:16Z</time>
      </trkpt>
      <trkpt lat="43.590750" lon="-8.209854">
        <ele>202.217</ele>
        <time>2016-09-22T09:57:19Z</time>
      </trkpt>
      <trkpt lat="43.590764" lon="-8.209828">
        <ele>201.875</ele>
        <time>2016-09-22T09:57:22Z</time>
      </trkpt>
      <trkpt lat="43.590767" lon="-8.209827">
        <ele>201.693</ele>
        <time>2016-09-22T09:57:23Z</time>
      </trkpt>
      <trkpt lat="43.590813" lon="-8.209824">
        <ele>211.083</ele>
        <time>2016-09-22T09:58:19Z</time>
      </trkpt>
      <trkpt lat="43.590825" lon="-8.209798">
        <ele>210.885</ele>
        <time>2016-09-22T09:58:20Z</time>
      </trkpt>
      <trkpt lat="43.590831" lon="-8.209762">
        <ele>210.697</ele>
        <time>2016-09-22T09:58:21Z</time>
      </trkpt>
      <trkpt lat="43.590837" lon="-8.209668">
        <ele>209.867</ele>
        <time>2016-09-22T09:58:23Z</time>
      </trkpt>
      <trkpt lat="43.590830" lon="-8.209489">
        <ele>208.681</ele>
        <time>2016-09-22T09:58:26Z</time>
      </trkpt>
      <trkpt lat="43.590866" lon="-8.209264">
        <ele>207.819</ele>
        <time>2016-09-22T09:58:29Z</time>
      </trkpt>
      <trkpt lat="43.590888" lon="-8.209178">
        <ele>207.608</ele>
        <time>2016-09-22T09:58:30Z</time>
      </trkpt>
      <trkpt lat="43.590889" lon="-8.208988">
        <ele>207.487</ele>
        <time>2016-09-22T09:58:32Z</time>
      </trkpt>
      <trkpt lat="43.590806" lon="-8.208711">
        <ele>207.851</ele>
        <time>2016-09-22T09:58:35Z</time>
      </trkpt>
      <trkpt lat="43.590820" lon="-8.208518">
        <ele>207.886</ele>
        <time>2016-09-22T09:58:37Z</time>
      </trkpt>
      <trkpt lat="43.590952" lon="-8.208290">
        <ele>207.864</ele>
        <time>2016-09-22T09:58:40Z</time>
      </trkpt>
      <trkpt lat="43.591229" lon="-8.207928">
        <ele>208.852</ele>
        <time>2016-09-22T09:58:45Z</time>
      </trkpt>
      <trkpt lat="43.591285" lon="-8.207854">
        <ele>209.212</ele>
        <time>2016-09-22T09:58:46Z</time>
      </trkpt>
      <trkpt lat="43.591336" lon="-8.207781">
        <ele>209.454</ele>
        <time>2016-09-22T09:58:47Z</time>
      </trkpt>
      <trkpt lat="43.591456" lon="-8.207540">
        <ele>209.446</ele>
        <time>2016-09-22T09:58:50Z</time>
      </trkpt>
      <trkpt lat="43.591627" lon="-8.207163">
        <ele>210.049</ele>
        <time>2016-09-22T09:58:55Z</time>
      </trkpt>
      <trkpt lat="43.591695" lon="-8.207006">
        <ele>211.202</ele>
        <time>2016-09-22T09:58:57Z</time>
      </trkpt>
      <trkpt lat="43.591755" lon="-8.206865">
        <ele>211.422</ele>
        <time>2016-09-22T09:58:59Z</time>
      </trkpt>
      <trkpt lat="43.591752" lon="-8.206728">
        <ele>211.208</ele>
        <time>2016-09-22T09:59:01Z</time>
      </trkpt>
      <trkpt lat="43.591657" lon="-8.206659">
        <ele>210.645</ele>
        <time>2016-09-22T09:59:04Z</time>
      </trkpt>
      <trkpt lat="43.591595" lon="-8.206709">
        <ele>210.489</ele>
        <time>2016-09-22T09:59:06Z</time>
      </trkpt>
      <trkpt lat="43.591450" lon="-8.206805">
        <ele>211.684</ele>
        <time>2016-09-22T09:59:10Z</time>
      </trkpt>
      <trkpt lat="43.591241" lon="-8.206904">
        <ele>212.012</ele>
        <time>2016-09-22T09:59:15Z</time>
      </trkpt>
      <trkpt lat="43.591071" lon="-8.207015">
        <ele>212.650</ele>
        <time>2016-09-22T09:59:19Z</time>
      </trkpt>
      <trkpt lat="43.590996" lon="-8.207082">
        <ele>212.640</ele>
        <time>2016-09-22T09:59:21Z</time>
      </trkpt>
      <trkpt lat="43.590963" lon="-8.207121">
        <ele>212.672</ele>
        <time>2016-09-22T09:59:22Z</time>
      </trkpt>
      <trkpt lat="43.590808" lon="-8.207315">
        <ele>212.844</ele>
        <time>2016-09-22T09:59:27Z</time>
      </trkpt>
      <trkpt lat="43.590596" lon="-8.207600">
        <ele>213.043</ele>
        <time>2016-09-22T09:59:35Z</time>
      </trkpt>
      <trkpt lat="43.590417" lon="-8.207849">
        <ele>212.064</ele>
        <time>2016-09-22T09:59:42Z</time>
      </trkpt>
      <trkpt lat="43.590392" lon="-8.207883">
        <ele>211.810</ele>
        <time>2016-09-22T09:59:43Z</time>
      </trkpt>
      <trkpt lat="43.590243" lon="-8.208075">
        <ele>210.808</ele>
        <time>2016-09-22T09:59:49Z</time>
      </trkpt>
      <trkpt lat="43.590214" lon="-8.208102">
        <ele>210.425</ele>
        <time>2016-09-22T09:59:50Z</time>
      </trkpt>
      <trkpt lat="43.590081" lon="-8.208192">
        <ele>209.819</ele>
        <time>2016-09-22T09:59:54Z</time>
      </trkpt>
      <trkpt lat="43.590042" lon="-8.208209">
        <ele>209.844</ele>
        <time>2016-09-22T09:59:55Z</time>
      </trkpt>
      <trkpt lat="43.589999" lon="-8.208223">
        <ele>209.422</ele>
        <time>2016-09-22T09:59:56Z</time>
      </trkpt>
      <trkpt lat="43.589852" lon="-8.208269">
        <ele>208.450</ele>
        <time>2016-09-22T09:59:59Z</time>
      </trkpt>
      <trkpt lat="43.589680" lon="-8.208286">
        <ele>209.250</ele>
        <time>2016-09-22T10:00:02Z</time>
      </trkpt>
      <trkpt lat="43.589552" lon="-8.208276">
        <ele>209.632</ele>
        <time>2016-09-22T10:00:04Z</time>
      </trkpt>
      <trkpt lat="43.589484" lon="-8.208263">
        <ele>210.234</ele>
        <time>2016-09-22T10:00:05Z</time>
      </trkpt>
      <trkpt lat="43.589418" lon="-8.208230">
        <ele>210.875</ele>
        <time>2016-09-22T10:00:06Z</time>
      </trkpt>
      <trkpt lat="43.589357" lon="-8.208176">
        <ele>210.228</ele>
        <time>2016-09-22T10:00:07Z</time>
      </trkpt>
      <trkpt lat="43.589245" lon="-8.207915">
        <ele>210.820</ele>
        <time>2016-09-22T10:00:10Z</time>
      </trkpt>
      <trkpt lat="43.589258" lon="-8.207584">
        <ele>210.608</ele>
        <time>2016-09-22T10:00:13Z</time>
      </trkpt>
      <trkpt lat="43.589353" lon="-8.207269">
        <ele>210.078</ele>
        <time>2016-09-22T10:00:16Z</time>
      </trkpt>
      <trkpt lat="43.589399" lon="-8.207180">
        <ele>210.272</ele>
        <time>2016-09-22T10:00:17Z</time>
      </trkpt>
      <trkpt lat="43.589447" lon="-8.207099">
        <ele>210.487</ele>
        <time>2016-09-22T10:00:18Z</time>
      </trkpt>
      <trkpt lat="43.589597" lon="-8.206893">
        <ele>211.085</ele>
        <time>2016-09-22T10:00:21Z</time>
      </trkpt>
      <trkpt lat="43.589652" lon="-8.206854">
        <ele>211.283</ele>
        <time>2016-09-22T10:00:22Z</time>
      </trkpt>
      <trkpt lat="43.589770" lon="-8.206824">
        <ele>211.443</ele>
        <time>2016-09-22T10:00:24Z</time>
      </trkpt>
      <trkpt lat="43.589827" lon="-8.206829">
        <ele>211.455</ele>
        <time>2016-09-22T10:00:25Z</time>
      </trkpt>
      <trkpt lat="43.590024" lon="-8.206945">
        <ele>212.277</ele>
        <time>2016-09-22T10:00:29Z</time>
      </trkpt>
      <trkpt lat="43.590119" lon="-8.207016">
        <ele>212.494</ele>
        <time>2016-09-22T10:00:31Z</time>
      </trkpt>
      <trkpt lat="43.590168" lon="-8.207045">
        <ele>212.457</ele>
        <time>2016-09-22T10:00:32Z</time>
      </trkpt>
      <trkpt lat="43.590271" lon="-8.207069">
        <ele>212.222</ele>
        <time>2016-09-22T10:00:34Z</time>
      </trkpt>
      <trkpt lat="43.590423" lon="-8.206982">
        <ele>212.408</ele>
        <time>2016-09-22T10:00:37Z</time>
      </trkpt>
      <trkpt lat="43.590517" lon="-8.206798">
        <ele>213.840</ele>
        <time>2016-09-22T10:00:40Z</time>
      </trkpt>
      <trkpt lat="43.590542" lon="-8.206727">
        <ele>214.444</ele>
        <time>2016-09-22T10:00:41Z</time>
      </trkpt>
      <trkpt lat="43.590567" lon="-8.206653">
        <ele>214.679</ele>
        <time>2016-09-22T10:00:42Z</time>
      </trkpt>
      <trkpt lat="43.590690" lon="-8.206157">
        <ele>214.677</ele>
        <time>2016-09-22T10:00:48Z</time>
      </trkpt>
      <trkpt lat="43.590663" lon="-8.205859">
        <ele>214.295</ele>
        <time>2016-09-22T10:00:51Z</time>
      </trkpt>
      <trkpt lat="43.590643" lon="-8.205756">
        <ele>214.815</ele>
        <time>2016-09-22T10:00:52Z</time>
      </trkpt>
      <trkpt lat="43.590585" lon="-8.205429">
        <ele>214.427</ele>
        <time>2016-09-22T10:00:55Z</time>
      </trkpt>
      <trkpt lat="43.590584" lon="-8.205316">
        <ele>214.429</ele>
        <time>2016-09-22T10:00:56Z</time>
      </trkpt>
      <trkpt lat="43.590674" lon="-8.205019">
        <ele>214.817</ele>
        <time>2016-09-22T10:00:59Z</time>
      </trkpt>
      <trkpt lat="43.590770" lon="-8.204854">
        <ele>215.087</ele>
        <time>2016-09-22T10:01:01Z</time>
      </trkpt>
      <trkpt lat="43.590899" lon="-8.204630">
        <ele>215.215</ele>
        <time>2016-09-22T10:01:04Z</time>
      </trkpt>
      <trkpt lat="43.590980" lon="-8.204495">
        <ele>215.608</ele>
        <time>2016-09-22T10:01:06Z</time>
      </trkpt>
      <trkpt lat="43.591240" lon="-8.204106">
        <ele>215.822</ele>
        <time>2016-09-22T10:01:12Z</time>
      </trkpt>
      <trkpt lat="43.591291" lon="-8.204055">
        <ele>215.876</ele>
        <time>2016-09-22T10:01:13Z</time>
      </trkpt>
      <trkpt lat="43.591527" lon="-8.203927">
        <ele>216.011</ele>
        <time>2016-09-22T10:01:17Z</time>
      </trkpt>
      <trkpt lat="43.591888" lon="-8.203776">
        <ele>216.819</ele>
        <time>2016-09-22T10:01:23Z</time>
      </trkpt>
      <trkpt lat="43.592087" lon="-8.203566">
        <ele>217.287</ele>
        <time>2016-09-22T10:01:27Z</time>
      </trkpt>
      <trkpt lat="43.592342" lon="-8.203201">
        <ele>218.217</ele>
        <time>2016-09-22T10:01:33Z</time>
      </trkpt>
      <trkpt lat="43.592490" lon="-8.203010">
        <ele>219.059</ele>
        <time>2016-09-22T10:01:36Z</time>
      </trkpt>
      <trkpt lat="43.592714" lon="-8.202755">
        <ele>218.411</ele>
        <time>2016-09-22T10:01:40Z</time>
      </trkpt>
      <trkpt lat="43.593037" lon="-8.202512">
        <ele>219.099</ele>
        <time>2016-09-22T10:01:45Z</time>
      </trkpt>
      <trkpt lat="43.593239" lon="-8.202512">
        <ele>219.407</ele>
        <time>2016-09-22T10:01:48Z</time>
      </trkpt>
      <trkpt lat="43.593432" lon="-8.202653">
        <ele>219.827</ele>
        <time>2016-09-22T10:01:51Z</time>
      </trkpt>
      <trkpt lat="43.593570" lon="-8.202729">
        <ele>219.808</ele>
        <time>2016-09-22T10:01:53Z</time>
      </trkpt>
      <trkpt lat="43.593720" lon="-8.202747">
        <ele>219.260</ele>
        <time>2016-09-22T10:01:55Z</time>
      </trkpt>
      <trkpt lat="43.593902" lon="-8.202619">
        <ele>218.894</ele>
        <time>2016-09-22T10:01:58Z</time>
      </trkpt>
      <trkpt lat="43.593951" lon="-8.202397">
        <ele>219.259</ele>
        <time>2016-09-22T10:02:01Z</time>
      </trkpt>
      <trkpt lat="43.593914" lon="-8.202169">
        <ele>219.087</ele>
        <time>2016-09-22T10:02:04Z</time>
      </trkpt>
      <trkpt lat="43.593872" lon="-8.202117">
        <ele>218.815</ele>
        <time>2016-09-22T10:02:05Z</time>
      </trkpt>
      <trkpt lat="43.593771" lon="-8.202044">
        <ele>219.035</ele>
        <time>2016-09-22T10:02:07Z</time>
      </trkpt>
      <trkpt lat="43.593715" lon="-8.202019">
        <ele>219.027</ele>
        <time>2016-09-22T10:02:08Z</time>
      </trkpt>
      <trkpt lat="43.593539" lon="-8.201986">
        <ele>219.049</ele>
        <time>2016-09-22T10:02:11Z</time>
      </trkpt>
      <trkpt lat="43.593480" lon="-8.201980">
        <ele>219.438</ele>
        <time>2016-09-22T10:02:12Z</time>
      </trkpt>
      <trkpt lat="43.593238" lon="-8.201992">
        <ele>219.070</ele>
        <time>2016-09-22T10:02:16Z</time>
      </trkpt>
      <trkpt lat="43.593174" lon="-8.202008">
        <ele>219.017</ele>
        <time>2016-09-22T10:02:17Z</time>
      </trkpt>
      <trkpt lat="43.592765" lon="-8.202148">
        <ele>219.608</ele>
        <time>2016-09-22T10:02:23Z</time>
      </trkpt>
      <trkpt lat="43.592634" lon="-8.202214">
        <ele>220.844</ele>
        <time>2016-09-22T10:02:25Z</time>
      </trkpt>
      <trkpt lat="43.592368" lon="-8.202367">
        <ele>220.618</ele>
        <time>2016-09-22T10:02:29Z</time>
      </trkpt>
      <trkpt lat="43.592171" lon="-8.202507">
        <ele>220.273</ele>
        <time>2016-09-22T10:02:32Z</time>
      </trkpt>
      <trkpt lat="43.592045" lon="-8.202635">
        <ele>220.281</ele>
        <time>2016-09-22T10:02:34Z</time>
      </trkpt>
      <trkpt lat="43.591926" lon="-8.202762">
        <ele>220.239</ele>
        <time>2016-09-22T10:02:36Z</time>
      </trkpt>
      <trkpt lat="43.591688" lon="-8.203025">
        <ele>220.089</ele>
        <time>2016-09-22T10:02:40Z</time>
      </trkpt>
      <trkpt lat="43.591622" lon="-8.203077">
        <ele>220.231</ele>
        <time>2016-09-22T10:02:41Z</time>
      </trkpt>
      <trkpt lat="43.591479" lon="-8.203132">
        <ele>220.043</ele>
        <time>2016-09-22T10:02:43Z</time>
      </trkpt>
      <trkpt lat="43.590954" lon="-8.203201">
        <ele>220.467</ele>
        <time>2016-09-22T10:02:50Z</time>
      </trkpt>
      <trkpt lat="43.590715" lon="-8.203098">
        <ele>219.681</ele>
        <time>2016-09-22T10:02:53Z</time>
      </trkpt>
      <trkpt lat="43.590634" lon="-8.203049">
        <ele>219.419</ele>
        <time>2016-09-22T10:02:54Z</time>
      </trkpt>
      <trkpt lat="43.590388" lon="-8.202912">
        <ele>221.008</ele>
        <time>2016-09-22T10:02:57Z</time>
      </trkpt>
      <trkpt lat="43.590145" lon="-8.202779">
        <ele>221.017</ele>
        <time>2016-09-22T10:03:00Z</time>
      </trkpt>
      <trkpt lat="43.589894" lon="-8.202632">
        <ele>220.091</ele>
        <time>2016-09-22T10:03:03Z</time>
      </trkpt>
      <trkpt lat="43.589725" lon="-8.202531">
        <ele>219.286</ele>
        <time>2016-09-22T10:03:05Z</time>
      </trkpt>
      <trkpt lat="43.589644" lon="-8.202472">
        <ele>219.074</ele>
        <time>2016-09-22T10:03:06Z</time>
      </trkpt>
      <trkpt lat="43.589488" lon="-8.202334">
        <ele>219.252</ele>
        <time>2016-09-22T10:03:08Z</time>
      </trkpt>
      <trkpt lat="43.589331" lon="-8.202190">
        <ele>220.092</ele>
        <time>2016-09-22T10:03:10Z</time>
      </trkpt>
      <trkpt lat="43.589248" lon="-8.202126">
        <ele>220.054</ele>
        <time>2016-09-22T10:03:11Z</time>
      </trkpt>
      <trkpt lat="43.588894" lon="-8.201929">
        <ele>218.246</ele>
        <time>2016-09-22T10:03:15Z</time>
      </trkpt>
      <trkpt lat="43.588797" lon="-8.201907">
        <ele>217.857</ele>
        <time>2016-09-22T10:03:16Z</time>
      </trkpt>
      <trkpt lat="43.588517" lon="-8.201939">
        <ele>217.600</ele>
        <time>2016-09-22T10:03:19Z</time>
      </trkpt>
      <trkpt lat="43.588279" lon="-8.202060">
        <ele>217.620</ele>
        <time>2016-09-22T10:03:22Z</time>
      </trkpt>
      <trkpt lat="43.588219" lon="-8.202112">
        <ele>217.608</ele>
        <time>2016-09-22T10:03:23Z</time>
      </trkpt>
      <trkpt lat="43.588168" lon="-8.202173">
        <ele>217.676</ele>
        <time>2016-09-22T10:03:24Z</time>
      </trkpt>
      <trkpt lat="43.588115" lon="-8.202229">
        <ele>217.470</ele>
        <time>2016-09-22T10:03:25Z</time>
      </trkpt>
      <trkpt lat="43.588009" lon="-8.202345">
        <ele>217.095</ele>
        <time>2016-09-22T10:03:27Z</time>
      </trkpt>
      <trkpt lat="43.587965" lon="-8.202425">
        <ele>216.813</ele>
        <time>2016-09-22T10:03:28Z</time>
      </trkpt>
      <trkpt lat="43.587926" lon="-8.202512">
        <ele>216.691</ele>
        <time>2016-09-22T10:03:29Z</time>
      </trkpt>
      <trkpt lat="43.587850" lon="-8.202683">
        <ele>216.221</ele>
        <time>2016-09-22T10:03:31Z</time>
      </trkpt>
      <trkpt lat="43.587695" lon="-8.202826">
        <ele>216.413</ele>
        <time>2016-09-22T10:03:34Z</time>
      </trkpt>
      <trkpt lat="43.587629" lon="-8.202835">
        <ele>216.035</ele>
        <time>2016-09-22T10:03:35Z</time>
      </trkpt>
      <trkpt lat="43.587486" lon="-8.202785">
        <ele>215.478</ele>
        <time>2016-09-22T10:03:37Z</time>
      </trkpt>
      <trkpt lat="43.587417" lon="-8.202727">
        <ele>215.033</ele>
        <time>2016-09-22T10:03:38Z</time>
      </trkpt>
      <trkpt lat="43.587287" lon="-8.202607">
        <ele>214.626</ele>
        <time>2016-09-22T10:03:40Z</time>
      </trkpt>
      <trkpt lat="43.587218" lon="-8.202551">
        <ele>214.808</ele>
        <time>2016-09-22T10:03:41Z</time>
      </trkpt>
      <trkpt lat="43.586999" lon="-8.202353">
        <ele>215.268</ele>
        <time>2016-09-22T10:03:44Z</time>
      </trkpt>
      <trkpt lat="43.586933" lon="-8.202273">
        <ele>215.852</ele>
        <time>2016-09-22T10:03:45Z</time>
      </trkpt>
      <trkpt lat="43.586869" lon="-8.202188">
        <ele>216.667</ele>
        <time>2016-09-22T10:03:46Z</time>
      </trkpt>
      <trkpt lat="43.586804" lon="-8.202105">
        <ele>216.865</ele>
        <time>2016-09-22T10:03:47Z</time>
      </trkpt>
      <trkpt lat="43.586642" lon="-8.201985">
        <ele>215.873</ele>
        <time>2016-09-22T10:03:49Z</time>
      </trkpt>
      <trkpt lat="43.586449" lon="-8.201937">
        <ele>215.073</ele>
        <time>2016-09-22T10:03:51Z</time>
      </trkpt>
      <trkpt lat="43.586352" lon="-8.201939">
        <ele>214.635</ele>
        <time>2016-09-22T10:03:52Z</time>
      </trkpt>
      <trkpt lat="43.586258" lon="-8.201948">
        <ele>214.427</ele>
        <time>2016-09-22T10:03:53Z</time>
      </trkpt>
      <trkpt lat="43.586093" lon="-8.201962">
        <ele>214.051</ele>
        <time>2016-09-22T10:03:55Z</time>
      </trkpt>
      <trkpt lat="43.586032" lon="-8.201968">
        <ele>213.801</ele>
        <time>2016-09-22T10:03:56Z</time>
      </trkpt>
      <trkpt lat="43.585992" lon="-8.201973">
        <ele>210.011</ele>
        <time>2016-09-22T10:04:18Z</time>
      </trkpt>
      <trkpt lat="43.586006" lon="-8.201995">
        <ele>209.608</ele>
        <time>2016-09-22T10:04:19Z</time>
      </trkpt>
      <trkpt lat="43.585989" lon="-8.202092">
        <ele>209.256</ele>
        <time>2016-09-22T10:04:22Z</time>
      </trkpt>
      <trkpt lat="43.585974" lon="-8.202125">
        <ele>209.270</ele>
        <time>2016-09-22T10:04:23Z</time>
      </trkpt>
      <trkpt lat="43.585925" lon="-8.202215">
        <ele>209.255</ele>
        <time>2016-09-22T10:04:26Z</time>
      </trkpt>
      <trkpt lat="43.585863" lon="-8.202290">
        <ele>208.643</ele>
        <time>2016-09-22T10:04:29Z</time>
      </trkpt>
      <trkpt lat="43.585799" lon="-8.202325">
        <ele>208.231</ele>
        <time>2016-09-22T10:04:31Z</time>
      </trkpt>
      <trkpt lat="43.585673" lon="-8.202369">
        <ele>207.691</ele>
        <time>2016-09-22T10:04:34Z</time>
      </trkpt>
      <trkpt lat="43.585630" lon="-8.202387">
        <ele>207.233</ele>
        <time>2016-09-22T10:04:35Z</time>
      </trkpt>
      <trkpt lat="43.585586" lon="-8.202409">
        <ele>207.025</ele>
        <time>2016-09-22T10:04:36Z</time>
      </trkpt>
      <trkpt lat="43.585441" lon="-8.202502">
        <ele>206.414</ele>
        <time>2016-09-22T10:04:39Z</time>
      </trkpt>
      <trkpt lat="43.585249" lon="-8.202602">
        <ele>205.454</ele>
        <time>2016-09-22T10:04:43Z</time>
      </trkpt>
      <trkpt lat="43.585207" lon="-8.202618">
        <ele>205.009</ele>
        <time>2016-09-22T10:04:44Z</time>
      </trkpt>
      <trkpt lat="43.585128" lon="-8.202646">
        <ele>204.808</ele>
        <time>2016-09-22T10:04:46Z</time>
      </trkpt>
      <trkpt lat="43.585015" lon="-8.202688">
        <ele>204.442</ele>
        <time>2016-09-22T10:04:49Z</time>
      </trkpt>
      <trkpt lat="43.584939" lon="-8.202714">
        <ele>203.696</ele>
        <time>2016-09-22T10:04:51Z</time>
      </trkpt>
      <trkpt lat="43.584901" lon="-8.202730">
        <ele>203.251</ele>
        <time>2016-09-22T10:04:52Z</time>
      </trkpt>
      <trkpt lat="43.584785" lon="-8.202784">
        <ele>202.259</ele>
        <time>2016-09-22T10:04:55Z</time>
      </trkpt>
      <trkpt lat="43.584681" lon="-8.202854">
        <ele>201.097</ele>
        <time>2016-09-22T10:04:58Z</time>
      </trkpt>
      <trkpt lat="43.584547" lon="-8.202908">
        <ele>200.097</ele>
        <time>2016-09-22T10:05:01Z</time>
      </trkpt>
      <trkpt lat="43.584438" lon="-8.202927">
        <ele>199.499</ele>
        <time>2016-09-22T10:05:03Z</time>
      </trkpt>
      <trkpt lat="43.584388" lon="-8.202919">
        <ele>199.241</ele>
        <time>2016-09-22T10:05:04Z</time>
      </trkpt>
      <trkpt lat="43.584309" lon="-8.202875">
        <ele>198.891</ele>
        <time>2016-09-22T10:05:06Z</time>
      </trkpt>
      <trkpt lat="43.584262" lon="-8.202834">
        <ele>198.481</ele>
        <time>2016-09-22T10:05:07Z</time>
      </trkpt>
      <trkpt lat="43.584215" lon="-8.202790">
        <ele>198.019</ele>
        <time>2016-09-22T10:05:08Z</time>
      </trkpt>
      <trkpt lat="43.584164" lon="-8.202751">
        <ele>197.408</ele>
        <time>2016-09-22T10:05:09Z</time>
      </trkpt>
      <trkpt lat="43.584108" lon="-8.202721">
        <ele>196.860</ele>
        <time>2016-09-22T10:05:10Z</time>
      </trkpt>
      <trkpt lat="43.584045" lon="-8.202704">
        <ele>196.464</ele>
        <time>2016-09-22T10:05:11Z</time>
      </trkpt>
      <trkpt lat="43.583822" lon="-8.202734">
        <ele>195.849</ele>
        <time>2016-09-22T10:05:14Z</time>
      </trkpt>
      <trkpt lat="43.583487" lon="-8.202812">
        <ele>195.017</ele>
        <time>2016-09-22T10:05:18Z</time>
      </trkpt>
      <trkpt lat="43.583319" lon="-8.202837">
        <ele>194.215</ele>
        <time>2016-09-22T10:05:20Z</time>
      </trkpt>
      <trkpt lat="43.583232" lon="-8.202845">
        <ele>193.855</ele>
        <time>2016-09-22T10:05:21Z</time>
      </trkpt>
      <trkpt lat="43.583145" lon="-8.202863">
        <ele>193.497</ele>
        <time>2016-09-22T10:05:22Z</time>
      </trkpt>
      <trkpt lat="43.582975" lon="-8.202932">
        <ele>193.089</ele>
        <time>2016-09-22T10:05:24Z</time>
      </trkpt>
      <trkpt lat="43.582815" lon="-8.203010">
        <ele>192.289</ele>
        <time>2016-09-22T10:05:26Z</time>
      </trkpt>
      <trkpt lat="43.582737" lon="-8.203030">
        <ele>192.006</ele>
        <time>2016-09-22T10:05:27Z</time>
      </trkpt>
      <trkpt lat="43.582662" lon="-8.203035">
        <ele>191.426</ele>
        <time>2016-09-22T10:05:28Z</time>
      </trkpt>
      <trkpt lat="43.582595" lon="-8.203041">
        <ele>190.608</ele>
        <time>2016-09-22T10:05:29Z</time>
      </trkpt>
      <trkpt lat="43.582501" lon="-8.203080">
        <ele>190.229</ele>
        <time>2016-09-22T10:05:31Z</time>
      </trkpt>
      <trkpt lat="43.582480" lon="-8.203127">
        <ele>189.883</ele>
        <time>2016-09-22T10:05:32Z</time>
      </trkpt>
      <trkpt lat="43.582485" lon="-8.203236">
        <ele>189.698</ele>
        <time>2016-09-22T10:05:34Z</time>
      </trkpt>
      <trkpt lat="43.582499" lon="-8.203290">
        <ele>189.456</ele>
        <time>2016-09-22T10:05:35Z</time>
      </trkpt>
      <trkpt lat="43.582511" lon="-8.203346">
        <ele>189.214</ele>
        <time>2016-09-22T10:05:36Z</time>
      </trkpt>
      <trkpt lat="43.582551" lon="-8.203633">
        <ele>188.414</ele>
        <time>2016-09-22T10:05:41Z</time>
      </trkpt>
      <trkpt lat="43.582548" lon="-8.203911">
        <ele>187.686</ele>
        <time>2016-09-22T10:05:46Z</time>
      </trkpt>
      <trkpt lat="43.582540" lon="-8.203967">
        <ele>187.448</ele>
        <time>2016-09-22T10:05:47Z</time>
      </trkpt>
      <trkpt lat="43.582530" lon="-8.204020">
        <ele>187.285</ele>
        <time>2016-09-22T10:05:48Z</time>
      </trkpt>
      <trkpt lat="43.582507" lon="-8.204170">
        <ele>186.889</ele>
        <time>2016-09-22T10:05:51Z</time>
      </trkpt>
      <trkpt lat="43.582471" lon="-8.204374">
        <ele>186.217</ele>
        <time>2016-09-22T10:05:55Z</time>
      </trkpt>
      <trkpt lat="43.582463" lon="-8.204425">
        <ele>186.008</ele>
        <time>2016-09-22T10:05:56Z</time>
      </trkpt>
      <trkpt lat="43.582409" lon="-8.204682">
        <ele>185.069</ele>
        <time>2016-09-22T10:06:01Z</time>
      </trkpt>
      <trkpt lat="43.582396" lon="-8.204731">
        <ele>185.023</ele>
        <time>2016-09-22T10:06:02Z</time>
      </trkpt>
      <trkpt lat="43.582350" lon="-8.205011">
        <ele>184.258</ele>
        <time>2016-09-22T10:06:07Z</time>
      </trkpt>
      <trkpt lat="43.582340" lon="-8.205133">
        <ele>184.286</ele>
        <time>2016-09-22T10:06:09Z</time>
      </trkpt>
      <trkpt lat="43.582344" lon="-8.205376">
        <ele>183.044</ele>
        <time>2016-09-22T10:06:13Z</time>
      </trkpt>
      <trkpt lat="43.582368" lon="-8.205566">
        <ele>182.864</ele>
        <time>2016-09-22T10:06:16Z</time>
      </trkpt>
      <trkpt lat="43.582404" lon="-8.205758">
        <ele>182.436</ele>
        <time>2016-09-22T10:06:19Z</time>
      </trkpt>
      <trkpt lat="43.582420" lon="-8.205816">
        <ele>182.258</ele>
        <time>2016-09-22T10:06:20Z</time>
      </trkpt>
      <trkpt lat="43.582443" lon="-8.205935">
        <ele>181.881</ele>
        <time>2016-09-22T10:06:22Z</time>
      </trkpt>
      <trkpt lat="43.582402" lon="-8.206052">
        <ele>181.661</ele>
        <time>2016-09-22T10:06:24Z</time>
      </trkpt>
      <trkpt lat="43.582207" lon="-8.206168">
        <ele>181.817</ele>
        <time>2016-09-22T10:06:27Z</time>
      </trkpt>
      <trkpt lat="43.582129" lon="-8.206190">
        <ele>181.408</ele>
        <time>2016-09-22T10:06:28Z</time>
      </trkpt>
      <trkpt lat="43.581820" lon="-8.206329">
        <ele>180.829</ele>
        <time>2016-09-22T10:06:32Z</time>
      </trkpt>
      <trkpt lat="43.581744" lon="-8.206375">
        <ele>180.643</ele>
        <time>2016-09-22T10:06:33Z</time>
      </trkpt>
      <trkpt lat="43.581450" lon="-8.206573">
        <ele>179.658</ele>
        <time>2016-09-22T10:06:37Z</time>
      </trkpt>
      <trkpt lat="43.581312" lon="-8.206676">
        <ele>179.836</ele>
        <time>2016-09-22T10:06:39Z</time>
      </trkpt>
      <trkpt lat="43.581198" lon="-8.206927">
        <ele>179.224</ele>
        <time>2016-09-22T10:06:42Z</time>
      </trkpt>
      <trkpt lat="43.581197" lon="-8.207017">
        <ele>179.054</ele>
        <time>2016-09-22T10:06:43Z</time>
      </trkpt>
      <trkpt lat="43.581202" lon="-8.207104">
        <ele>178.696</ele>
        <time>2016-09-22T10:06:44Z</time>
      </trkpt>
      <trkpt lat="43.581209" lon="-8.207271">
        <ele>178.218</ele>
        <time>2016-09-22T10:06:46Z</time>
      </trkpt>
      <trkpt lat="43.581220" lon="-8.207511">
        <ele>178.229</ele>
        <time>2016-09-22T10:06:49Z</time>
      </trkpt>
      <trkpt lat="43.581235" lon="-8.207902">
        <ele>177.600</ele>
        <time>2016-09-22T10:06:54Z</time>
      </trkpt>
      <trkpt lat="43.581246" lon="-8.208137">
        <ele>177.420</ele>
        <time>2016-09-22T10:06:57Z</time>
      </trkpt>
      <trkpt lat="43.581260" lon="-8.208522">
        <ele>177.008</ele>
        <time>2016-09-22T10:07:02Z</time>
      </trkpt>
      <trkpt lat="43.581275" lon="-8.208976">
        <ele>177.093</ele>
        <time>2016-09-22T10:07:08Z</time>
      </trkpt>
      <trkpt lat="43.581282" lon="-8.209288">
        <ele>176.697</ele>
        <time>2016-09-22T10:07:12Z</time>
      </trkpt>
      <trkpt lat="43.581283" lon="-8.209527">
        <ele>176.672</ele>
        <time>2016-09-22T10:07:15Z</time>
      </trkpt>
      <trkpt lat="43.581223" lon="-8.209650">
        <ele>176.230</ele>
        <time>2016-09-22T10:07:17Z</time>
      </trkpt>
      <trkpt lat="43.581070" lon="-8.209677">
        <ele>175.678</ele>
        <time>2016-09-22T10:07:20Z</time>
      </trkpt>
      <trkpt lat="43.581018" lon="-8.209679">
        <ele>175.698</ele>
        <time>2016-09-22T10:07:21Z</time>
      </trkpt>
      <trkpt lat="43.580863" lon="-8.209697">
        <ele>175.410</ele>
        <time>2016-09-22T10:07:24Z</time>
      </trkpt>
      <trkpt lat="43.580711" lon="-8.209719">
        <ele>174.832</ele>
        <time>2016-09-22T10:07:27Z</time>
      </trkpt>
      <trkpt lat="43.580414" lon="-8.209754">
        <ele>174.896</ele>
        <time>2016-09-22T10:07:33Z</time>
      </trkpt>
      <trkpt lat="43.580282" lon="-8.209768">
        <ele>174.831</ele>
        <time>2016-09-22T10:07:36Z</time>
      </trkpt>
      <trkpt lat="43.579950" lon="-8.209827">
        <ele>174.224</ele>
        <time>2016-09-22T10:07:45Z</time>
      </trkpt>
      <trkpt lat="43.579800" lon="-8.209960">
        <ele>173.608</ele>
        <time>2016-09-22T10:07:50Z</time>
      </trkpt>
      <trkpt lat="43.579681" lon="-8.210106">
        <ele>173.460</ele>
        <time>2016-09-22T10:07:55Z</time>
      </trkpt>
      <trkpt lat="43.579619" lon="-8.210183">
        <ele>172.884</ele>
        <time>2016-09-22T10:07:58Z</time>
      </trkpt>
      <trkpt lat="43.579542" lon="-8.210299">
        <ele>172.469</ele>
        <time>2016-09-22T10:08:03Z</time>
      </trkpt>
      <trkpt lat="43.579538" lon="-8.210317">
        <ele>172.297</ele>
        <time>2016-09-22T10:08:04Z</time>
      </trkpt>
      <trkpt lat="43.579524" lon="-8.210348">
        <ele>171.445</ele>
        <time>2016-09-22T10:08:08Z</time>
      </trkpt>
      <trkpt lat="43.579522" lon="-8.210348">
        <ele>171.265</ele>
        <time>2016-09-22T10:08:10Z</time>
      </trkpt>
      <trkpt lat="43.579499" lon="-8.210328">
        <ele>171.057</ele>
        <time>2016-09-22T10:08:13Z</time>
      </trkpt>
      <trkpt lat="43.579487" lon="-8.210317">
        <ele>170.859</ele>
        <time>2016-09-22T10:08:14Z</time>
      </trkpt>
      <trkpt lat="43.579470" lon="-8.210312">
        <ele>170.663</ele>
        <time>2016-09-22T10:08:15Z</time>
      </trkpt>
      <trkpt lat="43.579452" lon="-8.210315">
        <ele>170.444</ele>
        <time>2016-09-22T10:08:16Z</time>
      </trkpt>
      <trkpt lat="43.579402" lon="-8.210336">
        <ele>170.018</ele>
        <time>2016-09-22T10:08:19Z</time>
      </trkpt>
      <trkpt lat="43.579342" lon="-8.210333">
        <ele>169.008</ele>
        <time>2016-09-22T10:08:23Z</time>
      </trkpt>
      <trkpt lat="43.579331" lon="-8.210329">
        <ele>168.687</ele>
        <time>2016-09-22T10:08:24Z</time>
      </trkpt>
      <trkpt lat="43.579320" lon="-8.210328">
        <ele>168.691</ele>
        <time>2016-09-22T10:08:25Z</time>
      </trkpt>
      <trkpt lat="43.579281" lon="-8.210346">
        <ele>167.856</ele>
        <time>2016-09-22T10:08:29Z</time>
      </trkpt>
      <trkpt lat="43.579268" lon="-8.210345">
        <ele>167.674</ele>
        <time>2016-09-22T10:08:30Z</time>
      </trkpt>
      <trkpt lat="43.579253" lon="-8.210343">
        <ele>167.292</ele>
        <time>2016-09-22T10:08:31Z</time>
      </trkpt>
      <trkpt lat="43.579193" lon="-8.210354">
        <ele>166.412</ele>
        <time>2016-09-22T10:08:35Z</time>
      </trkpt>
      <trkpt lat="43.579186" lon="-8.210366">
        <ele>166.294</ele>
        <time>2016-09-22T10:08:36Z</time>
      </trkpt>
      <trkpt lat="43.579183" lon="-8.210378">
        <ele>165.826</ele>
        <time>2016-09-22T10:08:37Z</time>
      </trkpt>
      <trkpt lat="43.579186" lon="-8.210392">
        <ele>165.459</ele>
        <time>2016-09-22T10:08:38Z</time>
      </trkpt>
      <trkpt lat="43.579206" lon="-8.210416">
        <ele>164.803</ele>
        <time>2016-09-22T10:08:40Z</time>
      </trkpt>
      <trkpt lat="43.579224" lon="-8.210447">
        <ele>164.223</ele>
        <time>2016-09-22T10:08:42Z</time>
      </trkpt>
      <trkpt lat="43.579234" lon="-8.210488">
        <ele>164.008</ele>
        <time>2016-09-22T10:08:45Z</time>
      </trkpt>
      <trkpt lat="43.579234" lon="-8.210489">
        <ele>163.616</ele>
        <time>2016-09-22T10:08:47Z</time>
      </trkpt>
      <trkpt lat="43.579157" lon="-8.210754">
        <ele>152.270</ele>
        <time>2016-09-22T10:09:24Z</time>
      </trkpt>
      <trkpt lat="43.579138" lon="-8.210776">
        <ele>151.845</ele>
        <time>2016-09-22T10:09:26Z</time>
      </trkpt>
      <trkpt lat="43.579117" lon="-8.210797">
        <ele>151.473</ele>
        <time>2016-09-22T10:09:28Z</time>
      </trkpt>
      <trkpt lat="43.579070" lon="-8.210830">
        <ele>150.221</ele>
        <time>2016-09-22T10:09:32Z</time>
      </trkpt>
      <trkpt lat="43.579047" lon="-8.210842">
        <ele>149.671</ele>
        <time>2016-09-22T10:09:34Z</time>
      </trkpt>
      <trkpt lat="43.579012" lon="-8.210866">
        <ele>149.063</ele>
        <time>2016-09-22T10:09:37Z</time>
      </trkpt>
      <trkpt lat="43.578943" lon="-8.210925">
        <ele>148.425</ele>
        <time>2016-09-22T10:09:43Z</time>
      </trkpt>
      <trkpt lat="43.578898" lon="-8.210965">
        <ele>148.226</ele>
        <time>2016-09-22T10:09:47Z</time>
      </trkpt>
      <trkpt lat="43.578867" lon="-8.210997">
        <ele>147.647</ele>
        <time>2016-09-22T10:09:50Z</time>
      </trkpt>
      <trkpt lat="43.578785" lon="-8.211047">
        <ele>147.411</ele>
        <time>2016-09-22T10:09:57Z</time>
      </trkpt>
      <trkpt lat="43.578710" lon="-8.211097">
        <ele>146.408</ele>
        <time>2016-09-22T10:10:04Z</time>
      </trkpt>
      <trkpt lat="43.578672" lon="-8.211115">
        <ele>146.033</ele>
        <time>2016-09-22T10:10:07Z</time>
      </trkpt>
      <trkpt lat="43.578634" lon="-8.211129">
        <ele>145.237</ele>
        <time>2016-09-22T10:10:10Z</time>
      </trkpt>
      <trkpt lat="43.578552" lon="-8.211149">
        <ele>144.462</ele>
        <time>2016-09-22T10:10:16Z</time>
      </trkpt>
      <trkpt lat="43.578539" lon="-8.211156">
        <ele>144.270</ele>
        <time>2016-09-22T10:10:17Z</time>
      </trkpt>
      <trkpt lat="43.578450" lon="-8.211194">
        <ele>143.478</ele>
        <time>2016-09-22T10:10:23Z</time>
      </trkpt>
      <trkpt lat="43.578435" lon="-8.211201">
        <ele>143.258</ele>
        <time>2016-09-22T10:10:24Z</time>
      </trkpt>
      <trkpt lat="43.578323" lon="-8.211270">
        <ele>142.420</ele>
        <time>2016-09-22T10:10:32Z</time>
      </trkpt>
      <trkpt lat="43.578260" lon="-8.211340">
        <ele>141.272</ele>
        <time>2016-09-22T10:10:38Z</time>
      </trkpt>
      <trkpt lat="43.578223" lon="-8.211368">
        <ele>140.683</ele>
        <time>2016-09-22T10:10:41Z</time>
      </trkpt>
      <trkpt lat="43.578196" lon="-8.211384">
        <ele>140.225</ele>
        <time>2016-09-22T10:10:43Z</time>
      </trkpt>
      <trkpt lat="43.578120" lon="-8.211437">
        <ele>139.217</ele>
        <time>2016-09-22T10:10:49Z</time>
      </trkpt>
      <trkpt lat="43.578094" lon="-8.211456">
        <ele>139.008</ele>
        <time>2016-09-22T10:10:51Z</time>
      </trkpt>
      <trkpt lat="43.578035" lon="-8.211511">
        <ele>138.079</ele>
        <time>2016-09-22T10:10:56Z</time>
      </trkpt>
      <trkpt lat="43.577992" lon="-8.211549">
        <ele>137.413</ele>
        <time>2016-09-22T10:11:00Z</time>
      </trkpt>
      <trkpt lat="43.577980" lon="-8.211557">
        <ele>137.018</ele>
        <time>2016-09-22T10:11:01Z</time>
      </trkpt>
      <trkpt lat="43.577936" lon="-8.211603">
        <ele>136.056</ele>
        <time>2016-09-22T10:11:05Z</time>
      </trkpt>
      <trkpt lat="43.577914" lon="-8.211626">
        <ele>135.814</ele>
        <time>2016-09-22T10:11:07Z</time>
      </trkpt>
      <trkpt lat="43.577867" lon="-8.211677">
        <ele>135.014</ele>
        <time>2016-09-22T10:11:11Z</time>
      </trkpt>
      <trkpt lat="43.577799" lon="-8.211759">
        <ele>134.026</ele>
        <time>2016-09-22T10:11:17Z</time>
      </trkpt>
      <trkpt lat="43.577789" lon="-8.211773">
        <ele>133.838</ele>
        <time>2016-09-22T10:11:18Z</time>
      </trkpt>
      <trkpt lat="43.577726" lon="-8.211864">
        <ele>132.857</ele>
        <time>2016-09-22T10:11:24Z</time>
      </trkpt>
      <trkpt lat="43.577706" lon="-8.211895">
        <ele>132.400</ele>
        <time>2016-09-22T10:11:26Z</time>
      </trkpt>
      <trkpt lat="43.577662" lon="-8.211937">
        <ele>131.620</ele>
        <time>2016-09-22T10:11:30Z</time>
      </trkpt>
      <trkpt lat="43.577638" lon="-8.211960">
        <ele>131.608</ele>
        <time>2016-09-22T10:11:32Z</time>
      </trkpt>
      <trkpt lat="43.577570" lon="-8.212032">
        <ele>130.686</ele>
        <time>2016-09-22T10:11:38Z</time>
      </trkpt>
      <trkpt lat="43.577549" lon="-8.212056">
        <ele>130.270</ele>
        <time>2016-09-22T10:11:40Z</time>
      </trkpt>
      <trkpt lat="43.577473" lon="-8.212157">
        <ele>129.445</ele>
        <time>2016-09-22T10:11:48Z</time>
      </trkpt>
      <trkpt lat="43.577414" lon="-8.212248">
        <ele>128.473</ele>
        <time>2016-09-22T10:11:55Z</time>
      </trkpt>
      <trkpt lat="43.577372" lon="-8.212331">
        <ele>127.261</ele>
        <time>2016-09-22T10:12:01Z</time>
      </trkpt>
      <trkpt lat="43.577363" lon="-8.212341">
        <ele>127.031</ele>
        <time>2016-09-22T10:12:02Z</time>
      </trkpt>
      <trkpt lat="43.577325" lon="-8.212424">
        <ele>126.653</ele>
        <time>2016-09-22T10:12:08Z</time>
      </trkpt>
      <trkpt lat="43.577304" lon="-8.212496">
        <ele>126.055</ele>
        <time>2016-09-22T10:12:13Z</time>
      </trkpt>
      <trkpt lat="43.577301" lon="-8.212499">
        <ele>125.413</ele>
        <time>2016-09-22T10:12:15Z</time>
      </trkpt>
      <trkpt lat="43.577272" lon="-8.212473">
        <ele>125.043</ele>
        <time>2016-09-22T10:12:22Z</time>
      </trkpt>
      <trkpt lat="43.577239" lon="-8.212458">
        <ele>124.607</ele>
        <time>2016-09-22T10:12:24Z</time>
      </trkpt>
      <trkpt lat="43.577218" lon="-8.212462">
        <ele>124.408</ele>
        <time>2016-09-22T10:12:25Z</time>
      </trkpt>
      <trkpt lat="43.577176" lon="-8.212508">
        <ele>123.852</ele>
        <time>2016-09-22T10:12:29Z</time>
      </trkpt>
      <trkpt lat="43.577155" lon="-8.212587">
        <ele>123.896</ele>
        <time>2016-09-22T10:12:35Z</time>
      </trkpt>
      <trkpt lat="43.577155" lon="-8.212591">
        <ele>123.821</ele>
        <time>2016-09-22T10:12:36Z</time>
      </trkpt>
      <trkpt lat="43.577162" lon="-8.212668">
        <ele>121.439</ele>
        <time>2016-09-22T10:12:48Z</time>
      </trkpt>
      <trkpt lat="43.577143" lon="-8.212740">
        <ele>120.887</ele>
        <time>2016-09-22T10:12:51Z</time>
      </trkpt>
      <trkpt lat="43.577119" lon="-8.212761">
        <ele>120.437</ele>
        <time>2016-09-22T10:12:53Z</time>
      </trkpt>
      <trkpt lat="43.577068" lon="-8.212799">
        <ele>120.049</ele>
        <time>2016-09-22T10:12:55Z</time>
      </trkpt>
      <trkpt lat="43.577038" lon="-8.212826">
        <ele>120.021</ele>
        <time>2016-09-22T10:12:56Z</time>
      </trkpt>
      <trkpt lat="43.576984" lon="-8.212943">
        <ele>119.456</ele>
        <time>2016-09-22T10:12:59Z</time>
      </trkpt>
      <trkpt lat="43.576949" lon="-8.213194">
        <ele>119.259</ele>
        <time>2016-09-22T10:13:06Z</time>
      </trkpt>
      <trkpt lat="43.576869" lon="-8.213466">
        <ele>119.414</ele>
        <time>2016-09-22T10:13:15Z</time>
      </trkpt>
      <trkpt lat="43.576790" lon="-8.213716">
        <ele>119.008</ele>
        <time>2016-09-22T10:13:24Z</time>
      </trkpt>
      <trkpt lat="43.576712" lon="-8.213897">
        <ele>119.226</ele>
        <time>2016-09-22T10:13:30Z</time>
      </trkpt>
      <trkpt lat="43.576609" lon="-8.214127">
        <ele>119.090</ele>
        <time>2016-09-22T10:13:37Z</time>
      </trkpt>
      <trkpt lat="43.576546" lon="-8.214324">
        <ele>119.415</ele>
        <time>2016-09-22T10:13:43Z</time>
      </trkpt>
      <trkpt lat="43.576534" lon="-8.214401">
        <ele>119.683</ele>
        <time>2016-09-22T10:13:45Z</time>
      </trkpt>
      <trkpt lat="43.576493" lon="-8.214606">
        <ele>119.881</ele>
        <time>2016-09-22T10:13:50Z</time>
      </trkpt>
      <trkpt lat="43.576397" lon="-8.214903">
        <ele>120.441</ele>
        <time>2016-09-22T10:13:57Z</time>
      </trkpt>
      <trkpt lat="43.576378" lon="-8.214947">
        <ele>120.613</ele>
        <time>2016-09-22T10:13:58Z</time>
      </trkpt>
      <trkpt lat="43.576237" lon="-8.215089">
        <ele>121.225</ele>
        <time>2016-09-22T10:14:03Z</time>
      </trkpt>
      <trkpt lat="43.576108" lon="-8.215021">
        <ele>121.498</ele>
        <time>2016-09-22T10:14:07Z</time>
      </trkpt>
      <trkpt lat="43.576022" lon="-8.214941">
        <ele>121.415</ele>
        <time>2016-09-22T10:14:10Z</time>
      </trkpt>
      <trkpt lat="43.575964" lon="-8.214835">
        <ele>121.626</ele>
        <time>2016-09-22T10:14:13Z</time>
      </trkpt>
      <trkpt lat="43.575852" lon="-8.214670">
        <ele>122.208</ele>
        <time>2016-09-22T10:14:19Z</time>
      </trkpt>
      <trkpt lat="43.575826" lon="-8.214624">
        <ele>122.430</ele>
        <time>2016-09-22T10:14:21Z</time>
      </trkpt>
      <trkpt lat="43.575796" lon="-8.214579">
        <ele>123.234</ele>
        <time>2016-09-22T10:14:25Z</time>
      </trkpt>
      <trkpt lat="43.575796" lon="-8.214576">
        <ele>123.239</ele>
        <time>2016-09-22T10:14:26Z</time>
      </trkpt>
      <trkpt lat="43.575821" lon="-8.214611">
        <ele>122.437</ele>
        <time>2016-09-22T10:15:11Z</time>
      </trkpt>
      <trkpt lat="43.575852" lon="-8.214643">
        <ele>122.415</ele>
        <time>2016-09-22T10:15:13Z</time>
      </trkpt>
      <trkpt lat="43.575954" lon="-8.214790">
        <ele>122.415</ele>
        <time>2016-09-22T10:15:19Z</time>
      </trkpt>
      <trkpt lat="43.575956" lon="-8.214831">
        <ele>122.267</ele>
        <time>2016-09-22T10:15:20Z</time>
      </trkpt>
      <trkpt lat="43.575915" lon="-8.214892">
        <ele>122.649</ele>
        <time>2016-09-22T10:15:23Z</time>
      </trkpt>
      <trkpt lat="43.575875" lon="-8.214868">
        <ele>123.032</ele>
        <time>2016-09-22T10:15:25Z</time>
      </trkpt>
      <trkpt lat="43.575803" lon="-8.214842">
        <ele>123.092</ele>
        <time>2016-09-22T10:15:28Z</time>
      </trkpt>
      <trkpt lat="43.575664" lon="-8.214854">
        <ele>123.411</ele>
        <time>2016-09-22T10:15:35Z</time>
      </trkpt>
      <trkpt lat="43.575636" lon="-8.214867">
        <ele>123.408</ele>
        <time>2016-09-22T10:15:37Z</time>
      </trkpt>
      <trkpt lat="43.575562" lon="-8.214923">
        <ele>123.814</ele>
        <time>2016-09-22T10:15:43Z</time>
      </trkpt>
      <trkpt lat="43.575494" lon="-8.215003">
        <ele>123.858</ele>
        <time>2016-09-22T10:15:50Z</time>
      </trkpt>
      <trkpt lat="43.575414" lon="-8.215092">
        <ele>123.823</ele>
        <time>2016-09-22T10:15:56Z</time>
      </trkpt>
      <trkpt lat="43.575321" lon="-8.215227">
        <ele>124.021</ele>
        <time>2016-09-22T10:16:04Z</time>
      </trkpt>
      <trkpt lat="43.575250" lon="-8.215332">
        <ele>124.279</ele>
        <time>2016-09-22T10:16:12Z</time>
      </trkpt>
      <trkpt lat="43.575171" lon="-8.215414">
        <ele>124.679</ele>
        <time>2016-09-22T10:16:21Z</time>
      </trkpt>
      <trkpt lat="43.575141" lon="-8.215451">
        <ele>124.061</ele>
        <time>2016-09-22T10:16:25Z</time>
      </trkpt>
      <trkpt lat="43.575117" lon="-8.215481">
        <ele>124.063</ele>
        <time>2016-09-22T10:16:28Z</time>
      </trkpt>
      <trkpt lat="43.575057" lon="-8.215524">
        <ele>123.411</ele>
        <time>2016-09-22T10:16:34Z</time>
      </trkpt>
      <trkpt lat="43.574996" lon="-8.215581">
        <ele>123.021</ele>
        <time>2016-09-22T10:16:42Z</time>
      </trkpt>
      <trkpt lat="43.574960" lon="-8.215653">
        <ele>122.403</ele>
        <time>2016-09-22T10:16:49Z</time>
      </trkpt>
      <trkpt lat="43.574947" lon="-8.215677">
        <ele>122.008</ele>
        <time>2016-09-22T10:16:52Z</time>
      </trkpt>
      <trkpt lat="43.574934" lon="-8.215718">
        <ele>121.642</ele>
        <time>2016-09-22T10:16:56Z</time>
      </trkpt>
      <trkpt lat="43.574897" lon="-8.215809">
        <ele>120.846</ele>
        <time>2016-09-22T10:17:05Z</time>
      </trkpt>
      <trkpt lat="43.574872" lon="-8.215854">
        <ele>121.051</ele>
        <time>2016-09-22T10:17:10Z</time>
      </trkpt>
      <trkpt lat="43.574861" lon="-8.215878">
        <ele>121.069</ele>
        <time>2016-09-22T10:17:13Z</time>
      </trkpt>
      <trkpt lat="43.574845" lon="-8.215918">
        <ele>120.647</ele>
        <time>2016-09-22T10:17:17Z</time>
      </trkpt>
      <trkpt lat="43.574832" lon="-8.215947">
        <ele>120.897</ele>
        <time>2016-09-22T10:17:20Z</time>
      </trkpt>
      <trkpt lat="43.574793" lon="-8.216015">
        <ele>120.689</ele>
        <time>2016-09-22T10:17:27Z</time>
      </trkpt>
      <trkpt lat="43.574788" lon="-8.216016">
        <ele>120.651</ele>
        <time>2016-09-22T10:17:29Z</time>
      </trkpt>
      <trkpt lat="43.573961" lon="-8.217926">
        <ele>129.862</ele>
        <time>2016-09-22T10:21:06Z</time>
      </trkpt>
      <trkpt lat="43.573954" lon="-8.217942">
        <ele>130.083</ele>
        <time>2016-09-22T10:21:07Z</time>
      </trkpt>
      <trkpt lat="43.573926" lon="-8.218045">
        <ele>130.611</ele>
        <time>2016-09-22T10:21:13Z</time>
      </trkpt>
      <trkpt lat="43.573921" lon="-8.218065">
        <ele>130.808</ele>
        <time>2016-09-22T10:21:14Z</time>
      </trkpt>
      <trkpt lat="43.573877" lon="-8.218248">
        <ele>131.027</ele>
        <time>2016-09-22T10:21:20Z</time>
      </trkpt>
      <trkpt lat="43.573791" lon="-8.218405">
        <ele>131.031</ele>
        <time>2016-09-22T10:21:24Z</time>
      </trkpt>
      <trkpt lat="43.573767" lon="-8.218438">
        <ele>131.096</ele>
        <time>2016-09-22T10:21:25Z</time>
      </trkpt>
      <trkpt lat="43.573694" lon="-8.218560">
        <ele>131.414</ele>
        <time>2016-09-22T10:21:28Z</time>
      </trkpt>
      <trkpt lat="43.573671" lon="-8.218616">
        <ele>131.632</ele>
        <time>2016-09-22T10:21:29Z</time>
      </trkpt>
      <trkpt lat="43.573623" lon="-8.218727">
        <ele>131.852</ele>
        <time>2016-09-22T10:21:31Z</time>
      </trkpt>
      <trkpt lat="43.573598" lon="-8.218774">
        <ele>132.044</ele>
        <time>2016-09-22T10:21:32Z</time>
      </trkpt>
      <trkpt lat="43.573548" lon="-8.218867">
        <ele>132.236</ele>
        <time>2016-09-22T10:21:34Z</time>
      </trkpt>
      <trkpt lat="43.573486" lon="-8.218961">
        <ele>132.873</ele>
        <time>2016-09-22T10:21:36Z</time>
      </trkpt>
      <trkpt lat="43.573454" lon="-8.219014">
        <ele>133.085</ele>
        <time>2016-09-22T10:21:37Z</time>
      </trkpt>
      <trkpt lat="43.573429" lon="-8.219074">
        <ele>133.213</ele>
        <time>2016-09-22T10:21:38Z</time>
      </trkpt>
      <trkpt lat="43.573341" lon="-8.219284">
        <ele>132.808</ele>
        <time>2016-09-22T10:21:42Z</time>
      </trkpt>
      <trkpt lat="43.573313" lon="-8.219310">
        <ele>132.858</ele>
        <time>2016-09-22T10:21:43Z</time>
      </trkpt>
      <trkpt lat="43.573293" lon="-8.219337">
        <ele>132.832</ele>
        <time>2016-09-22T10:21:44Z</time>
      </trkpt>
      <trkpt lat="43.573236" lon="-8.219448">
        <ele>133.277</ele>
        <time>2016-09-22T10:21:47Z</time>
      </trkpt>
      <trkpt lat="43.573211" lon="-8.219489">
        <ele>133.645</ele>
        <time>2016-09-22T10:21:48Z</time>
      </trkpt>
      <trkpt lat="43.573110" lon="-8.219685">
        <ele>135.033</ele>
        <time>2016-09-22T10:21:52Z</time>
      </trkpt>
      <trkpt lat="43.573082" lon="-8.219740">
        <ele>135.253</ele>
        <time>2016-09-22T10:21:53Z</time>
      </trkpt>
      <trkpt lat="43.573048" lon="-8.219795">
        <ele>135.415</ele>
        <time>2016-09-22T10:21:54Z</time>
      </trkpt>
      <trkpt lat="43.573007" lon="-8.219850">
        <ele>136.057</ele>
        <time>2016-09-22T10:21:55Z</time>
      </trkpt>
      <trkpt lat="43.572912" lon="-8.219954">
        <ele>136.665</ele>
        <time>2016-09-22T10:21:57Z</time>
      </trkpt>
      <trkpt lat="43.572812" lon="-8.220049">
        <ele>137.068</ele>
        <time>2016-09-22T10:21:59Z</time>
      </trkpt>
      <trkpt lat="43.572578" lon="-8.220260">
        <ele>138.214</ele>
        <time>2016-09-22T10:22:04Z</time>
      </trkpt>
      <trkpt lat="43.572537" lon="-8.220295">
        <ele>138.608</ele>
        <time>2016-09-22T10:22:05Z</time>
      </trkpt>
      <trkpt lat="43.572427" lon="-8.220386">
        <ele>139.017</ele>
        <time>2016-09-22T10:22:08Z</time>
      </trkpt>
      <trkpt lat="43.572297" lon="-8.220512">
        <ele>140.041</ele>
        <time>2016-09-22T10:22:12Z</time>
      </trkpt>
      <trkpt lat="43.572209" lon="-8.220612">
        <ele>141.266</ele>
        <time>2016-09-22T10:22:15Z</time>
      </trkpt>
      <trkpt lat="43.572086" lon="-8.220728">
        <ele>142.264</ele>
        <time>2016-09-22T10:22:19Z</time>
      </trkpt>
      <trkpt lat="43.572052" lon="-8.220748">
        <ele>142.472</ele>
        <time>2016-09-22T10:22:20Z</time>
      </trkpt>
      <trkpt lat="43.571912" lon="-8.220799">
        <ele>143.042</ele>
        <time>2016-09-22T10:22:25Z</time>
      </trkpt>
      <trkpt lat="43.571830" lon="-8.220831">
        <ele>144.054</ele>
        <time>2016-09-22T10:22:28Z</time>
      </trkpt>
      <trkpt lat="43.571741" lon="-8.220878">
        <ele>145.066</ele>
        <time>2016-09-22T10:22:31Z</time>
      </trkpt>
      <trkpt lat="43.571560" lon="-8.220973">
        <ele>146.018</ele>
        <time>2016-09-22T10:22:37Z</time>
      </trkpt>
      <trkpt lat="43.571465" lon="-8.221035">
        <ele>147.098</ele>
        <time>2016-09-22T10:22:40Z</time>
      </trkpt>
      <trkpt lat="43.571433" lon="-8.221061">
        <ele>147.417</ele>
        <time>2016-09-22T10:22:41Z</time>
      </trkpt>
      <trkpt lat="43.571278" lon="-8.221236">
        <ele>147.608</ele>
        <time>2016-09-22T10:22:46Z</time>
      </trkpt>
      <trkpt lat="43.571195" lon="-8.221319">
        <ele>147.812</ele>
        <time>2016-09-22T10:22:48Z</time>
      </trkpt>
      <trkpt lat="43.571108" lon="-8.221429">
        <ele>148.016</ele>
        <time>2016-09-22T10:22:50Z</time>
      </trkpt>
      <trkpt lat="43.570973" lon="-8.221588">
        <ele>148.641</ele>
        <time>2016-09-22T10:22:54Z</time>
      </trkpt>
      <trkpt lat="43.570940" lon="-8.221621">
        <ele>148.679</ele>
        <time>2016-09-22T10:22:55Z</time>
      </trkpt>
      <trkpt lat="43.570850" lon="-8.221634">
        <ele>148.697</ele>
        <time>2016-09-22T10:22:57Z</time>
      </trkpt>
      <trkpt lat="43.570664" lon="-8.221600">
        <ele>148.637</ele>
        <time>2016-09-22T10:23:00Z</time>
      </trkpt>
      <trkpt lat="43.570555" lon="-8.221645">
        <ele>148.829</ele>
        <time>2016-09-22T10:23:02Z</time>
      </trkpt>
      <trkpt lat="43.570511" lon="-8.221666">
        <ele>149.271</ele>
        <time>2016-09-22T10:23:03Z</time>
      </trkpt>
      <trkpt lat="43.570379" lon="-8.221661">
        <ele>149.467</ele>
        <time>2016-09-22T10:23:06Z</time>
      </trkpt>
      <trkpt lat="43.570289" lon="-8.221711">
        <ele>149.681</ele>
        <time>2016-09-22T10:23:09Z</time>
      </trkpt>
      <trkpt lat="43.570271" lon="-8.221738">
        <ele>150.019</ele>
        <time>2016-09-22T10:23:10Z</time>
      </trkpt>
      <trkpt lat="43.570240" lon="-8.221795">
        <ele>150.608</ele>
        <time>2016-09-22T10:23:12Z</time>
      </trkpt>
      <trkpt lat="43.570225" lon="-8.221824">
        <ele>151.037</ele>
        <time>2016-09-22T10:23:13Z</time>
      </trkpt>
      <trkpt lat="43.570179" lon="-8.221916">
        <ele>151.871</ele>
        <time>2016-09-22T10:23:16Z</time>
      </trkpt>
      <trkpt lat="43.570163" lon="-8.221944">
        <ele>152.246</ele>
        <time>2016-09-22T10:23:17Z</time>
      </trkpt>
      <trkpt lat="43.570073" lon="-8.222073">
        <ele>153.284</ele>
        <time>2016-09-22T10:23:22Z</time>
      </trkpt>
      <trkpt lat="43.570053" lon="-8.222094">
        <ele>153.422</ele>
        <time>2016-09-22T10:23:23Z</time>
      </trkpt>
      <trkpt lat="43.569937" lon="-8.222209">
        <ele>154.062</ele>
        <time>2016-09-22T10:23:29Z</time>
      </trkpt>
      <trkpt lat="43.569917" lon="-8.222228">
        <ele>154.254</ele>
        <time>2016-09-22T10:23:30Z</time>
      </trkpt>
      <trkpt lat="43.569818" lon="-8.222311">
        <ele>155.236</ele>
        <time>2016-09-22T10:23:35Z</time>
      </trkpt>
      <trkpt lat="43.569738" lon="-8.222373">
        <ele>155.481</ele>
        <time>2016-09-22T10:23:39Z</time>
      </trkpt>
      <trkpt lat="43.569618" lon="-8.222473">
        <ele>156.061</ele>
        <time>2016-09-22T10:23:45Z</time>
      </trkpt>
      <trkpt lat="43.569601" lon="-8.222492">
        <ele>156.017</ele>
        <time>2016-09-22T10:23:46Z</time>
      </trkpt>
      <trkpt lat="43.569488" lon="-8.222601">
        <ele>157.008</ele>
        <time>2016-09-22T10:23:52Z</time>
      </trkpt>
      <trkpt lat="43.569451" lon="-8.222632">
        <ele>157.079</ele>
        <time>2016-09-22T10:23:54Z</time>
      </trkpt>
      <trkpt lat="43.569306" lon="-8.222750">
        <ele>157.453</ele>
        <time>2016-09-22T10:24:01Z</time>
      </trkpt>
      <trkpt lat="43.569245" lon="-8.222787">
        <ele>157.868</ele>
        <time>2016-09-22T10:24:04Z</time>
      </trkpt>
      <trkpt lat="43.569164" lon="-8.222822">
        <ele>158.276</ele>
        <time>2016-09-22T10:24:09Z</time>
      </trkpt>
      <trkpt lat="43.569123" lon="-8.222833">
        <ele>158.654</ele>
        <time>2016-09-22T10:24:12Z</time>
      </trkpt>
      <trkpt lat="43.569034" lon="-8.222869">
        <ele>158.674</ele>
        <time>2016-09-22T10:24:19Z</time>
      </trkpt>
      <trkpt lat="43.568944" lon="-8.222939">
        <ele>158.836</ele>
        <time>2016-09-22T10:24:26Z</time>
      </trkpt>
      <trkpt lat="43.568893" lon="-8.222988">
        <ele>158.838</ele>
        <time>2016-09-22T10:24:32Z</time>
      </trkpt>
      <trkpt lat="43.568815" lon="-8.223084">
        <ele>159.022</ele>
        <time>2016-09-22T10:24:40Z</time>
      </trkpt>
      <trkpt lat="43.568754" lon="-8.223138">
        <ele>159.262</ele>
        <time>2016-09-22T10:24:45Z</time>
      </trkpt>
      <trkpt lat="43.568720" lon="-8.223168">
        <ele>159.008</ele>
        <time>2016-09-22T10:24:48Z</time>
      </trkpt>
      <trkpt lat="43.568614" lon="-8.223258">
        <ele>158.808</ele>
        <time>2016-09-22T10:24:57Z</time>
      </trkpt>
      <trkpt lat="43.568517" lon="-8.223358">
        <ele>158.263</ele>
        <time>2016-09-22T10:25:05Z</time>
      </trkpt>
      <trkpt lat="43.568433" lon="-8.223434">
        <ele>157.827</ele>
        <time>2016-09-22T10:25:12Z</time>
      </trkpt>
      <trkpt lat="43.568328" lon="-8.223586">
        <ele>157.472</ele>
        <time>2016-09-22T10:25:22Z</time>
      </trkpt>
      <trkpt lat="43.568269" lon="-8.223765">
        <ele>157.070</ele>
        <time>2016-09-22T10:25:31Z</time>
      </trkpt>
      <trkpt lat="43.568271" lon="-8.223840">
        <ele>156.618</ele>
        <time>2016-09-22T10:25:34Z</time>
      </trkpt>
      <trkpt lat="43.568299" lon="-8.223940">
        <ele>155.828</ele>
        <time>2016-09-22T10:25:38Z</time>
      </trkpt>
      <trkpt lat="43.568335" lon="-8.224097">
        <ele>155.450</ele>
        <time>2016-09-22T10:25:43Z</time>
      </trkpt>
      <trkpt lat="43.568285" lon="-8.224323">
        <ele>155.682</ele>
        <time>2016-09-22T10:25:48Z</time>
      </trkpt>
      <trkpt lat="43.568266" lon="-8.224352">
        <ele>155.499</ele>
        <time>2016-09-22T10:25:51Z</time>
      </trkpt>
      <trkpt lat="43.568243" lon="-8.224377">
        <ele>154.407</ele>
        <time>2016-09-22T10:26:09Z</time>
      </trkpt>
      <trkpt lat="43.568210" lon="-8.224412">
        <ele>154.427</ele>
        <time>2016-09-22T10:26:11Z</time>
      </trkpt>
      <trkpt lat="43.568106" lon="-8.224506">
        <ele>153.408</ele>
        <time>2016-09-22T10:26:15Z</time>
      </trkpt>
      <trkpt lat="43.568066" lon="-8.224548">
        <ele>153.280</ele>
        <time>2016-09-22T10:26:16Z</time>
      </trkpt>
      <trkpt lat="43.567971" lon="-8.224675">
        <ele>152.874</ele>
        <time>2016-09-22T10:26:18Z</time>
      </trkpt>
      <trkpt lat="43.567925" lon="-8.224762">
        <ele>152.829</ele>
        <time>2016-09-22T10:26:19Z</time>
      </trkpt>
      <trkpt lat="43.567708" lon="-8.225237">
        <ele>152.417</ele>
        <time>2016-09-22T10:26:24Z</time>
      </trkpt>
      <trkpt lat="43.567686" lon="-8.225343">
        <ele>152.425</ele>
        <time>2016-09-22T10:26:25Z</time>
      </trkpt>
      <trkpt lat="43.567628" lon="-8.225876">
        <ele>152.425</ele>
        <time>2016-09-22T10:26:30Z</time>
      </trkpt>
      <trkpt lat="43.567608" lon="-8.225968">
        <ele>152.477</ele>
        <time>2016-09-22T10:26:31Z</time>
      </trkpt>
      <trkpt lat="43.567517" lon="-8.226196">
        <ele>152.889</ele>
        <time>2016-09-22T10:26:34Z</time>
      </trkpt>
      <trkpt lat="43.567441" lon="-8.226582">
        <ele>153.299</ele>
        <time>2016-09-22T10:26:38Z</time>
      </trkpt>
      <trkpt lat="43.567419" lon="-8.226688">
        <ele>153.607</ele>
        <time>2016-09-22T10:26:39Z</time>
      </trkpt>
      <trkpt lat="43.567344" lon="-8.226909">
        <ele>153.827</ele>
        <time>2016-09-22T10:26:41Z</time>
      </trkpt>
      <trkpt lat="43.567148" lon="-8.227450">
        <ele>153.608</ele>
        <time>2016-09-22T10:26:46Z</time>
      </trkpt>
      <trkpt lat="43.567116" lon="-8.227537">
        <ele>154.060</ele>
        <time>2016-09-22T10:26:47Z</time>
      </trkpt>
      <trkpt lat="43.567093" lon="-8.227614">
        <ele>154.244</ele>
        <time>2016-09-22T10:26:48Z</time>
      </trkpt>
      <trkpt lat="43.567084" lon="-8.227685">
        <ele>154.489</ele>
        <time>2016-09-22T10:26:49Z</time>
      </trkpt>
      <trkpt lat="43.567123" lon="-8.227896">
        <ele>155.087</ele>
        <time>2016-09-22T10:26:53Z</time>
      </trkpt>
      <trkpt lat="43.567137" lon="-8.227933">
        <ele>155.265</ele>
        <time>2016-09-22T10:26:54Z</time>
      </trkpt>
      <trkpt lat="43.567154" lon="-8.227972">
        <ele>155.645</ele>
        <time>2016-09-22T10:26:55Z</time>
      </trkpt>
      <trkpt lat="43.567229" lon="-8.228161">
        <ele>156.227</ele>
        <time>2016-09-22T10:26:59Z</time>
      </trkpt>
      <trkpt lat="43.567268" lon="-8.228260">
        <ele>156.449</ele>
        <time>2016-09-22T10:27:01Z</time>
      </trkpt>
      <trkpt lat="43.567336" lon="-8.228508">
        <ele>156.891</ele>
        <time>2016-09-22T10:27:06Z</time>
      </trkpt>
      <trkpt lat="43.567364" lon="-8.228711">
        <ele>157.281</ele>
        <time>2016-09-22T10:27:10Z</time>
      </trkpt>
      <trkpt lat="43.567392" lon="-8.228925">
        <ele>158.019</ele>
        <time>2016-09-22T10:27:14Z</time>
      </trkpt>
      <trkpt lat="43.567423" lon="-8.229080">
        <ele>158.208</ele>
        <time>2016-09-22T10:27:17Z</time>
      </trkpt>
      <trkpt lat="43.567489" lon="-8.229267">
        <ele>158.650</ele>
        <time>2016-09-22T10:27:21Z</time>
      </trkpt>
      <trkpt lat="43.567602" lon="-8.229465">
        <ele>159.234</ele>
        <time>2016-09-22T10:27:26Z</time>
      </trkpt>
      <trkpt lat="43.567625" lon="-8.229503">
        <ele>159.429</ele>
        <time>2016-09-22T10:27:27Z</time>
      </trkpt>
      <trkpt lat="43.567809" lon="-8.229781">
        <ele>160.457</ele>
        <time>2016-09-22T10:27:35Z</time>
      </trkpt>
      <trkpt lat="43.567936" lon="-8.229983">
        <ele>161.445</ele>
        <time>2016-09-22T10:27:42Z</time>
      </trkpt>
      <trkpt lat="43.568067" lon="-8.230179">
        <ele>162.665</ele>
        <time>2016-09-22T10:27:50Z</time>
      </trkpt>
      <trkpt lat="43.568082" lon="-8.230199">
        <ele>162.697</ele>
        <time>2016-09-22T10:27:51Z</time>
      </trkpt>
      <trkpt lat="43.568169" lon="-8.230313">
        <ele>163.069</ele>
        <time>2016-09-22T10:27:58Z</time>
      </trkpt>
      <trkpt lat="43.568192" lon="-8.230354">
        <ele>163.669</ele>
        <time>2016-09-22T10:28:00Z</time>
      </trkpt>
      <trkpt lat="43.568248" lon="-8.230446">
        <ele>164.004</ele>
        <time>2016-09-22T10:28:05Z</time>
      </trkpt>
      <trkpt lat="43.568321" lon="-8.230625">
        <ele>164.224</ele>
        <time>2016-09-22T10:28:14Z</time>
      </trkpt>
      <trkpt lat="43.568368" lon="-8.230865">
        <ele>164.008</ele>
        <time>2016-09-22T10:28:23Z</time>
      </trkpt>
      <trkpt lat="43.568369" lon="-8.230975">
        <ele>164.267</ele>
        <time>2016-09-22T10:28:27Z</time>
      </trkpt>
      <trkpt lat="43.568349" lon="-8.231070">
        <ele>164.831</ele>
        <time>2016-09-22T10:28:31Z</time>
      </trkpt>
      <trkpt lat="43.568301" lon="-8.231255">
        <ele>164.836</ele>
        <time>2016-09-22T10:28:39Z</time>
      </trkpt>
      <trkpt lat="43.568258" lon="-8.231416">
        <ele>165.064</ele>
        <time>2016-09-22T10:28:45Z</time>
      </trkpt>
      <trkpt lat="43.568180" lon="-8.231698">
        <ele>165.222</ele>
        <time>2016-09-22T10:28:54Z</time>
      </trkpt>
      <trkpt lat="43.568172" lon="-8.231731">
        <ele>165.272</ele>
        <time>2016-09-22T10:28:55Z</time>
      </trkpt>
      <trkpt lat="43.568067" lon="-8.232018">
        <ele>165.014</ele>
        <time>2016-09-22T10:29:04Z</time>
      </trkpt>
      <trkpt lat="43.567915" lon="-8.232349">
        <ele>165.466</ele>
        <time>2016-09-22T10:29:14Z</time>
      </trkpt>
      <trkpt lat="43.567868" lon="-8.232485">
        <ele>165.427</ele>
        <time>2016-09-22T10:29:17Z</time>
      </trkpt>
      <trkpt lat="43.567836" lon="-8.232607">
        <ele>165.468</ele>
        <time>2016-09-22T10:29:19Z</time>
      </trkpt>
      <trkpt lat="43.567681" lon="-8.233177">
        <ele>165.614</ele>
        <time>2016-09-22T10:29:27Z</time>
      </trkpt>
      <trkpt lat="43.567662" lon="-8.233247">
        <ele>165.608</ele>
        <time>2016-09-22T10:29:28Z</time>
      </trkpt>
      <trkpt lat="43.567489" lon="-8.233822">
        <ele>166.023</ele>
        <time>2016-09-22T10:29:36Z</time>
      </trkpt>
      <trkpt lat="43.567327" lon="-8.234247">
        <ele>166.677</ele>
        <time>2016-09-22T10:29:42Z</time>
      </trkpt>
      <trkpt lat="43.567274" lon="-8.234386">
        <ele>166.892</ele>
        <time>2016-09-22T10:29:44Z</time>
      </trkpt>
      <trkpt lat="43.567138" lon="-8.234800">
        <ele>167.650</ele>
        <time>2016-09-22T10:29:50Z</time>
      </trkpt>
      <trkpt lat="43.567114" lon="-8.234867">
        <ele>168.048</ele>
        <time>2016-09-22T10:29:51Z</time>
      </trkpt>
      <trkpt lat="43.566973" lon="-8.235153">
        <ele>168.838</ele>
        <time>2016-09-22T10:29:56Z</time>
      </trkpt>
      <trkpt lat="43.566947" lon="-8.235196">
        <ele>169.090</ele>
        <time>2016-09-22T10:29:57Z</time>
      </trkpt>
      <trkpt lat="43.566887" lon="-8.235295">
        <ele>169.222</ele>
        <time>2016-09-22T10:30:01Z</time>
      </trkpt>
      <trkpt lat="43.566886" lon="-8.235295">
        <ele>169.262</ele>
        <time>2016-09-22T10:30:02Z</time>
      </trkpt>
      <trkpt lat="43.566869" lon="-8.235317">
        <ele>167.883</ele>
        <time>2016-09-22T10:30:25Z</time>
      </trkpt>
      <trkpt lat="43.566838" lon="-8.235368">
        <ele>167.611</ele>
        <time>2016-09-22T10:30:27Z</time>
      </trkpt>
      <trkpt lat="43.566817" lon="-8.235402">
        <ele>167.408</ele>
        <time>2016-09-22T10:30:28Z</time>
      </trkpt>
      <trkpt lat="43.566709" lon="-8.235580">
        <ele>166.497</ele>
        <time>2016-09-22T10:30:32Z</time>
      </trkpt>
      <trkpt lat="43.566678" lon="-8.235628">
        <ele>166.231</ele>
        <time>2016-09-22T10:30:33Z</time>
      </trkpt>
      <trkpt lat="43.566506" lon="-8.235879">
        <ele>165.056</ele>
        <time>2016-09-22T10:30:38Z</time>
      </trkpt>
      <trkpt lat="43.566469" lon="-8.235931">
        <ele>164.824</ele>
        <time>2016-09-22T10:30:39Z</time>
      </trkpt>
      <trkpt lat="43.566236" lon="-8.236304">
        <ele>163.822</ele>
        <time>2016-09-22T10:30:46Z</time>
      </trkpt>
      <trkpt lat="43.566204" lon="-8.236359">
        <ele>163.682</ele>
        <time>2016-09-22T10:30:47Z</time>
      </trkpt>
      <trkpt lat="43.565950" lon="-8.236746">
        <ele>163.424</ele>
        <time>2016-09-22T10:30:54Z</time>
      </trkpt>
      <trkpt lat="43.565885" lon="-8.236882">
        <ele>163.056</ele>
        <time>2016-09-22T10:30:56Z</time>
      </trkpt>
      <trkpt lat="43.565805" lon="-8.237093">
        <ele>162.866</ele>
        <time>2016-09-22T10:30:59Z</time>
      </trkpt>
      <trkpt lat="43.565699" lon="-8.237436">
        <ele>162.829</ele>
        <time>2016-09-22T10:31:04Z</time>
      </trkpt>
      <trkpt lat="43.565693" lon="-8.237512">
        <ele>162.621</ele>
        <time>2016-09-22T10:31:05Z</time>
      </trkpt>
      <trkpt lat="43.565699" lon="-8.237664">
        <ele>162.608</ele>
        <time>2016-09-22T10:31:07Z</time>
      </trkpt>
      <trkpt lat="43.565717" lon="-8.237928">
        <ele>162.237</ele>
        <time>2016-09-22T10:31:10Z</time>
      </trkpt>
      <trkpt lat="43.565754" lon="-8.238405">
        <ele>162.251</ele>
        <time>2016-09-22T10:31:14Z</time>
      </trkpt>
      <trkpt lat="43.565760" lon="-8.238639">
        <ele>162.676</ele>
        <time>2016-09-22T10:31:16Z</time>
      </trkpt>
      <trkpt lat="43.565742" lon="-8.238752">
        <ele>162.624</ele>
        <time>2016-09-22T10:31:17Z</time>
      </trkpt>
      <trkpt lat="43.565580" lon="-8.239207">
        <ele>161.612</ele>
        <time>2016-09-22T10:31:21Z</time>
      </trkpt>
      <trkpt lat="43.565444" lon="-8.239546">
        <ele>161.442</ele>
        <time>2016-09-22T10:31:24Z</time>
      </trkpt>
      <trkpt lat="43.565402" lon="-8.239646">
        <ele>161.284</ele>
        <time>2016-09-22T10:31:25Z</time>
      </trkpt>
      <trkpt lat="43.565364" lon="-8.239751">
        <ele>161.446</ele>
        <time>2016-09-22T10:31:26Z</time>
      </trkpt>
      <trkpt lat="43.565326" lon="-8.239986">
        <ele>161.476</ele>
        <time>2016-09-22T10:31:28Z</time>
      </trkpt>
      <trkpt lat="43.565293" lon="-8.240626">
        <ele>161.290</ele>
        <time>2016-09-22T10:31:33Z</time>
      </trkpt>
      <trkpt lat="43.565267" lon="-8.240868">
        <ele>160.819</ele>
        <time>2016-09-22T10:31:35Z</time>
      </trkpt>
      <trkpt lat="43.565218" lon="-8.241110">
        <ele>161.208</ele>
        <time>2016-09-22T10:31:37Z</time>
      </trkpt>
      <trkpt lat="43.565155" lon="-8.241346">
        <ele>161.438</ele>
        <time>2016-09-22T10:31:39Z</time>
      </trkpt>
      <trkpt lat="43.565064" lon="-8.241554">
        <ele>161.432</ele>
        <time>2016-09-22T10:31:41Z</time>
      </trkpt>
      <trkpt lat="43.564811" lon="-8.241849">
        <ele>161.627</ele>
        <time>2016-09-22T10:31:45Z</time>
      </trkpt>
      <trkpt lat="43.564524" lon="-8.242013">
        <ele>162.695</ele>
        <time>2016-09-22T10:31:49Z</time>
      </trkpt>
      <trkpt lat="43.564453" lon="-8.242042">
        <ele>162.643</ele>
        <time>2016-09-22T10:31:50Z</time>
      </trkpt>
      <trkpt lat="43.564056" lon="-8.242139">
        <ele>163.633</ele>
        <time>2016-09-22T10:31:56Z</time>
      </trkpt>
      <trkpt lat="43.563993" lon="-8.242140">
        <ele>163.885</ele>
        <time>2016-09-22T10:31:57Z</time>
      </trkpt>
      <trkpt lat="43.563930" lon="-8.242132">
        <ele>163.897</ele>
        <time>2016-09-22T10:31:58Z</time>
      </trkpt>
      <trkpt lat="43.563807" lon="-8.242089">
        <ele>164.264</ele>
        <time>2016-09-22T10:32:00Z</time>
      </trkpt>
      <trkpt lat="43.563444" lon="-8.241878">
        <ele>165.006</ele>
        <time>2016-09-22T10:32:06Z</time>
      </trkpt>
      <trkpt lat="43.563325" lon="-8.241801">
        <ele>165.616</ele>
        <time>2016-09-22T10:32:08Z</time>
      </trkpt>
      <trkpt lat="43.563212" lon="-8.241732">
        <ele>166.008</ele>
        <time>2016-09-22T10:32:10Z</time>
      </trkpt>
      <trkpt lat="43.563108" lon="-8.241669">
        <ele>166.497</ele>
        <time>2016-09-22T10:32:12Z</time>
      </trkpt>
      <trkpt lat="43.563062" lon="-8.241653">
        <ele>166.681</ele>
        <time>2016-09-22T10:32:13Z</time>
      </trkpt>
      <trkpt lat="43.563021" lon="-8.241643">
        <ele>167.296</ele>
        <time>2016-09-22T10:32:14Z</time>
      </trkpt>
      <trkpt lat="43.562948" lon="-8.241632">
        <ele>167.834</ele>
        <time>2016-09-22T10:32:16Z</time>
      </trkpt>
      <trkpt lat="43.562848" lon="-8.241626">
        <ele>168.262</ele>
        <time>2016-09-22T10:32:19Z</time>
      </trkpt>
      <trkpt lat="43.562646" lon="-8.241638">
        <ele>169.462</ele>
        <time>2016-09-22T10:32:25Z</time>
      </trkpt>
      <trkpt lat="43.562563" lon="-8.241660">
        <ele>170.094</ele>
        <time>2016-09-22T10:32:28Z</time>
      </trkpt>
      <trkpt lat="43.562517" lon="-8.241701">
        <ele>170.446</ele>
        <time>2016-09-22T10:32:30Z</time>
      </trkpt>
      <trkpt lat="43.562483" lon="-8.241771">
        <ele>170.852</ele>
        <time>2016-09-22T10:32:32Z</time>
      </trkpt>
      <trkpt lat="43.562478" lon="-8.241817">
        <ele>170.853</ele>
        <time>2016-09-22T10:32:33Z</time>
      </trkpt>
      <trkpt lat="43.562494" lon="-8.241941">
        <ele>171.408</ele>
        <time>2016-09-22T10:32:36Z</time>
      </trkpt>
      <trkpt lat="43.562506" lon="-8.242018">
        <ele>171.608</ele>
        <time>2016-09-22T10:32:38Z</time>
      </trkpt>
      <trkpt lat="43.562516" lon="-8.242058">
        <ele>171.846</ele>
        <time>2016-09-22T10:32:39Z</time>
      </trkpt>
      <trkpt lat="43.562579" lon="-8.242251">
        <ele>172.230</ele>
        <time>2016-09-22T10:32:45Z</time>
      </trkpt>
      <trkpt lat="43.562595" lon="-8.242303">
        <ele>172.815</ele>
        <time>2016-09-22T10:32:48Z</time>
      </trkpt>
      <trkpt lat="43.562595" lon="-8.242315">
        <ele>172.823</ele>
        <time>2016-09-22T10:32:50Z</time>
      </trkpt>
      <trkpt lat="43.562594" lon="-8.242357">
        <ele>169.421</ele>
        <time>2016-09-22T10:33:17Z</time>
      </trkpt>
      <trkpt lat="43.562597" lon="-8.242451">
        <ele>168.891</ele>
        <time>2016-09-22T10:33:19Z</time>
      </trkpt>
      <trkpt lat="43.562611" lon="-8.242701">
        <ele>168.283</ele>
        <time>2016-09-22T10:33:22Z</time>
      </trkpt>
      <trkpt lat="43.562608" lon="-8.242942">
        <ele>167.275</ele>
        <time>2016-09-22T10:33:24Z</time>
      </trkpt>
      <trkpt lat="43.562614" lon="-8.243204">
        <ele>166.275</ele>
        <time>2016-09-22T10:33:26Z</time>
      </trkpt>
      <trkpt lat="43.562618" lon="-8.243336">
        <ele>166.028</ele>
        <time>2016-09-22T10:33:27Z</time>
      </trkpt>
      <trkpt lat="43.562648" lon="-8.244055">
        <ele>165.420</ele>
        <time>2016-09-22T10:33:32Z</time>
      </trkpt>
      <trkpt lat="43.562670" lon="-8.244510">
        <ele>164.808</ele>
        <time>2016-09-22T10:33:35Z</time>
      </trkpt>
      <trkpt lat="43.562692" lon="-8.245089">
        <ele>164.888</ele>
        <time>2016-09-22T10:33:39Z</time>
      </trkpt>
      <trkpt lat="43.562667" lon="-8.245587">
        <ele>164.842</ele>
        <time>2016-09-22T10:33:43Z</time>
      </trkpt>
      <trkpt lat="43.562640" lon="-8.245708">
        <ele>165.077</ele>
        <time>2016-09-22T10:33:44Z</time>
      </trkpt>
      <trkpt lat="43.562472" lon="-8.246211">
        <ele>164.495</ele>
        <time>2016-09-22T10:33:48Z</time>
      </trkpt>
      <trkpt lat="43.562243" lon="-8.246907">
        <ele>164.283</ele>
        <time>2016-09-22T10:33:53Z</time>
      </trkpt>
      <trkpt lat="43.562200" lon="-8.247032">
        <ele>164.693</ele>
        <time>2016-09-22T10:33:54Z</time>
      </trkpt>
      <trkpt lat="43.562117" lon="-8.247269">
        <ele>164.215</ele>
        <time>2016-09-22T10:33:56Z</time>
      </trkpt>
      <trkpt lat="43.562081" lon="-8.247483">
        <ele>164.017</ele>
        <time>2016-09-22T10:33:58Z</time>
      </trkpt>
      <trkpt lat="43.562072" lon="-8.247836">
        <ele>163.485</ele>
        <time>2016-09-22T10:34:02Z</time>
      </trkpt>
      <trkpt lat="43.562069" lon="-8.247903">
        <ele>163.289</ele>
        <time>2016-09-22T10:34:03Z</time>
      </trkpt>
      <trkpt lat="43.562050" lon="-8.248074">
        <ele>163.417</ele>
        <time>2016-09-22T10:34:06Z</time>
      </trkpt>
      <trkpt lat="43.562034" lon="-8.248376">
        <ele>163.208</ele>
        <time>2016-09-22T10:34:10Z</time>
      </trkpt>
      <trkpt lat="43.562015" lon="-8.248812">
        <ele>162.629</ele>
        <time>2016-09-22T10:34:14Z</time>
      </trkpt>
      <trkpt lat="43.561945" lon="-8.249276">
        <ele>162.093</ele>
        <time>2016-09-22T10:34:18Z</time>
      </trkpt>
      <trkpt lat="43.561842" lon="-8.249583">
        <ele>162.288</ele>
        <time>2016-09-22T10:34:22Z</time>
      </trkpt>
      <trkpt lat="43.561814" lon="-8.249638">
        <ele>161.816</ele>
        <time>2016-09-22T10:34:23Z</time>
      </trkpt>
      <trkpt lat="43.561727" lon="-8.249776">
        <ele>160.814</ele>
        <time>2016-09-22T10:34:27Z</time>
      </trkpt>
      <trkpt lat="43.561713" lon="-8.249792">
        <ele>160.444</ele>
        <time>2016-09-22T10:34:30Z</time>
      </trkpt>
      <trkpt lat="43.561680" lon="-8.249790">
        <ele>136.496</ele>
        <time>2016-09-22T10:35:34Z</time>
      </trkpt>
      <trkpt lat="43.561613" lon="-8.249804">
        <ele>135.488</ele>
        <time>2016-09-22T10:35:36Z</time>
      </trkpt>
      <trkpt lat="43.561572" lon="-8.249790">
        <ele>135.265</ele>
        <time>2016-09-22T10:35:37Z</time>
      </trkpt>
      <trkpt lat="43.561526" lon="-8.249767">
        <ele>134.868</ele>
        <time>2016-09-22T10:35:38Z</time>
      </trkpt>
      <trkpt lat="43.561418" lon="-8.249706">
        <ele>134.414</ele>
        <time>2016-09-22T10:35:40Z</time>
      </trkpt>
      <trkpt lat="43.561305" lon="-8.249586">
        <ele>132.608</ele>
        <time>2016-09-22T10:35:42Z</time>
      </trkpt>
      <trkpt lat="43.561252" lon="-8.249509">
        <ele>131.497</ele>
        <time>2016-09-22T10:35:43Z</time>
      </trkpt>
      <trkpt lat="43.561161" lon="-8.249331">
        <ele>130.411</ele>
        <time>2016-09-22T10:35:45Z</time>
      </trkpt>
      <trkpt lat="43.561122" lon="-8.249236">
        <ele>130.016</ele>
        <time>2016-09-22T10:35:46Z</time>
      </trkpt>
      <trkpt lat="43.561010" lon="-8.248950">
        <ele>129.034</ele>
        <time>2016-09-22T10:35:49Z</time>
      </trkpt>
      <trkpt lat="43.560975" lon="-8.248873">
        <ele>128.842</ele>
        <time>2016-09-22T10:35:50Z</time>
      </trkpt>
      <trkpt lat="43.560937" lon="-8.248813">
        <ele>128.262</ele>
        <time>2016-09-22T10:35:51Z</time>
      </trkpt>
      <trkpt lat="43.560897" lon="-8.248773">
        <ele>128.084</ele>
        <time>2016-09-22T10:35:52Z</time>
      </trkpt>
      <trkpt lat="43.560828" lon="-8.248771">
        <ele>127.846</ele>
        <time>2016-09-22T10:35:54Z</time>
      </trkpt>
      <trkpt lat="43.560762" lon="-8.248903">
        <ele>127.076</ele>
        <time>2016-09-22T10:35:57Z</time>
      </trkpt>
      <trkpt lat="43.560744" lon="-8.248947">
        <ele>127.090</ele>
        <time>2016-09-22T10:35:58Z</time>
      </trkpt>
      <trkpt lat="43.560676" lon="-8.249115">
        <ele>126.619</ele>
        <time>2016-09-22T10:36:03Z</time>
      </trkpt>
      <trkpt lat="43.560606" lon="-8.249294">
        <ele>126.408</ele>
        <time>2016-09-22T10:36:10Z</time>
      </trkpt>
      <trkpt lat="43.560546" lon="-8.249478">
        <ele>125.898</ele>
        <time>2016-09-22T10:36:17Z</time>
      </trkpt>
      <trkpt lat="43.560514" lon="-8.249582">
        <ele>124.682</ele>
        <time>2016-09-22T10:36:21Z</time>
      </trkpt>
      <trkpt lat="43.560481" lon="-8.249716">
        <ele>123.857</ele>
        <time>2016-09-22T10:36:26Z</time>
      </trkpt>
      <trkpt lat="43.560468" lon="-8.249771">
        <ele>123.635</ele>
        <time>2016-09-22T10:36:28Z</time>
      </trkpt>
      <trkpt lat="43.560434" lon="-8.249981">
        <ele>122.853</ele>
        <time>2016-09-22T10:36:35Z</time>
      </trkpt>
      <trkpt lat="43.560421" lon="-8.250075">
        <ele>122.473</ele>
        <time>2016-09-22T10:36:38Z</time>
      </trkpt>
      <trkpt lat="43.560413" lon="-8.250138">
        <ele>122.075</ele>
        <time>2016-09-22T10:36:40Z</time>
      </trkpt>
      <trkpt lat="43.560394" lon="-8.250291">
        <ele>121.077</ele>
        <time>2016-09-22T10:36:45Z</time>
      </trkpt>
      <trkpt lat="43.560384" lon="-8.250354">
        <ele>120.888</ele>
        <time>2016-09-22T10:36:47Z</time>
      </trkpt>
      <trkpt lat="43.560347" lon="-8.250561">
        <ele>120.224</ele>
        <time>2016-09-22T10:36:54Z</time>
      </trkpt>
      <trkpt lat="43.560344" lon="-8.250593">
        <ele>120.226</ele>
        <time>2016-09-22T10:36:55Z</time>
      </trkpt>
      <trkpt lat="43.560334" lon="-8.250851">
        <ele>119.808</ele>
        <time>2016-09-22T10:37:03Z</time>
      </trkpt>
      <trkpt lat="43.560338" lon="-8.250952">
        <ele>119.299</ele>
        <time>2016-09-22T10:37:06Z</time>
      </trkpt>
      <trkpt lat="43.560345" lon="-8.251124">
        <ele>118.423</ele>
        <time>2016-09-22T10:37:11Z</time>
      </trkpt>
      <trkpt lat="43.560343" lon="-8.251157">
        <ele>118.238</ele>
        <time>2016-09-22T10:37:12Z</time>
      </trkpt>
      <trkpt lat="43.560303" lon="-8.251401">
        <ele>117.496</ele>
        <time>2016-09-22T10:37:19Z</time>
      </trkpt>
      <trkpt lat="43.560286" lon="-8.251473">
        <ele>117.234</ele>
        <time>2016-09-22T10:37:21Z</time>
      </trkpt>
      <trkpt lat="43.560214" lon="-8.251777">
        <ele>116.414</ele>
        <time>2016-09-22T10:37:30Z</time>
      </trkpt>
      <trkpt lat="43.560205" lon="-8.251810">
        <ele>116.436</ele>
        <time>2016-09-22T10:37:31Z</time>
      </trkpt>
      <trkpt lat="43.560107" lon="-8.252162">
        <ele>115.678</ele>
        <time>2016-09-22T10:37:41Z</time>
      </trkpt>
      <trkpt lat="43.560096" lon="-8.252197">
        <ele>115.474</ele>
        <time>2016-09-22T10:37:42Z</time>
      </trkpt>
      <trkpt lat="43.559971" lon="-8.252442">
        <ele>114.856</ele>
        <time>2016-09-22T10:37:50Z</time>
      </trkpt>
      <trkpt lat="43.559953" lon="-8.252467">
        <ele>114.621</ele>
        <time>2016-09-22T10:37:51Z</time>
      </trkpt>
      <trkpt lat="43.559790" lon="-8.252684">
        <ele>114.208</ele>
        <time>2016-09-22T10:38:00Z</time>
      </trkpt>
      <trkpt lat="43.559707" lon="-8.252819">
        <ele>113.688</ele>
        <time>2016-09-22T10:38:05Z</time>
      </trkpt>
      <trkpt lat="43.559644" lon="-8.252931">
        <ele>113.012</ele>
        <time>2016-09-22T10:38:09Z</time>
      </trkpt>
      <trkpt lat="43.559592" lon="-8.253014">
        <ele>112.897</ele>
        <time>2016-09-22T10:38:12Z</time>
      </trkpt>
      <trkpt lat="43.559471" lon="-8.253206">
        <ele>112.255</ele>
        <time>2016-09-22T10:38:18Z</time>
      </trkpt>
      <trkpt lat="43.559323" lon="-8.253420">
        <ele>111.633</ele>
        <time>2016-09-22T10:38:24Z</time>
      </trkpt>
      <trkpt lat="43.559298" lon="-8.253457">
        <ele>111.693</ele>
        <time>2016-09-22T10:38:25Z</time>
      </trkpt>
      <trkpt lat="43.559223" lon="-8.253587">
        <ele>111.485</ele>
        <time>2016-09-22T10:38:28Z</time>
      </trkpt>
      <trkpt lat="43.559156" lon="-8.253685">
        <ele>111.217</ele>
        <time>2016-09-22T10:38:30Z</time>
      </trkpt>
      <trkpt lat="43.559119" lon="-8.253740">
        <ele>111.286</ele>
        <time>2016-09-22T10:38:31Z</time>
      </trkpt>
      <trkpt lat="43.558841" lon="-8.254101">
        <ele>110.460</ele>
        <time>2016-09-22T10:38:37Z</time>
      </trkpt>
      <trkpt lat="43.558779" lon="-8.254158">
        <ele>110.426</ele>
        <time>2016-09-22T10:38:38Z</time>
      </trkpt>
      <trkpt lat="43.558635" lon="-8.254247">
        <ele>109.808</ele>
        <time>2016-09-22T10:38:40Z</time>
      </trkpt>
      <trkpt lat="43.558305" lon="-8.254333">
        <ele>109.819</ele>
        <time>2016-09-22T10:38:44Z</time>
      </trkpt>
      <trkpt lat="43.558148" lon="-8.254419">
        <ele>109.693</ele>
        <time>2016-09-22T10:38:46Z</time>
      </trkpt>
      <trkpt lat="43.558009" lon="-8.254507">
        <ele>109.698</ele>
        <time>2016-09-22T10:38:48Z</time>
      </trkpt>
      <trkpt lat="43.557877" lon="-8.254555">
        <ele>109.696</ele>
        <time>2016-09-22T10:38:50Z</time>
      </trkpt>
      <trkpt lat="43.557809" lon="-8.254549">
        <ele>109.814</ele>
        <time>2016-09-22T10:38:51Z</time>
      </trkpt>
      <trkpt lat="43.557617" lon="-8.254467">
        <ele>110.214</ele>
        <time>2016-09-22T10:38:54Z</time>
      </trkpt>
      <trkpt lat="43.557559" lon="-8.254433">
        <ele>110.216</ele>
        <time>2016-09-22T10:38:55Z</time>
      </trkpt>
      <trkpt lat="43.557507" lon="-8.254395">
        <ele>110.498</ele>
        <time>2016-09-22T10:38:56Z</time>
      </trkpt>
      <trkpt lat="43.557300" lon="-8.254216">
        <ele>111.423</ele>
        <time>2016-09-22T10:39:00Z</time>
      </trkpt>
      <trkpt lat="43.557249" lon="-8.254185">
        <ele>111.483</ele>
        <time>2016-09-22T10:39:01Z</time>
      </trkpt>
      <trkpt lat="43.557149" lon="-8.254175">
        <ele>112.011</ele>
        <time>2016-09-22T10:39:03Z</time>
      </trkpt>
      <trkpt lat="43.557076" lon="-8.254285">
        <ele>113.208</ele>
        <time>2016-09-22T10:39:06Z</time>
      </trkpt>
      <trkpt lat="43.557070" lon="-8.254343">
        <ele>113.423</ele>
        <time>2016-09-22T10:39:07Z</time>
      </trkpt>
      <trkpt lat="43.557066" lon="-8.254472">
        <ele>113.677</ele>
        <time>2016-09-22T10:39:09Z</time>
      </trkpt>
      <trkpt lat="43.557075" lon="-8.254538">
        <ele>113.622</ele>
        <time>2016-09-22T10:39:10Z</time>
      </trkpt>
      <trkpt lat="43.557100" lon="-8.254677">
        <ele>113.850</ele>
        <time>2016-09-22T10:39:12Z</time>
      </trkpt>
      <trkpt lat="43.557147" lon="-8.254867">
        <ele>114.038</ele>
        <time>2016-09-22T10:39:15Z</time>
      </trkpt>
      <trkpt lat="43.557162" lon="-8.254941">
        <ele>114.278</ele>
        <time>2016-09-22T10:39:17Z</time>
      </trkpt>
      <trkpt lat="43.557170" lon="-8.254972">
        <ele>114.680</ele>
        <time>2016-09-22T10:39:19Z</time>
      </trkpt>
      <trkpt lat="43.557228" lon="-8.255103">
        <ele>115.462</ele>
        <time>2016-09-22T10:39:24Z</time>
      </trkpt>
      <trkpt lat="43.557248" lon="-8.255161">
        <ele>115.494</ele>
        <time>2016-09-22T10:39:25Z</time>
      </trkpt>
      <trkpt lat="43.557353" lon="-8.255489">
        <ele>115.857</ele>
        <time>2016-09-22T10:39:30Z</time>
      </trkpt>
      <trkpt lat="43.557518" lon="-8.255953">
        <ele>115.822</ele>
        <time>2016-09-22T10:39:37Z</time>
      </trkpt>
      <trkpt lat="43.557564" lon="-8.256079">
        <ele>116.208</ele>
        <time>2016-09-22T10:39:39Z</time>
      </trkpt>
      <trkpt lat="43.557648" lon="-8.256414">
        <ele>116.010</ele>
        <time>2016-09-22T10:39:44Z</time>
      </trkpt>
      <trkpt lat="43.557632" lon="-8.256703">
        <ele>115.694</ele>
        <time>2016-09-22T10:39:48Z</time>
      </trkpt>
      <trkpt lat="43.557490" lon="-8.257029">
        <ele>115.639</ele>
        <time>2016-09-22T10:39:53Z</time>
      </trkpt>
      <trkpt lat="43.557455" lon="-8.257081">
        <ele>115.697</ele>
        <time>2016-09-22T10:39:54Z</time>
      </trkpt>
      <trkpt lat="43.557293" lon="-8.257324">
        <ele>116.095</ele>
        <time>2016-09-22T10:39:59Z</time>
      </trkpt>
      <trkpt lat="43.557276" lon="-8.257378">
        <ele>116.045</ele>
        <time>2016-09-22T10:40:00Z</time>
      </trkpt>
      <trkpt lat="43.557304" lon="-8.257564">
        <ele>115.827</ele>
        <time>2016-09-22T10:40:03Z</time>
      </trkpt>
      <trkpt lat="43.557330" lon="-8.257629">
        <ele>115.819</ele>
        <time>2016-09-22T10:40:04Z</time>
      </trkpt>
      <trkpt lat="43.557371" lon="-8.257775">
        <ele>115.677</ele>
        <time>2016-09-22T10:40:06Z</time>
      </trkpt>
      <trkpt lat="43.557369" lon="-8.257859">
        <ele>115.861</ele>
        <time>2016-09-22T10:40:07Z</time>
      </trkpt>
      <trkpt lat="43.557330" lon="-8.258025">
        <ele>115.227</ele>
        <time>2016-09-22T10:40:09Z</time>
      </trkpt>
      <trkpt lat="43.557301" lon="-8.258105">
        <ele>115.208</ele>
        <time>2016-09-22T10:40:10Z</time>
      </trkpt>
      <trkpt lat="43.557265" lon="-8.258184">
        <ele>115.228</ele>
        <time>2016-09-22T10:40:11Z</time>
      </trkpt>
      <trkpt lat="43.557128" lon="-8.258413">
        <ele>114.822</ele>
        <time>2016-09-22T10:40:14Z</time>
      </trkpt>
      <trkpt lat="43.557042" lon="-8.258609">
        <ele>114.427</ele>
        <time>2016-09-22T10:40:16Z</time>
      </trkpt>
      <trkpt lat="43.556903" lon="-8.258928">
        <ele>114.055</ele>
        <time>2016-09-22T10:40:19Z</time>
      </trkpt>
      <trkpt lat="43.556682" lon="-8.259422">
        <ele>114.033</ele>
        <time>2016-09-22T10:40:24Z</time>
      </trkpt>
      <trkpt lat="43.556482" lon="-8.259939">
        <ele>113.473</ele>
        <time>2016-09-22T10:40:29Z</time>
      </trkpt>
      <trkpt lat="43.556266" lon="-8.260360">
        <ele>112.445</ele>
        <time>2016-09-22T10:40:33Z</time>
      </trkpt>
      <trkpt lat="43.556203" lon="-8.260465">
        <ele>112.247</ele>
        <time>2016-09-22T10:40:34Z</time>
      </trkpt>
      <trkpt lat="43.556062" lon="-8.260647">
        <ele>112.472</ele>
        <time>2016-09-22T10:40:36Z</time>
      </trkpt>
      <trkpt lat="43.555912" lon="-8.260792">
        <ele>113.213</ele>
        <time>2016-09-22T10:40:38Z</time>
      </trkpt>
      <trkpt lat="43.555842" lon="-8.260856">
        <ele>113.614</ele>
        <time>2016-09-22T10:40:39Z</time>
      </trkpt>
      <trkpt lat="43.555664" lon="-8.261007">
        <ele>113.608</ele>
        <time>2016-09-22T10:40:42Z</time>
      </trkpt>
      <trkpt lat="43.555513" lon="-8.261124">
        <ele>113.678</ele>
        <time>2016-09-22T10:40:46Z</time>
      </trkpt>
      <trkpt lat="43.555334" lon="-8.261230">
        <ele>114.022</ele>
        <time>2016-09-22T10:40:51Z</time>
      </trkpt>
      <trkpt lat="43.555167" lon="-8.261354">
        <ele>114.037</ele>
        <time>2016-09-22T10:40:56Z</time>
      </trkpt>
      <trkpt lat="43.555156" lon="-8.261375">
        <ele>114.255</ele>
        <time>2016-09-22T10:40:57Z</time>
      </trkpt>
      <trkpt lat="43.555158" lon="-8.261414">
        <ele>114.473</ele>
        <time>2016-09-22T10:40:59Z</time>
      </trkpt>
      <trkpt lat="43.555201" lon="-8.261537">
        <ele>115.213</ele>
        <time>2016-09-22T10:41:03Z</time>
      </trkpt>
      <trkpt lat="43.555242" lon="-8.261599">
        <ele>115.485</ele>
        <time>2016-09-22T10:41:05Z</time>
      </trkpt>
      <trkpt lat="43.555265" lon="-8.261640">
        <ele>115.457</ele>
        <time>2016-09-22T10:41:06Z</time>
      </trkpt>
      <trkpt lat="43.555289" lon="-8.261685">
        <ele>115.259</ele>
        <time>2016-09-22T10:41:07Z</time>
      </trkpt>
      <trkpt lat="43.555356" lon="-8.261837">
        <ele>115.003</ele>
        <time>2016-09-22T10:41:10Z</time>
      </trkpt>
      <trkpt lat="43.555417" lon="-8.261944">
        <ele>115.223</ele>
        <time>2016-09-22T10:41:12Z</time>
      </trkpt>
      <trkpt lat="43.555487" lon="-8.262057">
        <ele>115.408</ele>
        <time>2016-09-22T10:41:14Z</time>
      </trkpt>
      <trkpt lat="43.555548" lon="-8.262170">
        <ele>115.226</ele>
        <time>2016-09-22T10:41:16Z</time>
      </trkpt>
      <trkpt lat="43.555570" lon="-8.262399">
        <ele>115.230</ele>
        <time>2016-09-22T10:41:19Z</time>
      </trkpt>
      <trkpt lat="43.555547" lon="-8.262567">
        <ele>115.235</ele>
        <time>2016-09-22T10:41:21Z</time>
      </trkpt>
      <trkpt lat="43.555490" lon="-8.262884">
        <ele>115.863</ele>
        <time>2016-09-22T10:41:25Z</time>
      </trkpt>
      <trkpt lat="43.555472" lon="-8.262955">
        <ele>116.081</ele>
        <time>2016-09-22T10:41:26Z</time>
      </trkpt>
      <trkpt lat="43.555396" lon="-8.263122">
        <ele>115.451</ele>
        <time>2016-09-22T10:41:29Z</time>
      </trkpt>
      <trkpt lat="43.555368" lon="-8.263158">
        <ele>115.443</ele>
        <time>2016-09-22T10:41:30Z</time>
      </trkpt>
      <trkpt lat="43.555237" lon="-8.263319">
        <ele>115.475</ele>
        <time>2016-09-22T10:41:35Z</time>
      </trkpt>
      <trkpt lat="43.555200" lon="-8.263441">
        <ele>114.466</ele>
        <time>2016-09-22T10:41:38Z</time>
      </trkpt>
      <trkpt lat="43.555187" lon="-8.263530">
        <ele>114.229</ele>
        <time>2016-09-22T10:41:40Z</time>
      </trkpt>
      <trkpt lat="43.555157" lon="-8.263728">
        <ele>113.821</ele>
        <time>2016-09-22T10:41:44Z</time>
      </trkpt>
      <trkpt lat="43.555145" lon="-8.263828">
        <ele>113.408</ele>
        <time>2016-09-22T10:41:46Z</time>
      </trkpt>
      <trkpt lat="43.555087" lon="-8.264000">
        <ele>112.677</ele>
        <time>2016-09-22T10:41:50Z</time>
      </trkpt>
      <trkpt lat="43.555073" lon="-8.264045">
        <ele>112.031</ele>
        <time>2016-09-22T10:41:51Z</time>
      </trkpt>
      <trkpt lat="43.555058" lon="-8.264091">
        <ele>111.856</ele>
        <time>2016-09-22T10:41:52Z</time>
      </trkpt>
      <trkpt lat="43.554945" lon="-8.264290">
        <ele>111.494</ele>
        <time>2016-09-22T10:41:57Z</time>
      </trkpt>
      <trkpt lat="43.554887" lon="-8.264356">
        <ele>111.042</ele>
        <time>2016-09-22T10:41:59Z</time>
      </trkpt>
      <trkpt lat="43.554799" lon="-8.264464">
        <ele>109.852</ele>
        <time>2016-09-22T10:42:02Z</time>
      </trkpt>
      <trkpt lat="43.554744" lon="-8.264546">
        <ele>108.654</ele>
        <time>2016-09-22T10:42:04Z</time>
      </trkpt>
      <trkpt lat="43.554675" lon="-8.264647">
        <ele>107.286</ele>
        <time>2016-09-22T10:42:07Z</time>
      </trkpt>
      <trkpt lat="43.554657" lon="-8.264671">
        <ele>106.833</ele>
        <time>2016-09-22T10:42:08Z</time>
      </trkpt>
      <trkpt lat="43.554622" lon="-8.264731">
        <ele>106.423</ele>
        <time>2016-09-22T10:42:10Z</time>
      </trkpt>
      <trkpt lat="43.554583" lon="-8.264865">
        <ele>105.015</ele>
        <time>2016-09-22T10:42:13Z</time>
      </trkpt>
      <trkpt lat="43.554557" lon="-8.264968">
        <ele>104.008</ele>
        <time>2016-09-22T10:42:15Z</time>
      </trkpt>
      <trkpt lat="43.554524" lon="-8.265059">
        <ele>103.054</ele>
        <time>2016-09-22T10:42:17Z</time>
      </trkpt>
      <trkpt lat="43.554487" lon="-8.265136">
        <ele>102.438</ele>
        <time>2016-09-22T10:42:19Z</time>
      </trkpt>
      <trkpt lat="43.554452" lon="-8.265201">
        <ele>102.093</ele>
        <time>2016-09-22T10:42:21Z</time>
      </trkpt>
      <trkpt lat="43.554402" lon="-8.265297">
        <ele>100.691</ele>
        <time>2016-09-22T10:42:24Z</time>
      </trkpt>
      <trkpt lat="43.554370" lon="-8.265372">
        <ele>99.819</ele>
        <time>2016-09-22T10:42:26Z</time>
      </trkpt>
      <trkpt lat="43.554351" lon="-8.265472">
        <ele>98.479</ele>
        <time>2016-09-22T10:42:29Z</time>
      </trkpt>
      <trkpt lat="43.554357" lon="-8.265512">
        <ele>97.691</ele>
        <time>2016-09-22T10:42:31Z</time>
      </trkpt>
      <trkpt lat="43.554358" lon="-8.265517">
        <ele>96.693</ele>
        <time>2016-09-22T10:42:33Z</time>
      </trkpt>
      <trkpt lat="43.554331" lon="-8.265529">
        <ele>58.624</ele>
        <time>2016-09-22T10:43:50Z</time>
      </trkpt>
      <trkpt lat="43.554315" lon="-8.265538">
        <ele>58.204</ele>
        <time>2016-09-22T10:43:51Z</time>
      </trkpt>
      <trkpt lat="43.554244" lon="-8.265578">
        <ele>57.414</ele>
        <time>2016-09-22T10:43:54Z</time>
      </trkpt>
      <trkpt lat="43.554180" lon="-8.265578">
        <ele>56.608</ele>
        <time>2016-09-22T10:43:56Z</time>
      </trkpt>
      <trkpt lat="43.554147" lon="-8.265562">
        <ele>56.223</ele>
        <time>2016-09-22T10:43:57Z</time>
      </trkpt>
      <trkpt lat="43.554053" lon="-8.265480">
        <ele>54.837</ele>
        <time>2016-09-22T10:44:00Z</time>
      </trkpt>
      <trkpt lat="43.554023" lon="-8.265446">
        <ele>54.622</ele>
        <time>2016-09-22T10:44:01Z</time>
      </trkpt>
      <trkpt lat="43.553933" lon="-8.265350">
        <ele>53.670</ele>
        <time>2016-09-22T10:44:04Z</time>
      </trkpt>
      <trkpt lat="43.553830" lon="-8.265245">
        <ele>52.898</ele>
        <time>2016-09-22T10:44:08Z</time>
      </trkpt>
      <trkpt lat="43.553806" lon="-8.265216">
        <ele>52.658</ele>
        <time>2016-09-22T10:44:09Z</time>
      </trkpt>
      <trkpt lat="43.553675" lon="-8.265103">
        <ele>51.610</ele>
        <time>2016-09-22T10:44:14Z</time>
      </trkpt>
      <trkpt lat="43.553446" lon="-8.265046">
        <ele>50.612</ele>
        <time>2016-09-22T10:44:21Z</time>
      </trkpt>
      <trkpt lat="43.553412" lon="-8.265043">
        <ele>50.483</ele>
        <time>2016-09-22T10:44:22Z</time>
      </trkpt>
      <trkpt lat="43.553263" lon="-8.265019">
        <ele>49.625</ele>
        <time>2016-09-22T10:44:28Z</time>
      </trkpt>
      <trkpt lat="43.553089" lon="-8.264993">
        <ele>48.617</ele>
        <time>2016-09-22T10:44:36Z</time>
      </trkpt>
      <trkpt lat="43.553063" lon="-8.264990">
        <ele>48.608</ele>
        <time>2016-09-22T10:44:37Z</time>
      </trkpt>
      <trkpt lat="43.552884" lon="-8.265041">
        <ele>47.429</ele>
        <time>2016-09-22T10:44:44Z</time>
      </trkpt>
      <trkpt lat="43.552720" lon="-8.265132">
        <ele>46.663</ele>
        <time>2016-09-22T10:44:50Z</time>
      </trkpt>
      <trkpt lat="43.552610" lon="-8.265274">
        <ele>46.258</ele>
        <time>2016-09-22T10:44:55Z</time>
      </trkpt>
      <trkpt lat="43.552572" lon="-8.265345">
        <ele>46.036</ele>
        <time>2016-09-22T10:44:57Z</time>
      </trkpt>
      <trkpt lat="43.552410" lon="-8.265492">
        <ele>45.254</ele>
        <time>2016-09-22T10:45:03Z</time>
      </trkpt>
      <trkpt lat="43.552193" lon="-8.265541">
        <ele>44.484</ele>
        <time>2016-09-22T10:45:09Z</time>
      </trkpt>
      <trkpt lat="43.552088" lon="-8.265515">
        <ele>44.226</ele>
        <time>2016-09-22T10:45:12Z</time>
      </trkpt>
      <trkpt lat="43.552027" lon="-8.265478">
        <ele>44.218</ele>
        <time>2016-09-22T10:45:14Z</time>
      </trkpt>
      <trkpt lat="43.551854" lon="-8.265316">
        <ele>44.055</ele>
        <time>2016-09-22T10:45:21Z</time>
      </trkpt>
      <trkpt lat="43.551668" lon="-8.265185">
        <ele>44.207</ele>
        <time>2016-09-22T10:45:28Z</time>
      </trkpt>
      <trkpt lat="43.551502" lon="-8.265109">
        <ele>44.417</ele>
        <time>2016-09-22T10:45:34Z</time>
      </trkpt>
      <trkpt lat="43.551339" lon="-8.265136">
        <ele>44.408</ele>
        <time>2016-09-22T10:45:39Z</time>
      </trkpt>
      <trkpt lat="43.551255" lon="-8.265182">
        <ele>44.686</ele>
        <time>2016-09-22T10:45:41Z</time>
      </trkpt>
      <trkpt lat="43.551118" lon="-8.265274">
        <ele>44.470</ele>
        <time>2016-09-22T10:45:44Z</time>
      </trkpt>
      <trkpt lat="43.550963" lon="-8.265325">
        <ele>44.625</ele>
        <time>2016-09-22T10:45:47Z</time>
      </trkpt>
      <trkpt lat="43.550824" lon="-8.265401">
        <ele>44.813</ele>
        <time>2016-09-22T10:45:50Z</time>
      </trkpt>
      <trkpt lat="43.550486" lon="-8.265609">
        <ele>44.881</ele>
        <time>2016-09-22T10:45:58Z</time>
      </trkpt>
      <trkpt lat="43.550445" lon="-8.265627">
        <ele>45.041</ele>
        <time>2016-09-22T10:45:59Z</time>
      </trkpt>
      <trkpt lat="43.550407" lon="-8.265649">
        <ele>45.073</ele>
        <time>2016-09-22T10:46:00Z</time>
      </trkpt>
      <trkpt lat="43.550368" lon="-8.265670">
        <ele>45.285</ele>
        <time>2016-09-22T10:46:01Z</time>
      </trkpt>
      <trkpt lat="43.550214" lon="-8.265757">
        <ele>45.667</ele>
        <time>2016-09-22T10:46:05Z</time>
      </trkpt>
      <trkpt lat="43.550011" lon="-8.265864">
        <ele>46.281</ele>
        <time>2016-09-22T10:46:10Z</time>
      </trkpt>
      <trkpt lat="43.549932" lon="-8.265913">
        <ele>46.619</ele>
        <time>2016-09-22T10:46:12Z</time>
      </trkpt>
      <trkpt lat="43.549766" lon="-8.266007">
        <ele>47.408</ele>
        <time>2016-09-22T10:46:16Z</time>
      </trkpt>
      <trkpt lat="43.549599" lon="-8.266108">
        <ele>47.637</ele>
        <time>2016-09-22T10:46:20Z</time>
      </trkpt>
      <trkpt lat="43.549389" lon="-8.266202">
        <ele>48.651</ele>
        <time>2016-09-22T10:46:25Z</time>
      </trkpt>
      <trkpt lat="43.549353" lon="-8.266223">
        <ele>48.816</ele>
        <time>2016-09-22T10:46:26Z</time>
      </trkpt>
      <trkpt lat="43.549161" lon="-8.266347">
        <ele>49.614</ele>
        <time>2016-09-22T10:46:31Z</time>
      </trkpt>
      <trkpt lat="43.549081" lon="-8.266395">
        <ele>50.452</ele>
        <time>2016-09-22T10:46:33Z</time>
      </trkpt>
      <trkpt lat="43.549000" lon="-8.266447">
        <ele>50.812</ele>
        <time>2016-09-22T10:46:35Z</time>
      </trkpt>
      <trkpt lat="43.548840" lon="-8.266546">
        <ele>50.894</ele>
        <time>2016-09-22T10:46:39Z</time>
      </trkpt>
      <trkpt lat="43.548591" lon="-8.266677">
        <ele>51.856</ele>
        <time>2016-09-22T10:46:45Z</time>
      </trkpt>
      <trkpt lat="43.548549" lon="-8.266696">
        <ele>52.098</ele>
        <time>2016-09-22T10:46:46Z</time>
      </trkpt>
      <trkpt lat="43.548343" lon="-8.266795">
        <ele>52.815</ele>
        <time>2016-09-22T10:46:51Z</time>
      </trkpt>
      <trkpt lat="43.548262" lon="-8.266833">
        <ele>53.426</ele>
        <time>2016-09-22T10:46:53Z</time>
      </trkpt>
      <trkpt lat="43.548183" lon="-8.266876">
        <ele>54.008</ele>
        <time>2016-09-22T10:46:55Z</time>
      </trkpt>
      <trkpt lat="43.548108" lon="-8.266969">
        <ele>54.820</ele>
        <time>2016-09-22T10:46:58Z</time>
      </trkpt>
      <trkpt lat="43.548082" lon="-8.267035">
        <ele>55.094</ele>
        <time>2016-09-22T10:47:00Z</time>
      </trkpt>
      <trkpt lat="43.548077" lon="-8.267072">
        <ele>55.269</ele>
        <time>2016-09-22T10:47:01Z</time>
      </trkpt>
      <trkpt lat="43.548103" lon="-8.267171">
        <ele>55.657</ele>
        <time>2016-09-22T10:47:03Z</time>
      </trkpt>
      <trkpt lat="43.548156" lon="-8.267313">
        <ele>56.015</ele>
        <time>2016-09-22T10:47:05Z</time>
      </trkpt>
      <trkpt lat="43.548188" lon="-8.267403">
        <ele>56.015</ele>
        <time>2016-09-22T10:47:06Z</time>
      </trkpt>
      <trkpt lat="43.548342" lon="-8.267851">
        <ele>56.247</ele>
        <time>2016-09-22T10:47:10Z</time>
      </trkpt>
      <trkpt lat="43.548559" lon="-8.268532">
        <ele>56.699</ele>
        <time>2016-09-22T10:47:15Z</time>
      </trkpt>
      <trkpt lat="43.548817" lon="-8.269273">
        <ele>56.679</ele>
        <time>2016-09-22T10:47:20Z</time>
      </trkpt>
      <trkpt lat="43.548918" lon="-8.269568">
        <ele>57.005</ele>
        <time>2016-09-22T10:47:22Z</time>
      </trkpt>
      <trkpt lat="43.548968" lon="-8.269711">
        <ele>57.225</ele>
        <time>2016-09-22T10:47:23Z</time>
      </trkpt>
      <trkpt lat="43.549206" lon="-8.270385">
        <ele>57.008</ele>
        <time>2016-09-22T10:47:28Z</time>
      </trkpt>
      <trkpt lat="43.549251" lon="-8.270511">
        <ele>57.028</ele>
        <time>2016-09-22T10:47:29Z</time>
      </trkpt>
      <trkpt lat="43.549445" lon="-8.271104">
        <ele>57.672</ele>
        <time>2016-09-22T10:47:34Z</time>
      </trkpt>
      <trkpt lat="43.549609" lon="-8.271602">
        <ele>58.277</ele>
        <time>2016-09-22T10:47:39Z</time>
      </trkpt>
      <trkpt lat="43.549747" lon="-8.271971">
        <ele>58.275</ele>
        <time>2016-09-22T10:47:44Z</time>
      </trkpt>
      <trkpt lat="43.549800" lon="-8.272181">
        <ele>58.853</ele>
        <time>2016-09-22T10:47:47Z</time>
      </trkpt>
      <trkpt lat="43.549908" lon="-8.272511">
        <ele>59.253</ele>
        <time>2016-09-22T10:47:52Z</time>
      </trkpt>
      <trkpt lat="43.550048" lon="-8.272880">
        <ele>59.425</ele>
        <time>2016-09-22T10:47:58Z</time>
      </trkpt>
      <trkpt lat="43.550132" lon="-8.273073">
        <ele>59.667</ele>
        <time>2016-09-22T10:48:02Z</time>
      </trkpt>
      <trkpt lat="43.550168" lon="-8.273087">
        <ele>59.681</ele>
        <time>2016-09-22T10:48:03Z</time>
      </trkpt>
      <trkpt lat="43.550299" lon="-8.273024">
        <ele>59.661</ele>
        <time>2016-09-22T10:48:06Z</time>
      </trkpt>
      <trkpt lat="43.550346" lon="-8.272997">
        <ele>59.417</ele>
        <time>2016-09-22T10:48:07Z</time>
      </trkpt>
      <trkpt lat="43.550566" lon="-8.272916">
        <ele>59.608</ele>
        <time>2016-09-22T10:48:11Z</time>
      </trkpt>
      <trkpt lat="43.550939" lon="-8.272846">
        <ele>58.869</ele>
        <time>2016-09-22T10:48:17Z</time>
      </trkpt>
      <trkpt lat="43.551251" lon="-8.272738">
        <ele>59.073</ele>
        <time>2016-09-22T10:48:22Z</time>
      </trkpt>
      <trkpt lat="43.551670" lon="-8.272637">
        <ele>58.658</ele>
        <time>2016-09-22T10:48:29Z</time>
      </trkpt>
      <trkpt lat="43.552103" lon="-8.272562">
        <ele>58.416</ele>
        <time>2016-09-22T10:48:37Z</time>
      </trkpt>
      <trkpt lat="43.552148" lon="-8.272564">
        <ele>58.214</ele>
        <time>2016-09-22T10:48:38Z</time>
      </trkpt>
      <trkpt lat="43.552295" lon="-8.272563">
        <ele>57.214</ele>
        <time>2016-09-22T10:48:42Z</time>
      </trkpt>
      <trkpt lat="43.552322" lon="-8.272566">
        <ele>57.026</ele>
        <time>2016-09-22T10:48:43Z</time>
      </trkpt>
      <trkpt lat="43.552441" lon="-8.272586">
        <ele>57.478</ele>
        <time>2016-09-22T10:48:49Z</time>
      </trkpt>
      <trkpt lat="43.552518" lon="-8.272585">
        <ele>57.099</ele>
        <time>2016-09-22T10:48:53Z</time>
      </trkpt>
      <trkpt lat="43.552541" lon="-8.272593">
        <ele>56.807</ele>
        <time>2016-09-22T10:48:54Z</time>
      </trkpt>
      <trkpt lat="43.552589" lon="-8.272610">
        <ele>56.227</ele>
        <time>2016-09-22T10:48:56Z</time>
      </trkpt>
      <trkpt lat="43.552761" lon="-8.272664">
        <ele>55.408</ele>
        <time>2016-09-22T10:49:03Z</time>
      </trkpt>
      <trkpt lat="43.552869" lon="-8.272674">
        <ele>55.020</ele>
        <time>2016-09-22T10:49:09Z</time>
      </trkpt>
      <trkpt lat="43.552869" lon="-8.272674">
        <ele>54.864</ele>
        <time>2016-09-22T10:49:10Z</time>
      </trkpt>
      <trkpt lat="43.552899" lon="-8.272666">
        <ele>45.699</ele>
        <time>2016-09-22T10:49:40Z</time>
      </trkpt>
      <trkpt lat="43.552944" lon="-8.272654">
        <ele>45.087</ele>
        <time>2016-09-22T10:49:42Z</time>
      </trkpt>
      <trkpt lat="43.553002" lon="-8.272648">
        <ele>44.035</ele>
        <time>2016-09-22T10:49:44Z</time>
      </trkpt>
      <trkpt lat="43.553085" lon="-8.272690">
        <ele>43.065</ele>
        <time>2016-09-22T10:49:47Z</time>
      </trkpt>
      <trkpt lat="43.553108" lon="-8.272718">
        <ele>42.897</ele>
        <time>2016-09-22T10:49:48Z</time>
      </trkpt>
      <trkpt lat="43.553164" lon="-8.272831">
        <ele>41.879</ele>
        <time>2016-09-22T10:49:51Z</time>
      </trkpt>
      <trkpt lat="43.553180" lon="-8.272871">
        <ele>41.612</ele>
        <time>2016-09-22T10:49:52Z</time>
      </trkpt>
      <trkpt lat="43.553249" lon="-8.273005">
        <ele>40.632</ele>
        <time>2016-09-22T10:49:56Z</time>
      </trkpt>
      <trkpt lat="43.553300" lon="-8.273106">
        <ele>40.005</ele>
        <time>2016-09-22T10:49:59Z</time>
      </trkpt>
      <trkpt lat="43.553335" lon="-8.273173">
        <ele>39.608</ele>
        <time>2016-09-22T10:50:01Z</time>
      </trkpt>
      <trkpt lat="43.553434" lon="-8.273370">
        <ele>38.842</ele>
        <time>2016-09-22T10:50:07Z</time>
      </trkpt>
      <trkpt lat="43.553450" lon="-8.273403">
        <ele>38.666</ele>
        <time>2016-09-22T10:50:08Z</time>
      </trkpt>
      <trkpt lat="43.553532" lon="-8.273579">
        <ele>37.641</ele>
        <time>2016-09-22T10:50:13Z</time>
      </trkpt>
      <trkpt lat="43.553576" lon="-8.273658">
        <ele>37.679</ele>
        <time>2016-09-22T10:50:15Z</time>
      </trkpt>
      <trkpt lat="43.553687" lon="-8.273846">
        <ele>36.227</ele>
        <time>2016-09-22T10:50:20Z</time>
      </trkpt>
      <trkpt lat="43.553712" lon="-8.273879">
        <ele>36.057</ele>
        <time>2016-09-22T10:50:21Z</time>
      </trkpt>
      <trkpt lat="43.553942" lon="-8.274155">
        <ele>35.499</ele>
        <time>2016-09-22T10:50:30Z</time>
      </trkpt>
      <trkpt lat="43.553965" lon="-8.274188">
        <ele>35.491</ele>
        <time>2016-09-22T10:50:31Z</time>
      </trkpt>
      <trkpt lat="43.554129" lon="-8.274430">
        <ele>34.652</ele>
        <time>2016-09-22T10:50:38Z</time>
      </trkpt>
      <trkpt lat="43.554168" lon="-8.274483">
        <ele>34.253</ele>
        <time>2016-09-22T10:50:40Z</time>
      </trkpt>
      <trkpt lat="43.554273" lon="-8.274546">
        <ele>33.608</ele>
        <time>2016-09-22T10:50:44Z</time>
      </trkpt>
      <trkpt lat="43.554346" lon="-8.274535">
        <ele>33.208</ele>
        <time>2016-09-22T10:50:46Z</time>
      </trkpt>
      <trkpt lat="43.554385" lon="-8.274514">
        <ele>33.296</ele>
        <time>2016-09-22T10:50:47Z</time>
      </trkpt>
      <trkpt lat="43.554423" lon="-8.274488">
        <ele>33.080</ele>
        <time>2016-09-22T10:50:48Z</time>
      </trkpt>
      <trkpt lat="43.554603" lon="-8.274387">
        <ele>32.275</ele>
        <time>2016-09-22T10:50:53Z</time>
      </trkpt>
      <trkpt lat="43.554624" lon="-8.274370">
        <ele>32.053</ele>
        <time>2016-09-22T10:50:54Z</time>
      </trkpt>
      <trkpt lat="43.554652" lon="-8.274322">
        <ele>31.641</ele>
        <time>2016-09-22T10:50:56Z</time>
      </trkpt>
      <trkpt lat="43.554669" lon="-8.274245">
        <ele>31.481</ele>
        <time>2016-09-22T10:50:59Z</time>
      </trkpt>
      <trkpt lat="43.554667" lon="-8.274201">
        <ele>31.293</ele>
        <time>2016-09-22T10:51:01Z</time>
      </trkpt>
      <trkpt lat="43.554674" lon="-8.274157">
        <ele>31.285</ele>
        <time>2016-09-22T10:51:03Z</time>
      </trkpt>
      <trkpt lat="43.554680" lon="-8.274126">
        <ele>31.284</ele>
        <time>2016-09-22T10:51:04Z</time>
      </trkpt>
      <trkpt lat="43.554706" lon="-8.274026">
        <ele>30.807</ele>
        <time>2016-09-22T10:51:07Z</time>
      </trkpt>
      <trkpt lat="43.554716" lon="-8.273996">
        <ele>30.617</ele>
        <time>2016-09-22T10:51:08Z</time>
      </trkpt>
      <trkpt lat="43.554731" lon="-8.273973">
        <ele>30.208</ele>
        <time>2016-09-22T10:51:09Z</time>
      </trkpt>
      <trkpt lat="43.554750" lon="-8.273953">
        <ele>30.019</ele>
        <time>2016-09-22T10:51:10Z</time>
      </trkpt>
      <trkpt lat="43.554795" lon="-8.273925">
        <ele>29.843</ele>
        <time>2016-09-22T10:51:12Z</time>
      </trkpt>
      <trkpt lat="43.554887" lon="-8.273881">
        <ele>29.288</ele>
        <time>2016-09-22T10:51:16Z</time>
      </trkpt>
      <trkpt lat="43.554903" lon="-8.273868">
        <ele>29.076</ele>
        <time>2016-09-22T10:51:19Z</time>
      </trkpt>
      <trkpt lat="43.554904" lon="-8.273895">
        <ele>22.674</ele>
        <time>2016-09-22T10:51:52Z</time>
      </trkpt>
      <trkpt lat="43.554909" lon="-8.273998">
        <ele>21.274</ele>
        <time>2016-09-22T10:51:55Z</time>
      </trkpt>
      <trkpt lat="43.554910" lon="-8.274035">
        <ele>21.096</ele>
        <time>2016-09-22T10:51:56Z</time>
      </trkpt>
      <trkpt lat="43.554917" lon="-8.274183">
        <ele>20.258</ele>
        <time>2016-09-22T10:52:00Z</time>
      </trkpt>
      <trkpt lat="43.554920" lon="-8.274261">
        <ele>19.861</ele>
        <time>2016-09-22T10:52:02Z</time>
      </trkpt>
      <trkpt lat="43.554922" lon="-8.274390">
        <ele>19.021</ele>
        <time>2016-09-22T10:52:05Z</time>
      </trkpt>
      <trkpt lat="43.554923" lon="-8.274580">
        <ele>18.213</ele>
        <time>2016-09-22T10:52:09Z</time>
      </trkpt>
      <trkpt lat="43.554921" lon="-8.274718">
        <ele>17.808</ele>
        <time>2016-09-22T10:52:12Z</time>
      </trkpt>
      <trkpt lat="43.554890" lon="-8.274800">
        <ele>17.467</ele>
        <time>2016-09-22T10:52:14Z</time>
      </trkpt>
      <trkpt lat="43.554816" lon="-8.274957">
        <ele>16.641</ele>
        <time>2016-09-22T10:52:18Z</time>
      </trkpt>
      <trkpt lat="43.554687" lon="-8.275218">
        <ele>15.676</ele>
        <time>2016-09-22T10:52:25Z</time>
      </trkpt>
      <trkpt lat="43.554673" lon="-8.275257">
        <ele>15.224</ele>
        <time>2016-09-22T10:52:26Z</time>
      </trkpt>
      <trkpt lat="43.554567" lon="-8.275474">
        <ele>14.492</ele>
        <time>2016-09-22T10:52:32Z</time>
      </trkpt>
      <trkpt lat="43.554549" lon="-8.275509">
        <ele>14.242</ele>
        <time>2016-09-22T10:52:33Z</time>
      </trkpt>
      <trkpt lat="43.554478" lon="-8.275656">
        <ele>13.684</ele>
        <time>2016-09-22T10:52:37Z</time>
      </trkpt>
      <trkpt lat="43.554347" lon="-8.275953">
        <ele>13.266</ele>
        <time>2016-09-22T10:52:45Z</time>
      </trkpt>
      <trkpt lat="43.554330" lon="-8.275990">
        <ele>13.089</ele>
        <time>2016-09-22T10:52:46Z</time>
      </trkpt>
      <trkpt lat="43.554185" lon="-8.276329">
        <ele>11.806</ele>
        <time>2016-09-22T10:52:55Z</time>
      </trkpt>
      <trkpt lat="43.554059" lon="-8.276683">
        <ele>11.026</ele>
        <time>2016-09-22T10:53:04Z</time>
      </trkpt>
      <trkpt lat="43.554075" lon="-8.276713">
        <ele>11.008</ele>
        <time>2016-09-22T10:53:05Z</time>
      </trkpt>
      <trkpt lat="43.554138" lon="-8.276731">
        <ele>10.659</ele>
        <time>2016-09-22T10:53:07Z</time>
      </trkpt>
      <trkpt lat="43.554214" lon="-8.276727">
        <ele>10.263</ele>
        <time>2016-09-22T10:53:09Z</time>
      </trkpt>
      <trkpt lat="43.554332" lon="-8.276730">
        <ele>9.418</ele>
        <time>2016-09-22T10:53:12Z</time>
      </trkpt>
      <trkpt lat="43.554523" lon="-8.276785">
        <ele>9.256</ele>
        <time>2016-09-22T10:53:17Z</time>
      </trkpt>
      <trkpt lat="43.554608" lon="-8.276971">
        <ele>9.414</ele>
        <time>2016-09-22T10:53:21Z</time>
      </trkpt>
      <trkpt lat="43.554714" lon="-8.277260">
        <ele>9.044</ele>
        <time>2016-09-22T10:53:27Z</time>
      </trkpt>
      <trkpt lat="43.554815" lon="-8.277633">
        <ele>8.886</ele>
        <time>2016-09-22T10:53:35Z</time>
      </trkpt>
      <trkpt lat="43.554914" lon="-8.277915">
        <ele>8.868</ele>
        <time>2016-09-22T10:53:42Z</time>
      </trkpt>
      <trkpt lat="43.554987" lon="-8.278228">
        <ele>9.039</ele>
        <time>2016-09-22T10:53:49Z</time>
      </trkpt>
      <trkpt lat="43.554952" lon="-8.278588">
        <ele>9.201</ele>
        <time>2016-09-22T10:53:56Z</time>
      </trkpt>
      <trkpt lat="43.554933" lon="-8.278902">
        <ele>8.821</ele>
        <time>2016-09-22T10:54:03Z</time>
      </trkpt>
      <trkpt lat="43.554997" lon="-8.279277">
        <ele>9.008</ele>
        <time>2016-09-22T10:54:12Z</time>
      </trkpt>
      <trkpt lat="43.555009" lon="-8.279408">
        <ele>9.034</ele>
        <time>2016-09-22T10:54:17Z</time>
      </trkpt>
      <trkpt lat="43.554999" lon="-8.279618">
        <ele>8.668</ele>
        <time>2016-09-22T10:54:25Z</time>
      </trkpt>
      <trkpt lat="43.555000" lon="-8.279768">
        <ele>8.253</ele>
        <time>2016-09-22T10:54:32Z</time>
      </trkpt>
      <trkpt lat="43.554989" lon="-8.279916">
        <ele>8.091</ele>
        <time>2016-09-22T10:54:39Z</time>
      </trkpt>
      <trkpt lat="43.554993" lon="-8.280079">
        <ele>6.829</ele>
        <time>2016-09-22T10:54:47Z</time>
      </trkpt>
      <trkpt lat="43.554993" lon="-8.280098">
        <ele>6.689</ele>
        <time>2016-09-22T10:54:48Z</time>
      </trkpt>
      <trkpt lat="43.554991" lon="-8.280218">
        <ele>6.241</ele>
        <time>2016-09-22T10:54:54Z</time>
      </trkpt>
      <trkpt lat="43.554993" lon="-8.280314">
        <ele>5.643</ele>
        <time>2016-09-22T10:54:59Z</time>
      </trkpt>
      <trkpt lat="43.554995" lon="-8.280354">
        <ele>5.456</ele>
        <time>2016-09-22T10:55:01Z</time>
      </trkpt>
      <trkpt lat="43.554986" lon="-8.280472">
        <ele>5.259</ele>
        <time>2016-09-22T10:55:07Z</time>
      </trkpt>
      <trkpt lat="43.554987" lon="-8.280533">
        <ele>4.614</ele>
        <time>2016-09-22T10:55:10Z</time>
      </trkpt>
      <trkpt lat="43.554980" lon="-8.280598">
        <ele>3.608</ele>
        <time>2016-09-22T10:55:13Z</time>
      </trkpt>
      <trkpt lat="43.554970" lon="-8.280663">
        <ele>3.416</ele>
        <time>2016-09-22T10:55:16Z</time>
      </trkpt>
      <trkpt lat="43.554958" lon="-8.280699">
        <ele>3.430</ele>
        <time>2016-09-22T10:55:18Z</time>
      </trkpt>
      <trkpt lat="43.554926" lon="-8.280787">
        <ele>2.845</ele>
        <time>2016-09-22T10:55:22Z</time>
      </trkpt>
      <trkpt lat="43.554922" lon="-8.280814">
        <ele>2.843</ele>
        <time>2016-09-22T10:55:23Z</time>
      </trkpt>
      <trkpt lat="43.554915" lon="-8.280860">
        <ele>2.441</ele>
        <time>2016-09-22T10:55:25Z</time>
      </trkpt>
      <trkpt lat="43.554894" lon="-8.280932">
        <ele>2.051</ele>
        <time>2016-09-22T10:55:28Z</time>
      </trkpt>
      <trkpt lat="43.554893" lon="-8.281021">
        <ele>1.663</ele>
        <time>2016-09-22T10:55:31Z</time>
      </trkpt>
      <trkpt lat="43.554932" lon="-8.281069">
        <ele>1.445</ele>
        <time>2016-09-22T10:55:33Z</time>
      </trkpt>
      <trkpt lat="43.554994" lon="-8.281111">
        <ele>1.271</ele>
        <time>2016-09-22T10:55:35Z</time>
      </trkpt>
      <trkpt lat="43.555069" lon="-8.281146">
        <ele>0.641</ele>
        <time>2016-09-22T10:55:37Z</time>
      </trkpt>
      <trkpt lat="43.555107" lon="-8.281172">
        <ele>0.615</ele>
        <time>2016-09-22T10:55:38Z</time>
      </trkpt>
      <trkpt lat="43.555289" lon="-8.281291">
        <ele>-0.408</ele>
        <time>2016-09-22T10:55:42Z</time>
      </trkpt>
      <trkpt lat="43.555393" lon="-8.281359">
        <ele>-0.638</ele>
        <time>2016-09-22T10:55:44Z</time>
      </trkpt>
      <trkpt lat="43.555800" lon="-8.281630">
        <ele>-0.632</ele>
        <time>2016-09-22T10:55:51Z</time>
      </trkpt>
      <trkpt lat="43.555920" lon="-8.281738">
        <ele>-0.897</ele>
        <time>2016-09-22T10:55:54Z</time>
      </trkpt>
      <trkpt lat="43.555948" lon="-8.281780">
        <ele>-0.825</ele>
        <time>2016-09-22T10:55:55Z</time>
      </trkpt>
      <trkpt lat="43.555992" lon="-8.281862">
        <ele>-0.623</ele>
        <time>2016-09-22T10:55:58Z</time>
      </trkpt>
      <trkpt lat="43.555990" lon="-8.281864">
        <ele>-0.493</ele>
        <time>2016-09-22T10:56:00Z</time>
      </trkpt>
      <trkpt lat="43.555982" lon="-8.281905">
        <ele>-24.255</ele>
        <time>2016-09-22T10:57:26Z</time>
      </trkpt>
      <trkpt lat="43.555969" lon="-8.281928">
        <ele>-24.447</ele>
        <time>2016-09-22T10:57:27Z</time>
      </trkpt>
      <trkpt lat="43.555898" lon="-8.281988">
        <ele>-25.218</ele>
        <time>2016-09-22T10:57:30Z</time>
      </trkpt>
      <trkpt lat="43.555843" lon="-8.282022">
        <ele>-25.698</ele>
        <time>2016-09-22T10:57:32Z</time>
      </trkpt>
      <trkpt lat="43.555815" lon="-8.282043">
        <ele>-25.817</ele>
        <time>2016-09-22T10:57:33Z</time>
      </trkpt>
      <trkpt lat="43.555540" lon="-8.282237">
        <ele>-26.208</ele>
        <time>2016-09-22T10:57:42Z</time>
      </trkpt>
      <trkpt lat="43.555213" lon="-8.282455">
        <ele>-25.612</ele>
        <time>2016-09-22T10:57:52Z</time>
      </trkpt>
      <trkpt lat="43.555147" lon="-8.282499">
        <ele>-25.496</ele>
        <time>2016-09-22T10:57:54Z</time>
      </trkpt>
      <trkpt lat="43.554913" lon="-8.282652">
        <ele>-24.421</ele>
        <time>2016-09-22T10:58:01Z</time>
      </trkpt>
      <trkpt lat="43.554808" lon="-8.282712">
        <ele>-24.089</ele>
        <time>2016-09-22T10:58:04Z</time>
      </trkpt>
      <trkpt lat="43.554608" lon="-8.282855">
        <ele>-23.847</ele>
        <time>2016-09-22T10:58:10Z</time>
      </trkpt>
      <trkpt lat="43.554507" lon="-8.282925">
        <ele>-23.677</ele>
        <time>2016-09-22T10:58:13Z</time>
      </trkpt>
      <trkpt lat="43.554377" lon="-8.283008">
        <ele>-22.689</ele>
        <time>2016-09-22T10:58:17Z</time>
      </trkpt>
      <trkpt lat="43.554245" lon="-8.283090">
        <ele>-22.211</ele>
        <time>2016-09-22T10:58:21Z</time>
      </trkpt>
      <trkpt lat="43.554180" lon="-8.283132">
        <ele>-21.419</ele>
        <time>2016-09-22T10:58:23Z</time>
      </trkpt>
      <trkpt lat="43.554016" lon="-8.283241">
        <ele>-20.609</ele>
        <time>2016-09-22T10:58:28Z</time>
      </trkpt>
      <trkpt lat="43.553950" lon="-8.283294">
        <ele>-20.219</ele>
        <time>2016-09-22T10:58:30Z</time>
      </trkpt>
      <trkpt lat="43.553854" lon="-8.283375">
        <ele>-19.608</ele>
        <time>2016-09-22T10:58:33Z</time>
      </trkpt>
      <trkpt lat="43.553716" lon="-8.283479">
        <ele>-18.892</ele>
        <time>2016-09-22T10:58:37Z</time>
      </trkpt>
      <trkpt lat="43.553680" lon="-8.283507">
        <ele>-18.646</ele>
        <time>2016-09-22T10:58:38Z</time>
      </trkpt>
      <trkpt lat="43.553426" lon="-8.283778">
        <ele>-19.291</ele>
        <time>2016-09-22T10:58:45Z</time>
      </trkpt>
      <trkpt lat="43.553320" lon="-8.283935">
        <ele>-18.249</ele>
        <time>2016-09-22T10:58:48Z</time>
      </trkpt>
      <trkpt lat="43.553170" lon="-8.284170">
        <ele>-17.687</ele>
        <time>2016-09-22T10:58:52Z</time>
      </trkpt>
      <trkpt lat="43.553047" lon="-8.284367">
        <ele>-17.267</ele>
        <time>2016-09-22T10:58:55Z</time>
      </trkpt>
      <trkpt lat="43.552869" lon="-8.284648">
        <ele>-16.459</ele>
        <time>2016-09-22T10:58:59Z</time>
      </trkpt>
      <trkpt lat="43.552652" lon="-8.285017">
        <ele>-15.451</ele>
        <time>2016-09-22T10:59:04Z</time>
      </trkpt>
      <trkpt lat="43.552516" lon="-8.285238">
        <ele>-14.244</ele>
        <time>2016-09-22T10:59:07Z</time>
      </trkpt>
      <trkpt lat="43.552420" lon="-8.285388">
        <ele>-12.805</ele>
        <time>2016-09-22T10:59:09Z</time>
      </trkpt>
      <trkpt lat="43.552277" lon="-8.285625">
        <ele>-11.615</ele>
        <time>2016-09-22T10:59:12Z</time>
      </trkpt>
      <trkpt lat="43.552116" lon="-8.285872">
        <ele>-11.208</ele>
        <time>2016-09-22T10:59:15Z</time>
      </trkpt>
      <trkpt lat="43.551946" lon="-8.286141">
        <ele>-10.465</ele>
        <time>2016-09-22T10:59:18Z</time>
      </trkpt>
      <trkpt lat="43.551823" lon="-8.286332">
        <ele>-9.899</ele>
        <time>2016-09-22T10:59:20Z</time>
      </trkpt>
      <trkpt lat="43.551759" lon="-8.286432">
        <ele>-9.634</ele>
        <time>2016-09-22T10:59:21Z</time>
      </trkpt>
      <trkpt lat="43.551562" lon="-8.286743">
        <ele>-8.462</ele>
        <time>2016-09-22T10:59:24Z</time>
      </trkpt>
      <trkpt lat="43.551364" lon="-8.287040">
        <ele>-7.840</ele>
        <time>2016-09-22T10:59:27Z</time>
      </trkpt>
      <trkpt lat="43.551244" lon="-8.287217">
        <ele>-7.090</ele>
        <time>2016-09-22T10:59:29Z</time>
      </trkpt>
      <trkpt lat="43.551142" lon="-8.287380">
        <ele>-5.822</ele>
        <time>2016-09-22T10:59:31Z</time>
      </trkpt>
      <trkpt lat="43.551098" lon="-8.287456">
        <ele>-5.634</ele>
        <time>2016-09-22T10:59:32Z</time>
      </trkpt>
      <trkpt lat="43.551023" lon="-8.287587">
        <ele>-4.891</ele>
        <time>2016-09-22T10:59:34Z</time>
      </trkpt>
      <trkpt lat="43.550989" lon="-8.287641">
        <ele>-4.481</ele>
        <time>2016-09-22T10:59:35Z</time>
      </trkpt>
      <trkpt lat="43.550955" lon="-8.287690">
        <ele>-4.019</ele>
        <time>2016-09-22T10:59:36Z</time>
      </trkpt>
      <trkpt lat="43.550922" lon="-8.287738">
        <ele>-3.408</ele>
        <time>2016-09-22T10:59:37Z</time>
      </trkpt>
      <trkpt lat="43.550861" lon="-8.287831">
        <ele>-2.240</ele>
        <time>2016-09-22T10:59:39Z</time>
      </trkpt>
      <trkpt lat="43.550805" lon="-8.287919">
        <ele>-1.064</ele>
        <time>2016-09-22T10:59:41Z</time>
      </trkpt>
      <trkpt lat="43.550750" lon="-8.288000">
        <ele>0.479</ele>
        <time>2016-09-22T10:59:43Z</time>
      </trkpt>
      <trkpt lat="43.550704" lon="-8.288073">
        <ele>1.857</ele>
        <time>2016-09-22T10:59:45Z</time>
      </trkpt>
      <trkpt lat="43.550661" lon="-8.288141">
        <ele>2.825</ele>
        <time>2016-09-22T10:59:47Z</time>
      </trkpt>
      <trkpt lat="43.550642" lon="-8.288170">
        <ele>3.455</ele>
        <time>2016-09-22T10:59:48Z</time>
      </trkpt>
      <trkpt lat="43.550611" lon="-8.288229">
        <ele>4.687</ele>
        <time>2016-09-22T10:59:50Z</time>
      </trkpt>
      <trkpt lat="43.550559" lon="-8.288320">
        <ele>5.869</ele>
        <time>2016-09-22T10:59:53Z</time>
      </trkpt>
      <trkpt lat="43.550502" lon="-8.288421">
        <ele>7.281</ele>
        <time>2016-09-22T10:59:56Z</time>
      </trkpt>
      <trkpt lat="43.550446" lon="-8.288521">
        <ele>8.661</ele>
        <time>2016-09-22T10:59:59Z</time>
      </trkpt>
      <trkpt lat="43.550430" lon="-8.288548">
        <ele>9.017</ele>
        <time>2016-09-22T11:00:00Z</time>
      </trkpt>
      <trkpt lat="43.550387" lon="-8.288631">
        <ele>10.008</ele>
        <time>2016-09-22T11:00:03Z</time>
      </trkpt>
      <trkpt lat="43.550322" lon="-8.288747">
        <ele>11.099</ele>
        <time>2016-09-22T11:00:07Z</time>
      </trkpt>
      <trkpt lat="43.550287" lon="-8.288806">
        <ele>11.823</ele>
        <time>2016-09-22T11:00:09Z</time>
      </trkpt>
      <trkpt lat="43.550270" lon="-8.288835">
        <ele>12.238</ele>
        <time>2016-09-22T11:00:10Z</time>
      </trkpt>
      <trkpt lat="43.550220" lon="-8.288918">
        <ele>13.226</ele>
        <time>2016-09-22T11:00:13Z</time>
      </trkpt>
      <trkpt lat="43.550133" lon="-8.289051">
        <ele>14.454</ele>
        <time>2016-09-22T11:00:18Z</time>
      </trkpt>
      <trkpt lat="43.550114" lon="-8.289078">
        <ele>14.634</ele>
        <time>2016-09-22T11:00:19Z</time>
      </trkpt>
      <trkpt lat="43.550029" lon="-8.289175">
        <ele>15.676</ele>
        <time>2016-09-22T11:00:23Z</time>
      </trkpt>
      <trkpt lat="43.549979" lon="-8.289270">
        <ele>16.018</ele>
        <time>2016-09-22T11:00:26Z</time>
      </trkpt>
      <trkpt lat="43.549965" lon="-8.289335">
        <ele>16.472</ele>
        <time>2016-09-22T11:00:28Z</time>
      </trkpt>
      <trkpt lat="43.549966" lon="-8.289429">
        <ele>17.013</ele>
        <time>2016-09-22T11:00:31Z</time>
      </trkpt>
      <trkpt lat="43.549966" lon="-8.289552">
        <ele>17.614</ele>
        <time>2016-09-22T11:00:35Z</time>
      </trkpt>
      <trkpt lat="43.549960" lon="-8.289649">
        <ele>18.008</ele>
        <time>2016-09-22T11:00:39Z</time>
      </trkpt>
      <trkpt lat="43.549955" lon="-8.289846">
        <ele>18.058</ele>
        <time>2016-09-22T11:00:47Z</time>
      </trkpt>
      <trkpt lat="43.549952" lon="-8.290044">
        <ele>17.832</ele>
        <time>2016-09-22T11:00:55Z</time>
      </trkpt>
      <trkpt lat="43.549953" lon="-8.290268">
        <ele>16.697</ele>
        <time>2016-09-22T11:01:04Z</time>
      </trkpt>
      <trkpt lat="43.549951" lon="-8.290373">
        <ele>16.245</ele>
        <time>2016-09-22T11:01:08Z</time>
      </trkpt>
      <trkpt lat="43.549946" lon="-8.290423">
        <ele>16.013</ele>
        <time>2016-09-22T11:01:10Z</time>
      </trkpt>
      <trkpt lat="43.549945" lon="-8.290568">
        <ele>15.233</ele>
        <time>2016-09-22T11:01:16Z</time>
      </trkpt>
      <trkpt lat="43.549946" lon="-8.290875">
        <ele>15.025</ele>
        <time>2016-09-22T11:01:27Z</time>
      </trkpt>
      <trkpt lat="43.549940" lon="-8.291163">
        <ele>15.897</ele>
        <time>2016-09-22T11:01:36Z</time>
      </trkpt>
      <trkpt lat="43.549932" lon="-8.291397">
        <ele>16.059</ele>
        <time>2016-09-22T11:01:43Z</time>
      </trkpt>
      <trkpt lat="43.549924" lon="-8.291534">
        <ele>16.603</ele>
        <time>2016-09-22T11:01:47Z</time>
      </trkpt>
      <trkpt lat="43.549917" lon="-8.291670">
        <ele>17.023</ele>
        <time>2016-09-22T11:01:51Z</time>
      </trkpt>
      <trkpt lat="43.549908" lon="-8.291833">
        <ele>17.408</ele>
        <time>2016-09-22T11:01:56Z</time>
      </trkpt>
      <trkpt lat="43.549902" lon="-8.291962">
        <ele>18.226</ele>
        <time>2016-09-22T11:02:00Z</time>
      </trkpt>
      <trkpt lat="43.549900" lon="-8.292024">
        <ele>18.480</ele>
        <time>2016-09-22T11:02:02Z</time>
      </trkpt>
      <trkpt lat="43.549902" lon="-8.292210">
        <ele>19.275</ele>
        <time>2016-09-22T11:02:08Z</time>
      </trkpt>
      <trkpt lat="43.549904" lon="-8.292270">
        <ele>19.463</ele>
        <time>2016-09-22T11:02:10Z</time>
      </trkpt>
      <trkpt lat="43.549914" lon="-8.292408">
        <ele>20.491</ele>
        <time>2016-09-22T11:02:15Z</time>
      </trkpt>
      <trkpt lat="43.549918" lon="-8.292492">
        <ele>21.651</ele>
        <time>2016-09-22T11:02:19Z</time>
      </trkpt>
      <trkpt lat="43.549910" lon="-8.292534">
        <ele>21.863</ele>
        <time>2016-09-22T11:02:21Z</time>
      </trkpt>
      <trkpt lat="43.549901" lon="-8.292603">
        <ele>22.265</ele>
        <time>2016-09-22T11:02:24Z</time>
      </trkpt>
      <trkpt lat="43.549887" lon="-8.292645">
        <ele>22.629</ele>
        <time>2016-09-22T11:02:26Z</time>
      </trkpt>
      <trkpt lat="43.549868" lon="-8.292688">
        <ele>23.200</ele>
        <time>2016-09-22T11:02:28Z</time>
      </trkpt>
      <trkpt lat="43.549902" lon="-8.292699">
        <ele>25.020</ele>
        <time>2016-09-22T11:02:43Z</time>
      </trkpt>
      <trkpt lat="43.549954" lon="-8.292724">
        <ele>25.608</ele>
        <time>2016-09-22T11:02:47Z</time>
      </trkpt>
      <trkpt lat="43.549959" lon="-8.292748">
        <ele>25.813</ele>
        <time>2016-09-22T11:02:48Z</time>
      </trkpt>
      <trkpt lat="43.549941" lon="-8.292841">
        <ele>26.847</ele>
        <time>2016-09-22T11:02:52Z</time>
      </trkpt>
      <trkpt lat="43.549916" lon="-8.292906">
        <ele>28.092</ele>
        <time>2016-09-22T11:02:56Z</time>
      </trkpt>
      <trkpt lat="43.549912" lon="-8.292915">
        <ele>28.250</ele>
        <time>2016-09-22T11:02:57Z</time>
      </trkpt>
      <trkpt lat="43.549883" lon="-8.293035">
        <ele>28.448</ele>
        <time>2016-09-22T11:03:01Z</time>
      </trkpt>
      <trkpt lat="43.549880" lon="-8.293065">
        <ele>28.658</ele>
        <time>2016-09-22T11:03:02Z</time>
      </trkpt>
      <trkpt lat="43.549877" lon="-8.293096">
        <ele>28.850</ele>
        <time>2016-09-22T11:03:03Z</time>
      </trkpt>
      <trkpt lat="43.549866" lon="-8.293328">
        <ele>29.882</ele>
        <time>2016-09-22T11:03:10Z</time>
      </trkpt>
      <trkpt lat="43.549863" lon="-8.293359">
        <ele>29.888</ele>
        <time>2016-09-22T11:03:11Z</time>
      </trkpt>
      <trkpt lat="43.549836" lon="-8.293598">
        <ele>30.424</ele>
        <time>2016-09-22T11:03:18Z</time>
      </trkpt>
      <trkpt lat="43.549817" lon="-8.293779">
        <ele>30.826</ele>
        <time>2016-09-22T11:03:23Z</time>
      </trkpt>
      <trkpt lat="43.549816" lon="-8.293823">
        <ele>30.808</ele>
        <time>2016-09-22T11:03:24Z</time>
      </trkpt>
      <trkpt lat="43.549799" lon="-8.294103">
        <ele>31.479</ele>
        <time>2016-09-22T11:03:29Z</time>
      </trkpt>
      <trkpt lat="43.549796" lon="-8.294168">
        <ele>31.613</ele>
        <time>2016-09-22T11:03:30Z</time>
      </trkpt>
      <trkpt lat="43.549781" lon="-8.294500">
        <ele>32.448</ele>
        <time>2016-09-22T11:03:35Z</time>
      </trkpt>
      <trkpt lat="43.549784" lon="-8.294561">
        <ele>32.876</ele>
        <time>2016-09-22T11:03:36Z</time>
      </trkpt>
      <trkpt lat="43.549795" lon="-8.294750">
        <ele>33.074</ele>
        <time>2016-09-22T11:03:39Z</time>
      </trkpt>
      <trkpt lat="43.549779" lon="-8.295048">
        <ele>33.694</ele>
        <time>2016-09-22T11:03:43Z</time>
      </trkpt>
      <trkpt lat="43.549755" lon="-8.295277">
        <ele>33.656</ele>
        <time>2016-09-22T11:03:46Z</time>
      </trkpt>
      <trkpt lat="43.549734" lon="-8.295643">
        <ele>33.038</ele>
        <time>2016-09-22T11:03:51Z</time>
      </trkpt>
      <trkpt lat="43.549732" lon="-8.295863">
        <ele>34.214</ele>
        <time>2016-09-22T11:03:54Z</time>
      </trkpt>
      <trkpt lat="43.549713" lon="-8.296013">
        <ele>34.654</ele>
        <time>2016-09-22T11:03:56Z</time>
      </trkpt>
      <trkpt lat="43.549707" lon="-8.296089">
        <ele>34.609</ele>
        <time>2016-09-22T11:03:57Z</time>
      </trkpt>
      <trkpt lat="43.549690" lon="-8.296244">
        <ele>34.608</ele>
        <time>2016-09-22T11:03:59Z</time>
      </trkpt>
      <trkpt lat="43.549659" lon="-8.296434">
        <ele>35.042</ele>
        <time>2016-09-22T11:04:01Z</time>
      </trkpt>
      <trkpt lat="43.549587" lon="-8.297017">
        <ele>35.036</ele>
        <time>2016-09-22T11:04:07Z</time>
      </trkpt>
      <trkpt lat="43.549549" lon="-8.297507">
        <ele>35.661</ele>
        <time>2016-09-22T11:04:13Z</time>
      </trkpt>
      <trkpt lat="43.549543" lon="-8.297773">
        <ele>35.839</ele>
        <time>2016-09-22T11:04:16Z</time>
      </trkpt>
      <trkpt lat="43.549537" lon="-8.297860">
        <ele>35.897</ele>
        <time>2016-09-22T11:04:17Z</time>
      </trkpt>
      <trkpt lat="43.549529" lon="-8.297937">
        <ele>35.877</ele>
        <time>2016-09-22T11:04:18Z</time>
      </trkpt>
      <trkpt lat="43.549508" lon="-8.298161">
        <ele>35.899</ele>
        <time>2016-09-22T11:04:22Z</time>
      </trkpt>
      <trkpt lat="43.549484" lon="-8.298488">
        <ele>35.421</ele>
        <time>2016-09-22T11:04:29Z</time>
      </trkpt>
      <trkpt lat="43.549470" lon="-8.298666">
        <ele>35.865</ele>
        <time>2016-09-22T11:04:34Z</time>
      </trkpt>
      <trkpt lat="43.549431" lon="-8.298915">
        <ele>35.668</ele>
        <time>2016-09-22T11:04:40Z</time>
      </trkpt>
      <trkpt lat="43.549425" lon="-8.299142">
        <ele>35.614</ele>
        <time>2016-09-22T11:04:45Z</time>
      </trkpt>
      <trkpt lat="43.549414" lon="-8.299438">
        <ele>35.008</ele>
        <time>2016-09-22T11:04:52Z</time>
      </trkpt>
      <trkpt lat="43.549412" lon="-8.299552">
        <ele>34.887</ele>
        <time>2016-09-22T11:04:55Z</time>
      </trkpt>
      <trkpt lat="43.549401" lon="-8.299705">
        <ele>34.421</ele>
        <time>2016-09-22T11:04:59Z</time>
      </trkpt>
      <trkpt lat="43.549373" lon="-8.300032">
        <ele>34.086</ele>
        <time>2016-09-22T11:05:07Z</time>
      </trkpt>
      <trkpt lat="43.549374" lon="-8.300139">
        <ele>33.894</ele>
        <time>2016-09-22T11:05:10Z</time>
      </trkpt>
      <trkpt lat="43.549385" lon="-8.300258">
        <ele>33.832</ele>
        <time>2016-09-22T11:05:14Z</time>
      </trkpt>
      <trkpt lat="43.549489" lon="-8.300439">
        <ele>33.852</ele>
        <time>2016-09-22T11:05:19Z</time>
      </trkpt>
      <trkpt lat="43.549673" lon="-8.300768">
        <ele>33.894</ele>
        <time>2016-09-22T11:05:26Z</time>
      </trkpt>
      <trkpt lat="43.549786" lon="-8.300967">
        <ele>35.066</ele>
        <time>2016-09-22T11:05:31Z</time>
      </trkpt>
      <trkpt lat="43.549836" lon="-8.301035">
        <ele>35.677</ele>
        <time>2016-09-22T11:05:33Z</time>
      </trkpt>
      <trkpt lat="43.549984" lon="-8.301073">
        <ele>36.261</ele>
        <time>2016-09-22T11:05:37Z</time>
      </trkpt>
      <trkpt lat="43.550190" lon="-8.301002">
        <ele>36.427</ele>
        <time>2016-09-22T11:05:42Z</time>
      </trkpt>
      <trkpt lat="43.550272" lon="-8.300990">
        <ele>36.008</ele>
        <time>2016-09-22T11:05:44Z</time>
      </trkpt>
      <trkpt lat="43.550325" lon="-8.300988">
        <ele>35.218</ele>
        <time>2016-09-22T11:05:46Z</time>
      </trkpt>
      <trkpt lat="43.550339" lon="-8.300982">
        <ele>35.072</ele>
        <time>2016-09-22T11:05:47Z</time>
      </trkpt>
      <trkpt lat="43.550392" lon="-8.300942">
        <ele>34.847</ele>
        <time>2016-09-22T11:05:52Z</time>
      </trkpt>
      <trkpt lat="43.550392" lon="-8.300942">
        <ele>34.695</ele>
        <time>2016-09-22T11:05:53Z</time>
      </trkpt>
      <trkpt lat="43.550406" lon="-8.300928">
        <ele>29.273</ele>
        <time>2016-09-22T11:06:08Z</time>
      </trkpt>
      <trkpt lat="43.550441" lon="-8.300897">
        <ele>28.253</ele>
        <time>2016-09-22T11:06:10Z</time>
      </trkpt>
      <trkpt lat="43.550519" lon="-8.300845">
        <ele>27.285</ele>
        <time>2016-09-22T11:06:13Z</time>
      </trkpt>
      <trkpt lat="43.550579" lon="-8.300837">
        <ele>26.647</ele>
        <time>2016-09-22T11:06:15Z</time>
      </trkpt>
      <trkpt lat="43.550643" lon="-8.300839">
        <ele>25.889</ele>
        <time>2016-09-22T11:06:17Z</time>
      </trkpt>
      <trkpt lat="43.550733" lon="-8.300831">
        <ele>24.606</ele>
        <time>2016-09-22T11:06:20Z</time>
      </trkpt>
      <trkpt lat="43.550762" lon="-8.300817">
        <ele>24.426</ele>
        <time>2016-09-22T11:06:21Z</time>
      </trkpt>
      <trkpt lat="43.550908" lon="-8.300748">
        <ele>23.408</ele>
        <time>2016-09-22T11:06:25Z</time>
      </trkpt>
      <trkpt lat="43.550948" lon="-8.300726">
        <ele>23.249</ele>
        <time>2016-09-22T11:06:26Z</time>
      </trkpt>
      <trkpt lat="43.551074" lon="-8.300651">
        <ele>22.233</ele>
        <time>2016-09-22T11:06:29Z</time>
      </trkpt>
      <trkpt lat="43.551215" lon="-8.300554">
        <ele>20.888</ele>
        <time>2016-09-22T11:06:32Z</time>
      </trkpt>
      <trkpt lat="43.551364" lon="-8.300445">
        <ele>19.676</ele>
        <time>2016-09-22T11:06:35Z</time>
      </trkpt>
      <trkpt lat="43.551574" lon="-8.300315">
        <ele>19.044</ele>
        <time>2016-09-22T11:06:39Z</time>
      </trkpt>
      <trkpt lat="43.551681" lon="-8.300251">
        <ele>18.634</ele>
        <time>2016-09-22T11:06:41Z</time>
      </trkpt>
      <trkpt lat="43.552040" lon="-8.300010">
        <ele>17.656</ele>
        <time>2016-09-22T11:06:48Z</time>
      </trkpt>
      <trkpt lat="43.552090" lon="-8.299976">
        <ele>17.428</ele>
        <time>2016-09-22T11:06:49Z</time>
      </trkpt>
      <trkpt lat="43.552241" lon="-8.299895">
        <ele>17.232</ele>
        <time>2016-09-22T11:06:52Z</time>
      </trkpt>
      <trkpt lat="43.552348" lon="-8.299867">
        <ele>17.092</ele>
        <time>2016-09-22T11:06:54Z</time>
      </trkpt>
      <trkpt lat="43.552458" lon="-8.299859">
        <ele>16.611</ele>
        <time>2016-09-22T11:06:56Z</time>
      </trkpt>
      <trkpt lat="43.552515" lon="-8.299859">
        <ele>16.408</ele>
        <time>2016-09-22T11:06:57Z</time>
      </trkpt>
      <trkpt lat="43.552735" lon="-8.299877">
        <ele>16.054</ele>
        <time>2016-09-22T11:07:01Z</time>
      </trkpt>
      <trkpt lat="43.552789" lon="-8.299874">
        <ele>16.048</ele>
        <time>2016-09-22T11:07:02Z</time>
      </trkpt>
      <trkpt lat="43.552879" lon="-8.299832">
        <ele>15.653</ele>
        <time>2016-09-22T11:07:04Z</time>
      </trkpt>
      <trkpt lat="43.552958" lon="-8.299773">
        <ele>16.071</ele>
        <time>2016-09-22T11:07:06Z</time>
      </trkpt>
      <trkpt lat="43.553082" lon="-8.299736">
        <ele>16.269</ele>
        <time>2016-09-22T11:07:09Z</time>
      </trkpt>
      <trkpt lat="43.553294" lon="-8.299694">
        <ele>15.489</ele>
        <time>2016-09-22T11:07:14Z</time>
      </trkpt>
      <trkpt lat="43.553387" lon="-8.299684">
        <ele>15.231</ele>
        <time>2016-09-22T11:07:16Z</time>
      </trkpt>
      <trkpt lat="43.553481" lon="-8.299670">
        <ele>15.033</ele>
        <time>2016-09-22T11:07:18Z</time>
      </trkpt>
      <trkpt lat="43.553617" lon="-8.299705">
        <ele>14.476</ele>
        <time>2016-09-22T11:07:21Z</time>
      </trkpt>
      <trkpt lat="43.553662" lon="-8.299717">
        <ele>14.490</ele>
        <time>2016-09-22T11:07:22Z</time>
      </trkpt>
      <trkpt lat="43.553791" lon="-8.299693">
        <ele>14.419</ele>
        <time>2016-09-22T11:07:25Z</time>
      </trkpt>
      <trkpt lat="43.553872" lon="-8.299646">
        <ele>14.408</ele>
        <time>2016-09-22T11:07:27Z</time>
      </trkpt>
      <trkpt lat="43.553914" lon="-8.299630">
        <ele>14.278</ele>
        <time>2016-09-22T11:07:28Z</time>
      </trkpt>
      <trkpt lat="43.554003" lon="-8.299625">
        <ele>14.022</ele>
        <time>2016-09-22T11:07:30Z</time>
      </trkpt>
      <trkpt lat="43.554085" lon="-8.299634">
        <ele>13.837</ele>
        <time>2016-09-22T11:07:32Z</time>
      </trkpt>
      <trkpt lat="43.554247" lon="-8.299629">
        <ele>14.085</ele>
        <time>2016-09-22T11:07:36Z</time>
      </trkpt>
      <trkpt lat="43.554289" lon="-8.299614">
        <ele>13.863</ele>
        <time>2016-09-22T11:07:37Z</time>
      </trkpt>
      <trkpt lat="43.554405" lon="-8.299515">
        <ele>13.023</ele>
        <time>2016-09-22T11:07:40Z</time>
      </trkpt>
      <trkpt lat="43.554582" lon="-8.299396">
        <ele>12.235</ele>
        <time>2016-09-22T11:07:44Z</time>
      </trkpt>
      <trkpt lat="43.554778" lon="-8.299328">
        <ele>12.057</ele>
        <time>2016-09-22T11:07:48Z</time>
      </trkpt>
      <trkpt lat="43.554868" lon="-8.299273">
        <ele>12.091</ele>
        <time>2016-09-22T11:07:50Z</time>
      </trkpt>
      <trkpt lat="43.554914" lon="-8.299251">
        <ele>12.081</ele>
        <time>2016-09-22T11:07:51Z</time>
      </trkpt>
      <trkpt lat="43.555064" lon="-8.299240">
        <ele>11.619</ele>
        <time>2016-09-22T11:07:54Z</time>
      </trkpt>
      <trkpt lat="43.555117" lon="-8.299241">
        <ele>11.408</ele>
        <time>2016-09-22T11:07:55Z</time>
      </trkpt>
      <trkpt lat="43.555384" lon="-8.299202">
        <ele>11.620</ele>
        <time>2016-09-22T11:08:00Z</time>
      </trkpt>
      <trkpt lat="43.555677" lon="-8.299159">
        <ele>10.684</ele>
        <time>2016-09-22T11:08:06Z</time>
      </trkpt>
      <trkpt lat="43.555722" lon="-8.299143">
        <ele>10.419</ele>
        <time>2016-09-22T11:08:07Z</time>
      </trkpt>
      <trkpt lat="43.555810" lon="-8.299102">
        <ele>9.857</ele>
        <time>2016-09-22T11:08:09Z</time>
      </trkpt>
      <trkpt lat="43.555888" lon="-8.299036">
        <ele>9.825</ele>
        <time>2016-09-22T11:08:11Z</time>
      </trkpt>
      <trkpt lat="43.555922" lon="-8.298992">
        <ele>9.815</ele>
        <time>2016-09-22T11:08:12Z</time>
      </trkpt>
      <trkpt lat="43.555992" lon="-8.298895">
        <ele>9.697</ele>
        <time>2016-09-22T11:08:14Z</time>
      </trkpt>
      <trkpt lat="43.556088" lon="-8.298840">
        <ele>9.619</ele>
        <time>2016-09-22T11:08:16Z</time>
      </trkpt>
      <trkpt lat="43.556268" lon="-8.298883">
        <ele>8.879</ele>
        <time>2016-09-22T11:08:20Z</time>
      </trkpt>
      <trkpt lat="43.556334" lon="-8.299027">
        <ele>8.405</ele>
        <time>2016-09-22T11:08:23Z</time>
      </trkpt>
      <trkpt lat="43.556307" lon="-8.299168">
        <ele>7.425</ele>
        <time>2016-09-22T11:08:26Z</time>
      </trkpt>
      <trkpt lat="43.556301" lon="-8.299208">
        <ele>7.408</ele>
        <time>2016-09-22T11:08:27Z</time>
      </trkpt>
      <trkpt lat="43.556295" lon="-8.299246">
        <ele>7.218</ele>
        <time>2016-09-22T11:08:28Z</time>
      </trkpt>
      <trkpt lat="43.556247" lon="-8.299467">
        <ele>6.262</ele>
        <time>2016-09-22T11:08:34Z</time>
      </trkpt>
      <trkpt lat="43.556247" lon="-8.299499">
        <ele>6.077</ele>
        <time>2016-09-22T11:08:35Z</time>
      </trkpt>
      <trkpt lat="43.556237" lon="-8.299607">
        <ele>5.265</ele>
        <time>2016-09-22T11:08:38Z</time>
      </trkpt>
      <trkpt lat="43.556211" lon="-8.299676">
        <ele>4.253</ele>
        <time>2016-09-22T11:08:40Z</time>
      </trkpt>
      <trkpt lat="43.556199" lon="-8.299705">
        <ele>3.873</ele>
        <time>2016-09-22T11:08:41Z</time>
      </trkpt>
      <trkpt lat="43.556125" lon="-8.299832">
        <ele>2.845</ele>
        <time>2016-09-22T11:08:46Z</time>
      </trkpt>
      <trkpt lat="43.556108" lon="-8.299850">
        <ele>2.497</ele>
        <time>2016-09-22T11:08:47Z</time>
      </trkpt>
      <trkpt lat="43.556060" lon="-8.299925">
        <ele>1.429</ele>
        <time>2016-09-22T11:08:51Z</time>
      </trkpt>
      <trkpt lat="43.556045" lon="-8.300005">
        <ele>1.000</ele>
        <time>2016-09-22T11:08:54Z</time>
      </trkpt>
      <trkpt lat="43.556057" lon="-8.300027">
        <ele>0.820</ele>
        <time>2016-09-22T11:08:55Z</time>
      </trkpt>
      <trkpt lat="43.556121" lon="-8.300060">
        <ele>0.408</ele>
        <time>2016-09-22T11:08:58Z</time>
      </trkpt>
      <trkpt lat="43.556144" lon="-8.300073">
        <ele>0.093</ele>
        <time>2016-09-22T11:08:59Z</time>
      </trkpt>
      <trkpt lat="43.556228" lon="-8.300183">
        <ele>-0.447</ele>
        <time>2016-09-22T11:09:04Z</time>
      </trkpt>
      <trkpt lat="43.556315" lon="-8.300322">
        <ele>-0.422</ele>
        <time>2016-09-22T11:09:10Z</time>
      </trkpt>
      <trkpt lat="43.556415" lon="-8.300391">
        <ele>-0.610</ele>
        <time>2016-09-22T11:09:15Z</time>
      </trkpt>
      <trkpt lat="43.556434" lon="-8.300409">
        <ele>-0.618</ele>
        <time>2016-09-22T11:09:16Z</time>
      </trkpt>
      <trkpt lat="43.556578" lon="-8.300524">
        <ele>-0.668</ele>
        <time>2016-09-22T11:09:23Z</time>
      </trkpt>
      <trkpt lat="43.556675" lon="-8.300609">
        <ele>-0.440</ele>
        <time>2016-09-22T11:09:29Z</time>
      </trkpt>
      <trkpt lat="43.556700" lon="-8.300654">
        <ele>-0.472</ele>
        <time>2016-09-22T11:09:31Z</time>
      </trkpt>
      <trkpt lat="43.556729" lon="-8.300751">
        <ele>0.237</ele>
        <time>2016-09-22T11:09:35Z</time>
      </trkpt>
      <trkpt lat="43.556733" lon="-8.300942">
        <ele>1.249</ele>
        <time>2016-09-22T11:09:42Z</time>
      </trkpt>
      <trkpt lat="43.556723" lon="-8.301020">
        <ele>1.413</ele>
        <time>2016-09-22T11:09:45Z</time>
      </trkpt>
      <trkpt lat="43.556731" lon="-8.301143">
        <ele>2.208</ele>
        <time>2016-09-22T11:09:50Z</time>
      </trkpt>
      <trkpt lat="43.556748" lon="-8.301180">
        <ele>2.644</ele>
        <time>2016-09-22T11:09:52Z</time>
      </trkpt>
      <trkpt lat="43.556798" lon="-8.301231">
        <ele>3.228</ele>
        <time>2016-09-22T11:09:56Z</time>
      </trkpt>
      <trkpt lat="43.556826" lon="-8.301255">
        <ele>3.683</ele>
        <time>2016-09-22T11:09:58Z</time>
      </trkpt>
      <trkpt lat="43.556880" lon="-8.301302">
        <ele>4.881</ele>
        <time>2016-09-22T11:10:03Z</time>
      </trkpt>
      <trkpt lat="43.556950" lon="-8.301362">
        <ele>6.049</ele>
        <time>2016-09-22T11:10:09Z</time>
      </trkpt>
      <trkpt lat="43.556972" lon="-8.301378">
        <ele>6.259</ele>
        <time>2016-09-22T11:10:11Z</time>
      </trkpt>
      <trkpt lat="43.557021" lon="-8.301422">
        <ele>7.031</ele>
        <time>2016-09-22T11:10:15Z</time>
      </trkpt>
      <trkpt lat="43.557059" lon="-8.301442">
        <ele>8.013</ele>
        <time>2016-09-22T11:10:18Z</time>
      </trkpt>
      <trkpt lat="43.557119" lon="-8.301451">
        <ele>9.269</ele>
        <time>2016-09-22T11:10:23Z</time>
      </trkpt>
      <trkpt lat="43.557166" lon="-8.301451">
        <ele>9.804</ele>
        <time>2016-09-22T11:10:26Z</time>
      </trkpt>
      <trkpt lat="43.557181" lon="-8.301449">
        <ele>10.224</ele>
        <time>2016-09-22T11:10:27Z</time>
      </trkpt>
      <trkpt lat="43.557261" lon="-8.301441">
        <ele>11.608</ele>
        <time>2016-09-22T11:10:32Z</time>
      </trkpt>
      <trkpt lat="43.557309" lon="-8.301438">
        <ele>12.087</ele>
        <time>2016-09-22T11:10:35Z</time>
      </trkpt>
      <trkpt lat="43.557344" lon="-8.301436">
        <ele>12.421</ele>
        <time>2016-09-22T11:10:37Z</time>
      </trkpt>
      <trkpt lat="43.557427" lon="-8.301460">
        <ele>13.656</ele>
        <time>2016-09-22T11:10:42Z</time>
      </trkpt>
      <trkpt lat="43.557447" lon="-8.301471">
        <ele>13.864</ele>
        <time>2016-09-22T11:10:43Z</time>
      </trkpt>
      <trkpt lat="43.557577" lon="-8.301588">
        <ele>14.682</ele>
        <time>2016-09-22T11:10:48Z</time>
      </trkpt>
      <trkpt lat="43.557704" lon="-8.301768">
        <ele>15.212</ele>
        <time>2016-09-22T11:10:54Z</time>
      </trkpt>
      <trkpt lat="43.557844" lon="-8.302066">
        <ele>15.284</ele>
        <time>2016-09-22T11:11:01Z</time>
      </trkpt>
      <trkpt lat="43.557954" lon="-8.302293">
        <ele>15.256</ele>
        <time>2016-09-22T11:11:08Z</time>
      </trkpt>
      <trkpt lat="43.558044" lon="-8.302524">
        <ele>15.821</ele>
        <time>2016-09-22T11:11:16Z</time>
      </trkpt>
      <trkpt lat="43.558062" lon="-8.302569">
        <ele>16.041</ele>
        <time>2016-09-22T11:11:18Z</time>
      </trkpt>
      <trkpt lat="43.558092" lon="-8.302639">
        <ele>16.805</ele>
        <time>2016-09-22T11:11:21Z</time>
      </trkpt>
      <trkpt lat="43.558138" lon="-8.302775">
        <ele>17.608</ele>
        <time>2016-09-22T11:11:26Z</time>
      </trkpt>
      <trkpt lat="43.558144" lon="-8.302804">
        <ele>17.813</ele>
        <time>2016-09-22T11:11:27Z</time>
      </trkpt>
      <trkpt lat="43.558153" lon="-8.302958">
        <ele>18.827</ele>
        <time>2016-09-22T11:11:32Z</time>
      </trkpt>
      <trkpt lat="43.558156" lon="-8.303021">
        <ele>19.052</ele>
        <time>2016-09-22T11:11:34Z</time>
      </trkpt>
      <trkpt lat="43.558173" lon="-8.303314">
        <ele>19.810</ele>
        <time>2016-09-22T11:11:41Z</time>
      </trkpt>
      <trkpt lat="43.558187" lon="-8.303442">
        <ele>19.438</ele>
        <time>2016-09-22T11:11:43Z</time>
      </trkpt>
      <trkpt lat="43.558170" lon="-8.303585">
        <ele>19.098</ele>
        <time>2016-09-22T11:11:45Z</time>
      </trkpt>
      <trkpt lat="43.558176" lon="-8.303825">
        <ele>18.810</ele>
        <time>2016-09-22T11:11:49Z</time>
      </trkpt>
      <trkpt lat="43.558264" lon="-8.303910">
        <ele>18.852</ele>
        <time>2016-09-22T11:11:52Z</time>
      </trkpt>
      <trkpt lat="43.558306" lon="-8.303936">
        <ele>18.845</ele>
        <time>2016-09-22T11:11:53Z</time>
      </trkpt>
      <trkpt lat="43.558504" lon="-8.304104">
        <ele>18.047</ele>
        <time>2016-09-22T11:11:57Z</time>
      </trkpt>
      <trkpt lat="43.558555" lon="-8.304162">
        <ele>17.611</ele>
        <time>2016-09-22T11:11:58Z</time>
      </trkpt>
      <trkpt lat="43.558710" lon="-8.304335">
        <ele>16.808</ele>
        <time>2016-09-22T11:12:01Z</time>
      </trkpt>
      <trkpt lat="43.558823" lon="-8.304432">
        <ele>16.435</ele>
        <time>2016-09-22T11:12:03Z</time>
      </trkpt>
      <trkpt lat="43.559200" lon="-8.304752">
        <ele>15.229</ele>
        <time>2016-09-22T11:12:10Z</time>
      </trkpt>
      <trkpt lat="43.559254" lon="-8.304795">
        <ele>15.054</ele>
        <time>2016-09-22T11:12:11Z</time>
      </trkpt>
      <trkpt lat="43.559449" lon="-8.304939">
        <ele>14.842</ele>
        <time>2016-09-22T11:12:15Z</time>
      </trkpt>
      <trkpt lat="43.559490" lon="-8.304963">
        <ele>14.870</ele>
        <time>2016-09-22T11:12:16Z</time>
      </trkpt>
      <trkpt lat="43.559561" lon="-8.304960">
        <ele>14.810</ele>
        <time>2016-09-22T11:12:18Z</time>
      </trkpt>
      <trkpt lat="43.559614" lon="-8.304915">
        <ele>14.642</ele>
        <time>2016-09-22T11:12:20Z</time>
      </trkpt>
      <trkpt lat="43.559716" lon="-8.304820">
        <ele>14.624</ele>
        <time>2016-09-22T11:12:23Z</time>
      </trkpt>
      <trkpt lat="43.559867" lon="-8.304701">
        <ele>14.846</ele>
        <time>2016-09-22T11:12:27Z</time>
      </trkpt>
      <trkpt lat="43.559946" lon="-8.304677">
        <ele>14.688</ele>
        <time>2016-09-22T11:12:29Z</time>
      </trkpt>
      <trkpt lat="43.560092" lon="-8.304629">
        <ele>13.616</ele>
        <time>2016-09-22T11:12:33Z</time>
      </trkpt>
      <trkpt lat="43.560187" lon="-8.304613">
        <ele>13.208</ele>
        <time>2016-09-22T11:12:36Z</time>
      </trkpt>
      <trkpt lat="43.560362" lon="-8.304669">
        <ele>13.645</ele>
        <time>2016-09-22T11:12:41Z</time>
      </trkpt>
      <trkpt lat="43.560524" lon="-8.304810">
        <ele>13.879</ele>
        <time>2016-09-22T11:12:46Z</time>
      </trkpt>
      <trkpt lat="43.560578" lon="-8.304891">
        <ele>14.014</ele>
        <time>2016-09-22T11:12:48Z</time>
      </trkpt>
      <trkpt lat="43.560642" lon="-8.305061">
        <ele>14.092</ele>
        <time>2016-09-22T11:12:52Z</time>
      </trkpt>
      <trkpt lat="43.560717" lon="-8.305084">
        <ele>14.070</ele>
        <time>2016-09-22T11:12:55Z</time>
      </trkpt>
      <trkpt lat="43.560793" lon="-8.305190">
        <ele>14.240</ele>
        <time>2016-09-22T11:12:59Z</time>
      </trkpt>
      <trkpt lat="43.560821" lon="-8.305274">
        <ele>14.632</ele>
        <time>2016-09-22T11:13:02Z</time>
      </trkpt>
      <trkpt lat="43.560841" lon="-8.305335">
        <ele>15.034</ele>
        <time>2016-09-22T11:13:04Z</time>
      </trkpt>
      <trkpt lat="43.560855" lon="-8.305370">
        <ele>15.468</ele>
        <time>2016-09-22T11:13:05Z</time>
      </trkpt>
      <trkpt lat="43.560909" lon="-8.305516">
        <ele>15.842</ele>
        <time>2016-09-22T11:13:09Z</time>
      </trkpt>
      <trkpt lat="43.560981" lon="-8.305690">
        <ele>16.426</ele>
        <time>2016-09-22T11:13:14Z</time>
      </trkpt>
      <trkpt lat="43.561052" lon="-8.305812">
        <ele>16.608</ele>
        <time>2016-09-22T11:13:18Z</time>
      </trkpt>
      <trkpt lat="43.561106" lon="-8.305898">
        <ele>17.017</ele>
        <time>2016-09-22T11:13:22Z</time>
      </trkpt>
      <trkpt lat="43.561131" lon="-8.305935">
        <ele>17.611</ele>
        <time>2016-09-22T11:13:24Z</time>
      </trkpt>
      <trkpt lat="43.561200" lon="-8.306046">
        <ele>18.616</ele>
        <time>2016-09-22T11:13:29Z</time>
      </trkpt>
      <trkpt lat="43.561216" lon="-8.306065">
        <ele>18.834</ele>
        <time>2016-09-22T11:13:30Z</time>
      </trkpt>
      <trkpt lat="43.561287" lon="-8.306145">
        <ele>19.892</ele>
        <time>2016-09-22T11:13:35Z</time>
      </trkpt>
      <trkpt lat="43.561299" lon="-8.306160">
        <ele>20.012</ele>
        <time>2016-09-22T11:13:36Z</time>
      </trkpt>
      <trkpt lat="43.561322" lon="-8.306195">
        <ele>20.454</ele>
        <time>2016-09-22T11:13:38Z</time>
      </trkpt>
      <trkpt lat="43.561351" lon="-8.306226">
        <ele>21.066</ele>
        <time>2016-09-22T11:13:40Z</time>
      </trkpt>
      <trkpt lat="43.561411" lon="-8.306292">
        <ele>22.295</ele>
        <time>2016-09-22T11:13:44Z</time>
      </trkpt>
      <trkpt lat="43.561448" lon="-8.306350">
        <ele>22.849</ele>
        <time>2016-09-22T11:13:47Z</time>
      </trkpt>
      <trkpt lat="43.561468" lon="-8.306392">
        <ele>23.423</ele>
        <time>2016-09-22T11:13:49Z</time>
      </trkpt>
      <trkpt lat="43.561519" lon="-8.306477">
        <ele>24.208</ele>
        <time>2016-09-22T11:13:53Z</time>
      </trkpt>
      <trkpt lat="43.561542" lon="-8.306532">
        <ele>24.480</ele>
        <time>2016-09-22T11:13:55Z</time>
      </trkpt>
      <trkpt lat="43.561594" lon="-8.306643">
        <ele>25.254</ele>
        <time>2016-09-22T11:13:59Z</time>
      </trkpt>
      <trkpt lat="43.561607" lon="-8.306677">
        <ele>25.699</ele>
        <time>2016-09-22T11:14:00Z</time>
      </trkpt>
      <trkpt lat="43.561692" lon="-8.306893">
        <ele>26.687</ele>
        <time>2016-09-22T11:14:07Z</time>
      </trkpt>
      <trkpt lat="43.561791" lon="-8.307116">
        <ele>27.615</ele>
        <time>2016-09-22T11:14:14Z</time>
      </trkpt>
      <trkpt lat="43.561822" lon="-8.307170">
        <ele>27.635</ele>
        <time>2016-09-22T11:14:16Z</time>
      </trkpt>
      <trkpt lat="43.561903" lon="-8.307297">
        <ele>28.617</ele>
        <time>2016-09-22T11:14:21Z</time>
      </trkpt>
      <trkpt lat="43.562026" lon="-8.307511">
        <ele>28.079</ele>
        <time>2016-09-22T11:14:26Z</time>
      </trkpt>
      <trkpt lat="43.562116" lon="-8.307658">
        <ele>27.478</ele>
        <time>2016-09-22T11:14:29Z</time>
      </trkpt>
      <trkpt lat="43.562174" lon="-8.307731">
        <ele>27.033</ele>
        <time>2016-09-22T11:14:31Z</time>
      </trkpt>
      <trkpt lat="43.562228" lon="-8.307862">
        <ele>26.826</ele>
        <time>2016-09-22T11:14:35Z</time>
      </trkpt>
      <trkpt lat="43.562285" lon="-8.308082">
        <ele>27.608</ele>
        <time>2016-09-22T11:14:41Z</time>
      </trkpt>
      <trkpt lat="43.562338" lon="-8.308244">
        <ele>29.088</ele>
        <time>2016-09-22T11:14:46Z</time>
      </trkpt>
      <trkpt lat="43.562350" lon="-8.308264">
        <ele>29.242</ele>
        <time>2016-09-22T11:14:47Z</time>
      </trkpt>
      <trkpt lat="43.562384" lon="-8.308309">
        <ele>30.037</ele>
        <time>2016-09-22T11:14:50Z</time>
      </trkpt>
      <trkpt lat="43.562423" lon="-8.308381">
        <ele>30.685</ele>
        <time>2016-09-22T11:14:54Z</time>
      </trkpt>
      <trkpt lat="43.562442" lon="-8.308420">
        <ele>31.093</ele>
        <time>2016-09-22T11:14:56Z</time>
      </trkpt>
      <trkpt lat="43.562467" lon="-8.308489">
        <ele>32.243</ele>
        <time>2016-09-22T11:14:59Z</time>
      </trkpt>
      <trkpt lat="43.562473" lon="-8.308518">
        <ele>32.465</ele>
        <time>2016-09-22T11:15:00Z</time>
      </trkpt>
      <trkpt lat="43.562527" lon="-8.308670">
        <ele>33.227</ele>
        <time>2016-09-22T11:15:05Z</time>
      </trkpt>
      <trkpt lat="43.562528" lon="-8.308717">
        <ele>33.254</ele>
        <time>2016-09-22T11:15:06Z</time>
      </trkpt>
      <trkpt lat="43.562507" lon="-8.308890">
        <ele>33.456</ele>
        <time>2016-09-22T11:15:10Z</time>
      </trkpt>
      <trkpt lat="43.562503" lon="-8.308933">
        <ele>33.411</ele>
        <time>2016-09-22T11:15:11Z</time>
      </trkpt>
      <trkpt lat="43.562485" lon="-8.309230">
        <ele>33.608</ele>
        <time>2016-09-22T11:15:18Z</time>
      </trkpt>
      <trkpt lat="43.562418" lon="-8.309416">
        <ele>34.236</ele>
        <time>2016-09-22T11:15:24Z</time>
      </trkpt>
      <trkpt lat="43.562402" lon="-8.309432">
        <ele>34.230</ele>
        <time>2016-09-22T11:15:25Z</time>
      </trkpt>
      <trkpt lat="43.562328" lon="-8.309505">
        <ele>35.255</ele>
        <time>2016-09-22T11:15:30Z</time>
      </trkpt>
      <trkpt lat="43.562314" lon="-8.309519">
        <ele>35.643</ele>
        <time>2016-09-22T11:15:31Z</time>
      </trkpt>
      <trkpt lat="43.562257" lon="-8.309564">
        <ele>36.651</ele>
        <time>2016-09-22T11:15:35Z</time>
      </trkpt>
      <trkpt lat="43.562233" lon="-8.309590">
        <ele>37.031</ele>
        <time>2016-09-22T11:15:37Z</time>
      </trkpt>
      <trkpt lat="43.562206" lon="-8.309634">
        <ele>37.833</ele>
        <time>2016-09-22T11:15:40Z</time>
      </trkpt>
      <trkpt lat="43.562173" lon="-8.309663">
        <ele>38.845</ele>
        <time>2016-09-22T11:15:43Z</time>
      </trkpt>
      <trkpt lat="43.562162" lon="-8.309675">
        <ele>39.088</ele>
        <time>2016-09-22T11:15:44Z</time>
      </trkpt>
      <trkpt lat="43.562122" lon="-8.309729">
        <ele>40.024</ele>
        <time>2016-09-22T11:15:48Z</time>
      </trkpt>
      <trkpt lat="43.562109" lon="-8.309744">
        <ele>40.426</ele>
        <time>2016-09-22T11:15:49Z</time>
      </trkpt>
      <trkpt lat="43.562055" lon="-8.309793">
        <ele>41.408</ele>
        <time>2016-09-22T11:15:53Z</time>
      </trkpt>
      <trkpt lat="43.562039" lon="-8.309832">
        <ele>41.819</ele>
        <time>2016-09-22T11:15:55Z</time>
      </trkpt>
      <trkpt lat="43.562053" lon="-8.309989">
        <ele>42.083</ele>
        <time>2016-09-22T11:15:59Z</time>
      </trkpt>
      <trkpt lat="43.562143" lon="-8.310119">
        <ele>41.638</ele>
        <time>2016-09-22T11:16:02Z</time>
      </trkpt>
      <trkpt lat="43.562264" lon="-8.310104">
        <ele>41.226</ele>
        <time>2016-09-22T11:16:05Z</time>
      </trkpt>
      <trkpt lat="43.562537" lon="-8.310006">
        <ele>40.634</ele>
        <time>2016-09-22T11:16:13Z</time>
      </trkpt>
      <trkpt lat="43.562793" lon="-8.309897">
        <ele>40.834</ele>
        <time>2016-09-22T11:16:20Z</time>
      </trkpt>
      <trkpt lat="43.562966" lon="-8.309901">
        <ele>41.866</ele>
        <time>2016-09-22T11:16:25Z</time>
      </trkpt>
      <trkpt lat="43.563014" lon="-8.309953">
        <ele>42.428</ele>
        <time>2016-09-22T11:16:27Z</time>
      </trkpt>
      <trkpt lat="43.563029" lon="-8.309993">
        <ele>42.693</ele>
        <time>2016-09-22T11:16:28Z</time>
      </trkpt>
      <trkpt lat="43.563063" lon="-8.310107">
        <ele>43.065</ele>
        <time>2016-09-22T11:16:31Z</time>
      </trkpt>
      <trkpt lat="43.563099" lon="-8.310220">
        <ele>43.221</ele>
        <time>2016-09-22T11:16:34Z</time>
      </trkpt>
      <trkpt lat="43.563110" lon="-8.310258">
        <ele>43.408</ele>
        <time>2016-09-22T11:16:35Z</time>
      </trkpt>
      <trkpt lat="43.563199" lon="-8.310405">
        <ele>44.450</ele>
        <time>2016-09-22T11:16:40Z</time>
      </trkpt>
      <trkpt lat="43.563257" lon="-8.310470">
        <ele>45.654</ele>
        <time>2016-09-22T11:16:43Z</time>
      </trkpt>
      <trkpt lat="43.563296" lon="-8.310494">
        <ele>46.469</ele>
        <time>2016-09-22T11:16:45Z</time>
      </trkpt>
      <trkpt lat="43.563314" lon="-8.310498">
        <ele>46.687</ele>
        <time>2016-09-22T11:16:46Z</time>
      </trkpt>
      <trkpt lat="43.563401" lon="-8.310537">
        <ele>47.415</ele>
        <time>2016-09-22T11:16:50Z</time>
      </trkpt>
      <trkpt lat="43.563449" lon="-8.310565">
        <ele>47.865</ele>
        <time>2016-09-22T11:16:52Z</time>
      </trkpt>
      <trkpt lat="43.563614" lon="-8.310658">
        <ele>48.657</ele>
        <time>2016-09-22T11:16:58Z</time>
      </trkpt>
      <trkpt lat="43.563720" lon="-8.310720">
        <ele>49.069</ele>
        <time>2016-09-22T11:17:02Z</time>
      </trkpt>
      <trkpt lat="43.563812" lon="-8.310810">
        <ele>49.691</ele>
        <time>2016-09-22T11:17:06Z</time>
      </trkpt>
      <trkpt lat="43.563852" lon="-8.310863">
        <ele>50.081</ele>
        <time>2016-09-22T11:17:08Z</time>
      </trkpt>
      <trkpt lat="43.563936" lon="-8.311011">
        <ele>51.219</ele>
        <time>2016-09-22T11:17:13Z</time>
      </trkpt>
      <trkpt lat="43.563953" lon="-8.311039">
        <ele>51.208</ele>
        <time>2016-09-22T11:17:14Z</time>
      </trkpt>
      <trkpt lat="43.564016" lon="-8.311161">
        <ele>52.260</ele>
        <time>2016-09-22T11:17:18Z</time>
      </trkpt>
      <trkpt lat="43.564074" lon="-8.311287">
        <ele>53.234</ele>
        <time>2016-09-22T11:17:22Z</time>
      </trkpt>
      <trkpt lat="43.564088" lon="-8.311319">
        <ele>53.469</ele>
        <time>2016-09-22T11:17:23Z</time>
      </trkpt>
      <trkpt lat="43.564223" lon="-8.311537">
        <ele>54.687</ele>
        <time>2016-09-22T11:17:30Z</time>
      </trkpt>
      <trkpt lat="43.564352" lon="-8.311586">
        <ele>55.815</ele>
        <time>2016-09-22T11:17:35Z</time>
      </trkpt>
      <trkpt lat="43.564379" lon="-8.311589">
        <ele>56.225</ele>
        <time>2016-09-22T11:17:36Z</time>
      </trkpt>
      <trkpt lat="43.564573" lon="-8.311580">
        <ele>57.087</ele>
        <time>2016-09-22T11:17:43Z</time>
      </trkpt>
      <trkpt lat="43.564634" lon="-8.311579">
        <ele>57.099</ele>
        <time>2016-09-22T11:17:45Z</time>
      </trkpt>
      <trkpt lat="43.564754" lon="-8.311575">
        <ele>58.029</ele>
        <time>2016-09-22T11:17:49Z</time>
      </trkpt>
      <trkpt lat="43.564864" lon="-8.311590">
        <ele>58.400</ele>
        <time>2016-09-22T11:17:53Z</time>
      </trkpt>
      <trkpt lat="43.564943" lon="-8.311618">
        <ele>59.020</ele>
        <time>2016-09-22T11:17:56Z</time>
      </trkpt>
      <trkpt lat="43.565021" lon="-8.311660">
        <ele>60.008</ele>
        <time>2016-09-22T11:17:59Z</time>
      </trkpt>
      <trkpt lat="43.565095" lon="-8.311702">
        <ele>61.013</ele>
        <time>2016-09-22T11:18:02Z</time>
      </trkpt>
      <trkpt lat="43.565257" lon="-8.311808">
        <ele>61.847</ele>
        <time>2016-09-22T11:18:09Z</time>
      </trkpt>
      <trkpt lat="43.565295" lon="-8.311844">
        <ele>62.212</ele>
        <time>2016-09-22T11:18:11Z</time>
      </trkpt>
      <trkpt lat="43.565375" lon="-8.311895">
        <ele>63.420</ele>
        <time>2016-09-22T11:18:15Z</time>
      </trkpt>
      <trkpt lat="43.565477" lon="-8.311948">
        <ele>64.468</ele>
        <time>2016-09-22T11:18:20Z</time>
      </trkpt>
      <trkpt lat="43.565497" lon="-8.311960">
        <ele>64.688</ele>
        <time>2016-09-22T11:18:21Z</time>
      </trkpt>
      <trkpt lat="43.565555" lon="-8.312003">
        <ele>65.680</ele>
        <time>2016-09-22T11:18:24Z</time>
      </trkpt>
      <trkpt lat="43.565635" lon="-8.312040">
        <ele>66.872</ele>
        <time>2016-09-22T11:18:28Z</time>
      </trkpt>
      <trkpt lat="43.565656" lon="-8.312052">
        <ele>66.867</ele>
        <time>2016-09-22T11:18:29Z</time>
      </trkpt>
      <trkpt lat="43.565734" lon="-8.312106">
        <ele>68.081</ele>
        <time>2016-09-22T11:18:33Z</time>
      </trkpt>
      <trkpt lat="43.565810" lon="-8.312153">
        <ele>69.019</ele>
        <time>2016-09-22T11:18:37Z</time>
      </trkpt>
      <trkpt lat="43.565903" lon="-8.312221">
        <ele>70.008</ele>
        <time>2016-09-22T11:18:42Z</time>
      </trkpt>
      <trkpt lat="43.565941" lon="-8.312253">
        <ele>70.237</ele>
        <time>2016-09-22T11:18:44Z</time>
      </trkpt>
      <trkpt lat="43.566011" lon="-8.312328">
        <ele>71.281</ele>
        <time>2016-09-22T11:18:48Z</time>
      </trkpt>
      <trkpt lat="43.566087" lon="-8.312396">
        <ele>72.036</ele>
        <time>2016-09-22T11:18:52Z</time>
      </trkpt>
      <trkpt lat="43.566105" lon="-8.312413">
        <ele>72.014</ele>
        <time>2016-09-22T11:18:53Z</time>
      </trkpt>
      <trkpt lat="43.566192" lon="-8.312509">
        <ele>73.282</ele>
        <time>2016-09-22T11:18:58Z</time>
      </trkpt>
      <trkpt lat="43.566228" lon="-8.312551">
        <ele>73.672</ele>
        <time>2016-09-22T11:19:00Z</time>
      </trkpt>
      <trkpt lat="43.566298" lon="-8.312622">
        <ele>74.234</ele>
        <time>2016-09-22T11:19:04Z</time>
      </trkpt>
      <trkpt lat="43.566345" lon="-8.312681">
        <ele>74.466</ele>
        <time>2016-09-22T11:19:07Z</time>
      </trkpt>
      <trkpt lat="43.566382" lon="-8.312718">
        <ele>75.047</ele>
        <time>2016-09-22T11:19:12Z</time>
      </trkpt>
      <trkpt lat="43.566761" lon="-8.313386">
        <ele>76.629</ele>
        <time>2016-09-22T11:21:34Z</time>
      </trkpt>
      <trkpt lat="43.566795" lon="-8.313431">
        <ele>76.821</ele>
        <time>2016-09-22T11:21:37Z</time>
      </trkpt>
      <trkpt lat="43.566869" lon="-8.313547">
        <ele>77.408</ele>
        <time>2016-09-22T11:21:43Z</time>
      </trkpt>
      <trkpt lat="43.566906" lon="-8.313587">
        <ele>77.655</ele>
        <time>2016-09-22T11:21:45Z</time>
      </trkpt>
      <trkpt lat="43.566990" lon="-8.313691">
        <ele>78.699</ele>
        <time>2016-09-22T11:21:50Z</time>
      </trkpt>
      <trkpt lat="43.567003" lon="-8.313713">
        <ele>78.864</ele>
        <time>2016-09-22T11:21:51Z</time>
      </trkpt>
      <trkpt lat="43.567103" lon="-8.313844">
        <ele>79.612</ele>
        <time>2016-09-22T11:21:57Z</time>
      </trkpt>
      <trkpt lat="43.567134" lon="-8.313884">
        <ele>80.020</ele>
        <time>2016-09-22T11:21:59Z</time>
      </trkpt>
      <trkpt lat="43.567168" lon="-8.313936">
        <ele>80.620</ele>
        <time>2016-09-22T11:22:02Z</time>
      </trkpt>
      <trkpt lat="43.567208" lon="-8.313964">
        <ele>81.212</ele>
        <time>2016-09-22T11:22:05Z</time>
      </trkpt>
      <trkpt lat="43.567216" lon="-8.313978">
        <ele>81.234</ele>
        <time>2016-09-22T11:22:06Z</time>
      </trkpt>
      <trkpt lat="43.567244" lon="-8.314019">
        <ele>81.682</ele>
        <time>2016-09-22T11:22:10Z</time>
      </trkpt>
      <trkpt lat="43.567242" lon="-8.314019">
        <ele>81.643</ele>
        <time>2016-09-22T11:22:11Z</time>
      </trkpt>
      <trkpt lat="43.567276" lon="-8.314061">
        <ele>81.817</ele>
        <time>2016-09-22T11:22:19Z</time>
      </trkpt>
      <trkpt lat="43.567302" lon="-8.314090">
        <ele>82.208</ele>
        <time>2016-09-22T11:22:21Z</time>
      </trkpt>
      <trkpt lat="43.567356" lon="-8.314147">
        <ele>82.849</ele>
        <time>2016-09-22T11:22:26Z</time>
      </trkpt>
      <trkpt lat="43.567369" lon="-8.314152">
        <ele>83.073</ele>
        <time>2016-09-22T11:22:27Z</time>
      </trkpt>
      <trkpt lat="43.567423" lon="-8.314246">
        <ele>83.618</ele>
        <time>2016-09-22T11:22:32Z</time>
      </trkpt>
      <trkpt lat="43.567441" lon="-8.314297">
        <ele>83.676</ele>
        <time>2016-09-22T11:22:34Z</time>
      </trkpt>
      <trkpt lat="43.567458" lon="-8.314348">
        <ele>84.054</ele>
        <time>2016-09-22T11:22:36Z</time>
      </trkpt>
      <trkpt lat="43.567479" lon="-8.314421">
        <ele>84.644</ele>
        <time>2016-09-22T11:22:39Z</time>
      </trkpt>
      <trkpt lat="43.567493" lon="-8.314524">
        <ele>84.856</ele>
        <time>2016-09-22T11:22:44Z</time>
      </trkpt>
      <trkpt lat="43.567570" lon="-8.314666">
        <ele>84.688</ele>
        <time>2016-09-22T11:22:49Z</time>
      </trkpt>
      <trkpt lat="43.567623" lon="-8.314687">
        <ele>84.294</ele>
        <time>2016-09-22T11:22:51Z</time>
      </trkpt>
      <trkpt lat="43.567642" lon="-8.314683">
        <ele>84.057</ele>
        <time>2016-09-22T11:22:52Z</time>
      </trkpt>
      <trkpt lat="43.567697" lon="-8.314645">
        <ele>84.422</ele>
        <time>2016-09-22T11:22:58Z</time>
      </trkpt>
      <trkpt lat="43.567697" lon="-8.314602">
        <ele>84.608</ele>
        <time>2016-09-22T11:23:00Z</time>
      </trkpt>
      <trkpt lat="43.567737" lon="-8.314488">
        <ele>84.850</ele>
        <time>2016-09-22T11:23:05Z</time>
      </trkpt>
      <trkpt lat="43.567763" lon="-8.314400">
        <ele>84.494</ele>
        <time>2016-09-22T11:23:08Z</time>
      </trkpt>
      <trkpt lat="43.567757" lon="-8.314372">
        <ele>84.279</ele>
        <time>2016-09-22T11:23:09Z</time>
      </trkpt>
      <trkpt lat="43.567711" lon="-8.314254">
        <ele>84.027</ele>
        <time>2016-09-22T11:23:14Z</time>
      </trkpt>
      <trkpt lat="43.567697" lon="-8.314233">
        <ele>84.025</ele>
        <time>2016-09-22T11:23:15Z</time>
      </trkpt>
      <trkpt lat="43.567609" lon="-8.314149">
        <ele>84.295</ele>
        <time>2016-09-22T11:23:21Z</time>
      </trkpt>
      <trkpt lat="43.567597" lon="-8.314155">
        <ele>84.247</ele>
        <time>2016-09-22T11:23:22Z</time>
      </trkpt>
      <trkpt lat="43.567506" lon="-8.314208">
        <ele>84.099</ele>
        <time>2016-09-22T11:23:27Z</time>
      </trkpt>
      <trkpt lat="43.567354" lon="-8.314157">
        <ele>84.073</ele>
        <time>2016-09-22T11:23:32Z</time>
      </trkpt>
      <trkpt lat="43.567176" lon="-8.313941">
        <ele>83.085</ele>
        <time>2016-09-22T11:23:37Z</time>
      </trkpt>
      <trkpt lat="43.567134" lon="-8.313891">
        <ele>82.813</ele>
        <time>2016-09-22T11:23:38Z</time>
      </trkpt>
      <trkpt lat="43.567006" lon="-8.313743">
        <ele>81.408</ele>
        <time>2016-09-22T11:23:41Z</time>
      </trkpt>
      <trkpt lat="43.566926" lon="-8.313642">
        <ele>80.218</ele>
        <time>2016-09-22T11:23:43Z</time>
      </trkpt>
      <trkpt lat="43.566829" lon="-8.313573">
        <ele>79.412</ele>
        <time>2016-09-22T11:23:45Z</time>
      </trkpt>
      <trkpt lat="43.566775" lon="-8.313561">
        <ele>79.077</ele>
        <time>2016-09-22T11:23:46Z</time>
      </trkpt>
      <trkpt lat="43.566642" lon="-8.313545">
        <ele>78.865</ele>
        <time>2016-09-22T11:23:49Z</time>
      </trkpt>
      <trkpt lat="43.566580" lon="-8.313464">
        <ele>79.093</ele>
        <time>2016-09-22T11:23:52Z</time>
      </trkpt>
      <trkpt lat="43.566564" lon="-8.313434">
        <ele>78.863</ele>
        <time>2016-09-22T11:23:53Z</time>
      </trkpt>
      <trkpt lat="43.566444" lon="-8.313217">
        <ele>79.285</ele>
        <time>2016-09-22T11:24:00Z</time>
      </trkpt>
      <trkpt lat="43.566295" lon="-8.313000">
        <ele>79.847</ele>
        <time>2016-09-22T11:24:07Z</time>
      </trkpt>
      <trkpt lat="43.566218" lon="-8.312901">
        <ele>80.297</ele>
        <time>2016-09-22T11:24:10Z</time>
      </trkpt>
      <trkpt lat="43.566104" lon="-8.312767">
        <ele>80.223</ele>
        <time>2016-09-22T11:24:14Z</time>
      </trkpt>
      <trkpt lat="43.565927" lon="-8.312638">
        <ele>79.425</ele>
        <time>2016-09-22T11:24:20Z</time>
      </trkpt>
      <trkpt lat="43.565746" lon="-8.312644">
        <ele>79.808</ele>
        <time>2016-09-22T11:24:26Z</time>
      </trkpt>
      <trkpt lat="43.565669" lon="-8.312650">
        <ele>80.050</ele>
        <time>2016-09-22T11:24:31Z</time>
      </trkpt>
      <trkpt lat="43.565668" lon="-8.312648">
        <ele>79.864</ele>
        <time>2016-09-22T11:24:33Z</time>
      </trkpt>
      <trkpt lat="43.565656" lon="-8.312661">
        <ele>79.679</ele>
        <time>2016-09-22T11:26:33Z</time>
      </trkpt>
      <trkpt lat="43.565641" lon="-8.312666">
        <ele>79.827</ele>
        <time>2016-09-22T11:26:34Z</time>
      </trkpt>
      <trkpt lat="43.565513" lon="-8.312739">
        <ele>80.465</ele>
        <time>2016-09-22T11:26:41Z</time>
      </trkpt>
      <trkpt lat="43.565438" lon="-8.312812">
        <ele>80.445</ele>
        <time>2016-09-22T11:26:45Z</time>
      </trkpt>
      <trkpt lat="43.565353" lon="-8.312895">
        <ele>81.077</ele>
        <time>2016-09-22T11:26:49Z</time>
      </trkpt>
      <trkpt lat="43.565159" lon="-8.313003">
        <ele>82.069</ele>
        <time>2016-09-22T11:26:57Z</time>
      </trkpt>
      <trkpt lat="43.565048" lon="-8.313017">
        <ele>83.083</ele>
        <time>2016-09-22T11:27:02Z</time>
      </trkpt>
      <trkpt lat="43.565030" lon="-8.313022">
        <ele>83.225</ele>
        <time>2016-09-22T11:27:03Z</time>
      </trkpt>
      <trkpt lat="43.564962" lon="-8.313056">
        <ele>84.017</ele>
        <time>2016-09-22T11:27:07Z</time>
      </trkpt>
      <trkpt lat="43.564905" lon="-8.313103">
        <ele>84.608</ele>
        <time>2016-09-22T11:27:11Z</time>
      </trkpt>
      <trkpt lat="43.564860" lon="-8.313139">
        <ele>85.289</ele>
        <time>2016-09-22T11:27:15Z</time>
      </trkpt>
      <trkpt lat="43.564826" lon="-8.313166">
        <ele>86.473</ele>
        <time>2016-09-22T11:27:19Z</time>
      </trkpt>
      <trkpt lat="43.564826" lon="-8.313165">
        <ele>86.658</ele>
        <time>2016-09-22T11:27:21Z</time>
      </trkpt>
      <trkpt lat="43.564789" lon="-8.313254">
        <ele>87.046</ele>
        <time>2016-09-22T11:27:56Z</time>
      </trkpt>
      <trkpt lat="43.564779" lon="-8.313269">
        <ele>87.264</ele>
        <time>2016-09-22T11:27:57Z</time>
      </trkpt>
      <trkpt lat="43.564762" lon="-8.313303">
        <ele>87.494</ele>
        <time>2016-09-22T11:27:59Z</time>
      </trkpt>
      <trkpt lat="43.564752" lon="-8.313319">
        <ele>87.886</ele>
        <time>2016-09-22T11:28:00Z</time>
      </trkpt>
      <trkpt lat="43.564723" lon="-8.313363">
        <ele>88.648</ele>
        <time>2016-09-22T11:28:03Z</time>
      </trkpt>
      <trkpt lat="43.564713" lon="-8.313380">
        <ele>88.668</ele>
        <time>2016-09-22T11:28:04Z</time>
      </trkpt>
      <trkpt lat="43.564670" lon="-8.313469">
        <ele>89.642</ele>
        <time>2016-09-22T11:28:09Z</time>
      </trkpt>
      <trkpt lat="43.564647" lon="-8.313522">
        <ele>90.226</ele>
        <time>2016-09-22T11:28:12Z</time>
      </trkpt>
      <trkpt lat="43.564631" lon="-8.313557">
        <ele>90.608</ele>
        <time>2016-09-22T11:28:14Z</time>
      </trkpt>
      <trkpt lat="43.564565" lon="-8.313668">
        <ele>91.657</ele>
        <time>2016-09-22T11:28:21Z</time>
      </trkpt>
      <trkpt lat="43.564556" lon="-8.313684">
        <ele>91.881</ele>
        <time>2016-09-22T11:28:22Z</time>
      </trkpt>
      <trkpt lat="43.564505" lon="-8.313758">
        <ele>93.236</ele>
        <time>2016-09-22T11:28:27Z</time>
      </trkpt>
      <trkpt lat="43.564486" lon="-8.313785">
        <ele>93.654</ele>
        <time>2016-09-22T11:28:29Z</time>
      </trkpt>
      <trkpt lat="43.564417" lon="-8.313852">
        <ele>94.472</ele>
        <time>2016-09-22T11:28:34Z</time>
      </trkpt>
      <trkpt lat="43.564390" lon="-8.313878">
        <ele>94.672</ele>
        <time>2016-09-22T11:28:36Z</time>
      </trkpt>
      <trkpt lat="43.564294" lon="-8.313926">
        <ele>95.694</ele>
        <time>2016-09-22T11:28:42Z</time>
      </trkpt>
      <trkpt lat="43.564280" lon="-8.313932">
        <ele>95.836</ele>
        <time>2016-09-22T11:28:43Z</time>
      </trkpt>
      <trkpt lat="43.564209" lon="-8.313979">
        <ele>96.681</ele>
        <time>2016-09-22T11:28:48Z</time>
      </trkpt>
      <trkpt lat="43.564156" lon="-8.314023">
        <ele>98.061</ele>
        <time>2016-09-22T11:28:52Z</time>
      </trkpt>
      <trkpt lat="43.564063" lon="-8.314119">
        <ele>98.817</ele>
        <time>2016-09-22T11:28:59Z</time>
      </trkpt>
      <trkpt lat="43.564040" lon="-8.314152">
        <ele>99.608</ele>
        <time>2016-09-22T11:29:01Z</time>
      </trkpt>
      <trkpt lat="43.564030" lon="-8.314171">
        <ele>99.889</ele>
        <time>2016-09-22T11:29:02Z</time>
      </trkpt>
      <trkpt lat="43.563981" lon="-8.314277">
        <ele>100.813</ele>
        <time>2016-09-22T11:29:07Z</time>
      </trkpt>
      <trkpt lat="43.563947" lon="-8.314361">
        <ele>101.638</ele>
        <time>2016-09-22T11:29:11Z</time>
      </trkpt>
      <trkpt lat="43.563918" lon="-8.314393">
        <ele>102.096</ele>
        <time>2016-09-22T11:29:13Z</time>
      </trkpt>
      <trkpt lat="43.563822" lon="-8.314456">
        <ele>102.814</ele>
        <time>2016-09-22T11:29:19Z</time>
      </trkpt>
      <trkpt lat="43.563756" lon="-8.314485">
        <ele>103.254</ele>
        <time>2016-09-22T11:29:23Z</time>
      </trkpt>
      <trkpt lat="43.563722" lon="-8.314492">
        <ele>103.676</ele>
        <time>2016-09-22T11:29:25Z</time>
      </trkpt>
      <trkpt lat="43.563704" lon="-8.314490">
        <ele>104.078</ele>
        <time>2016-09-22T11:29:26Z</time>
      </trkpt>
      <trkpt lat="43.563686" lon="-8.314489">
        <ele>104.264</ele>
        <time>2016-09-22T11:29:27Z</time>
      </trkpt>
      <trkpt lat="43.563606" lon="-8.314521">
        <ele>104.806</ele>
        <time>2016-09-22T11:29:32Z</time>
      </trkpt>
      <trkpt lat="43.563538" lon="-8.314557">
        <ele>105.216</ele>
        <time>2016-09-22T11:29:36Z</time>
      </trkpt>
      <trkpt lat="43.563491" lon="-8.314589">
        <ele>106.408</ele>
        <time>2016-09-22T11:29:39Z</time>
      </trkpt>
      <trkpt lat="43.563463" lon="-8.314613">
        <ele>106.617</ele>
        <time>2016-09-22T11:29:41Z</time>
      </trkpt>
      <trkpt lat="43.563391" lon="-8.314685">
        <ele>107.481</ele>
        <time>2016-09-22T11:29:46Z</time>
      </trkpt>
      <trkpt lat="43.563336" lon="-8.314745">
        <ele>108.456</ele>
        <time>2016-09-22T11:29:50Z</time>
      </trkpt>
      <trkpt lat="43.563327" lon="-8.314765">
        <ele>108.664</ele>
        <time>2016-09-22T11:29:51Z</time>
      </trkpt>
      <trkpt lat="43.563284" lon="-8.314864">
        <ele>109.492</ele>
        <time>2016-09-22T11:29:56Z</time>
      </trkpt>
      <trkpt lat="43.563272" lon="-8.314880">
        <ele>109.662</ele>
        <time>2016-09-22T11:29:57Z</time>
      </trkpt>
      <trkpt lat="43.563203" lon="-8.314972">
        <ele>110.844</ele>
        <time>2016-09-22T11:30:02Z</time>
      </trkpt>
      <trkpt lat="43.563190" lon="-8.314992">
        <ele>111.276</ele>
        <time>2016-09-22T11:30:03Z</time>
      </trkpt>
      <trkpt lat="43.563124" lon="-8.315081">
        <ele>111.825</ele>
        <time>2016-09-22T11:30:08Z</time>
      </trkpt>
      <trkpt lat="43.563056" lon="-8.315156">
        <ele>112.626</ele>
        <time>2016-09-22T11:30:13Z</time>
      </trkpt>
      <trkpt lat="43.562984" lon="-8.315208">
        <ele>113.008</ele>
        <time>2016-09-22T11:30:17Z</time>
      </trkpt>
      <trkpt lat="43.562891" lon="-8.315256">
        <ele>113.808</ele>
        <time>2016-09-22T11:30:22Z</time>
      </trkpt>
      <trkpt lat="43.562834" lon="-8.315269">
        <ele>114.063</ele>
        <time>2016-09-22T11:30:25Z</time>
      </trkpt>
      <trkpt lat="43.562738" lon="-8.315289">
        <ele>115.047</ele>
        <time>2016-09-22T11:30:30Z</time>
      </trkpt>
      <trkpt lat="43.562625" lon="-8.315315">
        <ele>116.232</ele>
        <time>2016-09-22T11:30:36Z</time>
      </trkpt>
      <trkpt lat="43.562589" lon="-8.315330">
        <ele>116.630</ele>
        <time>2016-09-22T11:30:38Z</time>
      </trkpt>
      <trkpt lat="43.562505" lon="-8.315383">
        <ele>117.238</ele>
        <time>2016-09-22T11:30:43Z</time>
      </trkpt>
      <trkpt lat="43.562440" lon="-8.315427">
        <ele>118.488</ele>
        <time>2016-09-22T11:30:47Z</time>
      </trkpt>
      <trkpt lat="43.562356" lon="-8.315486">
        <ele>119.420</ele>
        <time>2016-09-22T11:30:52Z</time>
      </trkpt>
      <trkpt lat="43.562288" lon="-8.315535">
        <ele>119.872</ele>
        <time>2016-09-22T11:30:56Z</time>
      </trkpt>
      <trkpt lat="43.562228" lon="-8.315587">
        <ele>120.632</ele>
        <time>2016-09-22T11:31:00Z</time>
      </trkpt>
      <trkpt lat="43.562145" lon="-8.315651">
        <ele>121.692</ele>
        <time>2016-09-22T11:31:05Z</time>
      </trkpt>
      <trkpt lat="43.562060" lon="-8.315711">
        <ele>122.811</ele>
        <time>2016-09-22T11:31:10Z</time>
      </trkpt>
      <trkpt lat="43.561997" lon="-8.315773">
        <ele>123.408</ele>
        <time>2016-09-22T11:31:14Z</time>
      </trkpt>
      <trkpt lat="43.561927" lon="-8.315834">
        <ele>123.684</ele>
        <time>2016-09-22T11:31:18Z</time>
      </trkpt>
      <trkpt lat="43.561855" lon="-8.315898">
        <ele>123.898</ele>
        <time>2016-09-22T11:31:22Z</time>
      </trkpt>
      <trkpt lat="43.561706" lon="-8.316024">
        <ele>124.613</ele>
        <time>2016-09-22T11:31:30Z</time>
      </trkpt>
      <trkpt lat="43.561668" lon="-8.316055">
        <ele>124.831</ele>
        <time>2016-09-22T11:31:32Z</time>
      </trkpt>
      <trkpt lat="43.561508" lon="-8.316202">
        <ele>125.289</ele>
        <time>2016-09-22T11:31:41Z</time>
      </trkpt>
      <trkpt lat="43.561459" lon="-8.316236">
        <ele>125.639</ele>
        <time>2016-09-22T11:31:44Z</time>
      </trkpt>
      <trkpt lat="43.561389" lon="-8.316234">
        <ele>125.671</ele>
        <time>2016-09-22T11:31:47Z</time>
      </trkpt>
      <trkpt lat="43.561233" lon="-8.316258">
        <ele>125.273</ele>
        <time>2016-09-22T11:31:52Z</time>
      </trkpt>
      <trkpt lat="43.561136" lon="-8.316322">
        <ele>124.662</ele>
        <time>2016-09-22T11:31:55Z</time>
      </trkpt>
      <trkpt lat="43.561102" lon="-8.316359">
        <ele>124.483</ele>
        <time>2016-09-22T11:31:56Z</time>
      </trkpt>
      <trkpt lat="43.561014" lon="-8.316559">
        <ele>124.211</ele>
        <time>2016-09-22T11:32:00Z</time>
      </trkpt>
      <trkpt lat="43.561027" lon="-8.316806">
        <ele>123.208</ele>
        <time>2016-09-22T11:32:04Z</time>
      </trkpt>
      <trkpt lat="43.561041" lon="-8.316872">
        <ele>123.067</ele>
        <time>2016-09-22T11:32:05Z</time>
      </trkpt>
      <trkpt lat="43.561052" lon="-8.316940">
        <ele>122.881</ele>
        <time>2016-09-22T11:32:06Z</time>
      </trkpt>
      <trkpt lat="43.561080" lon="-8.317136">
        <ele>122.266</ele>
        <time>2016-09-22T11:32:09Z</time>
      </trkpt>
      <trkpt lat="43.561079" lon="-8.317304">
        <ele>121.674</ele>
        <time>2016-09-22T11:32:12Z</time>
      </trkpt>
      <trkpt lat="43.561058" lon="-8.317351">
        <ele>121.292</ele>
        <time>2016-09-22T11:32:13Z</time>
      </trkpt>
      <trkpt lat="43.561029" lon="-8.317392">
        <ele>121.062</ele>
        <time>2016-09-22T11:32:14Z</time>
      </trkpt>
      <trkpt lat="43.560969" lon="-8.317479">
        <ele>120.244</ele>
        <time>2016-09-22T11:32:16Z</time>
      </trkpt>
      <trkpt lat="43.560938" lon="-8.317526">
        <ele>120.096</ele>
        <time>2016-09-22T11:32:17Z</time>
      </trkpt>
      <trkpt lat="43.560906" lon="-8.317574">
        <ele>119.852</ele>
        <time>2016-09-22T11:32:18Z</time>
      </trkpt>
      <trkpt lat="43.560744" lon="-8.317850">
        <ele>118.653</ele>
        <time>2016-09-22T11:32:23Z</time>
      </trkpt>
      <trkpt lat="43.560719" lon="-8.317918">
        <ele>118.208</ele>
        <time>2016-09-22T11:32:24Z</time>
      </trkpt>
      <trkpt lat="43.560699" lon="-8.317991">
        <ele>118.008</ele>
        <time>2016-09-22T11:32:25Z</time>
      </trkpt>
      <trkpt lat="43.560675" lon="-8.318147">
        <ele>117.056</ele>
        <time>2016-09-22T11:32:27Z</time>
      </trkpt>
      <trkpt lat="43.560655" lon="-8.318309">
        <ele>115.840</ele>
        <time>2016-09-22T11:32:29Z</time>
      </trkpt>
      <trkpt lat="43.560644" lon="-8.318391">
        <ele>115.695</ele>
        <time>2016-09-22T11:32:30Z</time>
      </trkpt>
      <trkpt lat="43.560628" lon="-8.318474">
        <ele>115.643</ele>
        <time>2016-09-22T11:32:31Z</time>
      </trkpt>
      <trkpt lat="43.560576" lon="-8.318816">
        <ele>115.211</ele>
        <time>2016-09-22T11:32:35Z</time>
      </trkpt>
      <trkpt lat="43.560539" lon="-8.318987">
        <ele>114.471</ele>
        <time>2016-09-22T11:32:37Z</time>
      </trkpt>
      <trkpt lat="43.560511" lon="-8.319067">
        <ele>113.823</ele>
        <time>2016-09-22T11:32:38Z</time>
      </trkpt>
      <trkpt lat="43.560476" lon="-8.319142">
        <ele>113.895</ele>
        <time>2016-09-22T11:32:39Z</time>
      </trkpt>
      <trkpt lat="43.560431" lon="-8.319206">
        <ele>113.018</ele>
        <time>2016-09-22T11:32:40Z</time>
      </trkpt>
      <trkpt lat="43.560315" lon="-8.319294">
        <ele>112.098</ele>
        <time>2016-09-22T11:32:42Z</time>
      </trkpt>
      <trkpt lat="43.560118" lon="-8.319361">
        <ele>110.817</ele>
        <time>2016-09-22T11:32:45Z</time>
      </trkpt>
      <trkpt lat="43.560052" lon="-8.319365">
        <ele>110.408</ele>
        <time>2016-09-22T11:32:46Z</time>
      </trkpt>
      <trkpt lat="43.559819" lon="-8.319269">
        <ele>109.892</ele>
        <time>2016-09-22T11:32:50Z</time>
      </trkpt>
      <trkpt lat="43.559772" lon="-8.319222">
        <ele>109.666</ele>
        <time>2016-09-22T11:32:51Z</time>
      </trkpt>
      <trkpt lat="43.559729" lon="-8.319172">
        <ele>109.461</ele>
        <time>2016-09-22T11:32:52Z</time>
      </trkpt>
      <trkpt lat="43.559619" lon="-8.319027">
        <ele>109.289</ele>
        <time>2016-09-22T11:32:55Z</time>
      </trkpt>
      <trkpt lat="43.559428" lon="-8.318810">
        <ele>109.687</ele>
        <time>2016-09-22T11:33:01Z</time>
      </trkpt>
      <trkpt lat="43.559238" lon="-8.318703">
        <ele>109.217</ele>
        <time>2016-09-22T11:33:07Z</time>
      </trkpt>
      <trkpt lat="43.559054" lon="-8.318578">
        <ele>109.419</ele>
        <time>2016-09-22T11:33:13Z</time>
      </trkpt>
      <trkpt lat="43.558912" lon="-8.318391">
        <ele>109.241</ele>
        <time>2016-09-22T11:33:19Z</time>
      </trkpt>
      <trkpt lat="43.558875" lon="-8.318273">
        <ele>108.499</ele>
        <time>2016-09-22T11:33:22Z</time>
      </trkpt>
      <trkpt lat="43.558861" lon="-8.318187">
        <ele>107.807</ele>
        <time>2016-09-22T11:33:24Z</time>
      </trkpt>
      <trkpt lat="43.558838" lon="-8.317813">
        <ele>107.627</ele>
        <time>2016-09-22T11:33:32Z</time>
      </trkpt>
      <trkpt lat="43.558843" lon="-8.317710">
        <ele>107.408</ele>
        <time>2016-09-22T11:33:34Z</time>
      </trkpt>
      <trkpt lat="43.558828" lon="-8.317501">
        <ele>106.850</ele>
        <time>2016-09-22T11:33:38Z</time>
      </trkpt>
      <trkpt lat="43.558812" lon="-8.317433">
        <ele>106.264</ele>
        <time>2016-09-22T11:33:40Z</time>
      </trkpt>
      <trkpt lat="43.558806" lon="-8.317416">
        <ele>106.059</ele>
        <time>2016-09-22T11:33:42Z</time>
      </trkpt>
      <trkpt lat="43.558806" lon="-8.317417">
        <ele>105.827</ele>
        <time>2016-09-22T11:33:43Z</time>
      </trkpt>
      <trkpt lat="43.558782" lon="-8.317369">
        <ele>105.495</ele>
        <time>2016-09-22T11:33:59Z</time>
      </trkpt>
      <trkpt lat="43.558765" lon="-8.317344">
        <ele>105.285</ele>
        <time>2016-09-22T11:34:00Z</time>
      </trkpt>
      <trkpt lat="43.558750" lon="-8.317311">
        <ele>105.017</ele>
        <time>2016-09-22T11:34:01Z</time>
      </trkpt>
      <trkpt lat="43.558639" lon="-8.317103">
        <ele>105.219</ele>
        <time>2016-09-22T11:34:06Z</time>
      </trkpt>
      <trkpt lat="43.558586" lon="-8.317004">
        <ele>105.026</ele>
        <time>2016-09-22T11:34:08Z</time>
      </trkpt>
      <trkpt lat="43.558525" lon="-8.316900">
        <ele>103.847</ele>
        <time>2016-09-22T11:34:10Z</time>
      </trkpt>
      <trkpt lat="43.558497" lon="-8.316841">
        <ele>103.211</ele>
        <time>2016-09-22T11:34:11Z</time>
      </trkpt>
      <trkpt lat="43.558470" lon="-8.316779">
        <ele>102.608</ele>
        <time>2016-09-22T11:34:12Z</time>
      </trkpt>
      <trkpt lat="43.558451" lon="-8.316711">
        <ele>102.263</ele>
        <time>2016-09-22T11:34:13Z</time>
      </trkpt>
      <trkpt lat="43.558415" lon="-8.316568">
        <ele>101.827</ele>
        <time>2016-09-22T11:34:15Z</time>
      </trkpt>
      <trkpt lat="43.558364" lon="-8.316416">
        <ele>101.462</ele>
        <time>2016-09-22T11:34:17Z</time>
      </trkpt>
      <trkpt lat="43.558309" lon="-8.316257">
        <ele>101.270</ele>
        <time>2016-09-22T11:34:19Z</time>
      </trkpt>
      <trkpt lat="43.558288" lon="-8.316177">
        <ele>101.068</ele>
        <time>2016-09-22T11:34:20Z</time>
      </trkpt>
      <trkpt lat="43.558265" lon="-8.316102">
        <ele>100.418</ele>
        <time>2016-09-22T11:34:21Z</time>
      </trkpt>
      <trkpt lat="43.558224" lon="-8.315951">
        <ele>99.660</ele>
        <time>2016-09-22T11:34:23Z</time>
      </trkpt>
      <trkpt lat="43.558215" lon="-8.315873">
        <ele>99.252</ele>
        <time>2016-09-22T11:34:24Z</time>
      </trkpt>
      <trkpt lat="43.558214" lon="-8.315794">
        <ele>99.259</ele>
        <time>2016-09-22T11:34:25Z</time>
      </trkpt>
      <trkpt lat="43.558240" lon="-8.315630">
        <ele>98.203</ele>
        <time>2016-09-22T11:34:27Z</time>
      </trkpt>
      <trkpt lat="43.558260" lon="-8.315545">
        <ele>98.023</ele>
        <time>2016-09-22T11:34:28Z</time>
      </trkpt>
      <trkpt lat="43.558285" lon="-8.315462">
        <ele>97.808</ele>
        <time>2016-09-22T11:34:29Z</time>
      </trkpt>
      <trkpt lat="43.558377" lon="-8.315222">
        <ele>97.896</ele>
        <time>2016-09-22T11:34:32Z</time>
      </trkpt>
      <trkpt lat="43.558453" lon="-8.315066">
        <ele>96.870</ele>
        <time>2016-09-22T11:34:34Z</time>
      </trkpt>
      <trkpt lat="43.558491" lon="-8.314985">
        <ele>96.665</ele>
        <time>2016-09-22T11:34:35Z</time>
      </trkpt>
      <trkpt lat="43.558535" lon="-8.314909">
        <ele>96.613</ele>
        <time>2016-09-22T11:34:36Z</time>
      </trkpt>
      <trkpt lat="43.558586" lon="-8.314843">
        <ele>95.811</ele>
        <time>2016-09-22T11:34:37Z</time>
      </trkpt>
      <trkpt lat="43.558638" lon="-8.314782">
        <ele>95.071</ele>
        <time>2016-09-22T11:34:38Z</time>
      </trkpt>
      <trkpt lat="43.558688" lon="-8.314719">
        <ele>94.453</ele>
        <time>2016-09-22T11:34:39Z</time>
      </trkpt>
      <trkpt lat="43.558852" lon="-8.314537">
        <ele>93.035</ele>
        <time>2016-09-22T11:34:42Z</time>
      </trkpt>
      <trkpt lat="43.558974" lon="-8.314419">
        <ele>91.826</ele>
        <time>2016-09-22T11:34:44Z</time>
      </trkpt>
      <trkpt lat="43.559040" lon="-8.314368">
        <ele>91.247</ele>
        <time>2016-09-22T11:34:45Z</time>
      </trkpt>
      <trkpt lat="43.559185" lon="-8.314301">
        <ele>89.811</ele>
        <time>2016-09-22T11:34:47Z</time>
      </trkpt>
      <trkpt lat="43.559256" lon="-8.314266">
        <ele>89.208</ele>
        <time>2016-09-22T11:34:48Z</time>
      </trkpt>
      <trkpt lat="43.559325" lon="-8.314221">
        <ele>88.693</ele>
        <time>2016-09-22T11:34:49Z</time>
      </trkpt>
      <trkpt lat="43.559489" lon="-8.314031">
        <ele>87.227</ele>
        <time>2016-09-22T11:34:52Z</time>
      </trkpt>
      <trkpt lat="43.559542" lon="-8.313879">
        <ele>86.262</ele>
        <time>2016-09-22T11:34:54Z</time>
      </trkpt>
      <trkpt lat="43.559547" lon="-8.313798">
        <ele>86.020</ele>
        <time>2016-09-22T11:34:55Z</time>
      </trkpt>
      <trkpt lat="43.559498" lon="-8.313502">
        <ele>85.058</ele>
        <time>2016-09-22T11:34:59Z</time>
      </trkpt>
      <trkpt lat="43.559371" lon="-8.313307">
        <ele>84.678</ele>
        <time>2016-09-22T11:35:03Z</time>
      </trkpt>
      <trkpt lat="43.559222" lon="-8.313223">
        <ele>84.020</ele>
        <time>2016-09-22T11:35:07Z</time>
      </trkpt>
      <trkpt lat="43.559032" lon="-8.313236">
        <ele>84.452</ele>
        <time>2016-09-22T11:35:12Z</time>
      </trkpt>
      <trkpt lat="43.558992" lon="-8.313255">
        <ele>84.649</ele>
        <time>2016-09-22T11:35:13Z</time>
      </trkpt>
      <trkpt lat="43.558867" lon="-8.313302">
        <ele>84.802</ele>
        <time>2016-09-22T11:35:16Z</time>
      </trkpt>
      <trkpt lat="43.558787" lon="-8.313325">
        <ele>85.022</ele>
        <time>2016-09-22T11:35:18Z</time>
      </trkpt>
      <trkpt lat="43.558612" lon="-8.313346">
        <ele>84.408</ele>
        <time>2016-09-22T11:35:23Z</time>
      </trkpt>
      <trkpt lat="43.558420" lon="-8.313308">
        <ele>84.025</ele>
        <time>2016-09-22T11:35:28Z</time>
      </trkpt>
      <trkpt lat="43.558334" lon="-8.313282">
        <ele>84.099</ele>
        <time>2016-09-22T11:35:30Z</time>
      </trkpt>
      <trkpt lat="43.558203" lon="-8.313237">
        <ele>83.664</ele>
        <time>2016-09-22T11:35:33Z</time>
      </trkpt>
      <trkpt lat="43.558160" lon="-8.313211">
        <ele>83.222</ele>
        <time>2016-09-22T11:35:34Z</time>
      </trkpt>
      <trkpt lat="43.558070" lon="-8.313144">
        <ele>82.820</ele>
        <time>2016-09-22T11:35:36Z</time>
      </trkpt>
      <trkpt lat="43.558024" lon="-8.313100">
        <ele>82.430</ele>
        <time>2016-09-22T11:35:37Z</time>
      </trkpt>
      <trkpt lat="43.557938" lon="-8.313000">
        <ele>82.052</ele>
        <time>2016-09-22T11:35:39Z</time>
      </trkpt>
      <trkpt lat="43.557891" lon="-8.312951">
        <ele>81.454</ele>
        <time>2016-09-22T11:35:40Z</time>
      </trkpt>
      <trkpt lat="43.557726" lon="-8.312878">
        <ele>80.461</ele>
        <time>2016-09-22T11:35:43Z</time>
      </trkpt>
      <trkpt lat="43.557555" lon="-8.312894">
        <ele>80.021</ele>
        <time>2016-09-22T11:35:46Z</time>
      </trkpt>
      <trkpt lat="43.557445" lon="-8.312922">
        <ele>79.613</ele>
        <time>2016-09-22T11:35:48Z</time>
      </trkpt>
      <trkpt lat="43.557339" lon="-8.312957">
        <ele>79.208</ele>
        <time>2016-09-22T11:35:50Z</time>
      </trkpt>
      <trkpt lat="43.557287" lon="-8.312970">
        <ele>79.227</ele>
        <time>2016-09-22T11:35:51Z</time>
      </trkpt>
      <trkpt lat="43.557133" lon="-8.312980">
        <ele>78.871</ele>
        <time>2016-09-22T11:35:54Z</time>
      </trkpt>
      <trkpt lat="43.556804" lon="-8.312918">
        <ele>78.256</ele>
        <time>2016-09-22T11:36:00Z</time>
      </trkpt>
      <trkpt lat="43.556564" lon="-8.312837">
        <ele>77.084</ele>
        <time>2016-09-22T11:36:04Z</time>
      </trkpt>
      <trkpt lat="43.556505" lon="-8.312803">
        <ele>76.832</ele>
        <time>2016-09-22T11:36:05Z</time>
      </trkpt>
      <trkpt lat="43.556451" lon="-8.312760">
        <ele>76.632</ele>
        <time>2016-09-22T11:36:06Z</time>
      </trkpt>
      <trkpt lat="43.556271" lon="-8.312527">
        <ele>76.494</ele>
        <time>2016-09-22T11:36:10Z</time>
      </trkpt>
      <trkpt lat="43.556229" lon="-8.312469">
        <ele>76.066</ele>
        <time>2016-09-22T11:36:11Z</time>
      </trkpt>
      <trkpt lat="43.556139" lon="-8.312364">
        <ele>75.446</ele>
        <time>2016-09-22T11:36:13Z</time>
      </trkpt>
      <trkpt lat="43.556037" lon="-8.312296">
        <ele>75.088</ele>
        <time>2016-09-22T11:36:15Z</time>
      </trkpt>
      <trkpt lat="43.555981" lon="-8.312279">
        <ele>74.616</ele>
        <time>2016-09-22T11:36:16Z</time>
      </trkpt>
      <trkpt lat="43.555866" lon="-8.312294">
        <ele>74.608</ele>
        <time>2016-09-22T11:36:18Z</time>
      </trkpt>
      <trkpt lat="43.555759" lon="-8.312367">
        <ele>75.055</ele>
        <time>2016-09-22T11:36:20Z</time>
      </trkpt>
      <trkpt lat="43.555605" lon="-8.312478">
        <ele>75.049</ele>
        <time>2016-09-22T11:36:23Z</time>
      </trkpt>
      <trkpt lat="43.555552" lon="-8.312507">
        <ele>74.654</ele>
        <time>2016-09-22T11:36:24Z</time>
      </trkpt>
      <trkpt lat="43.555442" lon="-8.312514">
        <ele>74.242</ele>
        <time>2016-09-22T11:36:26Z</time>
      </trkpt>
      <trkpt lat="43.555293" lon="-8.312414">
        <ele>74.260</ele>
        <time>2016-09-22T11:36:29Z</time>
      </trkpt>
      <trkpt lat="43.555126" lon="-8.312188">
        <ele>74.680</ele>
        <time>2016-09-22T11:36:33Z</time>
      </trkpt>
      <trkpt lat="43.554934" lon="-8.312032">
        <ele>74.632</ele>
        <time>2016-09-22T11:36:37Z</time>
      </trkpt>
      <trkpt lat="43.554887" lon="-8.311994">
        <ele>74.864</ele>
        <time>2016-09-22T11:36:38Z</time>
      </trkpt>
      <trkpt lat="43.554691" lon="-8.311882">
        <ele>74.452</ele>
        <time>2016-09-22T11:36:42Z</time>
      </trkpt>
      <trkpt lat="43.554316" lon="-8.311823">
        <ele>74.653</ele>
        <time>2016-09-22T11:36:49Z</time>
      </trkpt>
      <trkpt lat="43.553730" lon="-8.311770">
        <ele>73.408</ele>
        <time>2016-09-22T11:36:59Z</time>
      </trkpt>
      <trkpt lat="43.553486" lon="-8.311759">
        <ele>73.008</ele>
        <time>2016-09-22T11:37:03Z</time>
      </trkpt>
      <trkpt lat="43.553372" lon="-8.311731">
        <ele>72.666</ele>
        <time>2016-09-22T11:37:05Z</time>
      </trkpt>
      <trkpt lat="43.553317" lon="-8.311709">
        <ele>72.620</ele>
        <time>2016-09-22T11:37:06Z</time>
      </trkpt>
      <trkpt lat="43.553167" lon="-8.311598">
        <ele>72.835</ele>
        <time>2016-09-22T11:37:09Z</time>
      </trkpt>
      <trkpt lat="43.553070" lon="-8.311518">
        <ele>73.073</ele>
        <time>2016-09-22T11:37:11Z</time>
      </trkpt>
      <trkpt lat="43.552911" lon="-8.311457">
        <ele>72.861</ele>
        <time>2016-09-22T11:37:14Z</time>
      </trkpt>
      <trkpt lat="43.552748" lon="-8.311516">
        <ele>72.661</ele>
        <time>2016-09-22T11:37:17Z</time>
      </trkpt>
      <trkpt lat="43.552695" lon="-8.311541">
        <ele>72.633</ele>
        <time>2016-09-22T11:37:18Z</time>
      </trkpt>
      <trkpt lat="43.552589" lon="-8.311581">
        <ele>72.295</ele>
        <time>2016-09-22T11:37:20Z</time>
      </trkpt>
      <trkpt lat="43.552430" lon="-8.311618">
        <ele>71.823</ele>
        <time>2016-09-22T11:37:23Z</time>
      </trkpt>
      <trkpt lat="43.552377" lon="-8.311619">
        <ele>71.683</ele>
        <time>2016-09-22T11:37:24Z</time>
      </trkpt>
      <trkpt lat="43.552270" lon="-8.311594">
        <ele>71.211</ele>
        <time>2016-09-22T11:37:26Z</time>
      </trkpt>
      <trkpt lat="43.552216" lon="-8.311569">
        <ele>70.808</ele>
        <time>2016-09-22T11:37:27Z</time>
      </trkpt>
      <trkpt lat="43.552162" lon="-8.311540">
        <ele>70.473</ele>
        <time>2016-09-22T11:37:28Z</time>
      </trkpt>
      <trkpt lat="43.551901" lon="-8.311391">
        <ele>70.217</ele>
        <time>2016-09-22T11:37:33Z</time>
      </trkpt>
      <trkpt lat="43.551794" lon="-8.311351">
        <ele>70.452</ele>
        <time>2016-09-22T11:37:35Z</time>
      </trkpt>
      <trkpt lat="43.551454" lon="-8.311312">
        <ele>70.620</ele>
        <time>2016-09-22T11:37:41Z</time>
      </trkpt>
      <trkpt lat="43.551280" lon="-8.311312">
        <ele>71.068</ele>
        <time>2016-09-22T11:37:44Z</time>
      </trkpt>
      <trkpt lat="43.551163" lon="-8.311288">
        <ele>71.068</ele>
        <time>2016-09-22T11:37:46Z</time>
      </trkpt>
      <trkpt lat="43.551050" lon="-8.311241">
        <ele>71.090</ele>
        <time>2016-09-22T11:37:48Z</time>
      </trkpt>
      <trkpt lat="43.550883" lon="-8.311145">
        <ele>71.052</ele>
        <time>2016-09-22T11:37:51Z</time>
      </trkpt>
      <trkpt lat="43.550758" lon="-8.311092">
        <ele>70.844</ele>
        <time>2016-09-22T11:37:53Z</time>
      </trkpt>
      <trkpt lat="43.550559" lon="-8.311127">
        <ele>70.405</ele>
        <time>2016-09-22T11:37:56Z</time>
      </trkpt>
      <trkpt lat="43.550494" lon="-8.311153">
        <ele>70.215</ele>
        <time>2016-09-22T11:37:57Z</time>
      </trkpt>
      <trkpt lat="43.549987" lon="-8.311392">
        <ele>69.608</ele>
        <time>2016-09-22T11:38:05Z</time>
      </trkpt>
      <trkpt lat="43.549745" lon="-8.311505">
        <ele>69.225</ele>
        <time>2016-09-22T11:38:09Z</time>
      </trkpt>
      <trkpt lat="43.549688" lon="-8.311538">
        <ele>69.249</ele>
        <time>2016-09-22T11:38:10Z</time>
      </trkpt>
      <trkpt lat="43.549523" lon="-8.311656">
        <ele>69.284</ele>
        <time>2016-09-22T11:38:13Z</time>
      </trkpt>
      <trkpt lat="43.549047" lon="-8.312059">
        <ele>69.052</ele>
        <time>2016-09-22T11:38:22Z</time>
      </trkpt>
      <trkpt lat="43.548563" lon="-8.312438">
        <ele>68.280</ele>
        <time>2016-09-22T11:38:31Z</time>
      </trkpt>
      <trkpt lat="43.548450" lon="-8.312506">
        <ele>67.630</ele>
        <time>2016-09-22T11:38:33Z</time>
      </trkpt>
      <trkpt lat="43.548312" lon="-8.312567">
        <ele>67.412</ele>
        <time>2016-09-22T11:38:36Z</time>
      </trkpt>
      <trkpt lat="43.548288" lon="-8.312611">
        <ele>67.434</ele>
        <time>2016-09-22T11:38:39Z</time>
      </trkpt>
      <trkpt lat="43.548279" lon="-8.312600">
        <ele>67.224</ele>
        <time>2016-09-22T11:38:41Z</time>
      </trkpt>
      <trkpt lat="43.548240" lon="-8.312556">
        <ele>67.004</ele>
        <time>2016-09-22T11:38:43Z</time>
      </trkpt>
      <trkpt lat="43.548210" lon="-8.312540">
        <ele>66.614</ele>
        <time>2016-09-22T11:38:44Z</time>
      </trkpt>
      <trkpt lat="43.548173" lon="-8.312528">
        <ele>66.408</ele>
        <time>2016-09-22T11:38:45Z</time>
      </trkpt>
      <trkpt lat="43.548087" lon="-8.312501">
        <ele>66.463</ele>
        <time>2016-09-22T11:38:47Z</time>
      </trkpt>
      <trkpt lat="43.547807" lon="-8.312359">
        <ele>65.667</ele>
        <time>2016-09-22T11:38:53Z</time>
      </trkpt>
      <trkpt lat="43.547763" lon="-8.312326">
        <ele>65.682</ele>
        <time>2016-09-22T11:38:54Z</time>
      </trkpt>
      <trkpt lat="43.547554" lon="-8.312141">
        <ele>65.250</ele>
        <time>2016-09-22T11:38:59Z</time>
      </trkpt>
      <trkpt lat="43.547482" lon="-8.312051">
        <ele>65.038</ele>
        <time>2016-09-22T11:39:01Z</time>
      </trkpt>
      <trkpt lat="43.547386" lon="-8.311905">
        <ele>64.698</ele>
        <time>2016-09-22T11:39:04Z</time>
      </trkpt>
      <trkpt lat="43.547310" lon="-8.311725">
        <ele>64.240</ele>
        <time>2016-09-22T11:39:08Z</time>
      </trkpt>
      <trkpt lat="43.547255" lon="-8.311445">
        <ele>63.452</ele>
        <time>2016-09-22T11:39:14Z</time>
      </trkpt>
      <trkpt lat="43.547252" lon="-8.311405">
        <ele>63.426</ele>
        <time>2016-09-22T11:39:15Z</time>
      </trkpt>
      <trkpt lat="43.547253" lon="-8.311345">
        <ele>63.647</ele>
        <time>2016-09-22T11:39:19Z</time>
      </trkpt>
      <trkpt lat="43.547266" lon="-8.311324">
        <ele>63.411</ele>
        <time>2016-09-22T11:43:03Z</time>
      </trkpt>
      <trkpt lat="43.547284" lon="-8.311261">
        <ele>63.408</ele>
        <time>2016-09-22T11:43:05Z</time>
      </trkpt>
      <trkpt lat="43.547329" lon="-8.311050">
        <ele>63.093</ele>
        <time>2016-09-22T11:43:09Z</time>
      </trkpt>
      <trkpt lat="43.547450" lon="-8.310627">
        <ele>62.437</ele>
        <time>2016-09-22T11:43:15Z</time>
      </trkpt>
      <trkpt lat="43.547545" lon="-8.310122">
        <ele>61.682</ele>
        <time>2016-09-22T11:43:21Z</time>
      </trkpt>
      <trkpt lat="43.547554" lon="-8.310032">
        <ele>61.230</ele>
        <time>2016-09-22T11:43:22Z</time>
      </trkpt>
      <trkpt lat="43.547566" lon="-8.309670">
        <ele>60.468</ele>
        <time>2016-09-22T11:43:26Z</time>
      </trkpt>
      <trkpt lat="43.547586" lon="-8.309407">
        <ele>60.448</ele>
        <time>2016-09-22T11:43:29Z</time>
      </trkpt>
      <trkpt lat="43.547690" lon="-8.308814">
        <ele>59.620</ele>
        <time>2016-09-22T11:43:36Z</time>
      </trkpt>
      <trkpt lat="43.547724" lon="-8.308651">
        <ele>59.472</ele>
        <time>2016-09-22T11:43:38Z</time>
      </trkpt>
      <trkpt lat="43.547810" lon="-8.308212">
        <ele>59.063</ele>
        <time>2016-09-22T11:43:43Z</time>
      </trkpt>
      <trkpt lat="43.547818" lon="-8.308120">
        <ele>59.044</ele>
        <time>2016-09-22T11:43:44Z</time>
      </trkpt>
      <trkpt lat="43.547803" lon="-8.307936">
        <ele>59.018</ele>
        <time>2016-09-22T11:43:46Z</time>
      </trkpt>
      <trkpt lat="43.547761" lon="-8.307769">
        <ele>59.208</ele>
        <time>2016-09-22T11:43:48Z</time>
      </trkpt>
      <trkpt lat="43.547724" lon="-8.307594">
        <ele>59.257</ele>
        <time>2016-09-22T11:43:50Z</time>
      </trkpt>
      <trkpt lat="43.547712" lon="-8.307501">
        <ele>59.081</ele>
        <time>2016-09-22T11:43:51Z</time>
      </trkpt>
      <trkpt lat="43.547755" lon="-8.307124">
        <ele>58.696</ele>
        <time>2016-09-22T11:43:55Z</time>
      </trkpt>
      <trkpt lat="43.547826" lon="-8.306946">
        <ele>58.444</ele>
        <time>2016-09-22T11:43:57Z</time>
      </trkpt>
      <trkpt lat="43.547866" lon="-8.306857">
        <ele>58.222</ele>
        <time>2016-09-22T11:43:58Z</time>
      </trkpt>
      <trkpt lat="43.547988" lon="-8.306584">
        <ele>57.492</ele>
        <time>2016-09-22T11:44:01Z</time>
      </trkpt>
      <trkpt lat="43.548027" lon="-8.306491">
        <ele>57.274</ele>
        <time>2016-09-22T11:44:02Z</time>
      </trkpt>
      <trkpt lat="43.548060" lon="-8.306395">
        <ele>57.216</ele>
        <time>2016-09-22T11:44:03Z</time>
      </trkpt>
      <trkpt lat="43.548090" lon="-8.306192">
        <ele>56.834</ele>
        <time>2016-09-22T11:44:05Z</time>
      </trkpt>
      <trkpt lat="43.548055" lon="-8.305897">
        <ele>56.455</ele>
        <time>2016-09-22T11:44:08Z</time>
      </trkpt>
      <trkpt lat="43.548037" lon="-8.305803">
        <ele>56.410</ele>
        <time>2016-09-22T11:44:09Z</time>
      </trkpt>
      <trkpt lat="43.548009" lon="-8.305617">
        <ele>56.208</ele>
        <time>2016-09-22T11:44:11Z</time>
      </trkpt>
      <trkpt lat="43.548012" lon="-8.305426">
        <ele>56.494</ele>
        <time>2016-09-22T11:44:13Z</time>
      </trkpt>
      <trkpt lat="43.548089" lon="-8.305056">
        <ele>56.228</ele>
        <time>2016-09-22T11:44:17Z</time>
      </trkpt>
      <trkpt lat="43.548193" lon="-8.304878">
        <ele>55.433</ele>
        <time>2016-09-22T11:44:20Z</time>
      </trkpt>
      <trkpt lat="43.548219" lon="-8.304838">
        <ele>55.011</ele>
        <time>2016-09-22T11:44:21Z</time>
      </trkpt>
      <trkpt lat="43.548268" lon="-8.304770">
        <ele>54.499</ele>
        <time>2016-09-22T11:44:25Z</time>
      </trkpt>
      <trkpt lat="43.548267" lon="-8.304771">
        <ele>54.259</ele>
        <time>2016-09-22T11:44:26Z</time>
      </trkpt>
      <trkpt lat="43.548260" lon="-8.304776">
        <ele>53.421</ele>
        <time>2016-09-22T11:47:20Z</time>
      </trkpt>
      <trkpt lat="43.548269" lon="-8.304798">
        <ele>53.443</ele>
        <time>2016-09-22T11:47:22Z</time>
      </trkpt>
      <trkpt lat="43.548312" lon="-8.304794">
        <ele>53.457</ele>
        <time>2016-09-22T11:47:26Z</time>
      </trkpt>
      <trkpt lat="43.548462" lon="-8.304769">
        <ele>53.400</ele>
        <time>2016-09-22T11:47:30Z</time>
      </trkpt>
      <trkpt lat="43.548513" lon="-8.304773">
        <ele>53.220</ele>
        <time>2016-09-22T11:47:31Z</time>
      </trkpt>
      <trkpt lat="43.548690" lon="-8.304821">
        <ele>52.808</ele>
        <time>2016-09-22T11:47:34Z</time>
      </trkpt>
      <trkpt lat="43.548756" lon="-8.304844">
        <ele>52.276</ele>
        <time>2016-09-22T11:47:35Z</time>
      </trkpt>
      <trkpt lat="43.548825" lon="-8.304861">
        <ele>52.290</ele>
        <time>2016-09-22T11:47:36Z</time>
      </trkpt>
      <trkpt lat="43.548972" lon="-8.304853">
        <ele>51.485</ele>
        <time>2016-09-22T11:47:38Z</time>
      </trkpt>
      <trkpt lat="43.549118" lon="-8.304763">
        <ele>50.233</ele>
        <time>2016-09-22T11:47:40Z</time>
      </trkpt>
      <trkpt lat="43.549177" lon="-8.304681">
        <ele>49.061</ele>
        <time>2016-09-22T11:47:41Z</time>
      </trkpt>
      <trkpt lat="43.549222" lon="-8.304579">
        <ele>48.491</ele>
        <time>2016-09-22T11:47:42Z</time>
      </trkpt>
      <trkpt lat="43.549238" lon="-8.304464">
        <ele>48.273</ele>
        <time>2016-09-22T11:47:43Z</time>
      </trkpt>
      <trkpt lat="43.549184" lon="-8.304245">
        <ele>47.465</ele>
        <time>2016-09-22T11:47:45Z</time>
      </trkpt>
      <trkpt lat="43.549056" lon="-8.304080">
        <ele>46.268</ele>
        <time>2016-09-22T11:47:47Z</time>
      </trkpt>
      <trkpt lat="43.548984" lon="-8.304009">
        <ele>45.642</ele>
        <time>2016-09-22T11:47:48Z</time>
      </trkpt>
      <trkpt lat="43.548913" lon="-8.303935">
        <ele>45.026</ele>
        <time>2016-09-22T11:47:49Z</time>
      </trkpt>
      <trkpt lat="43.548848" lon="-8.303852">
        <ele>44.408</ele>
        <time>2016-09-22T11:47:50Z</time>
      </trkpt>
      <trkpt lat="43.548789" lon="-8.303761">
        <ele>43.617</ele>
        <time>2016-09-22T11:47:51Z</time>
      </trkpt>
      <trkpt lat="43.548737" lon="-8.303660">
        <ele>43.251</ele>
        <time>2016-09-22T11:47:52Z</time>
      </trkpt>
      <trkpt lat="43.548641" lon="-8.303447">
        <ele>42.466</ele>
        <time>2016-09-22T11:47:54Z</time>
      </trkpt>
      <trkpt lat="43.548507" lon="-8.303136">
        <ele>41.064</ele>
        <time>2016-09-22T11:47:57Z</time>
      </trkpt>
      <trkpt lat="43.548304" lon="-8.302927">
        <ele>39.442</ele>
        <time>2016-09-22T11:48:00Z</time>
      </trkpt>
      <trkpt lat="43.548013" lon="-8.302700">
        <ele>38.232</ele>
        <time>2016-09-22T11:48:04Z</time>
      </trkpt>
      <trkpt lat="43.547901" lon="-8.302414">
        <ele>37.054</ele>
        <time>2016-09-22T11:48:07Z</time>
      </trkpt>
      <trkpt lat="43.547874" lon="-8.302207">
        <ele>35.686</ele>
        <time>2016-09-22T11:48:09Z</time>
      </trkpt>
      <trkpt lat="43.547855" lon="-8.302039">
        <ele>34.616</ele>
        <time>2016-09-22T11:48:11Z</time>
      </trkpt>
      <trkpt lat="43.547835" lon="-8.301832">
        <ele>33.276</ele>
        <time>2016-09-22T11:48:14Z</time>
      </trkpt>
      <trkpt lat="43.547813" lon="-8.301646">
        <ele>32.413</ele>
        <time>2016-09-22T11:48:17Z</time>
      </trkpt>
      <trkpt lat="43.547808" lon="-8.301597">
        <ele>32.008</ele>
        <time>2016-09-22T11:48:18Z</time>
      </trkpt>
      <trkpt lat="43.547796" lon="-8.301489">
        <ele>31.212</ele>
        <time>2016-09-22T11:48:21Z</time>
      </trkpt>
      <trkpt lat="43.547791" lon="-8.301453">
        <ele>31.076</ele>
        <time>2016-09-22T11:48:22Z</time>
      </trkpt>
      <trkpt lat="43.547770" lon="-8.301233">
        <ele>30.261</ele>
        <time>2016-09-22T11:48:28Z</time>
      </trkpt>
      <trkpt lat="43.547760" lon="-8.301172">
        <ele>29.839</ele>
        <time>2016-09-22T11:48:32Z</time>
      </trkpt>
      <trkpt lat="43.547745" lon="-8.301123">
        <ele>29.867</ele>
        <time>2016-09-22T11:48:35Z</time>
      </trkpt>
      <trkpt lat="43.547720" lon="-8.300985">
        <ele>29.427</ele>
        <time>2016-09-22T11:48:41Z</time>
      </trkpt>
      <trkpt lat="43.547667" lon="-8.300787">
        <ele>29.059</ele>
        <time>2016-09-22T11:48:47Z</time>
      </trkpt>
      <trkpt lat="43.547637" lon="-8.300763">
        <ele>28.861</ele>
        <time>2016-09-22T11:48:48Z</time>
      </trkpt>
      <trkpt lat="43.547533" lon="-8.300678">
        <ele>28.612</ele>
        <time>2016-09-22T11:48:51Z</time>
      </trkpt>
      <trkpt lat="43.547279" lon="-8.300375">
        <ele>29.032</ele>
        <time>2016-09-22T11:48:58Z</time>
      </trkpt>
      <trkpt lat="43.547009" lon="-8.300029">
        <ele>28.605</ele>
        <time>2016-09-22T11:49:05Z</time>
      </trkpt>
      <trkpt lat="43.546702" lon="-8.299710">
        <ele>28.608</ele>
        <time>2016-09-22T11:49:12Z</time>
      </trkpt>
      <trkpt lat="43.546539" lon="-8.299657">
        <ele>28.272</ele>
        <time>2016-09-22T11:49:15Z</time>
      </trkpt>
      <trkpt lat="43.546421" lon="-8.299698">
        <ele>27.896</ele>
        <time>2016-09-22T11:49:17Z</time>
      </trkpt>
      <trkpt lat="43.546363" lon="-8.299732">
        <ele>27.881</ele>
        <time>2016-09-22T11:49:18Z</time>
      </trkpt>
      <trkpt lat="43.546306" lon="-8.299770">
        <ele>27.899</ele>
        <time>2016-09-22T11:49:19Z</time>
      </trkpt>
      <trkpt lat="43.545914" lon="-8.300040">
        <ele>27.477</ele>
        <time>2016-09-22T11:49:26Z</time>
      </trkpt>
      <trkpt lat="43.545705" lon="-8.300201">
        <ele>27.487</ele>
        <time>2016-09-22T11:49:30Z</time>
      </trkpt>
      <trkpt lat="43.545679" lon="-8.300263">
        <ele>27.439</ele>
        <time>2016-09-22T11:49:31Z</time>
      </trkpt>
      <trkpt lat="43.545696" lon="-8.300467">
        <ele>27.681</ele>
        <time>2016-09-22T11:49:34Z</time>
      </trkpt>
      <trkpt lat="43.545663" lon="-8.300669">
        <ele>27.018</ele>
        <time>2016-09-22T11:49:37Z</time>
      </trkpt>
      <trkpt lat="43.545583" lon="-8.300755">
        <ele>26.898</ele>
        <time>2016-09-22T11:49:39Z</time>
      </trkpt>
      <trkpt lat="43.545490" lon="-8.300834">
        <ele>26.817</ele>
        <time>2016-09-22T11:49:41Z</time>
      </trkpt>
      <trkpt lat="43.545172" lon="-8.301045">
        <ele>27.408</ele>
        <time>2016-09-22T11:49:47Z</time>
      </trkpt>
      <trkpt lat="43.545061" lon="-8.301116">
        <ele>27.672</ele>
        <time>2016-09-22T11:49:49Z</time>
      </trkpt>
      <trkpt lat="43.544943" lon="-8.301161">
        <ele>27.656</ele>
        <time>2016-09-22T11:49:51Z</time>
      </trkpt>
      <trkpt lat="43.544826" lon="-8.301220">
        <ele>27.681</ele>
        <time>2016-09-22T11:49:53Z</time>
      </trkpt>
      <trkpt lat="43.544593" lon="-8.301334">
        <ele>26.629</ele>
        <time>2016-09-22T11:49:57Z</time>
      </trkpt>
      <trkpt lat="43.544419" lon="-8.301417">
        <ele>25.437</ele>
        <time>2016-09-22T11:50:00Z</time>
      </trkpt>
      <trkpt lat="43.544244" lon="-8.301520">
        <ele>24.657</ele>
        <time>2016-09-22T11:50:03Z</time>
      </trkpt>
      <trkpt lat="43.544189" lon="-8.301571">
        <ele>24.699</ele>
        <time>2016-09-22T11:50:04Z</time>
      </trkpt>
      <trkpt lat="43.544134" lon="-8.301630">
        <ele>24.291</ele>
        <time>2016-09-22T11:50:05Z</time>
      </trkpt>
      <trkpt lat="43.543960" lon="-8.301814">
        <ele>23.037</ele>
        <time>2016-09-22T11:50:08Z</time>
      </trkpt>
      <trkpt lat="43.543895" lon="-8.301867">
        <ele>22.649</ele>
        <time>2016-09-22T11:50:09Z</time>
      </trkpt>
      <trkpt lat="43.543683" lon="-8.302008">
        <ele>21.813</ele>
        <time>2016-09-22T11:50:12Z</time>
      </trkpt>
      <trkpt lat="43.543535" lon="-8.302102">
        <ele>20.608</ele>
        <time>2016-09-22T11:50:14Z</time>
      </trkpt>
      <trkpt lat="43.543382" lon="-8.302197">
        <ele>19.454</ele>
        <time>2016-09-22T11:50:16Z</time>
      </trkpt>
      <trkpt lat="43.543244" lon="-8.302272">
        <ele>18.228</ele>
        <time>2016-09-22T11:50:18Z</time>
      </trkpt>
      <trkpt lat="43.543189" lon="-8.302288">
        <ele>17.243</ele>
        <time>2016-09-22T11:50:19Z</time>
      </trkpt>
      <trkpt lat="43.543142" lon="-8.302276">
        <ele>16.651</ele>
        <time>2016-09-22T11:50:20Z</time>
      </trkpt>
      <trkpt lat="43.543105" lon="-8.302230">
        <ele>16.219</ele>
        <time>2016-09-22T11:50:21Z</time>
      </trkpt>
      <trkpt lat="43.543066" lon="-8.302073">
        <ele>14.869</ele>
        <time>2016-09-22T11:50:23Z</time>
      </trkpt>
      <trkpt lat="43.543059" lon="-8.301969">
        <ele>13.861</ele>
        <time>2016-09-22T11:50:24Z</time>
      </trkpt>
      <trkpt lat="43.543061" lon="-8.301855">
        <ele>12.813</ele>
        <time>2016-09-22T11:50:25Z</time>
      </trkpt>
      <trkpt lat="43.543068" lon="-8.301732">
        <ele>11.814</ele>
        <time>2016-09-22T11:50:26Z</time>
      </trkpt>
      <trkpt lat="43.543070" lon="-8.301495">
        <ele>10.254</ele>
        <time>2016-09-22T11:50:28Z</time>
      </trkpt>
      <trkpt lat="43.543072" lon="-8.301275">
        <ele>9.009</ele>
        <time>2016-09-22T11:50:30Z</time>
      </trkpt>
      <trkpt lat="43.543081" lon="-8.301166">
        <ele>8.808</ele>
        <time>2016-09-22T11:50:31Z</time>
      </trkpt>
      <trkpt lat="43.543115" lon="-8.300970">
        <ele>8.282</ele>
        <time>2016-09-22T11:50:33Z</time>
      </trkpt>
      <trkpt lat="43.543125" lon="-8.300880">
        <ele>8.056</ele>
        <time>2016-09-22T11:50:34Z</time>
      </trkpt>
      <trkpt lat="43.543120" lon="-8.300717">
        <ele>8.091</ele>
        <time>2016-09-22T11:50:36Z</time>
      </trkpt>
      <trkpt lat="43.543076" lon="-8.300291">
        <ele>8.239</ele>
        <time>2016-09-22T11:50:42Z</time>
      </trkpt>
      <trkpt lat="43.543056" lon="-8.300230">
        <ele>8.267</ele>
        <time>2016-09-22T11:50:43Z</time>
      </trkpt>
      <trkpt lat="43.542981" lon="-8.300173">
        <ele>8.647</ele>
        <time>2016-09-22T11:50:45Z</time>
      </trkpt>
      <trkpt lat="43.542887" lon="-8.300083">
        <ele>8.849</ele>
        <time>2016-09-22T11:50:48Z</time>
      </trkpt>
      <trkpt lat="43.542924" lon="-8.299937">
        <ele>9.051</ele>
        <time>2016-09-22T11:50:51Z</time>
      </trkpt>
      <trkpt lat="43.542945" lon="-8.299890">
        <ele>9.085</ele>
        <time>2016-09-22T11:50:52Z</time>
      </trkpt>
      <trkpt lat="43.542981" lon="-8.299790">
        <ele>9.289</ele>
        <time>2016-09-22T11:50:54Z</time>
      </trkpt>
      <trkpt lat="43.542992" lon="-8.299736">
        <ele>9.617</ele>
        <time>2016-09-22T11:50:55Z</time>
      </trkpt>
      <trkpt lat="43.543001" lon="-8.299684">
        <ele>10.008</ele>
        <time>2016-09-22T11:50:56Z</time>
      </trkpt>
      <trkpt lat="43.543015" lon="-8.299580">
        <ele>11.059</ele>
        <time>2016-09-22T11:50:58Z</time>
      </trkpt>
      <trkpt lat="43.543048" lon="-8.299375">
        <ele>12.223</ele>
        <time>2016-09-22T11:51:02Z</time>
      </trkpt>
      <trkpt lat="43.543055" lon="-8.299323">
        <ele>12.678</ele>
        <time>2016-09-22T11:51:03Z</time>
      </trkpt>
      <trkpt lat="43.543075" lon="-8.299149">
        <ele>13.266</ele>
        <time>2016-09-22T11:51:06Z</time>
      </trkpt>
      <trkpt lat="43.543102" lon="-8.298971">
        <ele>14.044</ele>
        <time>2016-09-22T11:51:09Z</time>
      </trkpt>
      <trkpt lat="43.543205" lon="-8.298566">
        <ele>13.884</ele>
        <time>2016-09-22T11:51:16Z</time>
      </trkpt>
      <trkpt lat="43.543261" lon="-8.298378">
        <ele>14.076</ele>
        <time>2016-09-22T11:51:19Z</time>
      </trkpt>
      <trkpt lat="43.543328" lon="-8.298201">
        <ele>13.498</ele>
        <time>2016-09-22T11:51:22Z</time>
      </trkpt>
      <trkpt lat="43.543307" lon="-8.298029">
        <ele>13.071</ele>
        <time>2016-09-22T11:51:25Z</time>
      </trkpt>
      <trkpt lat="43.543193" lon="-8.298042">
        <ele>20.241</ele>
        <time>2016-09-22T13:08:14Z</time>
      </trkpt>
      <trkpt lat="43.542971" lon="-8.298103">
        <ele>19.415</ele>
        <time>2016-09-22T13:08:19Z</time>
      </trkpt>
      <trkpt lat="43.542932" lon="-8.298120">
        <ele>19.008</ele>
        <time>2016-09-22T13:08:20Z</time>
      </trkpt>
      <trkpt lat="43.542893" lon="-8.298141">
        <ele>18.618</ele>
        <time>2016-09-22T13:08:21Z</time>
      </trkpt>
      <trkpt lat="43.542788" lon="-8.298237">
        <ele>18.252</ele>
        <time>2016-09-22T13:08:24Z</time>
      </trkpt>
      <trkpt lat="43.542762" lon="-8.298278">
        <ele>18.087</ele>
        <time>2016-09-22T13:08:25Z</time>
      </trkpt>
      <trkpt lat="43.542741" lon="-8.298320">
        <ele>17.855</ele>
        <time>2016-09-22T13:08:26Z</time>
      </trkpt>
      <trkpt lat="43.542664" lon="-8.298425">
        <ele>17.273</ele>
        <time>2016-09-22T13:08:30Z</time>
      </trkpt>
      <trkpt lat="43.542611" lon="-8.298347">
        <ele>17.283</ele>
        <time>2016-09-22T13:08:33Z</time>
      </trkpt>
      <trkpt lat="43.542596" lon="-8.298300">
        <ele>17.245</ele>
        <time>2016-09-22T13:08:34Z</time>
      </trkpt>
      <trkpt lat="43.542511" lon="-8.298088">
        <ele>16.657</ele>
        <time>2016-09-22T13:08:38Z</time>
      </trkpt>
      <trkpt lat="43.542475" lon="-8.298051">
        <ele>16.437</ele>
        <time>2016-09-22T13:08:39Z</time>
      </trkpt>
      <trkpt lat="43.542381" lon="-8.298016">
        <ele>16.049</ele>
        <time>2016-09-22T13:08:41Z</time>
      </trkpt>
      <trkpt lat="43.542329" lon="-8.298009">
        <ele>15.613</ele>
        <time>2016-09-22T13:08:42Z</time>
      </trkpt>
      <trkpt lat="43.542277" lon="-8.298010">
        <ele>15.208</ele>
        <time>2016-09-22T13:08:43Z</time>
      </trkpt>
      <trkpt lat="43.542176" lon="-8.298069">
        <ele>14.484</ele>
        <time>2016-09-22T13:08:45Z</time>
      </trkpt>
      <trkpt lat="43.542132" lon="-8.298118">
        <ele>13.688</ele>
        <time>2016-09-22T13:08:46Z</time>
      </trkpt>
      <trkpt lat="43.542086" lon="-8.298169">
        <ele>13.463</ele>
        <time>2016-09-22T13:08:47Z</time>
      </trkpt>
      <trkpt lat="43.541987" lon="-8.298262">
        <ele>12.421</ele>
        <time>2016-09-22T13:08:49Z</time>
      </trkpt>
      <trkpt lat="43.541940" lon="-8.298295">
        <ele>12.029</ele>
        <time>2016-09-22T13:08:50Z</time>
      </trkpt>
      <trkpt lat="43.541903" lon="-8.298312">
        <ele>11.839</ele>
        <time>2016-09-22T13:08:51Z</time>
      </trkpt>
      <trkpt lat="43.541870" lon="-8.298321">
        <ele>10.811</ele>
        <time>2016-09-22T13:08:54Z</time>
      </trkpt>
      <trkpt lat="43.541872" lon="-8.298321">
        <ele>10.693</ele>
        <time>2016-09-22T13:08:55Z</time>
      </trkpt>
      <trkpt lat="43.541851" lon="-8.298280">
        <ele>9.294</ele>
        <time>2016-09-22T13:09:53Z</time>
      </trkpt>
      <trkpt lat="43.541822" lon="-8.298252">
        <ele>9.257</ele>
        <time>2016-09-22T13:09:56Z</time>
      </trkpt>
      <trkpt lat="43.541786" lon="-8.298224">
        <ele>8.422</ele>
        <time>2016-09-22T13:09:59Z</time>
      </trkpt>
      <trkpt lat="43.541752" lon="-8.298209">
        <ele>7.808</ele>
        <time>2016-09-22T13:10:01Z</time>
      </trkpt>
      <trkpt lat="43.541718" lon="-8.298197">
        <ele>7.420</ele>
        <time>2016-09-22T13:10:03Z</time>
      </trkpt>
      <trkpt lat="43.541665" lon="-8.298173">
        <ele>6.294</ele>
        <time>2016-09-22T13:10:07Z</time>
      </trkpt>
      <trkpt lat="43.541616" lon="-8.298143">
        <ele>5.669</ele>
        <time>2016-09-22T13:10:11Z</time>
      </trkpt>
      <trkpt lat="43.541604" lon="-8.298096">
        <ele>5.227</ele>
        <time>2016-09-22T13:10:14Z</time>
      </trkpt>
      <trkpt lat="43.541598" lon="-8.298054">
        <ele>5.085</ele>
        <time>2016-09-22T13:10:18Z</time>
      </trkpt>
      <trkpt lat="43.541599" lon="-8.298055">
        <ele>4.875</ele>
        <time>2016-09-22T13:10:19Z</time>
      </trkpt>
      <trkpt lat="43.541395" lon="-8.297905">
        <ele>6.687</ele>
        <time>2016-09-22T13:11:06Z</time>
      </trkpt>
      <trkpt lat="43.541363" lon="-8.297880">
        <ele>7.029</ele>
        <time>2016-09-22T13:11:09Z</time>
      </trkpt>
      <trkpt lat="43.541341" lon="-8.297843">
        <ele>7.888</ele>
        <time>2016-09-22T13:11:12Z</time>
      </trkpt>
      <trkpt lat="43.541336" lon="-8.297832">
        <ele>8.424</ele>
        <time>2016-09-22T13:11:15Z</time>
      </trkpt>
      <trkpt lat="43.541300" lon="-8.297786">
        <ele>8.826</ele>
        <time>2016-09-22T13:11:20Z</time>
      </trkpt>
      <trkpt lat="43.541242" lon="-8.297717">
        <ele>9.208</ele>
        <time>2016-09-22T13:11:25Z</time>
      </trkpt>
      <trkpt lat="43.541140" lon="-8.297688">
        <ele>9.649</ele>
        <time>2016-09-22T13:11:31Z</time>
      </trkpt>
      <trkpt lat="43.541094" lon="-8.297658">
        <ele>9.823</ele>
        <time>2016-09-22T13:11:34Z</time>
      </trkpt>
      <trkpt lat="43.541058" lon="-8.297627">
        <ele>9.818</ele>
        <time>2016-09-22T13:11:37Z</time>
      </trkpt>
      <trkpt lat="43.540984" lon="-8.297533">
        <ele>9.276</ele>
        <time>2016-09-22T13:11:42Z</time>
      </trkpt>
      <trkpt lat="43.540916" lon="-8.297458">
        <ele>9.814</ele>
        <time>2016-09-22T13:11:46Z</time>
      </trkpt>
      <trkpt lat="43.540907" lon="-8.297422">
        <ele>10.044</ele>
        <time>2016-09-22T13:11:47Z</time>
      </trkpt>
      <trkpt lat="43.540815" lon="-8.297132">
        <ele>10.046</ele>
        <time>2016-09-22T13:11:55Z</time>
      </trkpt>
      <trkpt lat="43.540715" lon="-8.296949">
        <ele>10.628</ele>
        <time>2016-09-22T13:12:01Z</time>
      </trkpt>
      <trkpt lat="43.540682" lon="-8.296761">
        <ele>11.064</ele>
        <time>2016-09-22T13:12:06Z</time>
      </trkpt>
      <trkpt lat="43.540689" lon="-8.296556">
        <ele>12.206</ele>
        <time>2016-09-22T13:12:11Z</time>
      </trkpt>
      <trkpt lat="43.540692" lon="-8.296513">
        <ele>12.416</ele>
        <time>2016-09-22T13:12:12Z</time>
      </trkpt>
      <trkpt lat="43.540717" lon="-8.296301">
        <ele>13.208</ele>
        <time>2016-09-22T13:12:17Z</time>
      </trkpt>
      <trkpt lat="43.540721" lon="-8.296218">
        <ele>13.697</ele>
        <time>2016-09-22T13:12:19Z</time>
      </trkpt>
      <trkpt lat="43.540688" lon="-8.295997">
        <ele>14.291</ele>
        <time>2016-09-22T13:12:24Z</time>
      </trkpt>
      <trkpt lat="43.540756" lon="-8.295796">
        <ele>15.076</ele>
        <time>2016-09-22T13:12:29Z</time>
      </trkpt>
      <trkpt lat="43.540817" lon="-8.295681">
        <ele>15.254</ele>
        <time>2016-09-22T13:12:32Z</time>
      </trkpt>
      <trkpt lat="43.540958" lon="-8.295433">
        <ele>16.422</ele>
        <time>2016-09-22T13:12:39Z</time>
      </trkpt>
      <trkpt lat="43.541058" lon="-8.295257">
        <ele>17.412</ele>
        <time>2016-09-22T13:12:44Z</time>
      </trkpt>
      <trkpt lat="43.541166" lon="-8.295076">
        <ele>18.094</ele>
        <time>2016-09-22T13:12:49Z</time>
      </trkpt>
      <trkpt lat="43.541252" lon="-8.294928">
        <ele>18.466</ele>
        <time>2016-09-22T13:12:53Z</time>
      </trkpt>
      <trkpt lat="43.541361" lon="-8.294745">
        <ele>19.497</ele>
        <time>2016-09-22T13:12:58Z</time>
      </trkpt>
      <trkpt lat="43.541379" lon="-8.294707">
        <ele>19.423</ele>
        <time>2016-09-22T13:12:59Z</time>
      </trkpt>
      <trkpt lat="43.541406" lon="-8.294628">
        <ele>19.825</ele>
        <time>2016-09-22T13:13:01Z</time>
      </trkpt>
      <trkpt lat="43.541370" lon="-8.294574">
        <ele>20.208</ele>
        <time>2016-09-22T13:13:03Z</time>
      </trkpt>
      <trkpt lat="43.541336" lon="-8.294556">
        <ele>20.640</ele>
        <time>2016-09-22T13:13:04Z</time>
      </trkpt>
      <trkpt lat="43.541141" lon="-8.294440">
        <ele>20.814</ele>
        <time>2016-09-22T13:13:09Z</time>
      </trkpt>
      <trkpt lat="43.540783" lon="-8.294235">
        <ele>21.689</ele>
        <time>2016-09-22T13:13:17Z</time>
      </trkpt>
      <trkpt lat="43.540739" lon="-8.294207">
        <ele>21.637</ele>
        <time>2016-09-22T13:13:18Z</time>
      </trkpt>
      <trkpt lat="43.540323" lon="-8.293950">
        <ele>22.855</ele>
        <time>2016-09-22T13:13:28Z</time>
      </trkpt>
      <trkpt lat="43.539988" lon="-8.293742">
        <ele>23.845</ele>
        <time>2016-09-22T13:13:36Z</time>
      </trkpt>
      <trkpt lat="43.539863" lon="-8.293659">
        <ele>24.037</ele>
        <time>2016-09-22T13:13:39Z</time>
      </trkpt>
      <trkpt lat="43.539518" lon="-8.293447">
        <ele>24.449</ele>
        <time>2016-09-22T13:13:47Z</time>
      </trkpt>
      <trkpt lat="43.539136" lon="-8.293215">
        <ele>25.053</ele>
        <time>2016-09-22T13:13:56Z</time>
      </trkpt>
      <trkpt lat="43.539049" lon="-8.293164">
        <ele>25.204</ele>
        <time>2016-09-22T13:13:58Z</time>
      </trkpt>
      <trkpt lat="43.538573" lon="-8.292877">
        <ele>25.014</ele>
        <time>2016-09-22T13:14:08Z</time>
      </trkpt>
      <trkpt lat="43.538469" lon="-8.292823">
        <ele>24.408</ele>
        <time>2016-09-22T13:14:10Z</time>
      </trkpt>
      <trkpt lat="43.538299" lon="-8.292749">
        <ele>24.036</ele>
        <time>2016-09-22T13:14:13Z</time>
      </trkpt>
      <trkpt lat="43.538176" lon="-8.292694">
        <ele>23.640</ele>
        <time>2016-09-22T13:14:15Z</time>
      </trkpt>
      <trkpt lat="43.537974" lon="-8.292616">
        <ele>22.685</ele>
        <time>2016-09-22T13:14:18Z</time>
      </trkpt>
      <trkpt lat="43.537833" lon="-8.292560">
        <ele>22.023</ele>
        <time>2016-09-22T13:14:20Z</time>
      </trkpt>
      <trkpt lat="43.537616" lon="-8.292478">
        <ele>21.491</ele>
        <time>2016-09-22T13:14:23Z</time>
      </trkpt>
      <trkpt lat="43.537326" lon="-8.292376">
        <ele>20.221</ele>
        <time>2016-09-22T13:14:27Z</time>
      </trkpt>
      <trkpt lat="43.537110" lon="-8.292297">
        <ele>19.433</ele>
        <time>2016-09-22T13:14:30Z</time>
      </trkpt>
      <trkpt lat="43.536966" lon="-8.292241">
        <ele>19.015</ele>
        <time>2016-09-22T13:14:32Z</time>
      </trkpt>
      <trkpt lat="43.536549" lon="-8.292093">
        <ele>18.085</ele>
        <time>2016-09-22T13:14:38Z</time>
      </trkpt>
      <trkpt lat="43.536482" lon="-8.292070">
        <ele>17.889</ele>
        <time>2016-09-22T13:14:39Z</time>
      </trkpt>
      <trkpt lat="43.536217" lon="-8.291971">
        <ele>17.017</ele>
        <time>2016-09-22T13:14:43Z</time>
      </trkpt>
      <trkpt lat="43.535877" lon="-8.291848">
        <ele>15.608</ele>
        <time>2016-09-22T13:14:48Z</time>
      </trkpt>
      <trkpt lat="43.535522" lon="-8.291723">
        <ele>14.679</ele>
        <time>2016-09-22T13:14:53Z</time>
      </trkpt>
      <trkpt lat="43.535230" lon="-8.291618">
        <ele>13.423</ele>
        <time>2016-09-22T13:14:57Z</time>
      </trkpt>
      <trkpt lat="43.535006" lon="-8.291534">
        <ele>12.438</ele>
        <time>2016-09-22T13:15:00Z</time>
      </trkpt>
      <trkpt lat="43.534700" lon="-8.291423">
        <ele>11.056</ele>
        <time>2016-09-22T13:15:04Z</time>
      </trkpt>
      <trkpt lat="43.534546" lon="-8.291366">
        <ele>9.844</ele>
        <time>2016-09-22T13:15:06Z</time>
      </trkpt>
      <trkpt lat="43.534319" lon="-8.291284">
        <ele>9.014</ele>
        <time>2016-09-22T13:15:09Z</time>
      </trkpt>
      <trkpt lat="43.534245" lon="-8.291258">
        <ele>8.866</ele>
        <time>2016-09-22T13:15:10Z</time>
      </trkpt>
      <trkpt lat="43.533689" lon="-8.291052">
        <ele>7.868</ele>
        <time>2016-09-22T13:15:18Z</time>
      </trkpt>
      <trkpt lat="43.533129" lon="-8.290851">
        <ele>7.682</ele>
        <time>2016-09-22T13:15:27Z</time>
      </trkpt>
      <trkpt lat="43.533067" lon="-8.290829">
        <ele>7.643</ele>
        <time>2016-09-22T13:15:28Z</time>
      </trkpt>
      <trkpt lat="43.532523" lon="-8.290641">
        <ele>7.017</ele>
        <time>2016-09-22T13:15:37Z</time>
      </trkpt>
      <trkpt lat="43.532462" lon="-8.290625">
        <ele>6.808</ele>
        <time>2016-09-22T13:15:38Z</time>
      </trkpt>
      <trkpt lat="43.532218" lon="-8.290599">
        <ele>6.819</ele>
        <time>2016-09-22T13:15:42Z</time>
      </trkpt>
      <trkpt lat="43.532096" lon="-8.290607">
        <ele>6.853</ele>
        <time>2016-09-22T13:15:44Z</time>
      </trkpt>
      <trkpt lat="43.531743" lon="-8.290721">
        <ele>7.078</ele>
        <time>2016-09-22T13:15:50Z</time>
      </trkpt>
      <trkpt lat="43.531379" lon="-8.290977">
        <ele>7.496</ele>
        <time>2016-09-22T13:15:57Z</time>
      </trkpt>
      <trkpt lat="43.531231" lon="-8.291095">
        <ele>7.844</ele>
        <time>2016-09-22T13:16:00Z</time>
      </trkpt>
      <trkpt lat="43.530849" lon="-8.291403">
        <ele>8.644</ele>
        <time>2016-09-22T13:16:08Z</time>
      </trkpt>
      <trkpt lat="43.530801" lon="-8.291441">
        <ele>8.876</ele>
        <time>2016-09-22T13:16:09Z</time>
      </trkpt>
      <trkpt lat="43.530363" lon="-8.291796">
        <ele>9.228</ele>
        <time>2016-09-22T13:16:18Z</time>
      </trkpt>
      <trkpt lat="43.529883" lon="-8.292172">
        <ele>8.052</ele>
        <time>2016-09-22T13:16:27Z</time>
      </trkpt>
      <trkpt lat="43.529775" lon="-8.292258">
        <ele>7.853</ele>
        <time>2016-09-22T13:16:29Z</time>
      </trkpt>
      <trkpt lat="43.529612" lon="-8.292381">
        <ele>7.608</ele>
        <time>2016-09-22T13:16:32Z</time>
      </trkpt>
      <trkpt lat="43.529291" lon="-8.292637">
        <ele>7.208</ele>
        <time>2016-09-22T13:16:38Z</time>
      </trkpt>
      <trkpt lat="43.529076" lon="-8.292806">
        <ele>6.836</ele>
        <time>2016-09-22T13:16:42Z</time>
      </trkpt>
      <trkpt lat="43.528913" lon="-8.292937">
        <ele>6.690</ele>
        <time>2016-09-22T13:16:45Z</time>
      </trkpt>
      <trkpt lat="43.528637" lon="-8.293156">
        <ele>5.885</ele>
        <time>2016-09-22T13:16:50Z</time>
      </trkpt>
      <trkpt lat="43.528309" lon="-8.293421">
        <ele>5.413</ele>
        <time>2016-09-22T13:16:56Z</time>
      </trkpt>
      <trkpt lat="43.528043" lon="-8.293659">
        <ele>5.031</ele>
        <time>2016-09-22T13:17:01Z</time>
      </trkpt>
      <trkpt lat="43.527592" lon="-8.294142">
        <ele>4.641</ele>
        <time>2016-09-22T13:17:10Z</time>
      </trkpt>
      <trkpt lat="43.527452" lon="-8.294311">
        <ele>4.453</ele>
        <time>2016-09-22T13:17:13Z</time>
      </trkpt>
      <trkpt lat="43.527180" lon="-8.294658">
        <ele>4.665</ele>
        <time>2016-09-22T13:17:19Z</time>
      </trkpt>
      <trkpt lat="43.526771" lon="-8.295168">
        <ele>5.071</ele>
        <time>2016-09-22T13:17:28Z</time>
      </trkpt>
      <trkpt lat="43.526727" lon="-8.295222">
        <ele>5.241</ele>
        <time>2016-09-22T13:17:29Z</time>
      </trkpt>
      <trkpt lat="43.526551" lon="-8.295447">
        <ele>5.415</ele>
        <time>2016-09-22T13:17:33Z</time>
      </trkpt>
      <trkpt lat="43.526145" lon="-8.295962">
        <ele>5.208</ele>
        <time>2016-09-22T13:17:42Z</time>
      </trkpt>
      <trkpt lat="43.526100" lon="-8.296021">
        <ele>5.248</ele>
        <time>2016-09-22T13:17:43Z</time>
      </trkpt>
      <trkpt lat="43.525678" lon="-8.296544">
        <ele>4.422</ele>
        <time>2016-09-22T13:17:52Z</time>
      </trkpt>
      <trkpt lat="43.525632" lon="-8.296600">
        <ele>4.467</ele>
        <time>2016-09-22T13:17:53Z</time>
      </trkpt>
      <trkpt lat="43.525279" lon="-8.297015">
        <ele>5.035</ele>
        <time>2016-09-22T13:18:01Z</time>
      </trkpt>
      <trkpt lat="43.525254" lon="-8.297070">
        <ele>5.073</ele>
        <time>2016-09-22T13:18:02Z</time>
      </trkpt>
      <trkpt lat="43.525225" lon="-8.297172">
        <ele>4.693</ele>
        <time>2016-09-22T13:18:05Z</time>
      </trkpt>
      <trkpt lat="43.525199" lon="-8.297296">
        <ele>4.695</ele>
        <time>2016-09-22T13:18:09Z</time>
      </trkpt>
      <trkpt lat="43.525186" lon="-8.297318">
        <ele>4.687</ele>
        <time>2016-09-22T13:18:10Z</time>
      </trkpt>
      <trkpt lat="43.525114" lon="-8.297401">
        <ele>4.462</ele>
        <time>2016-09-22T13:18:15Z</time>
      </trkpt>
      <trkpt lat="43.525002" lon="-8.297566">
        <ele>4.483</ele>
        <time>2016-09-22T13:18:21Z</time>
      </trkpt>
      <trkpt lat="43.524941" lon="-8.297609">
        <ele>4.411</ele>
        <time>2016-09-22T13:18:24Z</time>
      </trkpt>
      <trkpt lat="43.524925" lon="-8.297628">
        <ele>4.408</ele>
        <time>2016-09-22T13:18:25Z</time>
      </trkpt>
      <trkpt lat="43.524899" lon="-8.297685">
        <ele>4.417</ele>
        <time>2016-09-22T13:18:30Z</time>
      </trkpt>
      <trkpt lat="43.524898" lon="-8.297683">
        <ele>4.251</ele>
        <time>2016-09-22T13:18:31Z</time>
      </trkpt>
      <trkpt lat="43.525011" lon="-8.297555">
        <ele>4.056</ele>
        <time>2016-09-22T13:20:09Z</time>
      </trkpt>
      <trkpt lat="43.525053" lon="-8.297494">
        <ele>4.064</ele>
        <time>2016-09-22T13:20:12Z</time>
      </trkpt>
      <trkpt lat="43.525106" lon="-8.297398">
        <ele>4.092</ele>
        <time>2016-09-22T13:20:16Z</time>
      </trkpt>
      <trkpt lat="43.525124" lon="-8.297384">
        <ele>4.062</ele>
        <time>2016-09-22T13:20:17Z</time>
      </trkpt>
      <trkpt lat="43.525181" lon="-8.297304">
        <ele>4.014</ele>
        <time>2016-09-22T13:20:21Z</time>
      </trkpt>
      <trkpt lat="43.525189" lon="-8.297272">
        <ele>4.076</ele>
        <time>2016-09-22T13:20:22Z</time>
      </trkpt>
      <trkpt lat="43.525201" lon="-8.297193">
        <ele>4.043</ele>
        <time>2016-09-22T13:20:24Z</time>
      </trkpt>
      <trkpt lat="43.525183" lon="-8.297137">
        <ele>4.264</ele>
        <time>2016-09-22T13:20:26Z</time>
      </trkpt>
      <trkpt lat="43.525124" lon="-8.297167">
        <ele>4.610</ele>
        <time>2016-09-22T13:20:29Z</time>
      </trkpt>
      <trkpt lat="43.525099" lon="-8.297192">
        <ele>4.608</ele>
        <time>2016-09-22T13:20:30Z</time>
      </trkpt>
      <trkpt lat="43.524933" lon="-8.297342">
        <ele>5.275</ele>
        <time>2016-09-22T13:20:36Z</time>
      </trkpt>
      <trkpt lat="43.524745" lon="-8.297492">
        <ele>5.459</ele>
        <time>2016-09-22T13:20:43Z</time>
      </trkpt>
      <trkpt lat="43.524716" lon="-8.297515">
        <ele>5.644</ele>
        <time>2016-09-22T13:20:44Z</time>
      </trkpt>
      <trkpt lat="43.524490" lon="-8.297678">
        <ele>5.672</ele>
        <time>2016-09-22T13:20:52Z</time>
      </trkpt>
      <trkpt lat="43.524322" lon="-8.297784">
        <ele>6.280</ele>
        <time>2016-09-22T13:20:59Z</time>
      </trkpt>
      <trkpt lat="43.524125" lon="-8.297903">
        <ele>6.290</ele>
        <time>2016-09-22T13:21:05Z</time>
      </trkpt>
      <trkpt lat="43.523818" lon="-8.298084">
        <ele>6.442</ele>
        <time>2016-09-22T13:21:13Z</time>
      </trkpt>
      <trkpt lat="43.523779" lon="-8.298105">
        <ele>6.624</ele>
        <time>2016-09-22T13:21:14Z</time>
      </trkpt>
      <trkpt lat="43.523524" lon="-8.298255">
        <ele>7.281</ele>
        <time>2016-09-22T13:21:21Z</time>
      </trkpt>
      <trkpt lat="43.523312" lon="-8.298374">
        <ele>7.861</ele>
        <time>2016-09-22T13:21:27Z</time>
      </trkpt>
      <trkpt lat="43.523135" lon="-8.298480">
        <ele>8.617</ele>
        <time>2016-09-22T13:21:32Z</time>
      </trkpt>
      <trkpt lat="43.523066" lon="-8.298517">
        <ele>9.008</ele>
        <time>2016-09-22T13:21:34Z</time>
      </trkpt>
      <trkpt lat="43.522930" lon="-8.298594">
        <ele>10.249</ele>
        <time>2016-09-22T13:21:38Z</time>
      </trkpt>
      <trkpt lat="43.522764" lon="-8.298690">
        <ele>11.453</ele>
        <time>2016-09-22T13:21:43Z</time>
      </trkpt>
      <trkpt lat="43.522730" lon="-8.298709">
        <ele>11.678</ele>
        <time>2016-09-22T13:21:44Z</time>
      </trkpt>
      <trkpt lat="43.522596" lon="-8.298795">
        <ele>12.476</ele>
        <time>2016-09-22T13:21:48Z</time>
      </trkpt>
      <trkpt lat="43.522436" lon="-8.298896">
        <ele>13.434</ele>
        <time>2016-09-22T13:21:53Z</time>
      </trkpt>
      <trkpt lat="43.522402" lon="-8.298920">
        <ele>13.694</ele>
        <time>2016-09-22T13:21:54Z</time>
      </trkpt>
      <trkpt lat="43.522204" lon="-8.299051">
        <ele>14.646</ele>
        <time>2016-09-22T13:22:00Z</time>
      </trkpt>
      <trkpt lat="43.521993" lon="-8.299179">
        <ele>15.868</ele>
        <time>2016-09-22T13:22:06Z</time>
      </trkpt>
      <trkpt lat="43.521923" lon="-8.299228">
        <ele>15.854</ele>
        <time>2016-09-22T13:22:08Z</time>
      </trkpt>
      <trkpt lat="43.521691" lon="-8.299357">
        <ele>16.856</ele>
        <time>2016-09-22T13:22:14Z</time>
      </trkpt>
      <trkpt lat="43.521527" lon="-8.299441">
        <ele>17.011</ele>
        <time>2016-09-22T13:22:18Z</time>
      </trkpt>
      <trkpt lat="43.521276" lon="-8.299561">
        <ele>17.408</ele>
        <time>2016-09-22T13:22:24Z</time>
      </trkpt>
      <trkpt lat="43.520983" lon="-8.299707">
        <ele>17.476</ele>
        <time>2016-09-22T13:22:31Z</time>
      </trkpt>
      <trkpt lat="43.520645" lon="-8.299866">
        <ele>17.240</ele>
        <time>2016-09-22T13:22:38Z</time>
      </trkpt>
      <trkpt lat="43.520190" lon="-8.300097">
        <ele>17.235</ele>
        <time>2016-09-22T13:22:47Z</time>
      </trkpt>
      <trkpt lat="43.519861" lon="-8.300263">
        <ele>18.033</ele>
        <time>2016-09-22T13:22:54Z</time>
      </trkpt>
      <trkpt lat="43.519821" lon="-8.300282">
        <ele>18.011</ele>
        <time>2016-09-22T13:22:55Z</time>
      </trkpt>
      <trkpt lat="43.519655" lon="-8.300371">
        <ele>18.871</ele>
        <time>2016-09-22T13:23:00Z</time>
      </trkpt>
      <trkpt lat="43.519532" lon="-8.300432">
        <ele>19.013</ele>
        <time>2016-09-22T13:23:05Z</time>
      </trkpt>
      <trkpt lat="43.519447" lon="-8.300479">
        <ele>19.285</ele>
        <time>2016-09-22T13:23:08Z</time>
      </trkpt>
      <trkpt lat="43.519411" lon="-8.300499">
        <ele>19.411</ele>
        <time>2016-09-22T13:23:09Z</time>
      </trkpt>
      <trkpt lat="43.518953" lon="-8.300730">
        <ele>20.421</ele>
        <time>2016-09-22T13:23:20Z</time>
      </trkpt>
      <trkpt lat="43.518597" lon="-8.300916">
        <ele>21.403</ele>
        <time>2016-09-22T13:23:28Z</time>
      </trkpt>
      <trkpt lat="43.518506" lon="-8.300965">
        <ele>21.608</ele>
        <time>2016-09-22T13:23:30Z</time>
      </trkpt>
      <trkpt lat="43.518085" lon="-8.301190">
        <ele>21.832</ele>
        <time>2016-09-22T13:23:39Z</time>
      </trkpt>
      <trkpt lat="43.517800" lon="-8.301355">
        <ele>22.456</ele>
        <time>2016-09-22T13:23:45Z</time>
      </trkpt>
      <trkpt lat="43.517426" lon="-8.301564">
        <ele>23.681</ele>
        <time>2016-09-22T13:23:53Z</time>
      </trkpt>
      <trkpt lat="43.517012" lon="-8.301804">
        <ele>24.419</ele>
        <time>2016-09-22T13:24:02Z</time>
      </trkpt>
      <trkpt lat="43.516472" lon="-8.302127">
        <ele>24.097</ele>
        <time>2016-09-22T13:24:13Z</time>
      </trkpt>
      <trkpt lat="43.516419" lon="-8.302160">
        <ele>23.837</ele>
        <time>2016-09-22T13:24:14Z</time>
      </trkpt>
      <trkpt lat="43.515911" lon="-8.302506">
        <ele>23.029</ele>
        <time>2016-09-22T13:24:24Z</time>
      </trkpt>
      <trkpt lat="43.515496" lon="-8.302808">
        <ele>22.631</ele>
        <time>2016-09-22T13:24:33Z</time>
      </trkpt>
      <trkpt lat="43.515038" lon="-8.303147">
        <ele>24.273</ele>
        <time>2016-09-22T13:24:43Z</time>
      </trkpt>
      <trkpt lat="43.514948" lon="-8.303207">
        <ele>24.685</ele>
        <time>2016-09-22T13:24:45Z</time>
      </trkpt>
      <trkpt lat="43.514677" lon="-8.303356">
        <ele>25.613</ele>
        <time>2016-09-22T13:24:51Z</time>
      </trkpt>
      <trkpt lat="43.514541" lon="-8.303421">
        <ele>26.208</ele>
        <time>2016-09-22T13:24:54Z</time>
      </trkpt>
      <trkpt lat="43.514410" lon="-8.303475">
        <ele>26.818</ele>
        <time>2016-09-22T13:24:57Z</time>
      </trkpt>
      <trkpt lat="43.514165" lon="-8.303575">
        <ele>27.082</ele>
        <time>2016-09-22T13:25:03Z</time>
      </trkpt>
      <trkpt lat="43.513833" lon="-8.303722">
        <ele>26.457</ele>
        <time>2016-09-22T13:25:10Z</time>
      </trkpt>
      <trkpt lat="43.513654" lon="-8.303796">
        <ele>25.625</ele>
        <time>2016-09-22T13:25:13Z</time>
      </trkpt>
      <trkpt lat="43.513457" lon="-8.303886">
        <ele>24.623</ele>
        <time>2016-09-22T13:25:16Z</time>
      </trkpt>
      <trkpt lat="43.513387" lon="-8.303915">
        <ele>24.493</ele>
        <time>2016-09-22T13:25:17Z</time>
      </trkpt>
      <trkpt lat="43.513038" lon="-8.304067">
        <ele>23.215</ele>
        <time>2016-09-22T13:25:22Z</time>
      </trkpt>
      <trkpt lat="43.512773" lon="-8.304182">
        <ele>22.687</ele>
        <time>2016-09-22T13:25:26Z</time>
      </trkpt>
      <trkpt lat="43.512472" lon="-8.304294">
        <ele>22.439</ele>
        <time>2016-09-22T13:25:31Z</time>
      </trkpt>
      <trkpt lat="43.512424" lon="-8.304334">
        <ele>22.401</ele>
        <time>2016-09-22T13:25:32Z</time>
      </trkpt>
      <trkpt lat="43.512400" lon="-8.304486">
        <ele>22.421</ele>
        <time>2016-09-22T13:25:34Z</time>
      </trkpt>
      <trkpt lat="43.512424" lon="-8.304678">
        <ele>22.208</ele>
        <time>2016-09-22T13:25:36Z</time>
      </trkpt>
      <trkpt lat="43.512425" lon="-8.304900">
        <ele>21.254</ele>
        <time>2016-09-22T13:25:38Z</time>
      </trkpt>
      <trkpt lat="43.512411" lon="-8.305021">
        <ele>20.868</ele>
        <time>2016-09-22T13:25:39Z</time>
      </trkpt>
      <trkpt lat="43.512387" lon="-8.305275">
        <ele>19.073</ele>
        <time>2016-09-22T13:25:41Z</time>
      </trkpt>
      <trkpt lat="43.512386" lon="-8.305409">
        <ele>18.241</ele>
        <time>2016-09-22T13:25:42Z</time>
      </trkpt>
      <trkpt lat="43.512395" lon="-8.305544">
        <ele>17.419</ele>
        <time>2016-09-22T13:25:43Z</time>
      </trkpt>
      <trkpt lat="43.512440" lon="-8.305812">
        <ele>16.029</ele>
        <time>2016-09-22T13:25:45Z</time>
      </trkpt>
      <trkpt lat="43.512475" lon="-8.305940">
        <ele>15.461</ele>
        <time>2016-09-22T13:25:46Z</time>
      </trkpt>
      <trkpt lat="43.512511" lon="-8.306068">
        <ele>14.863</ele>
        <time>2016-09-22T13:25:47Z</time>
      </trkpt>
      <trkpt lat="43.512582" lon="-8.306318">
        <ele>13.644</ele>
        <time>2016-09-22T13:25:49Z</time>
      </trkpt>
      <trkpt lat="43.512683" lon="-8.306677">
        <ele>12.605</ele>
        <time>2016-09-22T13:25:52Z</time>
      </trkpt>
      <trkpt lat="43.512752" lon="-8.306896">
        <ele>12.015</ele>
        <time>2016-09-22T13:25:54Z</time>
      </trkpt>
      <trkpt lat="43.512819" lon="-8.307099">
        <ele>11.608</ele>
        <time>2016-09-22T13:25:56Z</time>
      </trkpt>
      <trkpt lat="43.512944" lon="-8.307453">
        <ele>11.415</ele>
        <time>2016-09-22T13:26:00Z</time>
      </trkpt>
      <trkpt lat="43.513141" lon="-8.307958">
        <ele>11.219</ele>
        <time>2016-09-22T13:26:07Z</time>
      </trkpt>
      <trkpt lat="43.513339" lon="-8.308513">
        <ele>11.424</ele>
        <time>2016-09-22T13:26:15Z</time>
      </trkpt>
      <trkpt lat="43.513455" lon="-8.309081">
        <ele>11.642</ele>
        <time>2016-09-22T13:26:23Z</time>
      </trkpt>
      <trkpt lat="43.513562" lon="-8.309580">
        <ele>12.470</ele>
        <time>2016-09-22T13:26:31Z</time>
      </trkpt>
      <trkpt lat="43.513576" lon="-8.309633">
        <ele>12.680</ele>
        <time>2016-09-22T13:26:32Z</time>
      </trkpt>
      <trkpt lat="43.513622" lon="-8.309784">
        <ele>13.832</ele>
        <time>2016-09-22T13:26:35Z</time>
      </trkpt>
      <trkpt lat="43.513649" lon="-8.309876">
        <ele>14.084</ele>
        <time>2016-09-22T13:26:37Z</time>
      </trkpt>
      <trkpt lat="43.513703" lon="-8.310039">
        <ele>14.886</ele>
        <time>2016-09-22T13:26:41Z</time>
      </trkpt>
      <trkpt lat="43.513735" lon="-8.310127">
        <ele>15.260</ele>
        <time>2016-09-22T13:26:43Z</time>
      </trkpt>
      <trkpt lat="43.513795" lon="-8.310352">
        <ele>15.826</ele>
        <time>2016-09-22T13:26:48Z</time>
      </trkpt>
      <trkpt lat="43.513811" lon="-8.310431">
        <ele>16.408</ele>
        <time>2016-09-22T13:26:50Z</time>
      </trkpt>
      <trkpt lat="43.513817" lon="-8.310472">
        <ele>16.869</ele>
        <time>2016-09-22T13:26:51Z</time>
      </trkpt>
      <trkpt lat="43.513858" lon="-8.310670">
        <ele>18.083</ele>
        <time>2016-09-22T13:26:56Z</time>
      </trkpt>
      <trkpt lat="43.513900" lon="-8.310871">
        <ele>19.088</ele>
        <time>2016-09-22T13:27:01Z</time>
      </trkpt>
      <trkpt lat="43.513947" lon="-8.311071">
        <ele>20.076</ele>
        <time>2016-09-22T13:27:06Z</time>
      </trkpt>
      <trkpt lat="43.514009" lon="-8.311212">
        <ele>20.884</ele>
        <time>2016-09-22T13:27:10Z</time>
      </trkpt>
      <trkpt lat="43.514057" lon="-8.311265">
        <ele>21.054</ele>
        <time>2016-09-22T13:27:12Z</time>
      </trkpt>
      <trkpt lat="43.514145" lon="-8.311275">
        <ele>21.686</ele>
        <time>2016-09-22T13:27:15Z</time>
      </trkpt>
      <trkpt lat="43.514266" lon="-8.311234">
        <ele>22.248</ele>
        <time>2016-09-22T13:27:19Z</time>
      </trkpt>
      <trkpt lat="43.514360" lon="-8.311194">
        <ele>22.641</ele>
        <time>2016-09-22T13:27:22Z</time>
      </trkpt>
      <trkpt lat="43.514484" lon="-8.311138">
        <ele>23.281</ele>
        <time>2016-09-22T13:27:26Z</time>
      </trkpt>
      <trkpt lat="43.514575" lon="-8.311093">
        <ele>23.609</ele>
        <time>2016-09-22T13:27:29Z</time>
      </trkpt>
      <trkpt lat="43.514734" lon="-8.311031">
        <ele>24.208</ele>
        <time>2016-09-22T13:27:34Z</time>
      </trkpt>
      <trkpt lat="43.514802" lon="-8.311004">
        <ele>24.435</ele>
        <time>2016-09-22T13:27:36Z</time>
      </trkpt>
      <trkpt lat="43.515066" lon="-8.310896">
        <ele>25.229</ele>
        <time>2016-09-22T13:27:44Z</time>
      </trkpt>
      <trkpt lat="43.515123" lon="-8.310877">
        <ele>25.484</ele>
        <time>2016-09-22T13:27:46Z</time>
      </trkpt>
      <trkpt lat="43.515257" lon="-8.310823">
        <ele>25.812</ele>
        <time>2016-09-22T13:27:50Z</time>
      </trkpt>
      <trkpt lat="43.515422" lon="-8.310758">
        <ele>26.680</ele>
        <time>2016-09-22T13:27:55Z</time>
      </trkpt>
      <trkpt lat="43.515601" lon="-8.310722">
        <ele>27.430</ele>
        <time>2016-09-22T13:28:00Z</time>
      </trkpt>
      <trkpt lat="43.515783" lon="-8.310703">
        <ele>27.882</ele>
        <time>2016-09-22T13:28:05Z</time>
      </trkpt>
      <trkpt lat="43.515888" lon="-8.310678">
        <ele>28.494</ele>
        <time>2016-09-22T13:28:08Z</time>
      </trkpt>
      <trkpt lat="43.515955" lon="-8.310650">
        <ele>28.829</ele>
        <time>2016-09-22T13:28:10Z</time>
      </trkpt>
      <trkpt lat="43.516106" lon="-8.310571">
        <ele>29.800</ele>
        <time>2016-09-22T13:28:15Z</time>
      </trkpt>
      <trkpt lat="43.516133" lon="-8.310551">
        <ele>30.220</ele>
        <time>2016-09-22T13:28:16Z</time>
      </trkpt>
      <trkpt lat="43.516211" lon="-8.310492">
        <ele>31.408</ele>
        <time>2016-09-22T13:28:19Z</time>
      </trkpt>
      <trkpt lat="43.516362" lon="-8.310352">
        <ele>32.433</ele>
        <time>2016-09-22T13:28:25Z</time>
      </trkpt>
      <trkpt lat="43.516591" lon="-8.310154">
        <ele>31.877</ele>
        <time>2016-09-22T13:28:33Z</time>
      </trkpt>
      <trkpt lat="43.516775" lon="-8.309979">
        <ele>31.482</ele>
        <time>2016-09-22T13:28:38Z</time>
      </trkpt>
      <trkpt lat="43.516816" lon="-8.309932">
        <ele>31.220</ele>
        <time>2016-09-22T13:28:39Z</time>
      </trkpt>
      <trkpt lat="43.516947" lon="-8.309767">
        <ele>30.218</ele>
        <time>2016-09-22T13:28:42Z</time>
      </trkpt>
      <trkpt lat="43.517043" lon="-8.309629">
        <ele>29.668</ele>
        <time>2016-09-22T13:28:44Z</time>
      </trkpt>
      <trkpt lat="43.517092" lon="-8.309552">
        <ele>29.230</ele>
        <time>2016-09-22T13:28:45Z</time>
      </trkpt>
      <trkpt lat="43.517193" lon="-8.309386">
        <ele>28.252</ele>
        <time>2016-09-22T13:28:47Z</time>
      </trkpt>
      <trkpt lat="43.517346" lon="-8.309137">
        <ele>26.828</ele>
        <time>2016-09-22T13:28:50Z</time>
      </trkpt>
      <trkpt lat="43.517395" lon="-8.309055">
        <ele>26.689</ele>
        <time>2016-09-22T13:28:51Z</time>
      </trkpt>
      <trkpt lat="43.517593" lon="-8.308728">
        <ele>25.817</ele>
        <time>2016-09-22T13:28:55Z</time>
      </trkpt>
      <trkpt lat="43.517757" lon="-8.308461">
        <ele>24.608</ele>
        <time>2016-09-22T13:28:58Z</time>
      </trkpt>
      <trkpt lat="43.517871" lon="-8.308276">
        <ele>23.623</ele>
        <time>2016-09-22T13:29:00Z</time>
      </trkpt>
      <trkpt lat="43.518000" lon="-8.308096">
        <ele>22.287</ele>
        <time>2016-09-22T13:29:02Z</time>
      </trkpt>
      <trkpt lat="43.518132" lon="-8.307918">
        <ele>21.242</ele>
        <time>2016-09-22T13:29:04Z</time>
      </trkpt>
      <trkpt lat="43.518198" lon="-8.307829">
        <ele>20.660</ele>
        <time>2016-09-22T13:29:05Z</time>
      </trkpt>
      <trkpt lat="43.518335" lon="-8.307656">
        <ele>19.878</ele>
        <time>2016-09-22T13:29:07Z</time>
      </trkpt>
      <trkpt lat="43.518553" lon="-8.307433">
        <ele>18.248</ele>
        <time>2016-09-22T13:29:10Z</time>
      </trkpt>
      <trkpt lat="43.518622" lon="-8.307366">
        <ele>17.870</ele>
        <time>2016-09-22T13:29:11Z</time>
      </trkpt>
      <trkpt lat="43.518688" lon="-8.307303">
        <ele>17.242</ele>
        <time>2016-09-22T13:29:12Z</time>
      </trkpt>
      <trkpt lat="43.518875" lon="-8.307099">
        <ele>16.056</ele>
        <time>2016-09-22T13:29:15Z</time>
      </trkpt>
      <trkpt lat="43.518938" lon="-8.307022">
        <ele>15.459</ele>
        <time>2016-09-22T13:29:16Z</time>
      </trkpt>
      <trkpt lat="43.519069" lon="-8.306880">
        <ele>14.814</ele>
        <time>2016-09-22T13:29:18Z</time>
      </trkpt>
      <trkpt lat="43.519272" lon="-8.306689">
        <ele>13.608</ele>
        <time>2016-09-22T13:29:21Z</time>
      </trkpt>
      <trkpt lat="43.519342" lon="-8.306633">
        <ele>13.246</ele>
        <time>2016-09-22T13:29:22Z</time>
      </trkpt>
      <trkpt lat="43.519414" lon="-8.306581">
        <ele>12.610</ele>
        <time>2016-09-22T13:29:23Z</time>
      </trkpt>
      <trkpt lat="43.519636" lon="-8.306459">
        <ele>11.665</ele>
        <time>2016-09-22T13:29:26Z</time>
      </trkpt>
      <trkpt lat="43.519711" lon="-8.306428">
        <ele>11.483</ele>
        <time>2016-09-22T13:29:27Z</time>
      </trkpt>
      <trkpt lat="43.519990" lon="-8.306301">
        <ele>10.491</ele>
        <time>2016-09-22T13:29:31Z</time>
      </trkpt>
      <trkpt lat="43.520102" lon="-8.306254">
        <ele>9.411</ele>
        <time>2016-09-22T13:29:33Z</time>
      </trkpt>
      <trkpt lat="43.520192" lon="-8.306221">
        <ele>8.483</ele>
        <time>2016-09-22T13:29:35Z</time>
      </trkpt>
      <trkpt lat="43.520233" lon="-8.306203">
        <ele>8.085</ele>
        <time>2016-09-22T13:29:36Z</time>
      </trkpt>
      <trkpt lat="43.520302" lon="-8.306141">
        <ele>7.245</ele>
        <time>2016-09-22T13:29:38Z</time>
      </trkpt>
      <trkpt lat="43.520373" lon="-8.305993">
        <ele>6.447</ele>
        <time>2016-09-22T13:29:41Z</time>
      </trkpt>
      <trkpt lat="43.520414" lon="-8.305907">
        <ele>6.211</ele>
        <time>2016-09-22T13:29:43Z</time>
      </trkpt>
      <trkpt lat="43.520469" lon="-8.305811">
        <ele>5.608</ele>
        <time>2016-09-22T13:29:47Z</time>
      </trkpt>
      <trkpt lat="43.520478" lon="-8.305805">
        <ele>5.085</ele>
        <time>2016-09-22T13:29:49Z</time>
      </trkpt>
      <trkpt lat="43.520519" lon="-8.305849">
        <ele>4.819</ele>
        <time>2016-09-22T13:29:52Z</time>
      </trkpt>
      <trkpt lat="43.520679" lon="-8.306010">
        <ele>4.644</ele>
        <time>2016-09-22T13:30:00Z</time>
      </trkpt>
      <trkpt lat="43.520801" lon="-8.306151">
        <ele>3.842</ele>
        <time>2016-09-22T13:30:07Z</time>
      </trkpt>
      <trkpt lat="43.520817" lon="-8.306171">
        <ele>3.870</ele>
        <time>2016-09-22T13:30:08Z</time>
      </trkpt>
      <trkpt lat="43.520930" lon="-8.306224">
        <ele>3.890</ele>
        <time>2016-09-22T13:30:13Z</time>
      </trkpt>
      <trkpt lat="43.521017" lon="-8.306270">
        <ele>4.062</ele>
        <time>2016-09-22T13:30:18Z</time>
      </trkpt>
      <trkpt lat="43.521162" lon="-8.306306">
        <ele>3.484</ele>
        <time>2016-09-22T13:30:23Z</time>
      </trkpt>
      <trkpt lat="43.521266" lon="-8.306460">
        <ele>3.297</ele>
        <time>2016-09-22T13:30:28Z</time>
      </trkpt>
      <trkpt lat="43.521271" lon="-8.306502">
        <ele>3.223</ele>
        <time>2016-09-22T13:30:29Z</time>
      </trkpt>
      <trkpt lat="43.521323" lon="-8.306629">
        <ele>3.425</ele>
        <time>2016-09-22T13:30:33Z</time>
      </trkpt>
      <trkpt lat="43.521425" lon="-8.306648">
        <ele>3.408</ele>
        <time>2016-09-22T13:30:38Z</time>
      </trkpt>
      <trkpt lat="43.521463" lon="-8.306591">
        <ele>3.420</ele>
        <time>2016-09-22T13:30:40Z</time>
      </trkpt>
      <trkpt lat="43.521594" lon="-8.306431">
        <ele>3.894</ele>
        <time>2016-09-22T13:30:46Z</time>
      </trkpt>
      <trkpt lat="43.521738" lon="-8.306245">
        <ele>3.699</ele>
        <time>2016-09-22T13:30:53Z</time>
      </trkpt>
      <trkpt lat="43.521852" lon="-8.306112">
        <ele>3.687</ele>
        <time>2016-09-22T13:30:59Z</time>
      </trkpt>
      <trkpt lat="43.521967" lon="-8.305950">
        <ele>3.655</ele>
        <time>2016-09-22T13:31:05Z</time>
      </trkpt>
      <trkpt lat="43.522132" lon="-8.305842">
        <ele>3.885</ele>
        <time>2016-09-22T13:31:11Z</time>
      </trkpt>
      <trkpt lat="43.522275" lon="-8.305743">
        <ele>3.697</ele>
        <time>2016-09-22T13:31:17Z</time>
      </trkpt>
      <trkpt lat="43.522305" lon="-8.305741">
        <ele>3.659</ele>
        <time>2016-09-22T13:31:18Z</time>
      </trkpt>
      <trkpt lat="43.522361" lon="-8.305773">
        <ele>3.476</ele>
        <time>2016-09-22T13:31:20Z</time>
      </trkpt>
      <trkpt lat="43.522469" lon="-8.305808">
        <ele>3.690</ele>
        <time>2016-09-22T13:31:25Z</time>
      </trkpt>
      <trkpt lat="43.522566" lon="-8.305878">
        <ele>3.619</ele>
        <time>2016-09-22T13:31:30Z</time>
      </trkpt>
      <trkpt lat="43.522591" lon="-8.305892">
        <ele>3.808</ele>
        <time>2016-09-22T13:31:33Z</time>
      </trkpt>
      <trkpt lat="43.522604" lon="-8.305902">
        <ele>4.278</ele>
        <time>2016-09-22T13:31:37Z</time>
      </trkpt>
      <trkpt lat="43.522673" lon="-8.305951">
        <ele>5.262</ele>
        <time>2016-09-22T13:31:51Z</time>
      </trkpt>
      <trkpt lat="43.522688" lon="-8.305959">
        <ele>5.497</ele>
        <time>2016-09-22T13:31:52Z</time>
      </trkpt>
      <trkpt lat="43.522816" lon="-8.306020">
        <ele>5.095</ele>
        <time>2016-09-22T13:32:00Z</time>
      </trkpt>
      <trkpt lat="43.522880" lon="-8.306030">
        <ele>5.283</ele>
        <time>2016-09-22T13:32:04Z</time>
      </trkpt>
      <trkpt lat="43.522892" lon="-8.306049">
        <ele>5.233</ele>
        <time>2016-09-22T13:32:06Z</time>
      </trkpt>
      <trkpt lat="43.522914" lon="-8.306072">
        <ele>5.045</ele>
        <time>2016-09-22T13:32:11Z</time>
      </trkpt>
      <trkpt lat="43.522918" lon="-8.306082">
        <ele>5.047</ele>
        <time>2016-09-22T13:32:12Z</time>
      </trkpt>
      <trkpt lat="43.522919" lon="-8.306085">
        <ele>4.664</ele>
        <time>2016-09-22T13:32:14Z</time>
      </trkpt>
      <trkpt lat="43.522959" lon="-8.306117">
        <ele>3.806</ele>
        <time>2016-09-22T13:32:25Z</time>
      </trkpt>
      <trkpt lat="43.522977" lon="-8.306119">
        <ele>3.816</ele>
        <time>2016-09-22T13:32:26Z</time>
      </trkpt>
      <trkpt lat="43.523075" lon="-8.306158">
        <ele>3.608</ele>
        <time>2016-09-22T13:32:31Z</time>
      </trkpt>
      <trkpt lat="43.523102" lon="-8.306148">
        <ele>3.437</ele>
        <time>2016-09-22T13:32:33Z</time>
      </trkpt>
      <trkpt lat="43.523114" lon="-8.306138">
        <ele>3.431</ele>
        <time>2016-09-22T13:32:34Z</time>
      </trkpt>
      <trkpt lat="43.523135" lon="-8.306107">
        <ele>3.476</ele>
        <time>2016-09-22T13:32:36Z</time>
      </trkpt>
      <trkpt lat="43.523171" lon="-8.306066">
        <ele>3.874</ele>
        <time>2016-09-22T13:32:39Z</time>
      </trkpt>
      <trkpt lat="43.523202" lon="-8.306077">
        <ele>4.072</ele>
        <time>2016-09-22T13:32:41Z</time>
      </trkpt>
      <trkpt lat="43.523303" lon="-8.306103">
        <ele>4.692</ele>
        <time>2016-09-22T13:32:47Z</time>
      </trkpt>
      <trkpt lat="43.523317" lon="-8.306102">
        <ele>4.674</ele>
        <time>2016-09-22T13:32:48Z</time>
      </trkpt>
      <trkpt lat="43.523356" lon="-8.306101">
        <ele>5.086</ele>
        <time>2016-09-22T13:32:51Z</time>
      </trkpt>
      <trkpt lat="43.523377" lon="-8.306107">
        <ele>5.471</ele>
        <time>2016-09-22T13:32:54Z</time>
      </trkpt>
      <trkpt lat="43.523378" lon="-8.306110">
        <ele>5.641</ele>
        <time>2016-09-22T13:32:55Z</time>
      </trkpt>
      <trkpt lat="43.523558" lon="-8.306217">
        <ele>7.815</ele>
        <time>2016-09-22T13:33:36Z</time>
      </trkpt>
      <trkpt lat="43.523585" lon="-8.306253">
        <ele>7.208</ele>
        <time>2016-09-22T13:33:39Z</time>
      </trkpt>
      <trkpt lat="43.523642" lon="-8.306300">
        <ele>7.468</ele>
        <time>2016-09-22T13:33:46Z</time>
      </trkpt>
      <trkpt lat="43.523662" lon="-8.306311">
        <ele>7.872</ele>
        <time>2016-09-22T13:33:52Z</time>
      </trkpt>
      <trkpt lat="43.523606" lon="-8.306293">
        <ele>7.467</ele>
        <time>2016-09-22T13:34:45Z</time>
      </trkpt>
      <trkpt lat="43.523493" lon="-8.306321">
        <ele>6.825</ele>
        <time>2016-09-22T13:34:52Z</time>
      </trkpt>
      <trkpt lat="43.523402" lon="-8.306390">
        <ele>7.463</ele>
        <time>2016-09-22T13:34:59Z</time>
      </trkpt>
      <trkpt lat="43.523305" lon="-8.306457">
        <ele>6.663</ele>
        <time>2016-09-22T13:35:04Z</time>
      </trkpt>
      <trkpt lat="43.523289" lon="-8.306468">
        <ele>6.465</ele>
        <time>2016-09-22T13:35:05Z</time>
      </trkpt>
      <trkpt lat="43.523214" lon="-8.306559">
        <ele>5.497</ele>
        <time>2016-09-22T13:35:09Z</time>
      </trkpt>
      <trkpt lat="43.523154" lon="-8.306639">
        <ele>4.285</ele>
        <time>2016-09-22T13:35:13Z</time>
      </trkpt>
      <trkpt lat="43.523142" lon="-8.306657">
        <ele>4.289</ele>
        <time>2016-09-22T13:35:14Z</time>
      </trkpt>
      <trkpt lat="43.523061" lon="-8.306801">
        <ele>3.817</ele>
        <time>2016-09-22T13:35:22Z</time>
      </trkpt>
      <trkpt lat="43.522983" lon="-8.306918">
        <ele>3.408</ele>
        <time>2016-09-22T13:35:28Z</time>
      </trkpt>
      <trkpt lat="43.522974" lon="-8.306931">
        <ele>3.239</ele>
        <time>2016-09-22T13:35:29Z</time>
      </trkpt>
      <trkpt lat="43.522917" lon="-8.307011">
        <ele>3.253</ele>
        <time>2016-09-22T13:35:34Z</time>
      </trkpt>
      <trkpt lat="43.522838" lon="-8.307166">
        <ele>3.448</ele>
        <time>2016-09-22T13:35:40Z</time>
      </trkpt>
      <trkpt lat="43.522753" lon="-8.307344">
        <ele>3.076</ele>
        <time>2016-09-22T13:35:47Z</time>
      </trkpt>
      <trkpt lat="43.522675" lon="-8.307542">
        <ele>2.634</ele>
        <time>2016-09-22T13:35:54Z</time>
      </trkpt>
      <trkpt lat="43.522606" lon="-8.307689">
        <ele>2.464</ele>
        <time>2016-09-22T13:36:00Z</time>
      </trkpt>
      <trkpt lat="43.522563" lon="-8.307768">
        <ele>2.426</ele>
        <time>2016-09-22T13:36:03Z</time>
      </trkpt>
      <trkpt lat="43.522510" lon="-8.307888">
        <ele>2.638</ele>
        <time>2016-09-22T13:36:08Z</time>
      </trkpt>
      <trkpt lat="43.522442" lon="-8.308045">
        <ele>2.425</ele>
        <time>2016-09-22T13:36:15Z</time>
      </trkpt>
      <trkpt lat="43.522404" lon="-8.308108">
        <ele>2.226</ele>
        <time>2016-09-22T13:36:19Z</time>
      </trkpt>
      <trkpt lat="43.522369" lon="-8.308122">
        <ele>2.208</ele>
        <time>2016-09-22T13:36:22Z</time>
      </trkpt>
      <trkpt lat="43.522328" lon="-8.308152">
        <ele>2.208</ele>
        <time>2016-09-22T13:36:25Z</time>
      </trkpt>
      <trkpt lat="43.522282" lon="-8.308192">
        <ele>2.253</ele>
        <time>2016-09-22T13:36:29Z</time>
      </trkpt>
      <trkpt lat="43.522217" lon="-8.308226">
        <ele>2.457</ele>
        <time>2016-09-22T13:36:35Z</time>
      </trkpt>
      <trkpt lat="43.522163" lon="-8.308263">
        <ele>2.462</ele>
        <time>2016-09-22T13:36:41Z</time>
      </trkpt>
      <trkpt lat="43.522162" lon="-8.308264">
        <ele>2.450</ele>
        <time>2016-09-22T13:36:43Z</time>
      </trkpt>
      <trkpt lat="43.521961" lon="-8.308354">
        <ele>2.878</ele>
        <time>2016-09-22T13:37:05Z</time>
      </trkpt>
      <trkpt lat="43.521940" lon="-8.308356">
        <ele>2.848</ele>
        <time>2016-09-22T13:37:06Z</time>
      </trkpt>
      <trkpt lat="43.521816" lon="-8.308313">
        <ele>3.060</ele>
        <time>2016-09-22T13:37:12Z</time>
      </trkpt>
      <trkpt lat="43.521784" lon="-8.308305">
        <ele>3.292</ele>
        <time>2016-09-22T13:37:16Z</time>
      </trkpt>
      <trkpt lat="43.521761" lon="-8.308321">
        <ele>2.854</ele>
        <time>2016-09-22T13:37:37Z</time>
      </trkpt>
      <trkpt lat="43.521725" lon="-8.308423">
        <ele>3.056</ele>
        <time>2016-09-22T13:37:41Z</time>
      </trkpt>
      <trkpt lat="43.521706" lon="-8.308527">
        <ele>3.211</ele>
        <time>2016-09-22T13:37:44Z</time>
      </trkpt>
      <trkpt lat="43.521686" lon="-8.308642">
        <ele>3.008</ele>
        <time>2016-09-22T13:37:47Z</time>
      </trkpt>
      <trkpt lat="43.521669" lon="-8.308913">
        <ele>3.296</ele>
        <time>2016-09-22T13:37:54Z</time>
      </trkpt>
      <trkpt lat="43.521668" lon="-8.308954">
        <ele>3.450</ele>
        <time>2016-09-22T13:37:55Z</time>
      </trkpt>
      <trkpt lat="43.521675" lon="-8.309033">
        <ele>3.445</ele>
        <time>2016-09-22T13:37:57Z</time>
      </trkpt>
      <trkpt lat="43.521707" lon="-8.309093">
        <ele>3.423</ele>
        <time>2016-09-22T13:37:59Z</time>
      </trkpt>
      <trkpt lat="43.521741" lon="-8.309150">
        <ele>3.641</ele>
        <time>2016-09-22T13:38:01Z</time>
      </trkpt>
      <trkpt lat="43.521861" lon="-8.309303">
        <ele>4.031</ele>
        <time>2016-09-22T13:38:07Z</time>
      </trkpt>
      <trkpt lat="43.521924" lon="-8.309371">
        <ele>4.473</ele>
        <time>2016-09-22T13:38:10Z</time>
      </trkpt>
      <trkpt lat="43.522000" lon="-8.309461">
        <ele>5.445</ele>
        <time>2016-09-22T13:38:14Z</time>
      </trkpt>
      <trkpt lat="43.522038" lon="-8.309506">
        <ele>6.061</ele>
        <time>2016-09-22T13:38:16Z</time>
      </trkpt>
      <trkpt lat="43.522096" lon="-8.309573">
        <ele>6.621</ele>
        <time>2016-09-22T13:38:19Z</time>
      </trkpt>
      <trkpt lat="43.522175" lon="-8.309661">
        <ele>7.813</ele>
        <time>2016-09-22T13:38:23Z</time>
      </trkpt>
      <trkpt lat="43.522213" lon="-8.309712">
        <ele>8.008</ele>
        <time>2016-09-22T13:38:25Z</time>
      </trkpt>
      <trkpt lat="43.522363" lon="-8.309876">
        <ele>8.217</ele>
        <time>2016-09-22T13:38:32Z</time>
      </trkpt>
      <trkpt lat="43.522426" lon="-8.309947">
        <ele>8.831</ele>
        <time>2016-09-22T13:38:35Z</time>
      </trkpt>
      <trkpt lat="43.522565" lon="-8.310097">
        <ele>9.636</ele>
        <time>2016-09-22T13:38:43Z</time>
      </trkpt>
      <trkpt lat="43.522590" lon="-8.310140">
        <ele>9.864</ele>
        <time>2016-09-22T13:38:48Z</time>
      </trkpt>
      <trkpt lat="43.522589" lon="-8.310152">
        <ele>10.072</ele>
        <time>2016-09-22T13:38:49Z</time>
      </trkpt>
      <trkpt lat="43.522578" lon="-8.310155">
        <ele>10.282</ele>
        <time>2016-09-22T13:38:50Z</time>
      </trkpt>
      <trkpt lat="43.522557" lon="-8.310071">
        <ele>9.894</ele>
        <time>2016-09-22T13:38:54Z</time>
      </trkpt>
      <trkpt lat="43.522561" lon="-8.310062">
        <ele>9.026</ele>
        <time>2016-09-22T13:38:57Z</time>
      </trkpt>
      <trkpt lat="43.522577" lon="-8.310116">
        <ele>9.441</ele>
        <time>2016-09-22T13:39:49Z</time>
      </trkpt>
      <trkpt lat="43.522652" lon="-8.310212">
        <ele>9.881</ele>
        <time>2016-09-22T13:39:54Z</time>
      </trkpt>
      <trkpt lat="43.522818" lon="-8.310398">
        <ele>10.809</ele>
        <time>2016-09-22T13:40:02Z</time>
      </trkpt>
      <trkpt lat="43.522974" lon="-8.310608">
        <ele>11.008</ele>
        <time>2016-09-22T13:40:10Z</time>
      </trkpt>
      <trkpt lat="43.523028" lon="-8.310739">
        <ele>11.435</ele>
        <time>2016-09-22T13:40:14Z</time>
      </trkpt>
      <trkpt lat="43.523088" lon="-8.310820">
        <ele>11.649</ele>
        <time>2016-09-22T13:40:17Z</time>
      </trkpt>
      <trkpt lat="43.523226" lon="-8.310860">
        <ele>12.084</ele>
        <time>2016-09-22T13:40:22Z</time>
      </trkpt>
      <trkpt lat="43.523275" lon="-8.310877">
        <ele>12.422</ele>
        <time>2016-09-22T13:40:24Z</time>
      </trkpt>
      <trkpt lat="43.523377" lon="-8.310940">
        <ele>13.630</ele>
        <time>2016-09-22T13:40:29Z</time>
      </trkpt>
      <trkpt lat="43.523436" lon="-8.310988">
        <ele>14.860</ele>
        <time>2016-09-22T13:40:32Z</time>
      </trkpt>
      <trkpt lat="43.523542" lon="-8.311067">
        <ele>15.692</ele>
        <time>2016-09-22T13:40:37Z</time>
      </trkpt>
      <trkpt lat="43.523663" lon="-8.311152">
        <ele>16.054</ele>
        <time>2016-09-22T13:40:42Z</time>
      </trkpt>
      <trkpt lat="43.523712" lon="-8.311185">
        <ele>16.266</ele>
        <time>2016-09-22T13:40:44Z</time>
      </trkpt>
      <trkpt lat="43.523763" lon="-8.311214">
        <ele>16.629</ele>
        <time>2016-09-22T13:40:46Z</time>
      </trkpt>
      <trkpt lat="43.523921" lon="-8.311279">
        <ele>16.821</ele>
        <time>2016-09-22T13:40:52Z</time>
      </trkpt>
      <trkpt lat="43.524029" lon="-8.311324">
        <ele>17.408</ele>
        <time>2016-09-22T13:40:56Z</time>
      </trkpt>
      <trkpt lat="43.524150" lon="-8.311352">
        <ele>18.047</ele>
        <time>2016-09-22T13:41:01Z</time>
      </trkpt>
      <trkpt lat="43.524177" lon="-8.311359">
        <ele>18.261</ele>
        <time>2016-09-22T13:41:02Z</time>
      </trkpt>
      <trkpt lat="43.524255" lon="-8.311374">
        <ele>19.216</ele>
        <time>2016-09-22T13:41:05Z</time>
      </trkpt>
      <trkpt lat="43.524364" lon="-8.311366">
        <ele>19.854</ele>
        <time>2016-09-22T13:41:09Z</time>
      </trkpt>
      <trkpt lat="43.524500" lon="-8.311393">
        <ele>20.062</ele>
        <time>2016-09-22T13:41:14Z</time>
      </trkpt>
      <trkpt lat="43.524555" lon="-8.311393">
        <ele>20.472</ele>
        <time>2016-09-22T13:41:16Z</time>
      </trkpt>
      <trkpt lat="43.524640" lon="-8.311418">
        <ele>20.874</ele>
        <time>2016-09-22T13:41:19Z</time>
      </trkpt>
      <trkpt lat="43.524804" lon="-8.311463">
        <ele>21.416</ele>
        <time>2016-09-22T13:41:25Z</time>
      </trkpt>
      <trkpt lat="43.524833" lon="-8.311471">
        <ele>21.413</ele>
        <time>2016-09-22T13:41:26Z</time>
      </trkpt>
      <trkpt lat="43.524965" lon="-8.311529">
        <ele>22.443</ele>
        <time>2016-09-22T13:41:31Z</time>
      </trkpt>
      <trkpt lat="43.525013" lon="-8.311559">
        <ele>22.807</ele>
        <time>2016-09-22T13:41:33Z</time>
      </trkpt>
      <trkpt lat="43.525155" lon="-8.311664">
        <ele>23.608</ele>
        <time>2016-09-22T13:41:39Z</time>
      </trkpt>
      <trkpt lat="43.525181" lon="-8.311680">
        <ele>23.872</ele>
        <time>2016-09-22T13:41:40Z</time>
      </trkpt>
      <trkpt lat="43.525345" lon="-8.311681">
        <ele>24.016</ele>
        <time>2016-09-22T13:41:45Z</time>
      </trkpt>
      <trkpt lat="43.525499" lon="-8.311672">
        <ele>23.011</ele>
        <time>2016-09-22T13:41:50Z</time>
      </trkpt>
      <trkpt lat="43.525671" lon="-8.311702">
        <ele>23.219</ele>
        <time>2016-09-22T13:41:56Z</time>
      </trkpt>
      <trkpt lat="43.525789" lon="-8.311719">
        <ele>23.697</ele>
        <time>2016-09-22T13:42:01Z</time>
      </trkpt>
      <trkpt lat="43.525935" lon="-8.311775">
        <ele>23.687</ele>
        <time>2016-09-22T13:42:06Z</time>
      </trkpt>
      <trkpt lat="43.526084" lon="-8.311855">
        <ele>24.249</ele>
        <time>2016-09-22T13:42:12Z</time>
      </trkpt>
      <trkpt lat="43.526288" lon="-8.311930">
        <ele>24.811</ele>
        <time>2016-09-22T13:42:19Z</time>
      </trkpt>
      <trkpt lat="43.526506" lon="-8.312019">
        <ele>25.022</ele>
        <time>2016-09-22T13:42:24Z</time>
      </trkpt>
      <trkpt lat="43.526731" lon="-8.312093">
        <ele>24.462</ele>
        <time>2016-09-22T13:42:29Z</time>
      </trkpt>
      <trkpt lat="43.526950" lon="-8.312183">
        <ele>24.208</ele>
        <time>2016-09-22T13:42:35Z</time>
      </trkpt>
      <trkpt lat="43.527046" lon="-8.312244">
        <ele>24.008</ele>
        <time>2016-09-22T13:42:40Z</time>
      </trkpt>
      <trkpt lat="43.527056" lon="-8.312255">
        <ele>23.843</ele>
        <time>2016-09-22T13:42:41Z</time>
      </trkpt>
      <trkpt lat="43.527064" lon="-8.312272">
        <ele>23.857</ele>
        <time>2016-09-22T13:42:42Z</time>
      </trkpt>
      <trkpt lat="43.527068" lon="-8.312330">
        <ele>23.432</ele>
        <time>2016-09-22T13:42:44Z</time>
      </trkpt>
      <trkpt lat="43.527034" lon="-8.312473">
        <ele>23.840</ele>
        <time>2016-09-22T13:42:49Z</time>
      </trkpt>
      <trkpt lat="43.526983" lon="-8.312552">
        <ele>24.838</ele>
        <time>2016-09-22T13:42:54Z</time>
      </trkpt>
      <trkpt lat="43.526977" lon="-8.312560">
        <ele>25.248</ele>
        <time>2016-09-22T13:42:55Z</time>
      </trkpt>
      <trkpt lat="43.526970" lon="-8.312575">
        <ele>26.020</ele>
        <time>2016-09-22T13:42:57Z</time>
      </trkpt>
      <trkpt lat="43.526949" lon="-8.312626">
        <ele>27.272</ele>
        <time>2016-09-22T13:43:00Z</time>
      </trkpt>
      <trkpt lat="43.526946" lon="-8.312706">
        <ele>28.061</ele>
        <time>2016-09-22T13:43:03Z</time>
      </trkpt>
      <trkpt lat="43.526945" lon="-8.312735">
        <ele>28.221</ele>
        <time>2016-09-22T13:43:04Z</time>
      </trkpt>
      <trkpt lat="43.526946" lon="-8.312787">
        <ele>28.613</ele>
        <time>2016-09-22T13:43:06Z</time>
      </trkpt>
      <trkpt lat="43.526942" lon="-8.312884">
        <ele>29.408</ele>
        <time>2016-09-22T13:43:10Z</time>
      </trkpt>
      <trkpt lat="43.526937" lon="-8.312962">
        <ele>29.647</ele>
        <time>2016-09-22T13:43:13Z</time>
      </trkpt>
      <trkpt lat="43.526933" lon="-8.313042">
        <ele>30.891</ele>
        <time>2016-09-22T13:43:16Z</time>
      </trkpt>
      <trkpt lat="43.526921" lon="-8.313210">
        <ele>32.066</ele>
        <time>2016-09-22T13:43:22Z</time>
      </trkpt>
      <trkpt lat="43.526901" lon="-8.313490">
        <ele>32.624</ele>
        <time>2016-09-22T13:43:30Z</time>
      </trkpt>
      <trkpt lat="43.526858" lon="-8.313770">
        <ele>32.662</ele>
        <time>2016-09-22T13:43:37Z</time>
      </trkpt>
      <trkpt lat="43.526827" lon="-8.313966">
        <ele>32.832</ele>
        <time>2016-09-22T13:43:42Z</time>
      </trkpt>
      <trkpt lat="43.526787" lon="-8.314094">
        <ele>33.464</ele>
        <time>2016-09-22T13:43:46Z</time>
      </trkpt>
      <trkpt lat="43.526752" lon="-8.314162">
        <ele>34.256</ele>
        <time>2016-09-22T13:43:49Z</time>
      </trkpt>
      <trkpt lat="43.526719" lon="-8.314232">
        <ele>35.057</ele>
        <time>2016-09-22T13:43:52Z</time>
      </trkpt>
      <trkpt lat="43.526708" lon="-8.314254">
        <ele>35.200</ele>
        <time>2016-09-22T13:43:53Z</time>
      </trkpt>
      <trkpt lat="43.526651" lon="-8.314378">
        <ele>36.420</ele>
        <time>2016-09-22T13:43:58Z</time>
      </trkpt>
      <trkpt lat="43.526646" lon="-8.314465">
        <ele>37.408</ele>
        <time>2016-09-22T13:44:01Z</time>
      </trkpt>
      <trkpt lat="43.526634" lon="-8.314553">
        <ele>38.456</ele>
        <time>2016-09-22T13:44:04Z</time>
      </trkpt>
      <trkpt lat="43.526629" lon="-8.314575">
        <ele>38.670</ele>
        <time>2016-09-22T13:44:05Z</time>
      </trkpt>
      <trkpt lat="43.526603" lon="-8.314616">
        <ele>39.095</ele>
        <time>2016-09-22T13:44:09Z</time>
      </trkpt>
      <trkpt lat="43.526549" lon="-8.314591">
        <ele>39.673</ele>
        <time>2016-09-22T13:44:14Z</time>
      </trkpt>
      <trkpt lat="43.526536" lon="-8.314586">
        <ele>39.891</ele>
        <time>2016-09-22T13:44:15Z</time>
      </trkpt>
      <trkpt lat="43.526484" lon="-8.314539">
        <ele>40.811</ele>
        <time>2016-09-22T13:44:20Z</time>
      </trkpt>
      <trkpt lat="43.526472" lon="-8.314527">
        <ele>41.053</ele>
        <time>2016-09-22T13:44:21Z</time>
      </trkpt>
      <trkpt lat="43.526426" lon="-8.314510">
        <ele>42.015</ele>
        <time>2016-09-22T13:44:25Z</time>
      </trkpt>
      <trkpt lat="43.526401" lon="-8.314518">
        <ele>42.445</ele>
        <time>2016-09-22T13:44:27Z</time>
      </trkpt>
      <trkpt lat="43.526365" lon="-8.314532">
        <ele>43.247</ele>
        <time>2016-09-22T13:44:30Z</time>
      </trkpt>
      <trkpt lat="43.526296" lon="-8.314559">
        <ele>44.211</ele>
        <time>2016-09-22T13:44:35Z</time>
      </trkpt>
      <trkpt lat="43.526285" lon="-8.314564">
        <ele>44.408</ele>
        <time>2016-09-22T13:44:36Z</time>
      </trkpt>
      <trkpt lat="43.526212" lon="-8.314578">
        <ele>45.475</ele>
        <time>2016-09-22T13:44:41Z</time>
      </trkpt>
      <trkpt lat="43.526197" lon="-8.314578">
        <ele>45.869</ele>
        <time>2016-09-22T13:44:42Z</time>
      </trkpt>
      <trkpt lat="43.526139" lon="-8.314577">
        <ele>46.654</ele>
        <time>2016-09-22T13:44:46Z</time>
      </trkpt>
      <trkpt lat="43.526122" lon="-8.314579">
        <ele>46.812</ele>
        <time>2016-09-22T13:44:47Z</time>
      </trkpt>
      <trkpt lat="43.526108" lon="-8.314580">
        <ele>47.050</ele>
        <time>2016-09-22T13:44:48Z</time>
      </trkpt>
      <trkpt lat="43.526052" lon="-8.314587">
        <ele>47.880</ele>
        <time>2016-09-22T13:44:52Z</time>
      </trkpt>
      <trkpt lat="43.526021" lon="-8.314587">
        <ele>48.272</ele>
        <time>2016-09-22T13:44:54Z</time>
      </trkpt>
      <trkpt lat="43.525976" lon="-8.314586">
        <ele>48.834</ele>
        <time>2016-09-22T13:44:57Z</time>
      </trkpt>
      <trkpt lat="43.525912" lon="-8.314574">
        <ele>49.033</ele>
        <time>2016-09-22T13:45:01Z</time>
      </trkpt>
      <trkpt lat="43.525848" lon="-8.314572">
        <ele>49.823</ele>
        <time>2016-09-22T13:45:05Z</time>
      </trkpt>
      <trkpt lat="43.525804" lon="-8.314582">
        <ele>50.815</ele>
        <time>2016-09-22T13:45:08Z</time>
      </trkpt>
      <trkpt lat="43.525789" lon="-8.314587">
        <ele>51.008</ele>
        <time>2016-09-22T13:45:09Z</time>
      </trkpt>
      <trkpt lat="43.525725" lon="-8.314586">
        <ele>51.834</ele>
        <time>2016-09-22T13:45:14Z</time>
      </trkpt>
      <trkpt lat="43.525714" lon="-8.314579">
        <ele>52.088</ele>
        <time>2016-09-22T13:45:15Z</time>
      </trkpt>
      <trkpt lat="43.525672" lon="-8.314547">
        <ele>53.443</ele>
        <time>2016-09-22T13:45:19Z</time>
      </trkpt>
      <trkpt lat="43.525662" lon="-8.314541">
        <ele>53.671</ele>
        <time>2016-09-22T13:45:20Z</time>
      </trkpt>
      <trkpt lat="43.525639" lon="-8.314526">
        <ele>54.489</ele>
        <time>2016-09-22T13:45:23Z</time>
      </trkpt>
      <trkpt lat="43.525612" lon="-8.314513">
        <ele>55.489</ele>
        <time>2016-09-22T13:45:26Z</time>
      </trkpt>
      <trkpt lat="43.525595" lon="-8.314505">
        <ele>55.841</ele>
        <time>2016-09-22T13:45:28Z</time>
      </trkpt>
      <trkpt lat="43.525586" lon="-8.314501">
        <ele>55.853</ele>
        <time>2016-09-22T13:45:29Z</time>
      </trkpt>
      <trkpt lat="43.525558" lon="-8.314488">
        <ele>56.667</ele>
        <time>2016-09-22T13:45:32Z</time>
      </trkpt>
      <trkpt lat="43.525534" lon="-8.314478">
        <ele>57.081</ele>
        <time>2016-09-22T13:45:34Z</time>
      </trkpt>
      <trkpt lat="43.525506" lon="-8.314449">
        <ele>57.619</ele>
        <time>2016-09-22T13:45:38Z</time>
      </trkpt>
      <trkpt lat="43.525466" lon="-8.314436">
        <ele>58.408</ele>
        <time>2016-09-22T13:45:42Z</time>
      </trkpt>
      <trkpt lat="43.525453" lon="-8.314433">
        <ele>58.867</ele>
        <time>2016-09-22T13:45:43Z</time>
      </trkpt>
      <trkpt lat="43.525386" lon="-8.314431">
        <ele>59.881</ele>
        <time>2016-09-22T13:45:48Z</time>
      </trkpt>
      <trkpt lat="43.525338" lon="-8.314425">
        <ele>60.636</ele>
        <time>2016-09-22T13:45:52Z</time>
      </trkpt>
      <trkpt lat="43.525311" lon="-8.314409">
        <ele>61.214</ele>
        <time>2016-09-22T13:45:54Z</time>
      </trkpt>
      <trkpt lat="43.525249" lon="-8.314346">
        <ele>61.672</ele>
        <time>2016-09-22T13:45:59Z</time>
      </trkpt>
      <trkpt lat="43.525194" lon="-8.314308">
        <ele>62.252</ele>
        <time>2016-09-22T13:46:03Z</time>
      </trkpt>
      <trkpt lat="43.525170" lon="-8.314298">
        <ele>62.814</ele>
        <time>2016-09-22T13:46:05Z</time>
      </trkpt>
      <trkpt lat="43.525154" lon="-8.314295">
        <ele>62.856</ele>
        <time>2016-09-22T13:46:06Z</time>
      </trkpt>
      <trkpt lat="43.525090" lon="-8.314308">
        <ele>63.054</ele>
        <time>2016-09-22T13:46:10Z</time>
      </trkpt>
      <trkpt lat="43.525035" lon="-8.314322">
        <ele>63.256</ele>
        <time>2016-09-22T13:46:13Z</time>
      </trkpt>
      <trkpt lat="43.524932" lon="-8.314363">
        <ele>64.011</ele>
        <time>2016-09-22T13:46:19Z</time>
      </trkpt>
      <trkpt lat="43.524855" lon="-8.314411">
        <ele>64.408</ele>
        <time>2016-09-22T13:46:24Z</time>
      </trkpt>
      <trkpt lat="43.524800" lon="-8.314423">
        <ele>65.466</ele>
        <time>2016-09-22T13:46:27Z</time>
      </trkpt>
      <trkpt lat="43.524779" lon="-8.314421">
        <ele>65.660</ele>
        <time>2016-09-22T13:46:28Z</time>
      </trkpt>
      <trkpt lat="43.524680" lon="-8.314441">
        <ele>66.645</ele>
        <time>2016-09-22T13:46:34Z</time>
      </trkpt>
      <trkpt lat="43.524662" lon="-8.314449">
        <ele>66.863</ele>
        <time>2016-09-22T13:46:35Z</time>
      </trkpt>
      <trkpt lat="43.524537" lon="-8.314516">
        <ele>67.691</ele>
        <time>2016-09-22T13:46:42Z</time>
      </trkpt>
      <trkpt lat="43.524460" lon="-8.314562">
        <ele>68.891</ele>
        <time>2016-09-22T13:46:47Z</time>
      </trkpt>
      <trkpt lat="43.524401" lon="-8.314604">
        <ele>69.473</ele>
        <time>2016-09-22T13:46:51Z</time>
      </trkpt>
      <trkpt lat="43.524386" lon="-8.314612">
        <ele>69.845</ele>
        <time>2016-09-22T13:46:52Z</time>
      </trkpt>
      <trkpt lat="43.524331" lon="-8.314643">
        <ele>70.879</ele>
        <time>2016-09-22T13:46:56Z</time>
      </trkpt>
      <trkpt lat="43.524289" lon="-8.314664">
        <ele>71.805</ele>
        <time>2016-09-22T13:46:59Z</time>
      </trkpt>
      <trkpt lat="43.524275" lon="-8.314669">
        <ele>72.025</ele>
        <time>2016-09-22T13:47:00Z</time>
      </trkpt>
      <trkpt lat="43.524225" lon="-8.314698">
        <ele>73.008</ele>
        <time>2016-09-22T13:47:04Z</time>
      </trkpt>
      <trkpt lat="43.524197" lon="-8.314715">
        <ele>73.428</ele>
        <time>2016-09-22T13:47:06Z</time>
      </trkpt>
      <trkpt lat="43.524123" lon="-8.314761">
        <ele>74.032</ele>
        <time>2016-09-22T13:47:11Z</time>
      </trkpt>
      <trkpt lat="43.524073" lon="-8.314785">
        <ele>74.647</ele>
        <time>2016-09-22T13:47:14Z</time>
      </trkpt>
      <trkpt lat="43.523965" lon="-8.314821">
        <ele>74.895</ele>
        <time>2016-09-22T13:47:20Z</time>
      </trkpt>
      <trkpt lat="43.523889" lon="-8.314822">
        <ele>75.293</ele>
        <time>2016-09-22T13:47:24Z</time>
      </trkpt>
      <trkpt lat="43.523836" lon="-8.314823">
        <ele>75.413</ele>
        <time>2016-09-22T13:47:27Z</time>
      </trkpt>
      <trkpt lat="43.523710" lon="-8.314809">
        <ele>76.245</ele>
        <time>2016-09-22T13:47:34Z</time>
      </trkpt>
      <trkpt lat="43.523588" lon="-8.314806">
        <ele>77.457</ele>
        <time>2016-09-22T13:47:41Z</time>
      </trkpt>
      <trkpt lat="43.523571" lon="-8.314805">
        <ele>77.478</ele>
        <time>2016-09-22T13:47:42Z</time>
      </trkpt>
      <trkpt lat="43.523453" lon="-8.314772">
        <ele>78.633</ele>
        <time>2016-09-22T13:47:49Z</time>
      </trkpt>
      <trkpt lat="43.523386" lon="-8.314749">
        <ele>79.626</ele>
        <time>2016-09-22T13:47:53Z</time>
      </trkpt>
      <trkpt lat="43.523338" lon="-8.314746">
        <ele>79.808</ele>
        <time>2016-09-22T13:47:56Z</time>
      </trkpt>
      <trkpt lat="43.523273" lon="-8.314756">
        <ele>80.888</ele>
        <time>2016-09-22T13:48:00Z</time>
      </trkpt>
      <trkpt lat="43.523227" lon="-8.314787">
        <ele>81.292</ele>
        <time>2016-09-22T13:48:03Z</time>
      </trkpt>
      <trkpt lat="43.523147" lon="-8.314846">
        <ele>81.877</ele>
        <time>2016-09-22T13:48:08Z</time>
      </trkpt>
      <trkpt lat="43.523091" lon="-8.314876">
        <ele>82.235</ele>
        <time>2016-09-22T13:48:11Z</time>
      </trkpt>
      <trkpt lat="43.522948" lon="-8.314913">
        <ele>82.463</ele>
        <time>2016-09-22T13:48:19Z</time>
      </trkpt>
      <trkpt lat="43.522898" lon="-8.314920">
        <ele>82.873</ele>
        <time>2016-09-22T13:48:22Z</time>
      </trkpt>
      <trkpt lat="43.522860" lon="-8.314942">
        <ele>83.215</ele>
        <time>2016-09-22T13:48:25Z</time>
      </trkpt>
      <trkpt lat="43.522757" lon="-8.315031">
        <ele>83.297</ele>
        <time>2016-09-22T13:48:31Z</time>
      </trkpt>
      <trkpt lat="43.522584" lon="-8.315196">
        <ele>82.053</ele>
        <time>2016-09-22T13:48:37Z</time>
      </trkpt>
      <trkpt lat="43.522507" lon="-8.315380">
        <ele>81.604</ele>
        <time>2016-09-22T13:48:41Z</time>
      </trkpt>
      <trkpt lat="43.522491" lon="-8.315434">
        <ele>81.214</ele>
        <time>2016-09-22T13:48:42Z</time>
      </trkpt>
      <trkpt lat="43.522487" lon="-8.315494">
        <ele>80.608</ele>
        <time>2016-09-22T13:48:43Z</time>
      </trkpt>
      <trkpt lat="43.522478" lon="-8.315621">
        <ele>79.826</ele>
        <time>2016-09-22T13:48:45Z</time>
      </trkpt>
      <trkpt lat="43.522449" lon="-8.315672">
        <ele>79.670</ele>
        <time>2016-09-22T13:48:46Z</time>
      </trkpt>
      <trkpt lat="43.522381" lon="-8.315741">
        <ele>79.225</ele>
        <time>2016-09-22T13:48:48Z</time>
      </trkpt>
      <trkpt lat="43.522316" lon="-8.315873">
        <ele>79.013</ele>
        <time>2016-09-22T13:48:52Z</time>
      </trkpt>
      <trkpt lat="43.522254" lon="-8.315941">
        <ele>79.081</ele>
        <time>2016-09-22T13:48:55Z</time>
      </trkpt>
      <trkpt lat="43.522204" lon="-8.315983">
        <ele>78.871</ele>
        <time>2016-09-22T13:48:57Z</time>
      </trkpt>
      <trkpt lat="43.522017" lon="-8.316171">
        <ele>79.413</ele>
        <time>2016-09-22T13:49:06Z</time>
      </trkpt>
      <trkpt lat="43.521855" lon="-8.316347">
        <ele>80.255</ele>
        <time>2016-09-22T13:49:14Z</time>
      </trkpt>
      <trkpt lat="43.521759" lon="-8.316489">
        <ele>80.672</ele>
        <time>2016-09-22T13:49:20Z</time>
      </trkpt>
      <trkpt lat="43.521706" lon="-8.316527">
        <ele>80.613</ele>
        <time>2016-09-22T13:49:24Z</time>
      </trkpt>
      <trkpt lat="43.521688" lon="-8.316538">
        <ele>80.414</ele>
        <time>2016-09-22T13:49:27Z</time>
      </trkpt>
      <trkpt lat="43.521690" lon="-8.316540">
        <ele>80.208</ele>
        <time>2016-09-22T13:49:28Z</time>
      </trkpt>
      <trkpt lat="43.521661" lon="-8.316546">
        <ele>80.818</ele>
        <time>2016-09-22T13:50:20Z</time>
      </trkpt>
      <trkpt lat="43.521620" lon="-8.316547">
        <ele>80.812</ele>
        <time>2016-09-22T13:50:22Z</time>
      </trkpt>
      <trkpt lat="43.521468" lon="-8.316543">
        <ele>80.827</ele>
        <time>2016-09-22T13:50:28Z</time>
      </trkpt>
      <trkpt lat="43.521304" lon="-8.316542">
        <ele>80.415</ele>
        <time>2016-09-22T13:50:34Z</time>
      </trkpt>
      <trkpt lat="43.521137" lon="-8.316553">
        <ele>79.863</ele>
        <time>2016-09-22T13:50:40Z</time>
      </trkpt>
      <trkpt lat="43.521031" lon="-8.316548">
        <ele>79.663</ele>
        <time>2016-09-22T13:50:44Z</time>
      </trkpt>
      <trkpt lat="43.520946" lon="-8.316523">
        <ele>79.645</ele>
        <time>2016-09-22T13:50:47Z</time>
      </trkpt>
      <trkpt lat="43.520823" lon="-8.316464">
        <ele>79.277</ele>
        <time>2016-09-22T13:50:51Z</time>
      </trkpt>
      <trkpt lat="43.520714" lon="-8.316416">
        <ele>78.441</ele>
        <time>2016-09-22T13:50:55Z</time>
      </trkpt>
      <trkpt lat="43.520650" lon="-8.316398">
        <ele>78.081</ele>
        <time>2016-09-22T13:50:57Z</time>
      </trkpt>
      <trkpt lat="43.520520" lon="-8.316396">
        <ele>77.409</ele>
        <time>2016-09-22T13:51:01Z</time>
      </trkpt>
      <trkpt lat="43.520464" lon="-8.316396">
        <ele>77.608</ele>
        <time>2016-09-22T13:51:03Z</time>
      </trkpt>
      <trkpt lat="43.520312" lon="-8.316384">
        <ele>77.855</ele>
        <time>2016-09-22T13:51:08Z</time>
      </trkpt>
      <trkpt lat="43.520247" lon="-8.316382">
        <ele>77.819</ele>
        <time>2016-09-22T13:51:10Z</time>
      </trkpt>
      <trkpt lat="43.520114" lon="-8.316436">
        <ele>77.834</ele>
        <time>2016-09-22T13:51:15Z</time>
      </trkpt>
      <trkpt lat="43.520020" lon="-8.316567">
        <ele>77.622</ele>
        <time>2016-09-22T13:51:20Z</time>
      </trkpt>
      <trkpt lat="43.519886" lon="-8.316674">
        <ele>77.830</ele>
        <time>2016-09-22T13:51:25Z</time>
      </trkpt>
      <trkpt lat="43.519849" lon="-8.316685">
        <ele>77.840</ele>
        <time>2016-09-22T13:51:26Z</time>
      </trkpt>
      <trkpt lat="43.519706" lon="-8.316680">
        <ele>77.482</ele>
        <time>2016-09-22T13:51:29Z</time>
      </trkpt>
      <trkpt lat="43.519647" lon="-8.316668">
        <ele>77.274</ele>
        <time>2016-09-22T13:51:30Z</time>
      </trkpt>
      <trkpt lat="43.519586" lon="-8.316652">
        <ele>76.817</ele>
        <time>2016-09-22T13:51:31Z</time>
      </trkpt>
      <trkpt lat="43.519526" lon="-8.316630">
        <ele>76.287</ele>
        <time>2016-09-22T13:51:32Z</time>
      </trkpt>
      <trkpt lat="43.519470" lon="-8.316609">
        <ele>75.815</ele>
        <time>2016-09-22T13:51:33Z</time>
      </trkpt>
      <trkpt lat="43.519320" lon="-8.316579">
        <ele>75.008</ele>
        <time>2016-09-22T13:51:37Z</time>
      </trkpt>
      <trkpt lat="43.519170" lon="-8.316596">
        <ele>75.252</ele>
        <time>2016-09-22T13:51:43Z</time>
      </trkpt>
      <trkpt lat="43.519124" lon="-8.316610">
        <ele>75.486</ele>
        <time>2016-09-22T13:51:45Z</time>
      </trkpt>
      <trkpt lat="43.519050" lon="-8.316633">
        <ele>76.481</ele>
        <time>2016-09-22T13:51:48Z</time>
      </trkpt>
      <trkpt lat="43.519002" lon="-8.316642">
        <ele>76.619</ele>
        <time>2016-09-22T13:51:50Z</time>
      </trkpt>
      <trkpt lat="43.518849" lon="-8.316655">
        <ele>77.497</ele>
        <time>2016-09-22T13:51:57Z</time>
      </trkpt>
      <trkpt lat="43.518767" lon="-8.316671">
        <ele>78.637</ele>
        <time>2016-09-22T13:52:01Z</time>
      </trkpt>
      <trkpt lat="43.518698" lon="-8.316686">
        <ele>79.069</ele>
        <time>2016-09-22T13:52:04Z</time>
      </trkpt>
      <trkpt lat="43.518506" lon="-8.316690">
        <ele>79.221</ele>
        <time>2016-09-22T13:52:12Z</time>
      </trkpt>
      <trkpt lat="43.518455" lon="-8.316681">
        <ele>79.663</ele>
        <time>2016-09-22T13:52:14Z</time>
      </trkpt>
      <trkpt lat="43.518334" lon="-8.316660">
        <ele>80.044</ele>
        <time>2016-09-22T13:52:18Z</time>
      </trkpt>
      <trkpt lat="43.518042" lon="-8.316613">
        <ele>80.018</ele>
        <time>2016-09-22T13:52:26Z</time>
      </trkpt>
      <trkpt lat="43.517731" lon="-8.316461">
        <ele>79.008</ele>
        <time>2016-09-22T13:52:34Z</time>
      </trkpt>
      <trkpt lat="43.517648" lon="-8.316435">
        <ele>78.497</ele>
        <time>2016-09-22T13:52:36Z</time>
      </trkpt>
      <trkpt lat="43.517457" lon="-8.316398">
        <ele>78.491</ele>
        <time>2016-09-22T13:52:41Z</time>
      </trkpt>
      <trkpt lat="43.517092" lon="-8.316311">
        <ele>78.066</ele>
        <time>2016-09-22T13:52:50Z</time>
      </trkpt>
      <trkpt lat="43.516831" lon="-8.316176">
        <ele>78.824</ele>
        <time>2016-09-22T13:52:57Z</time>
      </trkpt>
      <trkpt lat="43.516694" lon="-8.316113">
        <ele>79.252</ele>
        <time>2016-09-22T13:53:01Z</time>
      </trkpt>
      <trkpt lat="43.516595" lon="-8.316095">
        <ele>79.422</ele>
        <time>2016-09-22T13:53:04Z</time>
      </trkpt>
      <trkpt lat="43.516556" lon="-8.316085">
        <ele>79.884</ele>
        <time>2016-09-22T13:53:05Z</time>
      </trkpt>
      <trkpt lat="43.516515" lon="-8.316068">
        <ele>79.886</ele>
        <time>2016-09-22T13:53:06Z</time>
      </trkpt>
      <trkpt lat="43.516411" lon="-8.315999">
        <ele>79.866</ele>
        <time>2016-09-22T13:53:09Z</time>
      </trkpt>
      <trkpt lat="43.516174" lon="-8.315898">
        <ele>80.229</ele>
        <time>2016-09-22T13:53:16Z</time>
      </trkpt>
      <trkpt lat="43.516144" lon="-8.315889">
        <ele>80.421</ele>
        <time>2016-09-22T13:53:17Z</time>
      </trkpt>
      <trkpt lat="43.516056" lon="-8.315867">
        <ele>81.408</ele>
        <time>2016-09-22T13:53:21Z</time>
      </trkpt>
      <trkpt lat="43.516032" lon="-8.315859">
        <ele>81.477</ele>
        <time>2016-09-22T13:53:22Z</time>
      </trkpt>
      <trkpt lat="43.515913" lon="-8.315820">
        <ele>82.621</ele>
        <time>2016-09-22T13:53:27Z</time>
      </trkpt>
      <trkpt lat="43.515805" lon="-8.315804">
        <ele>83.216</ele>
        <time>2016-09-22T13:53:31Z</time>
      </trkpt>
      <trkpt lat="43.515596" lon="-8.315830">
        <ele>83.664</ele>
        <time>2016-09-22T13:53:38Z</time>
      </trkpt>
      <trkpt lat="43.515407" lon="-8.315954">
        <ele>82.492</ele>
        <time>2016-09-22T13:53:44Z</time>
      </trkpt>
      <trkpt lat="43.515387" lon="-8.316004">
        <ele>82.092</ele>
        <time>2016-09-22T13:53:47Z</time>
      </trkpt>
      <trkpt lat="43.515387" lon="-8.316003">
        <ele>82.094</ele>
        <time>2016-09-22T13:53:48Z</time>
      </trkpt>
      <trkpt lat="43.515373" lon="-8.316017">
        <ele>82.286</ele>
        <time>2016-09-22T13:53:52Z</time>
      </trkpt>
      <trkpt lat="43.515340" lon="-8.316046">
        <ele>82.252</ele>
        <time>2016-09-22T13:53:54Z</time>
      </trkpt>
      <trkpt lat="43.515226" lon="-8.316145">
        <ele>81.853</ele>
        <time>2016-09-22T13:53:58Z</time>
      </trkpt>
      <trkpt lat="43.515130" lon="-8.316270">
        <ele>81.608</ele>
        <time>2016-09-22T13:54:01Z</time>
      </trkpt>
      <trkpt lat="43.515101" lon="-8.316316">
        <ele>81.208</ele>
        <time>2016-09-22T13:54:02Z</time>
      </trkpt>
      <trkpt lat="43.515013" lon="-8.316453">
        <ele>80.296</ele>
        <time>2016-09-22T13:54:05Z</time>
      </trkpt>
      <trkpt lat="43.514904" lon="-8.316616">
        <ele>79.840</ele>
        <time>2016-09-22T13:54:09Z</time>
      </trkpt>
      <trkpt lat="43.514683" lon="-8.316941">
        <ele>81.255</ele>
        <time>2016-09-22T13:54:17Z</time>
      </trkpt>
      <trkpt lat="43.514627" lon="-8.317028">
        <ele>81.253</ele>
        <time>2016-09-22T13:54:19Z</time>
      </trkpt>
      <trkpt lat="43.514455" lon="-8.317412">
        <ele>80.891</ele>
        <time>2016-09-22T13:54:26Z</time>
      </trkpt>
      <trkpt lat="43.514430" lon="-8.317475">
        <ele>80.621</ele>
        <time>2016-09-22T13:54:27Z</time>
      </trkpt>
      <trkpt lat="43.514407" lon="-8.317542">
        <ele>79.843</ele>
        <time>2016-09-22T13:54:28Z</time>
      </trkpt>
      <trkpt lat="43.514366" lon="-8.317679">
        <ele>78.465</ele>
        <time>2016-09-22T13:54:30Z</time>
      </trkpt>
      <trkpt lat="43.514327" lon="-8.317808">
        <ele>78.081</ele>
        <time>2016-09-22T13:54:32Z</time>
      </trkpt>
      <trkpt lat="43.514244" lon="-8.317957">
        <ele>77.461</ele>
        <time>2016-09-22T13:54:35Z</time>
      </trkpt>
      <trkpt lat="43.514211" lon="-8.318009">
        <ele>77.017</ele>
        <time>2016-09-22T13:54:36Z</time>
      </trkpt>
      <trkpt lat="43.514094" lon="-8.318198">
        <ele>75.608</ele>
        <time>2016-09-22T13:54:39Z</time>
      </trkpt>
      <trkpt lat="43.514012" lon="-8.318336">
        <ele>74.059</ele>
        <time>2016-09-22T13:54:41Z</time>
      </trkpt>
      <trkpt lat="43.513937" lon="-8.318464">
        <ele>72.433</ele>
        <time>2016-09-22T13:54:43Z</time>
      </trkpt>
      <trkpt lat="43.513869" lon="-8.318571">
        <ele>71.468</ele>
        <time>2016-09-22T13:54:45Z</time>
      </trkpt>
      <trkpt lat="43.513834" lon="-8.318617">
        <ele>71.226</ele>
        <time>2016-09-22T13:54:46Z</time>
      </trkpt>
      <trkpt lat="43.513744" lon="-8.318676">
        <ele>70.284</ele>
        <time>2016-09-22T13:54:48Z</time>
      </trkpt>
      <trkpt lat="43.513692" lon="-8.318687">
        <ele>70.014</ele>
        <time>2016-09-22T13:54:49Z</time>
      </trkpt>
      <trkpt lat="43.513639" lon="-8.318692">
        <ele>69.666</ele>
        <time>2016-09-22T13:54:50Z</time>
      </trkpt>
      <trkpt lat="43.513588" lon="-8.318700">
        <ele>69.248</ele>
        <time>2016-09-22T13:54:51Z</time>
      </trkpt>
      <trkpt lat="43.513448" lon="-8.318768">
        <ele>68.229</ele>
        <time>2016-09-22T13:54:54Z</time>
      </trkpt>
      <trkpt lat="43.513406" lon="-8.318803">
        <ele>68.200</ele>
        <time>2016-09-22T13:54:55Z</time>
      </trkpt>
      <trkpt lat="43.513298" lon="-8.318948">
        <ele>68.220</ele>
        <time>2016-09-22T13:54:58Z</time>
      </trkpt>
      <trkpt lat="43.513207" lon="-8.319076">
        <ele>68.008</ele>
        <time>2016-09-22T13:55:00Z</time>
      </trkpt>
      <trkpt lat="43.513094" lon="-8.319194">
        <ele>67.283</ele>
        <time>2016-09-22T13:55:02Z</time>
      </trkpt>
      <trkpt lat="43.512978" lon="-8.319279">
        <ele>66.057</ele>
        <time>2016-09-22T13:55:04Z</time>
      </trkpt>
      <trkpt lat="43.512810" lon="-8.319375">
        <ele>64.642</ele>
        <time>2016-09-22T13:55:07Z</time>
      </trkpt>
      <trkpt lat="43.512712" lon="-8.319418">
        <ele>64.260</ele>
        <time>2016-09-22T13:55:09Z</time>
      </trkpt>
      <trkpt lat="43.512637" lon="-8.319467">
        <ele>63.888</ele>
        <time>2016-09-22T13:55:11Z</time>
      </trkpt>
      <trkpt lat="43.512600" lon="-8.319491">
        <ele>63.648</ele>
        <time>2016-09-22T13:55:12Z</time>
      </trkpt>
      <trkpt lat="43.512307" lon="-8.319683">
        <ele>62.610</ele>
        <time>2016-09-22T13:55:19Z</time>
      </trkpt>
      <trkpt lat="43.512004" lon="-8.319781">
        <ele>62.032</ele>
        <time>2016-09-22T13:55:26Z</time>
      </trkpt>
      <trkpt lat="43.511603" lon="-8.319950">
        <ele>62.435</ele>
        <time>2016-09-22T13:55:35Z</time>
      </trkpt>
      <trkpt lat="43.511387" lon="-8.319994">
        <ele>61.686</ele>
        <time>2016-09-22T13:55:39Z</time>
      </trkpt>
      <trkpt lat="43.511348" lon="-8.320045">
        <ele>61.214</ele>
        <time>2016-09-22T13:55:40Z</time>
      </trkpt>
      <trkpt lat="43.511312" lon="-8.320102">
        <ele>60.608</ele>
        <time>2016-09-22T13:55:41Z</time>
      </trkpt>
      <trkpt lat="43.511234" lon="-8.320216">
        <ele>60.094</ele>
        <time>2016-09-22T13:55:43Z</time>
      </trkpt>
      <trkpt lat="43.511036" lon="-8.320498">
        <ele>59.868</ele>
        <time>2016-09-22T13:55:48Z</time>
      </trkpt>
      <trkpt lat="43.510971" lon="-8.320616">
        <ele>59.673</ele>
        <time>2016-09-22T13:55:50Z</time>
      </trkpt>
      <trkpt lat="43.510877" lon="-8.320798">
        <ele>59.041</ele>
        <time>2016-09-22T13:55:53Z</time>
      </trkpt>
      <trkpt lat="43.510689" lon="-8.321150">
        <ele>58.459</ele>
        <time>2016-09-22T13:55:59Z</time>
      </trkpt>
      <trkpt lat="43.510557" lon="-8.321386">
        <ele>57.819</ele>
        <time>2016-09-22T13:56:03Z</time>
      </trkpt>
      <trkpt lat="43.510473" lon="-8.321492">
        <ele>57.261</ele>
        <time>2016-09-22T13:56:05Z</time>
      </trkpt>
      <trkpt lat="43.510377" lon="-8.321574">
        <ele>56.833</ele>
        <time>2016-09-22T13:56:07Z</time>
      </trkpt>
      <trkpt lat="43.510287" lon="-8.321655">
        <ele>55.845</ele>
        <time>2016-09-22T13:56:09Z</time>
      </trkpt>
      <trkpt lat="43.510245" lon="-8.321701">
        <ele>55.647</ele>
        <time>2016-09-22T13:56:10Z</time>
      </trkpt>
      <trkpt lat="43.510157" lon="-8.321783">
        <ele>55.211</ele>
        <time>2016-09-22T13:56:12Z</time>
      </trkpt>
      <trkpt lat="43.510054" lon="-8.321842">
        <ele>54.808</ele>
        <time>2016-09-22T13:56:14Z</time>
      </trkpt>
      <trkpt lat="43.510002" lon="-8.321866">
        <ele>54.465</ele>
        <time>2016-09-22T13:56:15Z</time>
      </trkpt>
      <trkpt lat="43.509904" lon="-8.321912">
        <ele>53.889</ele>
        <time>2016-09-22T13:56:17Z</time>
      </trkpt>
      <trkpt lat="43.509819" lon="-8.321979">
        <ele>53.274</ele>
        <time>2016-09-22T13:56:19Z</time>
      </trkpt>
      <trkpt lat="43.509661" lon="-8.322093">
        <ele>51.822</ele>
        <time>2016-09-22T13:56:23Z</time>
      </trkpt>
      <trkpt lat="43.509596" lon="-8.322132">
        <ele>51.650</ele>
        <time>2016-09-22T13:56:25Z</time>
      </trkpt>
      <trkpt lat="43.509539" lon="-8.322165">
        <ele>50.820</ele>
        <time>2016-09-22T13:56:27Z</time>
      </trkpt>
      <trkpt lat="43.509432" lon="-8.322218">
        <ele>50.062</ele>
        <time>2016-09-22T13:56:31Z</time>
      </trkpt>
      <trkpt lat="43.509372" lon="-8.322235">
        <ele>49.694</ele>
        <time>2016-09-22T13:56:33Z</time>
      </trkpt>
      <trkpt lat="43.509301" lon="-8.322257">
        <ele>49.252</ele>
        <time>2016-09-22T13:56:35Z</time>
      </trkpt>
      <trkpt lat="43.509212" lon="-8.322263">
        <ele>48.853</ele>
        <time>2016-09-22T13:56:37Z</time>
      </trkpt>
      <trkpt lat="43.509166" lon="-8.322245">
        <ele>48.408</ele>
        <time>2016-09-22T13:56:38Z</time>
      </trkpt>
      <trkpt lat="43.509105" lon="-8.322194">
        <ele>48.008</ele>
        <time>2016-09-22T13:56:40Z</time>
      </trkpt>
      <trkpt lat="43.508977" lon="-8.322162">
        <ele>47.866</ele>
        <time>2016-09-22T13:56:44Z</time>
      </trkpt>
      <trkpt lat="43.508780" lon="-8.322157">
        <ele>47.260</ele>
        <time>2016-09-22T13:56:49Z</time>
      </trkpt>
      <trkpt lat="43.508628" lon="-8.322165">
        <ele>46.665</ele>
        <time>2016-09-22T13:56:54Z</time>
      </trkpt>
      <trkpt lat="43.508525" lon="-8.322207">
        <ele>46.683</ele>
        <time>2016-09-22T13:56:58Z</time>
      </trkpt>
      <trkpt lat="43.508426" lon="-8.322257">
        <ele>46.271</ele>
        <time>2016-09-22T13:57:01Z</time>
      </trkpt>
      <trkpt lat="43.508341" lon="-8.322293">
        <ele>45.871</ele>
        <time>2016-09-22T13:57:03Z</time>
      </trkpt>
      <trkpt lat="43.508235" lon="-8.322351">
        <ele>45.023</ele>
        <time>2016-09-22T13:57:06Z</time>
      </trkpt>
      <trkpt lat="43.508210" lon="-8.322357">
        <ele>45.015</ele>
        <time>2016-09-22T13:57:07Z</time>
      </trkpt>
      <trkpt lat="43.508194" lon="-8.322342">
        <ele>45.028</ele>
        <time>2016-09-22T13:57:08Z</time>
      </trkpt>
      <trkpt lat="43.508177" lon="-8.322272">
        <ele>45.289</ele>
        <time>2016-09-22T13:57:10Z</time>
      </trkpt>
      <trkpt lat="43.508185" lon="-8.322062">
        <ele>45.417</ele>
        <time>2016-09-22T13:57:15Z</time>
      </trkpt>
      <trkpt lat="43.508206" lon="-8.321859">
        <ele>46.008</ele>
        <time>2016-09-22T13:57:20Z</time>
      </trkpt>
      <trkpt lat="43.508216" lon="-8.321799">
        <ele>46.413</ele>
        <time>2016-09-22T13:57:24Z</time>
      </trkpt>
      <trkpt lat="43.508219" lon="-8.321763">
        <ele>46.087</ele>
        <time>2016-09-22T13:57:50Z</time>
      </trkpt>
      <trkpt lat="43.508222" lon="-8.321693">
        <ele>46.022</ele>
        <time>2016-09-22T13:57:53Z</time>
      </trkpt>
      <trkpt lat="43.508242" lon="-8.321528">
        <ele>46.460</ele>
        <time>2016-09-22T13:57:58Z</time>
      </trkpt>
      <trkpt lat="43.508289" lon="-8.321339">
        <ele>47.268</ele>
        <time>2016-09-22T13:58:03Z</time>
      </trkpt>
      <trkpt lat="43.508308" lon="-8.321117">
        <ele>48.058</ele>
        <time>2016-09-22T13:58:08Z</time>
      </trkpt>
      <trkpt lat="43.508346" lon="-8.320907">
        <ele>48.010</ele>
        <time>2016-09-22T13:58:13Z</time>
      </trkpt>
      <trkpt lat="43.508417" lon="-8.320694">
        <ele>48.032</ele>
        <time>2016-09-22T13:58:18Z</time>
      </trkpt>
      <trkpt lat="43.508435" lon="-8.320607">
        <ele>48.478</ele>
        <time>2016-09-22T13:58:20Z</time>
      </trkpt>
      <trkpt lat="43.508446" lon="-8.320467">
        <ele>49.033</ele>
        <time>2016-09-22T13:58:23Z</time>
      </trkpt>
      <trkpt lat="43.508456" lon="-8.320300">
        <ele>49.426</ele>
        <time>2016-09-22T13:58:27Z</time>
      </trkpt>
      <trkpt lat="43.508459" lon="-8.320257">
        <ele>49.608</ele>
        <time>2016-09-22T13:58:28Z</time>
      </trkpt>
      <trkpt lat="43.508515" lon="-8.320031">
        <ele>50.098</ele>
        <time>2016-09-22T13:58:33Z</time>
      </trkpt>
      <trkpt lat="43.508547" lon="-8.319763">
        <ele>49.282</ele>
        <time>2016-09-22T13:58:38Z</time>
      </trkpt>
      <trkpt lat="43.508567" lon="-8.319560">
        <ele>48.467</ele>
        <time>2016-09-22T13:58:41Z</time>
      </trkpt>
      <trkpt lat="43.508602" lon="-8.319400">
        <ele>47.855</ele>
        <time>2016-09-22T13:58:43Z</time>
      </trkpt>
      <trkpt lat="43.508650" lon="-8.319240">
        <ele>47.243</ele>
        <time>2016-09-22T13:58:45Z</time>
      </trkpt>
      <trkpt lat="43.508676" lon="-8.319183">
        <ele>47.033</ele>
        <time>2016-09-22T13:58:46Z</time>
      </trkpt>
      <trkpt lat="43.508703" lon="-8.319130">
        <ele>46.835</ele>
        <time>2016-09-22T13:58:47Z</time>
      </trkpt>
      <trkpt lat="43.508742" lon="-8.319041">
        <ele>46.077</ele>
        <time>2016-09-22T13:58:49Z</time>
      </trkpt>
      <trkpt lat="43.508787" lon="-8.318924">
        <ele>44.828</ele>
        <time>2016-09-22T13:58:52Z</time>
      </trkpt>
      <trkpt lat="43.508850" lon="-8.318746">
        <ele>43.889</ele>
        <time>2016-09-22T13:58:56Z</time>
      </trkpt>
      <trkpt lat="43.508879" lon="-8.318652">
        <ele>43.417</ele>
        <time>2016-09-22T13:58:58Z</time>
      </trkpt>
      <trkpt lat="43.508921" lon="-8.318427">
        <ele>43.208</ele>
        <time>2016-09-22T13:59:02Z</time>
      </trkpt>
      <trkpt lat="43.508912" lon="-8.318374">
        <ele>43.283</ele>
        <time>2016-09-22T13:59:03Z</time>
      </trkpt>
      <trkpt lat="43.508828" lon="-8.318293">
        <ele>42.417</ele>
        <time>2016-09-22T13:59:06Z</time>
      </trkpt>
      <trkpt lat="43.508724" lon="-8.318306">
        <ele>41.642</ele>
        <time>2016-09-22T13:59:09Z</time>
      </trkpt>
      <trkpt lat="43.508690" lon="-8.318322">
        <ele>41.650</ele>
        <time>2016-09-22T13:59:10Z</time>
      </trkpt>
      <trkpt lat="43.508573" lon="-8.318398">
        <ele>41.498</ele>
        <time>2016-09-22T13:59:14Z</time>
      </trkpt>
      <trkpt lat="43.508541" lon="-8.318415">
        <ele>41.258</ele>
        <time>2016-09-22T13:59:15Z</time>
      </trkpt>
      <trkpt lat="43.508371" lon="-8.318502">
        <ele>41.090</ele>
        <time>2016-09-22T13:59:20Z</time>
      </trkpt>
      <trkpt lat="43.508210" lon="-8.318535">
        <ele>40.282</ele>
        <time>2016-09-22T13:59:24Z</time>
      </trkpt>
      <trkpt lat="43.508163" lon="-8.318523">
        <ele>40.093</ele>
        <time>2016-09-22T13:59:25Z</time>
      </trkpt>
      <trkpt lat="43.507981" lon="-8.318528">
        <ele>39.865</ele>
        <time>2016-09-22T13:59:30Z</time>
      </trkpt>
      <trkpt lat="43.507820" lon="-8.318557">
        <ele>40.021</ele>
        <time>2016-09-22T13:59:34Z</time>
      </trkpt>
      <trkpt lat="43.507773" lon="-8.318575">
        <ele>40.008</ele>
        <time>2016-09-22T13:59:35Z</time>
      </trkpt>
      <trkpt lat="43.507626" lon="-8.318636">
        <ele>40.230</ele>
        <time>2016-09-22T13:59:38Z</time>
      </trkpt>
      <trkpt lat="43.507473" lon="-8.318735">
        <ele>40.054</ele>
        <time>2016-09-22T13:59:42Z</time>
      </trkpt>
      <trkpt lat="43.507309" lon="-8.318848">
        <ele>39.419</ele>
        <time>2016-09-22T13:59:46Z</time>
      </trkpt>
      <trkpt lat="43.507258" lon="-8.318873">
        <ele>39.047</ele>
        <time>2016-09-22T13:59:47Z</time>
      </trkpt>
      <trkpt lat="43.507162" lon="-8.318911">
        <ele>38.685</ele>
        <time>2016-09-22T13:59:49Z</time>
      </trkpt>
      <trkpt lat="43.507114" lon="-8.318951">
        <ele>38.415</ele>
        <time>2016-09-22T13:59:50Z</time>
      </trkpt>
      <trkpt lat="43.507029" lon="-8.319024">
        <ele>38.297</ele>
        <time>2016-09-22T13:59:52Z</time>
      </trkpt>
      <trkpt lat="43.506994" lon="-8.319054">
        <ele>37.849</ele>
        <time>2016-09-22T13:59:53Z</time>
      </trkpt>
      <trkpt lat="43.506922" lon="-8.319106">
        <ele>37.424</ele>
        <time>2016-09-22T13:59:55Z</time>
      </trkpt>
      <trkpt lat="43.506878" lon="-8.319144">
        <ele>37.404</ele>
        <time>2016-09-22T13:59:56Z</time>
      </trkpt>
      <trkpt lat="43.506791" lon="-8.319230">
        <ele>37.214</ele>
        <time>2016-09-22T13:59:58Z</time>
      </trkpt>
      <trkpt lat="43.506669" lon="-8.319316">
        <ele>36.808</ele>
        <time>2016-09-22T14:00:00Z</time>
      </trkpt>
      <trkpt lat="43.506527" lon="-8.319368">
        <ele>35.463</ele>
        <time>2016-09-22T14:00:02Z</time>
      </trkpt>
      <trkpt lat="43.506374" lon="-8.319393">
        <ele>34.087</ele>
        <time>2016-09-22T14:00:04Z</time>
      </trkpt>
      <trkpt lat="43.506239" lon="-8.319411">
        <ele>32.882</ele>
        <time>2016-09-22T14:00:06Z</time>
      </trkpt>
      <trkpt lat="43.506110" lon="-8.319441">
        <ele>31.010</ele>
        <time>2016-09-22T14:00:08Z</time>
      </trkpt>
      <trkpt lat="43.505996" lon="-8.319458">
        <ele>29.878</ele>
        <time>2016-09-22T14:00:10Z</time>
      </trkpt>
      <trkpt lat="43.505944" lon="-8.319458">
        <ele>29.838</ele>
        <time>2016-09-22T14:00:11Z</time>
      </trkpt>
      <trkpt lat="43.505894" lon="-8.319455">
        <ele>29.830</ele>
        <time>2016-09-22T14:00:12Z</time>
      </trkpt>
      <trkpt lat="43.505761" lon="-8.319444">
        <ele>29.472</ele>
        <time>2016-09-22T14:00:15Z</time>
      </trkpt>
      <trkpt lat="43.505728" lon="-8.319452">
        <ele>29.267</ele>
        <time>2016-09-22T14:00:16Z</time>
      </trkpt>
      <trkpt lat="43.505692" lon="-8.319461">
        <ele>28.881</ele>
        <time>2016-09-22T14:00:17Z</time>
      </trkpt>
      <trkpt lat="43.505615" lon="-8.319437">
        <ele>28.819</ele>
        <time>2016-09-22T14:00:20Z</time>
      </trkpt>
      <trkpt lat="43.505541" lon="-8.319371">
        <ele>30.008</ele>
        <time>2016-09-22T14:00:26Z</time>
      </trkpt>
      <trkpt lat="43.505518" lon="-8.319355">
        <ele>30.257</ele>
        <time>2016-09-22T14:00:27Z</time>
      </trkpt>
      <trkpt lat="43.505463" lon="-8.319310">
        <ele>31.041</ele>
        <time>2016-09-22T14:00:30Z</time>
      </trkpt>
      <trkpt lat="43.505410" lon="-8.319254">
        <ele>32.036</ele>
        <time>2016-09-22T14:00:33Z</time>
      </trkpt>
      <trkpt lat="43.505388" lon="-8.319236">
        <ele>32.274</ele>
        <time>2016-09-22T14:00:34Z</time>
      </trkpt>
      <trkpt lat="43.505314" lon="-8.319148">
        <ele>33.452</ele>
        <time>2016-09-22T14:00:38Z</time>
      </trkpt>
      <trkpt lat="43.505294" lon="-8.319122">
        <ele>33.662</ele>
        <time>2016-09-22T14:00:39Z</time>
      </trkpt>
      <trkpt lat="43.505241" lon="-8.319039">
        <ele>34.054</ele>
        <time>2016-09-22T14:00:42Z</time>
      </trkpt>
      <trkpt lat="43.505176" lon="-8.318941">
        <ele>34.246</ele>
        <time>2016-09-22T14:00:45Z</time>
      </trkpt>
      <trkpt lat="43.505114" lon="-8.318861">
        <ele>34.471</ele>
        <time>2016-09-22T14:00:47Z</time>
      </trkpt>
      <trkpt lat="43.505073" lon="-8.318813">
        <ele>34.641</ele>
        <time>2016-09-22T14:00:49Z</time>
      </trkpt>
      <trkpt lat="43.505033" lon="-8.318766">
        <ele>34.815</ele>
        <time>2016-09-22T14:00:52Z</time>
      </trkpt>
      <trkpt lat="43.504950" lon="-8.318660">
        <ele>35.208</ele>
        <time>2016-09-22T14:00:58Z</time>
      </trkpt>
      <trkpt lat="43.504898" lon="-8.318612">
        <ele>34.458</ele>
        <time>2016-09-22T14:01:01Z</time>
      </trkpt>
      <trkpt lat="43.504857" lon="-8.318540">
        <ele>33.812</ele>
        <time>2016-09-22T14:01:04Z</time>
      </trkpt>
      <trkpt lat="43.504813" lon="-8.318463">
        <ele>33.477</ele>
        <time>2016-09-22T14:01:07Z</time>
      </trkpt>
      <trkpt lat="43.504785" lon="-8.318385">
        <ele>32.435</ele>
        <time>2016-09-22T14:01:09Z</time>
      </trkpt>
      <trkpt lat="43.504762" lon="-8.318343">
        <ele>31.833</ele>
        <time>2016-09-22T14:01:10Z</time>
      </trkpt>
      <trkpt lat="43.504706" lon="-8.318257">
        <ele>30.073</ele>
        <time>2016-09-22T14:01:12Z</time>
      </trkpt>
      <trkpt lat="43.504675" lon="-8.318208">
        <ele>29.025</ele>
        <time>2016-09-22T14:01:13Z</time>
      </trkpt>
      <trkpt lat="43.504643" lon="-8.318172">
        <ele>28.067</ele>
        <time>2016-09-22T14:01:14Z</time>
      </trkpt>
      <trkpt lat="43.504578" lon="-8.318086">
        <ele>26.845</ele>
        <time>2016-09-22T14:01:16Z</time>
      </trkpt>
      <trkpt lat="43.504545" lon="-8.318048">
        <ele>25.647</ele>
        <time>2016-09-22T14:01:17Z</time>
      </trkpt>
      <trkpt lat="43.504484" lon="-8.318008">
        <ele>24.411</ele>
        <time>2016-09-22T14:01:19Z</time>
      </trkpt>
      <trkpt lat="43.504430" lon="-8.317956">
        <ele>23.208</ele>
        <time>2016-09-22T14:01:21Z</time>
      </trkpt>
      <trkpt lat="43.504343" lon="-8.317890">
        <ele>21.675</ele>
        <time>2016-09-22T14:01:24Z</time>
      </trkpt>
      <trkpt lat="43.504266" lon="-8.317859">
        <ele>20.469</ele>
        <time>2016-09-22T14:01:26Z</time>
      </trkpt>
      <trkpt lat="43.504198" lon="-8.317803">
        <ele>19.864</ele>
        <time>2016-09-22T14:01:28Z</time>
      </trkpt>
      <trkpt lat="43.504170" lon="-8.317767">
        <ele>19.412</ele>
        <time>2016-09-22T14:01:29Z</time>
      </trkpt>
      <trkpt lat="43.504149" lon="-8.317750">
        <ele>19.070</ele>
        <time>2016-09-22T14:01:30Z</time>
      </trkpt>
      <trkpt lat="43.504125" lon="-8.317732">
        <ele>18.470</ele>
        <time>2016-09-22T14:01:32Z</time>
      </trkpt>
      <trkpt lat="43.504082" lon="-8.317757">
        <ele>18.482</ele>
        <time>2016-09-22T14:01:39Z</time>
      </trkpt>
      <trkpt lat="43.504039" lon="-8.317801">
        <ele>18.264</ele>
        <time>2016-09-22T14:01:41Z</time>
      </trkpt>
      <trkpt lat="43.503984" lon="-8.317851">
        <ele>17.861</ele>
        <time>2016-09-22T14:01:43Z</time>
      </trkpt>
      <trkpt lat="43.503817" lon="-8.317995">
        <ele>16.621</ele>
        <time>2016-09-22T14:01:48Z</time>
      </trkpt>
      <trkpt lat="43.503673" lon="-8.318114">
        <ele>15.613</ele>
        <time>2016-09-22T14:01:51Z</time>
      </trkpt>
      <trkpt lat="43.503553" lon="-8.318209">
        <ele>14.808</ele>
        <time>2016-09-22T14:01:53Z</time>
      </trkpt>
      <trkpt lat="43.503483" lon="-8.318252">
        <ele>14.677</ele>
        <time>2016-09-22T14:01:54Z</time>
      </trkpt>
      <trkpt lat="43.503332" lon="-8.318313">
        <ele>13.881</ele>
        <time>2016-09-22T14:01:56Z</time>
      </trkpt>
      <trkpt lat="43.503256" lon="-8.318309">
        <ele>13.236</ele>
        <time>2016-09-22T14:01:57Z</time>
      </trkpt>
      <trkpt lat="43.503122" lon="-8.318228">
        <ele>12.024</ele>
        <time>2016-09-22T14:01:59Z</time>
      </trkpt>
      <trkpt lat="43.503061" lon="-8.318172">
        <ele>11.022</ele>
        <time>2016-09-22T14:02:00Z</time>
      </trkpt>
      <trkpt lat="43.502942" lon="-8.318052">
        <ele>9.862</ele>
        <time>2016-09-22T14:02:02Z</time>
      </trkpt>
      <trkpt lat="43.502548" lon="-8.317648">
        <ele>9.684</ele>
        <time>2016-09-22T14:02:09Z</time>
      </trkpt>
      <trkpt lat="43.502346" lon="-8.317444">
        <ele>8.696</ele>
        <time>2016-09-22T14:02:13Z</time>
      </trkpt>
      <trkpt lat="43.502159" lon="-8.317253">
        <ele>8.496</ele>
        <time>2016-09-22T14:02:17Z</time>
      </trkpt>
      <trkpt lat="43.501873" lon="-8.317046">
        <ele>7.631</ele>
        <time>2016-09-22T14:02:23Z</time>
      </trkpt>
      <trkpt lat="43.501824" lon="-8.317024">
        <ele>7.624</ele>
        <time>2016-09-22T14:02:24Z</time>
      </trkpt>
      <trkpt lat="43.501775" lon="-8.317009">
        <ele>7.408</ele>
        <time>2016-09-22T14:02:25Z</time>
      </trkpt>
      <trkpt lat="43.501588" lon="-8.316961">
        <ele>7.250</ele>
        <time>2016-09-22T14:02:29Z</time>
      </trkpt>
      <trkpt lat="43.501227" lon="-8.316870">
        <ele>7.294</ele>
        <time>2016-09-22T14:02:38Z</time>
      </trkpt>
      <trkpt lat="43.500913" lon="-8.316786">
        <ele>7.239</ele>
        <time>2016-09-22T14:02:46Z</time>
      </trkpt>
      <trkpt lat="43.500731" lon="-8.316729">
        <ele>7.227</ele>
        <time>2016-09-22T14:02:50Z</time>
      </trkpt>
      <trkpt lat="43.500643" lon="-8.316679">
        <ele>7.295</ele>
        <time>2016-09-22T14:02:52Z</time>
      </trkpt>
      <trkpt lat="43.500369" lon="-8.316611">
        <ele>7.215</ele>
        <time>2016-09-22T14:02:58Z</time>
      </trkpt>
      <trkpt lat="43.499953" lon="-8.316501">
        <ele>7.077</ele>
        <time>2016-09-22T14:03:07Z</time>
      </trkpt>
      <trkpt lat="43.499437" lon="-8.316368">
        <ele>7.099</ele>
        <time>2016-09-22T14:03:18Z</time>
      </trkpt>
      <trkpt lat="43.499051" lon="-8.316265">
        <ele>8.075</ele>
        <time>2016-09-22T14:03:27Z</time>
      </trkpt>
      <trkpt lat="43.498864" lon="-8.316214">
        <ele>8.628</ele>
        <time>2016-09-22T14:03:32Z</time>
      </trkpt>
      <trkpt lat="43.498780" lon="-8.316195">
        <ele>9.420</ele>
        <time>2016-09-22T14:03:35Z</time>
      </trkpt>
      <trkpt lat="43.498706" lon="-8.316179">
        <ele>9.608</ele>
        <time>2016-09-22T14:03:38Z</time>
      </trkpt>
      <trkpt lat="43.498598" lon="-8.316148">
        <ele>11.088</ele>
        <time>2016-09-22T14:03:43Z</time>
      </trkpt>
      <trkpt lat="43.498494" lon="-8.316113">
        <ele>12.222</ele>
        <time>2016-09-22T14:03:48Z</time>
      </trkpt>
      <trkpt lat="43.498418" lon="-8.316084">
        <ele>13.437</ele>
        <time>2016-09-22T14:03:52Z</time>
      </trkpt>
      <trkpt lat="43.498363" lon="-8.316060">
        <ele>14.465</ele>
        <time>2016-09-22T14:03:55Z</time>
      </trkpt>
      <trkpt lat="43.498332" lon="-8.316029">
        <ele>14.843</ele>
        <time>2016-09-22T14:03:57Z</time>
      </trkpt>
      <trkpt lat="43.498277" lon="-8.315957">
        <ele>15.623</ele>
        <time>2016-09-22T14:04:01Z</time>
      </trkpt>
      <trkpt lat="43.498254" lon="-8.315890">
        <ele>16.415</ele>
        <time>2016-09-22T14:04:04Z</time>
      </trkpt>
      <trkpt lat="43.498249" lon="-8.315865">
        <ele>16.887</ele>
        <time>2016-09-22T14:04:05Z</time>
      </trkpt>
      <trkpt lat="43.498244" lon="-8.315763">
        <ele>18.056</ele>
        <time>2016-09-22T14:04:09Z</time>
      </trkpt>
      <trkpt lat="43.498251" lon="-8.315711">
        <ele>18.859</ele>
        <time>2016-09-22T14:04:11Z</time>
      </trkpt>
      <trkpt lat="43.498258" lon="-8.315686">
        <ele>19.014</ele>
        <time>2016-09-22T14:04:12Z</time>
      </trkpt>
      <trkpt lat="43.498305" lon="-8.315579">
        <ele>20.208</ele>
        <time>2016-09-22T14:04:17Z</time>
      </trkpt>
      <trkpt lat="43.498314" lon="-8.315556">
        <ele>20.446</ele>
        <time>2016-09-22T14:04:18Z</time>
      </trkpt>
      <trkpt lat="43.498364" lon="-8.315448">
        <ele>21.450</ele>
        <time>2016-09-22T14:04:23Z</time>
      </trkpt>
      <trkpt lat="43.498405" lon="-8.315338">
        <ele>22.275</ele>
        <time>2016-09-22T14:04:28Z</time>
      </trkpt>
      <trkpt lat="43.498414" lon="-8.315315">
        <ele>22.873</ele>
        <time>2016-09-22T14:04:29Z</time>
      </trkpt>
      <trkpt lat="43.498461" lon="-8.315177">
        <ele>23.831</ele>
        <time>2016-09-22T14:04:35Z</time>
      </trkpt>
      <trkpt lat="43.498483" lon="-8.315107">
        <ele>24.291</ele>
        <time>2016-09-22T14:04:38Z</time>
      </trkpt>
      <trkpt lat="43.498503" lon="-8.315012">
        <ele>25.073</ele>
        <time>2016-09-22T14:04:42Z</time>
      </trkpt>
      <trkpt lat="43.498512" lon="-8.314937">
        <ele>26.065</ele>
        <time>2016-09-22T14:04:45Z</time>
      </trkpt>
      <trkpt lat="43.498514" lon="-8.314912">
        <ele>26.283</ele>
        <time>2016-09-22T14:04:46Z</time>
      </trkpt>
      <trkpt lat="43.498530" lon="-8.314764">
        <ele>27.225</ele>
        <time>2016-09-22T14:04:52Z</time>
      </trkpt>
      <trkpt lat="43.498534" lon="-8.314740">
        <ele>27.417</ele>
        <time>2016-09-22T14:04:53Z</time>
      </trkpt>
      <trkpt lat="43.498544" lon="-8.314619">
        <ele>28.408</ele>
        <time>2016-09-22T14:04:58Z</time>
      </trkpt>
      <trkpt lat="43.498552" lon="-8.314550">
        <ele>28.839</ele>
        <time>2016-09-22T14:05:01Z</time>
      </trkpt>
      <trkpt lat="43.498550" lon="-8.314453">
        <ele>29.693</ele>
        <time>2016-09-22T14:05:05Z</time>
      </trkpt>
      <trkpt lat="43.498552" lon="-8.314405">
        <ele>30.248</ele>
        <time>2016-09-22T14:05:07Z</time>
      </trkpt>
      <trkpt lat="43.498554" lon="-8.314360">
        <ele>30.826</ele>
        <time>2016-09-22T14:05:09Z</time>
      </trkpt>
      <trkpt lat="43.498562" lon="-8.314264">
        <ele>32.084</ele>
        <time>2016-09-22T14:05:13Z</time>
      </trkpt>
      <trkpt lat="43.498563" lon="-8.314218">
        <ele>32.454</ele>
        <time>2016-09-22T14:05:15Z</time>
      </trkpt>
      <trkpt lat="43.498566" lon="-8.314172">
        <ele>33.076</ele>
        <time>2016-09-22T14:05:17Z</time>
      </trkpt>
      <trkpt lat="43.498561" lon="-8.314082">
        <ele>34.228</ele>
        <time>2016-09-22T14:05:21Z</time>
      </trkpt>
      <trkpt lat="43.498550" lon="-8.314070">
        <ele>34.427</ele>
        <time>2016-09-22T14:05:22Z</time>
      </trkpt>
      <trkpt lat="43.498490" lon="-8.314109">
        <ele>35.468</ele>
        <time>2016-09-22T14:05:26Z</time>
      </trkpt>
      <trkpt lat="43.498431" lon="-8.314173">
        <ele>36.614</ele>
        <time>2016-09-22T14:05:30Z</time>
      </trkpt>
      <trkpt lat="43.498399" lon="-8.314200">
        <ele>37.008</ele>
        <time>2016-09-22T14:05:32Z</time>
      </trkpt>
      <trkpt lat="43.498329" lon="-8.314231">
        <ele>37.673</ele>
        <time>2016-09-22T14:05:36Z</time>
      </trkpt>
      <trkpt lat="43.498278" lon="-8.314246">
        <ele>38.077</ele>
        <time>2016-09-22T14:05:39Z</time>
      </trkpt>
      <trkpt lat="43.498252" lon="-8.314262">
        <ele>38.812</ele>
        <time>2016-09-22T14:05:41Z</time>
      </trkpt>
      <trkpt lat="43.498227" lon="-8.314266">
        <ele>39.610</ele>
        <time>2016-09-22T14:08:32Z</time>
      </trkpt>
      <trkpt lat="43.498160" lon="-8.314251">
        <ele>39.268</ele>
        <time>2016-09-22T14:08:35Z</time>
      </trkpt>
      <trkpt lat="43.498113" lon="-8.314248">
        <ele>39.248</ele>
        <time>2016-09-22T14:08:37Z</time>
      </trkpt>
      <trkpt lat="43.498019" lon="-8.314223">
        <ele>40.080</ele>
        <time>2016-09-22T14:08:41Z</time>
      </trkpt>
      <trkpt lat="43.497996" lon="-8.314211">
        <ele>40.292</ele>
        <time>2016-09-22T14:08:42Z</time>
      </trkpt>
      <trkpt lat="43.497822" lon="-8.314057">
        <ele>41.029</ele>
        <time>2016-09-22T14:08:50Z</time>
      </trkpt>
      <trkpt lat="43.497803" lon="-8.314030">
        <ele>41.400</ele>
        <time>2016-09-22T14:08:51Z</time>
      </trkpt>
      <trkpt lat="43.497752" lon="-8.313942">
        <ele>42.020</ele>
        <time>2016-09-22T14:08:54Z</time>
      </trkpt>
      <trkpt lat="43.497683" lon="-8.313786">
        <ele>42.808</ele>
        <time>2016-09-22T14:08:59Z</time>
      </trkpt>
      <trkpt lat="43.497668" lon="-8.313719">
        <ele>43.283</ele>
        <time>2016-09-22T14:09:01Z</time>
      </trkpt>
      <trkpt lat="43.497649" lon="-8.313556">
        <ele>43.867</ele>
        <time>2016-09-22T14:09:06Z</time>
      </trkpt>
      <trkpt lat="43.497639" lon="-8.313383">
        <ele>43.872</ele>
        <time>2016-09-22T14:09:10Z</time>
      </trkpt>
      <trkpt lat="43.497615" lon="-8.313341">
        <ele>43.820</ele>
        <time>2016-09-22T14:09:11Z</time>
      </trkpt>
      <trkpt lat="43.497520" lon="-8.313292">
        <ele>43.628</ele>
        <time>2016-09-22T14:09:13Z</time>
      </trkpt>
      <trkpt lat="43.497366" lon="-8.313303">
        <ele>42.818</ele>
        <time>2016-09-22T14:09:15Z</time>
      </trkpt>
      <trkpt lat="43.497277" lon="-8.313317">
        <ele>42.040</ele>
        <time>2016-09-22T14:09:16Z</time>
      </trkpt>
      <trkpt lat="43.497183" lon="-8.313316">
        <ele>40.212</ele>
        <time>2016-09-22T14:09:17Z</time>
      </trkpt>
      <trkpt lat="43.497082" lon="-8.313273">
        <ele>39.286</ele>
        <time>2016-09-22T14:09:18Z</time>
      </trkpt>
      <trkpt lat="43.496884" lon="-8.313095">
        <ele>37.260</ele>
        <time>2016-09-22T14:09:20Z</time>
      </trkpt>
      <trkpt lat="43.496790" lon="-8.312979">
        <ele>35.626</ele>
        <time>2016-09-22T14:09:21Z</time>
      </trkpt>
      <trkpt lat="43.496707" lon="-8.312842">
        <ele>34.208</ele>
        <time>2016-09-22T14:09:22Z</time>
      </trkpt>
      <trkpt lat="43.496641" lon="-8.312682">
        <ele>33.039</ele>
        <time>2016-09-22T14:09:23Z</time>
      </trkpt>
      <trkpt lat="43.496587" lon="-8.312509">
        <ele>31.283</ele>
        <time>2016-09-22T14:09:24Z</time>
      </trkpt>
      <trkpt lat="43.496532" lon="-8.312334">
        <ele>28.888</ele>
        <time>2016-09-22T14:09:25Z</time>
      </trkpt>
      <trkpt lat="43.496460" lon="-8.312173">
        <ele>27.266</ele>
        <time>2016-09-22T14:09:26Z</time>
      </trkpt>
      <trkpt lat="43.496370" lon="-8.312038">
        <ele>25.864</ele>
        <time>2016-09-22T14:09:27Z</time>
      </trkpt>
      <trkpt lat="43.496268" lon="-8.311930">
        <ele>25.254</ele>
        <time>2016-09-22T14:09:28Z</time>
      </trkpt>
      <trkpt lat="43.496162" lon="-8.311838">
        <ele>24.616</ele>
        <time>2016-09-22T14:09:29Z</time>
      </trkpt>
      <trkpt lat="43.495841" lon="-8.311633">
        <ele>23.418</ele>
        <time>2016-09-22T14:09:32Z</time>
      </trkpt>
      <trkpt lat="43.495629" lon="-8.311563">
        <ele>22.428</ele>
        <time>2016-09-22T14:09:34Z</time>
      </trkpt>
      <trkpt lat="43.495525" lon="-8.311542">
        <ele>22.289</ele>
        <time>2016-09-22T14:09:35Z</time>
      </trkpt>
      <trkpt lat="43.495424" lon="-8.311518">
        <ele>22.217</ele>
        <time>2016-09-22T14:09:36Z</time>
      </trkpt>
      <trkpt lat="43.495238" lon="-8.311443">
        <ele>22.008</ele>
        <time>2016-09-22T14:09:38Z</time>
      </trkpt>
      <trkpt lat="43.495088" lon="-8.311323">
        <ele>21.843</ele>
        <time>2016-09-22T14:09:40Z</time>
      </trkpt>
      <trkpt lat="43.494976" lon="-8.311173">
        <ele>21.897</ele>
        <time>2016-09-22T14:09:42Z</time>
      </trkpt>
      <trkpt lat="43.494877" lon="-8.311020">
        <ele>22.052</ele>
        <time>2016-09-22T14:09:44Z</time>
      </trkpt>
      <trkpt lat="43.494786" lon="-8.310856">
        <ele>21.630</ele>
        <time>2016-09-22T14:09:46Z</time>
      </trkpt>
      <trkpt lat="43.494749" lon="-8.310757">
        <ele>21.268</ele>
        <time>2016-09-22T14:09:47Z</time>
      </trkpt>
      <trkpt lat="43.494718" lon="-8.310646">
        <ele>21.098</ele>
        <time>2016-09-22T14:09:48Z</time>
      </trkpt>
      <trkpt lat="43.494657" lon="-8.310405">
        <ele>20.250</ele>
        <time>2016-09-22T14:09:50Z</time>
      </trkpt>
      <trkpt lat="43.494577" lon="-8.310158">
        <ele>19.242</ele>
        <time>2016-09-22T14:09:52Z</time>
      </trkpt>
      <trkpt lat="43.494534" lon="-8.310042">
        <ele>19.034</ele>
        <time>2016-09-22T14:09:53Z</time>
      </trkpt>
      <trkpt lat="43.494448" lon="-8.309815">
        <ele>17.855</ele>
        <time>2016-09-22T14:09:55Z</time>
      </trkpt>
      <trkpt lat="43.494333" lon="-8.309487">
        <ele>16.610</ele>
        <time>2016-09-22T14:09:58Z</time>
      </trkpt>
      <trkpt lat="43.494300" lon="-8.309379">
        <ele>16.408</ele>
        <time>2016-09-22T14:09:59Z</time>
      </trkpt>
      <trkpt lat="43.494205" lon="-8.309067">
        <ele>15.624</ele>
        <time>2016-09-22T14:10:02Z</time>
      </trkpt>
      <trkpt lat="43.494139" lon="-8.308747">
        <ele>15.028</ele>
        <time>2016-09-22T14:10:05Z</time>
      </trkpt>
      <trkpt lat="43.494043" lon="-8.308334">
        <ele>14.453</ele>
        <time>2016-09-22T14:10:09Z</time>
      </trkpt>
      <trkpt lat="43.493974" lon="-8.308138">
        <ele>13.861</ele>
        <time>2016-09-22T14:10:11Z</time>
      </trkpt>
      <trkpt lat="43.493873" lon="-8.307955">
        <ele>13.099</ele>
        <time>2016-09-22T14:10:13Z</time>
      </trkpt>
      <trkpt lat="43.493756" lon="-8.307775">
        <ele>12.489</ele>
        <time>2016-09-22T14:10:15Z</time>
      </trkpt>
      <trkpt lat="43.493645" lon="-8.307574">
        <ele>11.891</ele>
        <time>2016-09-22T14:10:17Z</time>
      </trkpt>
      <trkpt lat="43.493566" lon="-8.307346">
        <ele>11.433</ele>
        <time>2016-09-22T14:10:19Z</time>
      </trkpt>
      <trkpt lat="43.493437" lon="-8.306902">
        <ele>10.868</ele>
        <time>2016-09-22T14:10:23Z</time>
      </trkpt>
      <trkpt lat="43.493354" lon="-8.306592">
        <ele>10.042</ele>
        <time>2016-09-22T14:10:26Z</time>
      </trkpt>
      <trkpt lat="43.493308" lon="-8.306398">
        <ele>9.826</ele>
        <time>2016-09-22T14:10:28Z</time>
      </trkpt>
      <trkpt lat="43.493241" lon="-8.306046">
        <ele>10.008</ele>
        <time>2016-09-22T14:10:32Z</time>
      </trkpt>
      <trkpt lat="43.493072" lon="-8.305281">
        <ele>9.697</ele>
        <time>2016-09-22T14:10:41Z</time>
      </trkpt>
      <trkpt lat="43.492896" lon="-8.304564">
        <ele>9.461</ele>
        <time>2016-09-22T14:10:50Z</time>
      </trkpt>
      <trkpt lat="43.492766" lon="-8.304218">
        <ele>9.076</ele>
        <time>2016-09-22T14:10:55Z</time>
      </trkpt>
      <trkpt lat="43.492736" lon="-8.304159">
        <ele>9.444</ele>
        <time>2016-09-22T14:10:56Z</time>
      </trkpt>
      <trkpt lat="43.492567" lon="-8.303839">
        <ele>9.422</ele>
        <time>2016-09-22T14:11:02Z</time>
      </trkpt>
      <trkpt lat="43.492346" lon="-8.303555">
        <ele>9.412</ele>
        <time>2016-09-22T14:11:08Z</time>
      </trkpt>
      <trkpt lat="43.492251" lon="-8.303472">
        <ele>9.664</ele>
        <time>2016-09-22T14:11:10Z</time>
      </trkpt>
      <trkpt lat="43.492146" lon="-8.303426">
        <ele>9.456</ele>
        <time>2016-09-22T14:11:12Z</time>
      </trkpt>
      <trkpt lat="43.491981" lon="-8.303439">
        <ele>9.619</ele>
        <time>2016-09-22T14:11:15Z</time>
      </trkpt>
      <trkpt lat="43.491873" lon="-8.303464">
        <ele>9.609</ele>
        <time>2016-09-22T14:11:17Z</time>
      </trkpt>
      <trkpt lat="43.491721" lon="-8.303420">
        <ele>9.819</ele>
        <time>2016-09-22T14:11:20Z</time>
      </trkpt>
      <trkpt lat="43.491563" lon="-8.303244">
        <ele>10.208</ele>
        <time>2016-09-22T14:11:24Z</time>
      </trkpt>
      <trkpt lat="43.491527" lon="-8.303191">
        <ele>10.412</ele>
        <time>2016-09-22T14:11:25Z</time>
      </trkpt>
      <trkpt lat="43.491489" lon="-8.303142">
        <ele>10.486</ele>
        <time>2016-09-22T14:11:26Z</time>
      </trkpt>
      <trkpt lat="43.491348" lon="-8.303069">
        <ele>10.621</ele>
        <time>2016-09-22T14:11:29Z</time>
      </trkpt>
      <trkpt lat="43.491252" lon="-8.303109">
        <ele>10.829</ele>
        <time>2016-09-22T14:11:31Z</time>
      </trkpt>
      <trkpt lat="43.491212" lon="-8.303151">
        <ele>11.027</ele>
        <time>2016-09-22T14:11:32Z</time>
      </trkpt>
      <trkpt lat="43.491151" lon="-8.303249">
        <ele>11.257</ele>
        <time>2016-09-22T14:11:34Z</time>
      </trkpt>
      <trkpt lat="43.491080" lon="-8.303394">
        <ele>12.019</ele>
        <time>2016-09-22T14:11:37Z</time>
      </trkpt>
      <trkpt lat="43.490897" lon="-8.303678">
        <ele>12.881</ele>
        <time>2016-09-22T14:11:44Z</time>
      </trkpt>
      <trkpt lat="43.490867" lon="-8.303716">
        <ele>13.029</ele>
        <time>2016-09-22T14:11:45Z</time>
      </trkpt>
      <trkpt lat="43.490563" lon="-8.304058">
        <ele>13.400</ele>
        <time>2016-09-22T14:11:54Z</time>
      </trkpt>
      <trkpt lat="43.490351" lon="-8.304353">
        <ele>14.020</ele>
        <time>2016-09-22T14:12:01Z</time>
      </trkpt>
      <trkpt lat="43.490290" lon="-8.304445">
        <ele>14.208</ele>
        <time>2016-09-22T14:12:03Z</time>
      </trkpt>
      <trkpt lat="43.490073" lon="-8.304822">
        <ele>15.033</ele>
        <time>2016-09-22T14:12:11Z</time>
      </trkpt>
      <trkpt lat="43.490047" lon="-8.304868">
        <ele>15.217</ele>
        <time>2016-09-22T14:12:12Z</time>
      </trkpt>
      <trkpt lat="43.489989" lon="-8.304955">
        <ele>15.832</ele>
        <time>2016-09-22T14:12:14Z</time>
      </trkpt>
      <trkpt lat="43.489958" lon="-8.304991">
        <ele>16.040</ele>
        <time>2016-09-22T14:12:15Z</time>
      </trkpt>
      <trkpt lat="43.489864" lon="-8.305079">
        <ele>16.618</ele>
        <time>2016-09-22T14:12:18Z</time>
      </trkpt>
      <trkpt lat="43.489770" lon="-8.305126">
        <ele>17.418</ele>
        <time>2016-09-22T14:12:22Z</time>
      </trkpt>
      <trkpt lat="43.489748" lon="-8.305127">
        <ele>17.810</ele>
        <time>2016-09-22T14:12:23Z</time>
      </trkpt>
      <trkpt lat="43.489676" lon="-8.305127">
        <ele>18.872</ele>
        <time>2016-09-22T14:12:26Z</time>
      </trkpt>
      <trkpt lat="43.489569" lon="-8.305130">
        <ele>20.014</ele>
        <time>2016-09-22T14:12:30Z</time>
      </trkpt>
      <trkpt lat="43.489455" lon="-8.305127">
        <ele>21.054</ele>
        <time>2016-09-22T14:12:34Z</time>
      </trkpt>
      <trkpt lat="43.489337" lon="-8.305111">
        <ele>21.809</ele>
        <time>2016-09-22T14:12:38Z</time>
      </trkpt>
      <trkpt lat="43.489277" lon="-8.305101">
        <ele>22.008</ele>
        <time>2016-09-22T14:12:40Z</time>
      </trkpt>
      <trkpt lat="43.489085" lon="-8.305115">
        <ele>23.072</ele>
        <time>2016-09-22T14:12:46Z</time>
      </trkpt>
      <trkpt lat="43.489052" lon="-8.305125">
        <ele>23.246</ele>
        <time>2016-09-22T14:12:47Z</time>
      </trkpt>
      <trkpt lat="43.488850" lon="-8.305273">
        <ele>23.871</ele>
        <time>2016-09-22T14:12:54Z</time>
      </trkpt>
      <trkpt lat="43.488824" lon="-8.305303">
        <ele>24.029</ele>
        <time>2016-09-22T14:12:55Z</time>
      </trkpt>
      <trkpt lat="43.488685" lon="-8.305507">
        <ele>25.257</ele>
        <time>2016-09-22T14:13:01Z</time>
      </trkpt>
      <trkpt lat="43.488662" lon="-8.305542">
        <ele>25.457</ele>
        <time>2016-09-22T14:13:02Z</time>
      </trkpt>
      <trkpt lat="43.488516" lon="-8.305780">
        <ele>26.419</ele>
        <time>2016-09-22T14:13:09Z</time>
      </trkpt>
      <trkpt lat="43.488479" lon="-8.305851">
        <ele>27.011</ele>
        <time>2016-09-22T14:13:11Z</time>
      </trkpt>
      <trkpt lat="43.488438" lon="-8.305917">
        <ele>27.468</ele>
        <time>2016-09-22T14:13:13Z</time>
      </trkpt>
      <trkpt lat="43.488334" lon="-8.306075">
        <ele>28.442</ele>
        <time>2016-09-22T14:13:18Z</time>
      </trkpt>
      <trkpt lat="43.488314" lon="-8.306106">
        <ele>28.626</ele>
        <time>2016-09-22T14:13:19Z</time>
      </trkpt>
      <trkpt lat="43.488234" lon="-8.306216">
        <ele>29.808</ele>
        <time>2016-09-22T14:13:23Z</time>
      </trkpt>
      <trkpt lat="43.488201" lon="-8.306267">
        <ele>30.677</ele>
        <time>2016-09-22T14:13:25Z</time>
      </trkpt>
      <trkpt lat="43.488198" lon="-8.306297">
        <ele>30.841</ele>
        <time>2016-09-22T14:13:26Z</time>
      </trkpt>
      <trkpt lat="43.488228" lon="-8.306335">
        <ele>31.286</ele>
        <time>2016-09-22T14:13:28Z</time>
      </trkpt>
      <trkpt lat="43.488333" lon="-8.306314">
        <ele>31.664</ele>
        <time>2016-09-22T14:13:31Z</time>
      </trkpt>
      <trkpt lat="43.488382" lon="-8.306299">
        <ele>31.292</ele>
        <time>2016-09-22T14:13:32Z</time>
      </trkpt>
      <trkpt lat="43.488670" lon="-8.306232">
        <ele>29.642</ele>
        <time>2016-09-22T14:13:36Z</time>
      </trkpt>
      <trkpt lat="43.488847" lon="-8.306197">
        <ele>27.884</ele>
        <time>2016-09-22T14:13:38Z</time>
      </trkpt>
      <trkpt lat="43.488927" lon="-8.306196">
        <ele>27.246</ele>
        <time>2016-09-22T14:13:39Z</time>
      </trkpt>
      <trkpt lat="43.489001" lon="-8.306223">
        <ele>26.234</ele>
        <time>2016-09-22T14:13:40Z</time>
      </trkpt>
      <trkpt lat="43.489074" lon="-8.306276">
        <ele>25.055</ele>
        <time>2016-09-22T14:13:41Z</time>
      </trkpt>
      <trkpt lat="43.489142" lon="-8.306344">
        <ele>24.010</ele>
        <time>2016-09-22T14:13:42Z</time>
      </trkpt>
      <trkpt lat="43.489204" lon="-8.306422">
        <ele>23.008</ele>
        <time>2016-09-22T14:13:43Z</time>
      </trkpt>
      <trkpt lat="43.489258" lon="-8.306501">
        <ele>22.494</ele>
        <time>2016-09-22T14:13:44Z</time>
      </trkpt>
      <trkpt lat="43.489342" lon="-8.306691">
        <ele>21.268</ele>
        <time>2016-09-22T14:13:46Z</time>
      </trkpt>
      <trkpt lat="43.489392" lon="-8.306923">
        <ele>19.863</ele>
        <time>2016-09-22T14:13:48Z</time>
      </trkpt>
      <trkpt lat="43.489425" lon="-8.307034">
        <ele>19.461</ele>
        <time>2016-09-22T14:13:49Z</time>
      </trkpt>
      <trkpt lat="43.489469" lon="-8.307138">
        <ele>18.439</ele>
        <time>2016-09-22T14:13:50Z</time>
      </trkpt>
      <trkpt lat="43.489604" lon="-8.307434">
        <ele>17.479</ele>
        <time>2016-09-22T14:13:53Z</time>
      </trkpt>
      <trkpt lat="43.489689" lon="-8.307623">
        <ele>17.041</ele>
        <time>2016-09-22T14:13:55Z</time>
      </trkpt>
      <trkpt lat="43.489732" lon="-8.307817">
        <ele>16.293</ele>
        <time>2016-09-22T14:13:57Z</time>
      </trkpt>
      <trkpt lat="43.489737" lon="-8.307912">
        <ele>16.059</ele>
        <time>2016-09-22T14:13:58Z</time>
      </trkpt>
      <trkpt lat="43.489739" lon="-8.308002">
        <ele>15.803</ele>
        <time>2016-09-22T14:13:59Z</time>
      </trkpt>
      <trkpt lat="43.489745" lon="-8.308424">
        <ele>15.423</ele>
        <time>2016-09-22T14:14:04Z</time>
      </trkpt>
      <trkpt lat="43.489754" lon="-8.308573">
        <ele>15.208</ele>
        <time>2016-09-22T14:14:06Z</time>
      </trkpt>
      <trkpt lat="43.489756" lon="-8.308708">
        <ele>15.096</ele>
        <time>2016-09-22T14:14:08Z</time>
      </trkpt>
      <trkpt lat="43.489761" lon="-8.308772">
        <ele>15.070</ele>
        <time>2016-09-22T14:14:09Z</time>
      </trkpt>
      <trkpt lat="43.489788" lon="-8.309025">
        <ele>14.485</ele>
        <time>2016-09-22T14:14:13Z</time>
      </trkpt>
      <trkpt lat="43.489801" lon="-8.309151">
        <ele>14.263</ele>
        <time>2016-09-22T14:14:15Z</time>
      </trkpt>
      <trkpt lat="43.489805" lon="-8.309217">
        <ele>14.221</ele>
        <time>2016-09-22T14:14:16Z</time>
      </trkpt>
      <trkpt lat="43.489808" lon="-8.309283">
        <ele>14.051</ele>
        <time>2016-09-22T14:14:17Z</time>
      </trkpt>
      <trkpt lat="43.489807" lon="-8.309408">
        <ele>13.663</ele>
        <time>2016-09-22T14:14:19Z</time>
      </trkpt>
      <trkpt lat="43.489794" lon="-8.309530">
        <ele>13.415</ele>
        <time>2016-09-22T14:14:21Z</time>
      </trkpt>
      <trkpt lat="43.489784" lon="-8.309593">
        <ele>13.086</ele>
        <time>2016-09-22T14:14:22Z</time>
      </trkpt>
      <trkpt lat="43.489775" lon="-8.309657">
        <ele>12.860</ele>
        <time>2016-09-22T14:14:23Z</time>
      </trkpt>
      <trkpt lat="43.489739" lon="-8.309870">
        <ele>12.626</ele>
        <time>2016-09-22T14:14:26Z</time>
      </trkpt>
      <trkpt lat="43.489729" lon="-8.309946">
        <ele>12.408</ele>
        <time>2016-09-22T14:14:27Z</time>
      </trkpt>
      <trkpt lat="43.489707" lon="-8.310205">
        <ele>11.679</ele>
        <time>2016-09-22T14:14:30Z</time>
      </trkpt>
      <trkpt lat="43.489705" lon="-8.310301">
        <ele>11.273</ele>
        <time>2016-09-22T14:14:31Z</time>
      </trkpt>
      <trkpt lat="43.489714" lon="-8.310595">
        <ele>10.438</ele>
        <time>2016-09-22T14:14:34Z</time>
      </trkpt>
      <trkpt lat="43.489715" lon="-8.310808">
        <ele>9.416</ele>
        <time>2016-09-22T14:14:36Z</time>
      </trkpt>
      <trkpt lat="43.489706" lon="-8.310912">
        <ele>8.844</ele>
        <time>2016-09-22T14:14:37Z</time>
      </trkpt>
      <trkpt lat="43.489716" lon="-8.311199">
        <ele>8.274</ele>
        <time>2016-09-22T14:14:40Z</time>
      </trkpt>
      <trkpt lat="43.489759" lon="-8.311353">
        <ele>8.046</ele>
        <time>2016-09-22T14:14:42Z</time>
      </trkpt>
      <trkpt lat="43.489794" lon="-8.311490">
        <ele>8.038</ele>
        <time>2016-09-22T14:14:44Z</time>
      </trkpt>
      <trkpt lat="43.489908" lon="-8.311982">
        <ele>8.632</ele>
        <time>2016-09-22T14:14:51Z</time>
      </trkpt>
      <trkpt lat="43.489929" lon="-8.312364">
        <ele>8.692</ele>
        <time>2016-09-22T14:14:56Z</time>
      </trkpt>
      <trkpt lat="43.489996" lon="-8.312940">
        <ele>7.611</ele>
        <time>2016-09-22T14:15:03Z</time>
      </trkpt>
      <trkpt lat="43.490012" lon="-8.313185">
        <ele>7.008</ele>
        <time>2016-09-22T14:15:06Z</time>
      </trkpt>
      <trkpt lat="43.489996" lon="-8.313345">
        <ele>6.814</ele>
        <time>2016-09-22T14:15:08Z</time>
      </trkpt>
      <trkpt lat="43.489984" lon="-8.313425">
        <ele>6.698</ele>
        <time>2016-09-22T14:15:09Z</time>
      </trkpt>
      <trkpt lat="43.489910" lon="-8.313962">
        <ele>6.493</ele>
        <time>2016-09-22T14:15:16Z</time>
      </trkpt>
      <trkpt lat="43.489897" lon="-8.314035">
        <ele>6.231</ele>
        <time>2016-09-22T14:15:17Z</time>
      </trkpt>
      <trkpt lat="43.489881" lon="-8.314258">
        <ele>6.069</ele>
        <time>2016-09-22T14:15:20Z</time>
      </trkpt>
      <trkpt lat="43.489884" lon="-8.314335">
        <ele>6.069</ele>
        <time>2016-09-22T14:15:21Z</time>
      </trkpt>
      <trkpt lat="43.489906" lon="-8.314639">
        <ele>5.861</ele>
        <time>2016-09-22T14:15:25Z</time>
      </trkpt>
      <trkpt lat="43.489906" lon="-8.314715">
        <ele>5.893</ele>
        <time>2016-09-22T14:15:26Z</time>
      </trkpt>
      <trkpt lat="43.489919" lon="-8.314865">
        <ele>5.636</ele>
        <time>2016-09-22T14:15:28Z</time>
      </trkpt>
      <trkpt lat="43.489929" lon="-8.314942">
        <ele>5.617</ele>
        <time>2016-09-22T14:15:29Z</time>
      </trkpt>
      <trkpt lat="43.489941" lon="-8.315016">
        <ele>5.618</ele>
        <time>2016-09-22T14:15:30Z</time>
      </trkpt>
      <trkpt lat="43.489958" lon="-8.315087">
        <ele>5.608</ele>
        <time>2016-09-22T14:15:31Z</time>
      </trkpt>
      <trkpt lat="43.490055" lon="-8.315322">
        <ele>5.824</ele>
        <time>2016-09-22T14:15:35Z</time>
      </trkpt>
      <trkpt lat="43.490084" lon="-8.315378">
        <ele>5.868</ele>
        <time>2016-09-22T14:15:36Z</time>
      </trkpt>
      <trkpt lat="43.490112" lon="-8.315440">
        <ele>6.083</ele>
        <time>2016-09-22T14:15:37Z</time>
      </trkpt>
      <trkpt lat="43.490149" lon="-8.315644">
        <ele>6.051</ele>
        <time>2016-09-22T14:15:40Z</time>
      </trkpt>
      <trkpt lat="43.490075" lon="-8.315881">
        <ele>6.089</ele>
        <time>2016-09-22T14:15:44Z</time>
      </trkpt>
      <trkpt lat="43.490001" lon="-8.316038">
        <ele>6.429</ele>
        <time>2016-09-22T14:15:47Z</time>
      </trkpt>
      <trkpt lat="43.489936" lon="-8.316134">
        <ele>6.451</ele>
        <time>2016-09-22T14:15:49Z</time>
      </trkpt>
      <trkpt lat="43.489900" lon="-8.316177">
        <ele>6.493</ele>
        <time>2016-09-22T14:15:50Z</time>
      </trkpt>
      <trkpt lat="43.489734" lon="-8.316289">
        <ele>6.436</ele>
        <time>2016-09-22T14:15:54Z</time>
      </trkpt>
      <trkpt lat="43.489692" lon="-8.316314">
        <ele>6.617</ele>
        <time>2016-09-22T14:15:55Z</time>
      </trkpt>
      <trkpt lat="43.489542" lon="-8.316454">
        <ele>7.018</ele>
        <time>2016-09-22T14:15:59Z</time>
      </trkpt>
      <trkpt lat="43.489359" lon="-8.316762">
        <ele>7.608</ele>
        <time>2016-09-22T14:16:05Z</time>
      </trkpt>
      <trkpt lat="43.489112" lon="-8.317176">
        <ele>8.834</ele>
        <time>2016-09-22T14:16:13Z</time>
      </trkpt>
      <trkpt lat="43.489050" lon="-8.317270">
        <ele>9.288</ele>
        <time>2016-09-22T14:16:15Z</time>
      </trkpt>
      <trkpt lat="43.488949" lon="-8.317456">
        <ele>10.073</ele>
        <time>2016-09-22T14:16:19Z</time>
      </trkpt>
      <trkpt lat="43.488881" lon="-8.317603">
        <ele>10.221</ele>
        <time>2016-09-22T14:16:22Z</time>
      </trkpt>
      <trkpt lat="43.488781" lon="-8.317803">
        <ele>11.089</ele>
        <time>2016-09-22T14:16:26Z</time>
      </trkpt>
      <trkpt lat="43.488604" lon="-8.318091">
        <ele>11.899</ele>
        <time>2016-09-22T14:16:32Z</time>
      </trkpt>
      <trkpt lat="43.488542" lon="-8.318183">
        <ele>12.251</ele>
        <time>2016-09-22T14:16:34Z</time>
      </trkpt>
      <trkpt lat="43.488384" lon="-8.318392">
        <ele>12.663</ele>
        <time>2016-09-22T14:16:39Z</time>
      </trkpt>
      <trkpt lat="43.488361" lon="-8.318439">
        <ele>12.841</ele>
        <time>2016-09-22T14:16:40Z</time>
      </trkpt>
      <trkpt lat="43.488315" lon="-8.318679">
        <ele>13.081</ele>
        <time>2016-09-22T14:16:44Z</time>
      </trkpt>
      <trkpt lat="43.488308" lon="-8.318744">
        <ele>13.209</ele>
        <time>2016-09-22T14:16:45Z</time>
      </trkpt>
      <trkpt lat="43.488237" lon="-8.319089">
        <ele>12.808</ele>
        <time>2016-09-22T14:16:50Z</time>
      </trkpt>
      <trkpt lat="43.488219" lon="-8.319159">
        <ele>12.475</ele>
        <time>2016-09-22T14:16:51Z</time>
      </trkpt>
      <trkpt lat="43.488110" lon="-8.319788">
        <ele>12.699</ele>
        <time>2016-09-22T14:17:00Z</time>
      </trkpt>
      <trkpt lat="43.488025" lon="-8.320104">
        <ele>13.064</ele>
        <time>2016-09-22T14:17:05Z</time>
      </trkpt>
      <trkpt lat="43.487981" lon="-8.320227">
        <ele>13.062</ele>
        <time>2016-09-22T14:17:07Z</time>
      </trkpt>
      <trkpt lat="43.487885" lon="-8.320480">
        <ele>12.640</ele>
        <time>2016-09-22T14:17:11Z</time>
      </trkpt>
      <trkpt lat="43.487800" lon="-8.320680">
        <ele>12.480</ele>
        <time>2016-09-22T14:17:14Z</time>
      </trkpt>
      <trkpt lat="43.487737" lon="-8.320813">
        <ele>12.052</ele>
        <time>2016-09-22T14:17:16Z</time>
      </trkpt>
      <trkpt lat="43.487668" lon="-8.320937">
        <ele>11.874</ele>
        <time>2016-09-22T14:17:18Z</time>
      </trkpt>
      <trkpt lat="43.487579" lon="-8.321033">
        <ele>11.833</ele>
        <time>2016-09-22T14:17:20Z</time>
      </trkpt>
      <trkpt lat="43.487433" lon="-8.321209">
        <ele>12.023</ele>
        <time>2016-09-22T14:17:24Z</time>
      </trkpt>
      <trkpt lat="43.487312" lon="-8.321330">
        <ele>13.215</ele>
        <time>2016-09-22T14:17:29Z</time>
      </trkpt>
      <trkpt lat="43.487288" lon="-8.321349">
        <ele>13.608</ele>
        <time>2016-09-22T14:17:30Z</time>
      </trkpt>
      <trkpt lat="43.487216" lon="-8.321406">
        <ele>14.414</ele>
        <time>2016-09-22T14:17:33Z</time>
      </trkpt>
      <trkpt lat="43.487148" lon="-8.321475">
        <ele>15.488</ele>
        <time>2016-09-22T14:17:36Z</time>
      </trkpt>
      <trkpt lat="43.487071" lon="-8.321534">
        <ele>16.413</ele>
        <time>2016-09-22T14:17:39Z</time>
      </trkpt>
      <trkpt lat="43.487046" lon="-8.321552">
        <ele>16.831</ele>
        <time>2016-09-22T14:17:40Z</time>
      </trkpt>
      <trkpt lat="43.486926" lon="-8.321658">
        <ele>18.089</ele>
        <time>2016-09-22T14:17:45Z</time>
      </trkpt>
      <trkpt lat="43.486903" lon="-8.321689">
        <ele>18.069</ele>
        <time>2016-09-22T14:17:46Z</time>
      </trkpt>
      <trkpt lat="43.486857" lon="-8.321833">
        <ele>18.451</ele>
        <time>2016-09-22T14:17:49Z</time>
      </trkpt>
      <trkpt lat="43.486852" lon="-8.321897">
        <ele>18.263</ele>
        <time>2016-09-22T14:17:50Z</time>
      </trkpt>
      <trkpt lat="43.486820" lon="-8.322270">
        <ele>17.414</ele>
        <time>2016-09-22T14:17:56Z</time>
      </trkpt>
      <trkpt lat="43.486803" lon="-8.322421">
        <ele>17.054</ele>
        <time>2016-09-22T14:17:59Z</time>
      </trkpt>
      <trkpt lat="43.486779" lon="-8.322566">
        <ele>16.809</ele>
        <time>2016-09-22T14:18:02Z</time>
      </trkpt>
      <trkpt lat="43.486776" lon="-8.322895">
        <ele>17.408</ele>
        <time>2016-09-22T14:18:09Z</time>
      </trkpt>
      <trkpt lat="43.486728" lon="-8.322998">
        <ele>18.052</ele>
        <time>2016-09-22T14:18:13Z</time>
      </trkpt>
      <trkpt lat="43.486700" lon="-8.323049">
        <ele>18.646</ele>
        <time>2016-09-22T14:18:15Z</time>
      </trkpt>
      <trkpt lat="43.486659" lon="-8.323135">
        <ele>19.481</ele>
        <time>2016-09-22T14:18:18Z</time>
      </trkpt>
      <trkpt lat="43.486626" lon="-8.323215">
        <ele>19.819</ele>
        <time>2016-09-22T14:18:21Z</time>
      </trkpt>
      <trkpt lat="43.486588" lon="-8.323293">
        <ele>20.697</ele>
        <time>2016-09-22T14:18:24Z</time>
      </trkpt>
      <trkpt lat="43.486534" lon="-8.323441">
        <ele>21.487</ele>
        <time>2016-09-22T14:18:29Z</time>
      </trkpt>
      <trkpt lat="43.486523" lon="-8.323473">
        <ele>21.679</ele>
        <time>2016-09-22T14:18:30Z</time>
      </trkpt>
      <trkpt lat="43.486483" lon="-8.323568">
        <ele>22.631</ele>
        <time>2016-09-22T14:18:33Z</time>
      </trkpt>
      <trkpt lat="43.486453" lon="-8.323626">
        <ele>23.282</ele>
        <time>2016-09-22T14:18:35Z</time>
      </trkpt>
      <trkpt lat="43.486418" lon="-8.323707">
        <ele>23.843</ele>
        <time>2016-09-22T14:18:38Z</time>
      </trkpt>
      <trkpt lat="43.486398" lon="-8.323817">
        <ele>24.817</ele>
        <time>2016-09-22T14:18:42Z</time>
      </trkpt>
      <trkpt lat="43.486395" lon="-8.323843">
        <ele>25.008</ele>
        <time>2016-09-22T14:18:43Z</time>
      </trkpt>
      <trkpt lat="43.486351" lon="-8.324027">
        <ele>25.879</ele>
        <time>2016-09-22T14:18:49Z</time>
      </trkpt>
      <trkpt lat="43.486302" lon="-8.324132">
        <ele>26.083</ele>
        <time>2016-09-22T14:18:53Z</time>
      </trkpt>
      <trkpt lat="43.486288" lon="-8.324188">
        <ele>26.478</ele>
        <time>2016-09-22T14:18:56Z</time>
      </trkpt>
      <trkpt lat="43.486280" lon="-8.324208">
        <ele>26.676</ele>
        <time>2016-09-22T14:18:58Z</time>
      </trkpt>
      <trkpt lat="43.486263" lon="-8.324237">
        <ele>26.844</ele>
        <time>2016-09-22T14:19:01Z</time>
      </trkpt>
      <trkpt lat="43.486256" lon="-8.324285">
        <ele>26.664</ele>
        <time>2016-09-22T14:19:03Z</time>
      </trkpt>
      <trkpt lat="43.486254" lon="-8.324381">
        <ele>26.616</ele>
        <time>2016-09-22T14:19:06Z</time>
      </trkpt>
      <trkpt lat="43.486236" lon="-8.324467">
        <ele>26.298</ele>
        <time>2016-09-22T14:19:11Z</time>
      </trkpt>
      <trkpt lat="43.486127" lon="-8.324501">
        <ele>25.899</ele>
        <time>2016-09-22T14:19:17Z</time>
      </trkpt>
      <trkpt lat="43.486070" lon="-8.324546">
        <ele>25.207</ele>
        <time>2016-09-22T14:19:21Z</time>
      </trkpt>
      <trkpt lat="43.486066" lon="-8.324546">
        <ele>25.027</ele>
        <time>2016-09-22T14:19:22Z</time>
      </trkpt>
      <trkpt lat="43.486066" lon="-8.324547">
        <ele>24.808</ele>
        <time>2016-09-22T14:19:23Z</time>
      </trkpt>
      <trkpt lat="43.486093" lon="-8.324514">
        <ele>24.850</ele>
        <time>2016-09-22T14:20:36Z</time>
      </trkpt>
      <trkpt lat="43.486125" lon="-8.324492">
        <ele>24.894</ele>
        <time>2016-09-22T14:20:38Z</time>
      </trkpt>
      <trkpt lat="43.486228" lon="-8.324386">
        <ele>25.439</ele>
        <time>2016-09-22T14:20:45Z</time>
      </trkpt>
      <trkpt lat="43.486263" lon="-8.324232">
        <ele>25.827</ele>
        <time>2016-09-22T14:20:52Z</time>
      </trkpt>
      <trkpt lat="43.486254" lon="-8.324192">
        <ele>26.225</ele>
        <time>2016-09-22T14:20:54Z</time>
      </trkpt>
      <trkpt lat="43.486222" lon="-8.324145">
        <ele>26.625</ele>
        <time>2016-09-22T14:20:57Z</time>
      </trkpt>
      <trkpt lat="43.486175" lon="-8.324070">
        <ele>27.247</ele>
        <time>2016-09-22T14:21:02Z</time>
      </trkpt>
      <trkpt lat="43.486155" lon="-8.324044">
        <ele>27.429</ele>
        <time>2016-09-22T14:21:04Z</time>
      </trkpt>
      <trkpt lat="43.486084" lon="-8.323953">
        <ele>28.876</ele>
        <time>2016-09-22T14:21:11Z</time>
      </trkpt>
      <trkpt lat="43.486074" lon="-8.323941">
        <ele>29.090</ele>
        <time>2016-09-22T14:21:12Z</time>
      </trkpt>
      <trkpt lat="43.486038" lon="-8.323905">
        <ele>29.819</ele>
        <time>2016-09-22T14:21:16Z</time>
      </trkpt>
      <trkpt lat="43.486018" lon="-8.323892">
        <ele>30.008</ele>
        <time>2016-09-22T14:21:18Z</time>
      </trkpt>
      <trkpt lat="43.485989" lon="-8.323871">
        <ele>31.098</ele>
        <time>2016-09-22T14:21:21Z</time>
      </trkpt>
      <trkpt lat="43.485952" lon="-8.323857">
        <ele>32.022</ele>
        <time>2016-09-22T14:21:25Z</time>
      </trkpt>
      <trkpt lat="43.485892" lon="-8.323834">
        <ele>33.227</ele>
        <time>2016-09-22T14:21:31Z</time>
      </trkpt>
      <trkpt lat="43.485861" lon="-8.323826">
        <ele>33.655</ele>
        <time>2016-09-22T14:21:34Z</time>
      </trkpt>
      <trkpt lat="43.485828" lon="-8.323818">
        <ele>34.253</ele>
        <time>2016-09-22T14:21:37Z</time>
      </trkpt>
      <trkpt lat="43.485783" lon="-8.323787">
        <ele>35.213</ele>
        <time>2016-09-22T14:21:42Z</time>
      </trkpt>
      <trkpt lat="43.485727" lon="-8.323755">
        <ele>36.225</ele>
        <time>2016-09-22T14:21:48Z</time>
      </trkpt>
      <trkpt lat="43.485699" lon="-8.323752">
        <ele>37.267</ele>
        <time>2016-09-22T14:21:51Z</time>
      </trkpt>
      <trkpt lat="43.485640" lon="-8.323764">
        <ele>38.436</ele>
        <time>2016-09-22T14:21:57Z</time>
      </trkpt>
      <trkpt lat="43.485630" lon="-8.323765">
        <ele>38.617</ele>
        <time>2016-09-22T14:21:58Z</time>
      </trkpt>
      <trkpt lat="43.485609" lon="-8.323768">
        <ele>39.418</ele>
        <time>2016-09-22T14:22:00Z</time>
      </trkpt>
      <trkpt lat="43.485600" lon="-8.323768">
        <ele>39.808</ele>
        <time>2016-09-22T14:22:01Z</time>
      </trkpt>
      <trkpt lat="43.485562" lon="-8.323772">
        <ele>40.644</ele>
        <time>2016-09-22T14:22:05Z</time>
      </trkpt>
      <trkpt lat="43.485541" lon="-8.323774">
        <ele>41.048</ele>
        <time>2016-09-22T14:22:07Z</time>
      </trkpt>
      <trkpt lat="43.485495" lon="-8.323785">
        <ele>42.083</ele>
        <time>2016-09-22T14:22:12Z</time>
      </trkpt>
      <trkpt lat="43.485466" lon="-8.323798">
        <ele>42.671</ele>
        <time>2016-09-22T14:22:15Z</time>
      </trkpt>
      <trkpt lat="43.485437" lon="-8.323803">
        <ele>43.069</ele>
        <time>2016-09-22T14:22:18Z</time>
      </trkpt>
      <trkpt lat="43.485398" lon="-8.323804">
        <ele>44.279</ele>
        <time>2016-09-22T14:22:22Z</time>
      </trkpt>
      <trkpt lat="43.485388" lon="-8.323801">
        <ele>44.281</ele>
        <time>2016-09-22T14:22:23Z</time>
      </trkpt>
      <trkpt lat="43.485351" lon="-8.323794">
        <ele>45.233</ele>
        <time>2016-09-22T14:22:27Z</time>
      </trkpt>
      <trkpt lat="43.485309" lon="-8.323796">
        <ele>46.226</ele>
        <time>2016-09-22T14:22:31Z</time>
      </trkpt>
      <trkpt lat="43.485299" lon="-8.323797">
        <ele>46.447</ele>
        <time>2016-09-22T14:22:32Z</time>
      </trkpt>
      <trkpt lat="43.485276" lon="-8.323792">
        <ele>47.411</ele>
        <time>2016-09-22T14:22:35Z</time>
      </trkpt>
      <trkpt lat="43.485259" lon="-8.323793">
        <ele>47.808</ele>
        <time>2016-09-22T14:22:37Z</time>
      </trkpt>
      <trkpt lat="43.485229" lon="-8.323783">
        <ele>48.453</ele>
        <time>2016-09-22T14:22:40Z</time>
      </trkpt>
      <trkpt lat="43.485191" lon="-8.323755">
        <ele>49.487</ele>
        <time>2016-09-22T14:22:45Z</time>
      </trkpt>
      <trkpt lat="43.485185" lon="-8.323749">
        <ele>49.462</ele>
        <time>2016-09-22T14:22:46Z</time>
      </trkpt>
      <trkpt lat="43.485169" lon="-8.323738">
        <ele>50.270</ele>
        <time>2016-09-22T14:22:51Z</time>
      </trkpt>
      <trkpt lat="43.485140" lon="-8.323729">
        <ele>50.448</ele>
        <time>2016-09-22T14:22:55Z</time>
      </trkpt>
      <trkpt lat="43.485124" lon="-8.323714">
        <ele>50.888</ele>
        <time>2016-09-22T14:22:57Z</time>
      </trkpt>
      <trkpt lat="43.485102" lon="-8.323695">
        <ele>51.840</ele>
        <time>2016-09-22T14:23:00Z</time>
      </trkpt>
      <trkpt lat="43.485079" lon="-8.323680">
        <ele>52.842</ele>
        <time>2016-09-22T14:23:04Z</time>
      </trkpt>
      <trkpt lat="43.485056" lon="-8.323672">
        <ele>53.487</ele>
        <time>2016-09-22T14:23:07Z</time>
      </trkpt>
      <trkpt lat="43.485036" lon="-8.323658">
        <ele>54.042</ele>
        <time>2016-09-22T14:23:10Z</time>
      </trkpt>
      <trkpt lat="43.485001" lon="-8.323622">
        <ele>55.226</ele>
        <time>2016-09-22T14:23:16Z</time>
      </trkpt>
      <trkpt lat="43.484968" lon="-8.323580">
        <ele>56.408</ele>
        <time>2016-09-22T14:23:21Z</time>
      </trkpt>
      <trkpt lat="43.484954" lon="-8.323556">
        <ele>57.069</ele>
        <time>2016-09-22T14:23:24Z</time>
      </trkpt>
      <trkpt lat="43.484944" lon="-8.323530">
        <ele>57.063</ele>
        <time>2016-09-22T14:23:27Z</time>
      </trkpt>
      <trkpt lat="43.484930" lon="-8.323512">
        <ele>57.418</ele>
        <time>2016-09-22T14:23:30Z</time>
      </trkpt>
      <trkpt lat="43.484928" lon="-8.323501">
        <ele>57.686</ele>
        <time>2016-09-22T14:23:31Z</time>
      </trkpt>
      <trkpt lat="43.484928" lon="-8.323491">
        <ele>57.864</ele>
        <time>2016-09-22T14:23:32Z</time>
      </trkpt>
      <trkpt lat="43.484922" lon="-8.323465">
        <ele>58.884</ele>
        <time>2016-09-22T14:23:35Z</time>
      </trkpt>
      <trkpt lat="43.484904" lon="-8.323430">
        <ele>59.876</ele>
        <time>2016-09-22T14:23:40Z</time>
      </trkpt>
      <trkpt lat="43.484896" lon="-8.323416">
        <ele>60.238</ele>
        <time>2016-09-22T14:23:42Z</time>
      </trkpt>
      <trkpt lat="43.484877" lon="-8.323391">
        <ele>60.816</ele>
        <time>2016-09-22T14:23:46Z</time>
      </trkpt>
      <trkpt lat="43.484851" lon="-8.323371">
        <ele>61.476</ele>
        <time>2016-09-22T14:23:50Z</time>
      </trkpt>
      <trkpt lat="43.484837" lon="-8.323349">
        <ele>62.013</ele>
        <time>2016-09-22T14:23:53Z</time>
      </trkpt>
      <trkpt lat="43.484807" lon="-8.323307">
        <ele>62.808</ele>
        <time>2016-09-22T14:23:58Z</time>
      </trkpt>
      <trkpt lat="43.484801" lon="-8.323297">
        <ele>63.082</ele>
        <time>2016-09-22T14:23:59Z</time>
      </trkpt>
      <trkpt lat="43.484761" lon="-8.323251">
        <ele>64.016</ele>
        <time>2016-09-22T14:24:06Z</time>
      </trkpt>
      <trkpt lat="43.484756" lon="-8.323243">
        <ele>64.281</ele>
        <time>2016-09-22T14:24:07Z</time>
      </trkpt>
      <trkpt lat="43.484723" lon="-8.323212">
        <ele>65.449</ele>
        <time>2016-09-22T14:24:12Z</time>
      </trkpt>
      <trkpt lat="43.484707" lon="-8.323188">
        <ele>65.877</ele>
        <time>2016-09-22T14:24:15Z</time>
      </trkpt>
      <trkpt lat="43.484683" lon="-8.323156">
        <ele>66.637</ele>
        <time>2016-09-22T14:24:19Z</time>
      </trkpt>
      <trkpt lat="43.484655" lon="-8.323118">
        <ele>67.679</ele>
        <time>2016-09-22T14:24:24Z</time>
      </trkpt>
      <trkpt lat="43.484651" lon="-8.323110">
        <ele>67.611</ele>
        <time>2016-09-22T14:24:25Z</time>
      </trkpt>
      <trkpt lat="43.484628" lon="-8.323067">
        <ele>68.876</ele>
        <time>2016-09-22T14:24:30Z</time>
      </trkpt>
      <trkpt lat="43.484618" lon="-8.323052">
        <ele>69.090</ele>
        <time>2016-09-22T14:24:32Z</time>
      </trkpt>
      <trkpt lat="43.484592" lon="-8.323010">
        <ele>69.819</ele>
        <time>2016-09-22T14:24:37Z</time>
      </trkpt>
      <trkpt lat="43.484569" lon="-8.322984">
        <ele>70.608</ele>
        <time>2016-09-22T14:24:41Z</time>
      </trkpt>
      <trkpt lat="43.484553" lon="-8.322957">
        <ele>70.898</ele>
        <time>2016-09-22T14:24:44Z</time>
      </trkpt>
      <trkpt lat="43.484516" lon="-8.322919">
        <ele>71.632</ele>
        <time>2016-09-22T14:24:49Z</time>
      </trkpt>
      <trkpt lat="43.484507" lon="-8.322913">
        <ele>71.857</ele>
        <time>2016-09-22T14:24:50Z</time>
      </trkpt>
      <trkpt lat="43.484435" lon="-8.322909">
        <ele>72.875</ele>
        <time>2016-09-22T14:24:57Z</time>
      </trkpt>
      <trkpt lat="43.484421" lon="-8.322912">
        <ele>73.033</ele>
        <time>2016-09-22T14:24:58Z</time>
      </trkpt>
      <trkpt lat="43.484331" lon="-8.322961">
        <ele>73.093</ele>
        <time>2016-09-22T14:25:03Z</time>
      </trkpt>
      <trkpt lat="43.484231" lon="-8.323001">
        <ele>71.655</ele>
        <time>2016-09-22T14:25:07Z</time>
      </trkpt>
      <trkpt lat="43.484177" lon="-8.323027">
        <ele>71.287</ele>
        <time>2016-09-22T14:25:09Z</time>
      </trkpt>
      <trkpt lat="43.484126" lon="-8.323032">
        <ele>70.627</ele>
        <time>2016-09-22T14:25:11Z</time>
      </trkpt>
      <trkpt lat="43.484057" lon="-8.323020">
        <ele>70.068</ele>
        <time>2016-09-22T14:25:14Z</time>
      </trkpt>
      <trkpt lat="43.484001" lon="-8.323010">
        <ele>69.614</ele>
        <time>2016-09-22T14:25:16Z</time>
      </trkpt>
      <trkpt lat="43.483901" lon="-8.322998">
        <ele>69.008</ele>
        <time>2016-09-22T14:25:20Z</time>
      </trkpt>
      <trkpt lat="43.483810" lon="-8.322985">
        <ele>68.473</ele>
        <time>2016-09-22T14:25:23Z</time>
      </trkpt>
      <trkpt lat="43.483746" lon="-8.322958">
        <ele>67.617</ele>
        <time>2016-09-22T14:25:25Z</time>
      </trkpt>
      <trkpt lat="43.483672" lon="-8.322935">
        <ele>67.252</ele>
        <time>2016-09-22T14:25:27Z</time>
      </trkpt>
      <trkpt lat="43.483561" lon="-8.322946">
        <ele>66.220</ele>
        <time>2016-09-22T14:25:30Z</time>
      </trkpt>
      <trkpt lat="43.483475" lon="-8.322966">
        <ele>65.038</ele>
        <time>2016-09-22T14:25:32Z</time>
      </trkpt>
      <trkpt lat="43.483425" lon="-8.322985">
        <ele>64.498</ele>
        <time>2016-09-22T14:25:33Z</time>
      </trkpt>
      <trkpt lat="43.483373" lon="-8.323010">
        <ele>63.880</ele>
        <time>2016-09-22T14:25:34Z</time>
      </trkpt>
      <trkpt lat="43.483274" lon="-8.323083">
        <ele>62.862</ele>
        <time>2016-09-22T14:25:36Z</time>
      </trkpt>
      <trkpt lat="43.483195" lon="-8.323185">
        <ele>62.022</ele>
        <time>2016-09-22T14:25:38Z</time>
      </trkpt>
      <trkpt lat="43.483167" lon="-8.323227">
        <ele>61.462</ele>
        <time>2016-09-22T14:25:39Z</time>
      </trkpt>
      <trkpt lat="43.483108" lon="-8.323322">
        <ele>60.808</ele>
        <time>2016-09-22T14:25:42Z</time>
      </trkpt>
      <trkpt lat="43.483064" lon="-8.323382">
        <ele>60.008</ele>
        <time>2016-09-22T14:25:44Z</time>
      </trkpt>
      <trkpt lat="43.483007" lon="-8.323429">
        <ele>59.033</ele>
        <time>2016-09-22T14:25:46Z</time>
      </trkpt>
      <trkpt lat="43.482973" lon="-8.323446">
        <ele>58.887</ele>
        <time>2016-09-22T14:25:47Z</time>
      </trkpt>
      <trkpt lat="43.482860" lon="-8.323469">
        <ele>57.892</ele>
        <time>2016-09-22T14:25:50Z</time>
      </trkpt>
      <trkpt lat="43.482791" lon="-8.323471">
        <ele>57.410</ele>
        <time>2016-09-22T14:25:52Z</time>
      </trkpt>
      <trkpt lat="43.482689" lon="-8.323478">
        <ele>56.898</ele>
        <time>2016-09-22T14:25:55Z</time>
      </trkpt>
      <trkpt lat="43.482601" lon="-8.323500">
        <ele>56.678</ele>
        <time>2016-09-22T14:25:58Z</time>
      </trkpt>
      <trkpt lat="43.482433" lon="-8.323603">
        <ele>55.830</ele>
        <time>2016-09-22T14:26:05Z</time>
      </trkpt>
      <trkpt lat="43.482366" lon="-8.323764">
        <ele>56.042</ele>
        <time>2016-09-22T14:26:10Z</time>
      </trkpt>
      <trkpt lat="43.482366" lon="-8.323956">
        <ele>56.018</ele>
        <time>2016-09-22T14:26:14Z</time>
      </trkpt>
      <trkpt lat="43.482378" lon="-8.324012">
        <ele>55.898</ele>
        <time>2016-09-22T14:26:15Z</time>
      </trkpt>
      <trkpt lat="43.482391" lon="-8.324070">
        <ele>55.617</ele>
        <time>2016-09-22T14:26:16Z</time>
      </trkpt>
      <trkpt lat="43.482422" lon="-8.324190">
        <ele>55.008</ele>
        <time>2016-09-22T14:26:18Z</time>
      </trkpt>
      <trkpt lat="43.482439" lon="-8.324379">
        <ele>54.692</ele>
        <time>2016-09-22T14:26:21Z</time>
      </trkpt>
      <trkpt lat="43.482432" lon="-8.324440">
        <ele>54.676</ele>
        <time>2016-09-22T14:26:22Z</time>
      </trkpt>
      <trkpt lat="43.482413" lon="-8.324591">
        <ele>54.621</ele>
        <time>2016-09-22T14:26:25Z</time>
      </trkpt>
      <trkpt lat="43.482384" lon="-8.324883">
        <ele>53.649</ele>
        <time>2016-09-22T14:26:31Z</time>
      </trkpt>
      <trkpt lat="43.482302" lon="-8.325143">
        <ele>53.087</ele>
        <time>2016-09-22T14:26:37Z</time>
      </trkpt>
      <trkpt lat="43.482179" lon="-8.325292">
        <ele>53.257</ele>
        <time>2016-09-22T14:26:43Z</time>
      </trkpt>
      <trkpt lat="43.482007" lon="-8.325462">
        <ele>54.449</ele>
        <time>2016-09-22T14:26:50Z</time>
      </trkpt>
      <trkpt lat="43.481803" lon="-8.325633">
        <ele>53.251</ele>
        <time>2016-09-22T14:26:55Z</time>
      </trkpt>
      <trkpt lat="43.481710" lon="-8.325655">
        <ele>52.429</ele>
        <time>2016-09-22T14:26:57Z</time>
      </trkpt>
      <trkpt lat="43.481620" lon="-8.325657">
        <ele>52.000</ele>
        <time>2016-09-22T14:26:59Z</time>
      </trkpt>
      <trkpt lat="43.481579" lon="-8.325659">
        <ele>51.820</ele>
        <time>2016-09-22T14:27:00Z</time>
      </trkpt>
      <trkpt lat="43.481480" lon="-8.325692">
        <ele>51.408</ele>
        <time>2016-09-22T14:27:03Z</time>
      </trkpt>
      <trkpt lat="43.481456" lon="-8.325707">
        <ele>51.223</ele>
        <time>2016-09-22T14:27:04Z</time>
      </trkpt>
      <trkpt lat="43.481290" lon="-8.325736">
        <ele>52.437</ele>
        <time>2016-09-22T14:27:11Z</time>
      </trkpt>
      <trkpt lat="43.481200" lon="-8.325753">
        <ele>53.492</ele>
        <time>2016-09-22T14:27:15Z</time>
      </trkpt>
      <trkpt lat="43.481116" lon="-8.325778">
        <ele>53.830</ele>
        <time>2016-09-22T14:27:18Z</time>
      </trkpt>
      <trkpt lat="43.480987" lon="-8.325818">
        <ele>52.868</ele>
        <time>2016-09-22T14:27:23Z</time>
      </trkpt>
      <trkpt lat="43.480957" lon="-8.325856">
        <ele>52.868</ele>
        <time>2016-09-22T14:27:28Z</time>
      </trkpt>
      <trkpt lat="43.480952" lon="-8.326029">
        <ele>52.850</ele>
        <time>2016-09-22T14:28:14Z</time>
      </trkpt>
      <trkpt lat="43.480955" lon="-8.326094">
        <ele>53.062</ele>
        <time>2016-09-22T14:28:17Z</time>
      </trkpt>
      <trkpt lat="43.480945" lon="-8.326249">
        <ele>53.661</ele>
        <time>2016-09-22T14:28:24Z</time>
      </trkpt>
      <trkpt lat="43.480919" lon="-8.326382">
        <ele>53.821</ele>
        <time>2016-09-22T14:28:30Z</time>
      </trkpt>
      <trkpt lat="43.480892" lon="-8.326581">
        <ele>54.413</ele>
        <time>2016-09-22T14:28:37Z</time>
      </trkpt>
      <trkpt lat="43.480888" lon="-8.326634">
        <ele>54.608</ele>
        <time>2016-09-22T14:28:39Z</time>
      </trkpt>
      <trkpt lat="43.480877" lon="-8.326757">
        <ele>55.457</ele>
        <time>2016-09-22T14:28:43Z</time>
      </trkpt>
      <trkpt lat="43.480869" lon="-8.326838">
        <ele>55.621</ele>
        <time>2016-09-22T14:28:46Z</time>
      </trkpt>
      <trkpt lat="43.480861" lon="-8.327047">
        <ele>56.466</ele>
        <time>2016-09-22T14:28:53Z</time>
      </trkpt>
      <trkpt lat="43.480858" lon="-8.327133">
        <ele>56.664</ele>
        <time>2016-09-22T14:28:56Z</time>
      </trkpt>
      <trkpt lat="43.480827" lon="-8.327388">
        <ele>57.232</ele>
        <time>2016-09-22T14:29:05Z</time>
      </trkpt>
      <trkpt lat="43.480812" lon="-8.327458">
        <ele>57.662</ele>
        <time>2016-09-22T14:29:08Z</time>
      </trkpt>
      <trkpt lat="43.480807" lon="-8.327546">
        <ele>58.264</ele>
        <time>2016-09-22T14:29:12Z</time>
      </trkpt>
      <trkpt lat="43.480802" lon="-8.327594">
        <ele>58.686</ele>
        <time>2016-09-22T14:29:14Z</time>
      </trkpt>
      <trkpt lat="43.480763" lon="-8.327793">
        <ele>58.851</ele>
        <time>2016-09-22T14:29:22Z</time>
      </trkpt>
      <trkpt lat="43.480690" lon="-8.327986">
        <ele>59.401</ele>
        <time>2016-09-22T14:29:30Z</time>
      </trkpt>
      <trkpt lat="43.480612" lon="-8.328106">
        <ele>59.611</ele>
        <time>2016-09-22T14:29:36Z</time>
      </trkpt>
      <trkpt lat="43.480552" lon="-8.328163">
        <ele>60.608</ele>
        <time>2016-09-22T14:29:41Z</time>
      </trkpt>
      <trkpt lat="43.480539" lon="-8.328175">
        <ele>60.696</ele>
        <time>2016-09-22T14:29:42Z</time>
      </trkpt>
      <trkpt lat="43.480435" lon="-8.328298">
        <ele>61.460</ele>
        <time>2016-09-22T14:29:49Z</time>
      </trkpt>
      <trkpt lat="43.480418" lon="-8.328315">
        <ele>61.675</ele>
        <time>2016-09-22T14:29:50Z</time>
      </trkpt>
      <trkpt lat="43.480306" lon="-8.328418">
        <ele>61.813</ele>
        <time>2016-09-22T14:29:56Z</time>
      </trkpt>
      <trkpt lat="43.480189" lon="-8.328486">
        <ele>62.871</ele>
        <time>2016-09-22T14:30:02Z</time>
      </trkpt>
      <trkpt lat="43.480168" lon="-8.328495">
        <ele>63.061</ele>
        <time>2016-09-22T14:30:03Z</time>
      </trkpt>
      <trkpt lat="43.480111" lon="-8.328518">
        <ele>63.213</ele>
        <time>2016-09-22T14:30:06Z</time>
      </trkpt>
      <trkpt lat="43.480055" lon="-8.328544">
        <ele>63.625</ele>
        <time>2016-09-22T14:30:09Z</time>
      </trkpt>
      <trkpt lat="43.480016" lon="-8.328553">
        <ele>63.842</ele>
        <time>2016-09-22T14:30:11Z</time>
      </trkpt>
      <trkpt lat="43.479947" lon="-8.328590">
        <ele>64.022</ele>
        <time>2016-09-22T14:30:15Z</time>
      </trkpt>
      <trkpt lat="43.479842" lon="-8.328636">
        <ele>64.414</ele>
        <time>2016-09-22T14:30:21Z</time>
      </trkpt>
      <trkpt lat="43.479742" lon="-8.328648">
        <ele>64.808</ele>
        <time>2016-09-22T14:30:27Z</time>
      </trkpt>
      <trkpt lat="43.479710" lon="-8.328656">
        <ele>65.065</ele>
        <time>2016-09-22T14:30:29Z</time>
      </trkpt>
      <trkpt lat="43.479597" lon="-8.328687">
        <ele>65.299</ele>
        <time>2016-09-22T14:30:35Z</time>
      </trkpt>
      <trkpt lat="43.479470" lon="-8.328798">
        <ele>65.454</ele>
        <time>2016-09-22T14:30:42Z</time>
      </trkpt>
      <trkpt lat="43.479315" lon="-8.328984">
        <ele>64.292</ele>
        <time>2016-09-22T14:30:49Z</time>
      </trkpt>
      <trkpt lat="43.479235" lon="-8.329024">
        <ele>63.850</ele>
        <time>2016-09-22T14:30:53Z</time>
      </trkpt>
      <trkpt lat="43.479219" lon="-8.329032">
        <ele>63.890</ele>
        <time>2016-09-22T14:30:54Z</time>
      </trkpt>
      <trkpt lat="43.479182" lon="-8.329075">
        <ele>63.452</ele>
        <time>2016-09-22T14:31:00Z</time>
      </trkpt>
      <trkpt lat="43.479181" lon="-8.329072">
        <ele>63.014</ele>
        <time>2016-09-22T14:31:02Z</time>
      </trkpt>
      <trkpt lat="43.479090" lon="-8.329584">
        <ele>67.612</ele>
        <time>2016-09-22T14:32:27Z</time>
      </trkpt>
      <trkpt lat="43.479084" lon="-8.329619">
        <ele>67.632</ele>
        <time>2016-09-22T14:32:29Z</time>
      </trkpt>
      <trkpt lat="43.479083" lon="-8.329655">
        <ele>67.805</ele>
        <time>2016-09-22T14:32:31Z</time>
      </trkpt>
      <trkpt lat="43.479080" lon="-8.329766">
        <ele>68.408</ele>
        <time>2016-09-22T14:32:36Z</time>
      </trkpt>
      <trkpt lat="43.479079" lon="-8.329816">
        <ele>69.092</ele>
        <time>2016-09-22T14:32:38Z</time>
      </trkpt>
      <trkpt lat="43.479091" lon="-8.329933">
        <ele>69.896</ele>
        <time>2016-09-22T14:32:43Z</time>
      </trkpt>
      <trkpt lat="43.479091" lon="-8.329953">
        <ele>70.011</ele>
        <time>2016-09-22T14:32:44Z</time>
      </trkpt>
      <trkpt lat="43.479100" lon="-8.330043">
        <ele>70.879</ele>
        <time>2016-09-22T14:32:49Z</time>
      </trkpt>
      <trkpt lat="43.479104" lon="-8.330062">
        <ele>71.047</ele>
        <time>2016-09-22T14:32:50Z</time>
      </trkpt>
      <trkpt lat="43.479127" lon="-8.330170">
        <ele>71.817</ele>
        <time>2016-09-22T14:32:56Z</time>
      </trkpt>
      <trkpt lat="43.479134" lon="-8.330204">
        <ele>72.249</ele>
        <time>2016-09-22T14:32:58Z</time>
      </trkpt>
      <trkpt lat="43.479148" lon="-8.330266">
        <ele>73.271</ele>
        <time>2016-09-22T14:33:01Z</time>
      </trkpt>
      <trkpt lat="43.479151" lon="-8.330284">
        <ele>73.447</ele>
        <time>2016-09-22T14:33:02Z</time>
      </trkpt>
      <trkpt lat="43.479165" lon="-8.330417">
        <ele>74.029</ele>
        <time>2016-09-22T14:33:08Z</time>
      </trkpt>
      <trkpt lat="43.479174" lon="-8.330471">
        <ele>74.621</ele>
        <time>2016-09-22T14:33:11Z</time>
      </trkpt>
      <trkpt lat="43.479173" lon="-8.330543">
        <ele>75.208</ele>
        <time>2016-09-22T14:33:15Z</time>
      </trkpt>
      <trkpt lat="43.479172" lon="-8.330578">
        <ele>75.615</ele>
        <time>2016-09-22T14:33:17Z</time>
      </trkpt>
      <trkpt lat="43.479177" lon="-8.330655">
        <ele>76.449</ele>
        <time>2016-09-22T14:33:21Z</time>
      </trkpt>
      <trkpt lat="43.479178" lon="-8.330690">
        <ele>76.684</ele>
        <time>2016-09-22T14:33:24Z</time>
      </trkpt>
      <trkpt lat="43.479182" lon="-8.330725">
        <ele>77.012</ele>
        <time>2016-09-22T14:33:26Z</time>
      </trkpt>
      <trkpt lat="43.479176" lon="-8.330857">
        <ele>77.840</ele>
        <time>2016-09-22T14:33:32Z</time>
      </trkpt>
      <trkpt lat="43.479169" lon="-8.330903">
        <ele>78.250</ele>
        <time>2016-09-22T14:33:34Z</time>
      </trkpt>
      <trkpt lat="43.479156" lon="-8.331008">
        <ele>79.032</ele>
        <time>2016-09-22T14:33:39Z</time>
      </trkpt>
      <trkpt lat="43.479146" lon="-8.331075">
        <ele>79.654</ele>
        <time>2016-09-22T14:33:42Z</time>
      </trkpt>
      <trkpt lat="43.479139" lon="-8.331146">
        <ele>80.067</ele>
        <time>2016-09-22T14:33:45Z</time>
      </trkpt>
      <trkpt lat="43.479108" lon="-8.331290">
        <ele>81.081</ele>
        <time>2016-09-22T14:33:51Z</time>
      </trkpt>
      <trkpt lat="43.479104" lon="-8.331315">
        <ele>81.019</ele>
        <time>2016-09-22T14:33:52Z</time>
      </trkpt>
      <trkpt lat="43.479071" lon="-8.331441">
        <ele>82.208</ele>
        <time>2016-09-22T14:33:58Z</time>
      </trkpt>
      <trkpt lat="43.479053" lon="-8.331495">
        <ele>82.617</ele>
        <time>2016-09-22T14:34:03Z</time>
      </trkpt>
      <trkpt lat="43.479033" lon="-8.331523">
        <ele>83.211</ele>
        <time>2016-09-22T14:34:06Z</time>
      </trkpt>
      <trkpt lat="43.478998" lon="-8.331556">
        <ele>84.686</ele>
        <time>2016-09-22T14:34:11Z</time>
      </trkpt>
      <trkpt lat="43.478987" lon="-8.331570">
        <ele>85.254</ele>
        <time>2016-09-22T14:34:13Z</time>
      </trkpt>
      <trkpt lat="43.478977" lon="-8.331588">
        <ele>85.832</ele>
        <time>2016-09-22T14:34:15Z</time>
      </trkpt>
      <trkpt lat="43.478957" lon="-8.331632">
        <ele>87.072</ele>
        <time>2016-09-22T14:34:19Z</time>
      </trkpt>
      <trkpt lat="43.478943" lon="-8.331650">
        <ele>87.284</ele>
        <time>2016-09-22T14:34:21Z</time>
      </trkpt>
      <trkpt lat="43.478904" lon="-8.331676">
        <ele>88.036</ele>
        <time>2016-09-22T14:34:26Z</time>
      </trkpt>
      <trkpt lat="43.478886" lon="-8.331717">
        <ele>89.053</ele>
        <time>2016-09-22T14:34:30Z</time>
      </trkpt>
      <trkpt lat="43.478837" lon="-8.331783">
        <ele>90.204</ele>
        <time>2016-09-22T14:34:37Z</time>
      </trkpt>
      <trkpt lat="43.478829" lon="-8.331804">
        <ele>90.214</ele>
        <time>2016-09-22T14:34:39Z</time>
      </trkpt>
      <trkpt lat="43.478806" lon="-8.331889">
        <ele>90.808</ele>
        <time>2016-09-22T14:34:46Z</time>
      </trkpt>
      <trkpt lat="43.478800" lon="-8.332039">
        <ele>90.226</ele>
        <time>2016-09-22T14:34:51Z</time>
      </trkpt>
      <trkpt lat="43.478745" lon="-8.332135">
        <ele>88.650</ele>
        <time>2016-09-22T14:34:54Z</time>
      </trkpt>
      <trkpt lat="43.478720" lon="-8.332160">
        <ele>88.255</ele>
        <time>2016-09-22T14:34:55Z</time>
      </trkpt>
      <trkpt lat="43.478647" lon="-8.332239">
        <ele>87.693</ele>
        <time>2016-09-22T14:34:59Z</time>
      </trkpt>
      <trkpt lat="43.478598" lon="-8.332297">
        <ele>87.231</ele>
        <time>2016-09-22T14:35:02Z</time>
      </trkpt>
      <trkpt lat="43.478549" lon="-8.332358">
        <ele>86.441</ele>
        <time>2016-09-22T14:35:05Z</time>
      </trkpt>
      <trkpt lat="43.478514" lon="-8.332383">
        <ele>85.663</ele>
        <time>2016-09-22T14:35:07Z</time>
      </trkpt>
      <trkpt lat="43.478495" lon="-8.332389">
        <ele>85.055</ele>
        <time>2016-09-22T14:35:08Z</time>
      </trkpt>
      <trkpt lat="43.478477" lon="-8.332399">
        <ele>84.687</ele>
        <time>2016-09-22T14:35:09Z</time>
      </trkpt>
      <trkpt lat="43.478435" lon="-8.332462">
        <ele>83.442</ele>
        <time>2016-09-22T14:35:12Z</time>
      </trkpt>
      <trkpt lat="43.478390" lon="-8.332488">
        <ele>82.826</ele>
        <time>2016-09-22T14:35:14Z</time>
      </trkpt>
      <trkpt lat="43.478369" lon="-8.332497">
        <ele>82.408</ele>
        <time>2016-09-22T14:35:15Z</time>
      </trkpt>
      <trkpt lat="43.478295" lon="-8.332525">
        <ele>81.069</ele>
        <time>2016-09-22T14:35:18Z</time>
      </trkpt>
      <trkpt lat="43.478220" lon="-8.332546">
        <ele>79.613</ele>
        <time>2016-09-22T14:35:21Z</time>
      </trkpt>
      <trkpt lat="43.478140" lon="-8.332567">
        <ele>78.268</ele>
        <time>2016-09-22T14:35:24Z</time>
      </trkpt>
      <trkpt lat="43.478113" lon="-8.332577">
        <ele>77.836</ele>
        <time>2016-09-22T14:35:25Z</time>
      </trkpt>
      <trkpt lat="43.478088" lon="-8.332595">
        <ele>77.444</ele>
        <time>2016-09-22T14:35:26Z</time>
      </trkpt>
      <trkpt lat="43.478070" lon="-8.332625">
        <ele>76.634</ele>
        <time>2016-09-22T14:35:27Z</time>
      </trkpt>
      <trkpt lat="43.478032" lon="-8.332676">
        <ele>75.676</ele>
        <time>2016-09-22T14:35:29Z</time>
      </trkpt>
      <trkpt lat="43.477979" lon="-8.332704">
        <ele>74.238</ele>
        <time>2016-09-22T14:35:31Z</time>
      </trkpt>
      <trkpt lat="43.477935" lon="-8.332748">
        <ele>73.458</ele>
        <time>2016-09-22T14:35:33Z</time>
      </trkpt>
      <trkpt lat="43.477917" lon="-8.332775">
        <ele>73.252</ele>
        <time>2016-09-22T14:35:34Z</time>
      </trkpt>
      <trkpt lat="43.477889" lon="-8.332850">
        <ele>71.817</ele>
        <time>2016-09-22T14:35:36Z</time>
      </trkpt>
      <trkpt lat="43.477869" lon="-8.332913">
        <ele>70.608</ele>
        <time>2016-09-22T14:35:38Z</time>
      </trkpt>
      <trkpt lat="43.477825" lon="-8.332978">
        <ele>69.656</ele>
        <time>2016-09-22T14:35:41Z</time>
      </trkpt>
      <trkpt lat="43.477794" lon="-8.332998">
        <ele>69.420</ele>
        <time>2016-09-22T14:35:42Z</time>
      </trkpt>
      <trkpt lat="43.477721" lon="-8.333040">
        <ele>68.245</ele>
        <time>2016-09-22T14:35:44Z</time>
      </trkpt>
      <trkpt lat="43.477680" lon="-8.333058">
        <ele>67.053</ele>
        <time>2016-09-22T14:35:45Z</time>
      </trkpt>
      <trkpt lat="43.477634" lon="-8.333068">
        <ele>66.211</ele>
        <time>2016-09-22T14:35:46Z</time>
      </trkpt>
      <trkpt lat="43.477586" lon="-8.333065">
        <ele>65.861</ele>
        <time>2016-09-22T14:35:47Z</time>
      </trkpt>
      <trkpt lat="43.477451" lon="-8.333031">
        <ele>64.053</ele>
        <time>2016-09-22T14:35:50Z</time>
      </trkpt>
      <trkpt lat="43.477366" lon="-8.333004">
        <ele>63.065</ele>
        <time>2016-09-22T14:35:52Z</time>
      </trkpt>
      <trkpt lat="43.477324" lon="-8.332987">
        <ele>62.839</ele>
        <time>2016-09-22T14:35:53Z</time>
      </trkpt>
      <trkpt lat="43.477237" lon="-8.332983">
        <ele>61.601</ele>
        <time>2016-09-22T14:35:56Z</time>
      </trkpt>
      <trkpt lat="43.477217" lon="-8.332983">
        <ele>61.421</ele>
        <time>2016-09-22T14:35:57Z</time>
      </trkpt>
      <trkpt lat="43.477126" lon="-8.332968">
        <ele>60.608</ele>
        <time>2016-09-22T14:36:04Z</time>
      </trkpt>
      <trkpt lat="43.477105" lon="-8.332965">
        <ele>60.444</ele>
        <time>2016-09-22T14:36:19Z</time>
      </trkpt>
      <trkpt lat="43.477067" lon="-8.332947">
        <ele>60.678</ele>
        <time>2016-09-22T14:36:22Z</time>
      </trkpt>
      <trkpt lat="43.476934" lon="-8.332875">
        <ele>61.243</ele>
        <time>2016-09-22T14:36:30Z</time>
      </trkpt>
      <trkpt lat="43.476903" lon="-8.332859">
        <ele>61.671</ele>
        <time>2016-09-22T14:36:32Z</time>
      </trkpt>
      <trkpt lat="43.476858" lon="-8.332843">
        <ele>62.639</ele>
        <time>2016-09-22T14:36:35Z</time>
      </trkpt>
      <trkpt lat="43.476817" lon="-8.332817">
        <ele>63.029</ele>
        <time>2016-09-22T14:36:38Z</time>
      </trkpt>
      <trkpt lat="43.476739" lon="-8.332775">
        <ele>63.851</ele>
        <time>2016-09-22T14:36:44Z</time>
      </trkpt>
      <trkpt lat="43.476700" lon="-8.332777">
        <ele>64.443</ele>
        <time>2016-09-22T14:36:47Z</time>
      </trkpt>
      <trkpt lat="43.476675" lon="-8.332787">
        <ele>64.898</ele>
        <time>2016-09-22T14:36:49Z</time>
      </trkpt>
      <trkpt lat="43.476645" lon="-8.332805">
        <ele>65.815</ele>
        <time>2016-09-22T14:36:53Z</time>
      </trkpt>
      <trkpt lat="43.476638" lon="-8.332804">
        <ele>65.826</ele>
        <time>2016-09-22T14:36:54Z</time>
      </trkpt>
      <trkpt lat="43.476633" lon="-8.332802">
        <ele>66.008</ele>
        <time>2016-09-22T14:36:57Z</time>
      </trkpt>
      <trkpt lat="43.476678" lon="-8.332787">
        <ele>66.040</ele>
        <time>2016-09-22T14:37:26Z</time>
      </trkpt>
      <trkpt lat="43.476699" lon="-8.332777">
        <ele>65.844</ele>
        <time>2016-09-22T14:37:27Z</time>
      </trkpt>
      <trkpt lat="43.476817" lon="-8.332807">
        <ele>64.699</ele>
        <time>2016-09-22T14:37:31Z</time>
      </trkpt>
      <trkpt lat="43.476907" lon="-8.332851">
        <ele>63.817</ele>
        <time>2016-09-22T14:37:34Z</time>
      </trkpt>
      <trkpt lat="43.476937" lon="-8.332864">
        <ele>63.645</ele>
        <time>2016-09-22T14:37:35Z</time>
      </trkpt>
      <trkpt lat="43.477018" lon="-8.332906">
        <ele>62.685</ele>
        <time>2016-09-22T14:37:38Z</time>
      </trkpt>
      <trkpt lat="43.477043" lon="-8.332917">
        <ele>62.247</ele>
        <time>2016-09-22T14:37:39Z</time>
      </trkpt>
      <trkpt lat="43.477121" lon="-8.332960">
        <ele>61.269</ele>
        <time>2016-09-22T14:37:44Z</time>
      </trkpt>
      <trkpt lat="43.477141" lon="-8.332980">
        <ele>60.825</ele>
        <time>2016-09-22T14:37:47Z</time>
      </trkpt>
      <trkpt lat="43.477153" lon="-8.333015">
        <ele>60.626</ele>
        <time>2016-09-22T14:37:49Z</time>
      </trkpt>
      <trkpt lat="43.477229" lon="-8.333149">
        <ele>60.408</ele>
        <time>2016-09-22T14:37:54Z</time>
      </trkpt>
      <trkpt lat="43.477261" lon="-8.333225">
        <ele>59.608</ele>
        <time>2016-09-22T14:37:56Z</time>
      </trkpt>
      <trkpt lat="43.477287" lon="-8.333293">
        <ele>58.683</ele>
        <time>2016-09-22T14:37:58Z</time>
      </trkpt>
      <trkpt lat="43.477302" lon="-8.333318">
        <ele>58.497</ele>
        <time>2016-09-22T14:37:59Z</time>
      </trkpt>
      <trkpt lat="43.477407" lon="-8.333452">
        <ele>57.872</ele>
        <time>2016-09-22T14:38:06Z</time>
      </trkpt>
      <trkpt lat="43.477448" lon="-8.333496">
        <ele>57.440</ele>
        <time>2016-09-22T14:38:09Z</time>
      </trkpt>
      <trkpt lat="43.477461" lon="-8.333530">
        <ele>57.018</ele>
        <time>2016-09-22T14:38:11Z</time>
      </trkpt>
      <trkpt lat="43.477501" lon="-8.333590">
        <ele>56.458</ele>
        <time>2016-09-22T14:38:17Z</time>
      </trkpt>
      <trkpt lat="43.477464" lon="-8.333628">
        <ele>56.040</ele>
        <time>2016-09-22T14:38:21Z</time>
      </trkpt>
      <trkpt lat="43.477465" lon="-8.333608">
        <ele>55.692</ele>
        <time>2016-09-22T14:38:25Z</time>
      </trkpt>
      <trkpt lat="43.477463" lon="-8.333543">
        <ele>56.073</ele>
        <time>2016-09-22T14:38:32Z</time>
      </trkpt>
      <trkpt lat="43.477408" lon="-8.333453">
        <ele>56.885</ele>
        <time>2016-09-22T14:38:38Z</time>
      </trkpt>
      <trkpt lat="43.477396" lon="-8.333443">
        <ele>57.013</ele>
        <time>2016-09-22T14:38:39Z</time>
      </trkpt>
      <trkpt lat="43.477319" lon="-8.333359">
        <ele>57.408</ele>
        <time>2016-09-22T14:38:46Z</time>
      </trkpt>
      <trkpt lat="43.477310" lon="-8.333343">
        <ele>57.638</ele>
        <time>2016-09-22T14:38:47Z</time>
      </trkpt>
      <trkpt lat="43.477245" lon="-8.333207">
        <ele>58.292</ele>
        <time>2016-09-22T14:38:55Z</time>
      </trkpt>
      <trkpt lat="43.477218" lon="-8.333142">
        <ele>58.497</ele>
        <time>2016-09-22T14:38:59Z</time>
      </trkpt>
      <trkpt lat="43.477179" lon="-8.333076">
        <ele>59.455</ele>
        <time>2016-09-22T14:39:04Z</time>
      </trkpt>
      <trkpt lat="43.477173" lon="-8.333062">
        <ele>59.663</ele>
        <time>2016-09-22T14:39:05Z</time>
      </trkpt>
      <trkpt lat="43.477124" lon="-8.332975">
        <ele>60.493</ele>
        <time>2016-09-22T14:39:12Z</time>
      </trkpt>
      <trkpt lat="43.477115" lon="-8.332965">
        <ele>60.645</ele>
        <time>2016-09-22T14:39:13Z</time>
      </trkpt>
      <trkpt lat="43.477060" lon="-8.332919">
        <ele>61.037</ele>
        <time>2016-09-22T14:39:19Z</time>
      </trkpt>
      <trkpt lat="43.477057" lon="-8.332903">
        <ele>61.068</ele>
        <time>2016-09-22T14:39:20Z</time>
      </trkpt>
      <trkpt lat="43.477069" lon="-8.332807">
        <ele>61.042</ele>
        <time>2016-09-22T14:39:26Z</time>
      </trkpt>
      <trkpt lat="43.477056" lon="-8.332731">
        <ele>61.226</ele>
        <time>2016-09-22T14:39:34Z</time>
      </trkpt>
      <trkpt lat="43.477052" lon="-8.332726">
        <ele>61.208</ele>
        <time>2016-09-22T14:39:36Z</time>
      </trkpt>
      <trkpt lat="43.477055" lon="-8.332776">
        <ele>61.457</ele>
        <time>2016-09-22T14:39:46Z</time>
      </trkpt>
      <trkpt lat="43.477059" lon="-8.332797">
        <ele>61.471</ele>
        <time>2016-09-22T14:39:47Z</time>
      </trkpt>
      <trkpt lat="43.477059" lon="-8.332905">
        <ele>60.876</ele>
        <time>2016-09-22T14:39:53Z</time>
      </trkpt>
      <trkpt lat="43.477057" lon="-8.332915">
        <ele>60.684</ele>
        <time>2016-09-22T14:39:54Z</time>
      </trkpt>
      <trkpt lat="43.477037" lon="-8.332925">
        <ele>60.472</ele>
        <time>2016-09-22T14:39:57Z</time>
      </trkpt>
      <trkpt lat="43.476944" lon="-8.332881">
        <ele>61.252</ele>
        <time>2016-09-22T14:40:04Z</time>
      </trkpt>
      <trkpt lat="43.476849" lon="-8.332836">
        <ele>62.444</ele>
        <time>2016-09-22T14:40:11Z</time>
      </trkpt>
      <trkpt lat="43.476810" lon="-8.332812">
        <ele>62.886</ele>
        <time>2016-09-22T14:40:14Z</time>
      </trkpt>
      <trkpt lat="43.476748" lon="-8.332779">
        <ele>63.459</ele>
        <time>2016-09-22T14:40:19Z</time>
      </trkpt>
      <trkpt lat="43.476739" lon="-8.332774">
        <ele>63.603</ele>
        <time>2016-09-22T14:40:20Z</time>
      </trkpt>
      <trkpt lat="43.476727" lon="-8.332775">
        <ele>64.023</ele>
        <time>2016-09-22T14:40:21Z</time>
      </trkpt>
      <trkpt lat="43.476669" lon="-8.332800">
        <ele>64.608</ele>
        <time>2016-09-22T14:40:26Z</time>
      </trkpt>
      <trkpt lat="43.476648" lon="-8.332811">
        <ele>65.476</ele>
        <time>2016-09-22T14:40:28Z</time>
      </trkpt>
      <trkpt lat="43.476627" lon="-8.332818">
        <ele>65.860</ele>
        <time>2016-09-22T14:40:30Z</time>
      </trkpt>
      <trkpt lat="43.476593" lon="-8.332823">
        <ele>66.625</ele>
        <time>2016-09-22T14:40:35Z</time>
      </trkpt>
      <trkpt lat="43.476575" lon="-8.332825">
        <ele>66.833</ele>
        <time>2016-09-22T14:40:37Z</time>
      </trkpt>
      <trkpt lat="43.476533" lon="-8.332804">
        <ele>67.631</ele>
        <time>2016-09-22T14:40:42Z</time>
      </trkpt>
      <trkpt lat="43.476527" lon="-8.332795">
        <ele>67.691</ele>
        <time>2016-09-22T14:40:43Z</time>
      </trkpt>
      <trkpt lat="43.476513" lon="-8.332781">
        <ele>67.873</ele>
        <time>2016-09-22T14:40:45Z</time>
      </trkpt>
      <trkpt lat="43.476461" lon="-8.332748">
        <ele>68.855</ele>
        <time>2016-09-22T14:40:52Z</time>
      </trkpt>
      <trkpt lat="43.476454" lon="-8.332746">
        <ele>69.095</ele>
        <time>2016-09-22T14:40:53Z</time>
      </trkpt>
      <trkpt lat="43.476413" lon="-8.332703">
        <ele>69.849</ele>
        <time>2016-09-22T14:41:00Z</time>
      </trkpt>
      <trkpt lat="43.476408" lon="-8.332696">
        <ele>70.023</ele>
        <time>2016-09-22T14:41:01Z</time>
      </trkpt>
      <trkpt lat="43.476369" lon="-8.332667">
        <ele>71.208</ele>
        <time>2016-09-22T14:41:07Z</time>
      </trkpt>
      <trkpt lat="43.476329" lon="-8.332615">
        <ele>72.460</ele>
        <time>2016-09-22T14:41:15Z</time>
      </trkpt>
      <trkpt lat="43.476302" lon="-8.332586">
        <ele>73.694</ele>
        <time>2016-09-22T14:41:20Z</time>
      </trkpt>
      <trkpt lat="43.476270" lon="-8.332547">
        <ele>74.629</ele>
        <time>2016-09-22T14:41:26Z</time>
      </trkpt>
      <trkpt lat="43.476230" lon="-8.332499">
        <ele>75.447</ele>
        <time>2016-09-22T14:41:33Z</time>
      </trkpt>
      <trkpt lat="43.476224" lon="-8.332493">
        <ele>75.685</ele>
        <time>2016-09-22T14:41:34Z</time>
      </trkpt>
      <trkpt lat="43.476197" lon="-8.332467">
        <ele>76.635</ele>
        <time>2016-09-22T14:41:39Z</time>
      </trkpt>
      <trkpt lat="43.476185" lon="-8.332458">
        <ele>76.897</ele>
        <time>2016-09-22T14:41:41Z</time>
      </trkpt>
      <trkpt lat="43.476161" lon="-8.332449">
        <ele>77.869</ele>
        <time>2016-09-22T14:41:45Z</time>
      </trkpt>
      <trkpt lat="43.476130" lon="-8.332437">
        <ele>79.079</ele>
        <time>2016-09-22T14:41:50Z</time>
      </trkpt>
      <trkpt lat="43.476092" lon="-8.332440">
        <ele>80.205</ele>
        <time>2016-09-22T14:41:56Z</time>
      </trkpt>
      <trkpt lat="43.476074" lon="-8.332449">
        <ele>80.825</ele>
        <time>2016-09-22T14:42:00Z</time>
      </trkpt>
      <trkpt lat="43.476060" lon="-8.332458">
        <ele>81.008</ele>
        <time>2016-09-22T14:42:03Z</time>
      </trkpt>
      <trkpt lat="43.476036" lon="-8.332471">
        <ele>82.028</ele>
        <time>2016-09-22T14:42:08Z</time>
      </trkpt>
      <trkpt lat="43.476009" lon="-8.332497">
        <ele>83.232</ele>
        <time>2016-09-22T14:42:14Z</time>
      </trkpt>
      <trkpt lat="43.475988" lon="-8.332512">
        <ele>84.017</ele>
        <time>2016-09-22T14:42:18Z</time>
      </trkpt>
      <trkpt lat="43.475979" lon="-8.332517">
        <ele>84.245</ele>
        <time>2016-09-22T14:42:20Z</time>
      </trkpt>
      <trkpt lat="43.475957" lon="-8.332533">
        <ele>85.483</ele>
        <time>2016-09-22T14:42:25Z</time>
      </trkpt>
      <trkpt lat="43.475948" lon="-8.332540">
        <ele>85.673</ele>
        <time>2016-09-22T14:42:27Z</time>
      </trkpt>
      <trkpt lat="43.475919" lon="-8.332563">
        <ele>86.615</ele>
        <time>2016-09-22T14:42:34Z</time>
      </trkpt>
      <trkpt lat="43.475905" lon="-8.332575">
        <ele>87.227</ele>
        <time>2016-09-22T14:42:37Z</time>
      </trkpt>
      <trkpt lat="43.475893" lon="-8.332584">
        <ele>87.881</ele>
        <time>2016-09-22T14:42:40Z</time>
      </trkpt>
      <trkpt lat="43.475401" lon="-8.332837">
        <ele>101.261</ele>
        <time>2016-09-22T14:44:32Z</time>
      </trkpt>
      <trkpt lat="43.475379" lon="-8.332862">
        <ele>101.617</ele>
        <time>2016-09-22T14:44:34Z</time>
      </trkpt>
      <trkpt lat="43.475328" lon="-8.332936">
        <ele>102.408</ele>
        <time>2016-09-22T14:44:39Z</time>
      </trkpt>
      <trkpt lat="43.475293" lon="-8.332970">
        <ele>103.079</ele>
        <time>2016-09-22T14:44:42Z</time>
      </trkpt>
      <trkpt lat="43.475271" lon="-8.332978">
        <ele>103.273</ele>
        <time>2016-09-22T14:44:44Z</time>
      </trkpt>
      <trkpt lat="43.475240" lon="-8.332961">
        <ele>103.448</ele>
        <time>2016-09-22T14:44:47Z</time>
      </trkpt>
      <trkpt lat="43.475223" lon="-8.332935">
        <ele>103.476</ele>
        <time>2016-09-22T14:44:49Z</time>
      </trkpt>
      <trkpt lat="43.475213" lon="-8.332870">
        <ele>103.484</ele>
        <time>2016-09-22T14:44:52Z</time>
      </trkpt>
      <trkpt lat="43.475207" lon="-8.332821">
        <ele>103.494</ele>
        <time>2016-09-22T14:44:54Z</time>
      </trkpt>
      <trkpt lat="43.475182" lon="-8.332722">
        <ele>103.676</ele>
        <time>2016-09-22T14:44:59Z</time>
      </trkpt>
      <trkpt lat="43.475149" lon="-8.332647">
        <ele>103.878</ele>
        <time>2016-09-22T14:45:04Z</time>
      </trkpt>
      <trkpt lat="43.475140" lon="-8.332605">
        <ele>104.232</ele>
        <time>2016-09-22T14:45:06Z</time>
      </trkpt>
      <trkpt lat="43.475128" lon="-8.332567">
        <ele>104.492</ele>
        <time>2016-09-22T14:45:08Z</time>
      </trkpt>
      <trkpt lat="43.475089" lon="-8.332462">
        <ele>105.011</ele>
        <time>2016-09-22T14:45:14Z</time>
      </trkpt>
      <trkpt lat="43.475077" lon="-8.332429">
        <ele>105.408</ele>
        <time>2016-09-22T14:45:16Z</time>
      </trkpt>
      <trkpt lat="43.475044" lon="-8.332332">
        <ele>106.674</ele>
        <time>2016-09-22T14:45:22Z</time>
      </trkpt>
      <trkpt lat="43.475028" lon="-8.332299">
        <ele>106.898</ele>
        <time>2016-09-22T14:45:24Z</time>
      </trkpt>
      <trkpt lat="43.475000" lon="-8.332186">
        <ele>107.823</ele>
        <time>2016-09-22T14:45:30Z</time>
      </trkpt>
      <trkpt lat="43.475000" lon="-8.332168">
        <ele>108.081</ele>
        <time>2016-09-22T14:45:31Z</time>
      </trkpt>
      <trkpt lat="43.474990" lon="-8.332065">
        <ele>109.059</ele>
        <time>2016-09-22T14:45:37Z</time>
      </trkpt>
      <trkpt lat="43.474981" lon="-8.332013">
        <ele>109.469</ele>
        <time>2016-09-22T14:45:40Z</time>
      </trkpt>
      <trkpt lat="43.474970" lon="-8.331949">
        <ele>110.221</ele>
        <time>2016-09-22T14:45:44Z</time>
      </trkpt>
      <trkpt lat="43.474951" lon="-8.331874">
        <ele>111.233</ele>
        <time>2016-09-22T14:45:49Z</time>
      </trkpt>
      <trkpt lat="43.474948" lon="-8.331860">
        <ele>111.455</ele>
        <time>2016-09-22T14:45:50Z</time>
      </trkpt>
      <trkpt lat="43.474940" lon="-8.331816">
        <ele>112.007</ele>
        <time>2016-09-22T14:45:53Z</time>
      </trkpt>
      <trkpt lat="43.474928" lon="-8.331790">
        <ele>112.417</ele>
        <time>2016-09-22T14:45:55Z</time>
      </trkpt>
      <trkpt lat="43.474925" lon="-8.331775">
        <ele>112.408</ele>
        <time>2016-09-22T14:45:56Z</time>
      </trkpt>
      <trkpt lat="43.474911" lon="-8.331718">
        <ele>113.226</ele>
        <time>2016-09-22T14:46:00Z</time>
      </trkpt>
      <trkpt lat="43.474903" lon="-8.331689">
        <ele>113.480</ele>
        <time>2016-09-22T14:46:02Z</time>
      </trkpt>
      <trkpt lat="43.474895" lon="-8.331659">
        <ele>114.245</ele>
        <time>2016-09-22T14:46:04Z</time>
      </trkpt>
      <trkpt lat="43.474893" lon="-8.331645">
        <ele>114.483</ele>
        <time>2016-09-22T14:46:05Z</time>
      </trkpt>
      <trkpt lat="43.474889" lon="-8.331633">
        <ele>114.621</ele>
        <time>2016-09-22T14:46:06Z</time>
      </trkpt>
      <trkpt lat="43.474867" lon="-8.331584">
        <ele>115.261</ele>
        <time>2016-09-22T14:46:10Z</time>
      </trkpt>
      <trkpt lat="43.474854" lon="-8.331545">
        <ele>115.633</ele>
        <time>2016-09-22T14:46:13Z</time>
      </trkpt>
      <trkpt lat="43.474839" lon="-8.331505">
        <ele>116.215</ele>
        <time>2016-09-22T14:46:16Z</time>
      </trkpt>
      <trkpt lat="43.474834" lon="-8.331493">
        <ele>116.626</ele>
        <time>2016-09-22T14:46:17Z</time>
      </trkpt>
      <trkpt lat="43.474816" lon="-8.331448">
        <ele>117.647</ele>
        <time>2016-09-22T14:46:21Z</time>
      </trkpt>
      <trkpt lat="43.474785" lon="-8.331380">
        <ele>118.811</ele>
        <time>2016-09-22T14:46:27Z</time>
      </trkpt>
      <trkpt lat="43.474780" lon="-8.331369">
        <ele>119.008</ele>
        <time>2016-09-22T14:46:28Z</time>
      </trkpt>
      <trkpt lat="43.474763" lon="-8.331326">
        <ele>119.823</ele>
        <time>2016-09-22T14:46:32Z</time>
      </trkpt>
      <trkpt lat="43.474748" lon="-8.331290">
        <ele>120.837</ele>
        <time>2016-09-22T14:46:35Z</time>
      </trkpt>
      <trkpt lat="43.474736" lon="-8.331258">
        <ele>121.632</ele>
        <time>2016-09-22T14:46:38Z</time>
      </trkpt>
      <trkpt lat="43.474732" lon="-8.331248">
        <ele>121.640</ele>
        <time>2016-09-22T14:46:39Z</time>
      </trkpt>
      <trkpt lat="43.474726" lon="-8.331226">
        <ele>122.088</ele>
        <time>2016-09-22T14:46:41Z</time>
      </trkpt>
      <trkpt lat="43.474710" lon="-8.331183">
        <ele>122.428</ele>
        <time>2016-09-22T14:46:45Z</time>
      </trkpt>
      <trkpt lat="43.474699" lon="-8.331147">
        <ele>123.280</ele>
        <time>2016-09-22T14:46:48Z</time>
      </trkpt>
      <trkpt lat="43.474673" lon="-8.331098">
        <ele>124.212</ele>
        <time>2016-09-22T14:46:53Z</time>
      </trkpt>
      <trkpt lat="43.474638" lon="-8.331017">
        <ele>125.444</ele>
        <time>2016-09-22T14:47:00Z</time>
      </trkpt>
      <trkpt lat="43.474626" lon="-8.330998">
        <ele>125.805</ele>
        <time>2016-09-22T14:47:02Z</time>
      </trkpt>
      <trkpt lat="43.474585" lon="-8.330948">
        <ele>126.415</ele>
        <time>2016-09-22T14:47:08Z</time>
      </trkpt>
      <trkpt lat="43.474568" lon="-8.330932">
        <ele>127.008</ele>
        <time>2016-09-22T14:47:10Z</time>
      </trkpt>
      <trkpt lat="43.474546" lon="-8.330905">
        <ele>127.685</ele>
        <time>2016-09-22T14:47:13Z</time>
      </trkpt>
      <trkpt lat="43.474508" lon="-8.330845">
        <ele>128.479</ele>
        <time>2016-09-22T14:47:19Z</time>
      </trkpt>
      <trkpt lat="43.474502" lon="-8.330833">
        <ele>128.654</ele>
        <time>2016-09-22T14:47:20Z</time>
      </trkpt>
      <trkpt lat="43.474435" lon="-8.330740">
        <ele>129.832</ele>
        <time>2016-09-22T14:47:29Z</time>
      </trkpt>
      <trkpt lat="43.474400" lon="-8.330688">
        <ele>131.060</ele>
        <time>2016-09-22T14:47:34Z</time>
      </trkpt>
      <trkpt lat="43.474387" lon="-8.330669">
        <ele>131.410</ele>
        <time>2016-09-22T14:47:36Z</time>
      </trkpt>
      <trkpt lat="43.474371" lon="-8.330650">
        <ele>132.012</ele>
        <time>2016-09-22T14:47:38Z</time>
      </trkpt>
      <trkpt lat="43.474316" lon="-8.330571">
        <ele>133.434</ele>
        <time>2016-09-22T14:47:46Z</time>
      </trkpt>
      <trkpt lat="43.474285" lon="-8.330538">
        <ele>134.654</ele>
        <time>2016-09-22T14:47:50Z</time>
      </trkpt>
      <trkpt lat="43.474253" lon="-8.330514">
        <ele>135.456</ele>
        <time>2016-09-22T14:47:53Z</time>
      </trkpt>
      <trkpt lat="43.474232" lon="-8.330502">
        <ele>135.811</ele>
        <time>2016-09-22T14:47:55Z</time>
      </trkpt>
      <trkpt lat="43.474174" lon="-8.330470">
        <ele>136.408</ele>
        <time>2016-09-22T14:48:00Z</time>
      </trkpt>
      <trkpt lat="43.474135" lon="-8.330449">
        <ele>136.826</ele>
        <time>2016-09-22T14:48:03Z</time>
      </trkpt>
      <trkpt lat="43.474073" lon="-8.330422">
        <ele>137.620</ele>
        <time>2016-09-22T14:48:07Z</time>
      </trkpt>
      <trkpt lat="43.474008" lon="-8.330398">
        <ele>137.855</ele>
        <time>2016-09-22T14:48:11Z</time>
      </trkpt>
      <trkpt lat="43.473942" lon="-8.330384">
        <ele>138.083</ele>
        <time>2016-09-22T14:48:15Z</time>
      </trkpt>
      <trkpt lat="43.473787" lon="-8.330331">
        <ele>138.861</ele>
        <time>2016-09-22T14:48:23Z</time>
      </trkpt>
      <trkpt lat="43.473758" lon="-8.330312">
        <ele>138.891</ele>
        <time>2016-09-22T14:48:25Z</time>
      </trkpt>
      <trkpt lat="43.473682" lon="-8.330264">
        <ele>139.273</ele>
        <time>2016-09-22T14:48:29Z</time>
      </trkpt>
      <trkpt lat="43.473599" lon="-8.330290">
        <ele>139.435</ele>
        <time>2016-09-22T14:48:34Z</time>
      </trkpt>
      <trkpt lat="43.473466" lon="-8.330409">
        <ele>138.665</ele>
        <time>2016-09-22T14:48:42Z</time>
      </trkpt>
      <trkpt lat="43.473338" lon="-8.330534">
        <ele>138.068</ele>
        <time>2016-09-22T14:48:50Z</time>
      </trkpt>
      <trkpt lat="43.473325" lon="-8.330547">
        <ele>137.814</ele>
        <time>2016-09-22T14:48:51Z</time>
      </trkpt>
      <trkpt lat="43.473260" lon="-8.330605">
        <ele>137.008</ele>
        <time>2016-09-22T14:48:57Z</time>
      </trkpt>
      <trkpt lat="43.473238" lon="-8.330629">
        <ele>136.827</ele>
        <time>2016-09-22T14:48:59Z</time>
      </trkpt>
      <trkpt lat="43.473227" lon="-8.330647">
        <ele>136.871</ele>
        <time>2016-09-22T14:49:00Z</time>
      </trkpt>
      <trkpt lat="43.473185" lon="-8.330687">
        <ele>136.286</ele>
        <time>2016-09-22T14:49:03Z</time>
      </trkpt>
      <trkpt lat="43.473160" lon="-8.330705">
        <ele>135.664</ele>
        <time>2016-09-22T14:49:05Z</time>
      </trkpt>
      <trkpt lat="43.473118" lon="-8.330722">
        <ele>135.252</ele>
        <time>2016-09-22T14:49:08Z</time>
      </trkpt>
      <trkpt lat="43.473097" lon="-8.330708">
        <ele>134.822</ele>
        <time>2016-09-22T14:49:10Z</time>
      </trkpt>
      <trkpt lat="43.473081" lon="-8.330685">
        <ele>134.674</ele>
        <time>2016-09-22T14:49:12Z</time>
      </trkpt>
      <trkpt lat="43.473007" lon="-8.330631">
        <ele>134.236</ele>
        <time>2016-09-22T14:49:18Z</time>
      </trkpt>
      <trkpt lat="43.472915" lon="-8.330609">
        <ele>134.277</ele>
        <time>2016-09-22T14:49:24Z</time>
      </trkpt>
      <trkpt lat="43.472841" lon="-8.330593">
        <ele>134.261</ele>
        <time>2016-09-22T14:49:30Z</time>
      </trkpt>
      <trkpt lat="43.472813" lon="-8.330583">
        <ele>134.227</ele>
        <time>2016-09-22T14:49:32Z</time>
      </trkpt>
      <trkpt lat="43.472764" lon="-8.330583">
        <ele>133.808</ele>
        <time>2016-09-22T14:49:35Z</time>
      </trkpt>
      <trkpt lat="43.472738" lon="-8.330581">
        <ele>133.458</ele>
        <time>2016-09-22T14:49:37Z</time>
      </trkpt>
      <trkpt lat="43.472671" lon="-8.330559">
        <ele>132.862</ele>
        <time>2016-09-22T14:49:41Z</time>
      </trkpt>
      <trkpt lat="43.472665" lon="-8.330551">
        <ele>132.647</ele>
        <time>2016-09-22T14:49:43Z</time>
      </trkpt>
      <trkpt lat="43.472728" lon="-8.330354">
        <ele>134.825</ele>
        <time>2016-09-22T14:50:48Z</time>
      </trkpt>
      <trkpt lat="43.472738" lon="-8.330346">
        <ele>135.223</ele>
        <time>2016-09-22T14:50:49Z</time>
      </trkpt>
      <trkpt lat="43.472782" lon="-8.330308">
        <ele>136.023</ele>
        <time>2016-09-22T14:50:53Z</time>
      </trkpt>
      <trkpt lat="43.472817" lon="-8.330277">
        <ele>136.865</ele>
        <time>2016-09-22T14:50:56Z</time>
      </trkpt>
      <trkpt lat="43.472829" lon="-8.330267">
        <ele>137.057</ele>
        <time>2016-09-22T14:50:57Z</time>
      </trkpt>
      <trkpt lat="43.472902" lon="-8.330215">
        <ele>138.044</ele>
        <time>2016-09-22T14:51:03Z</time>
      </trkpt>
      <trkpt lat="43.472915" lon="-8.330203">
        <ele>138.205</ele>
        <time>2016-09-22T14:51:04Z</time>
      </trkpt>
      <trkpt lat="43.472927" lon="-8.330197">
        <ele>138.415</ele>
        <time>2016-09-22T14:51:05Z</time>
      </trkpt>
      <trkpt lat="43.472956" lon="-8.330196">
        <ele>139.408</ele>
        <time>2016-09-22T14:51:09Z</time>
      </trkpt>
      <trkpt lat="43.473054" lon="-8.330158">
        <ele>140.415</ele>
        <time>2016-09-22T14:54:01Z</time>
      </trkpt>
      <trkpt lat="43.473070" lon="-8.330150">
        <ele>140.489</ele>
        <time>2016-09-22T14:54:02Z</time>
      </trkpt>
      <trkpt lat="43.473105" lon="-8.330138">
        <ele>140.624</ele>
        <time>2016-09-22T14:54:04Z</time>
      </trkpt>
      <trkpt lat="43.473296" lon="-8.330102">
        <ele>141.492</ele>
        <time>2016-09-22T14:54:13Z</time>
      </trkpt>
      <trkpt lat="43.473488" lon="-8.330136">
        <ele>141.650</ele>
        <time>2016-09-22T14:54:20Z</time>
      </trkpt>
      <trkpt lat="43.473640" lon="-8.330101">
        <ele>140.810</ele>
        <time>2016-09-22T14:54:26Z</time>
      </trkpt>
      <trkpt lat="43.473749" lon="-8.330005">
        <ele>140.812</ele>
        <time>2016-09-22T14:54:31Z</time>
      </trkpt>
      <trkpt lat="43.473967" lon="-8.329814">
        <ele>141.624</ele>
        <time>2016-09-22T14:54:40Z</time>
      </trkpt>
      <trkpt lat="43.474164" lon="-8.329675">
        <ele>141.217</ele>
        <time>2016-09-22T14:54:46Z</time>
      </trkpt>
      <trkpt lat="43.474199" lon="-8.329567">
        <ele>141.087</ele>
        <time>2016-09-22T14:54:49Z</time>
      </trkpt>
      <trkpt lat="43.474210" lon="-8.329395">
        <ele>141.615</ele>
        <time>2016-09-22T14:54:56Z</time>
      </trkpt>
      <trkpt lat="43.474217" lon="-8.329282">
        <ele>142.808</ele>
        <time>2016-09-22T14:55:01Z</time>
      </trkpt>
      <trkpt lat="43.474219" lon="-8.329243">
        <ele>143.862</ele>
        <time>2016-09-22T14:55:03Z</time>
      </trkpt>
      <trkpt lat="43.474219" lon="-8.329225">
        <ele>144.056</ele>
        <time>2016-09-22T14:55:04Z</time>
      </trkpt>
      <trkpt lat="43.474224" lon="-8.329127">
        <ele>145.281</ele>
        <time>2016-09-22T14:55:09Z</time>
      </trkpt>
      <trkpt lat="43.474228" lon="-8.329087">
        <ele>145.499</ele>
        <time>2016-09-22T14:55:11Z</time>
      </trkpt>
      <trkpt lat="43.474232" lon="-8.329070">
        <ele>145.637</ele>
        <time>2016-09-22T14:55:12Z</time>
      </trkpt>
      <trkpt lat="43.474237" lon="-8.329059">
        <ele>146.287</ele>
        <time>2016-09-22T14:55:15Z</time>
      </trkpt>
      <trkpt lat="43.474241" lon="-8.329035">
        <ele>146.289</ele>
        <time>2016-09-22T14:55:18Z</time>
      </trkpt>
      <trkpt lat="43.474243" lon="-8.328962">
        <ele>147.011</ele>
        <time>2016-09-22T14:55:23Z</time>
      </trkpt>
      <trkpt lat="43.474242" lon="-8.328931">
        <ele>147.477</ele>
        <time>2016-09-22T14:55:25Z</time>
      </trkpt>
      <trkpt lat="43.474241" lon="-8.328812">
        <ele>147.861</ele>
        <time>2016-09-22T14:55:31Z</time>
      </trkpt>
      <trkpt lat="43.474251" lon="-8.328763">
        <ele>148.427</ele>
        <time>2016-09-22T14:55:34Z</time>
      </trkpt>
      <trkpt lat="43.474260" lon="-8.328678">
        <ele>149.008</ele>
        <time>2016-09-22T14:55:39Z</time>
      </trkpt>
      <trkpt lat="43.474261" lon="-8.328601">
        <ele>149.618</ele>
        <time>2016-09-22T14:55:43Z</time>
      </trkpt>
      <trkpt lat="43.474263" lon="-8.328560">
        <ele>150.042</ele>
        <time>2016-09-22T14:55:45Z</time>
      </trkpt>
      <trkpt lat="43.474256" lon="-8.328473">
        <ele>150.817</ele>
        <time>2016-09-22T14:55:49Z</time>
      </trkpt>
      <trkpt lat="43.474259" lon="-8.328429">
        <ele>151.275</ele>
        <time>2016-09-22T14:55:51Z</time>
      </trkpt>
      <trkpt lat="43.474268" lon="-8.328296">
        <ele>151.833</ele>
        <time>2016-09-22T14:55:57Z</time>
      </trkpt>
      <trkpt lat="43.474272" lon="-8.328231">
        <ele>152.673</ele>
        <time>2016-09-22T14:56:00Z</time>
      </trkpt>
      <trkpt lat="43.474272" lon="-8.328210">
        <ele>153.045</ele>
        <time>2016-09-22T14:56:01Z</time>
      </trkpt>
      <trkpt lat="43.474288" lon="-8.328078">
        <ele>153.457</ele>
        <time>2016-09-22T14:56:07Z</time>
      </trkpt>
      <trkpt lat="43.474291" lon="-8.327991">
        <ele>153.422</ele>
        <time>2016-09-22T14:56:13Z</time>
      </trkpt>
      <trkpt lat="43.474284" lon="-8.327853">
        <ele>153.662</ele>
        <time>2016-09-22T14:57:27Z</time>
      </trkpt>
      <trkpt lat="43.474285" lon="-8.327798">
        <ele>153.808</ele>
        <time>2016-09-22T14:57:29Z</time>
      </trkpt>
      <trkpt lat="43.474303" lon="-8.327617">
        <ele>155.008</ele>
        <time>2016-09-22T14:57:36Z</time>
      </trkpt>
      <trkpt lat="43.474310" lon="-8.327569">
        <ele>155.673</ele>
        <time>2016-09-22T14:57:38Z</time>
      </trkpt>
      <trkpt lat="43.474318" lon="-8.327506">
        <ele>156.217</ele>
        <time>2016-09-22T14:57:41Z</time>
      </trkpt>
      <trkpt lat="43.474334" lon="-8.327440">
        <ele>156.822</ele>
        <time>2016-09-22T14:57:44Z</time>
      </trkpt>
      <trkpt lat="43.474351" lon="-8.327393">
        <ele>157.210</ele>
        <time>2016-09-22T14:57:46Z</time>
      </trkpt>
      <trkpt lat="43.474406" lon="-8.327225">
        <ele>158.438</ele>
        <time>2016-09-22T14:57:53Z</time>
      </trkpt>
      <trkpt lat="43.474414" lon="-8.327201">
        <ele>158.448</ele>
        <time>2016-09-22T14:57:54Z</time>
      </trkpt>
      <trkpt lat="43.474442" lon="-8.327051">
        <ele>159.620</ele>
        <time>2016-09-22T14:58:00Z</time>
      </trkpt>
      <trkpt lat="43.474451" lon="-8.327004">
        <ele>159.832</ele>
        <time>2016-09-22T14:58:02Z</time>
      </trkpt>
      <trkpt lat="43.474465" lon="-8.326914">
        <ele>160.689</ele>
        <time>2016-09-22T14:58:06Z</time>
      </trkpt>
      <trkpt lat="43.474484" lon="-8.326762">
        <ele>161.606</ele>
        <time>2016-09-22T14:58:12Z</time>
      </trkpt>
      <trkpt lat="43.474493" lon="-8.326641">
        <ele>162.826</ele>
        <time>2016-09-22T14:58:17Z</time>
      </trkpt>
      <trkpt lat="43.474498" lon="-8.326509">
        <ele>163.808</ele>
        <time>2016-09-22T14:58:22Z</time>
      </trkpt>
      <trkpt lat="43.474496" lon="-8.326483">
        <ele>163.829</ele>
        <time>2016-09-22T14:58:23Z</time>
      </trkpt>
      <trkpt lat="43.474485" lon="-8.326330">
        <ele>164.853</ele>
        <time>2016-09-22T14:58:29Z</time>
      </trkpt>
      <trkpt lat="43.474475" lon="-8.326251">
        <ele>165.268</ele>
        <time>2016-09-22T14:58:32Z</time>
      </trkpt>
      <trkpt lat="43.474456" lon="-8.326080">
        <ele>165.626</ele>
        <time>2016-09-22T14:58:38Z</time>
      </trkpt>
      <trkpt lat="43.474462" lon="-8.325824">
        <ele>165.454</ele>
        <time>2016-09-22T14:58:46Z</time>
      </trkpt>
      <trkpt lat="43.474458" lon="-8.325704">
        <ele>166.284</ele>
        <time>2016-09-22T14:58:51Z</time>
      </trkpt>
      <trkpt lat="43.474460" lon="-8.325627">
        <ele>166.456</ele>
        <time>2016-09-22T14:58:54Z</time>
      </trkpt>
      <trkpt lat="43.474463" lon="-8.325497">
        <ele>167.218</ele>
        <time>2016-09-22T14:58:59Z</time>
      </trkpt>
      <trkpt lat="43.474476" lon="-8.325358">
        <ele>167.875</ele>
        <time>2016-09-22T14:59:04Z</time>
      </trkpt>
      <trkpt lat="43.474504" lon="-8.325222">
        <ele>168.428</ele>
        <time>2016-09-22T14:59:09Z</time>
      </trkpt>
      <trkpt lat="43.474532" lon="-8.325167">
        <ele>168.620</ele>
        <time>2016-09-22T14:59:11Z</time>
      </trkpt>
      <trkpt lat="43.474634" lon="-8.324930">
        <ele>167.208</ele>
        <time>2016-09-22T14:59:18Z</time>
      </trkpt>
      <trkpt lat="43.474674" lon="-8.324860">
        <ele>165.278</ele>
        <time>2016-09-22T14:59:20Z</time>
      </trkpt>
      <trkpt lat="43.474712" lon="-8.324811">
        <ele>163.822</ele>
        <time>2016-09-22T14:59:22Z</time>
      </trkpt>
      <trkpt lat="43.474728" lon="-8.324793">
        <ele>163.287</ele>
        <time>2016-09-22T14:59:23Z</time>
      </trkpt>
      <trkpt lat="43.474747" lon="-8.324775">
        <ele>162.625</ele>
        <time>2016-09-22T14:59:24Z</time>
      </trkpt>
      <trkpt lat="43.474857" lon="-8.324673">
        <ele>161.853</ele>
        <time>2016-09-22T14:59:30Z</time>
      </trkpt>
      <trkpt lat="43.474960" lon="-8.324569">
        <ele>162.623</ele>
        <time>2016-09-22T14:59:37Z</time>
      </trkpt>
      <trkpt lat="43.475102" lon="-8.324401">
        <ele>162.685</ele>
        <time>2016-09-22T14:59:45Z</time>
      </trkpt>
      <trkpt lat="43.475212" lon="-8.324282">
        <ele>163.657</ele>
        <time>2016-09-22T14:59:52Z</time>
      </trkpt>
      <trkpt lat="43.475257" lon="-8.324236">
        <ele>165.071</ele>
        <time>2016-09-22T14:59:56Z</time>
      </trkpt>
      <trkpt lat="43.475280" lon="-8.324209">
        <ele>165.641</ele>
        <time>2016-09-22T14:59:58Z</time>
      </trkpt>
      <trkpt lat="43.475301" lon="-8.324183">
        <ele>166.215</ele>
        <time>2016-09-22T15:00:00Z</time>
      </trkpt>
      <trkpt lat="43.475360" lon="-8.324112">
        <ele>167.208</ele>
        <time>2016-09-22T15:00:05Z</time>
      </trkpt>
      <trkpt lat="43.475372" lon="-8.324098">
        <ele>167.488</ele>
        <time>2016-09-22T15:00:06Z</time>
      </trkpt>
      <trkpt lat="43.475475" lon="-8.324002">
        <ele>168.292</ele>
        <time>2016-09-22T15:00:14Z</time>
      </trkpt>
      <trkpt lat="43.475551" lon="-8.323935">
        <ele>169.047</ele>
        <time>2016-09-22T15:00:19Z</time>
      </trkpt>
      <trkpt lat="43.475567" lon="-8.323922">
        <ele>169.075</ele>
        <time>2016-09-22T15:00:20Z</time>
      </trkpt>
      <trkpt lat="43.475596" lon="-8.323895">
        <ele>169.243</ele>
        <time>2016-09-22T15:00:22Z</time>
      </trkpt>
      <trkpt lat="43.475700" lon="-8.323786">
        <ele>169.683</ele>
        <time>2016-09-22T15:00:29Z</time>
      </trkpt>
      <trkpt lat="43.475769" lon="-8.323708">
        <ele>170.475</ele>
        <time>2016-09-22T15:00:34Z</time>
      </trkpt>
      <trkpt lat="43.475798" lon="-8.323677">
        <ele>170.487</ele>
        <time>2016-09-22T15:00:36Z</time>
      </trkpt>
      <trkpt lat="43.475922" lon="-8.323548">
        <ele>171.428</ele>
        <time>2016-09-22T15:00:44Z</time>
      </trkpt>
      <trkpt lat="43.475965" lon="-8.323502">
        <ele>171.889</ele>
        <time>2016-09-22T15:00:47Z</time>
      </trkpt>
      <trkpt lat="43.476060" lon="-8.323429">
        <ele>172.417</ele>
        <time>2016-09-22T15:00:54Z</time>
      </trkpt>
      <trkpt lat="43.476102" lon="-8.323397">
        <ele>173.808</ele>
        <time>2016-09-22T15:00:58Z</time>
      </trkpt>
      <trkpt lat="43.476134" lon="-8.323376">
        <ele>175.033</ele>
        <time>2016-09-22T15:01:01Z</time>
      </trkpt>
      <trkpt lat="43.476142" lon="-8.323367">
        <ele>175.437</ele>
        <time>2016-09-22T15:01:02Z</time>
      </trkpt>
      <trkpt lat="43.476169" lon="-8.323343">
        <ele>176.262</ele>
        <time>2016-09-22T15:01:05Z</time>
      </trkpt>
      <trkpt lat="43.476215" lon="-8.323297">
        <ele>177.030</ele>
        <time>2016-09-22T15:01:10Z</time>
      </trkpt>
      <trkpt lat="43.476235" lon="-8.323277">
        <ele>177.468</ele>
        <time>2016-09-22T15:01:12Z</time>
      </trkpt>
      <trkpt lat="43.476254" lon="-8.323255">
        <ele>178.418</ele>
        <time>2016-09-22T15:01:14Z</time>
      </trkpt>
      <trkpt lat="43.476279" lon="-8.323225">
        <ele>179.030</ele>
        <time>2016-09-22T15:01:17Z</time>
      </trkpt>
      <trkpt lat="43.476307" lon="-8.323198">
        <ele>179.482</ele>
        <time>2016-09-22T15:01:20Z</time>
      </trkpt>
      <trkpt lat="43.476343" lon="-8.323160">
        <ele>180.429</ele>
        <time>2016-09-22T15:01:24Z</time>
      </trkpt>
      <trkpt lat="43.476353" lon="-8.323154">
        <ele>180.800</ele>
        <time>2016-09-22T15:01:25Z</time>
      </trkpt>
      <trkpt lat="43.476422" lon="-8.323111">
        <ele>181.620</ele>
        <time>2016-09-22T15:01:30Z</time>
      </trkpt>
      <trkpt lat="43.476437" lon="-8.323100">
        <ele>181.808</ele>
        <time>2016-09-22T15:01:31Z</time>
      </trkpt>
      <trkpt lat="43.476589" lon="-8.323029">
        <ele>182.283</ele>
        <time>2016-09-22T15:01:39Z</time>
      </trkpt>
      <trkpt lat="43.476693" lon="-8.322954">
        <ele>182.097</ele>
        <time>2016-09-22T15:01:44Z</time>
      </trkpt>
      <trkpt lat="43.476787" lon="-8.322803">
        <ele>182.692</ele>
        <time>2016-09-22T15:01:52Z</time>
      </trkpt>
      <trkpt lat="43.476810" lon="-8.322744">
        <ele>182.670</ele>
        <time>2016-09-22T15:01:55Z</time>
      </trkpt>
      <trkpt lat="43.476824" lon="-8.322658">
        <ele>183.018</ele>
        <time>2016-09-22T15:01:59Z</time>
      </trkpt>
      <trkpt lat="43.476821" lon="-8.322572">
        <ele>183.848</ele>
        <time>2016-09-22T15:02:03Z</time>
      </trkpt>
      <trkpt lat="43.476822" lon="-8.322557">
        <ele>184.440</ele>
        <time>2016-09-22T15:02:06Z</time>
      </trkpt>
      <trkpt lat="43.476818" lon="-8.322445">
        <ele>185.092</ele>
        <time>2016-09-22T15:02:20Z</time>
      </trkpt>
      <trkpt lat="43.476826" lon="-8.322382">
        <ele>185.473</ele>
        <time>2016-09-22T15:02:23Z</time>
      </trkpt>
      <trkpt lat="43.476832" lon="-8.322339">
        <ele>186.085</ele>
        <time>2016-09-22T15:02:25Z</time>
      </trkpt>
      <trkpt lat="43.476849" lon="-8.322201">
        <ele>187.213</ele>
        <time>2016-09-22T15:02:31Z</time>
      </trkpt>
      <trkpt lat="43.476857" lon="-8.322155">
        <ele>187.608</ele>
        <time>2016-09-22T15:02:33Z</time>
      </trkpt>
      <trkpt lat="43.476886" lon="-8.322040">
        <ele>188.428</ele>
        <time>2016-09-22T15:02:39Z</time>
      </trkpt>
      <trkpt lat="43.476893" lon="-8.322020">
        <ele>188.422</ele>
        <time>2016-09-22T15:02:40Z</time>
      </trkpt>
      <trkpt lat="43.476917" lon="-8.321911">
        <ele>189.437</ele>
        <time>2016-09-22T15:02:46Z</time>
      </trkpt>
      <trkpt lat="43.476919" lon="-8.321895">
        <ele>189.435</ele>
        <time>2016-09-22T15:02:47Z</time>
      </trkpt>
      <trkpt lat="43.476921" lon="-8.321877">
        <ele>189.613</ele>
        <time>2016-09-22T15:02:48Z</time>
      </trkpt>
      <trkpt lat="43.476940" lon="-8.321717">
        <ele>190.453</ele>
        <time>2016-09-22T15:02:56Z</time>
      </trkpt>
      <trkpt lat="43.476943" lon="-8.321693">
        <ele>190.475</ele>
        <time>2016-09-22T15:02:57Z</time>
      </trkpt>
      <trkpt lat="43.476945" lon="-8.321531">
        <ele>191.637</ele>
        <time>2016-09-22T15:03:05Z</time>
      </trkpt>
      <trkpt lat="43.476950" lon="-8.321446">
        <ele>192.887</ele>
        <time>2016-09-22T15:03:09Z</time>
      </trkpt>
      <trkpt lat="43.476970" lon="-8.321351">
        <ele>193.242</ele>
        <time>2016-09-22T15:03:13Z</time>
      </trkpt>
      <trkpt lat="43.477048" lon="-8.321156">
        <ele>193.626</ele>
        <time>2016-09-22T15:03:20Z</time>
      </trkpt>
      <trkpt lat="43.477060" lon="-8.321125">
        <ele>193.808</ele>
        <time>2016-09-22T15:03:21Z</time>
      </trkpt>
      <trkpt lat="43.477158" lon="-8.320952">
        <ele>194.099</ele>
        <time>2016-09-22T15:03:27Z</time>
      </trkpt>
      <trkpt lat="43.477271" lon="-8.320843">
        <ele>192.073</ele>
        <time>2016-09-22T15:03:32Z</time>
      </trkpt>
      <trkpt lat="43.477293" lon="-8.320826">
        <ele>191.248</ele>
        <time>2016-09-22T15:03:33Z</time>
      </trkpt>
      <trkpt lat="43.477317" lon="-8.320811">
        <ele>190.896</ele>
        <time>2016-09-22T15:03:34Z</time>
      </trkpt>
      <trkpt lat="43.477407" lon="-8.320768">
        <ele>189.274</ele>
        <time>2016-09-22T15:03:37Z</time>
      </trkpt>
      <trkpt lat="43.477443" lon="-8.320770">
        <ele>188.494</ele>
        <time>2016-09-22T15:03:38Z</time>
      </trkpt>
      <trkpt lat="43.477479" lon="-8.320775">
        <ele>187.696</ele>
        <time>2016-09-22T15:03:39Z</time>
      </trkpt>
      <trkpt lat="43.477546" lon="-8.320760">
        <ele>186.288</ele>
        <time>2016-09-22T15:03:41Z</time>
      </trkpt>
      <trkpt lat="43.477565" lon="-8.320737">
        <ele>185.444</ele>
        <time>2016-09-22T15:03:42Z</time>
      </trkpt>
      <trkpt lat="43.477575" lon="-8.320711">
        <ele>185.005</ele>
        <time>2016-09-22T15:03:43Z</time>
      </trkpt>
      <trkpt lat="43.477602" lon="-8.320599">
        <ele>185.215</ele>
        <time>2016-09-22T15:03:48Z</time>
      </trkpt>
      <trkpt lat="43.477603" lon="-8.320502">
        <ele>186.208</ele>
        <time>2016-09-22T15:03:52Z</time>
      </trkpt>
      <trkpt lat="43.477598" lon="-8.320396">
        <ele>187.045</ele>
        <time>2016-09-22T15:03:56Z</time>
      </trkpt>
      <trkpt lat="43.477602" lon="-8.320340">
        <ele>187.299</ele>
        <time>2016-09-22T15:03:58Z</time>
      </trkpt>
      <trkpt lat="43.477619" lon="-8.320174">
        <ele>187.664</ele>
        <time>2016-09-22T15:04:03Z</time>
      </trkpt>
      <trkpt lat="43.477681" lon="-8.319974">
        <ele>187.652</ele>
        <time>2016-09-22T15:04:10Z</time>
      </trkpt>
      <trkpt lat="43.477735" lon="-8.319813">
        <ele>188.010</ele>
        <time>2016-09-22T15:04:16Z</time>
      </trkpt>
      <trkpt lat="43.477738" lon="-8.319788">
        <ele>188.240</ele>
        <time>2016-09-22T15:04:17Z</time>
      </trkpt>
      <trkpt lat="43.477733" lon="-8.319763">
        <ele>188.472</ele>
        <time>2016-09-22T15:04:18Z</time>
      </trkpt>
      <trkpt lat="43.477708" lon="-8.319724">
        <ele>188.894</ele>
        <time>2016-09-22T15:04:20Z</time>
      </trkpt>
      <trkpt lat="43.477652" lon="-8.319642">
        <ele>189.474</ele>
        <time>2016-09-22T15:04:24Z</time>
      </trkpt>
      <trkpt lat="43.477605" lon="-8.319542">
        <ele>190.656</ele>
        <time>2016-09-22T15:04:28Z</time>
      </trkpt>
      <trkpt lat="43.477552" lon="-8.319366">
        <ele>191.621</ele>
        <time>2016-09-22T15:04:34Z</time>
      </trkpt>
      <trkpt lat="43.477540" lon="-8.319305">
        <ele>192.008</ele>
        <time>2016-09-22T15:04:36Z</time>
      </trkpt>
      <trkpt lat="43.477505" lon="-8.319046">
        <ele>192.648</ele>
        <time>2016-09-22T15:04:44Z</time>
      </trkpt>
      <trkpt lat="43.477504" lon="-8.319007">
        <ele>192.822</ele>
        <time>2016-09-22T15:04:45Z</time>
      </trkpt>
      <trkpt lat="43.477473" lon="-8.318830">
        <ele>193.237</ele>
        <time>2016-09-22T15:04:50Z</time>
      </trkpt>
      <trkpt lat="43.477465" lon="-8.318788">
        <ele>193.285</ele>
        <time>2016-09-22T15:04:51Z</time>
      </trkpt>
      <trkpt lat="43.477487" lon="-8.318710">
        <ele>193.073</ele>
        <time>2016-09-22T15:04:53Z</time>
      </trkpt>
      <trkpt lat="43.477566" lon="-8.318678">
        <ele>193.083</ele>
        <time>2016-09-22T15:04:56Z</time>
      </trkpt>
      <trkpt lat="43.477593" lon="-8.318672">
        <ele>193.215</ele>
        <time>2016-09-22T15:04:57Z</time>
      </trkpt>
      <trkpt lat="43.477721" lon="-8.318611">
        <ele>193.857</ele>
        <time>2016-09-22T15:05:02Z</time>
      </trkpt>
      <trkpt lat="43.477769" lon="-8.318583">
        <ele>194.262</ele>
        <time>2016-09-22T15:05:04Z</time>
      </trkpt>
      <trkpt lat="43.477885" lon="-8.318504">
        <ele>195.083</ele>
        <time>2016-09-22T15:05:09Z</time>
      </trkpt>
      <trkpt lat="43.477968" lon="-8.318425">
        <ele>196.211</ele>
        <time>2016-09-22T15:05:13Z</time>
      </trkpt>
      <trkpt lat="43.478067" lon="-8.318280">
        <ele>197.408</ele>
        <time>2016-09-22T15:05:19Z</time>
      </trkpt>
      <trkpt lat="43.478093" lon="-8.318224">
        <ele>198.097</ele>
        <time>2016-09-22T15:05:21Z</time>
      </trkpt>
      <trkpt lat="43.478128" lon="-8.318137">
        <ele>198.671</ele>
        <time>2016-09-22T15:05:24Z</time>
      </trkpt>
      <trkpt lat="43.478185" lon="-8.317986">
        <ele>199.466</ele>
        <time>2016-09-22T15:05:29Z</time>
      </trkpt>
      <trkpt lat="43.478197" lon="-8.317954">
        <ele>200.044</ele>
        <time>2016-09-22T15:05:30Z</time>
      </trkpt>
      <trkpt lat="43.478261" lon="-8.317775">
        <ele>201.042</ele>
        <time>2016-09-22T15:05:36Z</time>
      </trkpt>
      <trkpt lat="43.478273" lon="-8.317745">
        <ele>201.262</ele>
        <time>2016-09-22T15:05:37Z</time>
      </trkpt>
      <trkpt lat="43.478315" lon="-8.317650">
        <ele>202.074</ele>
        <time>2016-09-22T15:05:40Z</time>
      </trkpt>
      <trkpt lat="43.478385" lon="-8.317490">
        <ele>203.216</ele>
        <time>2016-09-22T15:05:45Z</time>
      </trkpt>
      <trkpt lat="43.478400" lon="-8.317459">
        <ele>203.629</ele>
        <time>2016-09-22T15:05:46Z</time>
      </trkpt>
      <trkpt lat="43.478456" lon="-8.317329">
        <ele>204.200</ele>
        <time>2016-09-22T15:05:50Z</time>
      </trkpt>
      <trkpt lat="43.478547" lon="-8.317140">
        <ele>205.420</ele>
        <time>2016-09-22T15:05:56Z</time>
      </trkpt>
      <trkpt lat="43.478628" lon="-8.316987">
        <ele>206.408</ele>
        <time>2016-09-22T15:06:01Z</time>
      </trkpt>
      <trkpt lat="43.478698" lon="-8.316878">
        <ele>207.693</ele>
        <time>2016-09-22T15:06:05Z</time>
      </trkpt>
      <trkpt lat="43.478790" lon="-8.316752">
        <ele>208.677</ele>
        <time>2016-09-22T15:06:10Z</time>
      </trkpt>
      <trkpt lat="43.478881" lon="-8.316628">
        <ele>209.472</ele>
        <time>2016-09-22T15:06:15Z</time>
      </trkpt>
      <trkpt lat="43.478898" lon="-8.316602">
        <ele>209.670</ele>
        <time>2016-09-22T15:06:16Z</time>
      </trkpt>
      <trkpt lat="43.478969" lon="-8.316502">
        <ele>210.888</ele>
        <time>2016-09-22T15:06:20Z</time>
      </trkpt>
      <trkpt lat="43.479059" lon="-8.316383">
        <ele>211.828</ele>
        <time>2016-09-22T15:06:25Z</time>
      </trkpt>
      <trkpt lat="43.479078" lon="-8.316360">
        <ele>212.270</ele>
        <time>2016-09-22T15:06:26Z</time>
      </trkpt>
      <trkpt lat="43.479159" lon="-8.316279">
        <ele>213.072</ele>
        <time>2016-09-22T15:06:30Z</time>
      </trkpt>
      <trkpt lat="43.479254" lon="-8.316224">
        <ele>214.053</ele>
        <time>2016-09-22T15:06:34Z</time>
      </trkpt>
      <trkpt lat="43.479377" lon="-8.316091">
        <ele>214.404</ele>
        <time>2016-09-22T15:06:40Z</time>
      </trkpt>
      <trkpt lat="43.479462" lon="-8.315917">
        <ele>214.214</ele>
        <time>2016-09-22T15:06:44Z</time>
      </trkpt>
      <trkpt lat="43.479498" lon="-8.315840">
        <ele>214.008</ele>
        <time>2016-09-22T15:06:46Z</time>
      </trkpt>
      <trkpt lat="43.479696" lon="-8.315582">
        <ele>214.096</ele>
        <time>2016-09-22T15:06:54Z</time>
      </trkpt>
      <trkpt lat="43.479935" lon="-8.315429">
        <ele>214.080</ele>
        <time>2016-09-22T15:07:01Z</time>
      </trkpt>
      <trkpt lat="43.480219" lon="-8.315252">
        <ele>213.435</ele>
        <time>2016-09-22T15:07:09Z</time>
      </trkpt>
      <trkpt lat="43.480248" lon="-8.315214">
        <ele>213.433</ele>
        <time>2016-09-22T15:07:10Z</time>
      </trkpt>
      <trkpt lat="43.480366" lon="-8.315059">
        <ele>213.091</ele>
        <time>2016-09-22T15:07:14Z</time>
      </trkpt>
      <trkpt lat="43.480464" lon="-8.314975">
        <ele>212.671</ele>
        <time>2016-09-22T15:07:17Z</time>
      </trkpt>
      <trkpt lat="43.480542" lon="-8.314948">
        <ele>212.223</ele>
        <time>2016-09-22T15:07:19Z</time>
      </trkpt>
      <trkpt lat="43.480600" lon="-8.314933">
        <ele>211.875</ele>
        <time>2016-09-22T15:07:21Z</time>
      </trkpt>
      <trkpt lat="43.480660" lon="-8.314898">
        <ele>210.815</ele>
        <time>2016-09-22T15:07:24Z</time>
      </trkpt>
      <trkpt lat="43.480753" lon="-8.314850">
        <ele>209.465</ele>
        <time>2016-09-22T15:07:28Z</time>
      </trkpt>
      <trkpt lat="43.480802" lon="-8.314809">
        <ele>208.211</ele>
        <time>2016-09-22T15:07:30Z</time>
      </trkpt>
      <trkpt lat="43.480827" lon="-8.314789">
        <ele>207.608</ele>
        <time>2016-09-22T15:07:31Z</time>
      </trkpt>
      <trkpt lat="43.480855" lon="-8.314773">
        <ele>207.212</ele>
        <time>2016-09-22T15:07:32Z</time>
      </trkpt>
      <trkpt lat="43.480932" lon="-8.314719">
        <ele>205.466</ele>
        <time>2016-09-22T15:07:35Z</time>
      </trkpt>
      <trkpt lat="43.480986" lon="-8.314676">
        <ele>204.651</ele>
        <time>2016-09-22T15:07:37Z</time>
      </trkpt>
      <trkpt lat="43.481014" lon="-8.314643">
        <ele>204.099</ele>
        <time>2016-09-22T15:07:38Z</time>
      </trkpt>
      <trkpt lat="43.481080" lon="-8.314514">
        <ele>202.667</ele>
        <time>2016-09-22T15:07:41Z</time>
      </trkpt>
      <trkpt lat="43.481123" lon="-8.314404">
        <ele>201.697</ele>
        <time>2016-09-22T15:07:44Z</time>
      </trkpt>
      <trkpt lat="43.481136" lon="-8.314365">
        <ele>201.459</ele>
        <time>2016-09-22T15:07:45Z</time>
      </trkpt>
      <trkpt lat="43.481178" lon="-8.314243">
        <ele>200.431</ele>
        <time>2016-09-22T15:07:48Z</time>
      </trkpt>
      <trkpt lat="43.481227" lon="-8.314127">
        <ele>200.013</ele>
        <time>2016-09-22T15:07:51Z</time>
      </trkpt>
      <trkpt lat="43.481301" lon="-8.313924">
        <ele>199.443</ele>
        <time>2016-09-22T15:07:56Z</time>
      </trkpt>
      <trkpt lat="43.481374" lon="-8.313657">
        <ele>198.807</ele>
        <time>2016-09-22T15:08:03Z</time>
      </trkpt>
      <trkpt lat="43.481390" lon="-8.313624">
        <ele>198.408</ele>
        <time>2016-09-22T15:08:04Z</time>
      </trkpt>
      <trkpt lat="43.481428" lon="-8.313487">
        <ele>197.482</ele>
        <time>2016-09-22T15:08:08Z</time>
      </trkpt>
      <trkpt lat="43.481439" lon="-8.313468">
        <ele>197.246</ele>
        <time>2016-09-22T15:08:09Z</time>
      </trkpt>
      <trkpt lat="43.481486" lon="-8.313378">
        <ele>196.031</ele>
        <time>2016-09-22T15:08:14Z</time>
      </trkpt>
      <trkpt lat="43.481554" lon="-8.313253">
        <ele>194.899</ele>
        <time>2016-09-22T15:08:19Z</time>
      </trkpt>
      <trkpt lat="43.481626" lon="-8.313132">
        <ele>194.047</ele>
        <time>2016-09-22T15:08:24Z</time>
      </trkpt>
      <trkpt lat="43.481647" lon="-8.313091">
        <ele>193.457</ele>
        <time>2016-09-22T15:08:25Z</time>
      </trkpt>
      <trkpt lat="43.481670" lon="-8.313048">
        <ele>193.079</ele>
        <time>2016-09-22T15:08:26Z</time>
      </trkpt>
      <trkpt lat="43.481689" lon="-8.313014">
        <ele>192.821</ele>
        <time>2016-09-22T15:08:27Z</time>
      </trkpt>
      <trkpt lat="43.481735" lon="-8.312931">
        <ele>192.041</ele>
        <time>2016-09-22T15:08:30Z</time>
      </trkpt>
      <trkpt lat="43.481762" lon="-8.312874">
        <ele>191.681</ele>
        <time>2016-09-22T15:08:32Z</time>
      </trkpt>
      <trkpt lat="43.481799" lon="-8.312780">
        <ele>190.409</ele>
        <time>2016-09-22T15:08:35Z</time>
      </trkpt>
      <trkpt lat="43.481808" lon="-8.312754">
        <ele>189.808</ele>
        <time>2016-09-22T15:08:36Z</time>
      </trkpt>
      <trkpt lat="43.481813" lon="-8.312697">
        <ele>189.245</ele>
        <time>2016-09-22T15:08:39Z</time>
      </trkpt>
      <trkpt lat="43.481826" lon="-8.312642">
        <ele>188.469</ele>
        <time>2016-09-22T15:08:42Z</time>
      </trkpt>
      <trkpt lat="43.481834" lon="-8.312611">
        <ele>188.034</ele>
        <time>2016-09-22T15:08:44Z</time>
      </trkpt>
      <trkpt lat="43.481859" lon="-8.312538">
        <ele>187.292</ele>
        <time>2016-09-22T15:08:47Z</time>
      </trkpt>
      <trkpt lat="43.481863" lon="-8.312512">
        <ele>186.860</ele>
        <time>2016-09-22T15:08:48Z</time>
      </trkpt>
      <trkpt lat="43.481871" lon="-8.312444">
        <ele>185.890</ele>
        <time>2016-09-22T15:08:51Z</time>
      </trkpt>
      <trkpt lat="43.481878" lon="-8.312421">
        <ele>185.422</ele>
        <time>2016-09-22T15:08:52Z</time>
      </trkpt>
      <trkpt lat="43.481897" lon="-8.312349">
        <ele>184.494</ele>
        <time>2016-09-22T15:08:55Z</time>
      </trkpt>
      <trkpt lat="43.481918" lon="-8.312305">
        <ele>183.627</ele>
        <time>2016-09-22T15:08:58Z</time>
      </trkpt>
      <trkpt lat="43.481926" lon="-8.312273">
        <ele>183.268</ele>
        <time>2016-09-22T15:09:00Z</time>
      </trkpt>
      <trkpt lat="43.481946" lon="-8.312211">
        <ele>182.814</ele>
        <time>2016-09-22T15:09:03Z</time>
      </trkpt>
      <trkpt lat="43.481957" lon="-8.312189">
        <ele>182.408</ele>
        <time>2016-09-22T15:09:04Z</time>
      </trkpt>
      <trkpt lat="43.481967" lon="-8.312172">
        <ele>182.273</ele>
        <time>2016-09-22T15:09:05Z</time>
      </trkpt>
      <trkpt lat="43.481996" lon="-8.312113">
        <ele>180.427</ele>
        <time>2016-09-22T15:09:08Z</time>
      </trkpt>
      <trkpt lat="43.482002" lon="-8.312095">
        <ele>180.012</ele>
        <time>2016-09-22T15:09:09Z</time>
      </trkpt>
      <trkpt lat="43.482009" lon="-8.312052">
        <ele>179.680</ele>
        <time>2016-09-22T15:09:11Z</time>
      </trkpt>
      <trkpt lat="43.482029" lon="-8.311978">
        <ele>178.658</ele>
        <time>2016-09-22T15:09:14Z</time>
      </trkpt>
      <trkpt lat="43.482044" lon="-8.311930">
        <ele>177.428</ele>
        <time>2016-09-22T15:09:16Z</time>
      </trkpt>
      <trkpt lat="43.482091" lon="-8.311801">
        <ele>176.240</ele>
        <time>2016-09-22T15:09:21Z</time>
      </trkpt>
      <trkpt lat="43.482102" lon="-8.311772">
        <ele>175.882</ele>
        <time>2016-09-22T15:09:22Z</time>
      </trkpt>
      <trkpt lat="43.482116" lon="-8.311724">
        <ele>175.014</ele>
        <time>2016-09-22T15:09:24Z</time>
      </trkpt>
      <trkpt lat="43.482139" lon="-8.311602">
        <ele>174.054</ele>
        <time>2016-09-22T15:09:28Z</time>
      </trkpt>
      <trkpt lat="43.482144" lon="-8.311477">
        <ele>173.009</ele>
        <time>2016-09-22T15:09:32Z</time>
      </trkpt>
      <trkpt lat="43.482150" lon="-8.311451">
        <ele>172.608</ele>
        <time>2016-09-22T15:09:33Z</time>
      </trkpt>
      <trkpt lat="43.482163" lon="-8.311400">
        <ele>171.832</ele>
        <time>2016-09-22T15:09:35Z</time>
      </trkpt>
      <trkpt lat="43.482171" lon="-8.311374">
        <ele>171.096</ele>
        <time>2016-09-22T15:09:38Z</time>
      </trkpt>
      <trkpt lat="43.482196" lon="-8.311149">
        <ele>166.091</ele>
        <time>2016-09-22T15:10:18Z</time>
      </trkpt>
      <trkpt lat="43.482098" lon="-8.311187">
        <ele>164.699</ele>
        <time>2016-09-22T15:10:22Z</time>
      </trkpt>
      <trkpt lat="43.482040" lon="-8.311215">
        <ele>164.087</ele>
        <time>2016-09-22T15:10:24Z</time>
      </trkpt>
      <trkpt lat="43.481985" lon="-8.311240">
        <ele>163.477</ele>
        <time>2016-09-22T15:10:26Z</time>
      </trkpt>
      <trkpt lat="43.481913" lon="-8.311264">
        <ele>162.059</ele>
        <time>2016-09-22T15:10:29Z</time>
      </trkpt>
      <trkpt lat="43.481811" lon="-8.311309">
        <ele>160.611</ele>
        <time>2016-09-22T15:10:33Z</time>
      </trkpt>
      <trkpt lat="43.481769" lon="-8.311293">
        <ele>159.817</ele>
        <time>2016-09-22T15:10:34Z</time>
      </trkpt>
      <trkpt lat="43.481723" lon="-8.311268">
        <ele>159.487</ele>
        <time>2016-09-22T15:10:35Z</time>
      </trkpt>
      <trkpt lat="43.481615" lon="-8.311211">
        <ele>158.415</ele>
        <time>2016-09-22T15:10:37Z</time>
      </trkpt>
      <trkpt lat="43.481554" lon="-8.311188">
        <ele>158.208</ele>
        <time>2016-09-22T15:10:38Z</time>
      </trkpt>
      <trkpt lat="43.481315" lon="-8.311148">
        <ele>156.452</ele>
        <time>2016-09-22T15:10:42Z</time>
      </trkpt>
      <trkpt lat="43.481261" lon="-8.311143">
        <ele>156.076</ele>
        <time>2016-09-22T15:10:43Z</time>
      </trkpt>
      <trkpt lat="43.481204" lon="-8.311142">
        <ele>155.661</ele>
        <time>2016-09-22T15:10:44Z</time>
      </trkpt>
      <trkpt lat="43.481141" lon="-8.311151">
        <ele>155.229</ele>
        <time>2016-09-22T15:10:45Z</time>
      </trkpt>
      <trkpt lat="43.481003" lon="-8.311182">
        <ele>154.257</ele>
        <time>2016-09-22T15:10:47Z</time>
      </trkpt>
      <trkpt lat="43.480934" lon="-8.311184">
        <ele>153.617</ele>
        <time>2016-09-22T15:10:48Z</time>
      </trkpt>
      <trkpt lat="43.480805" lon="-8.311156">
        <ele>152.429</ele>
        <time>2016-09-22T15:10:50Z</time>
      </trkpt>
      <trkpt lat="43.480746" lon="-8.311131">
        <ele>152.031</ele>
        <time>2016-09-22T15:10:51Z</time>
      </trkpt>
      <trkpt lat="43.480697" lon="-8.311084">
        <ele>151.454</ele>
        <time>2016-09-22T15:10:52Z</time>
      </trkpt>
      <trkpt lat="43.480625" lon="-8.310982">
        <ele>150.656</ele>
        <time>2016-09-22T15:10:54Z</time>
      </trkpt>
      <trkpt lat="43.480585" lon="-8.310947">
        <ele>150.211</ele>
        <time>2016-09-22T15:10:55Z</time>
      </trkpt>
      <trkpt lat="43.480491" lon="-8.310914">
        <ele>149.408</ele>
        <time>2016-09-22T15:10:57Z</time>
      </trkpt>
      <trkpt lat="43.480442" lon="-8.310911">
        <ele>149.066</ele>
        <time>2016-09-22T15:10:58Z</time>
      </trkpt>
      <trkpt lat="43.480259" lon="-8.310957">
        <ele>148.420</ele>
        <time>2016-09-22T15:11:02Z</time>
      </trkpt>
      <trkpt lat="43.480210" lon="-8.310974">
        <ele>147.835</ele>
        <time>2016-09-22T15:11:03Z</time>
      </trkpt>
      <trkpt lat="43.480165" lon="-8.310981">
        <ele>147.453</ele>
        <time>2016-09-22T15:11:04Z</time>
      </trkpt>
      <trkpt lat="43.480104" lon="-8.310919">
        <ele>146.621</ele>
        <time>2016-09-22T15:11:06Z</time>
      </trkpt>
      <trkpt lat="43.480106" lon="-8.310695">
        <ele>145.421</ele>
        <time>2016-09-22T15:11:09Z</time>
      </trkpt>
      <trkpt lat="43.480121" lon="-8.310608">
        <ele>145.023</ele>
        <time>2016-09-22T15:11:10Z</time>
      </trkpt>
      <trkpt lat="43.480149" lon="-8.310418">
        <ele>144.295</ele>
        <time>2016-09-22T15:11:12Z</time>
      </trkpt>
      <trkpt lat="43.480181" lon="-8.310221">
        <ele>143.224</ele>
        <time>2016-09-22T15:11:14Z</time>
      </trkpt>
      <trkpt lat="43.480198" lon="-8.310122">
        <ele>142.804</ele>
        <time>2016-09-22T15:11:15Z</time>
      </trkpt>
      <trkpt lat="43.480250" lon="-8.309833">
        <ele>142.014</ele>
        <time>2016-09-22T15:11:18Z</time>
      </trkpt>
      <trkpt lat="43.480292" lon="-8.309565">
        <ele>141.208</ele>
        <time>2016-09-22T15:11:21Z</time>
      </trkpt>
      <trkpt lat="43.480276" lon="-8.309485">
        <ele>141.043</ele>
        <time>2016-09-22T15:11:22Z</time>
      </trkpt>
      <trkpt lat="43.480238" lon="-8.309429">
        <ele>140.817</ele>
        <time>2016-09-22T15:11:23Z</time>
      </trkpt>
      <trkpt lat="43.480147" lon="-8.309421">
        <ele>140.652</ele>
        <time>2016-09-22T15:11:25Z</time>
      </trkpt>
      <trkpt lat="43.480108" lon="-8.309448">
        <ele>140.610</ele>
        <time>2016-09-22T15:11:26Z</time>
      </trkpt>
      <trkpt lat="43.480035" lon="-8.309520">
        <ele>140.618</ele>
        <time>2016-09-22T15:11:28Z</time>
      </trkpt>
      <trkpt lat="43.479998" lon="-8.309554">
        <ele>141.088</ele>
        <time>2016-09-22T15:11:29Z</time>
      </trkpt>
      <trkpt lat="43.479963" lon="-8.309583">
        <ele>141.260</ele>
        <time>2016-09-22T15:11:30Z</time>
      </trkpt>
      <trkpt lat="43.479897" lon="-8.309631">
        <ele>142.082</ele>
        <time>2016-09-22T15:11:32Z</time>
      </trkpt>
      <trkpt lat="43.479796" lon="-8.309676">
        <ele>142.829</ele>
        <time>2016-09-22T15:11:35Z</time>
      </trkpt>
      <trkpt lat="43.479759" lon="-8.309691">
        <ele>143.000</ele>
        <time>2016-09-22T15:11:36Z</time>
      </trkpt>
      <trkpt lat="43.479646" lon="-8.309682">
        <ele>143.820</ele>
        <time>2016-09-22T15:11:39Z</time>
      </trkpt>
      <trkpt lat="43.479573" lon="-8.309661">
        <ele>144.208</ele>
        <time>2016-09-22T15:11:41Z</time>
      </trkpt>
      <trkpt lat="43.479344" lon="-8.309541">
        <ele>144.893</ele>
        <time>2016-09-22T15:11:47Z</time>
      </trkpt>
      <trkpt lat="43.479266" lon="-8.309490">
        <ele>144.637</ele>
        <time>2016-09-22T15:11:49Z</time>
      </trkpt>
      <trkpt lat="43.479178" lon="-8.309383">
        <ele>144.242</ele>
        <time>2016-09-22T15:11:52Z</time>
      </trkpt>
      <trkpt lat="43.479160" lon="-8.309356">
        <ele>144.230</ele>
        <time>2016-09-22T15:11:53Z</time>
      </trkpt>
      <trkpt lat="43.479138" lon="-8.309315">
        <ele>144.258</ele>
        <time>2016-09-22T15:11:56Z</time>
      </trkpt>
      <trkpt lat="43.479138" lon="-8.309316">
        <ele>144.228</ele>
        <time>2016-09-22T15:11:57Z</time>
      </trkpt>
      <trkpt lat="43.479133" lon="-8.309254">
        <ele>144.450</ele>
        <time>2016-09-22T15:12:28Z</time>
      </trkpt>
      <trkpt lat="43.479117" lon="-8.309219">
        <ele>144.852</ele>
        <time>2016-09-22T15:12:30Z</time>
      </trkpt>
      <trkpt lat="43.479071" lon="-8.309149">
        <ele>145.418</ele>
        <time>2016-09-22T15:12:34Z</time>
      </trkpt>
      <trkpt lat="43.479039" lon="-8.309114">
        <ele>145.898</ele>
        <time>2016-09-22T15:12:36Z</time>
      </trkpt>
      <trkpt lat="43.479020" lon="-8.309105">
        <ele>145.817</ele>
        <time>2016-09-22T15:12:37Z</time>
      </trkpt>
      <trkpt lat="43.478958" lon="-8.309104">
        <ele>146.408</ele>
        <time>2016-09-22T15:12:40Z</time>
      </trkpt>
      <trkpt lat="43.478920" lon="-8.309093">
        <ele>146.892</ele>
        <time>2016-09-22T15:12:42Z</time>
      </trkpt>
      <trkpt lat="43.478902" lon="-8.309088">
        <ele>147.636</ele>
        <time>2016-09-22T15:12:43Z</time>
      </trkpt>
      <trkpt lat="43.478833" lon="-8.309070">
        <ele>148.811</ele>
        <time>2016-09-22T15:12:47Z</time>
      </trkpt>
      <trkpt lat="43.478736" lon="-8.309071">
        <ele>150.249</ele>
        <time>2016-09-22T15:12:53Z</time>
      </trkpt>
      <trkpt lat="43.478695" lon="-8.309096">
        <ele>151.667</ele>
        <time>2016-09-22T15:12:56Z</time>
      </trkpt>
      <trkpt lat="43.478661" lon="-8.309107">
        <ele>152.657</ele>
        <time>2016-09-22T15:12:59Z</time>
      </trkpt>
      <trkpt lat="43.478572" lon="-8.309168">
        <ele>153.659</ele>
        <time>2016-09-22T15:13:05Z</time>
      </trkpt>
      <trkpt lat="43.478546" lon="-8.309205">
        <ele>153.891</ele>
        <time>2016-09-22T15:13:07Z</time>
      </trkpt>
      <trkpt lat="43.478445" lon="-8.309327">
        <ele>154.237</ele>
        <time>2016-09-22T15:13:13Z</time>
      </trkpt>
      <trkpt lat="43.478256" lon="-8.309459">
        <ele>154.249</ele>
        <time>2016-09-22T15:13:19Z</time>
      </trkpt>
      <trkpt lat="43.478204" lon="-8.309481">
        <ele>153.613</ele>
        <time>2016-09-22T15:13:20Z</time>
      </trkpt>
      <trkpt lat="43.478074" lon="-8.309509">
        <ele>152.808</ele>
        <time>2016-09-22T15:13:22Z</time>
      </trkpt>
      <trkpt lat="43.478005" lon="-8.309513">
        <ele>152.244</ele>
        <time>2016-09-22T15:13:23Z</time>
      </trkpt>
      <trkpt lat="43.477943" lon="-8.309504">
        <ele>151.878</ele>
        <time>2016-09-22T15:13:24Z</time>
      </trkpt>
      <trkpt lat="43.477846" lon="-8.309469">
        <ele>151.253</ele>
        <time>2016-09-22T15:13:26Z</time>
      </trkpt>
      <trkpt lat="43.477726" lon="-8.309430">
        <ele>151.291</ele>
        <time>2016-09-22T15:13:30Z</time>
      </trkpt>
      <trkpt lat="43.477700" lon="-8.309424">
        <ele>151.499</ele>
        <time>2016-09-22T15:13:31Z</time>
      </trkpt>
      <trkpt lat="43.477631" lon="-8.309386">
        <ele>152.069</ele>
        <time>2016-09-22T15:13:34Z</time>
      </trkpt>
      <trkpt lat="43.477543" lon="-8.309341">
        <ele>152.871</ele>
        <time>2016-09-22T15:13:38Z</time>
      </trkpt>
      <trkpt lat="43.477477" lon="-8.309307">
        <ele>153.693</ele>
        <time>2016-09-22T15:13:41Z</time>
      </trkpt>
      <trkpt lat="43.477384" lon="-8.309237">
        <ele>154.076</ele>
        <time>2016-09-22T15:13:45Z</time>
      </trkpt>
      <trkpt lat="43.477311" lon="-8.309201">
        <ele>154.690</ele>
        <time>2016-09-22T15:13:48Z</time>
      </trkpt>
      <trkpt lat="43.477194" lon="-8.309137">
        <ele>155.219</ele>
        <time>2016-09-22T15:13:53Z</time>
      </trkpt>
      <trkpt lat="43.477146" lon="-8.309107">
        <ele>155.208</ele>
        <time>2016-09-22T15:13:55Z</time>
      </trkpt>
      <trkpt lat="43.477033" lon="-8.309014">
        <ele>156.248</ele>
        <time>2016-09-22T15:14:00Z</time>
      </trkpt>
      <trkpt lat="43.476974" lon="-8.308944">
        <ele>156.662</ele>
        <time>2016-09-22T15:14:03Z</time>
      </trkpt>
      <trkpt lat="43.476816" lon="-8.308731">
        <ele>157.487</ele>
        <time>2016-09-22T15:14:11Z</time>
      </trkpt>
      <trkpt lat="43.476712" lon="-8.308557">
        <ele>157.625</ele>
        <time>2016-09-22T15:14:17Z</time>
      </trkpt>
      <trkpt lat="43.476682" lon="-8.308506">
        <ele>158.293</ele>
        <time>2016-09-22T15:14:19Z</time>
      </trkpt>
      <trkpt lat="43.476591" lon="-8.308406">
        <ele>159.053</ele>
        <time>2016-09-22T15:14:24Z</time>
      </trkpt>
      <trkpt lat="43.476539" lon="-8.308392">
        <ele>159.465</ele>
        <time>2016-09-22T15:14:26Z</time>
      </trkpt>
      <trkpt lat="43.476455" lon="-8.308393">
        <ele>160.267</ele>
        <time>2016-09-22T15:14:29Z</time>
      </trkpt>
      <trkpt lat="43.476411" lon="-8.308415">
        <ele>160.648</ele>
        <time>2016-09-22T15:14:31Z</time>
      </trkpt>
      <trkpt lat="43.476305" lon="-8.308502">
        <ele>161.061</ele>
        <time>2016-09-22T15:14:36Z</time>
      </trkpt>
      <trkpt lat="43.476264" lon="-8.308548">
        <ele>161.017</ele>
        <time>2016-09-22T15:14:38Z</time>
      </trkpt>
      <trkpt lat="43.476243" lon="-8.308575">
        <ele>161.208</ele>
        <time>2016-09-22T15:14:39Z</time>
      </trkpt>
      <trkpt lat="43.476125" lon="-8.308706">
        <ele>162.075</ele>
        <time>2016-09-22T15:14:45Z</time>
      </trkpt>
      <trkpt lat="43.476080" lon="-8.308744">
        <ele>162.439</ele>
        <time>2016-09-22T15:14:47Z</time>
      </trkpt>
      <trkpt lat="43.475957" lon="-8.308818">
        <ele>163.074</ele>
        <time>2016-09-22T15:14:52Z</time>
      </trkpt>
      <trkpt lat="43.475753" lon="-8.308945">
        <ele>163.482</ele>
        <time>2016-09-22T15:15:00Z</time>
      </trkpt>
      <trkpt lat="43.475588" lon="-8.309060">
        <ele>164.420</ele>
        <time>2016-09-22T15:15:07Z</time>
      </trkpt>
      <trkpt lat="43.475471" lon="-8.309147">
        <ele>165.650</ele>
        <time>2016-09-22T15:15:13Z</time>
      </trkpt>
      <trkpt lat="43.475355" lon="-8.309211">
        <ele>166.812</ele>
        <time>2016-09-22T15:15:18Z</time>
      </trkpt>
      <trkpt lat="43.475334" lon="-8.309214">
        <ele>167.094</ele>
        <time>2016-09-22T15:15:19Z</time>
      </trkpt>
      <trkpt lat="43.475248" lon="-8.309241">
        <ele>167.823</ele>
        <time>2016-09-22T15:15:23Z</time>
      </trkpt>
      <trkpt lat="43.475202" lon="-8.309266">
        <ele>168.283</ele>
        <time>2016-09-22T15:15:25Z</time>
      </trkpt>
      <trkpt lat="43.475093" lon="-8.309319">
        <ele>169.011</ele>
        <time>2016-09-22T15:15:30Z</time>
      </trkpt>
      <trkpt lat="43.474965" lon="-8.309404">
        <ele>169.608</ele>
        <time>2016-09-22T15:15:35Z</time>
      </trkpt>
      <trkpt lat="43.474866" lon="-8.309455">
        <ele>170.293</ele>
        <time>2016-09-22T15:15:38Z</time>
      </trkpt>
      <trkpt lat="43.474776" lon="-8.309507">
        <ele>171.217</ele>
        <time>2016-09-22T15:15:41Z</time>
      </trkpt>
      <trkpt lat="43.474716" lon="-8.309536">
        <ele>171.642</ele>
        <time>2016-09-22T15:15:43Z</time>
      </trkpt>
      <trkpt lat="43.474512" lon="-8.309618">
        <ele>172.280</ele>
        <time>2016-09-22T15:15:50Z</time>
      </trkpt>
      <trkpt lat="43.474482" lon="-8.309629">
        <ele>172.448</ele>
        <time>2016-09-22T15:15:51Z</time>
      </trkpt>
      <trkpt lat="43.474225" lon="-8.309659">
        <ele>173.438</ele>
        <time>2016-09-22T15:16:00Z</time>
      </trkpt>
      <trkpt lat="43.474076" lon="-8.309632">
        <ele>174.660</ele>
        <time>2016-09-22T15:16:06Z</time>
      </trkpt>
      <trkpt lat="43.473981" lon="-8.309643">
        <ele>175.472</ele>
        <time>2016-09-22T15:16:10Z</time>
      </trkpt>
      <trkpt lat="43.473956" lon="-8.309633">
        <ele>175.685</ele>
        <time>2016-09-22T15:16:11Z</time>
      </trkpt>
      <trkpt lat="43.473815" lon="-8.309583">
        <ele>176.889</ele>
        <time>2016-09-22T15:16:17Z</time>
      </trkpt>
      <trkpt lat="43.473702" lon="-8.309562">
        <ele>177.817</ele>
        <time>2016-09-22T15:16:22Z</time>
      </trkpt>
      <trkpt lat="43.473641" lon="-8.309535">
        <ele>178.408</ele>
        <time>2016-09-22T15:16:25Z</time>
      </trkpt>
      <trkpt lat="43.473610" lon="-8.309503">
        <ele>179.069</ele>
        <time>2016-09-22T15:16:27Z</time>
      </trkpt>
      <trkpt lat="43.473565" lon="-8.309411">
        <ele>179.633</ele>
        <time>2016-09-22T15:16:31Z</time>
      </trkpt>
      <trkpt lat="43.473567" lon="-8.309315">
        <ele>180.068</ele>
        <time>2016-09-22T15:16:34Z</time>
      </trkpt>
      <trkpt lat="43.473566" lon="-8.309183">
        <ele>180.866</ele>
        <time>2016-09-22T15:16:38Z</time>
      </trkpt>
      <trkpt lat="43.473559" lon="-8.309119">
        <ele>181.274</ele>
        <time>2016-09-22T15:16:40Z</time>
      </trkpt>
      <trkpt lat="43.473541" lon="-8.308929">
        <ele>181.854</ele>
        <time>2016-09-22T15:16:46Z</time>
      </trkpt>
      <trkpt lat="43.473533" lon="-8.308866">
        <ele>182.216</ele>
        <time>2016-09-22T15:16:48Z</time>
      </trkpt>
      <trkpt lat="43.473525" lon="-8.308750">
        <ele>183.268</ele>
        <time>2016-09-22T15:16:52Z</time>
      </trkpt>
      <trkpt lat="43.473524" lon="-8.308729">
        <ele>183.215</ele>
        <time>2016-09-22T15:16:53Z</time>
      </trkpt>
      <trkpt lat="43.473534" lon="-8.308593">
        <ele>184.665</ele>
        <time>2016-09-22T15:16:59Z</time>
      </trkpt>
      <trkpt lat="43.473538" lon="-8.308571">
        <ele>184.811</ele>
        <time>2016-09-22T15:17:00Z</time>
      </trkpt>
      <trkpt lat="43.473559" lon="-8.308466">
        <ele>185.808</ele>
        <time>2016-09-22T15:17:05Z</time>
      </trkpt>
      <trkpt lat="43.473578" lon="-8.308415">
        <ele>186.812</ele>
        <time>2016-09-22T15:17:08Z</time>
      </trkpt>
      <trkpt lat="43.473583" lon="-8.308400">
        <ele>187.076</ele>
        <time>2016-09-22T15:17:09Z</time>
      </trkpt>
      <trkpt lat="43.473612" lon="-8.308320">
        <ele>187.841</ele>
        <time>2016-09-22T15:17:14Z</time>
      </trkpt>
      <trkpt lat="43.473618" lon="-8.308306">
        <ele>188.059</ele>
        <time>2016-09-22T15:17:15Z</time>
      </trkpt>
      <trkpt lat="43.473624" lon="-8.308276">
        <ele>188.437</ele>
        <time>2016-09-22T15:17:17Z</time>
      </trkpt>
      <trkpt lat="43.473621" lon="-8.308263">
        <ele>189.077</ele>
        <time>2016-09-22T15:17:20Z</time>
      </trkpt>
      <trkpt lat="43.473623" lon="-8.308264">
        <ele>189.059</ele>
        <time>2016-09-22T15:17:21Z</time>
      </trkpt>
      <trkpt lat="43.473643" lon="-8.308143">
        <ele>189.891</ele>
        <time>2016-09-22T15:18:19Z</time>
      </trkpt>
      <trkpt lat="43.473658" lon="-8.308084">
        <ele>190.432</ele>
        <time>2016-09-22T15:18:22Z</time>
      </trkpt>
      <trkpt lat="43.473678" lon="-8.307997">
        <ele>191.092</ele>
        <time>2016-09-22T15:18:26Z</time>
      </trkpt>
      <trkpt lat="43.473693" lon="-8.307917">
        <ele>192.211</ele>
        <time>2016-09-22T15:18:30Z</time>
      </trkpt>
      <trkpt lat="43.473716" lon="-8.307817">
        <ele>193.408</ele>
        <time>2016-09-22T15:18:35Z</time>
      </trkpt>
      <trkpt lat="43.473722" lon="-8.307773">
        <ele>193.844</ele>
        <time>2016-09-22T15:18:37Z</time>
      </trkpt>
      <trkpt lat="43.473737" lon="-8.307719">
        <ele>194.458</ele>
        <time>2016-09-22T15:18:40Z</time>
      </trkpt>
      <trkpt lat="43.473756" lon="-8.307639">
        <ele>195.043</ele>
        <time>2016-09-22T15:18:44Z</time>
      </trkpt>
      <trkpt lat="43.473755" lon="-8.307594">
        <ele>195.611</ele>
        <time>2016-09-22T15:18:46Z</time>
      </trkpt>
      <trkpt lat="43.473756" lon="-8.307535">
        <ele>196.889</ele>
        <time>2016-09-22T15:18:49Z</time>
      </trkpt>
      <trkpt lat="43.473760" lon="-8.307516">
        <ele>197.099</ele>
        <time>2016-09-22T15:18:50Z</time>
      </trkpt>
      <trkpt lat="43.473775" lon="-8.307458">
        <ele>197.841</ele>
        <time>2016-09-22T15:18:53Z</time>
      </trkpt>
      <trkpt lat="43.473790" lon="-8.307369">
        <ele>198.673</ele>
        <time>2016-09-22T15:18:58Z</time>
      </trkpt>
      <trkpt lat="43.473795" lon="-8.307352">
        <ele>198.847</ele>
        <time>2016-09-22T15:18:59Z</time>
      </trkpt>
      <trkpt lat="43.473820" lon="-8.307272">
        <ele>200.029</ele>
        <time>2016-09-22T15:19:04Z</time>
      </trkpt>
      <trkpt lat="43.473823" lon="-8.307238">
        <ele>200.221</ele>
        <time>2016-09-22T15:19:06Z</time>
      </trkpt>
      <trkpt lat="43.473826" lon="-8.307222">
        <ele>200.408</ele>
        <time>2016-09-22T15:19:07Z</time>
      </trkpt>
      <trkpt lat="43.473837" lon="-8.307191">
        <ele>201.075</ele>
        <time>2016-09-22T15:19:09Z</time>
      </trkpt>
      <trkpt lat="43.473851" lon="-8.307142">
        <ele>201.669</ele>
        <time>2016-09-22T15:19:12Z</time>
      </trkpt>
      <trkpt lat="43.473861" lon="-8.307107">
        <ele>202.294</ele>
        <time>2016-09-22T15:19:14Z</time>
      </trkpt>
      <trkpt lat="43.473885" lon="-8.307020">
        <ele>203.232</ele>
        <time>2016-09-22T15:19:19Z</time>
      </trkpt>
      <trkpt lat="43.473893" lon="-8.306986">
        <ele>203.640</ele>
        <time>2016-09-22T15:19:21Z</time>
      </trkpt>
      <trkpt lat="43.473915" lon="-8.306920">
        <ele>204.460</ele>
        <time>2016-09-22T15:19:25Z</time>
      </trkpt>
      <trkpt lat="43.473938" lon="-8.306843">
        <ele>205.022</ele>
        <time>2016-09-22T15:19:29Z</time>
      </trkpt>
      <trkpt lat="43.473945" lon="-8.306823">
        <ele>205.044</ele>
        <time>2016-09-22T15:19:30Z</time>
      </trkpt>
      <trkpt lat="43.473954" lon="-8.306803">
        <ele>205.448</ele>
        <time>2016-09-22T15:19:31Z</time>
      </trkpt>
      <trkpt lat="43.473992" lon="-8.306701">
        <ele>206.461</ele>
        <time>2016-09-22T15:19:36Z</time>
      </trkpt>
      <trkpt lat="43.473997" lon="-8.306680">
        <ele>206.417</ele>
        <time>2016-09-22T15:19:37Z</time>
      </trkpt>
      <trkpt lat="43.474045" lon="-8.306562">
        <ele>207.408</ele>
        <time>2016-09-22T15:19:43Z</time>
      </trkpt>
      <trkpt lat="43.474054" lon="-8.306544">
        <ele>207.625</ele>
        <time>2016-09-22T15:19:44Z</time>
      </trkpt>
      <trkpt lat="43.474095" lon="-8.306449">
        <ele>208.619</ele>
        <time>2016-09-22T15:19:49Z</time>
      </trkpt>
      <trkpt lat="43.474121" lon="-8.306393">
        <ele>208.824</ele>
        <time>2016-09-22T15:19:52Z</time>
      </trkpt>
      <trkpt lat="43.474171" lon="-8.306286">
        <ele>209.612</ele>
        <time>2016-09-22T15:19:58Z</time>
      </trkpt>
      <trkpt lat="43.474204" lon="-8.306212">
        <ele>210.480</ele>
        <time>2016-09-22T15:20:02Z</time>
      </trkpt>
      <trkpt lat="43.474212" lon="-8.306194">
        <ele>210.660</ele>
        <time>2016-09-22T15:20:03Z</time>
      </trkpt>
      <trkpt lat="43.474256" lon="-8.306129">
        <ele>211.862</ele>
        <time>2016-09-22T15:20:07Z</time>
      </trkpt>
      <trkpt lat="43.474295" lon="-8.306081">
        <ele>212.484</ele>
        <time>2016-09-22T15:20:10Z</time>
      </trkpt>
      <trkpt lat="43.474325" lon="-8.306026">
        <ele>213.045</ele>
        <time>2016-09-22T15:20:13Z</time>
      </trkpt>
      <trkpt lat="43.474373" lon="-8.305905">
        <ele>213.647</ele>
        <time>2016-09-22T15:20:19Z</time>
      </trkpt>
      <trkpt lat="43.474390" lon="-8.305864">
        <ele>214.011</ele>
        <time>2016-09-22T15:20:21Z</time>
      </trkpt>
      <trkpt lat="43.474427" lon="-8.305782">
        <ele>215.208</ele>
        <time>2016-09-22T15:20:25Z</time>
      </trkpt>
      <trkpt lat="43.474452" lon="-8.305713">
        <ele>215.835</ele>
        <time>2016-09-22T15:20:28Z</time>
      </trkpt>
      <trkpt lat="43.474468" lon="-8.305584">
        <ele>216.249</ele>
        <time>2016-09-22T15:20:33Z</time>
      </trkpt>
      <trkpt lat="43.474481" lon="-8.305536">
        <ele>216.484</ele>
        <time>2016-09-22T15:20:35Z</time>
      </trkpt>
      <trkpt lat="43.474549" lon="-8.305392">
        <ele>217.262</ele>
        <time>2016-09-22T15:20:41Z</time>
      </trkpt>
      <trkpt lat="43.474565" lon="-8.305368">
        <ele>217.480</ele>
        <time>2016-09-22T15:20:42Z</time>
      </trkpt>
      <trkpt lat="43.474703" lon="-8.305166">
        <ele>217.690</ele>
        <time>2016-09-22T15:20:50Z</time>
      </trkpt>
      <trkpt lat="43.474749" lon="-8.305022">
        <ele>216.852</ele>
        <time>2016-09-22T15:20:53Z</time>
      </trkpt>
      <trkpt lat="43.474766" lon="-8.304896">
        <ele>216.484</ele>
        <time>2016-09-22T15:20:55Z</time>
      </trkpt>
      <trkpt lat="43.474775" lon="-8.304756">
        <ele>216.231</ele>
        <time>2016-09-22T15:20:57Z</time>
      </trkpt>
      <trkpt lat="43.474779" lon="-8.304544">
        <ele>215.261</ele>
        <time>2016-09-22T15:21:00Z</time>
      </trkpt>
      <trkpt lat="43.474781" lon="-8.304407">
        <ele>214.607</ele>
        <time>2016-09-22T15:21:02Z</time>
      </trkpt>
      <trkpt lat="43.474791" lon="-8.304205">
        <ele>214.408</ele>
        <time>2016-09-22T15:21:05Z</time>
      </trkpt>
      <trkpt lat="43.474826" lon="-8.304005">
        <ele>214.224</ele>
        <time>2016-09-22T15:21:08Z</time>
      </trkpt>
      <trkpt lat="43.474864" lon="-8.303807">
        <ele>214.288</ele>
        <time>2016-09-22T15:21:11Z</time>
      </trkpt>
      <trkpt lat="43.474922" lon="-8.303549">
        <ele>214.243</ele>
        <time>2016-09-22T15:21:15Z</time>
      </trkpt>
      <trkpt lat="43.474969" lon="-8.303428">
        <ele>214.411</ele>
        <time>2016-09-22T15:21:17Z</time>
      </trkpt>
      <trkpt lat="43.475135" lon="-8.303091">
        <ele>214.499</ele>
        <time>2016-09-22T15:21:23Z</time>
      </trkpt>
      <trkpt lat="43.475209" lon="-8.302852">
        <ele>213.699</ele>
        <time>2016-09-22T15:21:27Z</time>
      </trkpt>
      <trkpt lat="43.475234" lon="-8.302733">
        <ele>213.681</ele>
        <time>2016-09-22T15:21:29Z</time>
      </trkpt>
      <trkpt lat="43.475276" lon="-8.302309">
        <ele>213.063</ele>
        <time>2016-09-22T15:21:35Z</time>
      </trkpt>
      <trkpt lat="43.475286" lon="-8.302243">
        <ele>212.814</ele>
        <time>2016-09-22T15:21:36Z</time>
      </trkpt>
      <trkpt lat="43.475369" lon="-8.301692">
        <ele>211.854</ele>
        <time>2016-09-22T15:21:44Z</time>
      </trkpt>
      <trkpt lat="43.475378" lon="-8.301624">
        <ele>211.609</ele>
        <time>2016-09-22T15:21:45Z</time>
      </trkpt>
      <trkpt lat="43.475454" lon="-8.301275">
        <ele>211.208</ele>
        <time>2016-09-22T15:21:51Z</time>
      </trkpt>
      <trkpt lat="43.475476" lon="-8.301171">
        <ele>211.212</ele>
        <time>2016-09-22T15:21:53Z</time>
      </trkpt>
      <trkpt lat="43.475476" lon="-8.301009">
        <ele>211.656</ele>
        <time>2016-09-22T15:21:56Z</time>
      </trkpt>
      <trkpt lat="43.475429" lon="-8.300787">
        <ele>211.861</ele>
        <time>2016-09-22T15:22:01Z</time>
      </trkpt>
      <trkpt lat="43.475307" lon="-8.300650">
        <ele>212.279</ele>
        <time>2016-09-22T15:22:06Z</time>
      </trkpt>
      <trkpt lat="43.475179" lon="-8.300581">
        <ele>212.897</ele>
        <time>2016-09-22T15:22:11Z</time>
      </trkpt>
      <trkpt lat="43.475158" lon="-8.300568">
        <ele>213.267</ele>
        <time>2016-09-22T15:22:12Z</time>
      </trkpt>
      <trkpt lat="43.475063" lon="-8.300498">
        <ele>214.089</ele>
        <time>2016-09-22T15:22:17Z</time>
      </trkpt>
      <trkpt lat="43.475045" lon="-8.300489">
        <ele>214.021</ele>
        <time>2016-09-22T15:22:18Z</time>
      </trkpt>
      <trkpt lat="43.474972" lon="-8.300460">
        <ele>215.095</ele>
        <time>2016-09-22T15:22:22Z</time>
      </trkpt>
      <trkpt lat="43.474919" lon="-8.300439">
        <ele>215.849</ele>
        <time>2016-09-22T15:22:25Z</time>
      </trkpt>
      <trkpt lat="43.474901" lon="-8.300435">
        <ele>216.223</ele>
        <time>2016-09-22T15:22:26Z</time>
      </trkpt>
      <trkpt lat="43.474831" lon="-8.300422">
        <ele>217.408</ele>
        <time>2016-09-22T15:22:30Z</time>
      </trkpt>
      <trkpt lat="43.474796" lon="-8.300416">
        <ele>218.010</ele>
        <time>2016-09-22T15:22:32Z</time>
      </trkpt>
      <trkpt lat="43.474762" lon="-8.300403">
        <ele>218.444</ele>
        <time>2016-09-22T15:22:34Z</time>
      </trkpt>
      <trkpt lat="43.474682" lon="-8.300359">
        <ele>219.439</ele>
        <time>2016-09-22T15:22:39Z</time>
      </trkpt>
      <trkpt lat="43.474634" lon="-8.300317">
        <ele>220.667</ele>
        <time>2016-09-22T15:22:43Z</time>
      </trkpt>
      <trkpt lat="43.474598" lon="-8.300287">
        <ele>221.645</ele>
        <time>2016-09-22T15:22:46Z</time>
      </trkpt>
      <trkpt lat="43.474494" lon="-8.300193">
        <ele>222.675</ele>
        <time>2016-09-22T15:22:53Z</time>
      </trkpt>
      <trkpt lat="43.474474" lon="-8.300181">
        <ele>222.877</ele>
        <time>2016-09-22T15:22:54Z</time>
      </trkpt>
      <trkpt lat="43.474457" lon="-8.300166">
        <ele>223.079</ele>
        <time>2016-09-22T15:22:55Z</time>
      </trkpt>
      <trkpt lat="43.474422" lon="-8.300134">
        <ele>223.874</ele>
        <time>2016-09-22T15:22:57Z</time>
      </trkpt>
      <trkpt lat="43.474403" lon="-8.300118">
        <ele>224.056</ele>
        <time>2016-09-22T15:22:58Z</time>
      </trkpt>
      <trkpt lat="43.474323" lon="-8.300048">
        <ele>224.821</ele>
        <time>2016-09-22T15:23:02Z</time>
      </trkpt>
      <trkpt lat="43.474200" lon="-8.299926">
        <ele>225.408</ele>
        <time>2016-09-22T15:23:08Z</time>
      </trkpt>
      <trkpt lat="43.474099" lon="-8.299820">
        <ele>226.028</ele>
        <time>2016-09-22T15:23:13Z</time>
      </trkpt>
      <trkpt lat="43.473968" lon="-8.299716">
        <ele>226.882</ele>
        <time>2016-09-22T15:23:19Z</time>
      </trkpt>
      <trkpt lat="43.473920" lon="-8.299683">
        <ele>227.027</ele>
        <time>2016-09-22T15:23:21Z</time>
      </trkpt>
      <trkpt lat="43.473793" lon="-8.299563">
        <ele>228.065</ele>
        <time>2016-09-22T15:23:27Z</time>
      </trkpt>
      <trkpt lat="43.473769" lon="-8.299548">
        <ele>228.083</ele>
        <time>2016-09-22T15:23:28Z</time>
      </trkpt>
      <trkpt lat="43.473660" lon="-8.299485">
        <ele>228.473</ele>
        <time>2016-09-22T15:23:33Z</time>
      </trkpt>
      <trkpt lat="43.473560" lon="-8.299364">
        <ele>228.095</ele>
        <time>2016-09-22T15:23:38Z</time>
      </trkpt>
      <trkpt lat="43.473471" lon="-8.299220">
        <ele>227.697</ele>
        <time>2016-09-22T15:23:42Z</time>
      </trkpt>
      <trkpt lat="43.473431" lon="-8.299194">
        <ele>227.468</ele>
        <time>2016-09-22T15:23:43Z</time>
      </trkpt>
      <trkpt lat="43.473333" lon="-8.299155">
        <ele>227.042</ele>
        <time>2016-09-22T15:23:45Z</time>
      </trkpt>
      <trkpt lat="43.473231" lon="-8.299111">
        <ele>226.026</ele>
        <time>2016-09-22T15:23:47Z</time>
      </trkpt>
      <trkpt lat="43.473179" lon="-8.299089">
        <ele>225.408</ele>
        <time>2016-09-22T15:23:48Z</time>
      </trkpt>
      <trkpt lat="43.473124" lon="-8.299068">
        <ele>224.657</ele>
        <time>2016-09-22T15:23:49Z</time>
      </trkpt>
      <trkpt lat="43.473004" lon="-8.299038">
        <ele>222.441</ele>
        <time>2016-09-22T15:23:51Z</time>
      </trkpt>
      <trkpt lat="43.472951" lon="-8.299039">
        <ele>221.496</ele>
        <time>2016-09-22T15:23:52Z</time>
      </trkpt>
      <trkpt lat="43.472877" lon="-8.299036">
        <ele>219.454</ele>
        <time>2016-09-22T15:23:54Z</time>
      </trkpt>
      <trkpt lat="43.472852" lon="-8.299011">
        <ele>218.492</ele>
        <time>2016-09-22T15:23:55Z</time>
      </trkpt>
      <trkpt lat="43.472806" lon="-8.298881">
        <ele>217.442</ele>
        <time>2016-09-22T15:23:58Z</time>
      </trkpt>
      <trkpt lat="43.472791" lon="-8.298835">
        <ele>217.074</ele>
        <time>2016-09-22T15:23:59Z</time>
      </trkpt>
      <trkpt lat="43.472721" lon="-8.298629">
        <ele>215.856</ele>
        <time>2016-09-22T15:24:03Z</time>
      </trkpt>
      <trkpt lat="43.472655" lon="-8.298460">
        <ele>215.873</ele>
        <time>2016-09-22T15:24:06Z</time>
      </trkpt>
      <trkpt lat="43.472596" lon="-8.298287">
        <ele>215.485</ele>
        <time>2016-09-22T15:24:09Z</time>
      </trkpt>
      <trkpt lat="43.472529" lon="-8.298203">
        <ele>214.613</ele>
        <time>2016-09-22T15:24:11Z</time>
      </trkpt>
      <trkpt lat="43.472496" lon="-8.298159">
        <ele>214.208</ele>
        <time>2016-09-22T15:24:12Z</time>
      </trkpt>
      <trkpt lat="43.472400" lon="-8.297946">
        <ele>214.078</ele>
        <time>2016-09-22T15:24:16Z</time>
      </trkpt>
      <trkpt lat="43.472269" lon="-8.297543">
        <ele>213.822</ele>
        <time>2016-09-22T15:24:24Z</time>
      </trkpt>
      <trkpt lat="43.472172" lon="-8.297279">
        <ele>214.267</ele>
        <time>2016-09-22T15:24:30Z</time>
      </trkpt>
      <trkpt lat="43.472084" lon="-8.297054">
        <ele>213.485</ele>
        <time>2016-09-22T15:24:35Z</time>
      </trkpt>
      <trkpt lat="43.471963" lon="-8.296644">
        <ele>213.053</ele>
        <time>2016-09-22T15:24:43Z</time>
      </trkpt>
      <trkpt lat="43.471902" lon="-8.296466">
        <ele>212.073</ele>
        <time>2016-09-22T15:24:46Z</time>
      </trkpt>
      <trkpt lat="43.471869" lon="-8.296359">
        <ele>210.275</ele>
        <time>2016-09-22T15:24:48Z</time>
      </trkpt>
      <trkpt lat="43.471855" lon="-8.296303">
        <ele>209.837</ele>
        <time>2016-09-22T15:24:49Z</time>
      </trkpt>
      <trkpt lat="43.471824" lon="-8.296197">
        <ele>208.865</ele>
        <time>2016-09-22T15:24:51Z</time>
      </trkpt>
      <trkpt lat="43.471791" lon="-8.296099">
        <ele>207.868</ele>
        <time>2016-09-22T15:24:53Z</time>
      </trkpt>
      <trkpt lat="43.471753" lon="-8.295969">
        <ele>206.214</ele>
        <time>2016-09-22T15:24:56Z</time>
      </trkpt>
      <trkpt lat="43.471748" lon="-8.295887">
        <ele>205.008</ele>
        <time>2016-09-22T15:24:58Z</time>
      </trkpt>
      <trkpt lat="43.471724" lon="-8.295811">
        <ele>203.857</ele>
        <time>2016-09-22T15:25:00Z</time>
      </trkpt>
      <trkpt lat="43.471706" lon="-8.295779">
        <ele>203.231</ele>
        <time>2016-09-22T15:25:01Z</time>
      </trkpt>
      <trkpt lat="43.471687" lon="-8.295745">
        <ele>202.426</ele>
        <time>2016-09-22T15:25:02Z</time>
      </trkpt>
      <trkpt lat="43.471622" lon="-8.295662">
        <ele>201.494</ele>
        <time>2016-09-22T15:25:05Z</time>
      </trkpt>
      <trkpt lat="43.471591" lon="-8.295643">
        <ele>201.472</ele>
        <time>2016-09-22T15:25:06Z</time>
      </trkpt>
      <trkpt lat="43.471538" lon="-8.295601">
        <ele>200.082</ele>
        <time>2016-09-22T15:25:08Z</time>
      </trkpt>
      <trkpt lat="43.471508" lon="-8.295544">
        <ele>199.274</ele>
        <time>2016-09-22T15:25:10Z</time>
      </trkpt>
      <trkpt lat="43.471495" lon="-8.295516">
        <ele>199.086</ele>
        <time>2016-09-22T15:25:11Z</time>
      </trkpt>
      <trkpt lat="43.471438" lon="-8.295426">
        <ele>197.875</ele>
        <time>2016-09-22T15:25:15Z</time>
      </trkpt>
      <trkpt lat="43.471427" lon="-8.295406">
        <ele>197.628</ele>
        <time>2016-09-22T15:25:16Z</time>
      </trkpt>
      <trkpt lat="43.471385" lon="-8.295326">
        <ele>196.820</ele>
        <time>2016-09-22T15:25:19Z</time>
      </trkpt>
      <trkpt lat="43.471354" lon="-8.295274">
        <ele>195.608</ele>
        <time>2016-09-22T15:25:21Z</time>
      </trkpt>
      <trkpt lat="43.471330" lon="-8.295228">
        <ele>194.618</ele>
        <time>2016-09-22T15:25:23Z</time>
      </trkpt>
      <trkpt lat="43.471266" lon="-8.295154">
        <ele>193.042</ele>
        <time>2016-09-22T15:25:26Z</time>
      </trkpt>
      <trkpt lat="43.471239" lon="-8.295127">
        <ele>192.617</ele>
        <time>2016-09-22T15:25:27Z</time>
      </trkpt>
      <trkpt lat="43.471192" lon="-8.295065">
        <ele>192.015</ele>
        <time>2016-09-22T15:25:29Z</time>
      </trkpt>
      <trkpt lat="43.471160" lon="-8.294924">
        <ele>190.843</ele>
        <time>2016-09-22T15:25:32Z</time>
      </trkpt>
      <trkpt lat="43.471128" lon="-8.294842">
        <ele>190.053</ele>
        <time>2016-09-22T15:25:34Z</time>
      </trkpt>
      <trkpt lat="43.471084" lon="-8.294771">
        <ele>189.015</ele>
        <time>2016-09-22T15:25:36Z</time>
      </trkpt>
      <trkpt lat="43.471037" lon="-8.294703">
        <ele>187.867</ele>
        <time>2016-09-22T15:25:38Z</time>
      </trkpt>
      <trkpt lat="43.471012" lon="-8.294669">
        <ele>186.662</ele>
        <time>2016-09-22T15:25:39Z</time>
      </trkpt>
      <trkpt lat="43.470952" lon="-8.294550">
        <ele>185.483</ele>
        <time>2016-09-22T15:25:42Z</time>
      </trkpt>
      <trkpt lat="43.470932" lon="-8.294469">
        <ele>184.211</ele>
        <time>2016-09-22T15:25:44Z</time>
      </trkpt>
      <trkpt lat="43.470904" lon="-8.294352">
        <ele>183.008</ele>
        <time>2016-09-22T15:25:47Z</time>
      </trkpt>
      <trkpt lat="43.470867" lon="-8.294282">
        <ele>182.087</ele>
        <time>2016-09-22T15:25:49Z</time>
      </trkpt>
      <trkpt lat="43.470819" lon="-8.294222">
        <ele>180.461</ele>
        <time>2016-09-22T15:25:51Z</time>
      </trkpt>
      <trkpt lat="43.470716" lon="-8.294115">
        <ele>179.266</ele>
        <time>2016-09-22T15:25:54Z</time>
      </trkpt>
      <trkpt lat="43.470675" lon="-8.294064">
        <ele>178.294</ele>
        <time>2016-09-22T15:25:55Z</time>
      </trkpt>
      <trkpt lat="43.470640" lon="-8.294008">
        <ele>177.492</ele>
        <time>2016-09-22T15:25:56Z</time>
      </trkpt>
      <trkpt lat="43.470593" lon="-8.293876">
        <ele>176.252</ele>
        <time>2016-09-22T15:25:58Z</time>
      </trkpt>
      <trkpt lat="43.470580" lon="-8.293805">
        <ele>175.634</ele>
        <time>2016-09-22T15:25:59Z</time>
      </trkpt>
      <trkpt lat="43.470532" lon="-8.293678">
        <ele>175.056</ele>
        <time>2016-09-22T15:26:01Z</time>
      </trkpt>
      <trkpt lat="43.470496" lon="-8.293625">
        <ele>175.046</ele>
        <time>2016-09-22T15:26:02Z</time>
      </trkpt>
      <trkpt lat="43.470456" lon="-8.293577">
        <ele>174.888</ele>
        <time>2016-09-22T15:26:03Z</time>
      </trkpt>
      <trkpt lat="43.470376" lon="-8.293484">
        <ele>174.216</ele>
        <time>2016-09-22T15:26:05Z</time>
      </trkpt>
      <trkpt lat="43.470335" lon="-8.293444">
        <ele>173.808</ele>
        <time>2016-09-22T15:26:06Z</time>
      </trkpt>
      <trkpt lat="43.470297" lon="-8.293400">
        <ele>173.245</ele>
        <time>2016-09-22T15:26:07Z</time>
      </trkpt>
      <trkpt lat="43.470262" lon="-8.293352">
        <ele>172.489</ele>
        <time>2016-09-22T15:26:08Z</time>
      </trkpt>
      <trkpt lat="43.470202" lon="-8.293237">
        <ele>170.454</ele>
        <time>2016-09-22T15:26:10Z</time>
      </trkpt>
      <trkpt lat="43.470134" lon="-8.293097">
        <ele>169.292</ele>
        <time>2016-09-22T15:26:12Z</time>
      </trkpt>
      <trkpt lat="43.470050" lon="-8.292943">
        <ele>167.840</ele>
        <time>2016-09-22T15:26:14Z</time>
      </trkpt>
      <trkpt lat="43.469950" lon="-8.292786">
        <ele>166.660</ele>
        <time>2016-09-22T15:26:16Z</time>
      </trkpt>
      <trkpt lat="43.469903" lon="-8.292701">
        <ele>166.262</ele>
        <time>2016-09-22T15:26:17Z</time>
      </trkpt>
      <trkpt lat="43.469845" lon="-8.292521">
        <ele>164.824</ele>
        <time>2016-09-22T15:26:19Z</time>
      </trkpt>
      <trkpt lat="43.469838" lon="-8.292438">
        <ele>164.245</ele>
        <time>2016-09-22T15:26:20Z</time>
      </trkpt>
      <trkpt lat="43.469840" lon="-8.292364">
        <ele>163.647</ele>
        <time>2016-09-22T15:26:21Z</time>
      </trkpt>
      <trkpt lat="43.469786" lon="-8.292337">
        <ele>162.211</ele>
        <time>2016-09-22T15:26:35Z</time>
      </trkpt>
      <trkpt lat="43.469719" lon="-8.292321">
        <ele>161.808</ele>
        <time>2016-09-22T15:26:37Z</time>
      </trkpt>
      <trkpt lat="43.469627" lon="-8.292305">
        <ele>161.415</ele>
        <time>2016-09-22T15:26:39Z</time>
      </trkpt>
      <trkpt lat="43.469569" lon="-8.292296">
        <ele>161.299</ele>
        <time>2016-09-22T15:26:40Z</time>
      </trkpt>
      <trkpt lat="43.469351" lon="-8.292246">
        <ele>160.074</ele>
        <time>2016-09-22T15:26:43Z</time>
      </trkpt>
      <trkpt lat="43.469265" lon="-8.292224">
        <ele>159.242</ele>
        <time>2016-09-22T15:26:44Z</time>
      </trkpt>
      <trkpt lat="43.469175" lon="-8.292198">
        <ele>158.270</ele>
        <time>2016-09-22T15:26:45Z</time>
      </trkpt>
      <trkpt lat="43.468984" lon="-8.292134">
        <ele>156.630</ele>
        <time>2016-09-22T15:26:47Z</time>
      </trkpt>
      <trkpt lat="43.468884" lon="-8.292113">
        <ele>156.032</ele>
        <time>2016-09-22T15:26:48Z</time>
      </trkpt>
      <trkpt lat="43.468781" lon="-8.292116">
        <ele>155.424</ele>
        <time>2016-09-22T15:26:49Z</time>
      </trkpt>
      <trkpt lat="43.468570" lon="-8.292219">
        <ele>153.498</ele>
        <time>2016-09-22T15:26:51Z</time>
      </trkpt>
      <trkpt lat="43.468470" lon="-8.292310">
        <ele>152.215</ele>
        <time>2016-09-22T15:26:52Z</time>
      </trkpt>
      <trkpt lat="43.468369" lon="-8.292414">
        <ele>151.426</ele>
        <time>2016-09-22T15:26:53Z</time>
      </trkpt>
      <trkpt lat="43.468262" lon="-8.292516">
        <ele>150.008</ele>
        <time>2016-09-22T15:26:54Z</time>
      </trkpt>
      <trkpt lat="43.468146" lon="-8.292610">
        <ele>148.460</ele>
        <time>2016-09-22T15:26:55Z</time>
      </trkpt>
      <trkpt lat="43.468026" lon="-8.292691">
        <ele>146.864</ele>
        <time>2016-09-22T15:26:56Z</time>
      </trkpt>
      <trkpt lat="43.467904" lon="-8.292758">
        <ele>145.699</ele>
        <time>2016-09-22T15:26:57Z</time>
      </trkpt>
      <trkpt lat="43.467784" lon="-8.292810">
        <ele>144.497</ele>
        <time>2016-09-22T15:26:58Z</time>
      </trkpt>
      <trkpt lat="43.467663" lon="-8.292838">
        <ele>142.245</ele>
        <time>2016-09-22T15:26:59Z</time>
      </trkpt>
      <trkpt lat="43.467545" lon="-8.292832">
        <ele>141.275</ele>
        <time>2016-09-22T15:27:00Z</time>
      </trkpt>
      <trkpt lat="43.467432" lon="-8.292796">
        <ele>139.017</ele>
        <time>2016-09-22T15:27:01Z</time>
      </trkpt>
      <trkpt lat="43.467325" lon="-8.292736">
        <ele>137.699</ele>
        <time>2016-09-22T15:27:02Z</time>
      </trkpt>
      <trkpt lat="43.467222" lon="-8.292659">
        <ele>136.889</ele>
        <time>2016-09-22T15:27:03Z</time>
      </trkpt>
      <trkpt lat="43.467123" lon="-8.292570">
        <ele>135.806</ele>
        <time>2016-09-22T15:27:04Z</time>
      </trkpt>
      <trkpt lat="43.467024" lon="-8.292474">
        <ele>135.226</ele>
        <time>2016-09-22T15:27:05Z</time>
      </trkpt>
      <trkpt lat="43.466920" lon="-8.292377">
        <ele>134.008</ele>
        <time>2016-09-22T15:27:06Z</time>
      </trkpt>
      <trkpt lat="43.466809" lon="-8.292284">
        <ele>132.099</ele>
        <time>2016-09-22T15:27:07Z</time>
      </trkpt>
      <trkpt lat="43.466690" lon="-8.292207">
        <ele>130.453</ele>
        <time>2016-09-22T15:27:08Z</time>
      </trkpt>
      <trkpt lat="43.466564" lon="-8.292149">
        <ele>129.268</ele>
        <time>2016-09-22T15:27:09Z</time>
      </trkpt>
      <trkpt lat="43.466438" lon="-8.292103">
        <ele>128.066</ele>
        <time>2016-09-22T15:27:10Z</time>
      </trkpt>
      <trkpt lat="43.466196" lon="-8.291996">
        <ele>126.434</ele>
        <time>2016-09-22T15:27:12Z</time>
      </trkpt>
      <trkpt lat="43.465976" lon="-8.291858">
        <ele>124.444</ele>
        <time>2016-09-22T15:27:14Z</time>
      </trkpt>
      <trkpt lat="43.465874" lon="-8.291806">
        <ele>123.246</ele>
        <time>2016-09-22T15:27:15Z</time>
      </trkpt>
      <trkpt lat="43.465677" lon="-8.291763">
        <ele>121.618</ele>
        <time>2016-09-22T15:27:17Z</time>
      </trkpt>
      <trkpt lat="43.465530" lon="-8.291735">
        <ele>120.299</ele>
        <time>2016-09-22T15:27:19Z</time>
      </trkpt>
      <trkpt lat="43.465486" lon="-8.291712">
        <ele>119.407</ele>
        <time>2016-09-22T15:27:20Z</time>
      </trkpt>
      <trkpt lat="43.465461" lon="-8.291678">
        <ele>118.227</ele>
        <time>2016-09-22T15:27:21Z</time>
      </trkpt>
      <trkpt lat="43.465452" lon="-8.291588">
        <ele>116.808</ele>
        <time>2016-09-22T15:27:23Z</time>
      </trkpt>
      <trkpt lat="43.465477" lon="-8.291465">
        <ele>116.010</ele>
        <time>2016-09-22T15:27:26Z</time>
      </trkpt>
      <trkpt lat="43.465489" lon="-8.291426">
        <ele>115.844</ele>
        <time>2016-09-22T15:27:27Z</time>
      </trkpt>
      <trkpt lat="43.465503" lon="-8.291384">
        <ele>115.819</ele>
        <time>2016-09-22T15:27:28Z</time>
      </trkpt>
      <trkpt lat="43.465624" lon="-8.291050">
        <ele>116.457</ele>
        <time>2016-09-22T15:27:35Z</time>
      </trkpt>
      <trkpt lat="43.465694" lon="-8.290802">
        <ele>114.615</ele>
        <time>2016-09-22T15:27:40Z</time>
      </trkpt>
      <trkpt lat="43.465721" lon="-8.290677">
        <ele>113.475</ele>
        <time>2016-09-22T15:27:43Z</time>
      </trkpt>
      <trkpt lat="43.465749" lon="-8.290552">
        <ele>112.427</ele>
        <time>2016-09-22T15:27:46Z</time>
      </trkpt>
      <trkpt lat="43.465771" lon="-8.290465">
        <ele>111.819</ele>
        <time>2016-09-22T15:27:48Z</time>
      </trkpt>
      <trkpt lat="43.465796" lon="-8.290370">
        <ele>111.247</ele>
        <time>2016-09-22T15:27:50Z</time>
      </trkpt>
      <trkpt lat="43.465818" lon="-8.290260">
        <ele>109.429</ele>
        <time>2016-09-22T15:27:52Z</time>
      </trkpt>
      <trkpt lat="43.465835" lon="-8.290201">
        <ele>109.221</ele>
        <time>2016-09-22T15:27:53Z</time>
      </trkpt>
      <trkpt lat="43.465888" lon="-8.289971">
        <ele>108.408</ele>
        <time>2016-09-22T15:27:57Z</time>
      </trkpt>
      <trkpt lat="43.465892" lon="-8.289926">
        <ele>108.025</ele>
        <time>2016-09-22T15:27:58Z</time>
      </trkpt>
      <trkpt lat="43.465903" lon="-8.289806">
        <ele>107.059</ele>
        <time>2016-09-22T15:28:01Z</time>
      </trkpt>
      <trkpt lat="43.465909" lon="-8.289724">
        <ele>106.094</ele>
        <time>2016-09-22T15:28:03Z</time>
      </trkpt>
      <trkpt lat="43.465910" lon="-8.289673">
        <ele>105.642</ele>
        <time>2016-09-22T15:28:04Z</time>
      </trkpt>
      <trkpt lat="43.465915" lon="-8.289519">
        <ele>104.870</ele>
        <time>2016-09-22T15:28:07Z</time>
      </trkpt>
      <trkpt lat="43.465919" lon="-8.289415">
        <ele>104.040</ele>
        <time>2016-09-22T15:28:09Z</time>
      </trkpt>
      <trkpt lat="43.465925" lon="-8.289311">
        <ele>103.432</ele>
        <time>2016-09-22T15:28:11Z</time>
      </trkpt>
      <trkpt lat="43.465950" lon="-8.289147">
        <ele>101.814</ele>
        <time>2016-09-22T15:28:14Z</time>
      </trkpt>
      <trkpt lat="43.465959" lon="-8.289094">
        <ele>101.062</ele>
        <time>2016-09-22T15:28:15Z</time>
      </trkpt>
      <trkpt lat="43.465971" lon="-8.289045">
        <ele>100.283</ele>
        <time>2016-09-22T15:28:16Z</time>
      </trkpt>
      <trkpt lat="43.466007" lon="-8.288894">
        <ele>98.811</ele>
        <time>2016-09-22T15:28:19Z</time>
      </trkpt>
      <trkpt lat="43.466027" lon="-8.288782">
        <ele>98.008</ele>
        <time>2016-09-22T15:28:21Z</time>
      </trkpt>
      <trkpt lat="43.466043" lon="-8.288724">
        <ele>97.667</ele>
        <time>2016-09-22T15:28:22Z</time>
      </trkpt>
      <trkpt lat="43.466128" lon="-8.288561">
        <ele>96.661</ele>
        <time>2016-09-22T15:28:25Z</time>
      </trkpt>
      <trkpt lat="43.466159" lon="-8.288506">
        <ele>96.066</ele>
        <time>2016-09-22T15:28:26Z</time>
      </trkpt>
      <trkpt lat="43.466269" lon="-8.288241">
        <ele>95.024</ele>
        <time>2016-09-22T15:28:30Z</time>
      </trkpt>
      <trkpt lat="43.466289" lon="-8.288176">
        <ele>95.062</ele>
        <time>2016-09-22T15:28:31Z</time>
      </trkpt>
      <trkpt lat="43.466403" lon="-8.287832">
        <ele>93.852</ele>
        <time>2016-09-22T15:28:37Z</time>
      </trkpt>
      <trkpt lat="43.466436" lon="-8.287699">
        <ele>92.844</ele>
        <time>2016-09-22T15:28:39Z</time>
      </trkpt>
      <trkpt lat="43.466479" lon="-8.287554">
        <ele>91.286</ele>
        <time>2016-09-22T15:28:41Z</time>
      </trkpt>
      <trkpt lat="43.466506" lon="-8.287486">
        <ele>90.858</ele>
        <time>2016-09-22T15:28:42Z</time>
      </trkpt>
      <trkpt lat="43.466554" lon="-8.287356">
        <ele>90.252</ele>
        <time>2016-09-22T15:28:44Z</time>
      </trkpt>
      <trkpt lat="43.466595" lon="-8.287243">
        <ele>90.217</ele>
        <time>2016-09-22T15:28:46Z</time>
      </trkpt>
      <trkpt lat="43.466610" lon="-8.287190">
        <ele>90.208</ele>
        <time>2016-09-22T15:28:47Z</time>
      </trkpt>
      <trkpt lat="43.466770" lon="-8.286741">
        <ele>89.646</ele>
        <time>2016-09-22T15:28:55Z</time>
      </trkpt>
      <trkpt lat="43.466796" lon="-8.286685">
        <ele>89.620</ele>
        <time>2016-09-22T15:28:56Z</time>
      </trkpt>
      <trkpt lat="43.466823" lon="-8.286628">
        <ele>89.045</ele>
        <time>2016-09-22T15:28:57Z</time>
      </trkpt>
      <trkpt lat="43.466894" lon="-8.286463">
        <ele>88.673</ele>
        <time>2016-09-22T15:29:00Z</time>
      </trkpt>
      <trkpt lat="43.466920" lon="-8.286411">
        <ele>88.631</ele>
        <time>2016-09-22T15:29:01Z</time>
      </trkpt>
      <trkpt lat="43.467019" lon="-8.286184">
        <ele>87.691</ele>
        <time>2016-09-22T15:29:05Z</time>
      </trkpt>
      <trkpt lat="43.467090" lon="-8.285987">
        <ele>86.453</ele>
        <time>2016-09-22T15:29:08Z</time>
      </trkpt>
      <trkpt lat="43.467166" lon="-8.285753">
        <ele>85.885</ele>
        <time>2016-09-22T15:29:11Z</time>
      </trkpt>
      <trkpt lat="43.467275" lon="-8.285558">
        <ele>85.443</ele>
        <time>2016-09-22T15:29:14Z</time>
      </trkpt>
      <trkpt lat="43.467352" lon="-8.285441">
        <ele>84.664</ele>
        <time>2016-09-22T15:29:16Z</time>
      </trkpt>
      <trkpt lat="43.467390" lon="-8.285384">
        <ele>84.210</ele>
        <time>2016-09-22T15:29:17Z</time>
      </trkpt>
      <trkpt lat="43.467616" lon="-8.285006">
        <ele>83.808</ele>
        <time>2016-09-22T15:29:23Z</time>
      </trkpt>
      <trkpt lat="43.467656" lon="-8.284952">
        <ele>83.425</ele>
        <time>2016-09-22T15:29:24Z</time>
      </trkpt>
      <trkpt lat="43.467737" lon="-8.284853">
        <ele>83.079</ele>
        <time>2016-09-22T15:29:26Z</time>
      </trkpt>
      <trkpt lat="43.467810" lon="-8.284771">
        <ele>82.664</ele>
        <time>2016-09-22T15:29:28Z</time>
      </trkpt>
      <trkpt lat="43.467841" lon="-8.284728">
        <ele>82.672</ele>
        <time>2016-09-22T15:29:29Z</time>
      </trkpt>
      <trkpt lat="43.467944" lon="-8.284498">
        <ele>82.460</ele>
        <time>2016-09-22T15:29:33Z</time>
      </trkpt>
      <trkpt lat="43.468022" lon="-8.284255">
        <ele>82.030</ele>
        <time>2016-09-22T15:29:36Z</time>
      </trkpt>
      <trkpt lat="43.468102" lon="-8.284112">
        <ele>81.452</ele>
        <time>2016-09-22T15:29:38Z</time>
      </trkpt>
      <trkpt lat="43.468189" lon="-8.284034">
        <ele>80.864</ele>
        <time>2016-09-22T15:29:40Z</time>
      </trkpt>
      <trkpt lat="43.468229" lon="-8.284010">
        <ele>80.847</ele>
        <time>2016-09-22T15:29:41Z</time>
      </trkpt>
      <trkpt lat="43.468373" lon="-8.283987">
        <ele>82.029</ele>
        <time>2016-09-22T15:29:45Z</time>
      </trkpt>
      <trkpt lat="43.468401" lon="-8.283999">
        <ele>82.421</ele>
        <time>2016-09-22T15:29:46Z</time>
      </trkpt>
      <trkpt lat="43.468459" lon="-8.284036">
        <ele>83.208</ele>
        <time>2016-09-22T15:29:48Z</time>
      </trkpt>
      <trkpt lat="43.468580" lon="-8.284128">
        <ele>84.085</ele>
        <time>2016-09-22T15:29:52Z</time>
      </trkpt>
      <trkpt lat="43.468774" lon="-8.284277">
        <ele>83.699</ele>
        <time>2016-09-22T15:29:56Z</time>
      </trkpt>
      <trkpt lat="43.468982" lon="-8.284378">
        <ele>82.044</ele>
        <time>2016-09-22T15:29:59Z</time>
      </trkpt>
      <trkpt lat="43.469041" lon="-8.284402">
        <ele>80.862</ele>
        <time>2016-09-22T15:30:00Z</time>
      </trkpt>
      <trkpt lat="43.469085" lon="-8.284395">
        <ele>79.690</ele>
        <time>2016-09-22T15:30:01Z</time>
      </trkpt>
      <trkpt lat="43.469110" lon="-8.284352">
        <ele>78.680</ele>
        <time>2016-09-22T15:30:02Z</time>
      </trkpt>
      <trkpt lat="43.469123" lon="-8.284297">
        <ele>78.052</ele>
        <time>2016-09-22T15:30:03Z</time>
      </trkpt>
      <trkpt lat="43.469133" lon="-8.284239">
        <ele>77.834</ele>
        <time>2016-09-22T15:30:04Z</time>
      </trkpt>
      <trkpt lat="43.469160" lon="-8.284144">
        <ele>77.815</ele>
        <time>2016-09-22T15:30:06Z</time>
      </trkpt>
      <trkpt lat="43.469221" lon="-8.283951">
        <ele>79.465</ele>
        <time>2016-09-22T15:30:11Z</time>
      </trkpt>
      <trkpt lat="43.469250" lon="-8.283851">
        <ele>80.611</ele>
        <time>2016-09-22T15:30:14Z</time>
      </trkpt>
      <trkpt lat="43.469274" lon="-8.283784">
        <ele>81.208</ele>
        <time>2016-09-22T15:30:16Z</time>
      </trkpt>
      <trkpt lat="43.469304" lon="-8.283698">
        <ele>82.012</ele>
        <time>2016-09-22T15:30:18Z</time>
      </trkpt>
      <trkpt lat="43.469350" lon="-8.283569">
        <ele>82.856</ele>
        <time>2016-09-22T15:30:21Z</time>
      </trkpt>
      <trkpt lat="43.469367" lon="-8.283519">
        <ele>83.021</ele>
        <time>2016-09-22T15:30:22Z</time>
      </trkpt>
      <trkpt lat="43.469378" lon="-8.283463">
        <ele>83.049</ele>
        <time>2016-09-22T15:30:23Z</time>
      </trkpt>
      <trkpt lat="43.469367" lon="-8.283337">
        <ele>83.297</ele>
        <time>2016-09-22T15:30:25Z</time>
      </trkpt>
      <trkpt lat="43.469242" lon="-8.283081">
        <ele>82.827</ele>
        <time>2016-09-22T15:30:30Z</time>
      </trkpt>
      <trkpt lat="43.469156" lon="-8.282900">
        <ele>82.479</ele>
        <time>2016-09-22T15:30:33Z</time>
      </trkpt>
      <trkpt lat="43.469098" lon="-8.282730">
        <ele>81.871</ele>
        <time>2016-09-22T15:30:35Z</time>
      </trkpt>
      <trkpt lat="43.469080" lon="-8.282633">
        <ele>81.421</ele>
        <time>2016-09-22T15:30:36Z</time>
      </trkpt>
      <trkpt lat="43.469052" lon="-8.282427">
        <ele>80.641</ele>
        <time>2016-09-22T15:30:38Z</time>
      </trkpt>
      <trkpt lat="43.469013" lon="-8.282232">
        <ele>79.605</ele>
        <time>2016-09-22T15:30:40Z</time>
      </trkpt>
      <trkpt lat="43.468997" lon="-8.282138">
        <ele>78.008</ele>
        <time>2016-09-22T15:30:41Z</time>
      </trkpt>
      <trkpt lat="43.468991" lon="-8.282048">
        <ele>76.813</ele>
        <time>2016-09-22T15:30:42Z</time>
      </trkpt>
      <trkpt lat="43.469001" lon="-8.281965">
        <ele>75.837</ele>
        <time>2016-09-22T15:30:43Z</time>
      </trkpt>
      <trkpt lat="43.469049" lon="-8.281812">
        <ele>74.482</ele>
        <time>2016-09-22T15:30:45Z</time>
      </trkpt>
      <trkpt lat="43.469078" lon="-8.281741">
        <ele>74.210</ele>
        <time>2016-09-22T15:30:46Z</time>
      </trkpt>
      <trkpt lat="43.469107" lon="-8.281668">
        <ele>73.678</ele>
        <time>2016-09-22T15:30:47Z</time>
      </trkpt>
      <trkpt lat="43.469136" lon="-8.281590">
        <ele>73.628</ele>
        <time>2016-09-22T15:30:48Z</time>
      </trkpt>
      <trkpt lat="43.469203" lon="-8.281432">
        <ele>73.210</ele>
        <time>2016-09-22T15:30:50Z</time>
      </trkpt>
      <trkpt lat="43.469242" lon="-8.281354">
        <ele>72.472</ele>
        <time>2016-09-22T15:30:51Z</time>
      </trkpt>
      <trkpt lat="43.469282" lon="-8.281277">
        <ele>72.039</ele>
        <time>2016-09-22T15:30:52Z</time>
      </trkpt>
      <trkpt lat="43.469412" lon="-8.281065">
        <ele>71.201</ele>
        <time>2016-09-22T15:30:55Z</time>
      </trkpt>
      <trkpt lat="43.469534" lon="-8.280837">
        <ele>70.621</ele>
        <time>2016-09-22T15:30:58Z</time>
      </trkpt>
      <trkpt lat="43.469578" lon="-8.280758">
        <ele>70.208</ele>
        <time>2016-09-22T15:30:59Z</time>
      </trkpt>
      <trkpt lat="43.469764" lon="-8.280424">
        <ele>69.024</ele>
        <time>2016-09-22T15:31:03Z</time>
      </trkpt>
      <trkpt lat="43.469812" lon="-8.280345">
        <ele>68.628</ele>
        <time>2016-09-22T15:31:04Z</time>
      </trkpt>
      <trkpt lat="43.470008" lon="-8.280118">
        <ele>68.293</ele>
        <time>2016-09-22T15:31:08Z</time>
      </trkpt>
      <trkpt lat="43.470085" lon="-8.280042">
        <ele>68.011</ele>
        <time>2016-09-22T15:31:10Z</time>
      </trkpt>
      <trkpt lat="43.470183" lon="-8.279968">
        <ele>68.669</ele>
        <time>2016-09-22T15:31:13Z</time>
      </trkpt>
      <trkpt lat="43.470210" lon="-8.279943">
        <ele>69.079</ele>
        <time>2016-09-22T15:31:14Z</time>
      </trkpt>
      <trkpt lat="43.470298" lon="-8.279847">
        <ele>70.421</ele>
        <time>2016-09-22T15:31:18Z</time>
      </trkpt>
      <trkpt lat="43.470318" lon="-8.279828">
        <ele>70.883</ele>
        <time>2016-09-22T15:31:19Z</time>
      </trkpt>
      <trkpt lat="43.470362" lon="-8.279746">
        <ele>71.874</ele>
        <time>2016-09-22T15:31:22Z</time>
      </trkpt>
      <trkpt lat="43.470382" lon="-8.279688">
        <ele>72.456</ele>
        <time>2016-09-22T15:31:24Z</time>
      </trkpt>
      <trkpt lat="43.470392" lon="-8.279662">
        <ele>72.821</ele>
        <time>2016-09-22T15:31:25Z</time>
      </trkpt>
      <trkpt lat="43.470417" lon="-8.279577">
        <ele>74.208</ele>
        <time>2016-09-22T15:31:28Z</time>
      </trkpt>
      <trkpt lat="43.470421" lon="-8.279553">
        <ele>74.678</ele>
        <time>2016-09-22T15:31:29Z</time>
      </trkpt>
      <trkpt lat="43.470433" lon="-8.279500">
        <ele>75.412</ele>
        <time>2016-09-22T15:31:31Z</time>
      </trkpt>
      <trkpt lat="43.470471" lon="-8.279386">
        <ele>76.447</ele>
        <time>2016-09-22T15:31:34Z</time>
      </trkpt>
      <trkpt lat="43.470484" lon="-8.279348">
        <ele>76.625</ele>
        <time>2016-09-22T15:31:35Z</time>
      </trkpt>
      <trkpt lat="43.470536" lon="-8.279138">
        <ele>77.423</ele>
        <time>2016-09-22T15:31:40Z</time>
      </trkpt>
      <trkpt lat="43.470549" lon="-8.279102">
        <ele>77.813</ele>
        <time>2016-09-22T15:31:41Z</time>
      </trkpt>
      <trkpt lat="43.470585" lon="-8.278969">
        <ele>78.865</ele>
        <time>2016-09-22T15:31:45Z</time>
      </trkpt>
      <trkpt lat="43.470605" lon="-8.278895">
        <ele>79.017</ele>
        <time>2016-09-22T15:31:47Z</time>
      </trkpt>
      <trkpt lat="43.470623" lon="-8.278639">
        <ele>79.493</ele>
        <time>2016-09-22T15:31:53Z</time>
      </trkpt>
      <trkpt lat="43.470613" lon="-8.278367">
        <ele>79.265</ele>
        <time>2016-09-22T15:31:58Z</time>
      </trkpt>
      <trkpt lat="43.470669" lon="-8.278119">
        <ele>79.821</ele>
        <time>2016-09-22T15:32:04Z</time>
      </trkpt>
      <trkpt lat="43.470719" lon="-8.277997">
        <ele>81.008</ele>
        <time>2016-09-22T15:32:08Z</time>
      </trkpt>
      <trkpt lat="43.470761" lon="-8.277910">
        <ele>82.490</ele>
        <time>2016-09-22T15:32:11Z</time>
      </trkpt>
      <trkpt lat="43.470790" lon="-8.277850">
        <ele>82.884</ele>
        <time>2016-09-22T15:32:13Z</time>
      </trkpt>
      <trkpt lat="43.470835" lon="-8.277753">
        <ele>83.469</ele>
        <time>2016-09-22T15:32:16Z</time>
      </trkpt>
      <trkpt lat="43.470873" lon="-8.277628">
        <ele>83.857</ele>
        <time>2016-09-22T15:32:19Z</time>
      </trkpt>
      <trkpt lat="43.470873" lon="-8.277438">
        <ele>84.465</ele>
        <time>2016-09-22T15:32:23Z</time>
      </trkpt>
      <trkpt lat="43.470865" lon="-8.277395">
        <ele>84.445</ele>
        <time>2016-09-22T15:32:24Z</time>
      </trkpt>
      <trkpt lat="43.470779" lon="-8.276991">
        <ele>85.057</ele>
        <time>2016-09-22T15:32:33Z</time>
      </trkpt>
      <trkpt lat="43.470769" lon="-8.276813">
        <ele>85.619</ele>
        <time>2016-09-22T15:32:37Z</time>
      </trkpt>
      <trkpt lat="43.470766" lon="-8.276648">
        <ele>86.814</ele>
        <time>2016-09-22T15:32:41Z</time>
      </trkpt>
      <trkpt lat="43.470769" lon="-8.276611">
        <ele>87.054</ele>
        <time>2016-09-22T15:32:42Z</time>
      </trkpt>
      <trkpt lat="43.470788" lon="-8.276469">
        <ele>88.009</ele>
        <time>2016-09-22T15:32:46Z</time>
      </trkpt>
      <trkpt lat="43.470799" lon="-8.276382">
        <ele>88.608</ele>
        <time>2016-09-22T15:32:49Z</time>
      </trkpt>
      <trkpt lat="43.470806" lon="-8.276327">
        <ele>89.222</ele>
        <time>2016-09-22T15:32:51Z</time>
      </trkpt>
      <trkpt lat="43.470820" lon="-8.276208">
        <ele>90.256</ele>
        <time>2016-09-22T15:32:55Z</time>
      </trkpt>
      <trkpt lat="43.470825" lon="-8.276177">
        <ele>90.651</ele>
        <time>2016-09-22T15:32:56Z</time>
      </trkpt>
      <trkpt lat="43.470840" lon="-8.276098">
        <ele>91.489</ele>
        <time>2016-09-22T15:32:59Z</time>
      </trkpt>
      <trkpt lat="43.470847" lon="-8.276002">
        <ele>92.697</ele>
        <time>2016-09-22T15:33:02Z</time>
      </trkpt>
      <trkpt lat="43.470842" lon="-8.275817">
        <ele>93.657</ele>
        <time>2016-09-22T15:33:07Z</time>
      </trkpt>
      <trkpt lat="43.470821" lon="-8.275565">
        <ele>94.829</ele>
        <time>2016-09-22T15:33:13Z</time>
      </trkpt>
      <trkpt lat="43.470816" lon="-8.275279">
        <ele>95.821</ele>
        <time>2016-09-22T15:33:20Z</time>
      </trkpt>
      <trkpt lat="43.470803" lon="-8.275127">
        <ele>97.023</ele>
        <time>2016-09-22T15:33:24Z</time>
      </trkpt>
      <trkpt lat="43.470799" lon="-8.275086">
        <ele>97.083</ele>
        <time>2016-09-22T15:33:25Z</time>
      </trkpt>
      <trkpt lat="43.470788" lon="-8.274800">
        <ele>97.011</ele>
        <time>2016-09-22T15:33:31Z</time>
      </trkpt>
      <trkpt lat="43.470770" lon="-8.274534">
        <ele>96.608</ele>
        <time>2016-09-22T15:33:37Z</time>
      </trkpt>
      <trkpt lat="43.470788" lon="-8.274235">
        <ele>98.053</ele>
        <time>2016-09-22T15:33:44Z</time>
      </trkpt>
      <trkpt lat="43.470792" lon="-8.274200">
        <ele>98.477</ele>
        <time>2016-09-22T15:33:45Z</time>
      </trkpt>
      <trkpt lat="43.470796" lon="-8.274126">
        <ele>99.652</ele>
        <time>2016-09-22T15:33:47Z</time>
      </trkpt>
      <trkpt lat="43.470816" lon="-8.273949">
        <ele>100.450</ele>
        <time>2016-09-22T15:33:51Z</time>
      </trkpt>
      <trkpt lat="43.470819" lon="-8.273907">
        <ele>100.668</ele>
        <time>2016-09-22T15:33:52Z</time>
      </trkpt>
      <trkpt lat="43.470844" lon="-8.273686">
        <ele>101.628</ele>
        <time>2016-09-22T15:33:57Z</time>
      </trkpt>
      <trkpt lat="43.470851" lon="-8.273646">
        <ele>101.810</ele>
        <time>2016-09-22T15:33:58Z</time>
      </trkpt>
      <trkpt lat="43.470884" lon="-8.273428">
        <ele>102.212</ele>
        <time>2016-09-22T15:34:03Z</time>
      </trkpt>
      <trkpt lat="43.470840" lon="-8.273284">
        <ele>103.096</ele>
        <time>2016-09-22T15:34:07Z</time>
      </trkpt>
      <trkpt lat="43.470830" lon="-8.273259">
        <ele>103.631</ele>
        <time>2016-09-22T15:34:08Z</time>
      </trkpt>
      <trkpt lat="43.470825" lon="-8.273235">
        <ele>104.224</ele>
        <time>2016-09-22T15:34:09Z</time>
      </trkpt>
      <trkpt lat="43.470809" lon="-8.273168">
        <ele>105.208</ele>
        <time>2016-09-22T15:34:12Z</time>
      </trkpt>
      <trkpt lat="43.470802" lon="-8.273133">
        <ele>105.630</ele>
        <time>2016-09-22T15:34:13Z</time>
      </trkpt>
      <trkpt lat="43.470784" lon="-8.272905">
        <ele>106.234</ele>
        <time>2016-09-22T15:34:18Z</time>
      </trkpt>
      <trkpt lat="43.470804" lon="-8.272677">
        <ele>106.279</ele>
        <time>2016-09-22T15:34:23Z</time>
      </trkpt>
      <trkpt lat="43.470843" lon="-8.272431">
        <ele>107.087</ele>
        <time>2016-09-22T15:34:29Z</time>
      </trkpt>
      <trkpt lat="43.470859" lon="-8.272316">
        <ele>107.275</ele>
        <time>2016-09-22T15:34:31Z</time>
      </trkpt>
      <trkpt lat="43.470858" lon="-8.272196">
        <ele>107.295</ele>
        <time>2016-09-22T15:34:33Z</time>
      </trkpt>
      <trkpt lat="43.470850" lon="-8.272138">
        <ele>107.237</ele>
        <time>2016-09-22T15:34:34Z</time>
      </trkpt>
      <trkpt lat="43.470845" lon="-8.272012">
        <ele>107.469</ele>
        <time>2016-09-22T15:34:36Z</time>
      </trkpt>
      <trkpt lat="43.470816" lon="-8.271749">
        <ele>107.488</ele>
        <time>2016-09-22T15:34:40Z</time>
      </trkpt>
      <trkpt lat="43.470802" lon="-8.271400">
        <ele>108.224</ele>
        <time>2016-09-22T15:34:46Z</time>
      </trkpt>
      <trkpt lat="43.470806" lon="-8.271345">
        <ele>108.426</ele>
        <time>2016-09-22T15:34:47Z</time>
      </trkpt>
      <trkpt lat="43.470830" lon="-8.271130">
        <ele>108.408</ele>
        <time>2016-09-22T15:34:51Z</time>
      </trkpt>
      <trkpt lat="43.470845" lon="-8.270827">
        <ele>108.659</ele>
        <time>2016-09-22T15:34:56Z</time>
      </trkpt>
      <trkpt lat="43.470912" lon="-8.270527">
        <ele>108.463</ele>
        <time>2016-09-22T15:35:01Z</time>
      </trkpt>
      <trkpt lat="43.470940" lon="-8.270266">
        <ele>108.658</ele>
        <time>2016-09-22T15:35:05Z</time>
      </trkpt>
      <trkpt lat="43.470886" lon="-8.270088">
        <ele>109.496</ele>
        <time>2016-09-22T15:35:08Z</time>
      </trkpt>
      <trkpt lat="43.470864" lon="-8.270033">
        <ele>109.634</ele>
        <time>2016-09-22T15:35:09Z</time>
      </trkpt>
      <trkpt lat="43.470786" lon="-8.269841">
        <ele>110.694</ele>
        <time>2016-09-22T15:35:13Z</time>
      </trkpt>
      <trkpt lat="43.470753" lon="-8.269759">
        <ele>111.666</ele>
        <time>2016-09-22T15:35:15Z</time>
      </trkpt>
      <trkpt lat="43.470735" lon="-8.269711">
        <ele>111.848</ele>
        <time>2016-09-22T15:35:16Z</time>
      </trkpt>
      <trkpt lat="43.470638" lon="-8.269489">
        <ele>112.255</ele>
        <time>2016-09-22T15:35:20Z</time>
      </trkpt>
      <trkpt lat="43.470553" lon="-8.269157">
        <ele>111.007</ele>
        <time>2016-09-22T15:35:25Z</time>
      </trkpt>
      <trkpt lat="43.470500" lon="-8.269023">
        <ele>110.817</ele>
        <time>2016-09-22T15:35:27Z</time>
      </trkpt>
      <trkpt lat="43.470478" lon="-8.268951">
        <ele>110.808</ele>
        <time>2016-09-22T15:35:28Z</time>
      </trkpt>
      <trkpt lat="43.470472" lon="-8.268817">
        <ele>110.416</ele>
        <time>2016-09-22T15:35:30Z</time>
      </trkpt>
      <trkpt lat="43.470473" lon="-8.268757">
        <ele>110.070</ele>
        <time>2016-09-22T15:35:31Z</time>
      </trkpt>
      <trkpt lat="43.470440" lon="-8.268694">
        <ele>109.465</ele>
        <time>2016-09-22T15:35:33Z</time>
      </trkpt>
      <trkpt lat="43.470388" lon="-8.268738">
        <ele>108.883</ele>
        <time>2016-09-22T15:35:35Z</time>
      </trkpt>
      <trkpt lat="43.470372" lon="-8.268785">
        <ele>108.611</ele>
        <time>2016-09-22T15:35:36Z</time>
      </trkpt>
      <trkpt lat="43.470310" lon="-8.268983">
        <ele>107.441</ele>
        <time>2016-09-22T15:35:39Z</time>
      </trkpt>
      <trkpt lat="43.470296" lon="-8.269070">
        <ele>107.053</ele>
        <time>2016-09-22T15:35:40Z</time>
      </trkpt>
      <trkpt lat="43.470285" lon="-8.269163">
        <ele>106.445</ele>
        <time>2016-09-22T15:35:41Z</time>
      </trkpt>
      <trkpt lat="43.470271" lon="-8.269355">
        <ele>105.284</ele>
        <time>2016-09-22T15:35:43Z</time>
      </trkpt>
      <trkpt lat="43.470266" lon="-8.269543">
        <ele>104.207</ele>
        <time>2016-09-22T15:35:45Z</time>
      </trkpt>
      <trkpt lat="43.470261" lon="-8.269709">
        <ele>102.417</ele>
        <time>2016-09-22T15:35:47Z</time>
      </trkpt>
      <trkpt lat="43.470262" lon="-8.269776">
        <ele>101.608</ele>
        <time>2016-09-22T15:35:48Z</time>
      </trkpt>
      <trkpt lat="43.470263" lon="-8.269832">
        <ele>100.859</ele>
        <time>2016-09-22T15:35:49Z</time>
      </trkpt>
      <trkpt lat="43.470254" lon="-8.269937">
        <ele>99.663</ele>
        <time>2016-09-22T15:35:51Z</time>
      </trkpt>
      <trkpt lat="43.470231" lon="-8.269979">
        <ele>98.878</ele>
        <time>2016-09-22T15:35:52Z</time>
      </trkpt>
      <trkpt lat="43.470203" lon="-8.269990">
        <ele>98.286</ele>
        <time>2016-09-22T15:35:53Z</time>
      </trkpt>
      <trkpt lat="43.470168" lon="-8.269895">
        <ele>97.494</ele>
        <time>2016-09-22T15:35:56Z</time>
      </trkpt>
      <trkpt lat="43.470162" lon="-8.269853">
        <ele>97.454</ele>
        <time>2016-09-22T15:35:57Z</time>
      </trkpt>
      <trkpt lat="43.470111" lon="-8.269576">
        <ele>97.246</ele>
        <time>2016-09-22T15:36:03Z</time>
      </trkpt>
      <trkpt lat="43.470106" lon="-8.269530">
        <ele>97.278</ele>
        <time>2016-09-22T15:36:04Z</time>
      </trkpt>
      <trkpt lat="43.470088" lon="-8.269336">
        <ele>97.651</ele>
        <time>2016-09-22T15:36:09Z</time>
      </trkpt>
      <trkpt lat="43.470087" lon="-8.269138">
        <ele>98.001</ele>
        <time>2016-09-22T15:36:16Z</time>
      </trkpt>
      <trkpt lat="43.470094" lon="-8.269127">
        <ele>98.011</ele>
        <time>2016-09-22T15:36:18Z</time>
      </trkpt>
      <trkpt lat="43.470094" lon="-8.269062">
        <ele>97.008</ele>
        <time>2016-09-22T15:49:02Z</time>
      </trkpt>
      <trkpt lat="43.470102" lon="-8.269032">
        <ele>97.266</ele>
        <time>2016-09-22T15:49:03Z</time>
      </trkpt>
      <trkpt lat="43.470110" lon="-8.268996">
        <ele>97.490</ele>
        <time>2016-09-22T15:49:04Z</time>
      </trkpt>
      <trkpt lat="43.470126" lon="-8.268882">
        <ele>97.825</ele>
        <time>2016-09-22T15:49:07Z</time>
      </trkpt>
      <trkpt lat="43.470189" lon="-8.268610">
        <ele>97.883</ele>
        <time>2016-09-22T15:49:14Z</time>
      </trkpt>
      <trkpt lat="43.470285" lon="-8.268313">
        <ele>98.011</ele>
        <time>2016-09-22T15:49:21Z</time>
      </trkpt>
      <trkpt lat="43.470441" lon="-8.267973">
        <ele>98.031</ele>
        <time>2016-09-22T15:49:28Z</time>
      </trkpt>
      <trkpt lat="43.470466" lon="-8.267921">
        <ele>98.023</ele>
        <time>2016-09-22T15:49:29Z</time>
      </trkpt>
      <trkpt lat="43.470575" lon="-8.267679">
        <ele>97.695</ele>
        <time>2016-09-22T15:49:33Z</time>
      </trkpt>
      <trkpt lat="43.470762" lon="-8.267281">
        <ele>96.056</ele>
        <time>2016-09-22T15:49:38Z</time>
      </trkpt>
      <trkpt lat="43.470903" lon="-8.267035">
        <ele>88.859</ele>
        <time>2016-09-22T15:50:04Z</time>
      </trkpt>
      <trkpt lat="43.470893" lon="-8.267027">
        <ele>89.014</ele>
        <time>2016-09-22T15:50:05Z</time>
      </trkpt>
      <trkpt lat="43.470890" lon="-8.267020">
        <ele>89.808</ele>
        <time>2016-09-22T15:50:07Z</time>
      </trkpt>
      <trkpt lat="43.470898" lon="-8.266985">
        <ele>89.666</ele>
        <time>2016-09-22T15:51:22Z</time>
      </trkpt>
      <trkpt lat="43.471059" lon="-8.266871">
        <ele>89.070</ele>
        <time>2016-09-22T15:51:26Z</time>
      </trkpt>
      <trkpt lat="43.471248" lon="-8.266743">
        <ele>87.885</ele>
        <time>2016-09-22T15:51:29Z</time>
      </trkpt>
      <trkpt lat="43.471323" lon="-8.266700">
        <ele>87.283</ele>
        <time>2016-09-22T15:51:30Z</time>
      </trkpt>
      <trkpt lat="43.471404" lon="-8.266655">
        <ele>86.841</ele>
        <time>2016-09-22T15:51:31Z</time>
      </trkpt>
      <trkpt lat="43.471486" lon="-8.266608">
        <ele>85.821</ele>
        <time>2016-09-22T15:51:32Z</time>
      </trkpt>
      <trkpt lat="43.471661" lon="-8.266506">
        <ele>84.223</ele>
        <time>2016-09-22T15:51:34Z</time>
      </trkpt>
      <trkpt lat="43.471745" lon="-8.266441">
        <ele>83.635</ele>
        <time>2016-09-22T15:51:35Z</time>
      </trkpt>
      <trkpt lat="43.471828" lon="-8.266368">
        <ele>83.033</ele>
        <time>2016-09-22T15:51:36Z</time>
      </trkpt>
      <trkpt lat="43.471909" lon="-8.266282">
        <ele>82.623</ele>
        <time>2016-09-22T15:51:37Z</time>
      </trkpt>
      <trkpt lat="43.471990" lon="-8.266178">
        <ele>81.815</ele>
        <time>2016-09-22T15:51:38Z</time>
      </trkpt>
      <trkpt lat="43.472067" lon="-8.266058">
        <ele>80.808</ele>
        <time>2016-09-22T15:51:39Z</time>
      </trkpt>
      <trkpt lat="43.472136" lon="-8.265925">
        <ele>79.064</ele>
        <time>2016-09-22T15:51:40Z</time>
      </trkpt>
      <trkpt lat="43.472194" lon="-8.265784">
        <ele>77.438</ele>
        <time>2016-09-22T15:51:41Z</time>
      </trkpt>
      <trkpt lat="43.472241" lon="-8.265637">
        <ele>76.273</ele>
        <time>2016-09-22T15:51:42Z</time>
      </trkpt>
      <trkpt lat="43.472282" lon="-8.265481">
        <ele>74.651</ele>
        <time>2016-09-22T15:51:43Z</time>
      </trkpt>
      <trkpt lat="43.472324" lon="-8.265324">
        <ele>73.459</ele>
        <time>2016-09-22T15:51:44Z</time>
      </trkpt>
      <trkpt lat="43.472370" lon="-8.265172">
        <ele>71.819</ele>
        <time>2016-09-22T15:51:45Z</time>
      </trkpt>
      <trkpt lat="43.472426" lon="-8.265024">
        <ele>69.841</ele>
        <time>2016-09-22T15:51:46Z</time>
      </trkpt>
      <trkpt lat="43.472492" lon="-8.264885">
        <ele>68.013</ele>
        <time>2016-09-22T15:51:47Z</time>
      </trkpt>
      <trkpt lat="43.472565" lon="-8.264755">
        <ele>65.859</ele>
        <time>2016-09-22T15:51:48Z</time>
      </trkpt>
      <trkpt lat="43.472644" lon="-8.264634">
        <ele>64.003</ele>
        <time>2016-09-22T15:51:49Z</time>
      </trkpt>
      <trkpt lat="43.472727" lon="-8.264517">
        <ele>62.423</ele>
        <time>2016-09-22T15:51:50Z</time>
      </trkpt>
      <trkpt lat="43.472815" lon="-8.264399">
        <ele>60.608</ele>
        <time>2016-09-22T15:51:51Z</time>
      </trkpt>
      <trkpt lat="43.472910" lon="-8.264278">
        <ele>58.826</ele>
        <time>2016-09-22T15:51:52Z</time>
      </trkpt>
      <trkpt lat="43.473013" lon="-8.264156">
        <ele>57.450</ele>
        <time>2016-09-22T15:51:53Z</time>
      </trkpt>
      <trkpt lat="43.473122" lon="-8.264038">
        <ele>55.425</ele>
        <time>2016-09-22T15:51:54Z</time>
      </trkpt>
      <trkpt lat="43.473237" lon="-8.263928">
        <ele>53.223</ele>
        <time>2016-09-22T15:51:55Z</time>
      </trkpt>
      <trkpt lat="43.473356" lon="-8.263827">
        <ele>51.261</ele>
        <time>2016-09-22T15:51:56Z</time>
      </trkpt>
      <trkpt lat="43.473477" lon="-8.263748">
        <ele>49.681</ele>
        <time>2016-09-22T15:51:57Z</time>
      </trkpt>
      <trkpt lat="43.473599" lon="-8.263696">
        <ele>47.833</ele>
        <time>2016-09-22T15:51:58Z</time>
      </trkpt>
      <trkpt lat="43.473722" lon="-8.263672">
        <ele>46.635</ele>
        <time>2016-09-22T15:51:59Z</time>
      </trkpt>
      <trkpt lat="43.473959" lon="-8.263698">
        <ele>45.084</ele>
        <time>2016-09-22T15:52:01Z</time>
      </trkpt>
      <trkpt lat="43.474076" lon="-8.263732">
        <ele>44.207</ele>
        <time>2016-09-22T15:52:02Z</time>
      </trkpt>
      <trkpt lat="43.474193" lon="-8.263771">
        <ele>42.817</ele>
        <time>2016-09-22T15:52:03Z</time>
      </trkpt>
      <trkpt lat="43.474313" lon="-8.263815">
        <ele>41.008</ele>
        <time>2016-09-22T15:52:04Z</time>
      </trkpt>
      <trkpt lat="43.474433" lon="-8.263851">
        <ele>39.639</ele>
        <time>2016-09-22T15:52:05Z</time>
      </trkpt>
      <trkpt lat="43.474559" lon="-8.263872">
        <ele>38.293</ele>
        <time>2016-09-22T15:52:06Z</time>
      </trkpt>
      <trkpt lat="43.474690" lon="-8.263866">
        <ele>37.048</ele>
        <time>2016-09-22T15:52:07Z</time>
      </trkpt>
      <trkpt lat="43.474824" lon="-8.263827">
        <ele>35.676</ele>
        <time>2016-09-22T15:52:08Z</time>
      </trkpt>
      <trkpt lat="43.474964" lon="-8.263768">
        <ele>34.084</ele>
        <time>2016-09-22T15:52:09Z</time>
      </trkpt>
      <trkpt lat="43.475107" lon="-8.263695">
        <ele>31.494</ele>
        <time>2016-09-22T15:52:10Z</time>
      </trkpt>
      <trkpt lat="43.475253" lon="-8.263613">
        <ele>28.666</ele>
        <time>2016-09-22T15:52:11Z</time>
      </trkpt>
      <trkpt lat="43.475404" lon="-8.263542">
        <ele>25.638</ele>
        <time>2016-09-22T15:52:12Z</time>
      </trkpt>
      <trkpt lat="43.475555" lon="-8.263489">
        <ele>23.649</ele>
        <time>2016-09-22T15:52:13Z</time>
      </trkpt>
      <trkpt lat="43.475700" lon="-8.263453">
        <ele>21.402</ele>
        <time>2016-09-22T15:52:14Z</time>
      </trkpt>
      <trkpt lat="43.475840" lon="-8.263419">
        <ele>19.622</ele>
        <time>2016-09-22T15:52:15Z</time>
      </trkpt>
      <trkpt lat="43.475978" lon="-8.263383">
        <ele>18.408</ele>
        <time>2016-09-22T15:52:16Z</time>
      </trkpt>
      <trkpt lat="43.476113" lon="-8.263344">
        <ele>17.235</ele>
        <time>2016-09-22T15:52:17Z</time>
      </trkpt>
      <trkpt lat="43.476372" lon="-8.263266">
        <ele>15.459</ele>
        <time>2016-09-22T15:52:19Z</time>
      </trkpt>
      <trkpt lat="43.476493" lon="-8.263225">
        <ele>14.434</ele>
        <time>2016-09-22T15:52:20Z</time>
      </trkpt>
      <trkpt lat="43.476724" lon="-8.263144">
        <ele>13.232</ele>
        <time>2016-09-22T15:52:22Z</time>
      </trkpt>
      <trkpt lat="43.476943" lon="-8.263066">
        <ele>12.010</ele>
        <time>2016-09-22T15:52:24Z</time>
      </trkpt>
      <trkpt lat="43.477046" lon="-8.263048">
        <ele>11.440</ele>
        <time>2016-09-22T15:52:25Z</time>
      </trkpt>
      <trkpt lat="43.477137" lon="-8.263053">
        <ele>11.252</ele>
        <time>2016-09-22T15:52:26Z</time>
      </trkpt>
      <trkpt lat="43.477325" lon="-8.263159">
        <ele>11.034</ele>
        <time>2016-09-22T15:52:29Z</time>
      </trkpt>
      <trkpt lat="43.477372" lon="-8.263200">
        <ele>11.228</ele>
        <time>2016-09-22T15:52:30Z</time>
      </trkpt>
      <trkpt lat="43.477594" lon="-8.263409">
        <ele>12.289</ele>
        <time>2016-09-22T15:52:35Z</time>
      </trkpt>
      <trkpt lat="43.477885" lon="-8.263613">
        <ele>12.617</ele>
        <time>2016-09-22T15:52:41Z</time>
      </trkpt>
      <trkpt lat="43.477935" lon="-8.263632">
        <ele>12.608</ele>
        <time>2016-09-22T15:52:42Z</time>
      </trkpt>
      <trkpt lat="43.478263" lon="-8.263698">
        <ele>13.083</ele>
        <time>2016-09-22T15:52:49Z</time>
      </trkpt>
      <trkpt lat="43.478397" lon="-8.263698">
        <ele>13.017</ele>
        <time>2016-09-22T15:52:52Z</time>
      </trkpt>
      <trkpt lat="43.478494" lon="-8.263710">
        <ele>13.032</ele>
        <time>2016-09-22T15:52:54Z</time>
      </trkpt>
      <trkpt lat="43.478543" lon="-8.263727">
        <ele>13.060</ele>
        <time>2016-09-22T15:52:55Z</time>
      </trkpt>
      <trkpt lat="43.478692" lon="-8.263728">
        <ele>12.498</ele>
        <time>2016-09-22T15:52:58Z</time>
      </trkpt>
      <trkpt lat="43.478768" lon="-8.263623">
        <ele>12.038</ele>
        <time>2016-09-22T15:53:00Z</time>
      </trkpt>
      <trkpt lat="43.478792" lon="-8.263561">
        <ele>11.880</ele>
        <time>2016-09-22T15:53:01Z</time>
      </trkpt>
      <trkpt lat="43.478831" lon="-8.263408">
        <ele>12.272</ele>
        <time>2016-09-22T15:53:04Z</time>
      </trkpt>
      <trkpt lat="43.478840" lon="-8.263377">
        <ele>12.614</ele>
        <time>2016-09-22T15:53:07Z</time>
      </trkpt>
      <trkpt lat="43.478885" lon="-8.263284">
        <ele>13.854</ele>
        <time>2016-09-22T15:53:43Z</time>
      </trkpt>
      <trkpt lat="43.478950" lon="-8.263131">
        <ele>15.209</ele>
        <time>2016-09-22T15:53:49Z</time>
      </trkpt>
      <trkpt lat="43.478984" lon="-8.263029">
        <ele>16.208</ele>
        <time>2016-09-22T15:53:52Z</time>
      </trkpt>
      <trkpt lat="43.478998" lon="-8.262916">
        <ele>17.082</ele>
        <time>2016-09-22T15:53:55Z</time>
      </trkpt>
      <trkpt lat="43.478988" lon="-8.262767">
        <ele>17.286</ele>
        <time>2016-09-22T15:53:58Z</time>
      </trkpt>
      <trkpt lat="43.478993" lon="-8.262707">
        <ele>17.091</ele>
        <time>2016-09-22T15:53:59Z</time>
      </trkpt>
      <trkpt lat="43.479006" lon="-8.262509">
        <ele>16.689</ele>
        <time>2016-09-22T15:54:02Z</time>
      </trkpt>
      <trkpt lat="43.479004" lon="-8.262424">
        <ele>16.447</ele>
        <time>2016-09-22T15:54:03Z</time>
      </trkpt>
      <trkpt lat="43.478994" lon="-8.262224">
        <ele>15.097</ele>
        <time>2016-09-22T15:54:05Z</time>
      </trkpt>
      <trkpt lat="43.478969" lon="-8.262012">
        <ele>13.679</ele>
        <time>2016-09-22T15:54:07Z</time>
      </trkpt>
      <trkpt lat="43.478889" lon="-8.261834">
        <ele>12.451</ele>
        <time>2016-09-22T15:54:09Z</time>
      </trkpt>
      <trkpt lat="43.478787" lon="-8.261701">
        <ele>10.864</ele>
        <time>2016-09-22T15:54:11Z</time>
      </trkpt>
      <trkpt lat="43.478739" lon="-8.261640">
        <ele>9.606</ele>
        <time>2016-09-22T15:54:12Z</time>
      </trkpt>
      <trkpt lat="43.478701" lon="-8.261579">
        <ele>9.016</ele>
        <time>2016-09-22T15:54:13Z</time>
      </trkpt>
      <trkpt lat="43.478683" lon="-8.261510">
        <ele>8.408</ele>
        <time>2016-09-22T15:54:14Z</time>
      </trkpt>
      <trkpt lat="43.478746" lon="-8.261301">
        <ele>7.467</ele>
        <time>2016-09-22T15:54:17Z</time>
      </trkpt>
      <trkpt lat="43.478910" lon="-8.261250">
        <ele>6.431</ele>
        <time>2016-09-22T15:54:20Z</time>
      </trkpt>
      <trkpt lat="43.479174" lon="-8.261176">
        <ele>7.416</ele>
        <time>2016-09-22T15:54:26Z</time>
      </trkpt>
      <trkpt lat="43.479296" lon="-8.261160">
        <ele>8.634</ele>
        <time>2016-09-22T15:54:30Z</time>
      </trkpt>
      <trkpt lat="43.479324" lon="-8.261158">
        <ele>9.212</ele>
        <time>2016-09-22T15:54:31Z</time>
      </trkpt>
      <trkpt lat="43.479379" lon="-8.261149">
        <ele>9.892</ele>
        <time>2016-09-22T15:54:33Z</time>
      </trkpt>
      <trkpt lat="43.479491" lon="-8.261094">
        <ele>11.014</ele>
        <time>2016-09-22T15:54:37Z</time>
      </trkpt>
      <trkpt lat="43.479653" lon="-8.261020">
        <ele>11.656</ele>
        <time>2016-09-22T15:54:41Z</time>
      </trkpt>
      <trkpt lat="43.479699" lon="-8.261018">
        <ele>11.843</ele>
        <time>2016-09-22T15:54:42Z</time>
      </trkpt>
      <trkpt lat="43.479834" lon="-8.261024">
        <ele>12.064</ele>
        <time>2016-09-22T15:54:45Z</time>
      </trkpt>
      <trkpt lat="43.479934" lon="-8.261043">
        <ele>12.810</ele>
        <time>2016-09-22T15:54:48Z</time>
      </trkpt>
      <trkpt lat="43.479963" lon="-8.261042">
        <ele>13.208</ele>
        <time>2016-09-22T15:54:49Z</time>
      </trkpt>
      <trkpt lat="43.480073" lon="-8.261031">
        <ele>14.245</ele>
        <time>2016-09-22T15:54:53Z</time>
      </trkpt>
      <trkpt lat="43.480097" lon="-8.261023">
        <ele>14.229</ele>
        <time>2016-09-22T15:54:54Z</time>
      </trkpt>
      <trkpt lat="43.480206" lon="-8.260997">
        <ele>15.494</ele>
        <time>2016-09-22T15:54:59Z</time>
      </trkpt>
      <trkpt lat="43.480247" lon="-8.260993">
        <ele>16.042</ele>
        <time>2016-09-22T15:55:01Z</time>
      </trkpt>
      <trkpt lat="43.480293" lon="-8.260989">
        <ele>16.460</ele>
        <time>2016-09-22T15:55:03Z</time>
      </trkpt>
      <trkpt lat="43.480372" lon="-8.260962">
        <ele>17.480</ele>
        <time>2016-09-22T15:55:07Z</time>
      </trkpt>
      <trkpt lat="43.480396" lon="-8.260958">
        <ele>17.892</ele>
        <time>2016-09-22T15:55:08Z</time>
      </trkpt>
      <trkpt lat="43.480487" lon="-8.260940">
        <ele>18.684</ele>
        <time>2016-09-22T15:55:12Z</time>
      </trkpt>
      <trkpt lat="43.480561" lon="-8.260943">
        <ele>19.643</ele>
        <time>2016-09-22T15:55:15Z</time>
      </trkpt>
      <trkpt lat="43.480580" lon="-8.260945">
        <ele>19.864</ele>
        <time>2016-09-22T15:55:16Z</time>
      </trkpt>
      <trkpt lat="43.480662" lon="-8.260946">
        <ele>20.610</ele>
        <time>2016-09-22T15:55:20Z</time>
      </trkpt>
      <trkpt lat="43.480703" lon="-8.260940">
        <ele>21.208</ele>
        <time>2016-09-22T15:55:22Z</time>
      </trkpt>
      <trkpt lat="43.480767" lon="-8.260934">
        <ele>21.835</ele>
        <time>2016-09-22T15:55:25Z</time>
      </trkpt>
      <trkpt lat="43.480846" lon="-8.260935">
        <ele>23.059</ele>
        <time>2016-09-22T15:55:29Z</time>
      </trkpt>
      <trkpt lat="43.480865" lon="-8.260938">
        <ele>23.264</ele>
        <time>2016-09-22T15:55:30Z</time>
      </trkpt>
      <trkpt lat="43.480915" lon="-8.260941">
        <ele>24.022</ele>
        <time>2016-09-22T15:55:33Z</time>
      </trkpt>
      <trkpt lat="43.480974" lon="-8.260940">
        <ele>24.670</ele>
        <time>2016-09-22T15:55:36Z</time>
      </trkpt>
      <trkpt lat="43.481010" lon="-8.260941">
        <ele>25.260</ele>
        <time>2016-09-22T15:55:38Z</time>
      </trkpt>
      <trkpt lat="43.481079" lon="-8.260965">
        <ele>26.452</ele>
        <time>2016-09-22T15:55:42Z</time>
      </trkpt>
      <trkpt lat="43.481160" lon="-8.260994">
        <ele>27.634</ele>
        <time>2016-09-22T15:55:47Z</time>
      </trkpt>
      <trkpt lat="43.481202" lon="-8.261002">
        <ele>28.291</ele>
        <time>2016-09-22T15:55:50Z</time>
      </trkpt>
      <trkpt lat="43.481231" lon="-8.261005">
        <ele>28.681</ele>
        <time>2016-09-22T15:55:52Z</time>
      </trkpt>
      <trkpt lat="43.481295" lon="-8.261011">
        <ele>29.819</ele>
        <time>2016-09-22T15:55:56Z</time>
      </trkpt>
      <trkpt lat="43.481357" lon="-8.261019">
        <ele>31.008</ele>
        <time>2016-09-22T15:56:00Z</time>
      </trkpt>
      <trkpt lat="43.481414" lon="-8.261024">
        <ele>32.290</ele>
        <time>2016-09-22T15:56:04Z</time>
      </trkpt>
      <trkpt lat="43.481455" lon="-8.261028">
        <ele>32.654</ele>
        <time>2016-09-22T15:56:07Z</time>
      </trkpt>
      <trkpt lat="43.481480" lon="-8.261027">
        <ele>33.229</ele>
        <time>2016-09-22T15:56:09Z</time>
      </trkpt>
      <trkpt lat="43.481534" lon="-8.261031">
        <ele>34.037</ele>
        <time>2016-09-22T15:56:13Z</time>
      </trkpt>
      <trkpt lat="43.481563" lon="-8.261039">
        <ele>34.455</ele>
        <time>2016-09-22T15:56:15Z</time>
      </trkpt>
      <trkpt lat="43.481631" lon="-8.261051">
        <ele>35.435</ele>
        <time>2016-09-22T15:56:20Z</time>
      </trkpt>
      <trkpt lat="43.481703" lon="-8.261070">
        <ele>36.677</ele>
        <time>2016-09-22T15:56:25Z</time>
      </trkpt>
      <trkpt lat="43.481743" lon="-8.261082">
        <ele>37.619</ele>
        <time>2016-09-22T15:56:28Z</time>
      </trkpt>
      <trkpt lat="43.481759" lon="-8.261086">
        <ele>38.067</ele>
        <time>2016-09-22T15:56:29Z</time>
      </trkpt>
      <trkpt lat="43.481853" lon="-8.261086">
        <ele>38.881</ele>
        <time>2016-09-22T15:56:35Z</time>
      </trkpt>
      <trkpt lat="43.481869" lon="-8.261087">
        <ele>39.219</ele>
        <time>2016-09-22T15:56:36Z</time>
      </trkpt>
      <trkpt lat="43.481933" lon="-8.261106">
        <ele>40.208</ele>
        <time>2016-09-22T15:56:40Z</time>
      </trkpt>
      <trkpt lat="43.481953" lon="-8.261116">
        <ele>40.467</ele>
        <time>2016-09-22T15:56:41Z</time>
      </trkpt>
      <trkpt lat="43.482041" lon="-8.261165">
        <ele>41.441</ele>
        <time>2016-09-22T15:56:46Z</time>
      </trkpt>
      <trkpt lat="43.482217" lon="-8.261206">
        <ele>42.456</ele>
        <time>2016-09-22T15:56:54Z</time>
      </trkpt>
      <trkpt lat="43.482354" lon="-8.261244">
        <ele>42.654</ele>
        <time>2016-09-22T15:57:00Z</time>
      </trkpt>
      <trkpt lat="43.482422" lon="-8.261223">
        <ele>42.882</ele>
        <time>2016-09-22T15:57:03Z</time>
      </trkpt>
      <trkpt lat="43.482474" lon="-8.261199">
        <ele>43.252</ele>
        <time>2016-09-22T15:57:05Z</time>
      </trkpt>
      <trkpt lat="43.482655" lon="-8.261131">
        <ele>43.834</ele>
        <time>2016-09-22T15:57:11Z</time>
      </trkpt>
      <trkpt lat="43.482714" lon="-8.261120">
        <ele>43.826</ele>
        <time>2016-09-22T15:57:13Z</time>
      </trkpt>
      <trkpt lat="43.482876" lon="-8.261031">
        <ele>44.265</ele>
        <time>2016-09-22T15:57:20Z</time>
      </trkpt>
      <trkpt lat="43.482935" lon="-8.260967">
        <ele>44.468</ele>
        <time>2016-09-22T15:57:25Z</time>
      </trkpt>
      <trkpt lat="43.482936" lon="-8.260969">
        <ele>44.414</ele>
        <time>2016-09-22T15:57:26Z</time>
      </trkpt>
      <trkpt lat="43.482968" lon="-8.260928">
        <ele>44.208</ele>
        <time>2016-09-22T15:57:39Z</time>
      </trkpt>
      <trkpt lat="43.482997" lon="-8.260876">
        <ele>44.237</ele>
        <time>2016-09-22T15:57:41Z</time>
      </trkpt>
      <trkpt lat="43.483118" lon="-8.260720">
        <ele>43.411</ele>
        <time>2016-09-22T15:57:45Z</time>
      </trkpt>
      <trkpt lat="43.483194" lon="-8.260599">
        <ele>42.846</ele>
        <time>2016-09-22T15:57:47Z</time>
      </trkpt>
      <trkpt lat="43.483265" lon="-8.260435">
        <ele>42.084</ele>
        <time>2016-09-22T15:57:49Z</time>
      </trkpt>
      <trkpt lat="43.483308" lon="-8.260344">
        <ele>41.632</ele>
        <time>2016-09-22T15:57:50Z</time>
      </trkpt>
      <trkpt lat="43.483416" lon="-8.260154">
        <ele>40.432</ele>
        <time>2016-09-22T15:57:52Z</time>
      </trkpt>
      <trkpt lat="43.483484" lon="-8.260060">
        <ele>39.684</ele>
        <time>2016-09-22T15:57:53Z</time>
      </trkpt>
      <trkpt lat="43.483558" lon="-8.259966">
        <ele>39.056</ele>
        <time>2016-09-22T15:57:54Z</time>
      </trkpt>
      <trkpt lat="43.483715" lon="-8.259770">
        <ele>37.685</ele>
        <time>2016-09-22T15:57:56Z</time>
      </trkpt>
      <trkpt lat="43.483801" lon="-8.259669">
        <ele>36.289</ele>
        <time>2016-09-22T15:57:57Z</time>
      </trkpt>
      <trkpt lat="43.483896" lon="-8.259584">
        <ele>34.817</ele>
        <time>2016-09-22T15:57:58Z</time>
      </trkpt>
      <trkpt lat="43.484001" lon="-8.259523">
        <ele>33.608</ele>
        <time>2016-09-22T15:57:59Z</time>
      </trkpt>
      <trkpt lat="43.484216" lon="-8.259454">
        <ele>32.299</ele>
        <time>2016-09-22T15:58:01Z</time>
      </trkpt>
      <trkpt lat="43.484324" lon="-8.259430">
        <ele>31.433</ele>
        <time>2016-09-22T15:58:02Z</time>
      </trkpt>
      <trkpt lat="43.484430" lon="-8.259406">
        <ele>30.698</ele>
        <time>2016-09-22T15:58:03Z</time>
      </trkpt>
      <trkpt lat="43.484642" lon="-8.259362">
        <ele>29.296</ele>
        <time>2016-09-22T15:58:05Z</time>
      </trkpt>
      <trkpt lat="43.484867" lon="-8.259341">
        <ele>27.494</ele>
        <time>2016-09-22T15:58:07Z</time>
      </trkpt>
      <trkpt lat="43.484986" lon="-8.259338">
        <ele>26.034</ele>
        <time>2016-09-22T15:58:08Z</time>
      </trkpt>
      <trkpt lat="43.485109" lon="-8.259353">
        <ele>24.846</ele>
        <time>2016-09-22T15:58:09Z</time>
      </trkpt>
      <trkpt lat="43.485230" lon="-8.259387">
        <ele>23.618</ele>
        <time>2016-09-22T15:58:10Z</time>
      </trkpt>
      <trkpt lat="43.485348" lon="-8.259430">
        <ele>22.431</ele>
        <time>2016-09-22T15:58:11Z</time>
      </trkpt>
      <trkpt lat="43.485466" lon="-8.259483">
        <ele>21.061</ele>
        <time>2016-09-22T15:58:12Z</time>
      </trkpt>
      <trkpt lat="43.485583" lon="-8.259539">
        <ele>19.807</ele>
        <time>2016-09-22T15:58:13Z</time>
      </trkpt>
      <trkpt lat="43.485821" lon="-8.259649">
        <ele>17.808</ele>
        <time>2016-09-22T15:58:15Z</time>
      </trkpt>
      <trkpt lat="43.485936" lon="-8.259699">
        <ele>16.674</ele>
        <time>2016-09-22T15:58:16Z</time>
      </trkpt>
      <trkpt lat="43.486044" lon="-8.259744">
        <ele>15.478</ele>
        <time>2016-09-22T15:58:17Z</time>
      </trkpt>
      <trkpt lat="43.486148" lon="-8.259780">
        <ele>14.273</ele>
        <time>2016-09-22T15:58:18Z</time>
      </trkpt>
      <trkpt lat="43.486248" lon="-8.259796">
        <ele>13.061</ele>
        <time>2016-09-22T15:58:19Z</time>
      </trkpt>
      <trkpt lat="43.486345" lon="-8.259797">
        <ele>11.619</ele>
        <time>2016-09-22T15:58:20Z</time>
      </trkpt>
      <trkpt lat="43.486428" lon="-8.259792">
        <ele>9.499</ele>
        <time>2016-09-22T15:58:21Z</time>
      </trkpt>
      <trkpt lat="43.486496" lon="-8.259785">
        <ele>8.251</ele>
        <time>2016-09-22T15:58:22Z</time>
      </trkpt>
      <trkpt lat="43.486545" lon="-8.259769">
        <ele>6.813</ele>
        <time>2016-09-22T15:58:23Z</time>
      </trkpt>
      <trkpt lat="43.486576" lon="-8.259740">
        <ele>5.676</ele>
        <time>2016-09-22T15:58:24Z</time>
      </trkpt>
      <trkpt lat="43.486592" lon="-8.259697">
        <ele>4.690</ele>
        <time>2016-09-22T15:58:25Z</time>
      </trkpt>
      <trkpt lat="43.486599" lon="-8.259646">
        <ele>4.019</ele>
        <time>2016-09-22T15:58:26Z</time>
      </trkpt>
      <trkpt lat="43.486599" lon="-8.259522">
        <ele>3.008</ele>
        <time>2016-09-22T15:58:28Z</time>
      </trkpt>
      <trkpt lat="43.486599" lon="-8.259457">
        <ele>2.838</ele>
        <time>2016-09-22T15:58:29Z</time>
      </trkpt>
      <trkpt lat="43.486609" lon="-8.259017">
        <ele>2.452</ele>
        <time>2016-09-22T15:58:36Z</time>
      </trkpt>
      <trkpt lat="43.486624" lon="-8.258963">
        <ele>2.087</ele>
        <time>2016-09-22T15:58:37Z</time>
      </trkpt>
      <trkpt lat="43.486710" lon="-8.258895">
        <ele>2.215</ele>
        <time>2016-09-22T15:58:40Z</time>
      </trkpt>
      <trkpt lat="43.486771" lon="-8.258902">
        <ele>2.243</ele>
        <time>2016-09-22T15:58:42Z</time>
      </trkpt>
      <trkpt lat="43.486947" lon="-8.258934">
        <ele>3.043</ele>
        <time>2016-09-22T15:58:47Z</time>
      </trkpt>
      <trkpt lat="43.487264" lon="-8.258985">
        <ele>2.815</ele>
        <time>2016-09-22T15:58:55Z</time>
      </trkpt>
      <trkpt lat="43.487637" lon="-8.259068">
        <ele>3.287</ele>
        <time>2016-09-22T15:59:04Z</time>
      </trkpt>
      <trkpt lat="43.487681" lon="-8.259075">
        <ele>3.089</ele>
        <time>2016-09-22T15:59:05Z</time>
      </trkpt>
      <trkpt lat="43.487816" lon="-8.259083">
        <ele>2.606</ele>
        <time>2016-09-22T15:59:08Z</time>
      </trkpt>
      <trkpt lat="43.487862" lon="-8.259096">
        <ele>2.426</ele>
        <time>2016-09-22T15:59:09Z</time>
      </trkpt>
      <trkpt lat="43.487955" lon="-8.259114">
        <ele>2.408</ele>
        <time>2016-09-22T15:59:11Z</time>
      </trkpt>
      <trkpt lat="43.488042" lon="-8.259056">
        <ele>2.249</ele>
        <time>2016-09-22T15:59:13Z</time>
      </trkpt>
      <trkpt lat="43.488084" lon="-8.259017">
        <ele>2.293</ele>
        <time>2016-09-22T15:59:14Z</time>
      </trkpt>
      <trkpt lat="43.488420" lon="-8.258706">
        <ele>1.838</ele>
        <time>2016-09-22T15:59:22Z</time>
      </trkpt>
      <trkpt lat="43.488893" lon="-8.258268">
        <ele>2.266</ele>
        <time>2016-09-22T15:59:33Z</time>
      </trkpt>
      <trkpt lat="43.489234" lon="-8.257951">
        <ele>2.074</ele>
        <time>2016-09-22T15:59:41Z</time>
      </trkpt>
      <trkpt lat="43.489576" lon="-8.257547">
        <ele>2.414</ele>
        <time>2016-09-22T15:59:50Z</time>
      </trkpt>
      <trkpt lat="43.489642" lon="-8.257448">
        <ele>2.486</ele>
        <time>2016-09-22T15:59:52Z</time>
      </trkpt>
      <trkpt lat="43.489825" lon="-8.257121">
        <ele>2.428</ele>
        <time>2016-09-22T15:59:58Z</time>
      </trkpt>
      <trkpt lat="43.490010" lon="-8.256699">
        <ele>2.244</ele>
        <time>2016-09-22T16:00:05Z</time>
      </trkpt>
      <trkpt lat="43.490163" lon="-8.256195">
        <ele>2.205</ele>
        <time>2016-09-22T16:00:13Z</time>
      </trkpt>
      <trkpt lat="43.490286" lon="-8.255672">
        <ele>2.415</ele>
        <time>2016-09-22T16:00:21Z</time>
      </trkpt>
      <trkpt lat="43.490308" lon="-8.255613">
        <ele>2.408</ele>
        <time>2016-09-22T16:00:22Z</time>
      </trkpt>
      <trkpt lat="43.490338" lon="-8.255493">
        <ele>2.275</ele>
        <time>2016-09-22T16:00:24Z</time>
      </trkpt>
      <trkpt lat="43.490337" lon="-8.255370">
        <ele>2.279</ele>
        <time>2016-09-22T16:00:26Z</time>
      </trkpt>
      <trkpt lat="43.490355" lon="-8.255247">
        <ele>2.064</ele>
        <time>2016-09-22T16:00:28Z</time>
      </trkpt>
      <trkpt lat="43.490395" lon="-8.255056">
        <ele>2.082</ele>
        <time>2016-09-22T16:00:31Z</time>
      </trkpt>
      <trkpt lat="43.490492" lon="-8.254473">
        <ele>2.430</ele>
        <time>2016-09-22T16:00:40Z</time>
      </trkpt>
      <trkpt lat="43.490489" lon="-8.254328">
        <ele>3.060</ele>
        <time>2016-09-22T16:00:44Z</time>
      </trkpt>
      <trkpt lat="43.490493" lon="-8.254288">
        <ele>3.652</ele>
        <time>2016-09-22T16:00:46Z</time>
      </trkpt>
      <trkpt lat="43.490497" lon="-8.254222">
        <ele>4.694</ele>
        <time>2016-09-22T16:00:49Z</time>
      </trkpt>
      <trkpt lat="43.490510" lon="-8.254142">
        <ele>5.898</ele>
        <time>2016-09-22T16:00:52Z</time>
      </trkpt>
      <trkpt lat="43.490526" lon="-8.254056">
        <ele>6.615</ele>
        <time>2016-09-22T16:00:55Z</time>
      </trkpt>
      <trkpt lat="43.490538" lon="-8.254002">
        <ele>6.826</ele>
        <time>2016-09-22T16:00:57Z</time>
      </trkpt>
      <trkpt lat="43.490549" lon="-8.253890">
        <ele>8.208</ele>
        <time>2016-09-22T16:01:01Z</time>
      </trkpt>
      <trkpt lat="43.490552" lon="-8.253861">
        <ele>8.650</ele>
        <time>2016-09-22T16:01:02Z</time>
      </trkpt>
      <trkpt lat="43.490552" lon="-8.253810">
        <ele>9.484</ele>
        <time>2016-09-22T16:01:04Z</time>
      </trkpt>
      <trkpt lat="43.490547" lon="-8.253674">
        <ele>10.429</ele>
        <time>2016-09-22T16:01:09Z</time>
      </trkpt>
      <trkpt lat="43.490553" lon="-8.253588">
        <ele>11.697</ele>
        <time>2016-09-22T16:01:12Z</time>
      </trkpt>
      <trkpt lat="43.490558" lon="-8.253469">
        <ele>12.645</ele>
        <time>2016-09-22T16:01:16Z</time>
      </trkpt>
      <trkpt lat="43.490557" lon="-8.253442">
        <ele>13.095</ele>
        <time>2016-09-22T16:01:17Z</time>
      </trkpt>
      <trkpt lat="43.490555" lon="-8.253320">
        <ele>14.237</ele>
        <time>2016-09-22T16:01:21Z</time>
      </trkpt>
      <trkpt lat="43.490550" lon="-8.253248">
        <ele>14.479</ele>
        <time>2016-09-22T16:01:23Z</time>
      </trkpt>
      <trkpt lat="43.490535" lon="-8.253122">
        <ele>15.289</ele>
        <time>2016-09-22T16:01:27Z</time>
      </trkpt>
      <trkpt lat="43.490512" lon="-8.253029">
        <ele>15.206</ele>
        <time>2016-09-22T16:01:30Z</time>
      </trkpt>
      <trkpt lat="43.490410" lon="-8.252809">
        <ele>15.226</ele>
        <time>2016-09-22T16:01:36Z</time>
      </trkpt>
      <trkpt lat="43.490315" lon="-8.252704">
        <ele>14.808</ele>
        <time>2016-09-22T16:01:39Z</time>
      </trkpt>
      <trkpt lat="43.490234" lon="-8.252643">
        <ele>14.239</ele>
        <time>2016-09-22T16:01:41Z</time>
      </trkpt>
      <trkpt lat="43.490188" lon="-8.252616">
        <ele>13.823</ele>
        <time>2016-09-22T16:01:42Z</time>
      </trkpt>
      <trkpt lat="43.490026" lon="-8.252590">
        <ele>13.068</ele>
        <time>2016-09-22T16:01:45Z</time>
      </trkpt>
      <trkpt lat="43.489922" lon="-8.252564">
        <ele>12.016</ele>
        <time>2016-09-22T16:01:47Z</time>
      </trkpt>
      <trkpt lat="43.489864" lon="-8.252473">
        <ele>11.284</ele>
        <time>2016-09-22T16:01:49Z</time>
      </trkpt>
      <trkpt lat="43.489865" lon="-8.252414">
        <ele>10.654</ele>
        <time>2016-09-22T16:01:50Z</time>
      </trkpt>
      <trkpt lat="43.489907" lon="-8.252334">
        <ele>10.266</ele>
        <time>2016-09-22T16:01:52Z</time>
      </trkpt>
      <trkpt lat="43.489970" lon="-8.252305">
        <ele>10.088</ele>
        <time>2016-09-22T16:01:54Z</time>
      </trkpt>
      <trkpt lat="43.490053" lon="-8.252267">
        <ele>10.893</ele>
        <time>2016-09-22T16:01:57Z</time>
      </trkpt>
      <trkpt lat="43.490128" lon="-8.252230">
        <ele>11.865</ele>
        <time>2016-09-22T16:02:00Z</time>
      </trkpt>
      <trkpt lat="43.490239" lon="-8.252131">
        <ele>12.621</ele>
        <time>2016-09-22T16:02:05Z</time>
      </trkpt>
      <trkpt lat="43.490277" lon="-8.252079">
        <ele>12.808</ele>
        <time>2016-09-22T16:02:07Z</time>
      </trkpt>
      <trkpt lat="43.490311" lon="-8.252021">
        <ele>14.090</ele>
        <time>2016-09-22T16:02:09Z</time>
      </trkpt>
      <trkpt lat="43.490363" lon="-8.251895">
        <ele>15.044</ele>
        <time>2016-09-22T16:02:13Z</time>
      </trkpt>
      <trkpt lat="43.490468" lon="-8.251605">
        <ele>15.699</ele>
        <time>2016-09-22T16:02:21Z</time>
      </trkpt>
      <trkpt lat="43.490582" lon="-8.251565">
        <ele>16.067</ele>
        <time>2016-09-22T16:02:25Z</time>
      </trkpt>
      <trkpt lat="43.490614" lon="-8.251568">
        <ele>16.045</ele>
        <time>2016-09-22T16:02:26Z</time>
      </trkpt>
      <trkpt lat="43.490707" lon="-8.251578">
        <ele>17.245</ele>
        <time>2016-09-22T16:02:29Z</time>
      </trkpt>
      <trkpt lat="43.490852" lon="-8.251574">
        <ele>18.037</ele>
        <time>2016-09-22T16:02:34Z</time>
      </trkpt>
      <trkpt lat="43.490882" lon="-8.251570">
        <ele>18.239</ele>
        <time>2016-09-22T16:02:35Z</time>
      </trkpt>
      <trkpt lat="43.491066" lon="-8.251550">
        <ele>18.494</ele>
        <time>2016-09-22T16:02:41Z</time>
      </trkpt>
      <trkpt lat="43.491138" lon="-8.251496">
        <ele>19.457</ele>
        <time>2016-09-22T16:02:44Z</time>
      </trkpt>
      <trkpt lat="43.491174" lon="-8.251451">
        <ele>19.622</ele>
        <time>2016-09-22T16:02:46Z</time>
      </trkpt>
      <trkpt lat="43.491306" lon="-8.251277">
        <ele>19.208</ele>
        <time>2016-09-22T16:02:52Z</time>
      </trkpt>
      <trkpt lat="43.491459" lon="-8.251002">
        <ele>18.260</ele>
        <time>2016-09-22T16:02:59Z</time>
      </trkpt>
      <trkpt lat="43.491492" lon="-8.250941">
        <ele>17.814</ele>
        <time>2016-09-22T16:03:00Z</time>
      </trkpt>
      <trkpt lat="43.491625" lon="-8.250714">
        <ele>16.029</ele>
        <time>2016-09-22T16:03:03Z</time>
      </trkpt>
      <trkpt lat="43.491677" lon="-8.250642">
        <ele>15.067</ele>
        <time>2016-09-22T16:03:04Z</time>
      </trkpt>
      <trkpt lat="43.491772" lon="-8.250518">
        <ele>14.035</ele>
        <time>2016-09-22T16:03:06Z</time>
      </trkpt>
      <trkpt lat="43.491815" lon="-8.250465">
        <ele>13.625</ele>
        <time>2016-09-22T16:03:07Z</time>
      </trkpt>
      <trkpt lat="43.491990" lon="-8.250239">
        <ele>13.067</ele>
        <time>2016-09-22T16:03:11Z</time>
      </trkpt>
      <trkpt lat="43.492044" lon="-8.250186">
        <ele>13.079</ele>
        <time>2016-09-22T16:03:12Z</time>
      </trkpt>
      <trkpt lat="43.492152" lon="-8.250078">
        <ele>11.059</ele>
        <time>2016-09-22T16:03:14Z</time>
      </trkpt>
      <trkpt lat="43.492206" lon="-8.250017">
        <ele>10.003</ele>
        <time>2016-09-22T16:03:15Z</time>
      </trkpt>
      <trkpt lat="43.492318" lon="-8.249854">
        <ele>8.023</ele>
        <time>2016-09-22T16:03:17Z</time>
      </trkpt>
      <trkpt lat="43.492436" lon="-8.249666">
        <ele>6.408</ele>
        <time>2016-09-22T16:03:19Z</time>
      </trkpt>
      <trkpt lat="43.492553" lon="-8.249468">
        <ele>5.246</ele>
        <time>2016-09-22T16:03:21Z</time>
      </trkpt>
      <trkpt lat="43.492612" lon="-8.249374">
        <ele>4.630</ele>
        <time>2016-09-22T16:03:22Z</time>
      </trkpt>
      <trkpt lat="43.492667" lon="-8.249280">
        <ele>4.295</ele>
        <time>2016-09-22T16:03:23Z</time>
      </trkpt>
      <trkpt lat="43.492826" lon="-8.249014">
        <ele>3.273</ele>
        <time>2016-09-22T16:03:26Z</time>
      </trkpt>
      <trkpt lat="43.492875" lon="-8.248927">
        <ele>3.011</ele>
        <time>2016-09-22T16:03:27Z</time>
      </trkpt>
      <trkpt lat="43.493101" lon="-8.248470">
        <ele>2.651</ele>
        <time>2016-09-22T16:03:33Z</time>
      </trkpt>
      <trkpt lat="43.493253" lon="-8.248083">
        <ele>2.633</ele>
        <time>2016-09-22T16:03:39Z</time>
      </trkpt>
      <trkpt lat="43.493366" lon="-8.247608">
        <ele>2.815</ele>
        <time>2016-09-22T16:03:46Z</time>
      </trkpt>
      <trkpt lat="43.493437" lon="-8.247177">
        <ele>2.299</ele>
        <time>2016-09-22T16:03:52Z</time>
      </trkpt>
      <trkpt lat="43.493468" lon="-8.246595">
        <ele>2.407</ele>
        <time>2016-09-22T16:04:00Z</time>
      </trkpt>
      <trkpt lat="43.493434" lon="-8.246024">
        <ele>2.227</ele>
        <time>2016-09-22T16:04:08Z</time>
      </trkpt>
      <trkpt lat="43.493355" lon="-8.245563">
        <ele>2.608</ele>
        <time>2016-09-22T16:04:15Z</time>
      </trkpt>
      <trkpt lat="43.493190" lon="-8.244983">
        <ele>2.430</ele>
        <time>2016-09-22T16:04:24Z</time>
      </trkpt>
      <trkpt lat="43.492960" lon="-8.244447">
        <ele>2.264</ele>
        <time>2016-09-22T16:04:33Z</time>
      </trkpt>
      <trkpt lat="43.492927" lon="-8.244394">
        <ele>2.419</ele>
        <time>2016-09-22T16:04:34Z</time>
      </trkpt>
      <trkpt lat="43.492795" lon="-8.244289">
        <ele>2.487</ele>
        <time>2016-09-22T16:04:37Z</time>
      </trkpt>
      <trkpt lat="43.492746" lon="-8.244266">
        <ele>2.485</ele>
        <time>2016-09-22T16:04:38Z</time>
      </trkpt>
      <trkpt lat="43.492354" lon="-8.244087">
        <ele>2.215</ele>
        <time>2016-09-22T16:04:46Z</time>
      </trkpt>
      <trkpt lat="43.491980" lon="-8.243922">
        <ele>2.057</ele>
        <time>2016-09-22T16:04:55Z</time>
      </trkpt>
      <trkpt lat="43.491939" lon="-8.243907">
        <ele>2.049</ele>
        <time>2016-09-22T16:04:56Z</time>
      </trkpt>
      <trkpt lat="43.491838" lon="-8.243869">
        <ele>1.633</ele>
        <time>2016-09-22T16:05:00Z</time>
      </trkpt>
      <trkpt lat="43.491835" lon="-8.243866">
        <ele>1.823</ele>
        <time>2016-09-22T16:05:03Z</time>
      </trkpt>
      <trkpt lat="43.491813" lon="-8.243806">
        <ele>1.415</ele>
        <time>2016-09-22T16:08:22Z</time>
      </trkpt>
      <trkpt lat="43.491761" lon="-8.243606">
        <ele>1.408</ele>
        <time>2016-09-22T16:08:27Z</time>
      </trkpt>
      <trkpt lat="43.491639" lon="-8.243156">
        <ele>1.474</ele>
        <time>2016-09-22T16:08:36Z</time>
      </trkpt>
      <trkpt lat="43.491539" lon="-8.243035">
        <ele>1.848</ele>
        <time>2016-09-22T16:08:39Z</time>
      </trkpt>
      <trkpt lat="43.491499" lon="-8.243008">
        <ele>1.843</ele>
        <time>2016-09-22T16:08:40Z</time>
      </trkpt>
      <trkpt lat="43.491146" lon="-8.242798">
        <ele>1.221</ele>
        <time>2016-09-22T16:08:48Z</time>
      </trkpt>
      <trkpt lat="43.490809" lon="-8.242693">
        <ele>1.449</ele>
        <time>2016-09-22T16:08:55Z</time>
      </trkpt>
      <trkpt lat="43.490763" lon="-8.242713">
        <ele>1.639</ele>
        <time>2016-09-22T16:08:56Z</time>
      </trkpt>
      <trkpt lat="43.490677" lon="-8.242780">
        <ele>1.611</ele>
        <time>2016-09-22T16:08:58Z</time>
      </trkpt>
      <trkpt lat="43.490578" lon="-8.242796">
        <ele>1.413</ele>
        <time>2016-09-22T16:09:00Z</time>
      </trkpt>
      <trkpt lat="43.490398" lon="-8.242693">
        <ele>1.643</ele>
        <time>2016-09-22T16:09:04Z</time>
      </trkpt>
      <trkpt lat="43.490356" lon="-8.242660">
        <ele>1.664</ele>
        <time>2016-09-22T16:09:05Z</time>
      </trkpt>
      <trkpt lat="43.490256" lon="-8.242646">
        <ele>1.810</ele>
        <time>2016-09-22T16:09:07Z</time>
      </trkpt>
      <trkpt lat="43.489794" lon="-8.242754">
        <ele>2.008</ele>
        <time>2016-09-22T16:09:16Z</time>
      </trkpt>
      <trkpt lat="43.489544" lon="-8.242881">
        <ele>1.815</ele>
        <time>2016-09-22T16:09:21Z</time>
      </trkpt>
      <trkpt lat="43.489497" lon="-8.242919">
        <ele>1.859</ele>
        <time>2016-09-22T16:09:22Z</time>
      </trkpt>
      <trkpt lat="43.489364" lon="-8.243058">
        <ele>1.694</ele>
        <time>2016-09-22T16:09:25Z</time>
      </trkpt>
      <trkpt lat="43.489246" lon="-8.243229">
        <ele>1.482</ele>
        <time>2016-09-22T16:09:28Z</time>
      </trkpt>
      <trkpt lat="43.489044" lon="-8.243651">
        <ele>1.880</ele>
        <time>2016-09-22T16:09:34Z</time>
      </trkpt>
      <trkpt lat="43.488761" lon="-8.244095">
        <ele>1.820</ele>
        <time>2016-09-22T16:09:41Z</time>
      </trkpt>
      <trkpt lat="43.488358" lon="-8.244614">
        <ele>1.662</ele>
        <time>2016-09-22T16:09:50Z</time>
      </trkpt>
      <trkpt lat="43.488000" lon="-8.245075">
        <ele>1.674</ele>
        <time>2016-09-22T16:09:58Z</time>
      </trkpt>
      <trkpt lat="43.487606" lon="-8.245568">
        <ele>1.461</ele>
        <time>2016-09-22T16:10:07Z</time>
      </trkpt>
      <trkpt lat="43.487290" lon="-8.245959">
        <ele>1.221</ele>
        <time>2016-09-22T16:10:15Z</time>
      </trkpt>
      <trkpt lat="43.486919" lon="-8.246439">
        <ele>1.013</ele>
        <time>2016-09-22T16:10:23Z</time>
      </trkpt>
      <trkpt lat="43.486523" lon="-8.246989">
        <ele>1.208</ele>
        <time>2016-09-22T16:10:32Z</time>
      </trkpt>
      <trkpt lat="43.486308" lon="-8.247409">
        <ele>1.257</ele>
        <time>2016-09-22T16:10:38Z</time>
      </trkpt>
      <trkpt lat="43.486176" lon="-8.247836">
        <ele>1.851</ele>
        <time>2016-09-22T16:10:44Z</time>
      </trkpt>
      <trkpt lat="43.486132" lon="-8.248108">
        <ele>1.656</ele>
        <time>2016-09-22T16:10:48Z</time>
      </trkpt>
      <trkpt lat="43.486141" lon="-8.248170">
        <ele>1.614</ele>
        <time>2016-09-22T16:10:49Z</time>
      </trkpt>
      <trkpt lat="43.486168" lon="-8.248416">
        <ele>1.682</ele>
        <time>2016-09-22T16:10:53Z</time>
      </trkpt>
      <trkpt lat="43.486166" lon="-8.248480">
        <ele>1.832</ele>
        <time>2016-09-22T16:10:54Z</time>
      </trkpt>
      <trkpt lat="43.486091" lon="-8.248684">
        <ele>1.894</ele>
        <time>2016-09-22T16:10:58Z</time>
      </trkpt>
      <trkpt lat="43.485993" lon="-8.248817">
        <ele>2.856</ele>
        <time>2016-09-22T16:11:02Z</time>
      </trkpt>
      <trkpt lat="43.485940" lon="-8.248855">
        <ele>3.692</ele>
        <time>2016-09-22T16:11:04Z</time>
      </trkpt>
      <trkpt lat="43.485888" lon="-8.248885">
        <ele>4.073</ele>
        <time>2016-09-22T16:11:06Z</time>
      </trkpt>
      <trkpt lat="43.485779" lon="-8.248925">
        <ele>5.220</ele>
        <time>2016-09-22T16:11:10Z</time>
      </trkpt>
      <trkpt lat="43.485751" lon="-8.248928">
        <ele>5.808</ele>
        <time>2016-09-22T16:11:11Z</time>
      </trkpt>
      <trkpt lat="43.485694" lon="-8.248931">
        <ele>6.210</ele>
        <time>2016-09-22T16:11:13Z</time>
      </trkpt>
      <trkpt lat="43.485582" lon="-8.248918">
        <ele>7.624</ele>
        <time>2016-09-22T16:11:17Z</time>
      </trkpt>
      <trkpt lat="43.485525" lon="-8.248903">
        <ele>8.479</ele>
        <time>2016-09-22T16:11:19Z</time>
      </trkpt>
      <trkpt lat="43.485494" lon="-8.248892">
        <ele>8.837</ele>
        <time>2016-09-22T16:11:20Z</time>
      </trkpt>
      <trkpt lat="43.485399" lon="-8.248847">
        <ele>9.885</ele>
        <time>2016-09-22T16:11:23Z</time>
      </trkpt>
      <trkpt lat="43.485307" lon="-8.248794">
        <ele>10.615</ele>
        <time>2016-09-22T16:11:26Z</time>
      </trkpt>
      <trkpt lat="43.485276" lon="-8.248773">
        <ele>10.887</ele>
        <time>2016-09-22T16:11:27Z</time>
      </trkpt>
      <trkpt lat="43.485078" lon="-8.248623">
        <ele>11.429</ele>
        <time>2016-09-22T16:11:33Z</time>
      </trkpt>
      <trkpt lat="43.484792" lon="-8.248505">
        <ele>10.848</ele>
        <time>2016-09-22T16:11:39Z</time>
      </trkpt>
      <trkpt lat="43.484568" lon="-8.248523">
        <ele>9.461</ele>
        <time>2016-09-22T16:11:42Z</time>
      </trkpt>
      <trkpt lat="43.484483" lon="-8.248548">
        <ele>8.617</ele>
        <time>2016-09-22T16:11:43Z</time>
      </trkpt>
      <trkpt lat="43.484393" lon="-8.248579">
        <ele>8.008</ele>
        <time>2016-09-22T16:11:44Z</time>
      </trkpt>
      <trkpt lat="43.484196" lon="-8.248652">
        <ele>6.425</ele>
        <time>2016-09-22T16:11:46Z</time>
      </trkpt>
      <trkpt lat="43.484092" lon="-8.248674">
        <ele>5.499</ele>
        <time>2016-09-22T16:11:47Z</time>
      </trkpt>
      <trkpt lat="43.483887" lon="-8.248675">
        <ele>3.864</ele>
        <time>2016-09-22T16:11:49Z</time>
      </trkpt>
      <trkpt lat="43.483600" lon="-8.248679">
        <ele>3.062</ele>
        <time>2016-09-22T16:11:52Z</time>
      </trkpt>
      <trkpt lat="43.483511" lon="-8.248679">
        <ele>2.860</ele>
        <time>2016-09-22T16:11:53Z</time>
      </trkpt>
      <trkpt lat="43.483171" lon="-8.248635">
        <ele>2.630</ele>
        <time>2016-09-22T16:11:57Z</time>
      </trkpt>
      <trkpt lat="43.482639" lon="-8.248495">
        <ele>2.022</ele>
        <time>2016-09-22T16:12:04Z</time>
      </trkpt>
      <trkpt lat="43.482436" lon="-8.248431">
        <ele>1.864</ele>
        <time>2016-09-22T16:12:07Z</time>
      </trkpt>
      <trkpt lat="43.482307" lon="-8.248391">
        <ele>1.636</ele>
        <time>2016-09-22T16:12:09Z</time>
      </trkpt>
      <trkpt lat="43.481873" lon="-8.248282">
        <ele>1.817</ele>
        <time>2016-09-22T16:12:16Z</time>
      </trkpt>
      <trkpt lat="43.481316" lon="-8.248143">
        <ele>1.618</ele>
        <time>2016-09-22T16:12:25Z</time>
      </trkpt>
      <trkpt lat="43.481133" lon="-8.248098">
        <ele>1.808</ele>
        <time>2016-09-22T16:12:28Z</time>
      </trkpt>
      <trkpt lat="43.480652" lon="-8.247938">
        <ele>1.824</ele>
        <time>2016-09-22T16:12:36Z</time>
      </trkpt>
      <trkpt lat="43.480224" lon="-8.247642">
        <ele>1.828</ele>
        <time>2016-09-22T16:12:44Z</time>
      </trkpt>
      <trkpt lat="43.480131" lon="-8.247535">
        <ele>1.893</ele>
        <time>2016-09-22T16:12:46Z</time>
      </trkpt>
      <trkpt lat="43.479969" lon="-8.247288">
        <ele>1.671</ele>
        <time>2016-09-22T16:12:50Z</time>
      </trkpt>
      <trkpt lat="43.479821" lon="-8.247033">
        <ele>1.439</ele>
        <time>2016-09-22T16:12:54Z</time>
      </trkpt>
      <trkpt lat="43.479775" lon="-8.246982">
        <ele>1.479</ele>
        <time>2016-09-22T16:12:55Z</time>
      </trkpt>
      <trkpt lat="43.479662" lon="-8.246826">
        <ele>2.051</ele>
        <time>2016-09-22T16:12:58Z</time>
      </trkpt>
      <trkpt lat="43.479631" lon="-8.246768">
        <ele>2.293</ele>
        <time>2016-09-22T16:12:59Z</time>
      </trkpt>
      <trkpt lat="43.479565" lon="-8.246656">
        <ele>2.835</ele>
        <time>2016-09-22T16:13:01Z</time>
      </trkpt>
      <trkpt lat="43.479320" lon="-8.246318">
        <ele>2.886</ele>
        <time>2016-09-22T16:13:08Z</time>
      </trkpt>
      <trkpt lat="43.479198" lon="-8.246173">
        <ele>1.814</ele>
        <time>2016-09-22T16:13:11Z</time>
      </trkpt>
      <trkpt lat="43.479182" lon="-8.246098">
        <ele>1.608</ele>
        <time>2016-09-22T16:13:12Z</time>
      </trkpt>
      <trkpt lat="43.479120" lon="-8.245809">
        <ele>1.894</ele>
        <time>2016-09-22T16:13:16Z</time>
      </trkpt>
      <trkpt lat="43.479086" lon="-8.245750">
        <ele>2.078</ele>
        <time>2016-09-22T16:13:17Z</time>
      </trkpt>
      <trkpt lat="43.478877" lon="-8.245329">
        <ele>1.823</ele>
        <time>2016-09-22T16:13:24Z</time>
      </trkpt>
      <trkpt lat="43.478760" lon="-8.244963">
        <ele>1.691</ele>
        <time>2016-09-22T16:13:30Z</time>
      </trkpt>
      <trkpt lat="43.478661" lon="-8.244675">
        <ele>1.899</ele>
        <time>2016-09-22T16:13:35Z</time>
      </trkpt>
      <trkpt lat="43.478603" lon="-8.244564">
        <ele>1.869</ele>
        <time>2016-09-22T16:13:37Z</time>
      </trkpt>
      <trkpt lat="43.478388" lon="-8.244058">
        <ele>2.061</ele>
        <time>2016-09-22T16:13:45Z</time>
      </trkpt>
      <trkpt lat="43.478199" lon="-8.243677">
        <ele>2.493</ele>
        <time>2016-09-22T16:13:51Z</time>
      </trkpt>
      <trkpt lat="43.478011" lon="-8.243389">
        <ele>2.635</ele>
        <time>2016-09-22T16:13:56Z</time>
      </trkpt>
      <trkpt lat="43.477907" lon="-8.243209">
        <ele>3.086</ele>
        <time>2016-09-22T16:13:59Z</time>
      </trkpt>
      <trkpt lat="43.477883" lon="-8.243140">
        <ele>3.014</ele>
        <time>2016-09-22T16:14:00Z</time>
      </trkpt>
      <trkpt lat="43.477874" lon="-8.242918">
        <ele>3.408</ele>
        <time>2016-09-22T16:14:03Z</time>
      </trkpt>
      <trkpt lat="43.477940" lon="-8.242719">
        <ele>3.654</ele>
        <time>2016-09-22T16:14:06Z</time>
      </trkpt>
      <trkpt lat="43.477971" lon="-8.242656">
        <ele>3.638</ele>
        <time>2016-09-22T16:14:07Z</time>
      </trkpt>
      <trkpt lat="43.478003" lon="-8.242596">
        <ele>3.653</ele>
        <time>2016-09-22T16:14:08Z</time>
      </trkpt>
      <trkpt lat="43.478223" lon="-8.242174">
        <ele>3.651</ele>
        <time>2016-09-22T16:14:15Z</time>
      </trkpt>
      <trkpt lat="43.478535" lon="-8.241632">
        <ele>4.049</ele>
        <time>2016-09-22T16:14:24Z</time>
      </trkpt>
      <trkpt lat="43.478641" lon="-8.241454">
        <ele>3.649</ele>
        <time>2016-09-22T16:14:27Z</time>
      </trkpt>
      <trkpt lat="43.478682" lon="-8.241400">
        <ele>3.621</ele>
        <time>2016-09-22T16:14:28Z</time>
      </trkpt>
      <trkpt lat="43.478770" lon="-8.241300">
        <ele>3.483</ele>
        <time>2016-09-22T16:14:30Z</time>
      </trkpt>
      <trkpt lat="43.478852" lon="-8.241212">
        <ele>3.263</ele>
        <time>2016-09-22T16:14:32Z</time>
      </trkpt>
      <trkpt lat="43.478937" lon="-8.241149">
        <ele>3.244</ele>
        <time>2016-09-22T16:14:34Z</time>
      </trkpt>
      <trkpt lat="43.479199" lon="-8.240973">
        <ele>3.818</ele>
        <time>2016-09-22T16:14:40Z</time>
      </trkpt>
      <trkpt lat="43.479288" lon="-8.240942">
        <ele>3.808</ele>
        <time>2016-09-22T16:14:42Z</time>
      </trkpt>
      <trkpt lat="43.479375" lon="-8.240906">
        <ele>3.697</ele>
        <time>2016-09-22T16:14:44Z</time>
      </trkpt>
      <trkpt lat="43.479521" lon="-8.240807">
        <ele>4.071</ele>
        <time>2016-09-22T16:14:48Z</time>
      </trkpt>
      <trkpt lat="43.479649" lon="-8.240622">
        <ele>4.246</ele>
        <time>2016-09-22T16:14:53Z</time>
      </trkpt>
      <trkpt lat="43.479692" lon="-8.240546">
        <ele>4.494</ele>
        <time>2016-09-22T16:14:55Z</time>
      </trkpt>
      <trkpt lat="43.479693" lon="-8.240512">
        <ele>4.462</ele>
        <time>2016-09-22T16:14:56Z</time>
      </trkpt>
      <trkpt lat="43.479667" lon="-8.240453">
        <ele>4.682</ele>
        <time>2016-09-22T16:15:00Z</time>
      </trkpt>
      <trkpt lat="43.479694" lon="-8.240417">
        <ele>5.094</ele>
        <time>2016-09-22T16:15:42Z</time>
      </trkpt>
      <trkpt lat="43.479732" lon="-8.240453">
        <ele>5.026</ele>
        <time>2016-09-22T16:15:44Z</time>
      </trkpt>
      <trkpt lat="43.479855" lon="-8.240514">
        <ele>5.293</ele>
        <time>2016-09-22T16:15:48Z</time>
      </trkpt>
      <trkpt lat="43.479991" lon="-8.240461">
        <ele>5.065</ele>
        <time>2016-09-22T16:15:52Z</time>
      </trkpt>
      <trkpt lat="43.480018" lon="-8.240415">
        <ele>5.021</ele>
        <time>2016-09-22T16:15:53Z</time>
      </trkpt>
    </trkseg>
  </trk>
</gpx>
